<?xml version='1.0' encoding='UTF-8'?><gpx version="1.1" creator="JPX - https://github.com/jenetics/jpx" xmlns="http://www.topografix.com/GPX/1/1"><trk><trkseg><trkpt lat="41.8219967" lon="12.8273367"><ele>317.0</ele><time>2026-04-11T06:44:29.811Z</time></trkpt><trkpt lat="41.822035" lon="12.827405"><ele>317.0</ele><time>2026-04-11T07:03:48.812Z</time></trkpt><trkpt lat="41.8219683" lon="12.8275"><ele>317.0</ele><time>2026-04-11T07:04:37.813Z</time></trkpt><trkpt lat="41.8219206" lon="12.8275615"><ele>317.0</ele><time>2026-04-11T07:04:46.814Z</time></trkpt><trkpt lat="41.8218563" lon="12.8275684"><ele>317.0</ele><time>2026-04-11T07:04:53.811Z</time></trkpt><trkpt lat="41.8217577" lon="12.8275744"><ele>317.0</ele><time>2026-04-11T07:05:43.811Z</time></trkpt><trkpt lat="41.8217529" lon="12.8273691"><ele>317.0</ele><time>2026-04-11T07:05:48.813Z</time></trkpt><trkpt lat="41.8217072" lon="12.8273041"><ele>317.0</ele><time>2026-04-11T07:06:25.813Z</time></trkpt><trkpt lat="41.8216336" lon="12.8273269"><ele>317.0</ele><time>2026-04-11T07:06:33.813Z</time></trkpt><trkpt lat="41.8215942" lon="12.8274035"><ele>317.0</ele><time>2026-04-11T07:06:46.813Z</time></trkpt><trkpt lat="41.8216415" lon="12.8274762"><ele>317.0</ele><time>2026-04-11T07:06:51.812Z</time></trkpt><trkpt lat="41.8215942" lon="12.8275482"><ele>317.0</ele><time>2026-04-11T07:06:59.812Z</time></trkpt><trkpt lat="41.8216494" lon="12.8275987"><ele>317.0</ele><time>2026-04-11T07:07:02.812Z</time></trkpt><trkpt lat="41.821701" lon="12.8276512"><ele>317.0</ele><time>2026-04-11T07:07:12.813Z</time></trkpt><trkpt lat="41.8217735" lon="12.8276636"><ele>317.0</ele><time>2026-04-11T07:07:17.812Z</time></trkpt><trkpt lat="41.8218208" lon="12.8277404"><ele>317.0</ele><time>2026-04-11T07:07:26.813Z</time></trkpt><trkpt lat="41.8217794" lon="12.8276424"><ele>317.0</ele><time>2026-04-11T07:07:30.813Z</time></trkpt><trkpt lat="41.821782" lon="12.8277417"><ele>317.0</ele><time>2026-04-11T07:08:03.813Z</time></trkpt><trkpt lat="41.8218355" lon="12.8278244"><ele>317.0</ele><time>2026-04-11T07:08:08.813Z</time></trkpt><trkpt lat="41.8217951" lon="12.8277036"><ele>317.0</ele><time>2026-04-11T07:08:28.811Z</time></trkpt><trkpt lat="41.8217698" lon="12.8276218"><ele>317.0</ele><time>2026-04-11T07:08:29.813Z</time></trkpt><trkpt lat="41.8217447" lon="12.8275359"><ele>317.0</ele><time>2026-04-11T07:08:34.811Z</time></trkpt><trkpt lat="41.8218604" lon="12.8276256"><ele>317.0</ele><time>2026-04-11T07:09:03.813Z</time></trkpt><trkpt lat="41.8218394" lon="12.8274918"><ele>317.0</ele><time>2026-04-11T07:09:05.811Z</time></trkpt><trkpt lat="41.8218681" lon="12.8274108"><ele>317.0</ele><time>2026-04-11T07:09:18.811Z</time></trkpt><trkpt lat="41.8219098" lon="12.8273461"><ele>317.0</ele><time>2026-04-11T07:09:28.814Z</time></trkpt><trkpt lat="41.8219689" lon="12.8273146"><ele>317.0</ele><time>2026-04-11T07:09:40.813Z</time></trkpt><trkpt lat="41.8219221" lon="12.8273718"><ele>317.0</ele><time>2026-04-11T07:15:07.813Z</time></trkpt><trkpt lat="41.821947" lon="12.827453"><ele>317.0</ele><time>2026-04-11T07:15:11.815Z</time></trkpt><trkpt lat="41.822019" lon="12.8274714"><ele>317.0</ele><time>2026-04-11T07:15:13.813Z</time></trkpt><trkpt lat="41.8221087" lon="12.8274829"><ele>317.0</ele><time>2026-04-11T07:15:15.813Z</time></trkpt><trkpt lat="41.8222059" lon="12.827499"><ele>317.0</ele><time>2026-04-11T07:15:17.814Z</time></trkpt><trkpt lat="41.8222964" lon="12.8275572"><ele>317.0</ele><time>2026-04-11T07:15:19.811Z</time></trkpt><trkpt lat="41.822349" lon="12.8276677"><ele>317.0</ele><time>2026-04-11T07:15:21.811Z</time></trkpt><trkpt lat="41.8224" lon="12.82779"><ele>317.0</ele><time>2026-04-11T07:15:23.81Z</time></trkpt><trkpt lat="41.822515" lon="12.8278317"><ele>317.0</ele><time>2026-04-11T07:15:25.812Z</time></trkpt><trkpt lat="41.8226317" lon="12.82776"><ele>316.8571428571429</ele><time>2026-04-11T07:15:27.811Z</time></trkpt><trkpt lat="41.8226883" lon="12.8277117"><ele>316.7142857142857</ele><time>2026-04-11T07:15:28.811Z</time></trkpt><trkpt lat="41.8227383" lon="12.827655"><ele>316.57142857142856</ele><time>2026-04-11T07:15:29.812Z</time></trkpt><trkpt lat="41.822795" lon="12.8275933"><ele>316.42857142857144</ele><time>2026-04-11T07:15:30.809Z</time></trkpt><trkpt lat="41.8228583" lon="12.8275383"><ele>316.2857142857143</ele><time>2026-04-11T07:15:31.814Z</time></trkpt><trkpt lat="41.8229267" lon="12.8274983"><ele>316.14285714285717</ele><time>2026-04-11T07:15:32.81Z</time></trkpt><trkpt lat="41.8230067" lon="12.827475"><ele>316.0</ele><time>2026-04-11T07:15:33.812Z</time></trkpt><trkpt lat="41.82309" lon="12.8274683"><ele>316.0</ele><time>2026-04-11T07:15:34.813Z</time></trkpt><trkpt lat="41.8231817" lon="12.8274667"><ele>316.0</ele><time>2026-04-11T07:15:35.813Z</time></trkpt><trkpt lat="41.82328" lon="12.8274617"><ele>316.0</ele><time>2026-04-11T07:15:36.809Z</time></trkpt><trkpt lat="41.8233833" lon="12.8274517"><ele>316.0</ele><time>2026-04-11T07:15:37.813Z</time></trkpt><trkpt lat="41.8234933" lon="12.8274383"><ele>316.0</ele><time>2026-04-11T07:15:38.809Z</time></trkpt><trkpt lat="41.8235967" lon="12.827435"><ele>316.0</ele><time>2026-04-11T07:15:39.813Z</time></trkpt><trkpt lat="41.8237033" lon="12.82743"><ele>316.0</ele><time>2026-04-11T07:15:40.81Z</time></trkpt><trkpt lat="41.8238117" lon="12.8274217"><ele>316.0</ele><time>2026-04-11T07:15:41.81Z</time></trkpt><trkpt lat="41.8239183" lon="12.8274167"><ele>316.0</ele><time>2026-04-11T07:15:42.812Z</time></trkpt><trkpt lat="41.8240267" lon="12.8274083"><ele>316.0</ele><time>2026-04-11T07:15:43.814Z</time></trkpt><trkpt lat="41.8241383" lon="12.8274033"><ele>316.0</ele><time>2026-04-11T07:15:44.813Z</time></trkpt><trkpt lat="41.82425" lon="12.8273983"><ele>316.0</ele><time>2026-04-11T07:15:45.813Z</time></trkpt><trkpt lat="41.8243633" lon="12.827395"><ele>316.0</ele><time>2026-04-11T07:15:46.812Z</time></trkpt><trkpt lat="41.8244783" lon="12.8273917"><ele>316.0</ele><time>2026-04-11T07:15:47.812Z</time></trkpt><trkpt lat="41.8245933" lon="12.82739"><ele>316.25</ele><time>2026-04-11T07:15:48.811Z</time></trkpt><trkpt lat="41.8247117" lon="12.82739"><ele>316.5</ele><time>2026-04-11T07:15:49.811Z</time></trkpt><trkpt lat="41.82483" lon="12.8273817"><ele>316.75</ele><time>2026-04-11T07:15:50.811Z</time></trkpt><trkpt lat="41.8249467" lon="12.8273783"><ele>317.0</ele><time>2026-04-11T07:15:51.811Z</time></trkpt><trkpt lat="41.8250567" lon="12.827375"><ele>316.83333333333337</ele><time>2026-04-11T07:15:52.81Z</time></trkpt><trkpt lat="41.82516" lon="12.827375"><ele>316.6666666666667</ele><time>2026-04-11T07:15:53.81Z</time></trkpt><trkpt lat="41.8252533" lon="12.82737"><ele>316.5</ele><time>2026-04-11T07:15:54.811Z</time></trkpt><trkpt lat="41.8253433" lon="12.8273667"><ele>316.3333333333333</ele><time>2026-04-11T07:15:55.811Z</time></trkpt><trkpt lat="41.8254233" lon="12.8273683"><ele>316.16666666666663</ele><time>2026-04-11T07:15:56.81Z</time></trkpt><trkpt lat="41.8255" lon="12.8273833"><ele>316.0</ele><time>2026-04-11T07:15:57.811Z</time></trkpt><trkpt lat="41.8255667" lon="12.8274067"><ele>316.0</ele><time>2026-04-11T07:15:58.813Z</time></trkpt><trkpt lat="41.8256283" lon="12.827435"><ele>316.0</ele><time>2026-04-11T07:15:59.811Z</time></trkpt><trkpt lat="41.82574" lon="12.8275"><ele>316.0</ele><time>2026-04-11T07:16:01.811Z</time></trkpt><trkpt lat="41.8257967" lon="12.8275417"><ele>316.0</ele><time>2026-04-11T07:16:02.814Z</time></trkpt><trkpt lat="41.82585" lon="12.8275883"><ele>316.0</ele><time>2026-04-11T07:16:03.81Z</time></trkpt><trkpt lat="41.8259017" lon="12.8276533"><ele>316.0</ele><time>2026-04-11T07:16:04.816Z</time></trkpt><trkpt lat="41.82595" lon="12.827735"><ele>317.20000000000005</ele><time>2026-04-11T07:16:05.813Z</time></trkpt><trkpt lat="41.8259917" lon="12.8278317"><ele>318.40000000000003</ele><time>2026-04-11T07:16:06.809Z</time></trkpt><trkpt lat="41.826025" lon="12.8279483"><ele>319.6</ele><time>2026-04-11T07:16:07.811Z</time></trkpt><trkpt lat="41.82606" lon="12.8280733"><ele>320.8</ele><time>2026-04-11T07:16:08.81Z</time></trkpt><trkpt lat="41.8260983" lon="12.828205"><ele>322.0</ele><time>2026-04-11T07:16:09.809Z</time></trkpt><trkpt lat="41.8261383" lon="12.8283383"><ele>322.0</ele><time>2026-04-11T07:16:10.814Z</time></trkpt><trkpt lat="41.8261783" lon="12.82847"><ele>322.0</ele><time>2026-04-11T07:16:11.814Z</time></trkpt><trkpt lat="41.8262133" lon="12.8286017"><ele>322.0</ele><time>2026-04-11T07:16:12.812Z</time></trkpt><trkpt lat="41.8262517" lon="12.8287417"><ele>322.0</ele><time>2026-04-11T07:16:13.813Z</time></trkpt><trkpt lat="41.8262933" lon="12.8288883"><ele>322.0</ele><time>2026-04-11T07:16:14.813Z</time></trkpt><trkpt lat="41.82634" lon="12.8290367"><ele>322.25</ele><time>2026-04-11T07:16:15.813Z</time></trkpt><trkpt lat="41.826385" lon="12.8291883"><ele>322.5</ele><time>2026-04-11T07:16:16.813Z</time></trkpt><trkpt lat="41.8264267" lon="12.8293433"><ele>322.75</ele><time>2026-04-11T07:16:17.811Z</time></trkpt><trkpt lat="41.82646" lon="12.8295083"><ele>323.0</ele><time>2026-04-11T07:16:18.811Z</time></trkpt><trkpt lat="41.8264933" lon="12.8296783"><ele>323.0</ele><time>2026-04-11T07:16:19.811Z</time></trkpt><trkpt lat="41.82652" lon="12.82985"><ele>323.0</ele><time>2026-04-11T07:16:20.811Z</time></trkpt><trkpt lat="41.8265433" lon="12.830015"><ele>323.0</ele><time>2026-04-11T07:16:21.811Z</time></trkpt><trkpt lat="41.8265583" lon="12.8301817"><ele>323.0</ele><time>2026-04-11T07:16:22.811Z</time></trkpt><trkpt lat="41.8265717" lon="12.83035"><ele>323.0</ele><time>2026-04-11T07:16:23.811Z</time></trkpt><trkpt lat="41.8265833" lon="12.83052"><ele>323.0</ele><time>2026-04-11T07:16:24.81Z</time></trkpt><trkpt lat="41.8265967" lon="12.8306917"><ele>323.0</ele><time>2026-04-11T07:16:25.811Z</time></trkpt><trkpt lat="41.8266117" lon="12.8308683"><ele>323.0</ele><time>2026-04-11T07:16:26.811Z</time></trkpt><trkpt lat="41.826625" lon="12.8310517"><ele>324.0</ele><time>2026-04-11T07:16:27.811Z</time></trkpt><trkpt lat="41.82664" lon="12.83124"><ele>325.0</ele><time>2026-04-11T07:16:28.811Z</time></trkpt><trkpt lat="41.8266467" lon="12.83143"><ele>326.0</ele><time>2026-04-11T07:16:29.812Z</time></trkpt><trkpt lat="41.8266533" lon="12.83162"><ele>327.0</ele><time>2026-04-11T07:16:30.812Z</time></trkpt><trkpt lat="41.8266617" lon="12.8318067"><ele>327.5</ele><time>2026-04-11T07:16:31.812Z</time></trkpt><trkpt lat="41.8266633" lon="12.8319817"><ele>328.0</ele><time>2026-04-11T07:16:32.812Z</time></trkpt><trkpt lat="41.8266617" lon="12.832155"><ele>328.5</ele><time>2026-04-11T07:16:33.81Z</time></trkpt><trkpt lat="41.8266333" lon="12.8323283"><ele>329.0</ele><time>2026-04-11T07:16:34.809Z</time></trkpt><trkpt lat="41.8266017" lon="12.8325033"><ele>327.25</ele><time>2026-04-11T07:16:35.814Z</time></trkpt><trkpt lat="41.82656" lon="12.832685"><ele>325.5</ele><time>2026-04-11T07:16:36.813Z</time></trkpt><trkpt lat="41.826515" lon="12.8328767"><ele>323.75</ele><time>2026-04-11T07:16:37.813Z</time></trkpt><trkpt lat="41.8264683" lon="12.8330783"><ele>322.0</ele><time>2026-04-11T07:16:38.813Z</time></trkpt><trkpt lat="41.8264133" lon="12.83329"><ele>318.3333333333333</ele><time>2026-04-11T07:16:39.813Z</time></trkpt><trkpt lat="41.8263567" lon="12.8335067"><ele>314.6666666666667</ele><time>2026-04-11T07:16:40.813Z</time></trkpt><trkpt lat="41.8263033" lon="12.83372"><ele>311.0</ele><time>2026-04-11T07:16:41.813Z</time></trkpt><trkpt lat="41.8262533" lon="12.833925"><ele>311.0</ele><time>2026-04-11T07:16:42.812Z</time></trkpt><trkpt lat="41.826205" lon="12.8341233"><ele>311.0</ele><time>2026-04-11T07:16:43.809Z</time></trkpt><trkpt lat="41.826155" lon="12.8343183"><ele>311.0</ele><time>2026-04-11T07:16:44.813Z</time></trkpt><trkpt lat="41.82611" lon="12.83451"><ele>309.0</ele><time>2026-04-11T07:16:45.813Z</time></trkpt><trkpt lat="41.8260717" lon="12.8347017"><ele>307.0</ele><time>2026-04-11T07:16:46.815Z</time></trkpt><trkpt lat="41.8260583" lon="12.8349033"><ele>305.0</ele><time>2026-04-11T07:16:47.81Z</time></trkpt><trkpt lat="41.8260567" lon="12.835105"><ele>303.0</ele><time>2026-04-11T07:16:48.81Z</time></trkpt><trkpt lat="41.82608" lon="12.83529"><ele>303.0</ele><time>2026-04-11T07:16:49.811Z</time></trkpt><trkpt lat="41.826115" lon="12.8354583"><ele>303.0</ele><time>2026-04-11T07:16:50.811Z</time></trkpt><trkpt lat="41.8261617" lon="12.83561"><ele>303.0</ele><time>2026-04-11T07:16:51.811Z</time></trkpt><trkpt lat="41.8262067" lon="12.83575"><ele>303.0</ele><time>2026-04-11T07:16:52.811Z</time></trkpt><trkpt lat="41.82625" lon="12.8358817"><ele>306.0</ele><time>2026-04-11T07:16:53.81Z</time></trkpt><trkpt lat="41.8262933" lon="12.83601"><ele>309.0</ele><time>2026-04-11T07:16:54.811Z</time></trkpt><trkpt lat="41.826335" lon="12.836135"><ele>312.0</ele><time>2026-04-11T07:16:55.811Z</time></trkpt><trkpt lat="41.82638" lon="12.8362633"><ele>315.0</ele><time>2026-04-11T07:16:56.811Z</time></trkpt><trkpt lat="41.82642" lon="12.836395"><ele>318.0</ele><time>2026-04-11T07:16:57.811Z</time></trkpt><trkpt lat="41.8264683" lon="12.8365283"><ele>318.0</ele><time>2026-04-11T07:16:58.811Z</time></trkpt><trkpt lat="41.8265233" lon="12.836665"><ele>318.0</ele><time>2026-04-11T07:16:59.813Z</time></trkpt><trkpt lat="41.8265783" lon="12.83681"><ele>318.0</ele><time>2026-04-11T07:17:00.81Z</time></trkpt><trkpt lat="41.8266283" lon="12.83697"><ele>318.0</ele><time>2026-04-11T07:17:01.811Z</time></trkpt><trkpt lat="41.8266817" lon="12.837125"><ele>319.0</ele><time>2026-04-11T07:17:02.813Z</time></trkpt><trkpt lat="41.8267333" lon="12.8372783"><ele>320.0</ele><time>2026-04-11T07:17:03.813Z</time></trkpt><trkpt lat="41.8267833" lon="12.8374283"><ele>321.0</ele><time>2026-04-11T07:17:04.81Z</time></trkpt><trkpt lat="41.8268417" lon="12.8375767"><ele>322.0</ele><time>2026-04-11T07:17:05.813Z</time></trkpt><trkpt lat="41.8268967" lon="12.8377217"><ele>322.0</ele><time>2026-04-11T07:17:06.809Z</time></trkpt><trkpt lat="41.826955" lon="12.8378633"><ele>322.0</ele><time>2026-04-11T07:17:07.812Z</time></trkpt><trkpt lat="41.8270167" lon="12.8380117"><ele>322.0</ele><time>2026-04-11T07:17:08.809Z</time></trkpt><trkpt lat="41.8270683" lon="12.8381517"><ele>322.0</ele><time>2026-04-11T07:17:09.809Z</time></trkpt><trkpt lat="41.82711" lon="12.8382717"><ele>322.0</ele><time>2026-04-11T07:17:10.813Z</time></trkpt><trkpt lat="41.827145" lon="12.8383767"><ele>322.0</ele><time>2026-04-11T07:17:11.812Z</time></trkpt><trkpt lat="41.8271817" lon="12.83847"><ele>322.0</ele><time>2026-04-11T07:17:12.81Z</time></trkpt><trkpt lat="41.82721" lon="12.8385517"><ele>322.0</ele><time>2026-04-11T07:17:13.813Z</time></trkpt><trkpt lat="41.8272383" lon="12.8387083"><ele>322.0</ele><time>2026-04-11T07:17:15.813Z</time></trkpt><trkpt lat="41.827235" lon="12.838805"><ele>322.0</ele><time>2026-04-11T07:17:16.813Z</time></trkpt><trkpt lat="41.8272333" lon="12.8389183"><ele>321.8</ele><time>2026-04-11T07:17:17.809Z</time></trkpt><trkpt lat="41.8272333" lon="12.8390383"><ele>321.6</ele><time>2026-04-11T07:17:18.81Z</time></trkpt><trkpt lat="41.8272283" lon="12.8391633"><ele>321.40000000000003</ele><time>2026-04-11T07:17:19.811Z</time></trkpt><trkpt lat="41.8272133" lon="12.8392883"><ele>321.20000000000005</ele><time>2026-04-11T07:17:20.809Z</time></trkpt><trkpt lat="41.8271817" lon="12.8394067"><ele>321.0</ele><time>2026-04-11T07:17:21.81Z</time></trkpt><trkpt lat="41.8271417" lon="12.8395267"><ele>321.75</ele><time>2026-04-11T07:17:22.81Z</time></trkpt><trkpt lat="41.82711" lon="12.83966"><ele>322.5</ele><time>2026-04-11T07:17:23.81Z</time></trkpt><trkpt lat="41.8270817" lon="12.8398033"><ele>323.25</ele><time>2026-04-11T07:17:24.813Z</time></trkpt><trkpt lat="41.8270317" lon="12.83995"><ele>324.0</ele><time>2026-04-11T07:17:25.812Z</time></trkpt><trkpt lat="41.8269617" lon="12.8401067"><ele>325.0</ele><time>2026-04-11T07:17:26.814Z</time></trkpt><trkpt lat="41.8268917" lon="12.8402683"><ele>326.0</ele><time>2026-04-11T07:17:27.812Z</time></trkpt><trkpt lat="41.826835" lon="12.8404383"><ele>327.0</ele><time>2026-04-11T07:17:28.812Z</time></trkpt><trkpt lat="41.8267933" lon="12.8406133"><ele>328.0</ele><time>2026-04-11T07:17:29.812Z</time></trkpt><trkpt lat="41.8267567" lon="12.8407917"><ele>329.0</ele><time>2026-04-11T07:17:30.813Z</time></trkpt><trkpt lat="41.82673" lon="12.8409733"><ele>330.0</ele><time>2026-04-11T07:17:31.813Z</time></trkpt><trkpt lat="41.826705" lon="12.84116"><ele>331.0</ele><time>2026-04-11T07:17:32.813Z</time></trkpt><trkpt lat="41.8266783" lon="12.8413483"><ele>332.0</ele><time>2026-04-11T07:17:33.813Z</time></trkpt><trkpt lat="41.82665" lon="12.8415383"><ele>332.0</ele><time>2026-04-11T07:17:34.813Z</time></trkpt><trkpt lat="41.8266117" lon="12.841725"><ele>332.0</ele><time>2026-04-11T07:17:35.812Z</time></trkpt><trkpt lat="41.82657" lon="12.8419117"><ele>332.0</ele><time>2026-04-11T07:17:36.813Z</time></trkpt><trkpt lat="41.8265217" lon="12.8420967"><ele>332.0</ele><time>2026-04-11T07:17:37.813Z</time></trkpt><trkpt lat="41.8264717" lon="12.84228"><ele>333.5</ele><time>2026-04-11T07:17:38.814Z</time></trkpt><trkpt lat="41.82642" lon="12.8424667"><ele>335.0</ele><time>2026-04-11T07:17:39.813Z</time></trkpt><trkpt lat="41.826365" lon="12.8426517"><ele>336.5</ele><time>2026-04-11T07:17:40.813Z</time></trkpt><trkpt lat="41.8263117" lon="12.84284"><ele>338.0</ele><time>2026-04-11T07:17:41.813Z</time></trkpt><trkpt lat="41.826255" lon="12.8430283"><ele>339.75</ele><time>2026-04-11T07:17:42.813Z</time></trkpt><trkpt lat="41.8262033" lon="12.8432183"><ele>341.5</ele><time>2026-04-11T07:17:43.813Z</time></trkpt><trkpt lat="41.8261517" lon="12.8434083"><ele>343.25</ele><time>2026-04-11T07:17:44.813Z</time></trkpt><trkpt lat="41.826105" lon="12.8435933"><ele>345.0</ele><time>2026-04-11T07:17:45.813Z</time></trkpt><trkpt lat="41.8260667" lon="12.84378"><ele>346.25</ele><time>2026-04-11T07:17:46.812Z</time></trkpt><trkpt lat="41.8260333" lon="12.84396"><ele>347.5</ele><time>2026-04-11T07:17:47.81Z</time></trkpt><trkpt lat="41.8260083" lon="12.8441417"><ele>348.75</ele><time>2026-04-11T07:17:48.809Z</time></trkpt><trkpt lat="41.8259967" lon="12.8443217"><ele>350.0</ele><time>2026-04-11T07:17:49.81Z</time></trkpt><trkpt lat="41.8259933" lon="12.844505"><ele>350.4</ele><time>2026-04-11T07:17:50.81Z</time></trkpt><trkpt lat="41.82599" lon="12.844675"><ele>350.8</ele><time>2026-04-11T07:17:51.81Z</time></trkpt><trkpt lat="41.8259867" lon="12.8448267"><ele>351.20000000000005</ele><time>2026-04-11T07:17:52.809Z</time></trkpt><trkpt lat="41.8259833" lon="12.8449583"><ele>351.6</ele><time>2026-04-11T07:17:53.811Z</time></trkpt><trkpt lat="41.82598" lon="12.8450833"><ele>352.0</ele><time>2026-04-11T07:17:54.813Z</time></trkpt><trkpt lat="41.82598" lon="12.8451967"><ele>352.0</ele><time>2026-04-11T07:17:55.812Z</time></trkpt><trkpt lat="41.82598" lon="12.8453033"><ele>352.0</ele><time>2026-04-11T07:17:56.813Z</time></trkpt><trkpt lat="41.8259783" lon="12.8454067"><ele>352.0</ele><time>2026-04-11T07:17:57.813Z</time></trkpt><trkpt lat="41.8259783" lon="12.84551"><ele>352.0</ele><time>2026-04-11T07:17:58.814Z</time></trkpt><trkpt lat="41.8259767" lon="12.845615"><ele>352.0</ele><time>2026-04-11T07:17:59.813Z</time></trkpt><trkpt lat="41.825975" lon="12.8457283"><ele>352.0</ele><time>2026-04-11T07:18:00.813Z</time></trkpt><trkpt lat="41.82597" lon="12.84585"><ele>351.8</ele><time>2026-04-11T07:18:01.813Z</time></trkpt><trkpt lat="41.8259667" lon="12.84598"><ele>351.6</ele><time>2026-04-11T07:18:02.812Z</time></trkpt><trkpt lat="41.825965" lon="12.846125"><ele>351.40000000000003</ele><time>2026-04-11T07:18:03.81Z</time></trkpt><trkpt lat="41.825965" lon="12.8462817"><ele>351.20000000000005</ele><time>2026-04-11T07:18:04.812Z</time></trkpt><trkpt lat="41.825965" lon="12.846435"><ele>351.0</ele><time>2026-04-11T07:18:05.813Z</time></trkpt><trkpt lat="41.825965" lon="12.8465833"><ele>351.0</ele><time>2026-04-11T07:18:06.814Z</time></trkpt><trkpt lat="41.8259633" lon="12.84673"><ele>351.0</ele><time>2026-04-11T07:18:07.813Z</time></trkpt><trkpt lat="41.8259567" lon="12.846875"><ele>351.0</ele><time>2026-04-11T07:18:08.813Z</time></trkpt><trkpt lat="41.825945" lon="12.8470183"><ele>351.0</ele><time>2026-04-11T07:18:09.813Z</time></trkpt><trkpt lat="41.825935" lon="12.8471583"><ele>351.0</ele><time>2026-04-11T07:18:10.813Z</time></trkpt><trkpt lat="41.8259283" lon="12.8472967"><ele>352.25</ele><time>2026-04-11T07:18:11.813Z</time></trkpt><trkpt lat="41.8259467" lon="12.8475017"><ele>353.5</ele><time>2026-04-11T07:18:12.995Z</time></trkpt><trkpt lat="41.8258383" lon="12.8476"><ele>354.75</ele><time>2026-04-11T07:18:13.973Z</time></trkpt><trkpt lat="41.8258617" lon="12.8477867"><ele>356.0</ele><time>2026-04-11T07:18:15.31Z</time></trkpt><trkpt lat="41.8258733" lon="12.8479667"><ele>356.33333333333337</ele><time>2026-04-11T07:18:16.81Z</time></trkpt><trkpt lat="41.825875" lon="12.8480833"><ele>356.6666666666667</ele><time>2026-04-11T07:18:17.81Z</time></trkpt><trkpt lat="41.825865" lon="12.848195"><ele>357.0</ele><time>2026-04-11T07:18:18.809Z</time></trkpt><trkpt lat="41.8258617" lon="12.8483067"><ele>357.3333333333333</ele><time>2026-04-11T07:18:19.809Z</time></trkpt><trkpt lat="41.8258533" lon="12.8484183"><ele>357.66666666666663</ele><time>2026-04-11T07:18:20.81Z</time></trkpt><trkpt lat="41.8258567" lon="12.848535"><ele>358.0</ele><time>2026-04-11T07:18:21.811Z</time></trkpt><trkpt lat="41.8258633" lon="12.84865"><ele>358.59999999999997</ele><time>2026-04-11T07:18:22.811Z</time></trkpt><trkpt lat="41.825865" lon="12.84877"><ele>359.2</ele><time>2026-04-11T07:18:23.809Z</time></trkpt><trkpt lat="41.8258667" lon="12.8488933"><ele>359.8</ele><time>2026-04-11T07:18:24.81Z</time></trkpt><trkpt lat="41.8258683" lon="12.8490233"><ele>360.4</ele><time>2026-04-11T07:18:25.81Z</time></trkpt><trkpt lat="41.8258683" lon="12.849155"><ele>361.0</ele><time>2026-04-11T07:18:26.809Z</time></trkpt><trkpt lat="41.8258633" lon="12.8492883"><ele>361.0</ele><time>2026-04-11T07:18:27.812Z</time></trkpt><trkpt lat="41.8258583" lon="12.8494183"><ele>361.0</ele><time>2026-04-11T07:18:28.812Z</time></trkpt><trkpt lat="41.8258567" lon="12.8495433"><ele>361.0</ele><time>2026-04-11T07:18:29.81Z</time></trkpt><trkpt lat="41.8258517" lon="12.849745"><ele>361.0</ele><time>2026-04-11T07:18:31.81Z</time></trkpt><trkpt lat="41.8258467" lon="12.8498317"><ele>361.0</ele><time>2026-04-11T07:18:33.812Z</time></trkpt><trkpt lat="41.8258417" lon="12.8499567"><ele>361.0</ele><time>2026-04-11T07:18:38.81Z</time></trkpt><trkpt lat="41.8258333" lon="12.8501067"><ele>361.0</ele><time>2026-04-11T07:18:40.813Z</time></trkpt><trkpt lat="41.8258333" lon="12.8502017"><ele>361.0</ele><time>2026-04-11T07:18:41.81Z</time></trkpt><trkpt lat="41.8258333" lon="12.8502983"><ele>361.0</ele><time>2026-04-11T07:18:42.81Z</time></trkpt><trkpt lat="41.825835" lon="12.8504033"><ele>361.0</ele><time>2026-04-11T07:18:43.811Z</time></trkpt><trkpt lat="41.8258317" lon="12.8505283"><ele>361.0</ele><time>2026-04-11T07:18:44.81Z</time></trkpt><trkpt lat="41.82583" lon="12.8506733"><ele>360.5</ele><time>2026-04-11T07:18:45.809Z</time></trkpt><trkpt lat="41.8258317" lon="12.85084"><ele>360.0</ele><time>2026-04-11T07:18:46.81Z</time></trkpt><trkpt lat="41.82583" lon="12.8510183"><ele>359.5</ele><time>2026-04-11T07:18:47.81Z</time></trkpt><trkpt lat="41.8258217" lon="12.851205"><ele>359.0</ele><time>2026-04-11T07:18:48.811Z</time></trkpt><trkpt lat="41.8258067" lon="12.8513833"><ele>359.0</ele><time>2026-04-11T07:18:49.812Z</time></trkpt><trkpt lat="41.825795" lon="12.85154"><ele>359.0</ele><time>2026-04-11T07:18:50.81Z</time></trkpt><trkpt lat="41.8257867" lon="12.8516833"><ele>359.0</ele><time>2026-04-11T07:18:51.811Z</time></trkpt><trkpt lat="41.8257817" lon="12.8518117"><ele>359.0</ele><time>2026-04-11T07:18:52.811Z</time></trkpt><trkpt lat="41.8257783" lon="12.8519333"><ele>359.0</ele><time>2026-04-11T07:18:53.81Z</time></trkpt><trkpt lat="41.825775" lon="12.8520517"><ele>359.4</ele><time>2026-04-11T07:18:54.809Z</time></trkpt><trkpt lat="41.82577" lon="12.85218"><ele>359.79999999999995</ele><time>2026-04-11T07:18:55.81Z</time></trkpt><trkpt lat="41.8257633" lon="12.8523183"><ele>360.20000000000005</ele><time>2026-04-11T07:18:56.81Z</time></trkpt><trkpt lat="41.8257567" lon="12.8524667"><ele>360.6</ele><time>2026-04-11T07:18:57.81Z</time></trkpt><trkpt lat="41.8257483" lon="12.8526167"><ele>361.0</ele><time>2026-04-11T07:18:58.809Z</time></trkpt><trkpt lat="41.8257433" lon="12.85276"><ele>361.0</ele><time>2026-04-11T07:18:59.809Z</time></trkpt><trkpt lat="41.8257383" lon="12.852895"><ele>361.0</ele><time>2026-04-11T07:19:00.81Z</time></trkpt><trkpt lat="41.8257317" lon="12.8530083"><ele>361.0</ele><time>2026-04-11T07:19:01.81Z</time></trkpt><trkpt lat="41.82572" lon="12.8531017"><ele>361.0</ele><time>2026-04-11T07:19:02.81Z</time></trkpt><trkpt lat="41.8257" lon="12.8532583"><ele>361.0</ele><time>2026-04-11T07:19:04.81Z</time></trkpt><trkpt lat="41.82567" lon="12.85339"><ele>360.6</ele><time>2026-04-11T07:19:06.81Z</time></trkpt><trkpt lat="41.825645" lon="12.8535217"><ele>360.20000000000005</ele><time>2026-04-11T07:19:08.809Z</time></trkpt><trkpt lat="41.8256133" lon="12.85369"><ele>359.79999999999995</ele><time>2026-04-11T07:19:10.811Z</time></trkpt><trkpt lat="41.825595" lon="12.8537883"><ele>359.4</ele><time>2026-04-11T07:19:11.812Z</time></trkpt><trkpt lat="41.8255767" lon="12.8538967"><ele>359.0</ele><time>2026-04-11T07:19:12.81Z</time></trkpt><trkpt lat="41.825565" lon="12.8540167"><ele>359.0</ele><time>2026-04-11T07:19:13.81Z</time></trkpt><trkpt lat="41.82555" lon="12.8541433"><ele>359.0</ele><time>2026-04-11T07:19:14.81Z</time></trkpt><trkpt lat="41.825535" lon="12.8542833"><ele>359.0</ele><time>2026-04-11T07:19:15.812Z</time></trkpt><trkpt lat="41.82552" lon="12.8544283"><ele>359.0</ele><time>2026-04-11T07:19:16.813Z</time></trkpt><trkpt lat="41.8255083" lon="12.8545667"><ele>359.0</ele><time>2026-04-11T07:19:17.813Z</time></trkpt><trkpt lat="41.8254967" lon="12.8547067"><ele>359.5</ele><time>2026-04-11T07:19:18.813Z</time></trkpt><trkpt lat="41.8254817" lon="12.8548533"><ele>360.0</ele><time>2026-04-11T07:19:19.814Z</time></trkpt><trkpt lat="41.8254683" lon="12.85501"><ele>360.5</ele><time>2026-04-11T07:19:20.813Z</time></trkpt><trkpt lat="41.8254583" lon="12.85517"><ele>361.0</ele><time>2026-04-11T07:19:21.812Z</time></trkpt><trkpt lat="41.825445" lon="12.855335"><ele>361.5</ele><time>2026-04-11T07:19:22.813Z</time></trkpt><trkpt lat="41.82543" lon="12.8555"><ele>362.0</ele><time>2026-04-11T07:19:23.81Z</time></trkpt><trkpt lat="41.8254183" lon="12.8556667"><ele>362.5</ele><time>2026-04-11T07:19:24.813Z</time></trkpt><trkpt lat="41.8254083" lon="12.8558317"><ele>363.0</ele><time>2026-04-11T07:19:25.813Z</time></trkpt><trkpt lat="41.8254" lon="12.8559983"><ele>363.0</ele><time>2026-04-11T07:19:26.812Z</time></trkpt><trkpt lat="41.825395" lon="12.8561667"><ele>363.0</ele><time>2026-04-11T07:19:27.813Z</time></trkpt><trkpt lat="41.82539" lon="12.8563317"><ele>363.0</ele><time>2026-04-11T07:19:28.812Z</time></trkpt><trkpt lat="41.8253833" lon="12.85649"><ele>363.0</ele><time>2026-04-11T07:19:29.812Z</time></trkpt><trkpt lat="41.8253783" lon="12.8566367"><ele>363.0</ele><time>2026-04-11T07:19:30.813Z</time></trkpt><trkpt lat="41.8253733" lon="12.8567667"><ele>363.0</ele><time>2026-04-11T07:19:31.813Z</time></trkpt><trkpt lat="41.82537" lon="12.8568817"><ele>363.0</ele><time>2026-04-11T07:19:32.813Z</time></trkpt><trkpt lat="41.8253667" lon="12.85699"><ele>363.0</ele><time>2026-04-11T07:19:33.809Z</time></trkpt><trkpt lat="41.8253617" lon="12.8570917"><ele>363.0</ele><time>2026-04-11T07:19:34.813Z</time></trkpt><trkpt lat="41.8253567" lon="12.8571967"><ele>363.0</ele><time>2026-04-11T07:19:35.814Z</time></trkpt><trkpt lat="41.8253533" lon="12.857305"><ele>363.4</ele><time>2026-04-11T07:19:36.814Z</time></trkpt><trkpt lat="41.8253483" lon="12.8574283"><ele>363.79999999999995</ele><time>2026-04-11T07:19:37.811Z</time></trkpt><trkpt lat="41.8253433" lon="12.85756"><ele>364.2</ele><time>2026-04-11T07:19:38.812Z</time></trkpt><trkpt lat="41.8253417" lon="12.8577033"><ele>364.6</ele><time>2026-04-11T07:19:39.813Z</time></trkpt><trkpt lat="41.8253367" lon="12.8578467"><ele>365.0</ele><time>2026-04-11T07:19:40.811Z</time></trkpt><trkpt lat="41.8253317" lon="12.8579867"><ele>365.75</ele><time>2026-04-11T07:19:41.814Z</time></trkpt><trkpt lat="41.8253233" lon="12.8581317"><ele>366.5</ele><time>2026-04-11T07:19:42.814Z</time></trkpt><trkpt lat="41.82532" lon="12.8582833"><ele>367.25</ele><time>2026-04-11T07:19:43.813Z</time></trkpt><trkpt lat="41.8253183" lon="12.8584417"><ele>368.0</ele><time>2026-04-11T07:19:44.814Z</time></trkpt><trkpt lat="41.8253117" lon="12.858605"><ele>368.5</ele><time>2026-04-11T07:19:45.814Z</time></trkpt><trkpt lat="41.825305" lon="12.8587683"><ele>369.0</ele><time>2026-04-11T07:19:46.814Z</time></trkpt><trkpt lat="41.825295" lon="12.8589283"><ele>369.5</ele><time>2026-04-11T07:19:47.811Z</time></trkpt><trkpt lat="41.8252883" lon="12.8590817"><ele>370.0</ele><time>2026-04-11T07:19:48.814Z</time></trkpt><trkpt lat="41.8252867" lon="12.8592217"><ele>369.66666666666663</ele><time>2026-04-11T07:19:49.814Z</time></trkpt><trkpt lat="41.825285" lon="12.8593467"><ele>369.3333333333333</ele><time>2026-04-11T07:19:50.814Z</time></trkpt><trkpt lat="41.82528" lon="12.8594567"><ele>369.0</ele><time>2026-04-11T07:19:51.813Z</time></trkpt><trkpt lat="41.8252767" lon="12.859555"><ele>368.6666666666667</ele><time>2026-04-11T07:19:52.813Z</time></trkpt><trkpt lat="41.8252717" lon="12.85964"><ele>368.33333333333337</ele><time>2026-04-11T07:19:53.813Z</time></trkpt><trkpt lat="41.82526" lon="12.8597917"><ele>368.0</ele><time>2026-04-11T07:19:55.814Z</time></trkpt><trkpt lat="41.825235" lon="12.8599133"><ele>368.0</ele><time>2026-04-11T07:19:57.814Z</time></trkpt><trkpt lat="41.8251583" lon="12.8600117"><ele>368.0</ele><time>2026-04-11T07:19:59.814Z</time></trkpt><trkpt lat="41.8251133" lon="12.8600717"><ele>368.0</ele><time>2026-04-11T07:20:00.811Z</time></trkpt><trkpt lat="41.8250783" lon="12.860145"><ele>368.0</ele><time>2026-04-11T07:20:01.814Z</time></trkpt><trkpt lat="41.82507" lon="12.860235"><ele>368.0</ele><time>2026-04-11T07:20:02.813Z</time></trkpt><trkpt lat="41.82509" lon="12.86033"><ele>368.0</ele><time>2026-04-11T07:20:03.813Z</time></trkpt><trkpt lat="41.825125" lon="12.8604333"><ele>368.0</ele><time>2026-04-11T07:20:04.814Z</time></trkpt><trkpt lat="41.82515" lon="12.86054"><ele>368.0</ele><time>2026-04-11T07:20:05.815Z</time></trkpt><trkpt lat="41.8251667" lon="12.86065"><ele>368.0</ele><time>2026-04-11T07:20:06.812Z</time></trkpt><trkpt lat="41.825165" lon="12.8607633"><ele>368.0</ele><time>2026-04-11T07:20:07.814Z</time></trkpt><trkpt lat="41.8251567" lon="12.8608867"><ele>368.0</ele><time>2026-04-11T07:20:08.811Z</time></trkpt><trkpt lat="41.8251467" lon="12.8610167"><ele>368.0</ele><time>2026-04-11T07:20:09.813Z</time></trkpt><trkpt lat="41.825135" lon="12.8611633"><ele>368.2</ele><time>2026-04-11T07:20:10.811Z</time></trkpt><trkpt lat="41.8251217" lon="12.86131"><ele>368.4</ele><time>2026-04-11T07:20:11.814Z</time></trkpt><trkpt lat="41.8251133" lon="12.8614533"><ele>368.59999999999997</ele><time>2026-04-11T07:20:12.811Z</time></trkpt><trkpt lat="41.8251017" lon="12.8615983"><ele>368.79999999999995</ele><time>2026-04-11T07:20:13.814Z</time></trkpt><trkpt lat="41.8250833" lon="12.86175"><ele>369.0</ele><time>2026-04-11T07:20:14.814Z</time></trkpt><trkpt lat="41.8250683" lon="12.86191"><ele>369.25</ele><time>2026-04-11T07:20:15.814Z</time></trkpt><trkpt lat="41.8250583" lon="12.8620767"><ele>369.5</ele><time>2026-04-11T07:20:16.813Z</time></trkpt><trkpt lat="41.8250483" lon="12.8622533"><ele>369.75</ele><time>2026-04-11T07:20:17.814Z</time></trkpt><trkpt lat="41.8250367" lon="12.8624417"><ele>370.0</ele><time>2026-04-11T07:20:18.814Z</time></trkpt><trkpt lat="41.8250233" lon="12.8626417"><ele>370.25</ele><time>2026-04-11T07:20:19.814Z</time></trkpt><trkpt lat="41.8250067" lon="12.8628433"><ele>370.5</ele><time>2026-04-11T07:20:20.814Z</time></trkpt><trkpt lat="41.82499" lon="12.863035"><ele>370.75</ele><time>2026-04-11T07:20:21.814Z</time></trkpt><trkpt lat="41.8249733" lon="12.8632283"><ele>371.0</ele><time>2026-04-11T07:20:22.814Z</time></trkpt><trkpt lat="41.824955" lon="12.86342"><ele>371.5</ele><time>2026-04-11T07:20:23.814Z</time></trkpt><trkpt lat="41.8249367" lon="12.8636067"><ele>372.0</ele><time>2026-04-11T07:20:24.814Z</time></trkpt><trkpt lat="41.82492" lon="12.8637933"><ele>372.5</ele><time>2026-04-11T07:20:25.814Z</time></trkpt><trkpt lat="41.824905" lon="12.86398"><ele>373.0</ele><time>2026-04-11T07:20:26.813Z</time></trkpt><trkpt lat="41.8248833" lon="12.86416"><ele>374.25</ele><time>2026-04-11T07:20:27.813Z</time></trkpt><trkpt lat="41.8248717" lon="12.8643267"><ele>375.5</ele><time>2026-04-11T07:20:28.814Z</time></trkpt><trkpt lat="41.8248567" lon="12.86449"><ele>376.75</ele><time>2026-04-11T07:20:29.813Z</time></trkpt><trkpt lat="41.8248417" lon="12.8646517"><ele>378.0</ele><time>2026-04-11T07:20:30.813Z</time></trkpt><trkpt lat="41.8248283" lon="12.864815"><ele>378.0</ele><time>2026-04-11T07:20:31.813Z</time></trkpt><trkpt lat="41.824815" lon="12.8649767"><ele>378.0</ele><time>2026-04-11T07:20:32.813Z</time></trkpt><trkpt lat="41.8248017" lon="12.86514"><ele>378.0</ele><time>2026-04-11T07:20:33.811Z</time></trkpt><trkpt lat="41.8247883" lon="12.8653083"><ele>378.0</ele><time>2026-04-11T07:20:34.814Z</time></trkpt><trkpt lat="41.8247733" lon="12.8654783"><ele>378.5</ele><time>2026-04-11T07:20:35.811Z</time></trkpt><trkpt lat="41.8247617" lon="12.86565"><ele>379.0</ele><time>2026-04-11T07:20:36.814Z</time></trkpt><trkpt lat="41.8247517" lon="12.8658233"><ele>379.5</ele><time>2026-04-11T07:20:37.814Z</time></trkpt><trkpt lat="41.824735" lon="12.865995"><ele>380.0</ele><time>2026-04-11T07:20:38.813Z</time></trkpt><trkpt lat="41.8247167" lon="12.866165"><ele>380.25</ele><time>2026-04-11T07:20:39.814Z</time></trkpt><trkpt lat="41.8246983" lon="12.866335"><ele>380.5</ele><time>2026-04-11T07:20:40.814Z</time></trkpt><trkpt lat="41.8246867" lon="12.86651"><ele>380.75</ele><time>2026-04-11T07:20:41.814Z</time></trkpt><trkpt lat="41.8246717" lon="12.8666867"><ele>381.0</ele><time>2026-04-11T07:20:42.809Z</time></trkpt><trkpt lat="41.8246583" lon="12.8668667"><ele>381.0</ele><time>2026-04-11T07:20:43.812Z</time></trkpt><trkpt lat="41.8246433" lon="12.86705"><ele>381.0</ele><time>2026-04-11T07:20:44.814Z</time></trkpt><trkpt lat="41.8246283" lon="12.8672383"><ele>381.0</ele><time>2026-04-11T07:20:45.81Z</time></trkpt><trkpt lat="41.8246083" lon="12.8674333"><ele>381.0</ele><time>2026-04-11T07:20:46.816Z</time></trkpt><trkpt lat="41.8245883" lon="12.86763"><ele>381.0</ele><time>2026-04-11T07:20:47.814Z</time></trkpt><trkpt lat="41.8245733" lon="12.867825"><ele>381.0</ele><time>2026-04-11T07:20:48.813Z</time></trkpt><trkpt lat="41.8245667" lon="12.8680183"><ele>381.0</ele><time>2026-04-11T07:20:49.813Z</time></trkpt><trkpt lat="41.824565" lon="12.868205"><ele>381.0</ele><time>2026-04-11T07:20:50.814Z</time></trkpt><trkpt lat="41.824565" lon="12.8683783"><ele>381.75</ele><time>2026-04-11T07:20:51.814Z</time></trkpt><trkpt lat="41.8245683" lon="12.8685433"><ele>382.5</ele><time>2026-04-11T07:20:52.815Z</time></trkpt><trkpt lat="41.8245733" lon="12.86871"><ele>383.25</ele><time>2026-04-11T07:20:53.813Z</time></trkpt><trkpt lat="41.82458" lon="12.868875"><ele>384.0</ele><time>2026-04-11T07:20:54.814Z</time></trkpt><trkpt lat="41.82459" lon="12.869035"><ele>384.0</ele><time>2026-04-11T07:20:55.814Z</time></trkpt><trkpt lat="41.8246" lon="12.86919"><ele>384.0</ele><time>2026-04-11T07:20:56.814Z</time></trkpt><trkpt lat="41.8246133" lon="12.8693433"><ele>384.0</ele><time>2026-04-11T07:20:57.814Z</time></trkpt><trkpt lat="41.82463" lon="12.8694983"><ele>384.0</ele><time>2026-04-11T07:20:58.811Z</time></trkpt><trkpt lat="41.82465" lon="12.8696517"><ele>384.0</ele><time>2026-04-11T07:20:59.811Z</time></trkpt><trkpt lat="41.82467" lon="12.8698033"><ele>384.0</ele><time>2026-04-11T07:21:00.811Z</time></trkpt><trkpt lat="41.8246867" lon="12.8699517"><ele>384.0</ele><time>2026-04-11T07:21:01.812Z</time></trkpt><trkpt lat="41.824705" lon="12.8701017"><ele>384.0</ele><time>2026-04-11T07:21:02.813Z</time></trkpt><trkpt lat="41.8247233" lon="12.8702567"><ele>384.0</ele><time>2026-04-11T07:21:03.81Z</time></trkpt><trkpt lat="41.824745" lon="12.87042"><ele>384.0</ele><time>2026-04-11T07:21:04.811Z</time></trkpt><trkpt lat="41.8247667" lon="12.870585"><ele>384.0</ele><time>2026-04-11T07:21:05.814Z</time></trkpt><trkpt lat="41.8247917" lon="12.87076"><ele>384.0</ele><time>2026-04-11T07:21:06.809Z</time></trkpt><trkpt lat="41.8248167" lon="12.87094"><ele>384.25</ele><time>2026-04-11T07:21:07.812Z</time></trkpt><trkpt lat="41.8248383" lon="12.8711233"><ele>384.5</ele><time>2026-04-11T07:21:08.813Z</time></trkpt><trkpt lat="41.82486" lon="12.8713083"><ele>384.75</ele><time>2026-04-11T07:21:09.813Z</time></trkpt><trkpt lat="41.8248833" lon="12.8715"><ele>385.0</ele><time>2026-04-11T07:21:10.812Z</time></trkpt><trkpt lat="41.824905" lon="12.871695"><ele>385.0</ele><time>2026-04-11T07:21:11.814Z</time></trkpt><trkpt lat="41.8249267" lon="12.8718917"><ele>385.0</ele><time>2026-04-11T07:21:12.814Z</time></trkpt><trkpt lat="41.8249517" lon="12.8720817"><ele>385.0</ele><time>2026-04-11T07:21:13.82Z</time></trkpt><trkpt lat="41.824975" lon="12.87226"><ele>385.0</ele><time>2026-04-11T07:21:14.814Z</time></trkpt><trkpt lat="41.8250017" lon="12.8724217"><ele>385.0</ele><time>2026-04-11T07:21:15.813Z</time></trkpt><trkpt lat="41.825025" lon="12.8725783"><ele>385.0</ele><time>2026-04-11T07:21:16.814Z</time></trkpt><trkpt lat="41.8250517" lon="12.8727317"><ele>385.0</ele><time>2026-04-11T07:21:17.814Z</time></trkpt><trkpt lat="41.8250767" lon="12.8728867"><ele>385.0</ele><time>2026-04-11T07:21:18.814Z</time></trkpt><trkpt lat="41.8251" lon="12.87304"><ele>385.0</ele><time>2026-04-11T07:21:19.813Z</time></trkpt><trkpt lat="41.8251283" lon="12.87319"><ele>385.0</ele><time>2026-04-11T07:21:20.814Z</time></trkpt><trkpt lat="41.8251633" lon="12.8733367"><ele>385.0</ele><time>2026-04-11T07:21:21.814Z</time></trkpt><trkpt lat="41.8252067" lon="12.8734767"><ele>385.0</ele><time>2026-04-11T07:21:22.814Z</time></trkpt><trkpt lat="41.8252567" lon="12.873615"><ele>384.5</ele><time>2026-04-11T07:21:23.813Z</time></trkpt><trkpt lat="41.8253133" lon="12.873755"><ele>384.0</ele><time>2026-04-11T07:21:24.814Z</time></trkpt><trkpt lat="41.8253817" lon="12.8738933"><ele>383.5</ele><time>2026-04-11T07:21:25.813Z</time></trkpt><trkpt lat="41.8254533" lon="12.874035"><ele>383.0</ele><time>2026-04-11T07:21:26.814Z</time></trkpt><trkpt lat="41.8255367" lon="12.8741767"><ele>383.33333333333337</ele><time>2026-04-11T07:21:27.814Z</time></trkpt><trkpt lat="41.8256333" lon="12.8743183"><ele>383.6666666666667</ele><time>2026-04-11T07:21:28.814Z</time></trkpt><trkpt lat="41.82575" lon="12.8744517"><ele>384.0</ele><time>2026-04-11T07:21:29.814Z</time></trkpt><trkpt lat="41.8258767" lon="12.8745767"><ele>384.0</ele><time>2026-04-11T07:21:30.814Z</time></trkpt><trkpt lat="41.8260017" lon="12.874685"><ele>384.0</ele><time>2026-04-11T07:21:31.814Z</time></trkpt><trkpt lat="41.8261217" lon="12.874795"><ele>384.0</ele><time>2026-04-11T07:21:32.813Z</time></trkpt><trkpt lat="41.8262333" lon="12.874895"><ele>384.0</ele><time>2026-04-11T07:21:33.815Z</time></trkpt><trkpt lat="41.8263367" lon="12.8749883"><ele>384.0</ele><time>2026-04-11T07:21:34.814Z</time></trkpt><trkpt lat="41.8264367" lon="12.8750717"><ele>384.0</ele><time>2026-04-11T07:21:35.814Z</time></trkpt><trkpt lat="41.8265367" lon="12.8751517"><ele>384.0</ele><time>2026-04-11T07:21:36.814Z</time></trkpt><trkpt lat="41.826635" lon="12.875235"><ele>384.0</ele><time>2026-04-11T07:21:37.813Z</time></trkpt><trkpt lat="41.82674" lon="12.8753233"><ele>385.5</ele><time>2026-04-11T07:21:38.814Z</time></trkpt><trkpt lat="41.8268433" lon="12.8754117"><ele>387.0</ele><time>2026-04-11T07:21:39.814Z</time></trkpt><trkpt lat="41.8269483" lon="12.8755"><ele>388.5</ele><time>2026-04-11T07:21:40.815Z</time></trkpt><trkpt lat="41.8270567" lon="12.875585"><ele>390.0</ele><time>2026-04-11T07:21:41.814Z</time></trkpt><trkpt lat="41.8271683" lon="12.875675"><ele>390.0</ele><time>2026-04-11T07:21:42.813Z</time></trkpt><trkpt lat="41.8272783" lon="12.8757667"><ele>390.0</ele><time>2026-04-11T07:21:43.814Z</time></trkpt><trkpt lat="41.8273883" lon="12.8758483"><ele>390.0</ele><time>2026-04-11T07:21:44.814Z</time></trkpt><trkpt lat="41.8274917" lon="12.8759283"><ele>390.0</ele><time>2026-04-11T07:21:45.813Z</time></trkpt><trkpt lat="41.8275883" lon="12.8760033"><ele>391.0</ele><time>2026-04-11T07:21:46.814Z</time></trkpt><trkpt lat="41.827685" lon="12.8760767"><ele>392.0</ele><time>2026-04-11T07:21:47.81Z</time></trkpt><trkpt lat="41.8277817" lon="12.8761567"><ele>393.0</ele><time>2026-04-11T07:21:48.81Z</time></trkpt><trkpt lat="41.8278817" lon="12.8762317"><ele>394.0</ele><time>2026-04-11T07:21:49.812Z</time></trkpt><trkpt lat="41.8279817" lon="12.8763117"><ele>394.0</ele><time>2026-04-11T07:21:50.812Z</time></trkpt><trkpt lat="41.8280817" lon="12.8763933"><ele>394.0</ele><time>2026-04-11T07:21:51.811Z</time></trkpt><trkpt lat="41.82818" lon="12.8764683"><ele>394.0</ele><time>2026-04-11T07:21:52.812Z</time></trkpt><trkpt lat="41.8282833" lon="12.8765483"><ele>394.0</ele><time>2026-04-11T07:21:53.813Z</time></trkpt><trkpt lat="41.8283883" lon="12.87663"><ele>394.0</ele><time>2026-04-11T07:21:54.814Z</time></trkpt><trkpt lat="41.8284967" lon="12.876715"><ele>394.0</ele><time>2026-04-11T07:21:55.814Z</time></trkpt><trkpt lat="41.828615" lon="12.8768"><ele>394.0</ele><time>2026-04-11T07:21:56.813Z</time></trkpt><trkpt lat="41.82874" lon="12.87689"><ele>394.0</ele><time>2026-04-11T07:21:57.813Z</time></trkpt><trkpt lat="41.82887" lon="12.87698"><ele>394.75</ele><time>2026-04-11T07:21:58.813Z</time></trkpt><trkpt lat="41.8289983" lon="12.87708"><ele>395.5</ele><time>2026-04-11T07:21:59.813Z</time></trkpt><trkpt lat="41.8291233" lon="12.877185"><ele>396.25</ele><time>2026-04-11T07:22:00.815Z</time></trkpt><trkpt lat="41.8292417" lon="12.8772883"><ele>397.0</ele><time>2026-04-11T07:22:01.814Z</time></trkpt><trkpt lat="41.8293567" lon="12.8773883"><ele>397.0</ele><time>2026-04-11T07:22:02.814Z</time></trkpt><trkpt lat="41.8294667" lon="12.87748"><ele>397.0</ele><time>2026-04-11T07:22:03.814Z</time></trkpt><trkpt lat="41.8295733" lon="12.8775667"><ele>397.0</ele><time>2026-04-11T07:22:04.814Z</time></trkpt><trkpt lat="41.82968" lon="12.8776517"><ele>397.0</ele><time>2026-04-11T07:22:05.813Z</time></trkpt><trkpt lat="41.8297817" lon="12.8777333"><ele>397.0</ele><time>2026-04-11T07:22:06.813Z</time></trkpt><trkpt lat="41.8298783" lon="12.8778067"><ele>397.0</ele><time>2026-04-11T07:22:07.813Z</time></trkpt><trkpt lat="41.829965" lon="12.8778817"><ele>397.0</ele><time>2026-04-11T07:22:08.814Z</time></trkpt><trkpt lat="41.8300483" lon="12.877965"><ele>397.0</ele><time>2026-04-11T07:22:09.814Z</time></trkpt><trkpt lat="41.83013" lon="12.87806"><ele>397.0</ele><time>2026-04-11T07:22:10.814Z</time></trkpt><trkpt lat="41.8302033" lon="12.8781617"><ele>397.0</ele><time>2026-04-11T07:22:11.814Z</time></trkpt><trkpt lat="41.830265" lon="12.878265"><ele>397.0</ele><time>2026-04-11T07:22:12.814Z</time></trkpt><trkpt lat="41.8303217" lon="12.8783683"><ele>397.0</ele><time>2026-04-11T07:22:13.814Z</time></trkpt><trkpt lat="41.83038" lon="12.8784717"><ele>397.0</ele><time>2026-04-11T07:22:14.813Z</time></trkpt><trkpt lat="41.8304383" lon="12.87858"><ele>397.0</ele><time>2026-04-11T07:22:15.814Z</time></trkpt><trkpt lat="41.830495" lon="12.8786883"><ele>397.33333333333337</ele><time>2026-04-11T07:22:16.813Z</time></trkpt><trkpt lat="41.83055" lon="12.8787983"><ele>397.6666666666667</ele><time>2026-04-11T07:22:17.811Z</time></trkpt><trkpt lat="41.8306033" lon="12.87891"><ele>398.0</ele><time>2026-04-11T07:22:18.81Z</time></trkpt><trkpt lat="41.8306533" lon="12.879015"><ele>398.33333333333337</ele><time>2026-04-11T07:22:19.811Z</time></trkpt><trkpt lat="41.830695" lon="12.8791083"><ele>398.6666666666667</ele><time>2026-04-11T07:22:20.811Z</time></trkpt><trkpt lat="41.8307333" lon="12.8791983"><ele>399.0</ele><time>2026-04-11T07:22:21.811Z</time></trkpt><trkpt lat="41.83077" lon="12.8792933"><ele>399.1666666666667</ele><time>2026-04-11T07:22:22.813Z</time></trkpt><trkpt lat="41.8308067" lon="12.8793967"><ele>399.33333333333337</ele><time>2026-04-11T07:22:23.811Z</time></trkpt><trkpt lat="41.8308483" lon="12.8795017"><ele>399.5</ele><time>2026-04-11T07:22:24.811Z</time></trkpt><trkpt lat="41.830885" lon="12.8796067"><ele>399.6666666666667</ele><time>2026-04-11T07:22:25.814Z</time></trkpt><trkpt lat="41.83092" lon="12.8797117"><ele>399.83333333333337</ele><time>2026-04-11T07:22:26.812Z</time></trkpt><trkpt lat="41.83096" lon="12.8798167"><ele>400.0</ele><time>2026-04-11T07:22:27.811Z</time></trkpt><trkpt lat="41.831" lon="12.879925"><ele>399.6</ele><time>2026-04-11T07:22:28.811Z</time></trkpt><trkpt lat="41.83104" lon="12.88004"><ele>399.2</ele><time>2026-04-11T07:22:29.812Z</time></trkpt><trkpt lat="41.831085" lon="12.88016"><ele>398.79999999999995</ele><time>2026-04-11T07:22:30.811Z</time></trkpt><trkpt lat="41.8311317" lon="12.8802883"><ele>398.4</ele><time>2026-04-11T07:22:31.811Z</time></trkpt><trkpt lat="41.83118" lon="12.8804183"><ele>398.0</ele><time>2026-04-11T07:22:32.811Z</time></trkpt><trkpt lat="41.831225" lon="12.8805433"><ele>398.66666666666663</ele><time>2026-04-11T07:22:33.81Z</time></trkpt><trkpt lat="41.8312667" lon="12.8806517"><ele>399.3333333333333</ele><time>2026-04-11T07:22:34.811Z</time></trkpt><trkpt lat="41.8313033" lon="12.88074"><ele>400.0</ele><time>2026-04-11T07:22:35.81Z</time></trkpt><trkpt lat="41.831335" lon="12.8808167"><ele>400.66666666666663</ele><time>2026-04-11T07:22:36.813Z</time></trkpt><trkpt lat="41.8313767" lon="12.880945"><ele>401.3333333333333</ele><time>2026-04-11T07:22:38.811Z</time></trkpt><trkpt lat="41.8314183" lon="12.881035"><ele>402.0</ele><time>2026-04-11T07:22:41.813Z</time></trkpt><trkpt lat="41.8314617" lon="12.88115"><ele>402.6</ele><time>2026-04-11T07:22:43.814Z</time></trkpt><trkpt lat="41.8314983" lon="12.881245"><ele>403.20000000000005</ele><time>2026-04-11T07:22:44.814Z</time></trkpt><trkpt lat="41.8315367" lon="12.88135"><ele>403.8</ele><time>2026-04-11T07:22:45.814Z</time></trkpt><trkpt lat="41.8315767" lon="12.8814633"><ele>404.4</ele><time>2026-04-11T07:22:46.814Z</time></trkpt><trkpt lat="41.831625" lon="12.881585"><ele>405.0</ele><time>2026-04-11T07:22:47.81Z</time></trkpt><trkpt lat="41.83168" lon="12.881715"><ele>405.75</ele><time>2026-04-11T07:22:48.812Z</time></trkpt><trkpt lat="41.83174" lon="12.88185"><ele>406.5</ele><time>2026-04-11T07:22:49.812Z</time></trkpt><trkpt lat="41.8318033" lon="12.8819917"><ele>407.25</ele><time>2026-04-11T07:22:50.812Z</time></trkpt><trkpt lat="41.8318617" lon="12.8821367"><ele>408.0</ele><time>2026-04-11T07:22:51.811Z</time></trkpt><trkpt lat="41.8319183" lon="12.8822767"><ele>408.4</ele><time>2026-04-11T07:22:52.812Z</time></trkpt><trkpt lat="41.83197" lon="12.882415"><ele>408.79999999999995</ele><time>2026-04-11T07:22:53.813Z</time></trkpt><trkpt lat="41.8320233" lon="12.8825433"><ele>409.2</ele><time>2026-04-11T07:22:54.813Z</time></trkpt><trkpt lat="41.8320767" lon="12.8826733"><ele>409.6</ele><time>2026-04-11T07:22:55.814Z</time></trkpt><trkpt lat="41.83213" lon="12.8828033"><ele>410.0</ele><time>2026-04-11T07:22:56.811Z</time></trkpt><trkpt lat="41.8321833" lon="12.882935"><ele>410.2</ele><time>2026-04-11T07:22:57.811Z</time></trkpt><trkpt lat="41.8322367" lon="12.8830617"><ele>410.4</ele><time>2026-04-11T07:22:58.814Z</time></trkpt><trkpt lat="41.83229" lon="12.8831883"><ele>410.6</ele><time>2026-04-11T07:22:59.815Z</time></trkpt><trkpt lat="41.8323383" lon="12.8833233"><ele>410.8</ele><time>2026-04-11T07:23:00.811Z</time></trkpt><trkpt lat="41.8323883" lon="12.883465"><ele>411.0</ele><time>2026-04-11T07:23:01.811Z</time></trkpt><trkpt lat="41.8324383" lon="12.88361"><ele>411.5</ele><time>2026-04-11T07:23:02.814Z</time></trkpt><trkpt lat="41.83249" lon="12.8837617"><ele>412.0</ele><time>2026-04-11T07:23:03.81Z</time></trkpt><trkpt lat="41.832545" lon="12.8839233"><ele>412.5</ele><time>2026-04-11T07:23:04.813Z</time></trkpt><trkpt lat="41.8326133" lon="12.8841017"><ele>413.0</ele><time>2026-04-11T07:23:05.814Z</time></trkpt><trkpt lat="41.8326867" lon="12.884305"><ele>413.66666666666663</ele><time>2026-04-11T07:23:06.809Z</time></trkpt><trkpt lat="41.83276" lon="12.8845233"><ele>414.33333333333337</ele><time>2026-04-11T07:23:07.813Z</time></trkpt><trkpt lat="41.83283" lon="12.88474"><ele>415.0</ele><time>2026-04-11T07:23:08.814Z</time></trkpt><trkpt lat="41.8329033" lon="12.8849383"><ele>414.6666666666667</ele><time>2026-04-11T07:23:09.814Z</time></trkpt><trkpt lat="41.8329717" lon="12.8851283"><ele>414.33333333333337</ele><time>2026-04-11T07:23:10.814Z</time></trkpt><trkpt lat="41.8330417" lon="12.8853133"><ele>414.0</ele><time>2026-04-11T07:23:11.813Z</time></trkpt><trkpt lat="41.833105" lon="12.885505"><ele>414.0</ele><time>2026-04-11T07:23:12.813Z</time></trkpt><trkpt lat="41.8331617" lon="12.8856967"><ele>414.0</ele><time>2026-04-11T07:23:13.811Z</time></trkpt><trkpt lat="41.8332083" lon="12.8858767"><ele>414.0</ele><time>2026-04-11T07:23:14.813Z</time></trkpt><trkpt lat="41.83324" lon="12.8860383"><ele>414.0</ele><time>2026-04-11T07:23:15.814Z</time></trkpt><trkpt lat="41.8332617" lon="12.886185"><ele>414.3333333333333</ele><time>2026-04-11T07:23:16.813Z</time></trkpt><trkpt lat="41.8332767" lon="12.8863183"><ele>414.66666666666663</ele><time>2026-04-11T07:23:17.81Z</time></trkpt><trkpt lat="41.8332933" lon="12.8864267"><ele>415.0</ele><time>2026-04-11T07:23:18.811Z</time></trkpt><trkpt lat="41.8333167" lon="12.8865467"><ele>415.3333333333333</ele><time>2026-04-11T07:23:20.812Z</time></trkpt><trkpt lat="41.8333183" lon="12.88666"><ele>415.66666666666663</ele><time>2026-04-11T07:23:23.811Z</time></trkpt><trkpt lat="41.8333283" lon="12.8867767"><ele>416.0</ele><time>2026-04-11T07:23:25.812Z</time></trkpt><trkpt lat="41.8333483" lon="12.8868683"><ele>416.3333333333333</ele><time>2026-04-11T07:23:29.814Z</time></trkpt><trkpt lat="41.8333817" lon="12.88694"><ele>416.66666666666663</ele><time>2026-04-11T07:23:31.814Z</time></trkpt><trkpt lat="41.83341" lon="12.8870533"><ele>417.0</ele><time>2026-04-11T07:23:33.811Z</time></trkpt><trkpt lat="41.8334317" lon="12.8871683"><ele>417.33333333333337</ele><time>2026-04-11T07:23:35.81Z</time></trkpt><trkpt lat="41.8334683" lon="12.8872833"><ele>417.6666666666667</ele><time>2026-04-11T07:23:37.814Z</time></trkpt><trkpt lat="41.8335017" lon="12.88742"><ele>418.0</ele><time>2026-04-11T07:23:39.814Z</time></trkpt><trkpt lat="41.8335567" lon="12.8875567"><ele>418.83333333333337</ele><time>2026-04-11T07:23:41.814Z</time></trkpt><trkpt lat="41.83357" lon="12.8876567"><ele>419.6666666666667</ele><time>2026-04-11T07:23:43.814Z</time></trkpt><trkpt lat="41.83356" lon="12.8877633"><ele>420.5</ele><time>2026-04-11T07:23:45.81Z</time></trkpt><trkpt lat="41.833585" lon="12.8878567"><ele>421.33333333333337</ele><time>2026-04-11T07:23:48.81Z</time></trkpt><trkpt lat="41.8336683" lon="12.8878867"><ele>422.1666666666667</ele><time>2026-04-11T07:25:01.811Z</time></trkpt><trkpt lat="41.8337517" lon="12.8879817"><ele>423.0</ele><time>2026-04-11T07:25:03.811Z</time></trkpt><trkpt lat="41.83378" lon="12.8880667"><ele>423.0</ele><time>2026-04-11T07:25:04.814Z</time></trkpt><trkpt lat="41.8337967" lon="12.888165"><ele>423.0</ele><time>2026-04-11T07:25:05.813Z</time></trkpt><trkpt lat="41.8338067" lon="12.8882633"><ele>423.0</ele><time>2026-04-11T07:25:06.813Z</time></trkpt><trkpt lat="41.8338183" lon="12.88837"><ele>423.0</ele><time>2026-04-11T07:25:07.811Z</time></trkpt><trkpt lat="41.8338283" lon="12.8884767"><ele>423.0</ele><time>2026-04-11T07:25:08.812Z</time></trkpt><trkpt lat="41.8338433" lon="12.888585"><ele>423.0</ele><time>2026-04-11T07:25:09.817Z</time></trkpt><trkpt lat="41.8338533" lon="12.8887"><ele>422.59999999999997</ele><time>2026-04-11T07:25:10.814Z</time></trkpt><trkpt lat="41.8338683" lon="12.888825"><ele>422.2</ele><time>2026-04-11T07:25:11.814Z</time></trkpt><trkpt lat="41.8338833" lon="12.88895"><ele>421.8</ele><time>2026-04-11T07:25:12.811Z</time></trkpt><trkpt lat="41.8338983" lon="12.8890817"><ele>421.4</ele><time>2026-04-11T07:25:13.811Z</time></trkpt><trkpt lat="41.8339183" lon="12.88922"><ele>421.0</ele><time>2026-04-11T07:25:14.814Z</time></trkpt><trkpt lat="41.8339383" lon="12.88936"><ele>420.6</ele><time>2026-04-11T07:25:15.813Z</time></trkpt><trkpt lat="41.83396" lon="12.8894933"><ele>420.20000000000005</ele><time>2026-04-11T07:25:16.809Z</time></trkpt><trkpt lat="41.8339767" lon="12.889625"><ele>419.79999999999995</ele><time>2026-04-11T07:25:17.811Z</time></trkpt><trkpt lat="41.83399" lon="12.8897533"><ele>419.4</ele><time>2026-04-11T07:25:18.81Z</time></trkpt><trkpt lat="41.8340033" lon="12.8898783"><ele>419.0</ele><time>2026-04-11T07:25:19.811Z</time></trkpt><trkpt lat="41.83401" lon="12.889995"><ele>419.16666666666663</ele><time>2026-04-11T07:25:20.811Z</time></trkpt><trkpt lat="41.834015" lon="12.8901017"><ele>419.3333333333333</ele><time>2026-04-11T07:25:21.812Z</time></trkpt><trkpt lat="41.83402" lon="12.8902067"><ele>419.5</ele><time>2026-04-11T07:25:22.81Z</time></trkpt><trkpt lat="41.83402" lon="12.890305"><ele>419.66666666666663</ele><time>2026-04-11T07:25:23.812Z</time></trkpt><trkpt lat="41.8340233" lon="12.8904033"><ele>419.8333333333333</ele><time>2026-04-11T07:25:24.813Z</time></trkpt><trkpt lat="41.8340267" lon="12.890505"><ele>420.0</ele><time>2026-04-11T07:25:25.813Z</time></trkpt><trkpt lat="41.8340283" lon="12.890605"><ele>420.0</ele><time>2026-04-11T07:25:26.815Z</time></trkpt><trkpt lat="41.8340333" lon="12.8907067"><ele>420.0</ele><time>2026-04-11T07:25:27.812Z</time></trkpt><trkpt lat="41.8340383" lon="12.8908117"><ele>420.0</ele><time>2026-04-11T07:25:28.813Z</time></trkpt><trkpt lat="41.8340417" lon="12.89092"><ele>420.0</ele><time>2026-04-11T07:25:29.813Z</time></trkpt><trkpt lat="41.83404" lon="12.8910417"><ele>420.0</ele><time>2026-04-11T07:25:30.813Z</time></trkpt><trkpt lat="41.8340383" lon="12.89117"><ele>420.0</ele><time>2026-04-11T07:25:31.813Z</time></trkpt><trkpt lat="41.8340317" lon="12.8912917"><ele>420.0</ele><time>2026-04-11T07:25:32.813Z</time></trkpt><trkpt lat="41.834025" lon="12.8914017"><ele>420.0</ele><time>2026-04-11T07:25:33.81Z</time></trkpt><trkpt lat="41.8340133" lon="12.8915017"><ele>420.0</ele><time>2026-04-11T07:25:34.813Z</time></trkpt><trkpt lat="41.8340017" lon="12.8916017"><ele>420.0</ele><time>2026-04-11T07:25:35.814Z</time></trkpt><trkpt lat="41.8339867" lon="12.8917"><ele>420.0</ele><time>2026-04-11T07:25:36.812Z</time></trkpt><trkpt lat="41.83397" lon="12.8918067"><ele>420.0</ele><time>2026-04-11T07:25:37.814Z</time></trkpt><trkpt lat="41.833955" lon="12.8919133"><ele>420.6666666666667</ele><time>2026-04-11T07:25:38.814Z</time></trkpt><trkpt lat="41.83394" lon="12.8920133"><ele>421.33333333333337</ele><time>2026-04-11T07:25:39.813Z</time></trkpt><trkpt lat="41.83392" lon="12.89211"><ele>422.0</ele><time>2026-04-11T07:25:40.812Z</time></trkpt><trkpt lat="41.8339" lon="12.89221"><ele>422.6666666666667</ele><time>2026-04-11T07:25:41.814Z</time></trkpt><trkpt lat="41.8338717" lon="12.8923117"><ele>423.33333333333337</ele><time>2026-04-11T07:25:42.81Z</time></trkpt><trkpt lat="41.8338383" lon="12.8924117"><ele>424.0</ele><time>2026-04-11T07:25:43.812Z</time></trkpt><trkpt lat="41.8338067" lon="12.8925183"><ele>424.83333333333337</ele><time>2026-04-11T07:25:44.814Z</time></trkpt><trkpt lat="41.8337733" lon="12.892625"><ele>425.6666666666667</ele><time>2026-04-11T07:25:45.811Z</time></trkpt><trkpt lat="41.83374" lon="12.8927317"><ele>426.5</ele><time>2026-04-11T07:25:46.818Z</time></trkpt><trkpt lat="41.83371" lon="12.8928383"><ele>427.33333333333337</ele><time>2026-04-11T07:25:47.814Z</time></trkpt><trkpt lat="41.833685" lon="12.89295"><ele>428.1666666666667</ele><time>2026-04-11T07:25:48.811Z</time></trkpt><trkpt lat="41.8336683" lon="12.893065"><ele>429.0</ele><time>2026-04-11T07:25:49.814Z</time></trkpt><trkpt lat="41.83366" lon="12.8931933"><ele>429.0</ele><time>2026-04-11T07:25:50.813Z</time></trkpt><trkpt lat="41.8336567" lon="12.8933283"><ele>429.0</ele><time>2026-04-11T07:25:51.812Z</time></trkpt><trkpt lat="41.833655" lon="12.8934633"><ele>429.0</ele><time>2026-04-11T07:25:52.814Z</time></trkpt><trkpt lat="41.833655" lon="12.8935967"><ele>429.0</ele><time>2026-04-11T07:25:53.813Z</time></trkpt><trkpt lat="41.833655" lon="12.89373"><ele>429.0</ele><time>2026-04-11T07:25:54.814Z</time></trkpt><trkpt lat="41.8336567" lon="12.8938617"><ele>429.0</ele><time>2026-04-11T07:25:55.814Z</time></trkpt><trkpt lat="41.833665" lon="12.893995"><ele>429.0</ele><time>2026-04-11T07:25:56.814Z</time></trkpt><trkpt lat="41.8336767" lon="12.8941317"><ele>429.0</ele><time>2026-04-11T07:25:57.814Z</time></trkpt><trkpt lat="41.833685" lon="12.8942667"><ele>429.0</ele><time>2026-04-11T07:25:58.814Z</time></trkpt><trkpt lat="41.8336983" lon="12.894395"><ele>429.0</ele><time>2026-04-11T07:25:59.814Z</time></trkpt><trkpt lat="41.8337267" lon="12.8945217"><ele>428.25</ele><time>2026-04-11T07:26:00.814Z</time></trkpt><trkpt lat="41.8337567" lon="12.89465"><ele>427.5</ele><time>2026-04-11T07:26:01.814Z</time></trkpt><trkpt lat="41.8337967" lon="12.8947817"><ele>426.75</ele><time>2026-04-11T07:26:02.811Z</time></trkpt><trkpt lat="41.833855" lon="12.8949317"><ele>426.0</ele><time>2026-04-11T07:26:03.809Z</time></trkpt><trkpt lat="41.833925" lon="12.8951083"><ele>423.0</ele><time>2026-04-11T07:26:04.813Z</time></trkpt><trkpt lat="41.8339983" lon="12.8953083"><ele>420.0</ele><time>2026-04-11T07:26:05.811Z</time></trkpt><trkpt lat="41.8340817" lon="12.8955233"><ele>417.0</ele><time>2026-04-11T07:26:06.812Z</time></trkpt><trkpt lat="41.8341733" lon="12.8957533"><ele>414.66666666666663</ele><time>2026-04-11T07:26:07.814Z</time></trkpt><trkpt lat="41.8342683" lon="12.8959717"><ele>412.3333333333333</ele><time>2026-04-11T07:26:08.811Z</time></trkpt><trkpt lat="41.8343433" lon="12.8961733"><ele>410.0</ele><time>2026-04-11T07:26:09.813Z</time></trkpt><trkpt lat="41.8343917" lon="12.8963633"><ele>413.75</ele><time>2026-04-11T07:26:10.814Z</time></trkpt><trkpt lat="41.8344167" lon="12.8965383"><ele>417.5</ele><time>2026-04-11T07:26:11.814Z</time></trkpt><trkpt lat="41.83442" lon="12.8966983"><ele>421.25</ele><time>2026-04-11T07:26:12.814Z</time></trkpt><trkpt lat="41.83439" lon="12.8968567"><ele>425.0</ele><time>2026-04-11T07:26:13.813Z</time></trkpt><trkpt lat="41.834335" lon="12.8970017"><ele>422.4</ele><time>2026-04-11T07:26:14.812Z</time></trkpt><trkpt lat="41.8342867" lon="12.89711"><ele>419.8</ele><time>2026-04-11T07:26:15.814Z</time></trkpt><trkpt lat="41.8342483" lon="12.8971883"><ele>417.20000000000005</ele><time>2026-04-11T07:26:16.814Z</time></trkpt><trkpt lat="41.8342" lon="12.8972633"><ele>414.6</ele><time>2026-04-11T07:26:18.813Z</time></trkpt><trkpt lat="41.8341267" lon="12.89735"><ele>412.0</ele><time>2026-04-11T07:26:22.813Z</time></trkpt><trkpt lat="41.8340233" lon="12.8974267"><ele>412.0</ele><time>2026-04-11T07:26:24.815Z</time></trkpt><trkpt lat="41.8339517" lon="12.897475"><ele>412.0</ele><time>2026-04-11T07:26:25.813Z</time></trkpt><trkpt lat="41.833855" lon="12.8975183"><ele>412.0</ele><time>2026-04-11T07:26:26.814Z</time></trkpt><trkpt lat="41.8337467" lon="12.897565"><ele>412.0</ele><time>2026-04-11T07:26:27.81Z</time></trkpt><trkpt lat="41.8336267" lon="12.8976133"><ele>412.0</ele><time>2026-04-11T07:26:28.814Z</time></trkpt><trkpt lat="41.8335133" lon="12.89766"><ele>414.0</ele><time>2026-04-11T07:26:29.813Z</time></trkpt><trkpt lat="41.83341" lon="12.8977017"><ele>416.0</ele><time>2026-04-11T07:26:30.815Z</time></trkpt><trkpt lat="41.83331" lon="12.897745"><ele>418.0</ele><time>2026-04-11T07:26:31.813Z</time></trkpt><trkpt lat="41.8332133" lon="12.8977967"><ele>420.0</ele><time>2026-04-11T07:26:32.813Z</time></trkpt><trkpt lat="41.8331217" lon="12.8978583"><ele>422.0</ele><time>2026-04-11T07:26:33.814Z</time></trkpt><trkpt lat="41.8330383" lon="12.897935"><ele>422.0</ele><time>2026-04-11T07:26:34.811Z</time></trkpt><trkpt lat="41.8329533" lon="12.8980183"><ele>422.0</ele><time>2026-04-11T07:26:35.813Z</time></trkpt><trkpt lat="41.8328717" lon="12.898105"><ele>422.0</ele><time>2026-04-11T07:26:36.813Z</time></trkpt><trkpt lat="41.832795" lon="12.8981983"><ele>422.0</ele><time>2026-04-11T07:26:37.814Z</time></trkpt><trkpt lat="41.83272" lon="12.8982933"><ele>422.0</ele><time>2026-04-11T07:26:38.814Z</time></trkpt><trkpt lat="41.8326517" lon="12.8983967"><ele>422.8</ele><time>2026-04-11T07:26:39.813Z</time></trkpt><trkpt lat="41.83258" lon="12.898505"><ele>423.6</ele><time>2026-04-11T07:26:40.813Z</time></trkpt><trkpt lat="41.832505" lon="12.8986117"><ele>424.40000000000003</ele><time>2026-04-11T07:26:41.813Z</time></trkpt><trkpt lat="41.8324283" lon="12.8987183"><ele>425.20000000000005</ele><time>2026-04-11T07:26:42.813Z</time></trkpt><trkpt lat="41.8323517" lon="12.898825"><ele>426.0</ele><time>2026-04-11T07:26:43.814Z</time></trkpt><trkpt lat="41.8322767" lon="12.8989333"><ele>426.0</ele><time>2026-04-11T07:26:44.813Z</time></trkpt><trkpt lat="41.8322017" lon="12.89904"><ele>426.0</ele><time>2026-04-11T07:26:45.812Z</time></trkpt><trkpt lat="41.8321317" lon="12.899145"><ele>426.0</ele><time>2026-04-11T07:26:46.814Z</time></trkpt><trkpt lat="41.8320617" lon="12.8992433"><ele>426.0</ele><time>2026-04-11T07:26:47.813Z</time></trkpt><trkpt lat="41.8319867" lon="12.8993367"><ele>426.0</ele><time>2026-04-11T07:26:48.813Z</time></trkpt><trkpt lat="41.8319117" lon="12.8994317"><ele>425.6</ele><time>2026-04-11T07:26:49.814Z</time></trkpt><trkpt lat="41.8318317" lon="12.899525"><ele>425.20000000000005</ele><time>2026-04-11T07:26:50.814Z</time></trkpt><trkpt lat="41.8317567" lon="12.8996183"><ele>424.79999999999995</ele><time>2026-04-11T07:26:51.814Z</time></trkpt><trkpt lat="41.831685" lon="12.8997167"><ele>424.4</ele><time>2026-04-11T07:26:52.813Z</time></trkpt><trkpt lat="41.8316117" lon="12.8998133"><ele>424.0</ele><time>2026-04-11T07:26:53.814Z</time></trkpt><trkpt lat="41.8315383" lon="12.8999017"><ele>424.0</ele><time>2026-04-11T07:26:54.813Z</time></trkpt><trkpt lat="41.8314583" lon="12.8999883"><ele>424.0</ele><time>2026-04-11T07:26:55.814Z</time></trkpt><trkpt lat="41.8313767" lon="12.9000733"><ele>424.0</ele><time>2026-04-11T07:26:56.812Z</time></trkpt><trkpt lat="41.8312967" lon="12.900165"><ele>424.0</ele><time>2026-04-11T07:26:57.812Z</time></trkpt><trkpt lat="41.83121" lon="12.9002667"><ele>424.0</ele><time>2026-04-11T07:26:58.81Z</time></trkpt><trkpt lat="41.8311233" lon="12.900375"><ele>425.0</ele><time>2026-04-11T07:26:59.811Z</time></trkpt><trkpt lat="41.8310367" lon="12.9005"><ele>426.0</ele><time>2026-04-11T07:27:00.81Z</time></trkpt><trkpt lat="41.83094" lon="12.90065"><ele>427.0</ele><time>2026-04-11T07:27:01.811Z</time></trkpt><trkpt lat="41.8308383" lon="12.90082"><ele>428.0</ele><time>2026-04-11T07:27:02.812Z</time></trkpt><trkpt lat="41.83074" lon="12.901"><ele>428.66666666666663</ele><time>2026-04-11T07:27:03.813Z</time></trkpt><trkpt lat="41.8306433" lon="12.9011867"><ele>429.33333333333337</ele><time>2026-04-11T07:27:04.811Z</time></trkpt><trkpt lat="41.83054" lon="12.90138"><ele>430.0</ele><time>2026-04-11T07:27:05.813Z</time></trkpt><trkpt lat="41.8304383" lon="12.90158"><ele>430.33333333333337</ele><time>2026-04-11T07:27:06.813Z</time></trkpt><trkpt lat="41.8303383" lon="12.901785"><ele>430.66666666666663</ele><time>2026-04-11T07:27:07.811Z</time></trkpt><trkpt lat="41.83024" lon="12.9019917"><ele>431.0</ele><time>2026-04-11T07:27:08.812Z</time></trkpt><trkpt lat="41.83015" lon="12.9022083"><ele>429.3333333333333</ele><time>2026-04-11T07:27:09.812Z</time></trkpt><trkpt lat="41.8300767" lon="12.9024467"><ele>427.66666666666663</ele><time>2026-04-11T07:27:10.812Z</time></trkpt><trkpt lat="41.830015" lon="12.902715"><ele>426.0</ele><time>2026-04-11T07:27:11.815Z</time></trkpt><trkpt lat="41.8299617" lon="12.9030033"><ele>424.66666666666663</ele><time>2026-04-11T07:27:12.812Z</time></trkpt><trkpt lat="41.8299117" lon="12.903285"><ele>423.3333333333333</ele><time>2026-04-11T07:27:13.813Z</time></trkpt><trkpt lat="41.8298633" lon="12.9035517"><ele>422.0</ele><time>2026-04-11T07:27:14.812Z</time></trkpt><trkpt lat="41.8298233" lon="12.9037883"><ele>421.0</ele><time>2026-04-11T07:27:15.812Z</time></trkpt><trkpt lat="41.8297983" lon="12.9039983"><ele>420.0</ele><time>2026-04-11T07:27:16.814Z</time></trkpt><trkpt lat="41.8297917" lon="12.9041833"><ele>419.0</ele><time>2026-04-11T07:27:17.813Z</time></trkpt><trkpt lat="41.829805" lon="12.9043583"><ele>418.0</ele><time>2026-04-11T07:27:18.81Z</time></trkpt><trkpt lat="41.8298533" lon="12.9045333"><ele>417.6666666666667</ele><time>2026-04-11T07:27:19.811Z</time></trkpt><trkpt lat="41.8299417" lon="12.9047033"><ele>417.33333333333337</ele><time>2026-04-11T07:27:20.811Z</time></trkpt><trkpt lat="41.8300717" lon="12.904855"><ele>417.0</ele><time>2026-04-11T07:27:21.811Z</time></trkpt><trkpt lat="41.8302017" lon="12.90501"><ele>417.66666666666663</ele><time>2026-04-11T07:27:22.811Z</time></trkpt><trkpt lat="41.8303033" lon="12.90517"><ele>418.3333333333333</ele><time>2026-04-11T07:27:23.811Z</time></trkpt><trkpt lat="41.83038" lon="12.9053617"><ele>419.0</ele><time>2026-04-11T07:27:24.812Z</time></trkpt><trkpt lat="41.83043" lon="12.905575"><ele>419.0</ele><time>2026-04-11T07:27:25.811Z</time></trkpt><trkpt lat="41.830445" lon="12.9058033"><ele>419.0</ele><time>2026-04-11T07:27:26.81Z</time></trkpt><trkpt lat="41.83043" lon="12.9060467"><ele>419.0</ele><time>2026-04-11T07:27:27.811Z</time></trkpt><trkpt lat="41.8303983" lon="12.9062733"><ele>418.66666666666663</ele><time>2026-04-11T07:27:28.81Z</time></trkpt><trkpt lat="41.8303417" lon="12.9064717"><ele>418.33333333333337</ele><time>2026-04-11T07:27:29.814Z</time></trkpt><trkpt lat="41.8302467" lon="12.9066633"><ele>418.0</ele><time>2026-04-11T07:27:30.813Z</time></trkpt><trkpt lat="41.8301167" lon="12.90684"><ele>413.0</ele><time>2026-04-11T07:27:31.811Z</time></trkpt><trkpt lat="41.82995" lon="12.9070067"><ele>408.0</ele><time>2026-04-11T07:27:32.812Z</time></trkpt><trkpt lat="41.82976" lon="12.9071733"><ele>403.0</ele><time>2026-04-11T07:27:33.814Z</time></trkpt><trkpt lat="41.8295667" lon="12.907345"><ele>403.0</ele><time>2026-04-11T07:27:34.813Z</time></trkpt><trkpt lat="41.8293533" lon="12.9075167"><ele>403.0</ele><time>2026-04-11T07:27:35.814Z</time></trkpt><trkpt lat="41.8291283" lon="12.90768"><ele>413.0</ele><time>2026-04-11T07:27:36.811Z</time></trkpt><trkpt lat="41.8288983" lon="12.907835"><ele>423.0</ele><time>2026-04-11T07:27:37.812Z</time></trkpt><trkpt lat="41.828675" lon="12.90799"><ele>419.0</ele><time>2026-04-11T07:27:38.813Z</time></trkpt><trkpt lat="41.8284617" lon="12.9081567"><ele>415.0</ele><time>2026-04-11T07:27:39.813Z</time></trkpt><trkpt lat="41.8282583" lon="12.9083283"><ele>417.0</ele><time>2026-04-11T07:27:40.813Z</time></trkpt><trkpt lat="41.8280717" lon="12.9084867"><ele>419.0</ele><time>2026-04-11T07:27:41.813Z</time></trkpt><trkpt lat="41.82791" lon="12.90863"><ele>421.0</ele><time>2026-04-11T07:27:42.814Z</time></trkpt><trkpt lat="41.827775" lon="12.9087567"><ele>421.0</ele><time>2026-04-11T07:27:43.813Z</time></trkpt><trkpt lat="41.82766" lon="12.9088817"><ele>421.0</ele><time>2026-04-11T07:27:44.812Z</time></trkpt><trkpt lat="41.8275617" lon="12.90901"><ele>421.0</ele><time>2026-04-11T07:27:45.81Z</time></trkpt><trkpt lat="41.8274867" lon="12.909145"><ele>421.0</ele><time>2026-04-11T07:27:46.813Z</time></trkpt><trkpt lat="41.8274283" lon="12.909305"><ele>420.0</ele><time>2026-04-11T07:27:47.812Z</time></trkpt><trkpt lat="41.8273933" lon="12.9094933"><ele>419.0</ele><time>2026-04-11T07:27:48.81Z</time></trkpt><trkpt lat="41.82737" lon="12.9096883"><ele>418.0</ele><time>2026-04-11T07:27:49.811Z</time></trkpt><trkpt lat="41.8273633" lon="12.9098783"><ele>417.0</ele><time>2026-04-11T07:27:50.812Z</time></trkpt><trkpt lat="41.8273583" lon="12.9100533"><ele>417.0</ele><time>2026-04-11T07:27:51.812Z</time></trkpt><trkpt lat="41.8273517" lon="12.9102167"><ele>417.0</ele><time>2026-04-11T07:27:52.811Z</time></trkpt><trkpt lat="41.827345" lon="12.9103733"><ele>417.0</ele><time>2026-04-11T07:27:53.811Z</time></trkpt><trkpt lat="41.8273267" lon="12.9105133"><ele>417.0</ele><time>2026-04-11T07:27:54.812Z</time></trkpt><trkpt lat="41.82732" lon="12.9106583"><ele>417.0</ele><time>2026-04-11T07:27:55.813Z</time></trkpt><trkpt lat="41.8273117" lon="12.9108067"><ele>417.0</ele><time>2026-04-11T07:27:56.813Z</time></trkpt><trkpt lat="41.8272933" lon="12.9109683"><ele>417.0</ele><time>2026-04-11T07:27:57.81Z</time></trkpt><trkpt lat="41.8272667" lon="12.911145"><ele>417.0</ele><time>2026-04-11T07:27:58.812Z</time></trkpt><trkpt lat="41.8272233" lon="12.9113367"><ele>417.5</ele><time>2026-04-11T07:27:59.816Z</time></trkpt><trkpt lat="41.827175" lon="12.9115233"><ele>418.0</ele><time>2026-04-11T07:28:00.815Z</time></trkpt><trkpt lat="41.82713" lon="12.9117017"><ele>418.5</ele><time>2026-04-11T07:28:01.81Z</time></trkpt><trkpt lat="41.8271017" lon="12.9118833"><ele>419.0</ele><time>2026-04-11T07:28:02.811Z</time></trkpt><trkpt lat="41.827085" lon="12.9120583"><ele>417.75</ele><time>2026-04-11T07:28:03.809Z</time></trkpt><trkpt lat="41.8271017" lon="12.91223"><ele>416.5</ele><time>2026-04-11T07:28:04.81Z</time></trkpt><trkpt lat="41.8271467" lon="12.912395"><ele>415.25</ele><time>2026-04-11T07:28:05.812Z</time></trkpt><trkpt lat="41.8272283" lon="12.9125467"><ele>414.0</ele><time>2026-04-11T07:28:06.814Z</time></trkpt><trkpt lat="41.8273233" lon="12.91269"><ele>411.25</ele><time>2026-04-11T07:28:07.812Z</time></trkpt><trkpt lat="41.8274067" lon="12.912835"><ele>408.5</ele><time>2026-04-11T07:28:08.814Z</time></trkpt><trkpt lat="41.82746" lon="12.9129867"><ele>405.75</ele><time>2026-04-11T07:28:09.814Z</time></trkpt><trkpt lat="41.8274717" lon="12.9131467"><ele>403.0</ele><time>2026-04-11T07:28:10.814Z</time></trkpt><trkpt lat="41.8274483" lon="12.913295"><ele>405.25</ele><time>2026-04-11T07:28:11.814Z</time></trkpt><trkpt lat="41.8273817" lon="12.9134133"><ele>407.5</ele><time>2026-04-11T07:28:12.814Z</time></trkpt><trkpt lat="41.8272817" lon="12.9134917"><ele>409.75</ele><time>2026-04-11T07:28:13.813Z</time></trkpt><trkpt lat="41.82714" lon="12.91352"><ele>412.0</ele><time>2026-04-11T07:28:14.813Z</time></trkpt><trkpt lat="41.8269717" lon="12.913505"><ele>412.0</ele><time>2026-04-11T07:28:15.812Z</time></trkpt><trkpt lat="41.8267933" lon="12.9134917"><ele>412.0</ele><time>2026-04-11T07:28:16.813Z</time></trkpt><trkpt lat="41.8266167" lon="12.9135067"><ele>412.0</ele><time>2026-04-11T07:28:17.813Z</time></trkpt><trkpt lat="41.8264433" lon="12.9135467"><ele>412.0</ele><time>2026-04-11T07:28:18.81Z</time></trkpt><trkpt lat="41.8262783" lon="12.9136183"><ele>412.0</ele><time>2026-04-11T07:28:19.811Z</time></trkpt><trkpt lat="41.8261317" lon="12.9137283"><ele>412.0</ele><time>2026-04-11T07:28:20.809Z</time></trkpt><trkpt lat="41.8259933" lon="12.913885"><ele>409.6666666666667</ele><time>2026-04-11T07:28:21.81Z</time></trkpt><trkpt lat="41.8258633" lon="12.91407"><ele>407.33333333333337</ele><time>2026-04-11T07:28:22.81Z</time></trkpt><trkpt lat="41.825745" lon="12.9142667"><ele>405.0</ele><time>2026-04-11T07:28:23.809Z</time></trkpt><trkpt lat="41.8256417" lon="12.9144767"><ele>405.0</ele><time>2026-04-11T07:28:24.81Z</time></trkpt><trkpt lat="41.8255433" lon="12.914715"><ele>405.0</ele><time>2026-04-11T07:28:25.81Z</time></trkpt><trkpt lat="41.825455" lon="12.9149733"><ele>405.0</ele><time>2026-04-11T07:28:26.811Z</time></trkpt><trkpt lat="41.8253733" lon="12.9152517"><ele>407.0</ele><time>2026-04-11T07:28:27.809Z</time></trkpt><trkpt lat="41.82529" lon="12.9155367"><ele>409.0</ele><time>2026-04-11T07:28:28.809Z</time></trkpt><trkpt lat="41.8252133" lon="12.915815"><ele>411.0</ele><time>2026-04-11T07:28:29.814Z</time></trkpt><trkpt lat="41.825145" lon="12.9160817"><ele>402.33333333333337</ele><time>2026-04-11T07:28:30.813Z</time></trkpt><trkpt lat="41.8250917" lon="12.91634"><ele>393.6666666666667</ele><time>2026-04-11T07:28:31.81Z</time></trkpt><trkpt lat="41.8250617" lon="12.9165733"><ele>385.0</ele><time>2026-04-11T07:28:32.813Z</time></trkpt><trkpt lat="41.8250483" lon="12.9167733"><ele>383.25</ele><time>2026-04-11T07:28:33.816Z</time></trkpt><trkpt lat="41.825055" lon="12.9169517"><ele>381.5</ele><time>2026-04-11T07:28:34.813Z</time></trkpt><trkpt lat="41.82509" lon="12.9171233"><ele>379.75</ele><time>2026-04-11T07:28:35.813Z</time></trkpt><trkpt lat="41.82516" lon="12.917295"><ele>378.0</ele><time>2026-04-11T07:28:36.811Z</time></trkpt><trkpt lat="41.8252467" lon="12.9174567"><ele>381.75</ele><time>2026-04-11T07:28:37.811Z</time></trkpt><trkpt lat="41.8253267" lon="12.9176017"><ele>385.5</ele><time>2026-04-11T07:28:38.814Z</time></trkpt><trkpt lat="41.8253683" lon="12.917755"><ele>389.25</ele><time>2026-04-11T07:28:39.813Z</time></trkpt><trkpt lat="41.8253733" lon="12.917905"><ele>393.0</ele><time>2026-04-11T07:28:40.81Z</time></trkpt><trkpt lat="41.8253517" lon="12.918055"><ele>393.0</ele><time>2026-04-11T07:28:41.813Z</time></trkpt><trkpt lat="41.82529" lon="12.9182017"><ele>393.0</ele><time>2026-04-11T07:28:42.815Z</time></trkpt><trkpt lat="41.8251983" lon="12.9183183"><ele>393.0</ele><time>2026-04-11T07:28:43.813Z</time></trkpt><trkpt lat="41.8250867" lon="12.91839"><ele>393.0</ele><time>2026-04-11T07:28:44.813Z</time></trkpt><trkpt lat="41.8249683" lon="12.9184183"><ele>400.33333333333337</ele><time>2026-04-11T07:28:45.813Z</time></trkpt><trkpt lat="41.8248033" lon="12.9184117"><ele>407.6666666666667</ele><time>2026-04-11T07:28:46.815Z</time></trkpt><trkpt lat="41.8246283" lon="12.9184333"><ele>415.0</ele><time>2026-04-11T07:28:47.812Z</time></trkpt><trkpt lat="41.824465" lon="12.9184933"><ele>415.0</ele><time>2026-04-11T07:28:48.81Z</time></trkpt><trkpt lat="41.824315" lon="12.918595"><ele>415.0</ele><time>2026-04-11T07:28:49.81Z</time></trkpt><trkpt lat="41.824175" lon="12.918745"><ele>415.0</ele><time>2026-04-11T07:28:50.811Z</time></trkpt><trkpt lat="41.82404" lon="12.9189317"><ele>411.33333333333337</ele><time>2026-04-11T07:28:51.811Z</time></trkpt><trkpt lat="41.823905" lon="12.919135"><ele>407.66666666666663</ele><time>2026-04-11T07:28:52.81Z</time></trkpt><trkpt lat="41.82378" lon="12.9193317"><ele>404.0</ele><time>2026-04-11T07:28:53.815Z</time></trkpt><trkpt lat="41.8236617" lon="12.9195167"><ele>404.0</ele><time>2026-04-11T07:28:54.811Z</time></trkpt><trkpt lat="41.82355" lon="12.9197067"><ele>404.0</ele><time>2026-04-11T07:28:55.811Z</time></trkpt><trkpt lat="41.8234483" lon="12.91992"><ele>404.0</ele><time>2026-04-11T07:28:56.812Z</time></trkpt><trkpt lat="41.8233583" lon="12.9201617"><ele>399.0</ele><time>2026-04-11T07:28:57.811Z</time></trkpt><trkpt lat="41.8232617" lon="12.9204183"><ele>394.0</ele><time>2026-04-11T07:28:58.81Z</time></trkpt><trkpt lat="41.8231533" lon="12.9206983"><ele>389.0</ele><time>2026-04-11T07:28:59.813Z</time></trkpt><trkpt lat="41.82304" lon="12.9209883"><ele>389.0</ele><time>2026-04-11T07:29:00.812Z</time></trkpt><trkpt lat="41.822935" lon="12.9212617"><ele>389.0</ele><time>2026-04-11T07:29:01.813Z</time></trkpt><trkpt lat="41.8228467" lon="12.9215117"><ele>389.0</ele><time>2026-04-11T07:29:02.813Z</time></trkpt><trkpt lat="41.822775" lon="12.9217283"><ele>389.3333333333333</ele><time>2026-04-11T07:29:03.815Z</time></trkpt><trkpt lat="41.8227167" lon="12.9219333"><ele>389.66666666666663</ele><time>2026-04-11T07:29:04.813Z</time></trkpt><trkpt lat="41.8226833" lon="12.9221617"><ele>390.0</ele><time>2026-04-11T07:29:05.811Z</time></trkpt><trkpt lat="41.8226633" lon="12.9223983"><ele>384.5</ele><time>2026-04-11T07:29:06.813Z</time></trkpt><trkpt lat="41.82265" lon="12.9226167"><ele>379.0</ele><time>2026-04-11T07:29:07.813Z</time></trkpt><trkpt lat="41.8226567" lon="12.922815"><ele>373.5</ele><time>2026-04-11T07:29:08.814Z</time></trkpt><trkpt lat="41.8226833" lon="12.9229867"><ele>368.0</ele><time>2026-04-11T07:29:09.813Z</time></trkpt><trkpt lat="41.8227383" lon="12.9231433"><ele>368.0</ele><time>2026-04-11T07:29:10.816Z</time></trkpt><trkpt lat="41.8228333" lon="12.9232867"><ele>368.0</ele><time>2026-04-11T07:29:11.812Z</time></trkpt><trkpt lat="41.8229567" lon="12.9234033"><ele>368.0</ele><time>2026-04-11T07:29:12.813Z</time></trkpt><trkpt lat="41.823115" lon="12.92349"><ele>360.33333333333337</ele><time>2026-04-11T07:29:13.815Z</time></trkpt><trkpt lat="41.82331" lon="12.9235283"><ele>352.6666666666667</ele><time>2026-04-11T07:29:14.812Z</time></trkpt><trkpt lat="41.823505" lon="12.9235383"><ele>345.0</ele><time>2026-04-11T07:29:15.812Z</time></trkpt><trkpt lat="41.8236617" lon="12.923565"><ele>345.0</ele><time>2026-04-11T07:29:16.81Z</time></trkpt><trkpt lat="41.8238033" lon="12.9236067"><ele>345.0</ele><time>2026-04-11T07:29:17.81Z</time></trkpt><trkpt lat="41.8239367" lon="12.9236817"><ele>345.0</ele><time>2026-04-11T07:29:18.81Z</time></trkpt><trkpt lat="41.8240633" lon="12.9237833"><ele>345.0</ele><time>2026-04-11T07:29:19.811Z</time></trkpt><trkpt lat="41.8241883" lon="12.92388"><ele>345.0</ele><time>2026-04-11T07:29:20.809Z</time></trkpt><trkpt lat="41.8243083" lon="12.92395"><ele>345.0</ele><time>2026-04-11T07:29:21.81Z</time></trkpt><trkpt lat="41.8244267" lon="12.923975"><ele>345.0</ele><time>2026-04-11T07:29:22.811Z</time></trkpt><trkpt lat="41.8245433" lon="12.92393"><ele>345.0</ele><time>2026-04-11T07:29:23.81Z</time></trkpt><trkpt lat="41.8246517" lon="12.9238533"><ele>345.75</ele><time>2026-04-11T07:29:24.813Z</time></trkpt><trkpt lat="41.8247533" lon="12.923775"><ele>346.5</ele><time>2026-04-11T07:29:25.812Z</time></trkpt><trkpt lat="41.8248567" lon="12.9237333"><ele>347.25</ele><time>2026-04-11T07:29:26.814Z</time></trkpt><trkpt lat="41.8249717" lon="12.9237467"><ele>348.0</ele><time>2026-04-11T07:29:27.812Z</time></trkpt><trkpt lat="41.8250883" lon="12.923815"><ele>346.75</ele><time>2026-04-11T07:29:28.812Z</time></trkpt><trkpt lat="41.8252083" lon="12.923905"><ele>345.5</ele><time>2026-04-11T07:29:29.814Z</time></trkpt><trkpt lat="41.8253167" lon="12.9240133"><ele>344.25</ele><time>2026-04-11T07:29:30.813Z</time></trkpt><trkpt lat="41.8254033" lon="12.9241483"><ele>343.0</ele><time>2026-04-11T07:29:31.814Z</time></trkpt><trkpt lat="41.82547" lon="12.9243033"><ele>337.66666666666663</ele><time>2026-04-11T07:29:32.814Z</time></trkpt><trkpt lat="41.82551" lon="12.9244933"><ele>332.3333333333333</ele><time>2026-04-11T07:29:33.809Z</time></trkpt><trkpt lat="41.8255333" lon="12.924715"><ele>327.0</ele><time>2026-04-11T07:29:34.814Z</time></trkpt><trkpt lat="41.825555" lon="12.92494"><ele>329.6666666666667</ele><time>2026-04-11T07:29:35.813Z</time></trkpt><trkpt lat="41.82558" lon="12.9251467"><ele>332.33333333333337</ele><time>2026-04-11T07:29:36.812Z</time></trkpt><trkpt lat="41.8256067" lon="12.9253517"><ele>335.0</ele><time>2026-04-11T07:29:37.814Z</time></trkpt><trkpt lat="41.8256333" lon="12.9255617"><ele>335.0</ele><time>2026-04-11T07:29:38.813Z</time></trkpt><trkpt lat="41.82566" lon="12.925765"><ele>335.0</ele><time>2026-04-11T07:29:39.814Z</time></trkpt><trkpt lat="41.8256917" lon="12.92596"><ele>335.0</ele><time>2026-04-11T07:29:40.813Z</time></trkpt><trkpt lat="41.8257067" lon="12.92614"><ele>335.0</ele><time>2026-04-11T07:29:41.813Z</time></trkpt><trkpt lat="41.8257033" lon="12.9263083"><ele>340.75</ele><time>2026-04-11T07:29:42.815Z</time></trkpt><trkpt lat="41.8256733" lon="12.9264617"><ele>346.5</ele><time>2026-04-11T07:29:43.812Z</time></trkpt><trkpt lat="41.82561" lon="12.9265917"><ele>352.25</ele><time>2026-04-11T07:29:44.812Z</time></trkpt><trkpt lat="41.8255267" lon="12.9266983"><ele>358.0</ele><time>2026-04-11T07:29:45.814Z</time></trkpt><trkpt lat="41.82542" lon="12.9267733"><ele>356.5</ele><time>2026-04-11T07:29:46.813Z</time></trkpt><trkpt lat="41.8253017" lon="12.9268033"><ele>355.0</ele><time>2026-04-11T07:29:47.809Z</time></trkpt><trkpt lat="41.8251583" lon="12.9267883"><ele>353.5</ele><time>2026-04-11T07:29:48.813Z</time></trkpt><trkpt lat="41.8249967" lon="12.9267383"><ele>352.0</ele><time>2026-04-11T07:29:49.811Z</time></trkpt><trkpt lat="41.8248117" lon="12.926675"><ele>352.0</ele><time>2026-04-11T07:29:50.811Z</time></trkpt><trkpt lat="41.8246167" lon="12.9266167"><ele>352.0</ele><time>2026-04-11T07:29:51.813Z</time></trkpt><trkpt lat="41.82441" lon="12.9265633"><ele>352.0</ele><time>2026-04-11T07:29:52.813Z</time></trkpt><trkpt lat="41.8241983" lon="12.9265017"><ele>357.66666666666663</ele><time>2026-04-11T07:29:53.811Z</time></trkpt><trkpt lat="41.8239883" lon="12.9264317"><ele>363.3333333333333</ele><time>2026-04-11T07:29:54.811Z</time></trkpt><trkpt lat="41.8237683" lon="12.9263333"><ele>369.0</ele><time>2026-04-11T07:29:55.814Z</time></trkpt><trkpt lat="41.8235467" lon="12.9262233"><ele>375.0</ele><time>2026-04-11T07:29:56.813Z</time></trkpt><trkpt lat="41.8233183" lon="12.9261233"><ele>381.0</ele><time>2026-04-11T07:29:57.81Z</time></trkpt><trkpt lat="41.8230783" lon="12.9260467"><ele>381.0</ele><time>2026-04-11T07:29:58.81Z</time></trkpt><trkpt lat="41.8228417" lon="12.92598"><ele>381.0</ele><time>2026-04-11T07:29:59.812Z</time></trkpt><trkpt lat="41.82262" lon="12.9259217"><ele>371.6666666666667</ele><time>2026-04-11T07:30:00.81Z</time></trkpt><trkpt lat="41.82242" lon="12.9258717"><ele>362.33333333333337</ele><time>2026-04-11T07:30:01.812Z</time></trkpt><trkpt lat="41.8222433" lon="12.9258317"><ele>353.0</ele><time>2026-04-11T07:30:02.814Z</time></trkpt><trkpt lat="41.8220933" lon="12.92581"><ele>353.0</ele><time>2026-04-11T07:30:03.81Z</time></trkpt><trkpt lat="41.821955" lon="12.9258233"><ele>353.0</ele><time>2026-04-11T07:30:04.81Z</time></trkpt><trkpt lat="41.8218217" lon="12.9258817"><ele>353.0</ele><time>2026-04-11T07:30:05.81Z</time></trkpt><trkpt lat="41.82168" lon="12.92598"><ele>353.0</ele><time>2026-04-11T07:30:06.813Z</time></trkpt><trkpt lat="41.8215433" lon="12.9260733"><ele>359.0</ele><time>2026-04-11T07:30:07.814Z</time></trkpt><trkpt lat="41.8214017" lon="12.9261267"><ele>365.0</ele><time>2026-04-11T07:30:08.81Z</time></trkpt><trkpt lat="41.8212517" lon="12.9261383"><ele>371.0</ele><time>2026-04-11T07:30:09.812Z</time></trkpt><trkpt lat="41.8211" lon="12.9261367"><ele>377.0</ele><time>2026-04-11T07:30:10.811Z</time></trkpt><trkpt lat="41.82096" lon="12.9261617"><ele>377.0</ele><time>2026-04-11T07:30:11.81Z</time></trkpt><trkpt lat="41.82081" lon="12.926245"><ele>377.0</ele><time>2026-04-11T07:30:12.809Z</time></trkpt><trkpt lat="41.8206567" lon="12.926355"><ele>377.0</ele><time>2026-04-11T07:30:13.81Z</time></trkpt><trkpt lat="41.8204867" lon="12.92646"><ele>377.0</ele><time>2026-04-11T07:30:14.813Z</time></trkpt><trkpt lat="41.8203117" lon="12.9265483"><ele>377.0</ele><time>2026-04-11T07:30:15.81Z</time></trkpt><trkpt lat="41.8201267" lon="12.9266333"><ele>377.0</ele><time>2026-04-11T07:30:16.81Z</time></trkpt><trkpt lat="41.8199383" lon="12.9267133"><ele>382.6666666666667</ele><time>2026-04-11T07:30:17.81Z</time></trkpt><trkpt lat="41.819755" lon="12.926795"><ele>388.33333333333337</ele><time>2026-04-11T07:30:18.809Z</time></trkpt><trkpt lat="41.8195883" lon="12.92689"><ele>394.0</ele><time>2026-04-11T07:30:19.81Z</time></trkpt><trkpt lat="41.8194383" lon="12.927005"><ele>387.0</ele><time>2026-04-11T07:30:20.811Z</time></trkpt><trkpt lat="41.8192967" lon="12.9271383"><ele>380.0</ele><time>2026-04-11T07:30:21.81Z</time></trkpt><trkpt lat="41.8191633" lon="12.9272667"><ele>373.0</ele><time>2026-04-11T07:30:22.81Z</time></trkpt><trkpt lat="41.81906" lon="12.9273967"><ele>373.0</ele><time>2026-04-11T07:30:23.81Z</time></trkpt><trkpt lat="41.81899" lon="12.9275333"><ele>373.0</ele><time>2026-04-11T07:30:24.812Z</time></trkpt><trkpt lat="41.8189433" lon="12.9276717"><ele>373.0</ele><time>2026-04-11T07:30:25.811Z</time></trkpt><trkpt lat="41.81892" lon="12.9278183"><ele>373.0</ele><time>2026-04-11T07:30:26.81Z</time></trkpt><trkpt lat="41.8189117" lon="12.9279633"><ele>375.4</ele><time>2026-04-11T07:30:27.813Z</time></trkpt><trkpt lat="41.8189317" lon="12.928115"><ele>377.79999999999995</ele><time>2026-04-11T07:30:28.811Z</time></trkpt><trkpt lat="41.81894" lon="12.9282517"><ele>380.2</ele><time>2026-04-11T07:30:29.81Z</time></trkpt><trkpt lat="41.818935" lon="12.9283867"><ele>382.6</ele><time>2026-04-11T07:30:30.811Z</time></trkpt><trkpt lat="41.818925" lon="12.9285067"><ele>385.0</ele><time>2026-04-11T07:30:31.809Z</time></trkpt><trkpt lat="41.8188933" lon="12.9285983"><ele>385.6666666666667</ele><time>2026-04-11T07:30:32.811Z</time></trkpt><trkpt lat="41.8188483" lon="12.9286717"><ele>386.33333333333337</ele><time>2026-04-11T07:30:33.81Z</time></trkpt><trkpt lat="41.8187917" lon="12.9287283"><ele>387.0</ele><time>2026-04-11T07:30:34.809Z</time></trkpt><trkpt lat="41.8187233" lon="12.9287717"><ele>387.66666666666663</ele><time>2026-04-11T07:30:35.809Z</time></trkpt><trkpt lat="41.8186433" lon="12.9288083"><ele>388.3333333333333</ele><time>2026-04-11T07:30:36.813Z</time></trkpt><trkpt lat="41.8185617" lon="12.9288367"><ele>389.0</ele><time>2026-04-11T07:30:37.81Z</time></trkpt><trkpt lat="41.81849" lon="12.9288717"><ele>387.66666666666663</ele><time>2026-04-11T07:30:38.81Z</time></trkpt><trkpt lat="41.8184133" lon="12.9289083"><ele>386.3333333333333</ele><time>2026-04-11T07:30:39.81Z</time></trkpt><trkpt lat="41.81834" lon="12.92895"><ele>385.0</ele><time>2026-04-11T07:30:40.81Z</time></trkpt><trkpt lat="41.8182683" lon="12.929"><ele>383.66666666666663</ele><time>2026-04-11T07:30:41.812Z</time></trkpt><trkpt lat="41.818195" lon="12.9290533"><ele>382.3333333333333</ele><time>2026-04-11T07:30:42.812Z</time></trkpt><trkpt lat="41.8181333" lon="12.9291233"><ele>381.0</ele><time>2026-04-11T07:30:43.812Z</time></trkpt><trkpt lat="41.81808" lon="12.9292017"><ele>382.0</ele><time>2026-04-11T07:30:44.813Z</time></trkpt><trkpt lat="41.8180283" lon="12.929285"><ele>383.0</ele><time>2026-04-11T07:30:45.812Z</time></trkpt><trkpt lat="41.8179783" lon="12.9293633"><ele>384.0</ele><time>2026-04-11T07:30:46.81Z</time></trkpt><trkpt lat="41.81792" lon="12.92943"><ele>385.0</ele><time>2026-04-11T07:30:47.813Z</time></trkpt><trkpt lat="41.81786" lon="12.9294967"><ele>386.0</ele><time>2026-04-11T07:30:48.812Z</time></trkpt><trkpt lat="41.817795" lon="12.929555"><ele>387.0</ele><time>2026-04-11T07:30:49.811Z</time></trkpt><trkpt lat="41.8177267" lon="12.9296117"><ele>387.0</ele><time>2026-04-11T07:30:50.81Z</time></trkpt><trkpt lat="41.817655" lon="12.92966"><ele>387.0</ele><time>2026-04-11T07:30:51.809Z</time></trkpt><trkpt lat="41.8175817" lon="12.9297017"><ele>387.0</ele><time>2026-04-11T07:30:52.812Z</time></trkpt><trkpt lat="41.817505" lon="12.9297467"><ele>387.0</ele><time>2026-04-11T07:30:53.813Z</time></trkpt><trkpt lat="41.8174367" lon="12.929795"><ele>387.0</ele><time>2026-04-11T07:30:54.812Z</time></trkpt><trkpt lat="41.8173717" lon="12.9298533"><ele>387.0</ele><time>2026-04-11T07:30:55.813Z</time></trkpt><trkpt lat="41.8173083" lon="12.9299133"><ele>387.5</ele><time>2026-04-11T07:30:56.813Z</time></trkpt><trkpt lat="41.817245" lon="12.92998"><ele>388.0</ele><time>2026-04-11T07:30:57.812Z</time></trkpt><trkpt lat="41.8171883" lon="12.9300517"><ele>388.5</ele><time>2026-04-11T07:30:58.81Z</time></trkpt><trkpt lat="41.81713" lon="12.9301217"><ele>389.0</ele><time>2026-04-11T07:30:59.813Z</time></trkpt><trkpt lat="41.817075" lon="12.9302"><ele>389.5</ele><time>2026-04-11T07:31:00.809Z</time></trkpt><trkpt lat="41.81702" lon="12.9302683"><ele>390.0</ele><time>2026-04-11T07:31:01.81Z</time></trkpt><trkpt lat="41.8169733" lon="12.930325"><ele>390.0</ele><time>2026-04-11T07:31:02.811Z</time></trkpt><trkpt lat="41.8169167" lon="12.9304217"><ele>390.0</ele><time>2026-04-11T07:31:04.81Z</time></trkpt><trkpt lat="41.8169017" lon="12.93052"><ele>390.0</ele><time>2026-04-11T07:32:13.813Z</time></trkpt><trkpt lat="41.816865" lon="12.9305933"><ele>390.0</ele><time>2026-04-11T07:32:14.813Z</time></trkpt><trkpt lat="41.816815" lon="12.93069"><ele>390.0</ele><time>2026-04-11T07:32:15.812Z</time></trkpt><trkpt lat="41.8167483" lon="12.930815"><ele>390.0</ele><time>2026-04-11T07:32:16.813Z</time></trkpt><trkpt lat="41.8166817" lon="12.9309517"><ele>389.4</ele><time>2026-04-11T07:32:17.813Z</time></trkpt><trkpt lat="41.8166133" lon="12.9310917"><ele>388.8</ele><time>2026-04-11T07:32:18.813Z</time></trkpt><trkpt lat="41.81656" lon="12.9312233"><ele>388.20000000000005</ele><time>2026-04-11T07:32:19.813Z</time></trkpt><trkpt lat="41.8165117" lon="12.9313317"><ele>387.6</ele><time>2026-04-11T07:32:20.812Z</time></trkpt><trkpt lat="41.8164733" lon="12.9314317"><ele>387.0</ele><time>2026-04-11T07:32:21.812Z</time></trkpt><trkpt lat="41.8164433" lon="12.9315217"><ele>387.0</ele><time>2026-04-11T07:32:22.812Z</time></trkpt><trkpt lat="41.8164267" lon="12.9316067"><ele>387.0</ele><time>2026-04-11T07:32:23.813Z</time></trkpt><trkpt lat="41.8164217" lon="12.93176"><ele>387.0</ele><time>2026-04-11T07:32:25.813Z</time></trkpt><trkpt lat="41.8164383" lon="12.9319167"><ele>387.0</ele><time>2026-04-11T07:32:27.812Z</time></trkpt><trkpt lat="41.8164567" lon="12.9320033"><ele>387.0</ele><time>2026-04-11T07:32:28.813Z</time></trkpt><trkpt lat="41.8164767" lon="12.9320933"><ele>387.0</ele><time>2026-04-11T07:32:29.813Z</time></trkpt><trkpt lat="41.8164983" lon="12.9321833"><ele>387.0</ele><time>2026-04-11T07:32:30.813Z</time></trkpt><trkpt lat="41.8165183" lon="12.9322733"><ele>387.0</ele><time>2026-04-11T07:32:31.814Z</time></trkpt><trkpt lat="41.8165367" lon="12.9323683"><ele>387.0</ele><time>2026-04-11T07:32:32.812Z</time></trkpt><trkpt lat="41.8165567" lon="12.9324667"><ele>387.0</ele><time>2026-04-11T07:32:33.814Z</time></trkpt><trkpt lat="41.8165717" lon="12.9325683"><ele>387.0</ele><time>2026-04-11T07:32:34.813Z</time></trkpt><trkpt lat="41.8165967" lon="12.9326667"><ele>387.0</ele><time>2026-04-11T07:32:35.81Z</time></trkpt><trkpt lat="41.81662" lon="12.932755"><ele>387.0</ele><time>2026-04-11T07:32:36.811Z</time></trkpt><trkpt lat="41.8166583" lon="12.932885"><ele>387.0</ele><time>2026-04-11T07:32:38.81Z</time></trkpt><trkpt lat="41.81669" lon="12.93296"><ele>387.0</ele><time>2026-04-11T07:32:41.81Z</time></trkpt><trkpt lat="41.8167333" lon="12.9330667"><ele>387.0</ele><time>2026-04-11T07:32:44.813Z</time></trkpt><trkpt lat="41.8167733" lon="12.933145"><ele>387.0</ele><time>2026-04-11T07:32:46.813Z</time></trkpt><trkpt lat="41.8168367" lon="12.9332083"><ele>387.0</ele><time>2026-04-11T07:32:48.813Z</time></trkpt><trkpt lat="41.81692" lon="12.9332733"><ele>387.0</ele><time>2026-04-11T07:32:51.81Z</time></trkpt><trkpt lat="41.816995" lon="12.933315"><ele>387.0</ele><time>2026-04-11T07:32:53.812Z</time></trkpt><trkpt lat="41.8170617" lon="12.9333633"><ele>387.0</ele><time>2026-04-11T07:32:58.809Z</time></trkpt><trkpt lat="41.81712" lon="12.9334067"><ele>387.0</ele><time>2026-04-11T07:33:00.813Z</time></trkpt><trkpt lat="41.8172" lon="12.9334517"><ele>387.0</ele><time>2026-04-11T07:33:02.815Z</time></trkpt><trkpt lat="41.8172833" lon="12.9334983"><ele>387.0</ele><time>2026-04-11T07:33:04.813Z</time></trkpt><trkpt lat="41.81737" lon="12.9335533"><ele>387.0</ele><time>2026-04-11T07:33:06.813Z</time></trkpt><trkpt lat="41.8174567" lon="12.9335967"><ele>387.20000000000005</ele><time>2026-04-11T07:33:08.81Z</time></trkpt><trkpt lat="41.817565" lon="12.93363"><ele>387.4</ele><time>2026-04-11T07:33:10.81Z</time></trkpt><trkpt lat="41.81764" lon="12.9336483"><ele>387.6</ele><time>2026-04-11T07:33:11.813Z</time></trkpt><trkpt lat="41.8177217" lon="12.9336683"><ele>387.79999999999995</ele><time>2026-04-11T07:33:12.81Z</time></trkpt><trkpt lat="41.8178083" lon="12.9336883"><ele>388.0</ele><time>2026-04-11T07:33:13.813Z</time></trkpt><trkpt lat="41.8179" lon="12.9337"><ele>388.00000000000006</ele><time>2026-04-11T07:33:14.813Z</time></trkpt><trkpt lat="41.8179883" lon="12.93371"><ele>388.0</ele><time>2026-04-11T07:33:15.81Z</time></trkpt><trkpt lat="41.818065" lon="12.9337217"><ele>388.0</ele><time>2026-04-11T07:33:16.813Z</time></trkpt><trkpt lat="41.81813" lon="12.93373"><ele>388.0</ele><time>2026-04-11T07:33:17.814Z</time></trkpt><trkpt lat="41.8182367" lon="12.9337433"><ele>388.00000000000006</ele><time>2026-04-11T07:33:19.809Z</time></trkpt><trkpt lat="41.81834" lon="12.9337467"><ele>388.0</ele><time>2026-04-11T07:33:21.812Z</time></trkpt><trkpt lat="41.8184517" lon="12.9337317"><ele>388.4</ele><time>2026-04-11T07:33:23.813Z</time></trkpt><trkpt lat="41.8185567" lon="12.9337183"><ele>388.79999999999995</ele><time>2026-04-11T07:33:25.814Z</time></trkpt><trkpt lat="41.8186733" lon="12.9337267"><ele>389.2</ele><time>2026-04-11T07:33:27.812Z</time></trkpt><trkpt lat="41.81877" lon="12.933725"><ele>389.6</ele><time>2026-04-11T07:33:29.809Z</time></trkpt><trkpt lat="41.81887" lon="12.933755"><ele>390.0</ele><time>2026-04-11T07:33:31.81Z</time></trkpt><trkpt lat="41.81896" lon="12.9338367"><ele>390.0</ele><time>2026-04-11T07:33:33.811Z</time></trkpt><trkpt lat="41.81906" lon="12.9339333"><ele>390.0</ele><time>2026-04-11T07:33:35.81Z</time></trkpt><trkpt lat="41.81911" lon="12.9339917"><ele>390.0</ele><time>2026-04-11T07:33:36.81Z</time></trkpt><trkpt lat="41.819155" lon="12.9340733"><ele>390.0</ele><time>2026-04-11T07:33:37.81Z</time></trkpt><trkpt lat="41.8191917" lon="12.9341783"><ele>390.0</ele><time>2026-04-11T07:33:38.813Z</time></trkpt><trkpt lat="41.8192133" lon="12.934305"><ele>390.0</ele><time>2026-04-11T07:33:39.815Z</time></trkpt><trkpt lat="41.8192233" lon="12.9344367"><ele>389.4</ele><time>2026-04-11T07:33:40.815Z</time></trkpt><trkpt lat="41.8192333" lon="12.9345683"><ele>388.8</ele><time>2026-04-11T07:33:41.81Z</time></trkpt><trkpt lat="41.8192483" lon="12.934695"><ele>388.20000000000005</ele><time>2026-04-11T07:33:42.81Z</time></trkpt><trkpt lat="41.819265" lon="12.9348217"><ele>387.6</ele><time>2026-04-11T07:33:43.811Z</time></trkpt><trkpt lat="41.8192817" lon="12.9349533"><ele>387.0</ele><time>2026-04-11T07:33:44.811Z</time></trkpt><trkpt lat="41.8193083" lon="12.935095"><ele>386.6</ele><time>2026-04-11T07:33:45.81Z</time></trkpt><trkpt lat="41.8193367" lon="12.9352433"><ele>386.20000000000005</ele><time>2026-04-11T07:33:46.811Z</time></trkpt><trkpt lat="41.8193633" lon="12.9353867"><ele>385.8</ele><time>2026-04-11T07:33:47.811Z</time></trkpt><trkpt lat="41.8193917" lon="12.9355267"><ele>385.4</ele><time>2026-04-11T07:33:48.815Z</time></trkpt><trkpt lat="41.819415" lon="12.9356667"><ele>385.0</ele><time>2026-04-11T07:33:49.81Z</time></trkpt><trkpt lat="41.8194433" lon="12.9358017"><ele>383.2</ele><time>2026-04-11T07:33:50.811Z</time></trkpt><trkpt lat="41.8194783" lon="12.935935"><ele>381.4</ele><time>2026-04-11T07:33:51.81Z</time></trkpt><trkpt lat="41.81953" lon="12.9360617"><ele>379.6</ele><time>2026-04-11T07:33:52.811Z</time></trkpt><trkpt lat="41.819595" lon="12.93618"><ele>377.8</ele><time>2026-04-11T07:33:53.81Z</time></trkpt><trkpt lat="41.8196667" lon="12.9362933"><ele>376.0</ele><time>2026-04-11T07:33:54.811Z</time></trkpt><trkpt lat="41.8197517" lon="12.9363817"><ele>376.0</ele><time>2026-04-11T07:33:55.812Z</time></trkpt><trkpt lat="41.8198433" lon="12.93645"><ele>376.0</ele><time>2026-04-11T07:33:56.812Z</time></trkpt><trkpt lat="41.819935" lon="12.9365067"><ele>376.0</ele><time>2026-04-11T07:33:57.813Z</time></trkpt><trkpt lat="41.8200267" lon="12.9365567"><ele>376.0</ele><time>2026-04-11T07:33:58.809Z</time></trkpt><trkpt lat="41.8201183" lon="12.93659"><ele>376.0</ele><time>2026-04-11T07:33:59.809Z</time></trkpt><trkpt lat="41.8202083" lon="12.936625"><ele>376.4</ele><time>2026-04-11T07:34:00.813Z</time></trkpt><trkpt lat="41.8203" lon="12.9366667"><ele>376.8</ele><time>2026-04-11T07:34:01.81Z</time></trkpt><trkpt lat="41.8203917" lon="12.9367333"><ele>377.2</ele><time>2026-04-11T07:34:02.81Z</time></trkpt><trkpt lat="41.8204817" lon="12.93682"><ele>377.59999999999997</ele><time>2026-04-11T07:34:03.812Z</time></trkpt><trkpt lat="41.820565" lon="12.936925"><ele>378.0</ele><time>2026-04-11T07:34:04.81Z</time></trkpt><trkpt lat="41.8206367" lon="12.9370433"><ele>376.2</ele><time>2026-04-11T07:34:05.813Z</time></trkpt><trkpt lat="41.8206967" lon="12.9371583"><ele>374.4</ele><time>2026-04-11T07:34:06.813Z</time></trkpt><trkpt lat="41.8207533" lon="12.9372817"><ele>372.59999999999997</ele><time>2026-04-11T07:34:07.812Z</time></trkpt><trkpt lat="41.820805" lon="12.937415"><ele>370.79999999999995</ele><time>2026-04-11T07:34:08.809Z</time></trkpt><trkpt lat="41.8208517" lon="12.9375533"><ele>369.0</ele><time>2026-04-11T07:34:09.812Z</time></trkpt><trkpt lat="41.8208817" lon="12.9376933"><ele>368.79999999999995</ele><time>2026-04-11T07:34:10.813Z</time></trkpt><trkpt lat="41.8209017" lon="12.9378367"><ele>368.59999999999997</ele><time>2026-04-11T07:34:11.814Z</time></trkpt><trkpt lat="41.8209167" lon="12.9379767"><ele>368.4</ele><time>2026-04-11T07:34:12.814Z</time></trkpt><trkpt lat="41.8209167" lon="12.9381217"><ele>368.2</ele><time>2026-04-11T07:34:13.813Z</time></trkpt><trkpt lat="41.820905" lon="12.9382717"><ele>368.0</ele><time>2026-04-11T07:34:14.813Z</time></trkpt><trkpt lat="41.8208967" lon="12.9384167"><ele>368.0</ele><time>2026-04-11T07:34:15.814Z</time></trkpt><trkpt lat="41.8208867" lon="12.93856"><ele>368.0</ele><time>2026-04-11T07:34:16.814Z</time></trkpt><trkpt lat="41.8208717" lon="12.9387017"><ele>368.0</ele><time>2026-04-11T07:34:17.811Z</time></trkpt><trkpt lat="41.8208533" lon="12.9388383"><ele>368.0</ele><time>2026-04-11T07:34:18.811Z</time></trkpt><trkpt lat="41.8208333" lon="12.9389733"><ele>368.0</ele><time>2026-04-11T07:34:19.811Z</time></trkpt><trkpt lat="41.820815" lon="12.9391117"><ele>368.2</ele><time>2026-04-11T07:34:20.811Z</time></trkpt><trkpt lat="41.820795" lon="12.939245"><ele>368.4</ele><time>2026-04-11T07:34:21.81Z</time></trkpt><trkpt lat="41.8207717" lon="12.9393767"><ele>368.59999999999997</ele><time>2026-04-11T07:34:22.81Z</time></trkpt><trkpt lat="41.8207367" lon="12.9395017"><ele>368.79999999999995</ele><time>2026-04-11T07:34:23.812Z</time></trkpt><trkpt lat="41.8206883" lon="12.9396167"><ele>369.0</ele><time>2026-04-11T07:34:24.817Z</time></trkpt><trkpt lat="41.820625" lon="12.939715"><ele>369.0</ele><time>2026-04-11T07:34:25.814Z</time></trkpt><trkpt lat="41.8205467" lon="12.9398017"><ele>369.0</ele><time>2026-04-11T07:34:26.814Z</time></trkpt><trkpt lat="41.8204617" lon="12.9398783"><ele>369.0</ele><time>2026-04-11T07:34:27.814Z</time></trkpt><trkpt lat="41.8203767" lon="12.9399583"><ele>369.0</ele><time>2026-04-11T07:34:28.811Z</time></trkpt><trkpt lat="41.8202967" lon="12.9400417"><ele>369.0</ele><time>2026-04-11T07:34:29.81Z</time></trkpt><trkpt lat="41.8202267" lon="12.9401367"><ele>368.79999999999995</ele><time>2026-04-11T07:34:30.81Z</time></trkpt><trkpt lat="41.82016" lon="12.9402383"><ele>368.59999999999997</ele><time>2026-04-11T07:34:31.811Z</time></trkpt><trkpt lat="41.8200983" lon="12.9403517"><ele>368.4</ele><time>2026-04-11T07:34:32.811Z</time></trkpt><trkpt lat="41.8200417" lon="12.9404717"><ele>368.2</ele><time>2026-04-11T07:34:33.81Z</time></trkpt><trkpt lat="41.8199817" lon="12.9406"><ele>368.0</ele><time>2026-04-11T07:34:34.815Z</time></trkpt><trkpt lat="41.8199167" lon="12.94073"><ele>368.0</ele><time>2026-04-11T07:34:35.811Z</time></trkpt><trkpt lat="41.8198567" lon="12.9408633"><ele>368.0</ele><time>2026-04-11T07:34:36.81Z</time></trkpt><trkpt lat="41.8197933" lon="12.9409967"><ele>368.0</ele><time>2026-04-11T07:34:37.81Z</time></trkpt><trkpt lat="41.8197333" lon="12.9411317"><ele>368.0</ele><time>2026-04-11T07:34:38.811Z</time></trkpt><trkpt lat="41.8196833" lon="12.9412667"><ele>369.79999999999995</ele><time>2026-04-11T07:34:39.814Z</time></trkpt><trkpt lat="41.8196417" lon="12.9414067"><ele>371.6</ele><time>2026-04-11T07:34:40.814Z</time></trkpt><trkpt lat="41.8196117" lon="12.94155"><ele>373.4</ele><time>2026-04-11T07:34:41.814Z</time></trkpt><trkpt lat="41.819585" lon="12.9416967"><ele>375.20000000000005</ele><time>2026-04-11T07:34:42.813Z</time></trkpt><trkpt lat="41.819555" lon="12.9418417"><ele>377.0</ele><time>2026-04-11T07:34:43.814Z</time></trkpt><trkpt lat="41.8195367" lon="12.9419917"><ele>377.6</ele><time>2026-04-11T07:34:44.814Z</time></trkpt><trkpt lat="41.819525" lon="12.9421417"><ele>378.20000000000005</ele><time>2026-04-11T07:34:45.814Z</time></trkpt><trkpt lat="41.8195183" lon="12.94229"><ele>378.8</ele><time>2026-04-11T07:34:46.814Z</time></trkpt><trkpt lat="41.81951" lon="12.9424367"><ele>379.4</ele><time>2026-04-11T07:34:47.81Z</time></trkpt><trkpt lat="41.8195" lon="12.9425833"><ele>380.0</ele><time>2026-04-11T07:34:48.811Z</time></trkpt><trkpt lat="41.8194883" lon="12.9427333"><ele>380.5</ele><time>2026-04-11T07:34:49.811Z</time></trkpt><trkpt lat="41.8194833" lon="12.94289"><ele>381.0</ele><time>2026-04-11T07:34:50.814Z</time></trkpt><trkpt lat="41.8194783" lon="12.9430583"><ele>381.5</ele><time>2026-04-11T07:34:51.811Z</time></trkpt><trkpt lat="41.8194667" lon="12.9432383"><ele>382.0</ele><time>2026-04-11T07:34:52.81Z</time></trkpt><trkpt lat="41.8194533" lon="12.943425"><ele>382.5</ele><time>2026-04-11T07:34:53.812Z</time></trkpt><trkpt lat="41.8194433" lon="12.9436233"><ele>383.0</ele><time>2026-04-11T07:34:54.813Z</time></trkpt><trkpt lat="41.8194333" lon="12.9438217"><ele>383.5</ele><time>2026-04-11T07:34:55.814Z</time></trkpt><trkpt lat="41.8194233" lon="12.9440167"><ele>384.0</ele><time>2026-04-11T07:34:56.814Z</time></trkpt><trkpt lat="41.81941" lon="12.944205"><ele>384.25</ele><time>2026-04-11T07:34:57.814Z</time></trkpt><trkpt lat="41.8194" lon="12.944385"><ele>384.5</ele><time>2026-04-11T07:34:58.815Z</time></trkpt><trkpt lat="41.8193917" lon="12.9445483"><ele>384.75</ele><time>2026-04-11T07:34:59.81Z</time></trkpt><trkpt lat="41.8193867" lon="12.9446917"><ele>385.0</ele><time>2026-04-11T07:35:00.813Z</time></trkpt><trkpt lat="41.8193783" lon="12.944835"><ele>385.0</ele><time>2026-04-11T07:35:01.814Z</time></trkpt><trkpt lat="41.8193733" lon="12.9449783"><ele>385.0</ele><time>2026-04-11T07:35:02.811Z</time></trkpt><trkpt lat="41.8193767" lon="12.9451333"><ele>385.0</ele><time>2026-04-11T07:35:03.813Z</time></trkpt><trkpt lat="41.8193867" lon="12.945315"><ele>385.0</ele><time>2026-04-11T07:35:04.814Z</time></trkpt><trkpt lat="41.8194083" lon="12.94554"><ele>385.0</ele><time>2026-04-11T07:35:05.813Z</time></trkpt><trkpt lat="41.81942" lon="12.9457867"><ele>385.0</ele><time>2026-04-11T07:35:06.814Z</time></trkpt><trkpt lat="41.8194233" lon="12.9460483"><ele>385.0</ele><time>2026-04-11T07:35:07.814Z</time></trkpt><trkpt lat="41.8194317" lon="12.9463317"><ele>385.0</ele><time>2026-04-11T07:35:08.813Z</time></trkpt><trkpt lat="41.8194383" lon="12.946625"><ele>385.0</ele><time>2026-04-11T07:35:09.814Z</time></trkpt><trkpt lat="41.8194517" lon="12.9469117"><ele>385.0</ele><time>2026-04-11T07:35:10.814Z</time></trkpt><trkpt lat="41.819465" lon="12.9472017"><ele>384.6666666666667</ele><time>2026-04-11T07:35:11.81Z</time></trkpt><trkpt lat="41.819475" lon="12.9474917"><ele>384.33333333333337</ele><time>2026-04-11T07:35:12.815Z</time></trkpt><trkpt lat="41.8194817" lon="12.9477833"><ele>384.0</ele><time>2026-04-11T07:35:13.814Z</time></trkpt><trkpt lat="41.8194917" lon="12.9480767"><ele>384.0</ele><time>2026-04-11T07:35:14.81Z</time></trkpt><trkpt lat="41.819505" lon="12.94837"><ele>384.0</ele><time>2026-04-11T07:35:15.813Z</time></trkpt><trkpt lat="41.81952" lon="12.9486617"><ele>384.0</ele><time>2026-04-11T07:35:16.814Z</time></trkpt><trkpt lat="41.8195333" lon="12.9489567"><ele>383.6666666666667</ele><time>2026-04-11T07:35:17.811Z</time></trkpt><trkpt lat="41.8195467" lon="12.94925"><ele>383.33333333333337</ele><time>2026-04-11T07:35:18.811Z</time></trkpt><trkpt lat="41.81956" lon="12.9495433"><ele>383.0</ele><time>2026-04-11T07:35:19.811Z</time></trkpt><trkpt lat="41.8195717" lon="12.94983"><ele>383.0</ele><time>2026-04-11T07:35:20.811Z</time></trkpt><trkpt lat="41.8195833" lon="12.9501067"><ele>383.0</ele><time>2026-04-11T07:35:21.809Z</time></trkpt><trkpt lat="41.8195933" lon="12.95037"><ele>383.0</ele><time>2026-04-11T07:35:22.811Z</time></trkpt><trkpt lat="41.8196033" lon="12.9506217"><ele>383.0</ele><time>2026-04-11T07:35:23.81Z</time></trkpt><trkpt lat="41.8196133" lon="12.95087"><ele>383.0</ele><time>2026-04-11T07:35:24.813Z</time></trkpt><trkpt lat="41.819625" lon="12.9511133"><ele>383.0</ele><time>2026-04-11T07:35:25.813Z</time></trkpt><trkpt lat="41.8196333" lon="12.9513533"><ele>383.0</ele><time>2026-04-11T07:35:26.814Z</time></trkpt><trkpt lat="41.8196467" lon="12.9515817"><ele>383.0</ele><time>2026-04-11T07:35:27.814Z</time></trkpt><trkpt lat="41.8196567" lon="12.9518017"><ele>383.0</ele><time>2026-04-11T07:35:28.811Z</time></trkpt><trkpt lat="41.8196667" lon="12.9520117"><ele>383.0</ele><time>2026-04-11T07:35:29.813Z</time></trkpt><trkpt lat="41.8196783" lon="12.95222"><ele>383.0</ele><time>2026-04-11T07:35:30.813Z</time></trkpt><trkpt lat="41.8196883" lon="12.95243"><ele>383.0</ele><time>2026-04-11T07:35:31.813Z</time></trkpt><trkpt lat="41.819695" lon="12.95264"><ele>382.33333333333337</ele><time>2026-04-11T07:35:32.813Z</time></trkpt><trkpt lat="41.819705" lon="12.95285"><ele>381.6666666666667</ele><time>2026-04-11T07:35:33.811Z</time></trkpt><trkpt lat="41.819715" lon="12.9530567"><ele>381.0</ele><time>2026-04-11T07:35:34.811Z</time></trkpt><trkpt lat="41.8197267" lon="12.9532633"><ele>380.3333333333333</ele><time>2026-04-11T07:35:35.811Z</time></trkpt><trkpt lat="41.819735" lon="12.9534733"><ele>379.66666666666663</ele><time>2026-04-11T07:35:36.814Z</time></trkpt><trkpt lat="41.8197433" lon="12.9536817"><ele>379.0</ele><time>2026-04-11T07:35:37.814Z</time></trkpt><trkpt lat="41.8197467" lon="12.9538917"><ele>379.0</ele><time>2026-04-11T07:35:38.814Z</time></trkpt><trkpt lat="41.8197533" lon="12.9541033"><ele>379.0</ele><time>2026-04-11T07:35:39.814Z</time></trkpt><trkpt lat="41.819765" lon="12.9543167"><ele>379.0</ele><time>2026-04-11T07:35:40.813Z</time></trkpt><trkpt lat="41.8197733" lon="12.9545183"><ele>378.5</ele><time>2026-04-11T07:35:41.814Z</time></trkpt><trkpt lat="41.8197833" lon="12.9547117"><ele>378.0</ele><time>2026-04-11T07:35:42.814Z</time></trkpt><trkpt lat="41.8197917" lon="12.9549067"><ele>377.5</ele><time>2026-04-11T07:35:43.814Z</time></trkpt><trkpt lat="41.8198017" lon="12.9551067"><ele>377.0</ele><time>2026-04-11T07:35:44.813Z</time></trkpt><trkpt lat="41.8198133" lon="12.9553167"><ele>376.6666666666667</ele><time>2026-04-11T07:35:45.814Z</time></trkpt><trkpt lat="41.8198233" lon="12.955525"><ele>376.3333333333333</ele><time>2026-04-11T07:35:46.814Z</time></trkpt><trkpt lat="41.8198317" lon="12.9557333"><ele>376.0</ele><time>2026-04-11T07:35:47.813Z</time></trkpt><trkpt lat="41.8198417" lon="12.95594"><ele>375.5</ele><time>2026-04-11T07:35:48.814Z</time></trkpt><trkpt lat="41.8198483" lon="12.95614"><ele>375.0</ele><time>2026-04-11T07:35:49.814Z</time></trkpt><trkpt lat="41.819855" lon="12.95634"><ele>374.5</ele><time>2026-04-11T07:35:50.814Z</time></trkpt><trkpt lat="41.8198633" lon="12.9565383"><ele>374.0</ele><time>2026-04-11T07:35:51.814Z</time></trkpt><trkpt lat="41.8198733" lon="12.9567367"><ele>373.75</ele><time>2026-04-11T07:35:52.814Z</time></trkpt><trkpt lat="41.8198833" lon="12.956935"><ele>373.5</ele><time>2026-04-11T07:35:53.814Z</time></trkpt><trkpt lat="41.8198967" lon="12.9571367"><ele>373.25</ele><time>2026-04-11T07:35:54.814Z</time></trkpt><trkpt lat="41.8199067" lon="12.9573367"><ele>373.0</ele><time>2026-04-11T07:35:55.813Z</time></trkpt><trkpt lat="41.8199283" lon="12.9575383"><ele>372.3333333333333</ele><time>2026-04-11T07:35:56.817Z</time></trkpt><trkpt lat="41.8199533" lon="12.9577367"><ele>371.6666666666667</ele><time>2026-04-11T07:35:57.815Z</time></trkpt><trkpt lat="41.819985" lon="12.9579333"><ele>371.0</ele><time>2026-04-11T07:35:58.814Z</time></trkpt><trkpt lat="41.8200333" lon="12.958125"><ele>371.0</ele><time>2026-04-11T07:35:59.813Z</time></trkpt><trkpt lat="41.820085" lon="12.9583183"><ele>371.0</ele><time>2026-04-11T07:36:00.813Z</time></trkpt><trkpt lat="41.820135" lon="12.9585033"><ele>371.0</ele><time>2026-04-11T07:36:01.814Z</time></trkpt><trkpt lat="41.82019" lon="12.95868"><ele>371.0</ele><time>2026-04-11T07:36:02.813Z</time></trkpt><trkpt lat="41.8202433" lon="12.9588567"><ele>371.0</ele><time>2026-04-11T07:36:03.814Z</time></trkpt><trkpt lat="41.820295" lon="12.9590383"><ele>371.0</ele><time>2026-04-11T07:36:04.813Z</time></trkpt><trkpt lat="41.8203483" lon="12.9592233"><ele>371.0</ele><time>2026-04-11T07:36:05.814Z</time></trkpt><trkpt lat="41.8204017" lon="12.9594067"><ele>371.0</ele><time>2026-04-11T07:36:06.814Z</time></trkpt><trkpt lat="41.8204467" lon="12.9595983"><ele>371.0</ele><time>2026-04-11T07:36:07.815Z</time></trkpt><trkpt lat="41.8204767" lon="12.9598017"><ele>371.0</ele><time>2026-04-11T07:36:08.814Z</time></trkpt><trkpt lat="41.8204967" lon="12.96002"><ele>371.0</ele><time>2026-04-11T07:36:09.813Z</time></trkpt><trkpt lat="41.8205067" lon="12.96024"><ele>369.6666666666667</ele><time>2026-04-11T07:36:10.813Z</time></trkpt><trkpt lat="41.8205017" lon="12.9604567"><ele>368.3333333333333</ele><time>2026-04-11T07:36:11.814Z</time></trkpt><trkpt lat="41.8204917" lon="12.96066"><ele>367.0</ele><time>2026-04-11T07:36:12.813Z</time></trkpt><trkpt lat="41.82049" lon="12.9608633"><ele>366.5</ele><time>2026-04-11T07:36:13.814Z</time></trkpt><trkpt lat="41.8204983" lon="12.9610617"><ele>366.0</ele><time>2026-04-11T07:36:14.81Z</time></trkpt><trkpt lat="41.820515" lon="12.9612583"><ele>365.5</ele><time>2026-04-11T07:36:15.814Z</time></trkpt><trkpt lat="41.8205317" lon="12.9614583"><ele>365.0</ele><time>2026-04-11T07:36:16.813Z</time></trkpt><trkpt lat="41.8205483" lon="12.9616617"><ele>364.0</ele><time>2026-04-11T07:36:17.813Z</time></trkpt><trkpt lat="41.8205617" lon="12.96185"><ele>363.0</ele><time>2026-04-11T07:36:18.814Z</time></trkpt><trkpt lat="41.8205783" lon="12.9620267"><ele>362.0</ele><time>2026-04-11T07:36:19.811Z</time></trkpt><trkpt lat="41.8205967" lon="12.9621917"><ele>361.0</ele><time>2026-04-11T07:36:20.812Z</time></trkpt><trkpt lat="41.820615" lon="12.96234"><ele>361.0</ele><time>2026-04-11T07:36:21.814Z</time></trkpt><trkpt lat="41.8206267" lon="12.9624617"><ele>361.0</ele><time>2026-04-11T07:36:22.814Z</time></trkpt><trkpt lat="41.82064" lon="12.9625633"><ele>361.0</ele><time>2026-04-11T07:36:23.81Z</time></trkpt><trkpt lat="41.8206517" lon="12.96266"><ele>361.0</ele><time>2026-04-11T07:36:24.81Z</time></trkpt><trkpt lat="41.8206633" lon="12.96277"><ele>361.0</ele><time>2026-04-11T07:36:25.814Z</time></trkpt><trkpt lat="41.820675" lon="12.9629017"><ele>361.0</ele><time>2026-04-11T07:36:26.814Z</time></trkpt><trkpt lat="41.8206833" lon="12.9630467"><ele>361.0</ele><time>2026-04-11T07:36:27.814Z</time></trkpt><trkpt lat="41.820685" lon="12.9632067"><ele>361.0</ele><time>2026-04-11T07:36:28.813Z</time></trkpt><trkpt lat="41.82068" lon="12.9634"><ele>361.0</ele><time>2026-04-11T07:36:29.814Z</time></trkpt><trkpt lat="41.82067" lon="12.96362"><ele>361.0</ele><time>2026-04-11T07:36:30.814Z</time></trkpt><trkpt lat="41.8206483" lon="12.9638517"><ele>361.0</ele><time>2026-04-11T07:36:31.814Z</time></trkpt><trkpt lat="41.82062" lon="12.9641067"><ele>361.0</ele><time>2026-04-11T07:36:32.813Z</time></trkpt><trkpt lat="41.8205883" lon="12.96438"><ele>361.0</ele><time>2026-04-11T07:36:33.813Z</time></trkpt><trkpt lat="41.820565" lon="12.9646583"><ele>360.3333333333333</ele><time>2026-04-11T07:36:34.813Z</time></trkpt><trkpt lat="41.8205483" lon="12.9649367"><ele>359.6666666666667</ele><time>2026-04-11T07:36:35.814Z</time></trkpt><trkpt lat="41.8205467" lon="12.9652083"><ele>359.0</ele><time>2026-04-11T07:36:36.814Z</time></trkpt><trkpt lat="41.8205533" lon="12.9654617"><ele>357.33333333333337</ele><time>2026-04-11T07:36:37.813Z</time></trkpt><trkpt lat="41.8205817" lon="12.9656983"><ele>355.6666666666667</ele><time>2026-04-11T07:36:38.815Z</time></trkpt><trkpt lat="41.820645" lon="12.9659267"><ele>354.0</ele><time>2026-04-11T07:36:39.814Z</time></trkpt><trkpt lat="41.8207467" lon="12.966155"><ele>355.5</ele><time>2026-04-11T07:36:40.814Z</time></trkpt><trkpt lat="41.8208817" lon="12.96638"><ele>357.0</ele><time>2026-04-11T07:36:41.814Z</time></trkpt><trkpt lat="41.8210333" lon="12.96662"><ele>350.5</ele><time>2026-04-11T07:36:42.813Z</time></trkpt><trkpt lat="41.8211967" lon="12.966865"><ele>344.0</ele><time>2026-04-11T07:36:43.814Z</time></trkpt><trkpt lat="41.82135" lon="12.9670917"><ele>344.0</ele><time>2026-04-11T07:36:44.814Z</time></trkpt><trkpt lat="41.8214817" lon="12.967295"><ele>344.0</ele><time>2026-04-11T07:36:45.814Z</time></trkpt><trkpt lat="41.8215917" lon="12.96748"><ele>344.0</ele><time>2026-04-11T07:36:46.814Z</time></trkpt><trkpt lat="41.8216833" lon="12.9676667"><ele>346.6666666666667</ele><time>2026-04-11T07:36:47.812Z</time></trkpt><trkpt lat="41.8217583" lon="12.967885"><ele>349.3333333333333</ele><time>2026-04-11T07:36:48.814Z</time></trkpt><trkpt lat="41.8218283" lon="12.9681317"><ele>352.0</ele><time>2026-04-11T07:36:49.815Z</time></trkpt><trkpt lat="41.8218967" lon="12.9683783"><ele>345.66666666666663</ele><time>2026-04-11T07:36:50.814Z</time></trkpt><trkpt lat="41.821965" lon="12.9686"><ele>339.3333333333333</ele><time>2026-04-11T07:36:51.814Z</time></trkpt><trkpt lat="41.8220317" lon="12.968795"><ele>333.0</ele><time>2026-04-11T07:36:52.814Z</time></trkpt><trkpt lat="41.8221133" lon="12.9689633"><ele>333.0</ele><time>2026-04-11T07:36:53.814Z</time></trkpt><trkpt lat="41.822215" lon="12.9691083"><ele>333.0</ele><time>2026-04-11T07:36:54.813Z</time></trkpt><trkpt lat="41.8223467" lon="12.9692283"><ele>333.0</ele><time>2026-04-11T07:36:55.811Z</time></trkpt><trkpt lat="41.822505" lon="12.9693183"><ele>325.6666666666667</ele><time>2026-04-11T07:36:56.812Z</time></trkpt><trkpt lat="41.82268" lon="12.9693817"><ele>318.33333333333337</ele><time>2026-04-11T07:36:57.814Z</time></trkpt><trkpt lat="41.8228583" lon="12.96941"><ele>311.0</ele><time>2026-04-11T07:36:58.814Z</time></trkpt><trkpt lat="41.8230317" lon="12.9694217"><ele>311.0</ele><time>2026-04-11T07:36:59.814Z</time></trkpt><trkpt lat="41.8232067" lon="12.9694083"><ele>311.0</ele><time>2026-04-11T07:37:00.814Z</time></trkpt><trkpt lat="41.8233717" lon="12.969375"><ele>311.0</ele><time>2026-04-11T07:37:01.811Z</time></trkpt><trkpt lat="41.8235317" lon="12.9693417"><ele>310.33333333333337</ele><time>2026-04-11T07:37:02.814Z</time></trkpt><trkpt lat="41.8236917" lon="12.9693133"><ele>309.6666666666667</ele><time>2026-04-11T07:37:03.814Z</time></trkpt><trkpt lat="41.8238567" lon="12.9693"><ele>309.0</ele><time>2026-04-11T07:37:04.814Z</time></trkpt><trkpt lat="41.8240333" lon="12.969305"><ele>309.0</ele><time>2026-04-11T07:37:05.814Z</time></trkpt><trkpt lat="41.824215" lon="12.9693217"><ele>309.0</ele><time>2026-04-11T07:37:06.812Z</time></trkpt><trkpt lat="41.8243917" lon="12.9693417"><ele>309.0</ele><time>2026-04-11T07:37:07.81Z</time></trkpt><trkpt lat="41.8245567" lon="12.9693583"><ele>309.4</ele><time>2026-04-11T07:37:08.813Z</time></trkpt><trkpt lat="41.8247" lon="12.969375"><ele>309.79999999999995</ele><time>2026-04-11T07:37:09.814Z</time></trkpt><trkpt lat="41.8248183" lon="12.9693917"><ele>310.20000000000005</ele><time>2026-04-11T07:37:10.814Z</time></trkpt><trkpt lat="41.8249133" lon="12.9694167"><ele>310.6</ele><time>2026-04-11T07:37:11.813Z</time></trkpt><trkpt lat="41.8249867" lon="12.96944"><ele>311.0</ele><time>2026-04-11T07:37:12.81Z</time></trkpt><trkpt lat="41.825045" lon="12.969475"><ele>311.0</ele><time>2026-04-11T07:37:13.812Z</time></trkpt><trkpt lat="41.8250517" lon="12.969595"><ele>311.0</ele><time>2026-04-11T07:37:15.813Z</time></trkpt><trkpt lat="41.8249617" lon="12.9696317"><ele>311.0</ele><time>2026-04-11T07:37:17.811Z</time></trkpt><trkpt lat="41.8248867" lon="12.9695933"><ele>311.0</ele><time>2026-04-11T07:37:19.811Z</time></trkpt><trkpt lat="41.8248083" lon="12.9695933"><ele>311.0</ele><time>2026-04-11T07:37:22.814Z</time></trkpt><trkpt lat="41.82472" lon="12.9696233"><ele>311.0</ele><time>2026-04-11T07:37:36.813Z</time></trkpt><trkpt lat="41.824655" lon="12.9696433"><ele>311.0</ele><time>2026-04-11T07:37:37.811Z</time></trkpt><trkpt lat="41.82456" lon="12.969665"><ele>311.0</ele><time>2026-04-11T07:37:38.813Z</time></trkpt><trkpt lat="41.824465" lon="12.96969"><ele>311.0</ele><time>2026-04-11T07:37:39.814Z</time></trkpt><trkpt lat="41.8243583" lon="12.9697133"><ele>311.0</ele><time>2026-04-11T07:37:40.813Z</time></trkpt><trkpt lat="41.8242433" lon="12.9697483"><ele>311.0</ele><time>2026-04-11T07:37:41.813Z</time></trkpt><trkpt lat="41.8241183" lon="12.9697983"><ele>310.33333333333337</ele><time>2026-04-11T07:37:42.814Z</time></trkpt><trkpt lat="41.8239783" lon="12.969855"><ele>309.6666666666667</ele><time>2026-04-11T07:37:43.813Z</time></trkpt><trkpt lat="41.8238333" lon="12.96993"><ele>309.0</ele><time>2026-04-11T07:37:44.811Z</time></trkpt><trkpt lat="41.82369" lon="12.970015"><ele>308.0</ele><time>2026-04-11T07:37:45.814Z</time></trkpt><trkpt lat="41.823545" lon="12.9701"><ele>307.0</ele><time>2026-04-11T07:37:46.814Z</time></trkpt><trkpt lat="41.8234" lon="12.9701883"><ele>306.0</ele><time>2026-04-11T07:37:47.81Z</time></trkpt><trkpt lat="41.823245" lon="12.9702833"><ele>305.6666666666667</ele><time>2026-04-11T07:37:48.813Z</time></trkpt><trkpt lat="41.8230983" lon="12.970385"><ele>305.33333333333337</ele><time>2026-04-11T07:37:49.814Z</time></trkpt><trkpt lat="41.82295" lon="12.9704833"><ele>305.0</ele><time>2026-04-11T07:37:50.814Z</time></trkpt><trkpt lat="41.8228" lon="12.9705717"><ele>305.0</ele><time>2026-04-11T07:37:51.814Z</time></trkpt><trkpt lat="41.8226583" lon="12.970665"><ele>305.0</ele><time>2026-04-11T07:37:52.81Z</time></trkpt><trkpt lat="41.822515" lon="12.9707633"><ele>305.0</ele><time>2026-04-11T07:37:53.814Z</time></trkpt><trkpt lat="41.8223667" lon="12.9708633"><ele>303.6666666666667</ele><time>2026-04-11T07:37:54.814Z</time></trkpt><trkpt lat="41.8222167" lon="12.9709567"><ele>302.3333333333333</ele><time>2026-04-11T07:37:55.813Z</time></trkpt><trkpt lat="41.8220783" lon="12.9710567"><ele>301.0</ele><time>2026-04-11T07:37:56.814Z</time></trkpt><trkpt lat="41.8219383" lon="12.9711483"><ele>301.3333333333333</ele><time>2026-04-11T07:37:57.815Z</time></trkpt><trkpt lat="41.8217967" lon="12.9712367"><ele>301.6666666666667</ele><time>2026-04-11T07:37:58.813Z</time></trkpt><trkpt lat="41.8216617" lon="12.971335"><ele>302.0</ele><time>2026-04-11T07:37:59.814Z</time></trkpt><trkpt lat="41.82152" lon="12.9714333"><ele>302.0</ele><time>2026-04-11T07:38:00.81Z</time></trkpt><trkpt lat="41.82138" lon="12.971535"><ele>302.0</ele><time>2026-04-11T07:38:01.814Z</time></trkpt><trkpt lat="41.8212283" lon="12.9716333"><ele>302.0</ele><time>2026-04-11T07:38:02.81Z</time></trkpt><trkpt lat="41.82108" lon="12.9717383"><ele>301.0</ele><time>2026-04-11T07:38:03.809Z</time></trkpt><trkpt lat="41.82093" lon="12.97185"><ele>300.0</ele><time>2026-04-11T07:38:04.814Z</time></trkpt><trkpt lat="41.8207767" lon="12.97196"><ele>299.0</ele><time>2026-04-11T07:38:05.813Z</time></trkpt><trkpt lat="41.820625" lon="12.9720717"><ele>299.0</ele><time>2026-04-11T07:38:06.811Z</time></trkpt><trkpt lat="41.8204767" lon="12.9721833"><ele>299.0</ele><time>2026-04-11T07:38:07.813Z</time></trkpt><trkpt lat="41.8203267" lon="12.9722883"><ele>299.0</ele><time>2026-04-11T07:38:08.814Z</time></trkpt><trkpt lat="41.8201833" lon="12.9723917"><ele>299.0</ele><time>2026-04-11T07:38:09.813Z</time></trkpt><trkpt lat="41.82003" lon="12.9725"><ele>299.0</ele><time>2026-04-11T07:38:10.81Z</time></trkpt><trkpt lat="41.8198783" lon="12.972615"><ele>299.0</ele><time>2026-04-11T07:38:11.819Z</time></trkpt><trkpt lat="41.8197233" lon="12.9727267"><ele>299.0</ele><time>2026-04-11T07:38:12.81Z</time></trkpt><trkpt lat="41.819575" lon="12.9728467"><ele>299.0</ele><time>2026-04-11T07:38:13.814Z</time></trkpt><trkpt lat="41.8194183" lon="12.97296"><ele>299.0</ele><time>2026-04-11T07:38:14.814Z</time></trkpt><trkpt lat="41.8192567" lon="12.9730683"><ele>299.0</ele><time>2026-04-11T07:38:15.814Z</time></trkpt><trkpt lat="41.8191" lon="12.9731817"><ele>299.0</ele><time>2026-04-11T07:38:16.813Z</time></trkpt><trkpt lat="41.818945" lon="12.9732983"><ele>299.0</ele><time>2026-04-11T07:38:17.813Z</time></trkpt><trkpt lat="41.8187967" lon="12.9734183"><ele>298.0</ele><time>2026-04-11T07:38:18.813Z</time></trkpt><trkpt lat="41.818655" lon="12.9735283"><ele>297.0</ele><time>2026-04-11T07:38:19.814Z</time></trkpt><trkpt lat="41.818525" lon="12.973645"><ele>296.0</ele><time>2026-04-11T07:38:20.813Z</time></trkpt><trkpt lat="41.8184183" lon="12.973785"><ele>296.0</ele><time>2026-04-11T07:38:21.814Z</time></trkpt><trkpt lat="41.81833" lon="12.973955"><ele>296.0</ele><time>2026-04-11T07:38:22.812Z</time></trkpt><trkpt lat="41.81826" lon="12.9741617"><ele>296.0</ele><time>2026-04-11T07:38:23.814Z</time></trkpt><trkpt lat="41.818215" lon="12.97439"><ele>296.0</ele><time>2026-04-11T07:38:24.813Z</time></trkpt><trkpt lat="41.81818" lon="12.9746333"><ele>296.0</ele><time>2026-04-11T07:38:25.814Z</time></trkpt><trkpt lat="41.8181567" lon="12.9748783"><ele>296.0</ele><time>2026-04-11T07:38:26.81Z</time></trkpt><trkpt lat="41.8181417" lon="12.975135"><ele>295.33333333333337</ele><time>2026-04-11T07:38:27.815Z</time></trkpt><trkpt lat="41.8181367" lon="12.9754083"><ele>294.6666666666667</ele><time>2026-04-11T07:38:28.814Z</time></trkpt><trkpt lat="41.8181333" lon="12.9756933"><ele>294.0</ele><time>2026-04-11T07:38:29.813Z</time></trkpt><trkpt lat="41.8181283" lon="12.9759883"><ele>294.0</ele><time>2026-04-11T07:38:30.813Z</time></trkpt><trkpt lat="41.818125" lon="12.976295"><ele>294.0</ele><time>2026-04-11T07:38:31.813Z</time></trkpt><trkpt lat="41.81812" lon="12.97661"><ele>293.5</ele><time>2026-04-11T07:38:32.814Z</time></trkpt><trkpt lat="41.8181183" lon="12.9769233"><ele>293.0</ele><time>2026-04-11T07:38:33.813Z</time></trkpt><trkpt lat="41.818115" lon="12.977235"><ele>292.0</ele><time>2026-04-11T07:38:34.814Z</time></trkpt><trkpt lat="41.818115" lon="12.9775383"><ele>291.0</ele><time>2026-04-11T07:38:35.813Z</time></trkpt><trkpt lat="41.818115" lon="12.97784"><ele>291.0</ele><time>2026-04-11T07:38:36.814Z</time></trkpt><trkpt lat="41.8181183" lon="12.9781483"><ele>291.0</ele><time>2026-04-11T07:38:37.814Z</time></trkpt><trkpt lat="41.818125" lon="12.97846"><ele>290.0</ele><time>2026-04-11T07:38:38.814Z</time></trkpt><trkpt lat="41.8181267" lon="12.9787683"><ele>289.0</ele><time>2026-04-11T07:38:39.813Z</time></trkpt><trkpt lat="41.8181317" lon="12.9790717"><ele>289.0</ele><time>2026-04-11T07:38:40.813Z</time></trkpt><trkpt lat="41.8181383" lon="12.9793733"><ele>289.0</ele><time>2026-04-11T07:38:41.814Z</time></trkpt><trkpt lat="41.81815" lon="12.979685"><ele>289.0</ele><time>2026-04-11T07:38:42.813Z</time></trkpt><trkpt lat="41.8181783" lon="12.98001"><ele>289.0</ele><time>2026-04-11T07:38:43.814Z</time></trkpt><trkpt lat="41.818205" lon="12.980345"><ele>288.0</ele><time>2026-04-11T07:38:44.813Z</time></trkpt><trkpt lat="41.8182333" lon="12.9807017"><ele>287.0</ele><time>2026-04-11T07:38:45.812Z</time></trkpt><trkpt lat="41.8182667" lon="12.9810733"><ele>285.0</ele><time>2026-04-11T07:38:46.814Z</time></trkpt><trkpt lat="41.8183" lon="12.98144"><ele>283.0</ele><time>2026-04-11T07:38:47.814Z</time></trkpt><trkpt lat="41.8183317" lon="12.9817967"><ele>283.0</ele><time>2026-04-11T07:38:48.813Z</time></trkpt><trkpt lat="41.818365" lon="12.9821467"><ele>283.0</ele><time>2026-04-11T07:38:49.814Z</time></trkpt><trkpt lat="41.8183983" lon="12.982505"><ele>282.5</ele><time>2026-04-11T07:38:50.814Z</time></trkpt><trkpt lat="41.818435" lon="12.9828683"><ele>282.0</ele><time>2026-04-11T07:38:51.814Z</time></trkpt><trkpt lat="41.8184633" lon="12.98323"><ele>279.5</ele><time>2026-04-11T07:38:52.813Z</time></trkpt><trkpt lat="41.8184967" lon="12.9835683"><ele>277.0</ele><time>2026-04-11T07:38:53.813Z</time></trkpt><trkpt lat="41.8185317" lon="12.9838817"><ele>278.0</ele><time>2026-04-11T07:38:54.814Z</time></trkpt><trkpt lat="41.8185617" lon="12.9841817"><ele>279.0</ele><time>2026-04-11T07:38:55.813Z</time></trkpt><trkpt lat="41.8186183" lon="12.9844883"><ele>279.0</ele><time>2026-04-11T07:38:56.814Z</time></trkpt><trkpt lat="41.8187083" lon="12.9848033"><ele>279.0</ele><time>2026-04-11T07:38:57.813Z</time></trkpt><trkpt lat="41.8188067" lon="12.9851167"><ele>279.0</ele><time>2026-04-11T07:38:58.816Z</time></trkpt><trkpt lat="41.81889" lon="12.9854367"><ele>279.0</ele><time>2026-04-11T07:38:59.812Z</time></trkpt><trkpt lat="41.81896" lon="12.9857783"><ele>277.5</ele><time>2026-04-11T07:39:00.813Z</time></trkpt><trkpt lat="41.8190233" lon="12.9861267"><ele>276.0</ele><time>2026-04-11T07:39:01.813Z</time></trkpt><trkpt lat="41.8190783" lon="12.9864667"><ele>275.5</ele><time>2026-04-11T07:39:02.814Z</time></trkpt><trkpt lat="41.8191317" lon="12.9867933"><ele>275.0</ele><time>2026-04-11T07:39:03.813Z</time></trkpt><trkpt lat="41.8191867" lon="12.9871067"><ele>275.0</ele><time>2026-04-11T07:39:04.815Z</time></trkpt><trkpt lat="41.8192333" lon="12.9874083"><ele>275.0</ele><time>2026-04-11T07:39:05.814Z</time></trkpt><trkpt lat="41.8192833" lon="12.9877"><ele>273.33333333333337</ele><time>2026-04-11T07:39:06.813Z</time></trkpt><trkpt lat="41.8193267" lon="12.9879933"><ele>271.6666666666667</ele><time>2026-04-11T07:39:07.817Z</time></trkpt><trkpt lat="41.819365" lon="12.988285"><ele>270.0</ele><time>2026-04-11T07:39:08.814Z</time></trkpt><trkpt lat="41.8194067" lon="12.988585"><ele>270.0</ele><time>2026-04-11T07:39:09.814Z</time></trkpt><trkpt lat="41.8194483" lon="12.98887"><ele>270.0</ele><time>2026-04-11T07:39:10.813Z</time></trkpt><trkpt lat="41.81948" lon="12.9891483"><ele>270.0</ele><time>2026-04-11T07:39:11.812Z</time></trkpt><trkpt lat="41.8195067" lon="12.9894167"><ele>270.0</ele><time>2026-04-11T07:39:12.814Z</time></trkpt><trkpt lat="41.8195367" lon="12.9896783"><ele>270.0</ele><time>2026-04-11T07:39:13.814Z</time></trkpt><trkpt lat="41.8195567" lon="12.98993"><ele>270.0</ele><time>2026-04-11T07:39:14.813Z</time></trkpt><trkpt lat="41.8195717" lon="12.990185"><ele>269.6666666666667</ele><time>2026-04-11T07:39:15.814Z</time></trkpt><trkpt lat="41.8195817" lon="12.990445"><ele>269.33333333333337</ele><time>2026-04-11T07:39:16.813Z</time></trkpt><trkpt lat="41.8195867" lon="12.9907117"><ele>269.0</ele><time>2026-04-11T07:39:17.818Z</time></trkpt><trkpt lat="41.8195917" lon="12.9909867"><ele>268.6666666666667</ele><time>2026-04-11T07:39:18.811Z</time></trkpt><trkpt lat="41.819595" lon="12.9912667"><ele>268.3333333333333</ele><time>2026-04-11T07:39:19.81Z</time></trkpt><trkpt lat="41.8196017" lon="12.99154"><ele>268.0</ele><time>2026-04-11T07:39:20.81Z</time></trkpt><trkpt lat="41.81961" lon="12.9918117"><ele>267.0</ele><time>2026-04-11T07:39:21.81Z</time></trkpt><trkpt lat="41.81962" lon="12.9920867"><ele>266.0</ele><time>2026-04-11T07:39:22.811Z</time></trkpt><trkpt lat="41.819625" lon="12.992365"><ele>265.0</ele><time>2026-04-11T07:39:23.812Z</time></trkpt><trkpt lat="41.81963" lon="12.9926383"><ele>264.0</ele><time>2026-04-11T07:39:24.812Z</time></trkpt><trkpt lat="41.8196367" lon="12.992905"><ele>263.0</ele><time>2026-04-11T07:39:25.811Z</time></trkpt><trkpt lat="41.8196433" lon="12.9931717"><ele>262.0</ele><time>2026-04-11T07:39:26.813Z</time></trkpt><trkpt lat="41.81965" lon="12.9934367"><ele>261.3333333333333</ele><time>2026-04-11T07:39:27.812Z</time></trkpt><trkpt lat="41.819655" lon="12.9937"><ele>260.6666666666667</ele><time>2026-04-11T07:39:28.812Z</time></trkpt><trkpt lat="41.8196617" lon="12.9939567"><ele>260.0</ele><time>2026-04-11T07:39:29.812Z</time></trkpt><trkpt lat="41.81967" lon="12.9942067"><ele>258.6666666666667</ele><time>2026-04-11T07:39:30.81Z</time></trkpt><trkpt lat="41.8196783" lon="12.99446"><ele>257.3333333333333</ele><time>2026-04-11T07:39:31.811Z</time></trkpt><trkpt lat="41.8196817" lon="12.9947133"><ele>256.0</ele><time>2026-04-11T07:39:32.811Z</time></trkpt><trkpt lat="41.8196883" lon="12.9949617"><ele>255.66666666666666</ele><time>2026-04-11T07:39:33.811Z</time></trkpt><trkpt lat="41.8197" lon="12.9952117"><ele>255.33333333333331</ele><time>2026-04-11T07:39:34.812Z</time></trkpt><trkpt lat="41.819715" lon="12.99546"><ele>255.0</ele><time>2026-04-11T07:39:35.815Z</time></trkpt><trkpt lat="41.8197267" lon="12.995705"><ele>255.66666666666669</ele><time>2026-04-11T07:39:36.812Z</time></trkpt><trkpt lat="41.8197383" lon="12.9959533"><ele>256.33333333333337</ele><time>2026-04-11T07:39:37.812Z</time></trkpt><trkpt lat="41.819745" lon="12.9962"><ele>257.0</ele><time>2026-04-11T07:39:38.811Z</time></trkpt><trkpt lat="41.8197483" lon="12.9964333"><ele>257.0</ele><time>2026-04-11T07:39:39.811Z</time></trkpt><trkpt lat="41.819755" lon="12.9966567"><ele>257.0</ele><time>2026-04-11T07:39:40.812Z</time></trkpt><trkpt lat="41.8197633" lon="12.9968733"><ele>257.0</ele><time>2026-04-11T07:39:41.81Z</time></trkpt><trkpt lat="41.8197717" lon="12.997095"><ele>257.0</ele><time>2026-04-11T07:39:42.812Z</time></trkpt><trkpt lat="41.81978" lon="12.997315"><ele>257.0</ele><time>2026-04-11T07:39:43.811Z</time></trkpt><trkpt lat="41.8197883" lon="12.9975367"><ele>257.0</ele><time>2026-04-11T07:39:44.811Z</time></trkpt><trkpt lat="41.8197967" lon="12.99776"><ele>257.0</ele><time>2026-04-11T07:39:45.814Z</time></trkpt><trkpt lat="41.8198067" lon="12.9979817"><ele>257.0</ele><time>2026-04-11T07:39:46.813Z</time></trkpt><trkpt lat="41.81982" lon="12.9981983"><ele>257.0</ele><time>2026-04-11T07:39:47.813Z</time></trkpt><trkpt lat="41.819845" lon="12.9984117"><ele>256.6666666666667</ele><time>2026-04-11T07:39:48.81Z</time></trkpt><trkpt lat="41.8198867" lon="12.99862"><ele>256.3333333333333</ele><time>2026-04-11T07:39:49.81Z</time></trkpt><trkpt lat="41.819945" lon="12.9988233"><ele>256.0</ele><time>2026-04-11T07:39:50.811Z</time></trkpt><trkpt lat="41.8200183" lon="12.9990167"><ele>255.33333333333331</ele><time>2026-04-11T07:39:51.809Z</time></trkpt><trkpt lat="41.8201067" lon="12.9992117"><ele>254.66666666666669</ele><time>2026-04-11T07:39:52.812Z</time></trkpt><trkpt lat="41.8202017" lon="12.999405"><ele>254.0</ele><time>2026-04-11T07:39:53.811Z</time></trkpt><trkpt lat="41.8203" lon="12.9995967"><ele>255.33333333333334</ele><time>2026-04-11T07:39:54.811Z</time></trkpt><trkpt lat="41.8203917" lon="12.9997783"><ele>256.6666666666667</ele><time>2026-04-11T07:39:55.809Z</time></trkpt><trkpt lat="41.8204783" lon="12.9999517"><ele>258.0</ele><time>2026-04-11T07:39:56.812Z</time></trkpt><trkpt lat="41.8205667" lon="13.000125"><ele>258.0</ele><time>2026-04-11T07:39:57.81Z</time></trkpt><trkpt lat="41.820655" lon="13.0003"><ele>258.0</ele><time>2026-04-11T07:39:58.81Z</time></trkpt><trkpt lat="41.82074" lon="13.0004817"><ele>258.0</ele><time>2026-04-11T07:39:59.814Z</time></trkpt><trkpt lat="41.820825" lon="13.0006683"><ele>257.6666666666667</ele><time>2026-04-11T07:40:00.814Z</time></trkpt><trkpt lat="41.8209067" lon="13.0008467"><ele>257.33333333333337</ele><time>2026-04-11T07:40:01.813Z</time></trkpt><trkpt lat="41.82099" lon="13.0010233"><ele>257.0</ele><time>2026-04-11T07:40:02.813Z</time></trkpt><trkpt lat="41.8210733" lon="13.001195"><ele>257.0</ele><time>2026-04-11T07:40:03.813Z</time></trkpt><trkpt lat="41.8211483" lon="13.0013583"><ele>257.0</ele><time>2026-04-11T07:40:04.813Z</time></trkpt><trkpt lat="41.82121" lon="13.0015"><ele>257.0</ele><time>2026-04-11T07:40:05.813Z</time></trkpt><trkpt lat="41.8212717" lon="13.0016233"><ele>257.0</ele><time>2026-04-11T07:40:06.813Z</time></trkpt><trkpt lat="41.8213267" lon="13.0017433"><ele>256.8</ele><time>2026-04-11T07:40:07.814Z</time></trkpt><trkpt lat="41.8213783" lon="13.0018583"><ele>256.6</ele><time>2026-04-11T07:40:08.814Z</time></trkpt><trkpt lat="41.8214333" lon="13.00198"><ele>256.40000000000003</ele><time>2026-04-11T07:40:09.814Z</time></trkpt><trkpt lat="41.8214867" lon="13.002105"><ele>256.2</ele><time>2026-04-11T07:40:10.814Z</time></trkpt><trkpt lat="41.8215433" lon="13.002235"><ele>256.0</ele><time>2026-04-11T07:40:11.813Z</time></trkpt><trkpt lat="41.8216" lon="13.0023633"><ele>256.0</ele><time>2026-04-11T07:40:12.814Z</time></trkpt><trkpt lat="41.8216567" lon="13.0024917"><ele>256.0</ele><time>2026-04-11T07:40:13.813Z</time></trkpt><trkpt lat="41.8217133" lon="13.0026167"><ele>256.0</ele><time>2026-04-11T07:40:14.813Z</time></trkpt><trkpt lat="41.82177" lon="13.002745"><ele>256.0</ele><time>2026-04-11T07:40:15.814Z</time></trkpt><trkpt lat="41.821825" lon="13.0028717"><ele>256.0</ele><time>2026-04-11T07:40:16.814Z</time></trkpt><trkpt lat="41.82188" lon="13.0030017"><ele>256.0</ele><time>2026-04-11T07:40:17.813Z</time></trkpt><trkpt lat="41.8219383" lon="13.0031367"><ele>256.0</ele><time>2026-04-11T07:40:18.809Z</time></trkpt><trkpt lat="41.8219967" lon="13.003275"><ele>256.0</ele><time>2026-04-11T07:40:19.809Z</time></trkpt><trkpt lat="41.8220517" lon="13.0034117"><ele>256.0</ele><time>2026-04-11T07:40:20.812Z</time></trkpt><trkpt lat="41.8221083" lon="13.0035483"><ele>256.0</ele><time>2026-04-11T07:40:21.81Z</time></trkpt><trkpt lat="41.8221633" lon="13.00369"><ele>256.0</ele><time>2026-04-11T07:40:22.81Z</time></trkpt><trkpt lat="41.8222117" lon="13.0038383"><ele>256.0</ele><time>2026-04-11T07:40:23.814Z</time></trkpt><trkpt lat="41.8222533" lon="13.0039917"><ele>256.0</ele><time>2026-04-11T07:40:24.81Z</time></trkpt><trkpt lat="41.8222867" lon="13.0041533"><ele>255.25</ele><time>2026-04-11T07:40:25.812Z</time></trkpt><trkpt lat="41.8223183" lon="13.0043133"><ele>254.5</ele><time>2026-04-11T07:40:26.811Z</time></trkpt><trkpt lat="41.8223483" lon="13.0044833"><ele>253.75</ele><time>2026-04-11T07:40:27.811Z</time></trkpt><trkpt lat="41.822375" lon="13.00466"><ele>253.0</ele><time>2026-04-11T07:40:28.81Z</time></trkpt><trkpt lat="41.8224017" lon="13.0048367"><ele>252.0</ele><time>2026-04-11T07:40:29.813Z</time></trkpt><trkpt lat="41.8224233" lon="13.0050117"><ele>251.0</ele><time>2026-04-11T07:40:30.813Z</time></trkpt><trkpt lat="41.82244" lon="13.0051783"><ele>250.0</ele><time>2026-04-11T07:40:31.814Z</time></trkpt><trkpt lat="41.8224583" lon="13.0053317"><ele>249.0</ele><time>2026-04-11T07:40:32.814Z</time></trkpt><trkpt lat="41.8224767" lon="13.0054817"><ele>249.0</ele><time>2026-04-11T07:40:33.814Z</time></trkpt><trkpt lat="41.822495" lon="13.0056317"><ele>249.0</ele><time>2026-04-11T07:40:34.812Z</time></trkpt><trkpt lat="41.8225117" lon="13.00578"><ele>249.0</ele><time>2026-04-11T07:40:35.812Z</time></trkpt><trkpt lat="41.8225317" lon="13.0059283"><ele>249.0</ele><time>2026-04-11T07:40:36.813Z</time></trkpt><trkpt lat="41.8225483" lon="13.0060817"><ele>248.5</ele><time>2026-04-11T07:40:37.813Z</time></trkpt><trkpt lat="41.8225683" lon="13.0062383"><ele>248.0</ele><time>2026-04-11T07:40:38.814Z</time></trkpt><trkpt lat="41.822585" lon="13.006395"><ele>247.5</ele><time>2026-04-11T07:40:39.813Z</time></trkpt><trkpt lat="41.8226" lon="13.0065533"><ele>247.0</ele><time>2026-04-11T07:40:40.814Z</time></trkpt><trkpt lat="41.8226133" lon="13.00671"><ele>246.5</ele><time>2026-04-11T07:40:41.814Z</time></trkpt><trkpt lat="41.8226233" lon="13.0068667"><ele>246.0</ele><time>2026-04-11T07:40:42.812Z</time></trkpt><trkpt lat="41.82263" lon="13.0070217"><ele>245.5</ele><time>2026-04-11T07:40:43.814Z</time></trkpt><trkpt lat="41.8226433" lon="13.0071767"><ele>245.0</ele><time>2026-04-11T07:40:44.812Z</time></trkpt><trkpt lat="41.8226483" lon="13.0073333"><ele>244.75</ele><time>2026-04-11T07:40:45.814Z</time></trkpt><trkpt lat="41.8226483" lon="13.0074967"><ele>244.5</ele><time>2026-04-11T07:40:46.814Z</time></trkpt><trkpt lat="41.8226533" lon="13.00767"><ele>244.25</ele><time>2026-04-11T07:40:47.811Z</time></trkpt><trkpt lat="41.8226583" lon="13.0078517"><ele>244.0</ele><time>2026-04-11T07:40:48.81Z</time></trkpt><trkpt lat="41.8226617" lon="13.0080317"><ele>244.0</ele><time>2026-04-11T07:40:49.813Z</time></trkpt><trkpt lat="41.822665" lon="13.008205"><ele>244.0</ele><time>2026-04-11T07:40:50.811Z</time></trkpt><trkpt lat="41.8226667" lon="13.0083717"><ele>244.0</ele><time>2026-04-11T07:40:51.81Z</time></trkpt><trkpt lat="41.82267" lon="13.008535"><ele>244.0</ele><time>2026-04-11T07:40:52.812Z</time></trkpt><trkpt lat="41.8226717" lon="13.00869"><ele>245.0</ele><time>2026-04-11T07:40:53.81Z</time></trkpt><trkpt lat="41.8226767" lon="13.0088433"><ele>246.0</ele><time>2026-04-11T07:40:54.81Z</time></trkpt><trkpt lat="41.8226817" lon="13.0089983"><ele>247.0</ele><time>2026-04-11T07:40:55.81Z</time></trkpt><trkpt lat="41.8226783" lon="13.0091517"><ele>248.0</ele><time>2026-04-11T07:40:56.811Z</time></trkpt><trkpt lat="41.8226617" lon="13.00931"><ele>247.5</ele><time>2026-04-11T07:40:57.809Z</time></trkpt><trkpt lat="41.8226467" lon="13.0094667"><ele>247.0</ele><time>2026-04-11T07:40:58.81Z</time></trkpt><trkpt lat="41.822625" lon="13.0096217"><ele>246.5</ele><time>2026-04-11T07:40:59.813Z</time></trkpt><trkpt lat="41.822595" lon="13.0097683"><ele>246.0</ele><time>2026-04-11T07:41:00.812Z</time></trkpt><trkpt lat="41.8225517" lon="13.0099083"><ele>247.5</ele><time>2026-04-11T07:41:01.814Z</time></trkpt><trkpt lat="41.8224883" lon="13.0100433"><ele>249.0</ele><time>2026-04-11T07:41:02.812Z</time></trkpt><trkpt lat="41.8224033" lon="13.0101733"><ele>250.5</ele><time>2026-04-11T07:41:03.813Z</time></trkpt><trkpt lat="41.8223033" lon="13.0103117"><ele>252.0</ele><time>2026-04-11T07:41:04.813Z</time></trkpt><trkpt lat="41.8221833" lon="13.010445"><ele>252.0</ele><time>2026-04-11T07:41:05.813Z</time></trkpt><trkpt lat="41.822055" lon="13.0105817"><ele>252.0</ele><time>2026-04-11T07:41:06.81Z</time></trkpt><trkpt lat="41.82192" lon="13.0107217"><ele>252.0</ele><time>2026-04-11T07:41:07.812Z</time></trkpt><trkpt lat="41.8217817" lon="13.010855"><ele>253.33333333333331</ele><time>2026-04-11T07:41:08.812Z</time></trkpt><trkpt lat="41.8216467" lon="13.01099"><ele>254.66666666666666</ele><time>2026-04-11T07:41:09.81Z</time></trkpt><trkpt lat="41.821515" lon="13.0111233"><ele>256.0</ele><time>2026-04-11T07:41:10.815Z</time></trkpt><trkpt lat="41.8213917" lon="13.0112667"><ele>256.0</ele><time>2026-04-11T07:41:11.811Z</time></trkpt><trkpt lat="41.821265" lon="13.0114083"><ele>256.0</ele><time>2026-04-11T07:41:12.81Z</time></trkpt><trkpt lat="41.8211433" lon="13.011545"><ele>256.0</ele><time>2026-04-11T07:41:13.81Z</time></trkpt><trkpt lat="41.82103" lon="13.01168"><ele>255.75</ele><time>2026-04-11T07:41:14.81Z</time></trkpt><trkpt lat="41.8209333" lon="13.0118167"><ele>255.5</ele><time>2026-04-11T07:41:15.813Z</time></trkpt><trkpt lat="41.820845" lon="13.0119567"><ele>255.25</ele><time>2026-04-11T07:41:16.813Z</time></trkpt><trkpt lat="41.8207783" lon="13.012105"><ele>255.0</ele><time>2026-04-11T07:41:17.809Z</time></trkpt><trkpt lat="41.8207283" lon="13.0122583"><ele>255.0</ele><time>2026-04-11T07:41:18.81Z</time></trkpt><trkpt lat="41.8207033" lon="13.0124133"><ele>255.0</ele><time>2026-04-11T07:41:19.811Z</time></trkpt><trkpt lat="41.820705" lon="13.012575"><ele>255.0</ele><time>2026-04-11T07:41:20.811Z</time></trkpt><trkpt lat="41.8207383" lon="13.0127483"><ele>255.0</ele><time>2026-04-11T07:41:21.809Z</time></trkpt><trkpt lat="41.8208017" lon="13.012905"><ele>256.5</ele><time>2026-04-11T07:41:22.811Z</time></trkpt><trkpt lat="41.82088" lon="13.01305"><ele>258.0</ele><time>2026-04-11T07:41:23.811Z</time></trkpt><trkpt lat="41.8209867" lon="13.0131867"><ele>259.5</ele><time>2026-04-11T07:41:24.814Z</time></trkpt><trkpt lat="41.82111" lon="13.0133"><ele>261.0</ele><time>2026-04-11T07:41:25.813Z</time></trkpt><trkpt lat="41.8212367" lon="13.0133983"><ele>262.75</ele><time>2026-04-11T07:41:26.812Z</time></trkpt><trkpt lat="41.8213667" lon="13.0134933"><ele>264.5</ele><time>2026-04-11T07:41:27.819Z</time></trkpt><trkpt lat="41.821485" lon="13.0135933"><ele>266.25</ele><time>2026-04-11T07:41:28.813Z</time></trkpt><trkpt lat="41.821595" lon="13.0136967"><ele>268.0</ele><time>2026-04-11T07:41:29.814Z</time></trkpt><trkpt lat="41.8216983" lon="13.01382"><ele>268.0</ele><time>2026-04-11T07:41:30.813Z</time></trkpt><trkpt lat="41.8217833" lon="13.0139817"><ele>268.0</ele><time>2026-04-11T07:41:31.813Z</time></trkpt><trkpt lat="41.821845" lon="13.0141667"><ele>268.0</ele><time>2026-04-11T07:41:32.814Z</time></trkpt><trkpt lat="41.8218733" lon="13.014375"><ele>269.0</ele><time>2026-04-11T07:41:33.813Z</time></trkpt><trkpt lat="41.8218583" lon="13.0145817"><ele>270.0</ele><time>2026-04-11T07:41:34.813Z</time></trkpt><trkpt lat="41.821805" lon="13.0147717"><ele>271.0</ele><time>2026-04-11T07:41:35.813Z</time></trkpt><trkpt lat="41.821705" lon="13.0149517"><ele>269.3333333333333</ele><time>2026-04-11T07:41:36.812Z</time></trkpt><trkpt lat="41.821595" lon="13.015125"><ele>267.6666666666667</ele><time>2026-04-11T07:41:37.815Z</time></trkpt><trkpt lat="41.8214817" lon="13.0152783"><ele>266.0</ele><time>2026-04-11T07:41:38.812Z</time></trkpt><trkpt lat="41.8213667" lon="13.0154183"><ele>266.0</ele><time>2026-04-11T07:41:39.812Z</time></trkpt><trkpt lat="41.8212517" lon="13.0155667"><ele>266.0</ele><time>2026-04-11T07:41:40.812Z</time></trkpt><trkpt lat="41.8211367" lon="13.0157283"><ele>266.0</ele><time>2026-04-11T07:41:41.814Z</time></trkpt><trkpt lat="41.8210283" lon="13.0158933"><ele>268.0</ele><time>2026-04-11T07:41:42.812Z</time></trkpt><trkpt lat="41.8209267" lon="13.0160667"><ele>270.0</ele><time>2026-04-11T07:41:43.814Z</time></trkpt><trkpt lat="41.82084" lon="13.0162533"><ele>272.0</ele><time>2026-04-11T07:41:44.814Z</time></trkpt><trkpt lat="41.8207617" lon="13.0164583"><ele>274.0</ele><time>2026-04-11T07:41:45.814Z</time></trkpt><trkpt lat="41.82069" lon="13.0166733"><ele>276.0</ele><time>2026-04-11T07:41:46.814Z</time></trkpt><trkpt lat="41.8206233" lon="13.0169"><ele>278.0</ele><time>2026-04-11T07:41:47.81Z</time></trkpt><trkpt lat="41.8205617" lon="13.0171417"><ele>278.0</ele><time>2026-04-11T07:41:48.81Z</time></trkpt><trkpt lat="41.8204983" lon="13.0174117"><ele>278.0</ele><time>2026-04-11T07:41:49.81Z</time></trkpt><trkpt lat="41.8204233" lon="13.0176917"><ele>278.0</ele><time>2026-04-11T07:41:50.812Z</time></trkpt><trkpt lat="41.8203467" lon="13.0179567"><ele>278.0</ele><time>2026-04-11T07:41:51.809Z</time></trkpt><trkpt lat="41.82027" lon="13.018205"><ele>278.0</ele><time>2026-04-11T07:41:52.81Z</time></trkpt><trkpt lat="41.8201933" lon="13.0184467"><ele>278.0</ele><time>2026-04-11T07:41:53.811Z</time></trkpt><trkpt lat="41.8201183" lon="13.0186883"><ele>275.6666666666667</ele><time>2026-04-11T07:41:54.814Z</time></trkpt><trkpt lat="41.8200317" lon="13.018945"><ele>273.3333333333333</ele><time>2026-04-11T07:41:55.812Z</time></trkpt><trkpt lat="41.8199417" lon="13.0192083"><ele>271.0</ele><time>2026-04-11T07:41:56.813Z</time></trkpt><trkpt lat="41.8198583" lon="13.0194617"><ele>270.3333333333333</ele><time>2026-04-11T07:41:57.812Z</time></trkpt><trkpt lat="41.8197883" lon="13.0196967"><ele>269.6666666666667</ele><time>2026-04-11T07:41:58.812Z</time></trkpt><trkpt lat="41.8197283" lon="13.0199167"><ele>269.0</ele><time>2026-04-11T07:41:59.812Z</time></trkpt><trkpt lat="41.81968" lon="13.02013"><ele>268.33333333333337</ele><time>2026-04-11T07:42:00.813Z</time></trkpt><trkpt lat="41.8196483" lon="13.0203433"><ele>267.6666666666667</ele><time>2026-04-11T07:42:01.817Z</time></trkpt><trkpt lat="41.8196367" lon="13.0205633"><ele>267.0</ele><time>2026-04-11T07:42:02.816Z</time></trkpt><trkpt lat="41.8196417" lon="13.020795"><ele>266.0</ele><time>2026-04-11T07:42:03.814Z</time></trkpt><trkpt lat="41.8196667" lon="13.021055"><ele>265.0</ele><time>2026-04-11T07:42:04.814Z</time></trkpt><trkpt lat="41.8196917" lon="13.0213433"><ele>264.0</ele><time>2026-04-11T07:42:05.813Z</time></trkpt><trkpt lat="41.8197233" lon="13.02165"><ele>263.0</ele><time>2026-04-11T07:42:06.813Z</time></trkpt><trkpt lat="41.81976" lon="13.0219833"><ele>262.0</ele><time>2026-04-11T07:42:07.813Z</time></trkpt><trkpt lat="41.819805" lon="13.0223317"><ele>261.5</ele><time>2026-04-11T07:42:08.813Z</time></trkpt><trkpt lat="41.8198533" lon="13.0226833"><ele>261.0</ele><time>2026-04-11T07:42:09.813Z</time></trkpt><trkpt lat="41.8199033" lon="13.0230433"><ele>260.0</ele><time>2026-04-11T07:42:10.813Z</time></trkpt><trkpt lat="41.8199433" lon="13.0234117"><ele>259.0</ele><time>2026-04-11T07:42:11.813Z</time></trkpt><trkpt lat="41.8199767" lon="13.023795"><ele>257.0</ele><time>2026-04-11T07:42:12.814Z</time></trkpt><trkpt lat="41.8200183" lon="13.02419"><ele>255.0</ele><time>2026-04-11T07:42:13.814Z</time></trkpt><trkpt lat="41.8200667" lon="13.0245783"><ele>255.0</ele><time>2026-04-11T07:42:14.813Z</time></trkpt><trkpt lat="41.8201167" lon="13.0249433"><ele>255.0</ele><time>2026-04-11T07:42:15.813Z</time></trkpt><trkpt lat="41.820165" lon="13.025305"><ele>253.5</ele><time>2026-04-11T07:42:16.812Z</time></trkpt><trkpt lat="41.820205" lon="13.025665"><ele>252.0</ele><time>2026-04-11T07:42:17.812Z</time></trkpt><trkpt lat="41.8202367" lon="13.0260333"><ele>251.5</ele><time>2026-04-11T07:42:18.814Z</time></trkpt><trkpt lat="41.82027" lon="13.026405"><ele>251.0</ele><time>2026-04-11T07:42:19.813Z</time></trkpt><trkpt lat="41.8203117" lon="13.02677"><ele>251.0</ele><time>2026-04-11T07:42:20.813Z</time></trkpt><trkpt lat="41.8203533" lon="13.0271183"><ele>251.0</ele><time>2026-04-11T07:42:21.814Z</time></trkpt><trkpt lat="41.820385" lon="13.02744"><ele>252.0</ele><time>2026-04-11T07:42:22.814Z</time></trkpt><trkpt lat="41.82041" lon="13.0277517"><ele>253.0</ele><time>2026-04-11T07:42:23.814Z</time></trkpt><trkpt lat="41.82044" lon="13.028055"><ele>255.33333333333331</ele><time>2026-04-11T07:42:24.81Z</time></trkpt><trkpt lat="41.8204717" lon="13.0283467"><ele>257.6666666666667</ele><time>2026-04-11T07:42:25.812Z</time></trkpt><trkpt lat="41.8205017" lon="13.0286367"><ele>260.0</ele><time>2026-04-11T07:42:26.813Z</time></trkpt><trkpt lat="41.8205267" lon="13.02892"><ele>261.0</ele><time>2026-04-11T07:42:27.814Z</time></trkpt><trkpt lat="41.82055" lon="13.0291917"><ele>262.0</ele><time>2026-04-11T07:42:28.812Z</time></trkpt><trkpt lat="41.8205733" lon="13.0294567"><ele>263.0</ele><time>2026-04-11T07:42:29.814Z</time></trkpt><trkpt lat="41.820595" lon="13.0297267"><ele>264.0</ele><time>2026-04-11T07:42:30.813Z</time></trkpt><trkpt lat="41.8206217" lon="13.0300167"><ele>265.0</ele><time>2026-04-11T07:42:31.814Z</time></trkpt><trkpt lat="41.8206517" lon="13.0303267"><ele>265.0</ele><time>2026-04-11T07:42:32.813Z</time></trkpt><trkpt lat="41.8206817" lon="13.0306617"><ele>265.0</ele><time>2026-04-11T07:42:33.813Z</time></trkpt><trkpt lat="41.8207033" lon="13.03101"><ele>265.0</ele><time>2026-04-11T07:42:34.814Z</time></trkpt><trkpt lat="41.8207283" lon="13.0313533"><ele>265.0</ele><time>2026-04-11T07:42:35.812Z</time></trkpt><trkpt lat="41.82075" lon="13.0316917"><ele>265.0</ele><time>2026-04-11T07:42:36.813Z</time></trkpt><trkpt lat="41.8207617" lon="13.03201"><ele>265.0</ele><time>2026-04-11T07:42:37.812Z</time></trkpt><trkpt lat="41.8207633" lon="13.0323117"><ele>265.5</ele><time>2026-04-11T07:42:38.813Z</time></trkpt><trkpt lat="41.8207417" lon="13.032615"><ele>266.0</ele><time>2026-04-11T07:42:39.813Z</time></trkpt><trkpt lat="41.8207083" lon="13.032935"><ele>266.0</ele><time>2026-04-11T07:42:40.813Z</time></trkpt><trkpt lat="41.820655" lon="13.0332633"><ele>266.0</ele><time>2026-04-11T07:42:41.813Z</time></trkpt><trkpt lat="41.820585" lon="13.0335983"><ele>266.5</ele><time>2026-04-11T07:42:42.813Z</time></trkpt><trkpt lat="41.8205117" lon="13.0339433"><ele>267.0</ele><time>2026-04-11T07:42:43.813Z</time></trkpt><trkpt lat="41.820435" lon="13.0342917"><ele>268.0</ele><time>2026-04-11T07:42:44.814Z</time></trkpt><trkpt lat="41.820365" lon="13.0346167"><ele>269.0</ele><time>2026-04-11T07:42:45.813Z</time></trkpt><trkpt lat="41.8203017" lon="13.0349167"><ele>269.33333333333337</ele><time>2026-04-11T07:42:46.813Z</time></trkpt><trkpt lat="41.8202417" lon="13.0352"><ele>269.6666666666667</ele><time>2026-04-11T07:42:47.812Z</time></trkpt><trkpt lat="41.82019" lon="13.0354817"><ele>270.0</ele><time>2026-04-11T07:42:48.812Z</time></trkpt><trkpt lat="41.8201567" lon="13.03577"><ele>270.0</ele><time>2026-04-11T07:42:49.812Z</time></trkpt><trkpt lat="41.8201483" lon="13.0360683"><ele>270.0</ele><time>2026-04-11T07:42:50.813Z</time></trkpt><trkpt lat="41.8201583" lon="13.036385"><ele>270.0</ele><time>2026-04-11T07:42:51.813Z</time></trkpt><trkpt lat="41.820175" lon="13.0367117"><ele>270.0</ele><time>2026-04-11T07:42:52.813Z</time></trkpt><trkpt lat="41.82019" lon="13.03704"><ele>270.0</ele><time>2026-04-11T07:42:53.813Z</time></trkpt><trkpt lat="41.8202083" lon="13.037355"><ele>270.0</ele><time>2026-04-11T07:42:54.813Z</time></trkpt><trkpt lat="41.8202283" lon="13.0376633"><ele>270.0</ele><time>2026-04-11T07:42:55.814Z</time></trkpt><trkpt lat="41.8202517" lon="13.0379767"><ele>270.0</ele><time>2026-04-11T07:42:56.812Z</time></trkpt><trkpt lat="41.8202717" lon="13.0383"><ele>271.5</ele><time>2026-04-11T07:42:57.814Z</time></trkpt><trkpt lat="41.820305" lon="13.0386267"><ele>273.0</ele><time>2026-04-11T07:42:58.814Z</time></trkpt><trkpt lat="41.8203317" lon="13.0389667"><ele>272.5</ele><time>2026-04-11T07:42:59.813Z</time></trkpt><trkpt lat="41.8203533" lon="13.0393167"><ele>272.0</ele><time>2026-04-11T07:43:00.816Z</time></trkpt><trkpt lat="41.8203733" lon="13.0396683"><ele>271.0</ele><time>2026-04-11T07:43:01.813Z</time></trkpt><trkpt lat="41.8203883" lon="13.04001"><ele>270.0</ele><time>2026-04-11T07:43:02.821Z</time></trkpt><trkpt lat="41.8204083" lon="13.0403317"><ele>270.0</ele><time>2026-04-11T07:43:03.813Z</time></trkpt><trkpt lat="41.8204283" lon="13.0406517"><ele>270.0</ele><time>2026-04-11T07:43:04.816Z</time></trkpt><trkpt lat="41.82045" lon="13.0409783"><ele>270.5</ele><time>2026-04-11T07:43:05.816Z</time></trkpt><trkpt lat="41.8204767" lon="13.041305"><ele>271.0</ele><time>2026-04-11T07:43:06.814Z</time></trkpt><trkpt lat="41.820515" lon="13.0416367"><ele>271.5</ele><time>2026-04-11T07:43:07.814Z</time></trkpt><trkpt lat="41.82056" lon="13.0419733"><ele>272.0</ele><time>2026-04-11T07:43:08.812Z</time></trkpt><trkpt lat="41.82061" lon="13.0423167"><ele>274.0</ele><time>2026-04-11T07:43:09.813Z</time></trkpt><trkpt lat="41.8206617" lon="13.042655"><ele>276.0</ele><time>2026-04-11T07:43:10.814Z</time></trkpt><trkpt lat="41.8207117" lon="13.0429733"><ele>276.0</ele><time>2026-04-11T07:43:11.813Z</time></trkpt><trkpt lat="41.8207517" lon="13.0432817"><ele>276.0</ele><time>2026-04-11T07:43:12.813Z</time></trkpt><trkpt lat="41.820795" lon="13.0435783"><ele>276.0</ele><time>2026-04-11T07:43:13.813Z</time></trkpt><trkpt lat="41.82084" lon="13.0438583"><ele>276.0</ele><time>2026-04-11T07:43:14.814Z</time></trkpt><trkpt lat="41.820895" lon="13.04413"><ele>276.0</ele><time>2026-04-11T07:43:15.812Z</time></trkpt><trkpt lat="41.8209667" lon="13.044405"><ele>276.0</ele><time>2026-04-11T07:43:16.813Z</time></trkpt><trkpt lat="41.82107" lon="13.044685"><ele>276.0</ele><time>2026-04-11T07:43:17.812Z</time></trkpt><trkpt lat="41.8211883" lon="13.0449733"><ele>276.0</ele><time>2026-04-11T07:43:18.813Z</time></trkpt><trkpt lat="41.8213067" lon="13.045255"><ele>276.0</ele><time>2026-04-11T07:43:19.812Z</time></trkpt><trkpt lat="41.8214183" lon="13.045525"><ele>276.0</ele><time>2026-04-11T07:43:20.813Z</time></trkpt><trkpt lat="41.8215283" lon="13.04579"><ele>276.0</ele><time>2026-04-11T07:43:21.813Z</time></trkpt><trkpt lat="41.821625" lon="13.046055"><ele>276.0</ele><time>2026-04-11T07:43:22.812Z</time></trkpt><trkpt lat="41.8217067" lon="13.04633"><ele>273.5</ele><time>2026-04-11T07:43:23.813Z</time></trkpt><trkpt lat="41.8217667" lon="13.0466383"><ele>271.0</ele><time>2026-04-11T07:43:24.813Z</time></trkpt><trkpt lat="41.8218083" lon="13.0469583"><ele>272.0</ele><time>2026-04-11T07:43:25.813Z</time></trkpt><trkpt lat="41.8218383" lon="13.0472733"><ele>273.0</ele><time>2026-04-11T07:43:26.813Z</time></trkpt><trkpt lat="41.8218717" lon="13.0475767"><ele>273.0</ele><time>2026-04-11T07:43:27.814Z</time></trkpt><trkpt lat="41.8219133" lon="13.047885"><ele>273.0</ele><time>2026-04-11T07:43:28.813Z</time></trkpt><trkpt lat="41.8219633" lon="13.0481967"><ele>273.5</ele><time>2026-04-11T07:43:29.814Z</time></trkpt><trkpt lat="41.822005" lon="13.04852"><ele>274.0</ele><time>2026-04-11T07:43:30.813Z</time></trkpt><trkpt lat="41.8220467" lon="13.048845"><ele>274.0</ele><time>2026-04-11T07:43:31.813Z</time></trkpt><trkpt lat="41.82209" lon="13.0491667"><ele>274.0</ele><time>2026-04-11T07:43:32.813Z</time></trkpt><trkpt lat="41.8221367" lon="13.0494883"><ele>274.0</ele><time>2026-04-11T07:43:33.813Z</time></trkpt><trkpt lat="41.8221867" lon="13.0498183"><ele>274.0</ele><time>2026-04-11T07:43:34.813Z</time></trkpt><trkpt lat="41.82223" lon="13.050155"><ele>272.5</ele><time>2026-04-11T07:43:35.814Z</time></trkpt><trkpt lat="41.8222767" lon="13.0504967"><ele>271.0</ele><time>2026-04-11T07:43:36.812Z</time></trkpt><trkpt lat="41.8223233" lon="13.050845"><ele>270.5</ele><time>2026-04-11T07:43:37.813Z</time></trkpt><trkpt lat="41.8223733" lon="13.0511967"><ele>270.0</ele><time>2026-04-11T07:43:38.813Z</time></trkpt><trkpt lat="41.82243" lon="13.0515433"><ele>270.0</ele><time>2026-04-11T07:43:39.813Z</time></trkpt><trkpt lat="41.8224917" lon="13.0518883"><ele>270.0</ele><time>2026-04-11T07:43:40.814Z</time></trkpt><trkpt lat="41.8225633" lon="13.05224"><ele>269.5</ele><time>2026-04-11T07:43:41.812Z</time></trkpt><trkpt lat="41.8226467" lon="13.05259"><ele>269.0</ele><time>2026-04-11T07:43:42.812Z</time></trkpt><trkpt lat="41.8227317" lon="13.0529267"><ele>269.0</ele><time>2026-04-11T07:43:43.813Z</time></trkpt><trkpt lat="41.8228083" lon="13.0532367"><ele>269.0</ele><time>2026-04-11T07:43:44.812Z</time></trkpt><trkpt lat="41.8228817" lon="13.0535233"><ele>268.6666666666667</ele><time>2026-04-11T07:43:45.813Z</time></trkpt><trkpt lat="41.8229483" lon="13.0537917"><ele>268.3333333333333</ele><time>2026-04-11T07:43:46.812Z</time></trkpt><trkpt lat="41.8230067" lon="13.0540483"><ele>268.0</ele><time>2026-04-11T07:43:47.813Z</time></trkpt><trkpt lat="41.8230467" lon="13.0543067"><ele>267.3333333333333</ele><time>2026-04-11T07:43:48.813Z</time></trkpt><trkpt lat="41.8230767" lon="13.0545767"><ele>266.6666666666667</ele><time>2026-04-11T07:43:49.814Z</time></trkpt><trkpt lat="41.823105" lon="13.0548617"><ele>266.0</ele><time>2026-04-11T07:43:50.813Z</time></trkpt><trkpt lat="41.8231217" lon="13.05516"><ele>266.0</ele><time>2026-04-11T07:43:51.812Z</time></trkpt><trkpt lat="41.8231333" lon="13.0554617"><ele>266.0</ele><time>2026-04-11T07:43:52.814Z</time></trkpt><trkpt lat="41.8231533" lon="13.0557567"><ele>266.0</ele><time>2026-04-11T07:43:53.813Z</time></trkpt><trkpt lat="41.8231717" lon="13.0560383"><ele>266.0</ele><time>2026-04-11T07:43:54.813Z</time></trkpt><trkpt lat="41.8232067" lon="13.0563017"><ele>266.0</ele><time>2026-04-11T07:43:55.813Z</time></trkpt><trkpt lat="41.8232617" lon="13.0565533"><ele>266.0</ele><time>2026-04-11T07:43:56.813Z</time></trkpt><trkpt lat="41.82335" lon="13.05679"><ele>266.0</ele><time>2026-04-11T07:43:57.814Z</time></trkpt><trkpt lat="41.823475" lon="13.0570183"><ele>266.0</ele><time>2026-04-11T07:43:58.813Z</time></trkpt><trkpt lat="41.823635" lon="13.05725"><ele>266.0</ele><time>2026-04-11T07:43:59.813Z</time></trkpt><trkpt lat="41.823805" lon="13.057505"><ele>268.0</ele><time>2026-04-11T07:44:00.813Z</time></trkpt><trkpt lat="41.82398" lon="13.0577667"><ele>270.0</ele><time>2026-04-11T07:44:01.812Z</time></trkpt><trkpt lat="41.824155" lon="13.0580233"><ele>270.0</ele><time>2026-04-11T07:44:02.813Z</time></trkpt><trkpt lat="41.824335" lon="13.0582817"><ele>270.0</ele><time>2026-04-11T07:44:03.814Z</time></trkpt><trkpt lat="41.8245133" lon="13.058535"><ele>270.0</ele><time>2026-04-11T07:44:04.813Z</time></trkpt><trkpt lat="41.8246833" lon="13.05878"><ele>270.0</ele><time>2026-04-11T07:44:05.814Z</time></trkpt><trkpt lat="41.8248483" lon="13.0590333"><ele>269.5</ele><time>2026-04-11T07:44:06.813Z</time></trkpt><trkpt lat="41.8250067" lon="13.0592983"><ele>269.0</ele><time>2026-04-11T07:44:07.813Z</time></trkpt><trkpt lat="41.8251567" lon="13.0595833"><ele>270.5</ele><time>2026-04-11T07:44:08.812Z</time></trkpt><trkpt lat="41.8252917" lon="13.0598933"><ele>272.0</ele><time>2026-04-11T07:44:09.812Z</time></trkpt><trkpt lat="41.8254217" lon="13.0602167"><ele>272.0</ele><time>2026-04-11T07:44:10.813Z</time></trkpt><trkpt lat="41.82556" lon="13.0605383"><ele>272.0</ele><time>2026-04-11T07:44:11.813Z</time></trkpt><trkpt lat="41.8257033" lon="13.0608667"><ele>272.0</ele><time>2026-04-11T07:44:12.813Z</time></trkpt><trkpt lat="41.8258417" lon="13.061195"><ele>272.0</ele><time>2026-04-11T07:44:13.814Z</time></trkpt><trkpt lat="41.82597" lon="13.0615133"><ele>274.5</ele><time>2026-04-11T07:44:14.812Z</time></trkpt><trkpt lat="41.8260933" lon="13.061815"><ele>277.0</ele><time>2026-04-11T07:44:15.812Z</time></trkpt><trkpt lat="41.8262133" lon="13.06211"><ele>277.0</ele><time>2026-04-11T07:44:16.813Z</time></trkpt><trkpt lat="41.82633" lon="13.0623983"><ele>277.0</ele><time>2026-04-11T07:44:17.813Z</time></trkpt><trkpt lat="41.82645" lon="13.062685"><ele>275.0</ele><time>2026-04-11T07:44:18.813Z</time></trkpt><trkpt lat="41.8265683" lon="13.0629683"><ele>273.0</ele><time>2026-04-11T07:44:19.814Z</time></trkpt><trkpt lat="41.826685" lon="13.06325"><ele>274.0</ele><time>2026-04-11T07:44:20.813Z</time></trkpt><trkpt lat="41.8267983" lon="13.0635367"><ele>275.0</ele><time>2026-04-11T07:44:21.814Z</time></trkpt><trkpt lat="41.8269217" lon="13.0638217"><ele>276.0</ele><time>2026-04-11T07:44:22.813Z</time></trkpt><trkpt lat="41.8270367" lon="13.064105"><ele>277.0</ele><time>2026-04-11T07:44:23.812Z</time></trkpt><trkpt lat="41.82715" lon="13.0643767"><ele>277.0</ele><time>2026-04-11T07:44:24.813Z</time></trkpt><trkpt lat="41.82726" lon="13.0646333"><ele>277.0</ele><time>2026-04-11T07:44:25.813Z</time></trkpt><trkpt lat="41.8273683" lon="13.0648783"><ele>277.0</ele><time>2026-04-11T07:44:26.812Z</time></trkpt><trkpt lat="41.8274817" lon="13.0651067"><ele>277.0</ele><time>2026-04-11T07:44:27.814Z</time></trkpt><trkpt lat="41.8276067" lon="13.0653133"><ele>277.0</ele><time>2026-04-11T07:44:28.813Z</time></trkpt><trkpt lat="41.8277483" lon="13.0654983"><ele>277.0</ele><time>2026-04-11T07:44:29.812Z</time></trkpt><trkpt lat="41.8278883" lon="13.0656817"><ele>278.0</ele><time>2026-04-11T07:44:30.812Z</time></trkpt><trkpt lat="41.828005" lon="13.06588"><ele>279.0</ele><time>2026-04-11T07:44:31.812Z</time></trkpt><trkpt lat="41.828095" lon="13.0661017"><ele>280.0</ele><time>2026-04-11T07:44:32.813Z</time></trkpt><trkpt lat="41.828155" lon="13.0663433"><ele>280.0</ele><time>2026-04-11T07:44:33.813Z</time></trkpt><trkpt lat="41.8282067" lon="13.0666033"><ele>280.0</ele><time>2026-04-11T07:44:34.814Z</time></trkpt><trkpt lat="41.8282667" lon="13.06687"><ele>280.0</ele><time>2026-04-11T07:44:35.812Z</time></trkpt><trkpt lat="41.8283667" lon="13.0671317"><ele>281.66666666666663</ele><time>2026-04-11T07:44:36.812Z</time></trkpt><trkpt lat="41.8284717" lon="13.0673933"><ele>283.3333333333333</ele><time>2026-04-11T07:44:37.813Z</time></trkpt><trkpt lat="41.8285917" lon="13.0676433"><ele>285.0</ele><time>2026-04-11T07:44:38.813Z</time></trkpt><trkpt lat="41.8287217" lon="13.0678817"><ele>288.3333333333333</ele><time>2026-04-11T07:44:39.813Z</time></trkpt><trkpt lat="41.8288733" lon="13.0680983"><ele>291.66666666666663</ele><time>2026-04-11T07:44:40.812Z</time></trkpt><trkpt lat="41.8290267" lon="13.0682933"><ele>295.0</ele><time>2026-04-11T07:44:41.812Z</time></trkpt><trkpt lat="41.8291633" lon="13.0684883"><ele>295.0</ele><time>2026-04-11T07:44:42.813Z</time></trkpt><trkpt lat="41.8292817" lon="13.0686867"><ele>295.0</ele><time>2026-04-11T07:44:43.813Z</time></trkpt><trkpt lat="41.8293867" lon="13.0688717"><ele>295.0</ele><time>2026-04-11T07:44:44.813Z</time></trkpt><trkpt lat="41.8294867" lon="13.06905"><ele>297.75</ele><time>2026-04-11T07:44:45.813Z</time></trkpt><trkpt lat="41.8295817" lon="13.069215"><ele>300.5</ele><time>2026-04-11T07:44:46.818Z</time></trkpt><trkpt lat="41.82967" lon="13.0693783"><ele>303.25</ele><time>2026-04-11T07:44:47.813Z</time></trkpt><trkpt lat="41.8297567" lon="13.0695283"><ele>306.0</ele><time>2026-04-11T07:44:48.812Z</time></trkpt><trkpt lat="41.829835" lon="13.0696767"><ele>306.0</ele><time>2026-04-11T07:44:49.814Z</time></trkpt><trkpt lat="41.8299067" lon="13.0698283"><ele>306.0</ele><time>2026-04-11T07:44:50.813Z</time></trkpt><trkpt lat="41.82997" lon="13.069975"><ele>306.0</ele><time>2026-04-11T07:44:51.81Z</time></trkpt><trkpt lat="41.830025" lon="13.0701283"><ele>306.0</ele><time>2026-04-11T07:44:52.813Z</time></trkpt><trkpt lat="41.83007" lon="13.0702817"><ele>305.5</ele><time>2026-04-11T07:44:53.814Z</time></trkpt><trkpt lat="41.8301117" lon="13.0704333"><ele>305.0</ele><time>2026-04-11T07:44:54.814Z</time></trkpt><trkpt lat="41.8301533" lon="13.0705833"><ele>304.5</ele><time>2026-04-11T07:44:55.813Z</time></trkpt><trkpt lat="41.8301933" lon="13.070735"><ele>304.0</ele><time>2026-04-11T07:44:56.81Z</time></trkpt><trkpt lat="41.8302383" lon="13.070885"><ele>308.5</ele><time>2026-04-11T07:44:57.813Z</time></trkpt><trkpt lat="41.8302767" lon="13.0710367"><ele>313.0</ele><time>2026-04-11T07:44:58.813Z</time></trkpt><trkpt lat="41.8303133" lon="13.0711883"><ele>317.5</ele><time>2026-04-11T07:44:59.814Z</time></trkpt><trkpt lat="41.8303517" lon="13.0713367"><ele>322.0</ele><time>2026-04-11T07:45:00.813Z</time></trkpt><trkpt lat="41.8303883" lon="13.0714833"><ele>322.0</ele><time>2026-04-11T07:45:01.814Z</time></trkpt><trkpt lat="41.83042" lon="13.0716283"><ele>322.0</ele><time>2026-04-11T07:45:02.813Z</time></trkpt><trkpt lat="41.830455" lon="13.07177"><ele>322.0</ele><time>2026-04-11T07:45:03.813Z</time></trkpt><trkpt lat="41.8304917" lon="13.0719083"><ele>322.0</ele><time>2026-04-11T07:45:04.813Z</time></trkpt><trkpt lat="41.83053" lon="13.072045"><ele>322.0</ele><time>2026-04-11T07:45:05.812Z</time></trkpt><trkpt lat="41.8305717" lon="13.0721767"><ele>322.0</ele><time>2026-04-11T07:45:06.813Z</time></trkpt><trkpt lat="41.8306067" lon="13.072305"><ele>322.0</ele><time>2026-04-11T07:45:07.814Z</time></trkpt><trkpt lat="41.8306383" lon="13.0724367"><ele>322.0</ele><time>2026-04-11T07:45:08.813Z</time></trkpt><trkpt lat="41.8306667" lon="13.0725617"><ele>322.0</ele><time>2026-04-11T07:45:09.812Z</time></trkpt><trkpt lat="41.830695" lon="13.072675"><ele>322.0</ele><time>2026-04-11T07:45:10.812Z</time></trkpt><trkpt lat="41.8307267" lon="13.0727867"><ele>322.0</ele><time>2026-04-11T07:45:11.812Z</time></trkpt><trkpt lat="41.830755" lon="13.0729"><ele>322.0</ele><time>2026-04-11T07:45:12.813Z</time></trkpt><trkpt lat="41.830785" lon="13.0730117"><ele>322.0</ele><time>2026-04-11T07:45:13.814Z</time></trkpt><trkpt lat="41.8308133" lon="13.073125"><ele>322.0</ele><time>2026-04-11T07:45:14.813Z</time></trkpt><trkpt lat="41.8308417" lon="13.0732367"><ele>322.0</ele><time>2026-04-11T07:45:15.813Z</time></trkpt><trkpt lat="41.83087" lon="13.073345"><ele>322.0</ele><time>2026-04-11T07:45:16.812Z</time></trkpt><trkpt lat="41.8308983" lon="13.0734533"><ele>322.0</ele><time>2026-04-11T07:45:17.813Z</time></trkpt><trkpt lat="41.83093" lon="13.0735583"><ele>322.0</ele><time>2026-04-11T07:45:18.812Z</time></trkpt><trkpt lat="41.83096" lon="13.0736617"><ele>322.0</ele><time>2026-04-11T07:45:19.812Z</time></trkpt><trkpt lat="41.8309883" lon="13.0737633"><ele>322.0</ele><time>2026-04-11T07:45:20.813Z</time></trkpt><trkpt lat="41.8310183" lon="13.0738683"><ele>322.0</ele><time>2026-04-11T07:45:21.812Z</time></trkpt><trkpt lat="41.8310467" lon="13.0739717"><ele>322.0</ele><time>2026-04-11T07:45:22.815Z</time></trkpt><trkpt lat="41.8310733" lon="13.074075"><ele>323.5</ele><time>2026-04-11T07:45:23.813Z</time></trkpt><trkpt lat="41.8311" lon="13.0741783"><ele>325.0</ele><time>2026-04-11T07:45:24.81Z</time></trkpt><trkpt lat="41.8311283" lon="13.0742867"><ele>326.5</ele><time>2026-04-11T07:45:25.813Z</time></trkpt><trkpt lat="41.831155" lon="13.074395"><ele>328.0</ele><time>2026-04-11T07:45:26.813Z</time></trkpt><trkpt lat="41.831185" lon="13.0745"><ele>329.5</ele><time>2026-04-11T07:45:27.813Z</time></trkpt><trkpt lat="41.83121" lon="13.0746067"><ele>331.0</ele><time>2026-04-11T07:45:28.813Z</time></trkpt><trkpt lat="41.8312333" lon="13.0747117"><ele>331.0</ele><time>2026-04-11T07:45:29.812Z</time></trkpt><trkpt lat="41.83126" lon="13.0748117"><ele>331.0</ele><time>2026-04-11T07:45:30.813Z</time></trkpt><trkpt lat="41.831285" lon="13.074915"><ele>331.0</ele><time>2026-04-11T07:45:31.814Z</time></trkpt><trkpt lat="41.83131" lon="13.0750167"><ele>331.0</ele><time>2026-04-11T07:45:32.812Z</time></trkpt><trkpt lat="41.831335" lon="13.07512"><ele>331.0</ele><time>2026-04-11T07:45:33.814Z</time></trkpt><trkpt lat="41.831355" lon="13.0752233"><ele>331.0</ele><time>2026-04-11T07:45:34.813Z</time></trkpt><trkpt lat="41.8313767" lon="13.0753267"><ele>331.3333333333333</ele><time>2026-04-11T07:45:35.813Z</time></trkpt><trkpt lat="41.8313983" lon="13.0754283"><ele>331.66666666666663</ele><time>2026-04-11T07:45:36.813Z</time></trkpt><trkpt lat="41.8314233" lon="13.0755383"><ele>332.0</ele><time>2026-04-11T07:45:37.812Z</time></trkpt><trkpt lat="41.8314533" lon="13.075645"><ele>332.3333333333333</ele><time>2026-04-11T07:45:38.812Z</time></trkpt><trkpt lat="41.831485" lon="13.0757533"><ele>332.6666666666667</ele><time>2026-04-11T07:45:39.813Z</time></trkpt><trkpt lat="41.83152" lon="13.0758617"><ele>333.0</ele><time>2026-04-11T07:45:40.81Z</time></trkpt><trkpt lat="41.8315567" lon="13.07597"><ele>333.3333333333333</ele><time>2026-04-11T07:45:41.813Z</time></trkpt><trkpt lat="41.8315933" lon="13.07608"><ele>333.6666666666667</ele><time>2026-04-11T07:45:42.812Z</time></trkpt><trkpt lat="41.831625" lon="13.07619"><ele>334.0</ele><time>2026-04-11T07:45:43.813Z</time></trkpt><trkpt lat="41.831645" lon="13.076295"><ele>334.33333333333337</ele><time>2026-04-11T07:45:44.813Z</time></trkpt><trkpt lat="41.83166" lon="13.0763883"><ele>334.6666666666667</ele><time>2026-04-11T07:45:45.812Z</time></trkpt><trkpt lat="41.83171" lon="13.0765283"><ele>335.0</ele><time>2026-04-11T07:45:47.813Z</time></trkpt><trkpt lat="41.8317617" lon="13.076635"><ele>338.0</ele><time>2026-04-11T07:45:49.811Z</time></trkpt><trkpt lat="41.8318317" lon="13.0767217"><ele>341.0</ele><time>2026-04-11T07:46:49.81Z</time></trkpt><trkpt lat="41.8319117" lon="13.076855"><ele>344.0</ele><time>2026-04-11T07:46:51.813Z</time></trkpt><trkpt lat="41.83198" lon="13.0769817"><ele>347.0</ele><time>2026-04-11T07:46:52.811Z</time></trkpt><trkpt lat="41.8320617" lon="13.0771567"><ele>347.0</ele><time>2026-04-11T07:46:53.811Z</time></trkpt><trkpt lat="41.832155" lon="13.0773667"><ele>347.0</ele><time>2026-04-11T07:46:54.814Z</time></trkpt><trkpt lat="41.8322383" lon="13.0775633"><ele>347.0</ele><time>2026-04-11T07:46:55.815Z</time></trkpt><trkpt lat="41.8323033" lon="13.0777717"><ele>347.25</ele><time>2026-04-11T07:46:56.813Z</time></trkpt><trkpt lat="41.8323433" lon="13.077965"><ele>347.5</ele><time>2026-04-11T07:46:57.814Z</time></trkpt><trkpt lat="41.8323633" lon="13.07816"><ele>347.75</ele><time>2026-04-11T07:46:58.814Z</time></trkpt><trkpt lat="41.83235" lon="13.0783633"><ele>348.0</ele><time>2026-04-11T07:46:59.814Z</time></trkpt><trkpt lat="41.8322933" lon="13.0785767"><ele>348.0</ele><time>2026-04-11T07:47:00.813Z</time></trkpt><trkpt lat="41.8322133" lon="13.0787967"><ele>348.0</ele><time>2026-04-11T07:47:01.814Z</time></trkpt><trkpt lat="41.8321267" lon="13.079005"><ele>348.0</ele><time>2026-04-11T07:47:02.814Z</time></trkpt><trkpt lat="41.8320617" lon="13.07919"><ele>349.5</ele><time>2026-04-11T07:47:03.813Z</time></trkpt><trkpt lat="41.8320217" lon="13.0793683"><ele>351.0</ele><time>2026-04-11T07:47:04.813Z</time></trkpt><trkpt lat="41.8319933" lon="13.0795433"><ele>352.5</ele><time>2026-04-11T07:47:05.814Z</time></trkpt><trkpt lat="41.831975" lon="13.0797233"><ele>354.0</ele><time>2026-04-11T07:47:06.814Z</time></trkpt><trkpt lat="41.8319667" lon="13.0799"><ele>354.5</ele><time>2026-04-11T07:47:07.813Z</time></trkpt><trkpt lat="41.8319633" lon="13.08008"><ele>355.0</ele><time>2026-04-11T07:47:08.814Z</time></trkpt><trkpt lat="41.8319633" lon="13.08026"><ele>355.5</ele><time>2026-04-11T07:47:09.814Z</time></trkpt><trkpt lat="41.8319733" lon="13.080435"><ele>356.0</ele><time>2026-04-11T07:47:10.814Z</time></trkpt><trkpt lat="41.8319933" lon="13.0806067"><ele>356.75</ele><time>2026-04-11T07:47:11.814Z</time></trkpt><trkpt lat="41.8320283" lon="13.0807767"><ele>357.5</ele><time>2026-04-11T07:47:12.813Z</time></trkpt><trkpt lat="41.83207" lon="13.0809433"><ele>358.25</ele><time>2026-04-11T07:47:13.814Z</time></trkpt><trkpt lat="41.8321233" lon="13.0811033"><ele>359.0</ele><time>2026-04-11T07:47:14.814Z</time></trkpt><trkpt lat="41.832195" lon="13.0812633"><ele>359.0</ele><time>2026-04-11T07:47:15.814Z</time></trkpt><trkpt lat="41.8322783" lon="13.08142"><ele>359.0</ele><time>2026-04-11T07:47:16.81Z</time></trkpt><trkpt lat="41.8323633" lon="13.0815717"><ele>359.0</ele><time>2026-04-11T07:47:17.81Z</time></trkpt><trkpt lat="41.8324433" lon="13.0817133"><ele>359.0</ele><time>2026-04-11T07:47:18.813Z</time></trkpt><trkpt lat="41.8325017" lon="13.08187"><ele>361.0</ele><time>2026-04-11T07:47:19.811Z</time></trkpt><trkpt lat="41.8325367" lon="13.0820417"><ele>363.0</ele><time>2026-04-11T07:47:20.811Z</time></trkpt><trkpt lat="41.83255" lon="13.0822217"><ele>365.0</ele><time>2026-04-11T07:47:21.81Z</time></trkpt><trkpt lat="41.8325533" lon="13.0823883"><ele>367.0</ele><time>2026-04-11T07:47:22.811Z</time></trkpt><trkpt lat="41.8325517" lon="13.0825467"><ele>368.25</ele><time>2026-04-11T07:47:23.811Z</time></trkpt><trkpt lat="41.8325533" lon="13.0827017"><ele>369.5</ele><time>2026-04-11T07:47:24.814Z</time></trkpt><trkpt lat="41.8325467" lon="13.0828583"><ele>370.75</ele><time>2026-04-11T07:47:25.814Z</time></trkpt><trkpt lat="41.8325317" lon="13.08302"><ele>372.0</ele><time>2026-04-11T07:47:26.82Z</time></trkpt><trkpt lat="41.8325017" lon="13.0831767"><ele>372.5</ele><time>2026-04-11T07:47:27.814Z</time></trkpt><trkpt lat="41.8324733" lon="13.08334"><ele>373.0</ele><time>2026-04-11T07:47:28.814Z</time></trkpt><trkpt lat="41.8324433" lon="13.0835033"><ele>373.5</ele><time>2026-04-11T07:47:29.814Z</time></trkpt><trkpt lat="41.8324167" lon="13.0836717"><ele>374.0</ele><time>2026-04-11T07:47:30.814Z</time></trkpt><trkpt lat="41.8324" lon="13.0838417"><ele>374.0</ele><time>2026-04-11T07:47:31.814Z</time></trkpt><trkpt lat="41.8323967" lon="13.0840133"><ele>374.0</ele><time>2026-04-11T07:47:32.815Z</time></trkpt><trkpt lat="41.8323933" lon="13.0841867"><ele>374.0</ele><time>2026-04-11T07:47:33.814Z</time></trkpt><trkpt lat="41.8323883" lon="13.0843567"><ele>374.0</ele><time>2026-04-11T07:47:34.814Z</time></trkpt><trkpt lat="41.8323867" lon="13.0845117"><ele>374.0</ele><time>2026-04-11T07:47:35.814Z</time></trkpt><trkpt lat="41.832385" lon="13.0846517"><ele>374.0</ele><time>2026-04-11T07:47:36.814Z</time></trkpt><trkpt lat="41.8323783" lon="13.0847833"><ele>374.0</ele><time>2026-04-11T07:47:37.814Z</time></trkpt><trkpt lat="41.8323683" lon="13.0849033"><ele>374.0</ele><time>2026-04-11T07:47:38.813Z</time></trkpt><trkpt lat="41.83236" lon="13.0850183"><ele>374.0</ele><time>2026-04-11T07:47:39.814Z</time></trkpt><trkpt lat="41.8323517" lon="13.08513"><ele>374.4</ele><time>2026-04-11T07:47:40.815Z</time></trkpt><trkpt lat="41.8323433" lon="13.08525"><ele>374.79999999999995</ele><time>2026-04-11T07:47:41.813Z</time></trkpt><trkpt lat="41.8323517" lon="13.085375"><ele>375.20000000000005</ele><time>2026-04-11T07:47:42.814Z</time></trkpt><trkpt lat="41.8323733" lon="13.0854967"><ele>375.6</ele><time>2026-04-11T07:47:43.812Z</time></trkpt><trkpt lat="41.8324083" lon="13.08561"><ele>376.0</ele><time>2026-04-11T07:47:44.814Z</time></trkpt><trkpt lat="41.832455" lon="13.085715"><ele>377.0</ele><time>2026-04-11T07:47:45.813Z</time></trkpt><trkpt lat="41.832515" lon="13.0858117"><ele>378.0</ele><time>2026-04-11T07:47:46.814Z</time></trkpt><trkpt lat="41.8325783" lon="13.0859"><ele>379.0</ele><time>2026-04-11T07:47:47.814Z</time></trkpt><trkpt lat="41.83265" lon="13.08597"><ele>380.0</ele><time>2026-04-11T07:47:48.814Z</time></trkpt><trkpt lat="41.8327367" lon="13.0860017"><ele>381.0</ele><time>2026-04-11T07:47:49.814Z</time></trkpt><trkpt lat="41.8328267" lon="13.085995"><ele>380.0</ele><time>2026-04-11T07:47:50.813Z</time></trkpt><trkpt lat="41.8329117" lon="13.08598"><ele>379.0</ele><time>2026-04-11T07:47:51.815Z</time></trkpt><trkpt lat="41.832975" lon="13.0859583"><ele>378.0</ele><time>2026-04-11T07:47:52.815Z</time></trkpt><trkpt lat="41.8330417" lon="13.08593"><ele>377.0</ele><time>2026-04-11T07:47:54.814Z</time></trkpt><trkpt lat="41.833105" lon="13.08588"><ele>376.0</ele><time>2026-04-11T07:47:57.814Z</time></trkpt><trkpt lat="41.833195" lon="13.0857883"><ele>375.0</ele><time>2026-04-11T07:48:18.814Z</time></trkpt><trkpt lat="41.8333217" lon="13.0857133"><ele>375.0</ele><time>2026-04-11T07:48:20.814Z</time></trkpt><trkpt lat="41.8333967" lon="13.0856683"><ele>375.0</ele><time>2026-04-11T07:48:21.813Z</time></trkpt><trkpt lat="41.8334683" lon="13.0856317"><ele>375.0</ele><time>2026-04-11T07:48:22.813Z</time></trkpt><trkpt lat="41.8335383" lon="13.0856067"><ele>375.0</ele><time>2026-04-11T07:48:23.814Z</time></trkpt><trkpt lat="41.8336117" lon="13.0855933"><ele>375.0</ele><time>2026-04-11T07:48:24.814Z</time></trkpt><trkpt lat="41.8336767" lon="13.0855917"><ele>375.0</ele><time>2026-04-11T07:48:25.814Z</time></trkpt><trkpt lat="41.8337433" lon="13.0855983"><ele>375.0</ele><time>2026-04-11T07:48:27.815Z</time></trkpt><trkpt lat="41.8338117" lon="13.08561"><ele>375.6</ele><time>2026-04-11T07:48:29.813Z</time></trkpt><trkpt lat="41.8339133" lon="13.0856567"><ele>376.2</ele><time>2026-04-11T07:48:31.813Z</time></trkpt><trkpt lat="41.8339683" lon="13.08571"><ele>376.79999999999995</ele><time>2026-04-11T07:48:32.811Z</time></trkpt><trkpt lat="41.8340283" lon="13.0857867"><ele>377.4</ele><time>2026-04-11T07:48:33.811Z</time></trkpt><trkpt lat="41.8341033" lon="13.08587"><ele>378.0</ele><time>2026-04-11T07:48:34.811Z</time></trkpt><trkpt lat="41.83419" lon="13.0859683"><ele>380.79999999999995</ele><time>2026-04-11T07:48:35.814Z</time></trkpt><trkpt lat="41.8342733" lon="13.0860617"><ele>383.6</ele><time>2026-04-11T07:48:36.814Z</time></trkpt><trkpt lat="41.834355" lon="13.08615"><ele>386.4</ele><time>2026-04-11T07:48:37.813Z</time></trkpt><trkpt lat="41.8344367" lon="13.086235"><ele>389.20000000000005</ele><time>2026-04-11T07:48:38.814Z</time></trkpt><trkpt lat="41.8345167" lon="13.0863183"><ele>392.0</ele><time>2026-04-11T07:48:39.814Z</time></trkpt><trkpt lat="41.8345933" lon="13.0864017"><ele>392.3333333333333</ele><time>2026-04-11T07:48:40.816Z</time></trkpt><trkpt lat="41.8346633" lon="13.0864817"><ele>392.66666666666663</ele><time>2026-04-11T07:48:41.814Z</time></trkpt><trkpt lat="41.8347283" lon="13.0865483"><ele>393.0</ele><time>2026-04-11T07:48:42.813Z</time></trkpt><trkpt lat="41.8347883" lon="13.0866083"><ele>393.33333333333337</ele><time>2026-04-11T07:48:43.818Z</time></trkpt><trkpt lat="41.8348517" lon="13.0866683"><ele>393.6666666666667</ele><time>2026-04-11T07:48:44.812Z</time></trkpt><trkpt lat="41.8349217" lon="13.0867367"><ele>394.0</ele><time>2026-04-11T07:48:45.811Z</time></trkpt><trkpt lat="41.8349933" lon="13.08681"><ele>395.4</ele><time>2026-04-11T07:48:46.811Z</time></trkpt><trkpt lat="41.8350717" lon="13.0868917"><ele>396.79999999999995</ele><time>2026-04-11T07:48:47.811Z</time></trkpt><trkpt lat="41.835155" lon="13.08698"><ele>398.20000000000005</ele><time>2026-04-11T07:48:48.811Z</time></trkpt><trkpt lat="41.83524" lon="13.0870783"><ele>399.6</ele><time>2026-04-11T07:48:49.811Z</time></trkpt><trkpt lat="41.8353117" lon="13.08719"><ele>401.0</ele><time>2026-04-11T07:48:50.81Z</time></trkpt><trkpt lat="41.8353683" lon="13.08732"><ele>402.75</ele><time>2026-04-11T07:48:51.811Z</time></trkpt><trkpt lat="41.8354017" lon="13.0874733"><ele>404.5</ele><time>2026-04-11T07:48:52.81Z</time></trkpt><trkpt lat="41.8354167" lon="13.0876417"><ele>406.25</ele><time>2026-04-11T07:48:53.813Z</time></trkpt><trkpt lat="41.8354167" lon="13.0878267"><ele>408.0</ele><time>2026-04-11T07:48:54.814Z</time></trkpt><trkpt lat="41.8354133" lon="13.0880133"><ele>408.0</ele><time>2026-04-11T07:48:55.814Z</time></trkpt><trkpt lat="41.8354117" lon="13.0881983"><ele>408.0</ele><time>2026-04-11T07:48:56.813Z</time></trkpt><trkpt lat="41.8354067" lon="13.0883783"><ele>408.0</ele><time>2026-04-11T07:48:57.814Z</time></trkpt><trkpt lat="41.8354067" lon="13.0885417"><ele>408.0</ele><time>2026-04-11T07:48:58.814Z</time></trkpt><trkpt lat="41.8354033" lon="13.088695"><ele>409.5</ele><time>2026-04-11T07:48:59.811Z</time></trkpt><trkpt lat="41.8354067" lon="13.0888567"><ele>411.0</ele><time>2026-04-11T07:49:00.81Z</time></trkpt><trkpt lat="41.8354117" lon="13.089015"><ele>412.5</ele><time>2026-04-11T07:49:01.811Z</time></trkpt><trkpt lat="41.8354167" lon="13.089175"><ele>414.0</ele><time>2026-04-11T07:49:02.813Z</time></trkpt><trkpt lat="41.8354167" lon="13.0893333"><ele>415.0</ele><time>2026-04-11T07:49:03.814Z</time></trkpt><trkpt lat="41.83541" lon="13.0894817"><ele>416.0</ele><time>2026-04-11T07:49:04.814Z</time></trkpt><trkpt lat="41.8354033" lon="13.0896233"><ele>417.0</ele><time>2026-04-11T07:49:05.814Z</time></trkpt><trkpt lat="41.8353883" lon="13.0897517"><ele>418.0</ele><time>2026-04-11T07:49:06.813Z</time></trkpt><trkpt lat="41.8353667" lon="13.08988"><ele>419.0</ele><time>2026-04-11T07:49:07.814Z</time></trkpt><trkpt lat="41.8353183" lon="13.0900117"><ele>419.8333333333333</ele><time>2026-04-11T07:49:08.813Z</time></trkpt><trkpt lat="41.8352667" lon="13.090135"><ele>420.66666666666663</ele><time>2026-04-11T07:49:09.813Z</time></trkpt><trkpt lat="41.835215" lon="13.0902433"><ele>421.5</ele><time>2026-04-11T07:49:10.814Z</time></trkpt><trkpt lat="41.835165" lon="13.0903367"><ele>422.33333333333337</ele><time>2026-04-11T07:49:11.813Z</time></trkpt><trkpt lat="41.8351233" lon="13.0904133"><ele>423.1666666666667</ele><time>2026-04-11T07:49:12.814Z</time></trkpt><trkpt lat="41.835085" lon="13.0904833"><ele>424.0</ele><time>2026-04-11T07:49:13.814Z</time></trkpt><trkpt lat="41.8350483" lon="13.0905567"><ele>423.00000000000006</ele><time>2026-04-11T07:49:14.814Z</time></trkpt><trkpt lat="41.8349967" lon="13.0906317"><ele>422.0</ele><time>2026-04-11T07:49:15.814Z</time></trkpt><trkpt lat="41.8349367" lon="13.0907017"><ele>421.0</ele><time>2026-04-11T07:49:16.814Z</time></trkpt><trkpt lat="41.8348783" lon="13.0907617"><ele>420.0</ele><time>2026-04-11T07:49:17.811Z</time></trkpt><trkpt lat="41.834785" lon="13.0908533"><ele>419.00000000000006</ele><time>2026-04-11T07:49:19.81Z</time></trkpt><trkpt lat="41.8347183" lon="13.0909417"><ele>418.0</ele><time>2026-04-11T07:49:21.811Z</time></trkpt><trkpt lat="41.8346267" lon="13.09108"><ele>418.0</ele><time>2026-04-11T07:49:23.811Z</time></trkpt><trkpt lat="41.8345717" lon="13.0911667"><ele>418.0</ele><time>2026-04-11T07:49:24.81Z</time></trkpt><trkpt lat="41.834515" lon="13.0912533"><ele>418.0</ele><time>2026-04-11T07:49:25.815Z</time></trkpt><trkpt lat="41.8344567" lon="13.0913567"><ele>418.0</ele><time>2026-04-11T07:49:26.814Z</time></trkpt><trkpt lat="41.8344033" lon="13.0914683"><ele>418.0</ele><time>2026-04-11T07:49:27.81Z</time></trkpt><trkpt lat="41.8343567" lon="13.0916"><ele>417.79999999999995</ele><time>2026-04-11T07:49:28.814Z</time></trkpt><trkpt lat="41.834315" lon="13.0917367"><ele>417.6</ele><time>2026-04-11T07:49:29.814Z</time></trkpt><trkpt lat="41.8342883" lon="13.0918783"><ele>417.4</ele><time>2026-04-11T07:49:30.813Z</time></trkpt><trkpt lat="41.834265" lon="13.0920233"><ele>417.20000000000005</ele><time>2026-04-11T07:49:31.813Z</time></trkpt><trkpt lat="41.8342433" lon="13.092165"><ele>417.0</ele><time>2026-04-11T07:49:32.816Z</time></trkpt><trkpt lat="41.8342333" lon="13.09231"><ele>418.25</ele><time>2026-04-11T07:49:33.814Z</time></trkpt><trkpt lat="41.834235" lon="13.0924533"><ele>419.5</ele><time>2026-04-11T07:49:34.814Z</time></trkpt><trkpt lat="41.8342767" lon="13.0925983"><ele>420.75</ele><time>2026-04-11T07:49:35.813Z</time></trkpt><trkpt lat="41.83433" lon="13.0927383"><ele>422.0</ele><time>2026-04-11T07:49:36.814Z</time></trkpt><trkpt lat="41.83439" lon="13.0928767"><ele>424.75</ele><time>2026-04-11T07:49:37.81Z</time></trkpt><trkpt lat="41.83445" lon="13.0930267"><ele>427.5</ele><time>2026-04-11T07:49:38.813Z</time></trkpt><trkpt lat="41.8345033" lon="13.0931783"><ele>430.25</ele><time>2026-04-11T07:49:39.814Z</time></trkpt><trkpt lat="41.8345583" lon="13.0933333"><ele>433.0</ele><time>2026-04-11T07:49:40.814Z</time></trkpt><trkpt lat="41.834605" lon="13.0934983"><ele>434.75</ele><time>2026-04-11T07:49:41.811Z</time></trkpt><trkpt lat="41.8346433" lon="13.0936633"><ele>436.5</ele><time>2026-04-11T07:49:42.811Z</time></trkpt><trkpt lat="41.8346617" lon="13.0938317"><ele>438.25</ele><time>2026-04-11T07:49:43.811Z</time></trkpt><trkpt lat="41.8346883" lon="13.094"><ele>440.0</ele><time>2026-04-11T07:49:44.811Z</time></trkpt><trkpt lat="41.8347117" lon="13.0941633"><ele>440.75</ele><time>2026-04-11T07:49:45.81Z</time></trkpt><trkpt lat="41.8347267" lon="13.0943267"><ele>441.5</ele><time>2026-04-11T07:49:46.811Z</time></trkpt><trkpt lat="41.83474" lon="13.0944883"><ele>442.25</ele><time>2026-04-11T07:49:47.814Z</time></trkpt><trkpt lat="41.8347333" lon="13.0946467"><ele>443.0</ele><time>2026-04-11T07:49:48.81Z</time></trkpt><trkpt lat="41.8347183" lon="13.0948"><ele>444.0</ele><time>2026-04-11T07:49:49.814Z</time></trkpt><trkpt lat="41.8346833" lon="13.0949533"><ele>445.0</ele><time>2026-04-11T07:49:50.814Z</time></trkpt><trkpt lat="41.83465" lon="13.095105"><ele>446.0</ele><time>2026-04-11T07:49:51.814Z</time></trkpt><trkpt lat="41.8346067" lon="13.095255"><ele>447.0</ele><time>2026-04-11T07:49:52.813Z</time></trkpt><trkpt lat="41.83455" lon="13.095395"><ele>447.0</ele><time>2026-04-11T07:49:53.814Z</time></trkpt><trkpt lat="41.834485" lon="13.0955317"><ele>447.0</ele><time>2026-04-11T07:49:54.816Z</time></trkpt><trkpt lat="41.8344267" lon="13.0956683"><ele>447.0</ele><time>2026-04-11T07:49:55.814Z</time></trkpt><trkpt lat="41.8343683" lon="13.0958083"><ele>447.0</ele><time>2026-04-11T07:49:56.814Z</time></trkpt><trkpt lat="41.8343317" lon="13.0959617"><ele>446.75</ele><time>2026-04-11T07:49:57.813Z</time></trkpt><trkpt lat="41.8343017" lon="13.0961217"><ele>446.5</ele><time>2026-04-11T07:49:58.814Z</time></trkpt><trkpt lat="41.8342833" lon="13.0962867"><ele>446.25</ele><time>2026-04-11T07:49:59.811Z</time></trkpt><trkpt lat="41.83426" lon="13.0964417"><ele>446.0</ele><time>2026-04-11T07:50:00.813Z</time></trkpt><trkpt lat="41.834235" lon="13.0965967"><ele>448.0</ele><time>2026-04-11T07:50:01.813Z</time></trkpt><trkpt lat="41.8342067" lon="13.0967533"><ele>450.0</ele><time>2026-04-11T07:50:02.813Z</time></trkpt><trkpt lat="41.834185" lon="13.0969117"><ele>452.0</ele><time>2026-04-11T07:50:03.814Z</time></trkpt><trkpt lat="41.8341667" lon="13.097065"><ele>454.0</ele><time>2026-04-11T07:50:04.814Z</time></trkpt><trkpt lat="41.8341467" lon="13.097215"><ele>454.0</ele><time>2026-04-11T07:50:05.814Z</time></trkpt><trkpt lat="41.8341317" lon="13.0973617"><ele>454.0</ele><time>2026-04-11T07:50:06.814Z</time></trkpt><trkpt lat="41.8341283" lon="13.0975133"><ele>454.0</ele><time>2026-04-11T07:50:07.81Z</time></trkpt><trkpt lat="41.8341367" lon="13.097665"><ele>454.0</ele><time>2026-04-11T07:50:08.814Z</time></trkpt><trkpt lat="41.8341467" lon="13.0978183"><ele>455.0</ele><time>2026-04-11T07:50:09.814Z</time></trkpt><trkpt lat="41.83415" lon="13.09797"><ele>456.0</ele><time>2026-04-11T07:50:10.811Z</time></trkpt><trkpt lat="41.8341467" lon="13.0981183"><ele>457.0</ele><time>2026-04-11T07:50:11.813Z</time></trkpt><trkpt lat="41.8341133" lon="13.0982567"><ele>458.0</ele><time>2026-04-11T07:50:12.814Z</time></trkpt><trkpt lat="41.834075" lon="13.098395"><ele>459.0</ele><time>2026-04-11T07:50:13.812Z</time></trkpt><trkpt lat="41.8340333" lon="13.0985283"><ele>460.0</ele><time>2026-04-11T07:50:14.813Z</time></trkpt><trkpt lat="41.8339883" lon="13.098665"><ele>461.0</ele><time>2026-04-11T07:50:15.814Z</time></trkpt><trkpt lat="41.8339433" lon="13.0987967"><ele>462.0</ele><time>2026-04-11T07:50:16.81Z</time></trkpt><trkpt lat="41.83389" lon="13.0989267"><ele>463.0</ele><time>2026-04-11T07:50:17.811Z</time></trkpt><trkpt lat="41.8338333" lon="13.0990567"><ele>464.0</ele><time>2026-04-11T07:50:18.814Z</time></trkpt><trkpt lat="41.8337733" lon="13.099185"><ele>466.0</ele><time>2026-04-11T07:50:19.814Z</time></trkpt><trkpt lat="41.83371" lon="13.0993117"><ele>468.0</ele><time>2026-04-11T07:50:20.814Z</time></trkpt><trkpt lat="41.833645" lon="13.0994367"><ele>470.0</ele><time>2026-04-11T07:50:21.811Z</time></trkpt><trkpt lat="41.8335783" lon="13.0995617"><ele>472.0</ele><time>2026-04-11T07:50:22.814Z</time></trkpt><trkpt lat="41.8335183" lon="13.0996883"><ele>471.6</ele><time>2026-04-11T07:50:23.817Z</time></trkpt><trkpt lat="41.83347" lon="13.0998183"><ele>471.20000000000005</ele><time>2026-04-11T07:50:24.813Z</time></trkpt><trkpt lat="41.83343" lon="13.099955"><ele>470.8</ele><time>2026-04-11T07:50:25.813Z</time></trkpt><trkpt lat="41.8334017" lon="13.1000967"><ele>470.4</ele><time>2026-04-11T07:50:26.814Z</time></trkpt><trkpt lat="41.833375" lon="13.1002417"><ele>470.0</ele><time>2026-04-11T07:50:27.814Z</time></trkpt><trkpt lat="41.8333533" lon="13.1003817"><ele>470.0</ele><time>2026-04-11T07:50:28.813Z</time></trkpt><trkpt lat="41.8333233" lon="13.1005167"><ele>470.0</ele><time>2026-04-11T07:50:29.814Z</time></trkpt><trkpt lat="41.8333067" lon="13.1006617"><ele>470.0</ele><time>2026-04-11T07:50:30.814Z</time></trkpt><trkpt lat="41.8332917" lon="13.1008117"><ele>470.0</ele><time>2026-04-11T07:50:31.813Z</time></trkpt><trkpt lat="41.833275" lon="13.1009583"><ele>470.0</ele><time>2026-04-11T07:50:32.813Z</time></trkpt><trkpt lat="41.8332483" lon="13.1010833"><ele>471.3333333333333</ele><time>2026-04-11T07:50:33.813Z</time></trkpt><trkpt lat="41.83322" lon="13.1011933"><ele>472.66666666666663</ele><time>2026-04-11T07:50:34.814Z</time></trkpt><trkpt lat="41.83319" lon="13.101305"><ele>474.0</ele><time>2026-04-11T07:50:35.814Z</time></trkpt><trkpt lat="41.8331667" lon="13.1014133"><ele>475.33333333333337</ele><time>2026-04-11T07:50:36.814Z</time></trkpt><trkpt lat="41.83315" lon="13.1015117"><ele>476.6666666666667</ele><time>2026-04-11T07:50:37.813Z</time></trkpt><trkpt lat="41.833135" lon="13.10162"><ele>478.0</ele><time>2026-04-11T07:50:38.813Z</time></trkpt><trkpt lat="41.8331167" lon="13.1017383"><ele>479.59999999999997</ele><time>2026-04-11T07:50:39.814Z</time></trkpt><trkpt lat="41.8330883" lon="13.1018633"><ele>481.19999999999993</ele><time>2026-04-11T07:50:40.813Z</time></trkpt><trkpt lat="41.8330567" lon="13.1019883"><ele>482.8</ele><time>2026-04-11T07:50:41.814Z</time></trkpt><trkpt lat="41.8330283" lon="13.1021183"><ele>484.4</ele><time>2026-04-11T07:50:42.814Z</time></trkpt><trkpt lat="41.8329917" lon="13.1022433"><ele>486.0</ele><time>2026-04-11T07:50:43.813Z</time></trkpt><trkpt lat="41.832945" lon="13.1023633"><ele>487.6</ele><time>2026-04-11T07:50:44.811Z</time></trkpt><trkpt lat="41.8328917" lon="13.102475"><ele>489.20000000000005</ele><time>2026-04-11T07:50:45.809Z</time></trkpt><trkpt lat="41.8328333" lon="13.102585"><ele>490.79999999999995</ele><time>2026-04-11T07:50:46.809Z</time></trkpt><trkpt lat="41.8327783" lon="13.1026933"><ele>492.4</ele><time>2026-04-11T07:50:47.814Z</time></trkpt><trkpt lat="41.83272" lon="13.102795"><ele>494.0</ele><time>2026-04-11T07:50:48.813Z</time></trkpt><trkpt lat="41.83265" lon="13.1028967"><ele>495.0</ele><time>2026-04-11T07:50:49.815Z</time></trkpt><trkpt lat="41.8325683" lon="13.1029883"><ele>496.0</ele><time>2026-04-11T07:50:50.814Z</time></trkpt><trkpt lat="41.832475" lon="13.1030817"><ele>497.0</ele><time>2026-04-11T07:50:51.814Z</time></trkpt><trkpt lat="41.8323767" lon="13.103175"><ele>498.0</ele><time>2026-04-11T07:50:52.813Z</time></trkpt><trkpt lat="41.832275" lon="13.1032633"><ele>498.0</ele><time>2026-04-11T07:50:53.816Z</time></trkpt><trkpt lat="41.832175" lon="13.103355"><ele>497.99999999999994</ele><time>2026-04-11T07:50:54.813Z</time></trkpt><trkpt lat="41.832075" lon="13.103435"><ele>497.99999999999994</ele><time>2026-04-11T07:50:55.814Z</time></trkpt><trkpt lat="41.831985" lon="13.1035033"><ele>498.0</ele><time>2026-04-11T07:50:56.814Z</time></trkpt><trkpt lat="41.8319067" lon="13.103575"><ele>498.0</ele><time>2026-04-11T07:50:57.814Z</time></trkpt><trkpt lat="41.8318233" lon="13.103655"><ele>499.0</ele><time>2026-04-11T07:50:58.813Z</time></trkpt><trkpt lat="41.8317383" lon="13.1037367"><ele>499.99999999999994</ele><time>2026-04-11T07:50:59.814Z</time></trkpt><trkpt lat="41.8316617" lon="13.1038267"><ele>500.99999999999994</ele><time>2026-04-11T07:51:00.813Z</time></trkpt><trkpt lat="41.8315883" lon="13.1039217"><ele>502.0</ele><time>2026-04-11T07:51:01.819Z</time></trkpt><trkpt lat="41.83153" lon="13.1040317"><ele>503.0</ele><time>2026-04-11T07:51:02.814Z</time></trkpt><trkpt lat="41.8314867" lon="13.1041567"><ele>503.0</ele><time>2026-04-11T07:51:03.814Z</time></trkpt><trkpt lat="41.83145" lon="13.104285"><ele>502.99999999999994</ele><time>2026-04-11T07:51:04.814Z</time></trkpt><trkpt lat="41.83144" lon="13.1044267"><ele>502.99999999999994</ele><time>2026-04-11T07:51:05.814Z</time></trkpt><trkpt lat="41.8314467" lon="13.1045717"><ele>503.0</ele><time>2026-04-11T07:51:06.814Z</time></trkpt><trkpt lat="41.8314567" lon="13.104715"><ele>503.0</ele><time>2026-04-11T07:51:07.814Z</time></trkpt><trkpt lat="41.83148" lon="13.1048617"><ele>504.2</ele><time>2026-04-11T07:51:08.81Z</time></trkpt><trkpt lat="41.83151" lon="13.10501"><ele>505.4</ele><time>2026-04-11T07:51:09.816Z</time></trkpt><trkpt lat="41.83154" lon="13.1051467"><ele>506.59999999999997</ele><time>2026-04-11T07:51:10.813Z</time></trkpt><trkpt lat="41.8315717" lon="13.1052817"><ele>507.79999999999995</ele><time>2026-04-11T07:51:11.814Z</time></trkpt><trkpt lat="41.8315967" lon="13.1054167"><ele>509.0</ele><time>2026-04-11T07:51:12.81Z</time></trkpt><trkpt lat="41.8316067" lon="13.1055583"><ele>509.0</ele><time>2026-04-11T07:51:13.814Z</time></trkpt><trkpt lat="41.8315867" lon="13.1057"><ele>509.0</ele><time>2026-04-11T07:51:14.813Z</time></trkpt><trkpt lat="41.8315433" lon="13.1058383"><ele>509.0</ele><time>2026-04-11T07:51:15.813Z</time></trkpt><trkpt lat="41.8314817" lon="13.10597"><ele>509.0</ele><time>2026-04-11T07:51:16.816Z</time></trkpt><trkpt lat="41.83141" lon="13.1060967"><ele>509.5</ele><time>2026-04-11T07:51:17.815Z</time></trkpt><trkpt lat="41.8313333" lon="13.1062233"><ele>510.0</ele><time>2026-04-11T07:51:18.809Z</time></trkpt><trkpt lat="41.8312633" lon="13.1063533"><ele>510.5</ele><time>2026-04-11T07:51:19.812Z</time></trkpt><trkpt lat="41.83119" lon="13.1064833"><ele>511.0</ele><time>2026-04-11T07:51:20.81Z</time></trkpt><trkpt lat="41.8311317" lon="13.1066217"><ele>512.4</ele><time>2026-04-11T07:51:21.81Z</time></trkpt><trkpt lat="41.8310783" lon="13.1067567"><ele>513.8</ele><time>2026-04-11T07:51:22.811Z</time></trkpt><trkpt lat="41.8310317" lon="13.1068933"><ele>515.1999999999999</ele><time>2026-04-11T07:51:23.81Z</time></trkpt><trkpt lat="41.8309933" lon="13.10703"><ele>516.6</ele><time>2026-04-11T07:51:24.811Z</time></trkpt><trkpt lat="41.83096" lon="13.1071683"><ele>518.0</ele><time>2026-04-11T07:51:25.811Z</time></trkpt><trkpt lat="41.8309383" lon="13.1073133"><ele>516.0</ele><time>2026-04-11T07:51:26.811Z</time></trkpt><trkpt lat="41.83091" lon="13.107455"><ele>514.0</ele><time>2026-04-11T07:51:27.812Z</time></trkpt><trkpt lat="41.8308867" lon="13.1076"><ele>512.0</ele><time>2026-04-11T07:51:28.81Z</time></trkpt><trkpt lat="41.8308617" lon="13.10775"><ele>510.0</ele><time>2026-04-11T07:51:29.81Z</time></trkpt><trkpt lat="41.8308383" lon="13.107905"><ele>510.0</ele><time>2026-04-11T07:51:30.813Z</time></trkpt><trkpt lat="41.8308117" lon="13.10806"><ele>510.0</ele><time>2026-04-11T07:51:31.814Z</time></trkpt><trkpt lat="41.8307817" lon="13.108215"><ele>510.0</ele><time>2026-04-11T07:51:32.814Z</time></trkpt><trkpt lat="41.8307533" lon="13.1083717"><ele>510.0</ele><time>2026-04-11T07:51:33.813Z</time></trkpt><trkpt lat="41.830715" lon="13.1085317"><ele>511.5</ele><time>2026-04-11T07:51:34.813Z</time></trkpt><trkpt lat="41.8306717" lon="13.1086967"><ele>513.0</ele><time>2026-04-11T07:51:35.814Z</time></trkpt><trkpt lat="41.830635" lon="13.10888"><ele>514.5</ele><time>2026-04-11T07:51:36.814Z</time></trkpt><trkpt lat="41.8305883" lon="13.1090817"><ele>516.0</ele><time>2026-04-11T07:51:37.813Z</time></trkpt><trkpt lat="41.8305383" lon="13.1092933"><ele>518.6666666666666</ele><time>2026-04-11T07:51:38.813Z</time></trkpt><trkpt lat="41.8304867" lon="13.1095117"><ele>521.3333333333333</ele><time>2026-04-11T07:51:39.814Z</time></trkpt><trkpt lat="41.8304383" lon="13.1097283"><ele>524.0</ele><time>2026-04-11T07:51:40.813Z</time></trkpt><trkpt lat="41.8303867" lon="13.10993"><ele>526.3333333333333</ele><time>2026-04-11T07:51:41.814Z</time></trkpt><trkpt lat="41.8303367" lon="13.1101283"><ele>528.6666666666666</ele><time>2026-04-11T07:51:42.814Z</time></trkpt><trkpt lat="41.830295" lon="13.1103317"><ele>531.0</ele><time>2026-04-11T07:51:43.814Z</time></trkpt><trkpt lat="41.830265" lon="13.1105383"><ele>532.3333333333334</ele><time>2026-04-11T07:51:44.814Z</time></trkpt><trkpt lat="41.830245" lon="13.1107467"><ele>533.6666666666667</ele><time>2026-04-11T07:51:45.813Z</time></trkpt><trkpt lat="41.83025" lon="13.1109617"><ele>535.0</ele><time>2026-04-11T07:51:46.813Z</time></trkpt><trkpt lat="41.8302833" lon="13.1111817"><ele>535.0</ele><time>2026-04-11T07:51:47.813Z</time></trkpt><trkpt lat="41.8303317" lon="13.111405"><ele>535.0</ele><time>2026-04-11T07:51:48.811Z</time></trkpt><trkpt lat="41.8303867" lon="13.1116433"><ele>535.0</ele><time>2026-04-11T07:51:49.811Z</time></trkpt><trkpt lat="41.8304433" lon="13.1119"><ele>534.6666666666667</ele><time>2026-04-11T07:51:50.809Z</time></trkpt><trkpt lat="41.830505" lon="13.1121667"><ele>534.3333333333334</ele><time>2026-04-11T07:51:51.81Z</time></trkpt><trkpt lat="41.830565" lon="13.1124267"><ele>534.0</ele><time>2026-04-11T07:51:52.81Z</time></trkpt><trkpt lat="41.8306133" lon="13.1126733"><ele>533.6666666666666</ele><time>2026-04-11T07:51:53.811Z</time></trkpt><trkpt lat="41.8306467" lon="13.1129017"><ele>533.3333333333333</ele><time>2026-04-11T07:51:54.81Z</time></trkpt><trkpt lat="41.830655" lon="13.1131133"><ele>533.0</ele><time>2026-04-11T07:51:55.811Z</time></trkpt><trkpt lat="41.8306383" lon="13.11331"><ele>534.0</ele><time>2026-04-11T07:51:56.81Z</time></trkpt><trkpt lat="41.8305933" lon="13.1134967"><ele>535.0</ele><time>2026-04-11T07:51:57.81Z</time></trkpt><trkpt lat="41.830525" lon="13.1136767"><ele>536.0</ele><time>2026-04-11T07:51:58.81Z</time></trkpt><trkpt lat="41.8304433" lon="13.1138433"><ele>537.0</ele><time>2026-04-11T07:51:59.81Z</time></trkpt><trkpt lat="41.8303417" lon="13.11399"><ele>539.6666666666666</ele><time>2026-04-11T07:52:00.81Z</time></trkpt><trkpt lat="41.8302117" lon="13.1141117"><ele>542.3333333333333</ele><time>2026-04-11T07:52:01.81Z</time></trkpt><trkpt lat="41.830075" lon="13.1142117"><ele>545.0</ele><time>2026-04-11T07:52:02.811Z</time></trkpt><trkpt lat="41.8299567" lon="13.1143083"><ele>541.0</ele><time>2026-04-11T07:52:03.809Z</time></trkpt><trkpt lat="41.8298633" lon="13.1144167"><ele>537.0</ele><time>2026-04-11T07:52:04.812Z</time></trkpt><trkpt lat="41.829795" lon="13.114545"><ele>533.0</ele><time>2026-04-11T07:52:05.811Z</time></trkpt><trkpt lat="41.82976" lon="13.1147033"><ele>529.0</ele><time>2026-04-11T07:52:06.811Z</time></trkpt><trkpt lat="41.829755" lon="13.1148917"><ele>531.6666666666667</ele><time>2026-04-11T07:52:07.811Z</time></trkpt><trkpt lat="41.8297417" lon="13.1150983"><ele>534.3333333333334</ele><time>2026-04-11T07:52:08.811Z</time></trkpt><trkpt lat="41.8297217" lon="13.11531"><ele>537.0</ele><time>2026-04-11T07:52:09.81Z</time></trkpt><trkpt lat="41.8297017" lon="13.1155183"><ele>537.0</ele><time>2026-04-11T07:52:10.811Z</time></trkpt><trkpt lat="41.82968" lon="13.1157217"><ele>537.0</ele><time>2026-04-11T07:52:11.809Z</time></trkpt><trkpt lat="41.8296567" lon="13.1159217"><ele>537.0</ele><time>2026-04-11T07:52:12.81Z</time></trkpt><trkpt lat="41.829635" lon="13.1161267"><ele>537.0</ele><time>2026-04-11T07:52:13.812Z</time></trkpt><trkpt lat="41.8296183" lon="13.1163383"><ele>537.0</ele><time>2026-04-11T07:52:14.813Z</time></trkpt><trkpt lat="41.8296017" lon="13.116555"><ele>537.0</ele><time>2026-04-11T07:52:15.81Z</time></trkpt><trkpt lat="41.82958" lon="13.1167817"><ele>538.3333333333334</ele><time>2026-04-11T07:52:16.814Z</time></trkpt><trkpt lat="41.82955" lon="13.11702"><ele>539.6666666666667</ele><time>2026-04-11T07:52:17.813Z</time></trkpt><trkpt lat="41.8295167" lon="13.1172633"><ele>541.0</ele><time>2026-04-11T07:52:18.81Z</time></trkpt><trkpt lat="41.829485" lon="13.117505"><ele>542.6666666666667</ele><time>2026-04-11T07:52:19.811Z</time></trkpt><trkpt lat="41.8294633" lon="13.117735"><ele>544.3333333333334</ele><time>2026-04-11T07:52:20.811Z</time></trkpt><trkpt lat="41.829445" lon="13.1179467"><ele>546.0</ele><time>2026-04-11T07:52:21.81Z</time></trkpt><trkpt lat="41.829425" lon="13.1181483"><ele>547.25</ele><time>2026-04-11T07:52:22.81Z</time></trkpt><trkpt lat="41.8294067" lon="13.1183467"><ele>548.5</ele><time>2026-04-11T07:52:23.812Z</time></trkpt><trkpt lat="41.8293933" lon="13.1185433"><ele>549.75</ele><time>2026-04-11T07:52:24.81Z</time></trkpt><trkpt lat="41.82938" lon="13.1187367"><ele>551.0</ele><time>2026-04-11T07:52:25.811Z</time></trkpt><trkpt lat="41.829365" lon="13.1189183"><ele>551.4</ele><time>2026-04-11T07:52:26.81Z</time></trkpt><trkpt lat="41.8293483" lon="13.119085"><ele>551.8</ele><time>2026-04-11T07:52:27.811Z</time></trkpt><trkpt lat="41.8293317" lon="13.119225"><ele>552.1999999999999</ele><time>2026-04-11T07:52:28.81Z</time></trkpt><trkpt lat="41.8293183" lon="13.11934"><ele>552.6</ele><time>2026-04-11T07:52:29.813Z</time></trkpt><trkpt lat="41.8292983" lon="13.11943"><ele>553.0</ele><time>2026-04-11T07:52:30.813Z</time></trkpt><trkpt lat="41.82925" lon="13.1195433"><ele>552.0</ele><time>2026-04-11T07:52:32.811Z</time></trkpt><trkpt lat="41.8291983" lon="13.1196367"><ele>551.0</ele><time>2026-04-11T07:52:42.81Z</time></trkpt><trkpt lat="41.8292017" lon="13.1197683"><ele>550.0</ele><time>2026-04-11T07:52:45.814Z</time></trkpt><trkpt lat="41.8291567" lon="13.11987"><ele>549.0</ele><time>2026-04-11T07:52:47.809Z</time></trkpt><trkpt lat="41.82911" lon="13.11993"><ele>548.0</ele><time>2026-04-11T07:52:48.81Z</time></trkpt><trkpt lat="41.8290533" lon="13.12"><ele>547.0</ele><time>2026-04-11T07:52:49.811Z</time></trkpt><trkpt lat="41.8289983" lon="13.1200767"><ele>547.0</ele><time>2026-04-11T07:52:50.81Z</time></trkpt><trkpt lat="41.82894" lon="13.1201583"><ele>547.0</ele><time>2026-04-11T07:52:51.809Z</time></trkpt><trkpt lat="41.8288783" lon="13.12025"><ele>547.0</ele><time>2026-04-11T07:52:52.811Z</time></trkpt><trkpt lat="41.8288117" lon="13.1203483"><ele>547.0</ele><time>2026-04-11T07:52:53.81Z</time></trkpt><trkpt lat="41.8287467" lon="13.1204533"><ele>547.0</ele><time>2026-04-11T07:52:54.81Z</time></trkpt><trkpt lat="41.8286817" lon="13.1205617"><ele>547.0</ele><time>2026-04-11T07:52:55.811Z</time></trkpt><trkpt lat="41.8286367" lon="13.1206867"><ele>547.0</ele><time>2026-04-11T07:52:56.811Z</time></trkpt><trkpt lat="41.8286" lon="13.1208333"><ele>547.0</ele><time>2026-04-11T07:52:57.812Z</time></trkpt><trkpt lat="41.8285633" lon="13.1209967"><ele>547.0</ele><time>2026-04-11T07:52:58.811Z</time></trkpt><trkpt lat="41.8285367" lon="13.12117"><ele>548.0</ele><time>2026-04-11T07:52:59.813Z</time></trkpt><trkpt lat="41.8285183" lon="13.1213333"><ele>549.0</ele><time>2026-04-11T07:53:00.814Z</time></trkpt><trkpt lat="41.8285017" lon="13.1214917"><ele>550.0</ele><time>2026-04-11T07:53:01.814Z</time></trkpt><trkpt lat="41.8284833" lon="13.1216483"><ele>551.0</ele><time>2026-04-11T07:53:02.814Z</time></trkpt><trkpt lat="41.8284567" lon="13.121805"><ele>551.0</ele><time>2026-04-11T07:53:03.814Z</time></trkpt><trkpt lat="41.82844" lon="13.1219683"><ele>551.0</ele><time>2026-04-11T07:53:04.814Z</time></trkpt><trkpt lat="41.8284317" lon="13.12214"><ele>551.0</ele><time>2026-04-11T07:53:05.813Z</time></trkpt><trkpt lat="41.8284467" lon="13.1223233"><ele>551.0</ele><time>2026-04-11T07:53:06.813Z</time></trkpt><trkpt lat="41.82848" lon="13.1224967"><ele>557.25</ele><time>2026-04-11T07:53:07.813Z</time></trkpt><trkpt lat="41.8285183" lon="13.1226533"><ele>563.5</ele><time>2026-04-11T07:53:08.812Z</time></trkpt><trkpt lat="41.8285533" lon="13.1228083"><ele>569.75</ele><time>2026-04-11T07:53:09.814Z</time></trkpt><trkpt lat="41.8285783" lon="13.122955"><ele>576.0</ele><time>2026-04-11T07:53:10.814Z</time></trkpt><trkpt lat="41.8286" lon="13.1230917"><ele>576.0</ele><time>2026-04-11T07:53:11.814Z</time></trkpt><trkpt lat="41.8286183" lon="13.1232017"><ele>576.0</ele><time>2026-04-11T07:53:12.814Z</time></trkpt><trkpt lat="41.828635" lon="13.1232967"><ele>576.0</ele><time>2026-04-11T07:53:13.814Z</time></trkpt><trkpt lat="41.8286483" lon="13.1234"><ele>576.0</ele><time>2026-04-11T07:53:14.813Z</time></trkpt><trkpt lat="41.828665" lon="13.1235233"><ele>576.0</ele><time>2026-04-11T07:53:15.814Z</time></trkpt><trkpt lat="41.8287183" lon="13.1236733"><ele>575.3333333333334</ele><time>2026-04-11T07:53:16.814Z</time></trkpt><trkpt lat="41.828805" lon="13.12384"><ele>574.6666666666667</ele><time>2026-04-11T07:53:17.81Z</time></trkpt><trkpt lat="41.8288883" lon="13.12401"><ele>574.0</ele><time>2026-04-11T07:53:18.809Z</time></trkpt><trkpt lat="41.8289633" lon="13.1241967"><ele>574.0</ele><time>2026-04-11T07:53:19.816Z</time></trkpt><trkpt lat="41.8290217" lon="13.1243983"><ele>574.0</ele><time>2026-04-11T07:53:20.812Z</time></trkpt><trkpt lat="41.82907" lon="13.12461"><ele>574.0</ele><time>2026-04-11T07:53:21.813Z</time></trkpt><trkpt lat="41.8291183" lon="13.1248217"><ele>572.6666666666667</ele><time>2026-04-11T07:53:22.812Z</time></trkpt><trkpt lat="41.8291433" lon="13.1250383"><ele>571.3333333333334</ele><time>2026-04-11T07:53:23.812Z</time></trkpt><trkpt lat="41.8291517" lon="13.12526"><ele>570.0</ele><time>2026-04-11T07:53:24.812Z</time></trkpt><trkpt lat="41.8291467" lon="13.125485"><ele>570.0</ele><time>2026-04-11T07:53:25.814Z</time></trkpt><trkpt lat="41.8291467" lon="13.1257"><ele>570.0</ele><time>2026-04-11T07:53:26.813Z</time></trkpt><trkpt lat="41.829165" lon="13.1259117"><ele>570.0</ele><time>2026-04-11T07:53:27.814Z</time></trkpt><trkpt lat="41.8292067" lon="13.1261217"><ele>570.6666666666666</ele><time>2026-04-11T07:53:28.813Z</time></trkpt><trkpt lat="41.8292733" lon="13.1263383"><ele>571.3333333333333</ele><time>2026-04-11T07:53:29.814Z</time></trkpt><trkpt lat="41.8293583" lon="13.1265617"><ele>572.0</ele><time>2026-04-11T07:53:30.814Z</time></trkpt><trkpt lat="41.8294483" lon="13.1267633"><ele>576.6666666666666</ele><time>2026-04-11T07:53:31.814Z</time></trkpt><trkpt lat="41.8295267" lon="13.1269517"><ele>581.3333333333334</ele><time>2026-04-11T07:53:32.813Z</time></trkpt><trkpt lat="41.82959" lon="13.1271433"><ele>586.0</ele><time>2026-04-11T07:53:33.813Z</time></trkpt><trkpt lat="41.8296333" lon="13.12734"><ele>585.75</ele><time>2026-04-11T07:53:34.814Z</time></trkpt><trkpt lat="41.8296667" lon="13.1275367"><ele>585.5</ele><time>2026-04-11T07:53:35.811Z</time></trkpt><trkpt lat="41.829705" lon="13.12772"><ele>585.25</ele><time>2026-04-11T07:53:36.811Z</time></trkpt><trkpt lat="41.8297367" lon="13.1278967"><ele>585.0</ele><time>2026-04-11T07:53:37.813Z</time></trkpt><trkpt lat="41.8297683" lon="13.128065"><ele>585.0</ele><time>2026-04-11T07:53:38.812Z</time></trkpt><trkpt lat="41.8298" lon="13.12822"><ele>585.0</ele><time>2026-04-11T07:53:39.813Z</time></trkpt><trkpt lat="41.8298267" lon="13.12836"><ele>585.0</ele><time>2026-04-11T07:53:40.814Z</time></trkpt><trkpt lat="41.8298583" lon="13.1284983"><ele>585.0</ele><time>2026-04-11T07:53:41.822Z</time></trkpt><trkpt lat="41.8298967" lon="13.1286383"><ele>585.0</ele><time>2026-04-11T07:53:42.813Z</time></trkpt><trkpt lat="41.829935" lon="13.128785"><ele>585.75</ele><time>2026-04-11T07:53:43.814Z</time></trkpt><trkpt lat="41.8299667" lon="13.1289367"><ele>586.5</ele><time>2026-04-11T07:53:44.813Z</time></trkpt><trkpt lat="41.829975" lon="13.129095"><ele>587.25</ele><time>2026-04-11T07:53:45.814Z</time></trkpt><trkpt lat="41.8299683" lon="13.1292483"><ele>588.0</ele><time>2026-04-11T07:53:46.81Z</time></trkpt><trkpt lat="41.8299533" lon="13.1293883"><ele>588.0</ele><time>2026-04-11T07:53:47.81Z</time></trkpt><trkpt lat="41.8299317" lon="13.1295167"><ele>588.0</ele><time>2026-04-11T07:53:48.809Z</time></trkpt><trkpt lat="41.8299033" lon="13.12964"><ele>588.0</ele><time>2026-04-11T07:53:49.81Z</time></trkpt><trkpt lat="41.8298717" lon="13.1297617"><ele>588.0</ele><time>2026-04-11T07:53:50.81Z</time></trkpt><trkpt lat="41.8298433" lon="13.12988"><ele>588.0</ele><time>2026-04-11T07:53:51.813Z</time></trkpt><trkpt lat="41.8298183" lon="13.1300017"><ele>589.0</ele><time>2026-04-11T07:53:52.811Z</time></trkpt><trkpt lat="41.8298067" lon="13.13013"><ele>590.0</ele><time>2026-04-11T07:53:53.812Z</time></trkpt><trkpt lat="41.8298" lon="13.1302617"><ele>591.0</ele><time>2026-04-11T07:53:54.813Z</time></trkpt><trkpt lat="41.829795" lon="13.1303967"><ele>592.0</ele><time>2026-04-11T07:53:55.812Z</time></trkpt><trkpt lat="41.8297883" lon="13.1305333"><ele>593.0</ele><time>2026-04-11T07:53:56.813Z</time></trkpt><trkpt lat="41.8297867" lon="13.130675"><ele>593.8</ele><time>2026-04-11T07:53:57.813Z</time></trkpt><trkpt lat="41.8297883" lon="13.13082"><ele>594.5999999999999</ele><time>2026-04-11T07:53:58.81Z</time></trkpt><trkpt lat="41.829785" lon="13.1309617"><ele>595.4000000000001</ele><time>2026-04-11T07:53:59.814Z</time></trkpt><trkpt lat="41.82979" lon="13.1310967"><ele>596.2</ele><time>2026-04-11T07:54:00.812Z</time></trkpt><trkpt lat="41.829785" lon="13.1312367"><ele>597.0</ele><time>2026-04-11T07:54:01.814Z</time></trkpt><trkpt lat="41.82978" lon="13.1313767"><ele>597.0</ele><time>2026-04-11T07:54:02.812Z</time></trkpt><trkpt lat="41.82977" lon="13.131515"><ele>597.0</ele><time>2026-04-11T07:54:03.812Z</time></trkpt><trkpt lat="41.829755" lon="13.131655"><ele>597.0</ele><time>2026-04-11T07:54:04.813Z</time></trkpt><trkpt lat="41.82975" lon="13.1317883"><ele>597.0</ele><time>2026-04-11T07:54:05.814Z</time></trkpt><trkpt lat="41.8297383" lon="13.1319167"><ele>597.0</ele><time>2026-04-11T07:54:06.814Z</time></trkpt><trkpt lat="41.8297233" lon="13.13204"><ele>598.6</ele><time>2026-04-11T07:54:07.814Z</time></trkpt><trkpt lat="41.82972" lon="13.132165"><ele>600.2</ele><time>2026-04-11T07:54:08.814Z</time></trkpt><trkpt lat="41.8297017" lon="13.1322883"><ele>601.8</ele><time>2026-04-11T07:54:09.814Z</time></trkpt><trkpt lat="41.8296883" lon="13.132415"><ele>603.4</ele><time>2026-04-11T07:54:10.813Z</time></trkpt><trkpt lat="41.8296833" lon="13.1325433"><ele>605.0</ele><time>2026-04-11T07:54:11.813Z</time></trkpt><trkpt lat="41.829685" lon="13.132675"><ele>607.2</ele><time>2026-04-11T07:54:12.813Z</time></trkpt><trkpt lat="41.8297033" lon="13.1328067"><ele>609.4</ele><time>2026-04-11T07:54:13.814Z</time></trkpt><trkpt lat="41.8297217" lon="13.1329333"><ele>611.6</ele><time>2026-04-11T07:54:14.813Z</time></trkpt><trkpt lat="41.8297367" lon="13.13306"><ele>613.8</ele><time>2026-04-11T07:54:15.81Z</time></trkpt><trkpt lat="41.8297533" lon="13.1331883"><ele>616.0</ele><time>2026-04-11T07:54:16.813Z</time></trkpt><trkpt lat="41.8297517" lon="13.1333183"><ele>617.0</ele><time>2026-04-11T07:54:17.814Z</time></trkpt><trkpt lat="41.8297367" lon="13.133445"><ele>618.0</ele><time>2026-04-11T07:54:18.814Z</time></trkpt><trkpt lat="41.8297017" lon="13.133565"><ele>619.0</ele><time>2026-04-11T07:54:19.815Z</time></trkpt><trkpt lat="41.8296433" lon="13.13368"><ele>620.0</ele><time>2026-04-11T07:54:20.813Z</time></trkpt><trkpt lat="41.8295683" lon="13.1337883"><ele>621.0</ele><time>2026-04-11T07:54:21.814Z</time></trkpt><trkpt lat="41.8294967" lon="13.13389"><ele>621.0</ele><time>2026-04-11T07:54:22.81Z</time></trkpt><trkpt lat="41.8294133" lon="13.1339833"><ele>621.0</ele><time>2026-04-11T07:54:23.814Z</time></trkpt><trkpt lat="41.8293367" lon="13.1340683"><ele>621.0</ele><time>2026-04-11T07:54:24.813Z</time></trkpt><trkpt lat="41.829275" lon="13.1341467"><ele>621.0</ele><time>2026-04-11T07:54:25.813Z</time></trkpt><trkpt lat="41.82922" lon="13.1342267"><ele>621.0</ele><time>2026-04-11T07:54:26.815Z</time></trkpt><trkpt lat="41.8291733" lon="13.1343233"><ele>620.2</ele><time>2026-04-11T07:54:27.815Z</time></trkpt><trkpt lat="41.8291533" lon="13.1344467"><ele>619.4000000000001</ele><time>2026-04-11T07:54:28.811Z</time></trkpt><trkpt lat="41.8291433" lon="13.1345767"><ele>618.6</ele><time>2026-04-11T07:54:29.814Z</time></trkpt><trkpt lat="41.8291383" lon="13.1347133"><ele>617.8000000000001</ele><time>2026-04-11T07:54:30.81Z</time></trkpt><trkpt lat="41.8291267" lon="13.1348483"><ele>617.0</ele><time>2026-04-11T07:54:31.814Z</time></trkpt><trkpt lat="41.8291083" lon="13.134985"><ele>617.0</ele><time>2026-04-11T07:54:32.812Z</time></trkpt><trkpt lat="41.8290683" lon="13.1351167"><ele>617.0</ele><time>2026-04-11T07:54:33.812Z</time></trkpt><trkpt lat="41.829025" lon="13.135245"><ele>617.0</ele><time>2026-04-11T07:54:34.814Z</time></trkpt><trkpt lat="41.828985" lon="13.13537"><ele>617.0</ele><time>2026-04-11T07:54:35.814Z</time></trkpt><trkpt lat="41.82895" lon="13.1355067"><ele>617.0</ele><time>2026-04-11T07:54:36.813Z</time></trkpt><trkpt lat="41.8289217" lon="13.1356533"><ele>619.2</ele><time>2026-04-11T07:54:37.812Z</time></trkpt><trkpt lat="41.8289067" lon="13.1358083"><ele>621.4000000000001</ele><time>2026-04-11T07:54:38.813Z</time></trkpt><trkpt lat="41.8288983" lon="13.1359583"><ele>623.5999999999999</ele><time>2026-04-11T07:54:39.813Z</time></trkpt><trkpt lat="41.8288917" lon="13.136095"><ele>625.8</ele><time>2026-04-11T07:54:40.812Z</time></trkpt><trkpt lat="41.82889" lon="13.13623"><ele>628.0</ele><time>2026-04-11T07:54:41.813Z</time></trkpt><trkpt lat="41.8288933" lon="13.136365"><ele>628.0</ele><time>2026-04-11T07:54:42.814Z</time></trkpt><trkpt lat="41.8289033" lon="13.1365"><ele>628.0</ele><time>2026-04-11T07:54:43.813Z</time></trkpt><trkpt lat="41.8289233" lon="13.1366367"><ele>628.0</ele><time>2026-04-11T07:54:44.813Z</time></trkpt><trkpt lat="41.828945" lon="13.1367783"><ele>628.0</ele><time>2026-04-11T07:54:45.813Z</time></trkpt><trkpt lat="41.8289683" lon="13.1369233"><ele>628.0</ele><time>2026-04-11T07:54:46.813Z</time></trkpt><trkpt lat="41.8289917" lon="13.13707"><ele>629.5</ele><time>2026-04-11T07:54:47.813Z</time></trkpt><trkpt lat="41.82901" lon="13.1372233"><ele>631.0</ele><time>2026-04-11T07:54:48.814Z</time></trkpt><trkpt lat="41.82903" lon="13.1373783"><ele>632.5</ele><time>2026-04-11T07:54:49.812Z</time></trkpt><trkpt lat="41.8290567" lon="13.1375383"><ele>634.0</ele><time>2026-04-11T07:54:50.813Z</time></trkpt><trkpt lat="41.829075" lon="13.1377017"><ele>634.0</ele><time>2026-04-11T07:54:51.812Z</time></trkpt><trkpt lat="41.8291017" lon="13.1378633"><ele>634.0</ele><time>2026-04-11T07:54:52.813Z</time></trkpt><trkpt lat="41.82913" lon="13.1380233"><ele>634.0</ele><time>2026-04-11T07:54:53.817Z</time></trkpt><trkpt lat="41.829165" lon="13.1381817"><ele>634.0</ele><time>2026-04-11T07:54:54.813Z</time></trkpt><trkpt lat="41.8292033" lon="13.1383383"><ele>633.2</ele><time>2026-04-11T07:54:55.814Z</time></trkpt><trkpt lat="41.8292417" lon="13.13849"><ele>632.4</ele><time>2026-04-11T07:54:56.813Z</time></trkpt><trkpt lat="41.8292717" lon="13.1386283"><ele>631.6</ele><time>2026-04-11T07:54:57.813Z</time></trkpt><trkpt lat="41.8292933" lon="13.1387533"><ele>630.8</ele><time>2026-04-11T07:54:58.814Z</time></trkpt><trkpt lat="41.8293183" lon="13.1388683"><ele>630.0</ele><time>2026-04-11T07:54:59.813Z</time></trkpt><trkpt lat="41.8293433" lon="13.1389783"><ele>637.8333333333334</ele><time>2026-04-11T07:55:00.81Z</time></trkpt><trkpt lat="41.829375" lon="13.1390867"><ele>645.6666666666666</ele><time>2026-04-11T07:55:01.813Z</time></trkpt><trkpt lat="41.8294017" lon="13.1391967"><ele>653.5</ele><time>2026-04-11T07:55:02.812Z</time></trkpt><trkpt lat="41.8294283" lon="13.1393133"><ele>661.3333333333333</ele><time>2026-04-11T07:55:03.813Z</time></trkpt><trkpt lat="41.829445" lon="13.1394283"><ele>669.1666666666666</ele><time>2026-04-11T07:55:04.814Z</time></trkpt><trkpt lat="41.8294617" lon="13.139545"><ele>677.0</ele><time>2026-04-11T07:55:05.81Z</time></trkpt><trkpt lat="41.8294817" lon="13.1396633"><ele>677.0</ele><time>2026-04-11T07:55:06.81Z</time></trkpt><trkpt lat="41.829505" lon="13.1397867"><ele>677.0</ele><time>2026-04-11T07:55:07.814Z</time></trkpt><trkpt lat="41.8295317" lon="13.139925"><ele>677.0</ele><time>2026-04-11T07:55:08.813Z</time></trkpt><trkpt lat="41.8295567" lon="13.140065"><ele>677.0</ele><time>2026-04-11T07:55:09.813Z</time></trkpt><trkpt lat="41.8295817" lon="13.14019"><ele>677.0</ele><time>2026-04-11T07:55:10.813Z</time></trkpt><trkpt lat="41.8295983" lon="13.1402933"><ele>675.6666666666666</ele><time>2026-04-11T07:55:11.813Z</time></trkpt><trkpt lat="41.8296133" lon="13.1403883"><ele>674.3333333333333</ele><time>2026-04-11T07:55:12.813Z</time></trkpt><trkpt lat="41.8296367" lon="13.1404867"><ele>673.0</ele><time>2026-04-11T07:55:13.81Z</time></trkpt><trkpt lat="41.829655" lon="13.1405933"><ele>671.6666666666666</ele><time>2026-04-11T07:55:14.81Z</time></trkpt><trkpt lat="41.8296817" lon="13.1407033"><ele>670.3333333333334</ele><time>2026-04-11T07:55:15.809Z</time></trkpt><trkpt lat="41.829705" lon="13.1408183"><ele>669.0</ele><time>2026-04-11T07:55:16.81Z</time></trkpt><trkpt lat="41.8297267" lon="13.1409317"><ele>668.3333333333334</ele><time>2026-04-11T07:55:17.81Z</time></trkpt><trkpt lat="41.829755" lon="13.14105"><ele>667.6666666666666</ele><time>2026-04-11T07:55:18.813Z</time></trkpt><trkpt lat="41.8297783" lon="13.1411667"><ele>667.0</ele><time>2026-04-11T07:55:19.813Z</time></trkpt><trkpt lat="41.8298033" lon="13.141285"><ele>666.3333333333333</ele><time>2026-04-11T07:55:20.811Z</time></trkpt><trkpt lat="41.82982" lon="13.1413967"><ele>665.6666666666666</ele><time>2026-04-11T07:55:21.81Z</time></trkpt><trkpt lat="41.8298433" lon="13.1415133"><ele>665.0</ele><time>2026-04-11T07:55:22.811Z</time></trkpt><trkpt lat="41.829875" lon="13.1416233"><ele>664.0</ele><time>2026-04-11T07:55:23.81Z</time></trkpt><trkpt lat="41.82991" lon="13.1417317"><ele>663.0</ele><time>2026-04-11T07:55:24.81Z</time></trkpt><trkpt lat="41.8299467" lon="13.1418417"><ele>662.0</ele><time>2026-04-11T07:55:25.811Z</time></trkpt><trkpt lat="41.8299867" lon="13.1419533"><ele>661.0</ele><time>2026-04-11T07:55:26.809Z</time></trkpt><trkpt lat="41.8300233" lon="13.1420633"><ele>660.0</ele><time>2026-04-11T07:55:27.809Z</time></trkpt><trkpt lat="41.8300583" lon="13.1421683"><ele>659.0</ele><time>2026-04-11T07:55:28.812Z</time></trkpt><trkpt lat="41.8300917" lon="13.1422717"><ele>658.1666666666666</ele><time>2026-04-11T07:55:29.814Z</time></trkpt><trkpt lat="41.8301317" lon="13.1423817"><ele>657.3333333333333</ele><time>2026-04-11T07:55:30.814Z</time></trkpt><trkpt lat="41.83018" lon="13.1424933"><ele>656.5</ele><time>2026-04-11T07:55:31.81Z</time></trkpt><trkpt lat="41.8302233" lon="13.1426"><ele>655.6666666666666</ele><time>2026-04-11T07:55:32.814Z</time></trkpt><trkpt lat="41.830265" lon="13.1426967"><ele>654.8333333333334</ele><time>2026-04-11T07:55:33.814Z</time></trkpt><trkpt lat="41.8303117" lon="13.1427883"><ele>654.0</ele><time>2026-04-11T07:55:34.813Z</time></trkpt><trkpt lat="41.8303617" lon="13.1428767"><ele>658.5</ele><time>2026-04-11T07:55:35.813Z</time></trkpt><trkpt lat="41.83041" lon="13.142965"><ele>663.0</ele><time>2026-04-11T07:55:36.813Z</time></trkpt><trkpt lat="41.83046" lon="13.1430517"><ele>667.5</ele><time>2026-04-11T07:55:37.813Z</time></trkpt><trkpt lat="41.830515" lon="13.143135"><ele>672.0</ele><time>2026-04-11T07:55:38.812Z</time></trkpt><trkpt lat="41.83057" lon="13.14322"><ele>676.5</ele><time>2026-04-11T07:55:39.813Z</time></trkpt><trkpt lat="41.8306233" lon="13.1433"><ele>681.0</ele><time>2026-04-11T07:55:40.812Z</time></trkpt><trkpt lat="41.8306817" lon="13.1433733"><ele>681.0</ele><time>2026-04-11T07:55:41.813Z</time></trkpt><trkpt lat="41.8307417" lon="13.1434383"><ele>681.0</ele><time>2026-04-11T07:55:42.812Z</time></trkpt><trkpt lat="41.830805" lon="13.1435067"><ele>681.0</ele><time>2026-04-11T07:55:43.813Z</time></trkpt><trkpt lat="41.83087" lon="13.1435733"><ele>681.0</ele><time>2026-04-11T07:55:44.811Z</time></trkpt><trkpt lat="41.83094" lon="13.1436417"><ele>681.0</ele><time>2026-04-11T07:55:45.811Z</time></trkpt><trkpt lat="41.83101" lon="13.14371"><ele>681.0</ele><time>2026-04-11T07:55:46.81Z</time></trkpt><trkpt lat="41.831075" lon="13.1437917"><ele>684.0</ele><time>2026-04-11T07:55:47.813Z</time></trkpt><trkpt lat="41.831135" lon="13.143885"><ele>687.0</ele><time>2026-04-11T07:55:48.813Z</time></trkpt><trkpt lat="41.831195" lon="13.143985"><ele>690.0</ele><time>2026-04-11T07:55:49.813Z</time></trkpt><trkpt lat="41.83125" lon="13.1440867"><ele>693.0</ele><time>2026-04-11T07:55:50.814Z</time></trkpt><trkpt lat="41.8313033" lon="13.1441917"><ele>696.0</ele><time>2026-04-11T07:55:51.814Z</time></trkpt><trkpt lat="41.8313467" lon="13.144305"><ele>696.0</ele><time>2026-04-11T07:55:52.811Z</time></trkpt><trkpt lat="41.8313883" lon="13.14441"><ele>696.0</ele><time>2026-04-11T07:55:53.812Z</time></trkpt><trkpt lat="41.831425" lon="13.1445133"><ele>696.0</ele><time>2026-04-11T07:55:54.81Z</time></trkpt><trkpt lat="41.831455" lon="13.14462"><ele>696.0</ele><time>2026-04-11T07:55:55.809Z</time></trkpt><trkpt lat="41.8314733" lon="13.1447267"><ele>696.0</ele><time>2026-04-11T07:55:56.812Z</time></trkpt><trkpt lat="41.8314783" lon="13.144835"><ele>696.0</ele><time>2026-04-11T07:55:57.812Z</time></trkpt><trkpt lat="41.8314717" lon="13.14495"><ele>695.1666666666666</ele><time>2026-04-11T07:55:58.813Z</time></trkpt><trkpt lat="41.8314633" lon="13.1450533"><ele>694.3333333333334</ele><time>2026-04-11T07:55:59.813Z</time></trkpt><trkpt lat="41.8314433" lon="13.1451517"><ele>693.5</ele><time>2026-04-11T07:56:00.809Z</time></trkpt><trkpt lat="41.8314167" lon="13.1452383"><ele>692.6666666666667</ele><time>2026-04-11T07:56:01.814Z</time></trkpt><trkpt lat="41.83137" lon="13.1453183"><ele>691.8333333333334</ele><time>2026-04-11T07:56:02.814Z</time></trkpt><trkpt lat="41.831305" lon="13.1453917"><ele>691.0</ele><time>2026-04-11T07:56:03.82Z</time></trkpt><trkpt lat="41.8312417" lon="13.1454567"><ele>691.0</ele><time>2026-04-11T07:56:04.814Z</time></trkpt><trkpt lat="41.8311783" lon="13.145505"><ele>691.0</ele><time>2026-04-11T07:56:05.813Z</time></trkpt><trkpt lat="41.8311067" lon="13.14554"><ele>691.0</ele><time>2026-04-11T07:56:06.813Z</time></trkpt><trkpt lat="41.8310317" lon="13.145565"><ele>691.0</ele><time>2026-04-11T07:56:07.812Z</time></trkpt><trkpt lat="41.8309483" lon="13.1455883"><ele>691.0</ele><time>2026-04-11T07:56:08.813Z</time></trkpt><trkpt lat="41.830865" lon="13.145615"><ele>691.0</ele><time>2026-04-11T07:56:09.814Z</time></trkpt><trkpt lat="41.8307833" lon="13.1456383"><ele>688.5</ele><time>2026-04-11T07:56:10.814Z</time></trkpt><trkpt lat="41.8307033" lon="13.145665"><ele>686.0</ele><time>2026-04-11T07:56:11.813Z</time></trkpt><trkpt lat="41.8306167" lon="13.1456817"><ele>683.5</ele><time>2026-04-11T07:56:12.814Z</time></trkpt><trkpt lat="41.8305367" lon="13.1456883"><ele>681.0</ele><time>2026-04-11T07:56:13.813Z</time></trkpt><trkpt lat="41.8304617" lon="13.1456933"><ele>678.5</ele><time>2026-04-11T07:56:14.814Z</time></trkpt><trkpt lat="41.8303933" lon="13.14569"><ele>676.0</ele><time>2026-04-11T07:56:15.816Z</time></trkpt><trkpt lat="41.83028" lon="13.1456667"><ele>676.0</ele><time>2026-04-11T07:56:17.812Z</time></trkpt><trkpt lat="41.830195" lon="13.1456483"><ele>676.0</ele><time>2026-04-11T07:56:20.812Z</time></trkpt><trkpt lat="41.8301283" lon="13.14564"><ele>676.0</ele><time>2026-04-11T07:56:23.811Z</time></trkpt><trkpt lat="41.8300917" lon="13.145725"><ele>676.0</ele><time>2026-04-11T07:56:27.813Z</time></trkpt><trkpt lat="41.83016" lon="13.14578"><ele>676.0</ele><time>2026-04-11T07:56:29.813Z</time></trkpt><trkpt lat="41.8302717" lon="13.1457917"><ele>676.0</ele><time>2026-04-11T07:56:31.812Z</time></trkpt><trkpt lat="41.8303817" lon="13.1458117"><ele>678.8333333333334</ele><time>2026-04-11T07:56:33.812Z</time></trkpt><trkpt lat="41.830445" lon="13.1458217"><ele>681.6666666666667</ele><time>2026-04-11T07:56:34.813Z</time></trkpt><trkpt lat="41.8305183" lon="13.14584"><ele>684.5</ele><time>2026-04-11T07:56:35.813Z</time></trkpt><trkpt lat="41.8306" lon="13.1458567"><ele>687.3333333333334</ele><time>2026-04-11T07:56:36.812Z</time></trkpt><trkpt lat="41.8306817" lon="13.1458733"><ele>690.1666666666666</ele><time>2026-04-11T07:56:37.81Z</time></trkpt><trkpt lat="41.8307617" lon="13.1458917"><ele>693.0</ele><time>2026-04-11T07:56:38.81Z</time></trkpt><trkpt lat="41.8308367" lon="13.1459083"><ele>693.0</ele><time>2026-04-11T07:56:39.81Z</time></trkpt><trkpt lat="41.830915" lon="13.1459317"><ele>693.0</ele><time>2026-04-11T07:56:40.811Z</time></trkpt><trkpt lat="41.8310017" lon="13.1459567"><ele>693.0</ele><time>2026-04-11T07:56:41.811Z</time></trkpt><trkpt lat="41.8310983" lon="13.1459833"><ele>693.0</ele><time>2026-04-11T07:56:42.811Z</time></trkpt><trkpt lat="41.831205" lon="13.1460167"><ele>693.0</ele><time>2026-04-11T07:56:43.81Z</time></trkpt><trkpt lat="41.8313183" lon="13.1460583"><ele>695.0</ele><time>2026-04-11T07:56:44.809Z</time></trkpt><trkpt lat="41.8314317" lon="13.1460917"><ele>697.0</ele><time>2026-04-11T07:56:45.81Z</time></trkpt><trkpt lat="41.8315517" lon="13.1460817"><ele>699.0</ele><time>2026-04-11T07:56:46.814Z</time></trkpt><trkpt lat="41.8316733" lon="13.1460383"><ele>701.0</ele><time>2026-04-11T07:56:47.81Z</time></trkpt><trkpt lat="41.8317933" lon="13.1459717"><ele>707.75</ele><time>2026-04-11T07:56:48.813Z</time></trkpt><trkpt lat="41.8319033" lon="13.1458933"><ele>714.5</ele><time>2026-04-11T07:56:49.811Z</time></trkpt><trkpt lat="41.831985" lon="13.1457733"><ele>721.25</ele><time>2026-04-11T07:56:50.81Z</time></trkpt><trkpt lat="41.832035" lon="13.1456183"><ele>728.0</ele><time>2026-04-11T07:56:51.81Z</time></trkpt><trkpt lat="41.8320683" lon="13.14544"><ele>728.0</ele><time>2026-04-11T07:56:52.812Z</time></trkpt><trkpt lat="41.8320417" lon="13.14522"><ele>728.0</ele><time>2026-04-11T07:56:53.814Z</time></trkpt><trkpt lat="41.8320367" lon="13.1450083"><ele>728.0</ele><time>2026-04-11T07:56:54.809Z</time></trkpt><trkpt lat="41.8320483" lon="13.1448183"><ele>728.0</ele><time>2026-04-11T07:56:55.814Z</time></trkpt><trkpt lat="41.8320967" lon="13.144635"><ele>728.0</ele><time>2026-04-11T07:56:56.81Z</time></trkpt><trkpt lat="41.83215" lon="13.1444467"><ele>728.0</ele><time>2026-04-11T07:56:57.815Z</time></trkpt><trkpt lat="41.8321533" lon="13.1442733"><ele>728.0</ele><time>2026-04-11T07:56:58.813Z</time></trkpt><trkpt lat="41.832135" lon="13.1440983"><ele>731.6666666666666</ele><time>2026-04-11T07:56:59.812Z</time></trkpt><trkpt lat="41.8320833" lon="13.143915"><ele>735.3333333333334</ele><time>2026-04-11T07:57:00.813Z</time></trkpt><trkpt lat="41.8319917" lon="13.1437317"><ele>739.0</ele><time>2026-04-11T07:57:01.81Z</time></trkpt><trkpt lat="41.831905" lon="13.14357"><ele>740.6666666666667</ele><time>2026-04-11T07:57:02.81Z</time></trkpt><trkpt lat="41.8318017" lon="13.1434283"><ele>742.3333333333334</ele><time>2026-04-11T07:57:03.81Z</time></trkpt><trkpt lat="41.831675" lon="13.1433083"><ele>744.0</ele><time>2026-04-11T07:57:04.81Z</time></trkpt><trkpt lat="41.831535" lon="13.1432083"><ele>744.0</ele><time>2026-04-11T07:57:05.811Z</time></trkpt><trkpt lat="41.831415" lon="13.1431167"><ele>744.0</ele><time>2026-04-11T07:57:06.811Z</time></trkpt><trkpt lat="41.8313117" lon="13.1429983"><ele>744.0</ele><time>2026-04-11T07:57:07.812Z</time></trkpt><trkpt lat="41.8312233" lon="13.1428583"><ele>744.0</ele><time>2026-04-11T07:57:08.81Z</time></trkpt><trkpt lat="41.8311467" lon="13.1427033"><ele>744.0</ele><time>2026-04-11T07:57:09.81Z</time></trkpt><trkpt lat="41.8310833" lon="13.1425433"><ele>744.0</ele><time>2026-04-11T07:57:10.81Z</time></trkpt><trkpt lat="41.83103" lon="13.1423817"><ele>744.0</ele><time>2026-04-11T07:57:11.813Z</time></trkpt><trkpt lat="41.8310017" lon="13.1422067"><ele>744.0</ele><time>2026-04-11T07:57:12.813Z</time></trkpt><trkpt lat="41.8309867" lon="13.1420033"><ele>748.0</ele><time>2026-04-11T07:57:13.813Z</time></trkpt><trkpt lat="41.830975" lon="13.1417783"><ele>752.0</ele><time>2026-04-11T07:57:14.813Z</time></trkpt><trkpt lat="41.8309433" lon="13.141535"><ele>756.0</ele><time>2026-04-11T07:57:15.814Z</time></trkpt><trkpt lat="41.8309167" lon="13.1412983"><ele>745.3333333333334</ele><time>2026-04-11T07:57:16.814Z</time></trkpt><trkpt lat="41.8309067" lon="13.1410817"><ele>734.6666666666667</ele><time>2026-04-11T07:57:17.813Z</time></trkpt><trkpt lat="41.8309133" lon="13.1408783"><ele>724.0</ele><time>2026-04-11T07:57:18.813Z</time></trkpt><trkpt lat="41.830925" lon="13.14068"><ele>724.0</ele><time>2026-04-11T07:57:19.812Z</time></trkpt><trkpt lat="41.83091" lon="13.1404833"><ele>724.0</ele><time>2026-04-11T07:57:20.813Z</time></trkpt><trkpt lat="41.8308533" lon="13.1402717"><ele>724.0</ele><time>2026-04-11T07:57:21.814Z</time></trkpt><trkpt lat="41.8307933" lon="13.14006"><ele>725.75</ele><time>2026-04-11T07:57:22.812Z</time></trkpt><trkpt lat="41.8307467" lon="13.139865"><ele>727.5</ele><time>2026-04-11T07:57:23.814Z</time></trkpt><trkpt lat="41.8307333" lon="13.1396867"><ele>729.25</ele><time>2026-04-11T07:57:24.813Z</time></trkpt><trkpt lat="41.8307483" lon="13.1395"><ele>731.0</ele><time>2026-04-11T07:57:25.812Z</time></trkpt><trkpt lat="41.8307617" lon="13.13929"><ele>732.0</ele><time>2026-04-11T07:57:26.813Z</time></trkpt><trkpt lat="41.83075" lon="13.1390433"><ele>733.0</ele><time>2026-04-11T07:57:27.813Z</time></trkpt><trkpt lat="41.8307267" lon="13.138785"><ele>734.0</ele><time>2026-04-11T07:57:28.81Z</time></trkpt><trkpt lat="41.8307117" lon="13.1385383"><ele>734.0</ele><time>2026-04-11T07:57:29.812Z</time></trkpt><trkpt lat="41.8307067" lon="13.13832"><ele>734.0</ele><time>2026-04-11T07:57:30.814Z</time></trkpt><trkpt lat="41.8307133" lon="13.1381367"><ele>734.0</ele><time>2026-04-11T07:57:31.813Z</time></trkpt><trkpt lat="41.83073" lon="13.137985"><ele>734.0</ele><time>2026-04-11T07:57:32.812Z</time></trkpt><trkpt lat="41.8307567" lon="13.1378617"><ele>733.6666666666666</ele><time>2026-04-11T07:57:33.812Z</time></trkpt><trkpt lat="41.830805" lon="13.1377667"><ele>733.3333333333333</ele><time>2026-04-11T07:57:34.815Z</time></trkpt><trkpt lat="41.8308717" lon="13.1377"><ele>733.0</ele><time>2026-04-11T07:57:35.81Z</time></trkpt><trkpt lat="41.8309483" lon="13.1376517"><ele>732.6666666666666</ele><time>2026-04-11T07:57:36.81Z</time></trkpt><trkpt lat="41.83103" lon="13.1376567"><ele>732.3333333333334</ele><time>2026-04-11T07:57:37.813Z</time></trkpt><trkpt lat="41.83111" lon="13.1377167"><ele>732.0</ele><time>2026-04-11T07:57:38.813Z</time></trkpt><trkpt lat="41.8311817" lon="13.13782"><ele>732.0</ele><time>2026-04-11T07:57:39.81Z</time></trkpt><trkpt lat="41.831265" lon="13.1379567"><ele>732.0</ele><time>2026-04-11T07:57:40.811Z</time></trkpt><trkpt lat="41.8313733" lon="13.1381767"><ele>732.0</ele><time>2026-04-11T07:57:41.811Z</time></trkpt><trkpt lat="41.8314817" lon="13.1383983"><ele>735.0</ele><time>2026-04-11T07:57:42.811Z</time></trkpt><trkpt lat="41.831605" lon="13.1385717"><ele>738.0</ele><time>2026-04-11T07:57:43.813Z</time></trkpt><trkpt lat="41.8317283" lon="13.13875"><ele>741.0</ele><time>2026-04-11T07:57:44.813Z</time></trkpt><trkpt lat="41.83184" lon="13.13894"><ele>743.6666666666666</ele><time>2026-04-11T07:57:45.814Z</time></trkpt><trkpt lat="41.831945" lon="13.1391433"><ele>746.3333333333333</ele><time>2026-04-11T07:57:46.814Z</time></trkpt><trkpt lat="41.8320517" lon="13.1393517"><ele>749.0</ele><time>2026-04-11T07:57:47.811Z</time></trkpt><trkpt lat="41.8321533" lon="13.13956"><ele>749.0</ele><time>2026-04-11T07:57:48.811Z</time></trkpt><trkpt lat="41.832245" lon="13.1397767"><ele>749.0</ele><time>2026-04-11T07:57:49.814Z</time></trkpt><trkpt lat="41.8323233" lon="13.13999"><ele>749.0</ele><time>2026-04-11T07:57:50.81Z</time></trkpt><trkpt lat="41.8323933" lon="13.1401833"><ele>751.5</ele><time>2026-04-11T07:57:51.81Z</time></trkpt><trkpt lat="41.8324717" lon="13.1403417"><ele>754.0</ele><time>2026-04-11T07:57:52.811Z</time></trkpt><trkpt lat="41.832565" lon="13.1404633"><ele>756.5</ele><time>2026-04-11T07:57:53.811Z</time></trkpt><trkpt lat="41.8326767" lon="13.14054"><ele>759.0</ele><time>2026-04-11T07:57:54.813Z</time></trkpt><trkpt lat="41.8328183" lon="13.1405767"><ele>760.0</ele><time>2026-04-11T07:57:55.813Z</time></trkpt><trkpt lat="41.8329717" lon="13.1406017"><ele>761.0</ele><time>2026-04-11T07:57:56.812Z</time></trkpt><trkpt lat="41.8331267" lon="13.140625"><ele>762.0</ele><time>2026-04-11T07:57:57.813Z</time></trkpt><trkpt lat="41.8332617" lon="13.140655"><ele>763.0</ele><time>2026-04-11T07:57:58.813Z</time></trkpt><trkpt lat="41.8333617" lon="13.140705"><ele>764.2</ele><time>2026-04-11T07:57:59.813Z</time></trkpt><trkpt lat="41.8334317" lon="13.1407717"><ele>765.4</ele><time>2026-04-11T07:58:00.813Z</time></trkpt><trkpt lat="41.8334783" lon="13.1408633"><ele>766.6</ele><time>2026-04-11T07:58:01.81Z</time></trkpt><trkpt lat="41.833495" lon="13.1409833"><ele>767.8000000000001</ele><time>2026-04-11T07:58:02.813Z</time></trkpt><trkpt lat="41.8334883" lon="13.1411233"><ele>769.0</ele><time>2026-04-11T07:58:03.813Z</time></trkpt><trkpt lat="41.8334233" lon="13.1413117"><ele>769.0</ele><time>2026-04-11T07:58:04.81Z</time></trkpt><trkpt lat="41.8333583" lon="13.1415083"><ele>769.0</ele><time>2026-04-11T07:58:05.812Z</time></trkpt><trkpt lat="41.8333133" lon="13.1417017"><ele>769.0</ele><time>2026-04-11T07:58:06.81Z</time></trkpt><trkpt lat="41.8332567" lon="13.141895"><ele>772.0</ele><time>2026-04-11T07:58:07.811Z</time></trkpt><trkpt lat="41.8332433" lon="13.1421167"><ele>775.0</ele><time>2026-04-11T07:58:08.814Z</time></trkpt><trkpt lat="41.833245" lon="13.14236"><ele>778.0</ele><time>2026-04-11T07:58:09.813Z</time></trkpt><trkpt lat="41.83324" lon="13.1426033"><ele>778.0</ele><time>2026-04-11T07:58:10.812Z</time></trkpt><trkpt lat="41.8332533" lon="13.142825"><ele>778.0</ele><time>2026-04-11T07:58:11.813Z</time></trkpt><trkpt lat="41.83329" lon="13.1430167"><ele>778.0</ele><time>2026-04-11T07:58:12.813Z</time></trkpt><trkpt lat="41.8333667" lon="13.1431767"><ele>783.0</ele><time>2026-04-11T07:58:13.813Z</time></trkpt><trkpt lat="41.83348" lon="13.1433133"><ele>788.0</ele><time>2026-04-11T07:58:14.809Z</time></trkpt><trkpt lat="41.8336283" lon="13.14343"><ele>793.0</ele><time>2026-04-11T07:58:15.813Z</time></trkpt><trkpt lat="41.833785" lon="13.143535"><ele>793.0</ele><time>2026-04-11T07:58:16.812Z</time></trkpt><trkpt lat="41.8339267" lon="13.1436367"><ele>793.0</ele><time>2026-04-11T07:58:17.811Z</time></trkpt><trkpt lat="41.834045" lon="13.143745"><ele>793.0</ele><time>2026-04-11T07:58:18.809Z</time></trkpt><trkpt lat="41.8341383" lon="13.1438767"><ele>793.0</ele><time>2026-04-11T07:58:19.811Z</time></trkpt><trkpt lat="41.8342083" lon="13.1440417"><ele>790.6666666666666</ele><time>2026-04-11T07:58:20.811Z</time></trkpt><trkpt lat="41.83427" lon="13.1442317"><ele>788.3333333333333</ele><time>2026-04-11T07:58:21.81Z</time></trkpt><trkpt lat="41.8343117" lon="13.144435"><ele>786.0</ele><time>2026-04-11T07:58:22.811Z</time></trkpt><trkpt lat="41.83433" lon="13.14464"><ele>786.6666666666667</ele><time>2026-04-11T07:58:23.815Z</time></trkpt><trkpt lat="41.83432" lon="13.144835"><ele>787.3333333333334</ele><time>2026-04-11T07:58:24.813Z</time></trkpt><trkpt lat="41.8342717" lon="13.1450233"><ele>788.0</ele><time>2026-04-11T07:58:25.812Z</time></trkpt><trkpt lat="41.8341833" lon="13.1452017"><ele>788.0</ele><time>2026-04-11T07:58:26.812Z</time></trkpt><trkpt lat="41.8340917" lon="13.1453717"><ele>788.0</ele><time>2026-04-11T07:58:27.813Z</time></trkpt><trkpt lat="41.8340217" lon="13.1455567"><ele>788.0</ele><time>2026-04-11T07:58:28.809Z</time></trkpt><trkpt lat="41.833975" lon="13.145775"><ele>792.6666666666667</ele><time>2026-04-11T07:58:29.813Z</time></trkpt><trkpt lat="41.833935" lon="13.1460167"><ele>797.3333333333333</ele><time>2026-04-11T07:58:30.813Z</time></trkpt><trkpt lat="41.8338833" lon="13.146265"><ele>802.0</ele><time>2026-04-11T07:58:31.813Z</time></trkpt><trkpt lat="41.8338117" lon="13.1465017"><ele>807.3333333333333</ele><time>2026-04-11T07:58:32.813Z</time></trkpt><trkpt lat="41.8337233" lon="13.1467083"><ele>812.6666666666667</ele><time>2026-04-11T07:58:33.813Z</time></trkpt><trkpt lat="41.8336217" lon="13.14688"><ele>818.0</ele><time>2026-04-11T07:58:34.813Z</time></trkpt><trkpt lat="41.8335133" lon="13.1470217"><ele>813.0</ele><time>2026-04-11T07:58:35.816Z</time></trkpt><trkpt lat="41.8334133" lon="13.1471533"><ele>808.0</ele><time>2026-04-11T07:58:36.812Z</time></trkpt><trkpt lat="41.8333483" lon="13.147295"><ele>803.0</ele><time>2026-04-11T07:58:37.813Z</time></trkpt><trkpt lat="41.8333217" lon="13.147435"><ele>798.0</ele><time>2026-04-11T07:58:38.813Z</time></trkpt><trkpt lat="41.8333333" lon="13.147555"><ele>798.0</ele><time>2026-04-11T07:58:39.814Z</time></trkpt><trkpt lat="41.8333667" lon="13.1476583"><ele>798.0</ele><time>2026-04-11T07:58:40.812Z</time></trkpt><trkpt lat="41.833435" lon="13.14775"><ele>798.0</ele><time>2026-04-11T07:58:41.813Z</time></trkpt><trkpt lat="41.8335367" lon="13.14785"><ele>798.0</ele><time>2026-04-11T07:58:42.815Z</time></trkpt><trkpt lat="41.8336333" lon="13.14797"><ele>798.0</ele><time>2026-04-11T07:58:43.813Z</time></trkpt><trkpt lat="41.833705" lon="13.148135"><ele>810.6666666666667</ele><time>2026-04-11T07:58:44.812Z</time></trkpt><trkpt lat="41.8337567" lon="13.1483383"><ele>823.3333333333334</ele><time>2026-04-11T07:58:45.812Z</time></trkpt><trkpt lat="41.8337933" lon="13.148575"><ele>836.0</ele><time>2026-04-11T07:58:46.812Z</time></trkpt><trkpt lat="41.833835" lon="13.1488317"><ele>835.0</ele><time>2026-04-11T07:58:47.81Z</time></trkpt><trkpt lat="41.8338783" lon="13.149075"><ele>834.0</ele><time>2026-04-11T07:58:48.81Z</time></trkpt><trkpt lat="41.8339217" lon="13.1492933"><ele>833.0</ele><time>2026-04-11T07:58:49.81Z</time></trkpt><trkpt lat="41.8339433" lon="13.1494683"><ele>833.0000000000001</ele><time>2026-04-11T07:58:50.811Z</time></trkpt><trkpt lat="41.83394" lon="13.1496033"><ele>833.0</ele><time>2026-04-11T07:58:51.81Z</time></trkpt><trkpt lat="41.8339133" lon="13.149715"><ele>833.0</ele><time>2026-04-11T07:58:52.809Z</time></trkpt><trkpt lat="41.833865" lon="13.149805"><ele>833.0</ele><time>2026-04-11T07:58:53.811Z</time></trkpt><trkpt lat="41.8338067" lon="13.1498717"><ele>833.0000000000001</ele><time>2026-04-11T07:58:54.809Z</time></trkpt><trkpt lat="41.8337283" lon="13.149905"><ele>833.0</ele><time>2026-04-11T07:58:55.812Z</time></trkpt><trkpt lat="41.8336017" lon="13.1498933"><ele>823.0</ele><time>2026-04-11T07:58:56.813Z</time></trkpt><trkpt lat="41.8334317" lon="13.14984"><ele>813.0</ele><time>2026-04-11T07:58:57.809Z</time></trkpt><trkpt lat="41.8332633" lon="13.14977"><ele>803.0</ele><time>2026-04-11T07:58:58.811Z</time></trkpt><trkpt lat="41.8331283" lon="13.149755"><ele>803.0</ele><time>2026-04-11T07:58:59.811Z</time></trkpt><trkpt lat="41.8329983" lon="13.14975"><ele>803.0</ele><time>2026-04-11T07:59:00.81Z</time></trkpt><trkpt lat="41.8328767" lon="13.1497867"><ele>803.0</ele><time>2026-04-11T07:59:01.81Z</time></trkpt><trkpt lat="41.8327567" lon="13.1498767"><ele>803.0</ele><time>2026-04-11T07:59:02.81Z</time></trkpt><trkpt lat="41.83264" lon="13.1499967"><ele>807.8</ele><time>2026-04-11T07:59:03.813Z</time></trkpt><trkpt lat="41.83254" lon="13.1501233"><ele>812.5999999999999</ele><time>2026-04-11T07:59:04.813Z</time></trkpt><trkpt lat="41.8324583" lon="13.15019"><ele>817.4000000000001</ele><time>2026-04-11T07:59:05.813Z</time></trkpt><trkpt lat="41.832385" lon="13.150225"><ele>822.2</ele><time>2026-04-11T07:59:06.813Z</time></trkpt><trkpt lat="41.832305" lon="13.1502217"><ele>827.0</ele><time>2026-04-11T07:59:07.813Z</time></trkpt><trkpt lat="41.8322167" lon="13.1501733"><ele>827.0</ele><time>2026-04-11T07:59:08.811Z</time></trkpt><trkpt lat="41.8321283" lon="13.150115"><ele>827.0</ele><time>2026-04-11T07:59:09.81Z</time></trkpt><trkpt lat="41.8320217" lon="13.149995"><ele>827.0</ele><time>2026-04-11T07:59:10.811Z</time></trkpt><trkpt lat="41.831895" lon="13.14986"><ele>827.0</ele><time>2026-04-11T07:59:11.81Z</time></trkpt><trkpt lat="41.8317433" lon="13.1497517"><ele>823.75</ele><time>2026-04-11T07:59:12.813Z</time></trkpt><trkpt lat="41.831575" lon="13.149665"><ele>820.5</ele><time>2026-04-11T07:59:13.812Z</time></trkpt><trkpt lat="41.8314483" lon="13.1496183"><ele>817.25</ele><time>2026-04-11T07:59:14.813Z</time></trkpt><trkpt lat="41.83133" lon="13.1496133"><ele>814.0</ele><time>2026-04-11T07:59:15.813Z</time></trkpt><trkpt lat="41.8312183" lon="13.1496517"><ele>814.0</ele><time>2026-04-11T07:59:16.812Z</time></trkpt><trkpt lat="41.8310833" lon="13.149735"><ele>814.0</ele><time>2026-04-11T07:59:17.81Z</time></trkpt><trkpt lat="41.8309417" lon="13.1498383"><ele>814.0</ele><time>2026-04-11T07:59:18.81Z</time></trkpt><trkpt lat="41.8308067" lon="13.14995"><ele>818.75</ele><time>2026-04-11T07:59:19.811Z</time></trkpt><trkpt lat="41.8306833" lon="13.15006"><ele>823.5</ele><time>2026-04-11T07:59:20.81Z</time></trkpt><trkpt lat="41.8305733" lon="13.150185"><ele>828.25</ele><time>2026-04-11T07:59:21.809Z</time></trkpt><trkpt lat="41.8304883" lon="13.1503383"><ele>833.0</ele><time>2026-04-11T07:59:22.81Z</time></trkpt><trkpt lat="41.8304283" lon="13.150525"><ele>840.6666666666667</ele><time>2026-04-11T07:59:23.81Z</time></trkpt><trkpt lat="41.8303917" lon="13.1507467"><ele>848.3333333333333</ele><time>2026-04-11T07:59:24.812Z</time></trkpt><trkpt lat="41.830365" lon="13.1509983"><ele>856.0</ele><time>2026-04-11T07:59:25.813Z</time></trkpt><trkpt lat="41.83033" lon="13.1512567"><ele>856.0</ele><time>2026-04-11T07:59:26.813Z</time></trkpt><trkpt lat="41.830285" lon="13.1515117"><ele>856.0</ele><time>2026-04-11T07:59:27.814Z</time></trkpt><trkpt lat="41.83022" lon="13.1517483"><ele>856.0</ele><time>2026-04-11T07:59:28.813Z</time></trkpt><trkpt lat="41.8301267" lon="13.151945"><ele>854.25</ele><time>2026-04-11T07:59:29.813Z</time></trkpt><trkpt lat="41.83004" lon="13.1521033"><ele>852.5</ele><time>2026-04-11T07:59:30.813Z</time></trkpt><trkpt lat="41.8299633" lon="13.1522433"><ele>850.75</ele><time>2026-04-11T07:59:31.812Z</time></trkpt><trkpt lat="41.82992" lon="13.1524067"><ele>849.0</ele><time>2026-04-11T07:59:32.813Z</time></trkpt><trkpt lat="41.829925" lon="13.1526033"><ele>849.0</ele><time>2026-04-11T07:59:33.813Z</time></trkpt><trkpt lat="41.8299367" lon="13.1528233"><ele>849.0</ele><time>2026-04-11T07:59:34.813Z</time></trkpt><trkpt lat="41.8299433" lon="13.1530517"><ele>849.0</ele><time>2026-04-11T07:59:35.813Z</time></trkpt><trkpt lat="41.82995" lon="13.153305"><ele>851.0</ele><time>2026-04-11T07:59:36.813Z</time></trkpt><trkpt lat="41.8299417" lon="13.153575"><ele>853.0</ele><time>2026-04-11T07:59:37.813Z</time></trkpt><trkpt lat="41.8299283" lon="13.1538683"><ele>855.0</ele><time>2026-04-11T07:59:38.813Z</time></trkpt><trkpt lat="41.8299133" lon="13.1541683"><ele>856.6666666666667</ele><time>2026-04-11T07:59:39.812Z</time></trkpt><trkpt lat="41.8298967" lon="13.1544483"><ele>858.3333333333334</ele><time>2026-04-11T07:59:40.813Z</time></trkpt><trkpt lat="41.8298733" lon="13.1547033"><ele>860.0</ele><time>2026-04-11T07:59:41.813Z</time></trkpt><trkpt lat="41.82985" lon="13.1549317"><ele>862.75</ele><time>2026-04-11T07:59:42.813Z</time></trkpt><trkpt lat="41.829825" lon="13.1551333"><ele>865.5</ele><time>2026-04-11T07:59:43.813Z</time></trkpt><trkpt lat="41.829795" lon="13.1553117"><ele>868.25</ele><time>2026-04-11T07:59:44.813Z</time></trkpt><trkpt lat="41.8297517" lon="13.1554683"><ele>871.0</ele><time>2026-04-11T07:59:45.813Z</time></trkpt><trkpt lat="41.8297017" lon="13.1556067"><ele>875.75</ele><time>2026-04-11T07:59:46.812Z</time></trkpt><trkpt lat="41.8296483" lon="13.1557317"><ele>880.5</ele><time>2026-04-11T07:59:47.813Z</time></trkpt><trkpt lat="41.8295867" lon="13.1558533"><ele>885.25</ele><time>2026-04-11T07:59:48.813Z</time></trkpt><trkpt lat="41.8295333" lon="13.1559983"><ele>890.0</ele><time>2026-04-11T07:59:49.813Z</time></trkpt><trkpt lat="41.8294867" lon="13.15618"><ele>890.0</ele><time>2026-04-11T07:59:50.813Z</time></trkpt><trkpt lat="41.8294367" lon="13.1563917"><ele>890.0</ele><time>2026-04-11T07:59:51.813Z</time></trkpt><trkpt lat="41.8293833" lon="13.1566267"><ele>890.0</ele><time>2026-04-11T07:59:52.813Z</time></trkpt><trkpt lat="41.8293283" lon="13.1568583"><ele>884.6666666666667</ele><time>2026-04-11T07:59:53.813Z</time></trkpt><trkpt lat="41.8292883" lon="13.157105"><ele>879.3333333333333</ele><time>2026-04-11T07:59:54.812Z</time></trkpt><trkpt lat="41.8292617" lon="13.15737"><ele>874.0</ele><time>2026-04-11T07:59:55.814Z</time></trkpt><trkpt lat="41.8292583" lon="13.15766"><ele>874.0</ele><time>2026-04-11T07:59:56.812Z</time></trkpt><trkpt lat="41.8292567" lon="13.1579617"><ele>874.0</ele><time>2026-04-11T07:59:57.813Z</time></trkpt><trkpt lat="41.8292433" lon="13.1582833"><ele>875.0</ele><time>2026-04-11T07:59:58.81Z</time></trkpt><trkpt lat="41.8292217" lon="13.15862"><ele>876.0</ele><time>2026-04-11T07:59:59.809Z</time></trkpt><trkpt lat="41.8292117" lon="13.1589633"><ele>877.0</ele><time>2026-04-11T08:00:00.81Z</time></trkpt><trkpt lat="41.8292083" lon="13.15932"><ele>878.0</ele><time>2026-04-11T08:00:01.811Z</time></trkpt><trkpt lat="41.829205" lon="13.1596883"><ele>877.0</ele><time>2026-04-11T08:00:02.81Z</time></trkpt><trkpt lat="41.82919" lon="13.1600533"><ele>876.0</ele><time>2026-04-11T08:00:03.81Z</time></trkpt><trkpt lat="41.8291683" lon="13.1604017"><ele>877.0</ele><time>2026-04-11T08:00:04.809Z</time></trkpt><trkpt lat="41.8291383" lon="13.1607333"><ele>878.0</ele><time>2026-04-11T08:00:05.809Z</time></trkpt><trkpt lat="41.8291133" lon="13.1610517"><ele>878.0</ele><time>2026-04-11T08:00:06.811Z</time></trkpt><trkpt lat="41.8291" lon="13.161375"><ele>878.0</ele><time>2026-04-11T08:00:07.811Z</time></trkpt><trkpt lat="41.8290833" lon="13.16171"><ele>880.0</ele><time>2026-04-11T08:00:08.811Z</time></trkpt><trkpt lat="41.8290533" lon="13.16206"><ele>882.0</ele><time>2026-04-11T08:00:09.81Z</time></trkpt><trkpt lat="41.82901" lon="13.1624283"><ele>885.5</ele><time>2026-04-11T08:00:10.811Z</time></trkpt><trkpt lat="41.8289667" lon="13.1628117"><ele>889.0</ele><time>2026-04-11T08:00:11.812Z</time></trkpt><trkpt lat="41.8289183" lon="13.1631783"><ele>894.5</ele><time>2026-04-11T08:00:12.812Z</time></trkpt><trkpt lat="41.8288767" lon="13.1635217"><ele>900.0</ele><time>2026-04-11T08:00:13.813Z</time></trkpt><trkpt lat="41.828845" lon="13.1638583"><ele>902.5</ele><time>2026-04-11T08:00:14.814Z</time></trkpt><trkpt lat="41.828815" lon="13.1641933"><ele>905.0</ele><time>2026-04-11T08:00:15.813Z</time></trkpt><trkpt lat="41.8288" lon="13.164515"><ele>905.0</ele><time>2026-04-11T08:00:16.813Z</time></trkpt><trkpt lat="41.8287883" lon="13.1648017"><ele>905.0</ele><time>2026-04-11T08:00:17.813Z</time></trkpt><trkpt lat="41.828785" lon="13.1650467"><ele>905.0</ele><time>2026-04-11T08:00:18.814Z</time></trkpt><trkpt lat="41.8288083" lon="13.1652767"><ele>904.3333333333334</ele><time>2026-04-11T08:00:19.813Z</time></trkpt><trkpt lat="41.82885" lon="13.1655033"><ele>903.6666666666667</ele><time>2026-04-11T08:00:20.81Z</time></trkpt><trkpt lat="41.8288933" lon="13.16572"><ele>903.0</ele><time>2026-04-11T08:00:21.812Z</time></trkpt><trkpt lat="41.8289167" lon="13.1659117"><ele>901.5</ele><time>2026-04-11T08:00:22.813Z</time></trkpt><trkpt lat="41.828915" lon="13.1660883"><ele>900.0</ele><time>2026-04-11T08:00:23.813Z</time></trkpt><trkpt lat="41.8288733" lon="13.1662533"><ele>898.5</ele><time>2026-04-11T08:00:24.813Z</time></trkpt><trkpt lat="41.828795" lon="13.1664133"><ele>897.0</ele><time>2026-04-11T08:00:25.812Z</time></trkpt><trkpt lat="41.8287017" lon="13.1666017"><ele>897.0</ele><time>2026-04-11T08:00:26.813Z</time></trkpt><trkpt lat="41.8286067" lon="13.1668217"><ele>897.0</ele><time>2026-04-11T08:00:27.815Z</time></trkpt><trkpt lat="41.8285183" lon="13.167065"><ele>897.0</ele><time>2026-04-11T08:00:28.813Z</time></trkpt><trkpt lat="41.8284417" lon="13.1673283"><ele>896.3333333333333</ele><time>2026-04-11T08:00:29.81Z</time></trkpt><trkpt lat="41.8283833" lon="13.1676167"><ele>895.6666666666666</ele><time>2026-04-11T08:00:30.81Z</time></trkpt><trkpt lat="41.8283317" lon="13.1678983"><ele>895.0</ele><time>2026-04-11T08:00:31.811Z</time></trkpt><trkpt lat="41.8282867" lon="13.16816"><ele>895.3333333333333</ele><time>2026-04-11T08:00:32.81Z</time></trkpt><trkpt lat="41.82825" lon="13.1684067"><ele>895.6666666666667</ele><time>2026-04-11T08:00:33.811Z</time></trkpt><trkpt lat="41.8282233" lon="13.1686533"><ele>896.0</ele><time>2026-04-11T08:00:34.811Z</time></trkpt><trkpt lat="41.8282233" lon="13.168915"><ele>896.6666666666667</ele><time>2026-04-11T08:00:35.812Z</time></trkpt><trkpt lat="41.8282417" lon="13.1692"><ele>897.3333333333333</ele><time>2026-04-11T08:00:36.811Z</time></trkpt><trkpt lat="41.8282583" lon="13.1695033"><ele>898.0</ele><time>2026-04-11T08:00:37.811Z</time></trkpt><trkpt lat="41.828275" lon="13.1698033"><ele>898.3333333333333</ele><time>2026-04-11T08:00:38.811Z</time></trkpt><trkpt lat="41.8283" lon="13.170085"><ele>898.6666666666667</ele><time>2026-04-11T08:00:39.811Z</time></trkpt><trkpt lat="41.82834" lon="13.17034"><ele>899.0</ele><time>2026-04-11T08:00:40.811Z</time></trkpt><trkpt lat="41.828395" lon="13.1705817"><ele>899.3333333333334</ele><time>2026-04-11T08:00:41.813Z</time></trkpt><trkpt lat="41.82847" lon="13.17081"><ele>899.6666666666667</ele><time>2026-04-11T08:00:42.812Z</time></trkpt><trkpt lat="41.8285583" lon="13.1710083"><ele>900.0</ele><time>2026-04-11T08:00:43.813Z</time></trkpt><trkpt lat="41.8286533" lon="13.171165"><ele>903.3333333333333</ele><time>2026-04-11T08:00:44.813Z</time></trkpt><trkpt lat="41.8287667" lon="13.1712883"><ele>906.6666666666666</ele><time>2026-04-11T08:00:45.812Z</time></trkpt><trkpt lat="41.8289117" lon="13.171395"><ele>910.0</ele><time>2026-04-11T08:00:46.813Z</time></trkpt><trkpt lat="41.8290683" lon="13.1714867"><ele>911.6666666666666</ele><time>2026-04-11T08:00:47.813Z</time></trkpt><trkpt lat="41.8292267" lon="13.1715717"><ele>913.3333333333333</ele><time>2026-04-11T08:00:48.813Z</time></trkpt><trkpt lat="41.8293817" lon="13.1716567"><ele>915.0</ele><time>2026-04-11T08:00:49.813Z</time></trkpt><trkpt lat="41.8295067" lon="13.1717467"><ele>915.0</ele><time>2026-04-11T08:00:50.813Z</time></trkpt><trkpt lat="41.8296" lon="13.171835"><ele>915.0</ele><time>2026-04-11T08:00:51.814Z</time></trkpt><trkpt lat="41.8296617" lon="13.171925"><ele>915.0</ele><time>2026-04-11T08:00:52.814Z</time></trkpt><trkpt lat="41.8297017" lon="13.172025"><ele>915.0</ele><time>2026-04-11T08:00:53.813Z</time></trkpt><trkpt lat="41.8297017" lon="13.172125"><ele>915.0</ele><time>2026-04-11T08:00:54.813Z</time></trkpt><trkpt lat="41.8296667" lon="13.1722117"><ele>915.0</ele><time>2026-04-11T08:00:55.814Z</time></trkpt><trkpt lat="41.8295967" lon="13.1722633"><ele>915.0</ele><time>2026-04-11T08:00:56.818Z</time></trkpt><trkpt lat="41.829495" lon="13.1722917"><ele>915.0</ele><time>2026-04-11T08:00:57.813Z</time></trkpt><trkpt lat="41.829375" lon="13.1723217"><ele>915.0</ele><time>2026-04-11T08:00:58.811Z</time></trkpt><trkpt lat="41.8292683" lon="13.1723933"><ele>915.0</ele><time>2026-04-11T08:00:59.811Z</time></trkpt><trkpt lat="41.8292183" lon="13.1725117"><ele>915.0</ele><time>2026-04-11T08:01:00.811Z</time></trkpt><trkpt lat="41.8292083" lon="13.1726683"><ele>912.6666666666667</ele><time>2026-04-11T08:01:01.811Z</time></trkpt><trkpt lat="41.8292317" lon="13.172855"><ele>910.3333333333334</ele><time>2026-04-11T08:01:02.811Z</time></trkpt><trkpt lat="41.8292883" lon="13.1730617"><ele>908.0</ele><time>2026-04-11T08:01:03.811Z</time></trkpt><trkpt lat="41.8293583" lon="13.17327"><ele>913.0</ele><time>2026-04-11T08:01:04.81Z</time></trkpt><trkpt lat="41.82943" lon="13.1734817"><ele>918.0</ele><time>2026-04-11T08:01:05.814Z</time></trkpt><trkpt lat="41.8295017" lon="13.17371"><ele>923.0</ele><time>2026-04-11T08:01:06.812Z</time></trkpt><trkpt lat="41.82957" lon="13.173965"><ele>925.3333333333334</ele><time>2026-04-11T08:01:07.812Z</time></trkpt><trkpt lat="41.8296283" lon="13.1742283"><ele>927.6666666666667</ele><time>2026-04-11T08:01:08.812Z</time></trkpt><trkpt lat="41.8296817" lon="13.174475"><ele>930.0</ele><time>2026-04-11T08:01:09.813Z</time></trkpt><trkpt lat="41.8297417" lon="13.17469"><ele>930.25</ele><time>2026-04-11T08:01:10.811Z</time></trkpt><trkpt lat="41.829815" lon="13.1748717"><ele>930.5</ele><time>2026-04-11T08:01:11.814Z</time></trkpt><trkpt lat="41.8298767" lon="13.17503"><ele>930.75</ele><time>2026-04-11T08:01:12.814Z</time></trkpt><trkpt lat="41.8299133" lon="13.1751667"><ele>931.0</ele><time>2026-04-11T08:01:13.818Z</time></trkpt><trkpt lat="41.8299083" lon="13.1752833"><ele>931.0</ele><time>2026-04-11T08:01:14.814Z</time></trkpt><trkpt lat="41.8298833" lon="13.1753717"><ele>930.9999999999999</ele><time>2026-04-11T08:01:15.814Z</time></trkpt><trkpt lat="41.829775" lon="13.17546"><ele>930.9999999999999</ele><time>2026-04-11T08:01:17.811Z</time></trkpt><trkpt lat="41.8296967" lon="13.1754933"><ele>931.0</ele><time>2026-04-11T08:01:18.811Z</time></trkpt><trkpt lat="41.8295983" lon="13.1755583"><ele>931.0</ele><time>2026-04-11T08:01:19.81Z</time></trkpt><trkpt lat="41.8294917" lon="13.17568"><ele>933.6666666666666</ele><time>2026-04-11T08:01:20.811Z</time></trkpt><trkpt lat="41.8294083" lon="13.175865"><ele>936.3333333333333</ele><time>2026-04-11T08:01:21.811Z</time></trkpt><trkpt lat="41.8293683" lon="13.17607"><ele>939.0</ele><time>2026-04-11T08:01:22.811Z</time></trkpt><trkpt lat="41.829355" lon="13.176295"><ele>939.0</ele><time>2026-04-11T08:01:23.81Z</time></trkpt><trkpt lat="41.8293433" lon="13.1765417"><ele>939.0</ele><time>2026-04-11T08:01:24.815Z</time></trkpt><trkpt lat="41.8293167" lon="13.1767783"><ele>939.0</ele><time>2026-04-11T08:01:25.814Z</time></trkpt><trkpt lat="41.8293033" lon="13.1769933"><ele>939.0</ele><time>2026-04-11T08:01:26.813Z</time></trkpt><trkpt lat="41.8293" lon="13.1771933"><ele>939.0</ele><time>2026-04-11T08:01:27.813Z</time></trkpt><trkpt lat="41.8293233" lon="13.1773967"><ele>939.0</ele><time>2026-04-11T08:01:28.814Z</time></trkpt><trkpt lat="41.829375" lon="13.1776117"><ele>941.0</ele><time>2026-04-11T08:01:29.81Z</time></trkpt><trkpt lat="41.8294317" lon="13.1778067"><ele>943.0</ele><time>2026-04-11T08:01:30.815Z</time></trkpt><trkpt lat="41.829515" lon="13.177985"><ele>945.0</ele><time>2026-04-11T08:01:31.812Z</time></trkpt><trkpt lat="41.8296283" lon="13.1781383"><ele>943.6666666666667</ele><time>2026-04-11T08:01:32.814Z</time></trkpt><trkpt lat="41.829765" lon="13.1782783"><ele>942.3333333333334</ele><time>2026-04-11T08:01:33.81Z</time></trkpt><trkpt lat="41.82991" lon="13.1784333"><ele>941.0</ele><time>2026-04-11T08:01:34.812Z</time></trkpt><trkpt lat="41.830045" lon="13.1786067"><ele>942.6666666666667</ele><time>2026-04-11T08:01:35.813Z</time></trkpt><trkpt lat="41.830165" lon="13.178785"><ele>944.3333333333333</ele><time>2026-04-11T08:01:36.813Z</time></trkpt><trkpt lat="41.830265" lon="13.178975"><ele>946.0</ele><time>2026-04-11T08:01:37.814Z</time></trkpt><trkpt lat="41.8303483" lon="13.1791883"><ele>946.0</ele><time>2026-04-11T08:01:38.811Z</time></trkpt><trkpt lat="41.83044" lon="13.1794233"><ele>946.0</ele><time>2026-04-11T08:01:39.813Z</time></trkpt><trkpt lat="41.8305367" lon="13.179665"><ele>946.0</ele><time>2026-04-11T08:01:40.813Z</time></trkpt><trkpt lat="41.83063" lon="13.1798867"><ele>945.0</ele><time>2026-04-11T08:01:41.814Z</time></trkpt><trkpt lat="41.8307117" lon="13.180075"><ele>944.0</ele><time>2026-04-11T08:01:42.814Z</time></trkpt><trkpt lat="41.8307833" lon="13.1802367"><ele>943.0</ele><time>2026-04-11T08:01:43.814Z</time></trkpt><trkpt lat="41.8308633" lon="13.1803633"><ele>942.0</ele><time>2026-04-11T08:01:44.814Z</time></trkpt><trkpt lat="41.8309667" lon="13.1804617"><ele>943.0</ele><time>2026-04-11T08:01:45.813Z</time></trkpt><trkpt lat="41.8311083" lon="13.1805317"><ele>944.0</ele><time>2026-04-11T08:01:46.813Z</time></trkpt><trkpt lat="41.8312667" lon="13.1805867"><ele>945.0</ele><time>2026-04-11T08:01:47.814Z</time></trkpt><trkpt lat="41.8314233" lon="13.18065"><ele>944.0</ele><time>2026-04-11T08:01:48.813Z</time></trkpt><trkpt lat="41.831565" lon="13.1807417"><ele>943.0</ele><time>2026-04-11T08:01:49.811Z</time></trkpt><trkpt lat="41.8317" lon="13.180865"><ele>942.0</ele><time>2026-04-11T08:01:50.812Z</time></trkpt><trkpt lat="41.8318267" lon="13.180975"><ele>941.6666666666667</ele><time>2026-04-11T08:01:51.813Z</time></trkpt><trkpt lat="41.83196" lon="13.1810483"><ele>941.3333333333334</ele><time>2026-04-11T08:01:52.814Z</time></trkpt><trkpt lat="41.832115" lon="13.181075"><ele>941.0</ele><time>2026-04-11T08:01:53.814Z</time></trkpt><trkpt lat="41.8322717" lon="13.18108"><ele>941.0</ele><time>2026-04-11T08:01:54.813Z</time></trkpt><trkpt lat="41.83244" lon="13.1810467"><ele>941.0</ele><time>2026-04-11T08:01:55.813Z</time></trkpt><trkpt lat="41.83262" lon="13.180975"><ele>941.0</ele><time>2026-04-11T08:01:56.814Z</time></trkpt><trkpt lat="41.8328033" lon="13.1808983"><ele>939.3333333333334</ele><time>2026-04-11T08:01:57.815Z</time></trkpt><trkpt lat="41.8329867" lon="13.18084"><ele>937.6666666666667</ele><time>2026-04-11T08:01:58.811Z</time></trkpt><trkpt lat="41.8331633" lon="13.1808133"><ele>936.0</ele><time>2026-04-11T08:01:59.812Z</time></trkpt><trkpt lat="41.8333233" lon="13.18083"><ele>934.25</ele><time>2026-04-11T08:02:00.811Z</time></trkpt><trkpt lat="41.8334783" lon="13.1808783"><ele>932.5</ele><time>2026-04-11T08:02:01.812Z</time></trkpt><trkpt lat="41.83362" lon="13.180945"><ele>930.75</ele><time>2026-04-11T08:02:02.811Z</time></trkpt><trkpt lat="41.833745" lon="13.1809833"><ele>929.0</ele><time>2026-04-11T08:02:03.812Z</time></trkpt><trkpt lat="41.8338583" lon="13.1809667"><ele>929.0</ele><time>2026-04-11T08:02:04.813Z</time></trkpt><trkpt lat="41.8339667" lon="13.180905"><ele>929.0</ele><time>2026-04-11T08:02:05.813Z</time></trkpt><trkpt lat="41.8340683" lon="13.1807767"><ele>929.0</ele><time>2026-04-11T08:02:06.814Z</time></trkpt><trkpt lat="41.834175" lon="13.1806183"><ele>929.0</ele><time>2026-04-11T08:02:07.81Z</time></trkpt><trkpt lat="41.8342917" lon="13.18045"><ele>926.3333333333334</ele><time>2026-04-11T08:02:08.815Z</time></trkpt><trkpt lat="41.8344083" lon="13.1802867"><ele>923.6666666666667</ele><time>2026-04-11T08:02:09.81Z</time></trkpt><trkpt lat="41.8345017" lon="13.18011"><ele>921.0</ele><time>2026-04-11T08:02:10.812Z</time></trkpt><trkpt lat="41.8345717" lon="13.1799133"><ele>923.0</ele><time>2026-04-11T08:02:11.813Z</time></trkpt><trkpt lat="41.834635" lon="13.179735"><ele>925.0</ele><time>2026-04-11T08:02:12.814Z</time></trkpt><trkpt lat="41.8347067" lon="13.1796"><ele>927.0</ele><time>2026-04-11T08:02:13.813Z</time></trkpt><trkpt lat="41.8347867" lon="13.1795133"><ele>929.0</ele><time>2026-04-11T08:02:14.814Z</time></trkpt><trkpt lat="41.8348967" lon="13.1794833"><ele>929.0</ele><time>2026-04-11T08:02:15.811Z</time></trkpt><trkpt lat="41.8350283" lon="13.1794967"><ele>929.0</ele><time>2026-04-11T08:02:16.811Z</time></trkpt><trkpt lat="41.8351817" lon="13.17954"><ele>929.0</ele><time>2026-04-11T08:02:17.814Z</time></trkpt><trkpt lat="41.8353467" lon="13.1795817"><ele>932.6666666666667</ele><time>2026-04-11T08:02:18.813Z</time></trkpt><trkpt lat="41.8355183" lon="13.1796267"><ele>936.3333333333333</ele><time>2026-04-11T08:02:19.812Z</time></trkpt><trkpt lat="41.8356883" lon="13.1797067"><ele>940.0</ele><time>2026-04-11T08:02:20.812Z</time></trkpt><trkpt lat="41.83585" lon="13.1798"><ele>935.3333333333333</ele><time>2026-04-11T08:02:21.812Z</time></trkpt><trkpt lat="41.836015" lon="13.1799033"><ele>930.6666666666667</ele><time>2026-04-11T08:02:22.812Z</time></trkpt><trkpt lat="41.8361917" lon="13.1800033"><ele>926.0</ele><time>2026-04-11T08:02:23.811Z</time></trkpt><trkpt lat="41.836365" lon="13.1800833"><ele>926.0</ele><time>2026-04-11T08:02:24.811Z</time></trkpt><trkpt lat="41.8365317" lon="13.18013"><ele>926.0</ele><time>2026-04-11T08:02:25.816Z</time></trkpt><trkpt lat="41.8367067" lon="13.1801467"><ele>926.0</ele><time>2026-04-11T08:02:26.811Z</time></trkpt><trkpt lat="41.8368967" lon="13.1801317"><ele>923.3333333333334</ele><time>2026-04-11T08:02:27.81Z</time></trkpt><trkpt lat="41.8370833" lon="13.1800917"><ele>920.6666666666667</ele><time>2026-04-11T08:02:28.81Z</time></trkpt><trkpt lat="41.83725" lon="13.1800333"><ele>918.0</ele><time>2026-04-11T08:02:29.812Z</time></trkpt><trkpt lat="41.8374" lon="13.1799517"><ele>919.6666666666667</ele><time>2026-04-11T08:02:30.811Z</time></trkpt><trkpt lat="41.8375433" lon="13.1798333"><ele>921.3333333333334</ele><time>2026-04-11T08:02:31.812Z</time></trkpt><trkpt lat="41.8376767" lon="13.1796633"><ele>923.0</ele><time>2026-04-11T08:02:32.811Z</time></trkpt><trkpt lat="41.83781" lon="13.1794417"><ele>919.3333333333334</ele><time>2026-04-11T08:02:33.811Z</time></trkpt><trkpt lat="41.837925" lon="13.1792133"><ele>915.6666666666667</ele><time>2026-04-11T08:02:34.815Z</time></trkpt><trkpt lat="41.8380333" lon="13.1790183"><ele>912.0</ele><time>2026-04-11T08:02:35.813Z</time></trkpt><trkpt lat="41.8381783" lon="13.1788533"><ele>912.0</ele><time>2026-04-11T08:02:36.81Z</time></trkpt><trkpt lat="41.8383567" lon="13.1786883"><ele>912.0</ele><time>2026-04-11T08:02:37.812Z</time></trkpt><trkpt lat="41.8385583" lon="13.1785317"><ele>905.5</ele><time>2026-04-11T08:02:38.812Z</time></trkpt><trkpt lat="41.8387683" lon="13.1783617"><ele>899.0</ele><time>2026-04-11T08:02:39.813Z</time></trkpt><trkpt lat="41.8389717" lon="13.1781983"><ele>900.0</ele><time>2026-04-11T08:02:40.818Z</time></trkpt><trkpt lat="41.8391533" lon="13.1780617"><ele>901.0</ele><time>2026-04-11T08:02:41.811Z</time></trkpt><trkpt lat="41.8393133" lon="13.17796"><ele>902.0</ele><time>2026-04-11T08:02:42.812Z</time></trkpt><trkpt lat="41.8394617" lon="13.17791"><ele>897.6666666666667</ele><time>2026-04-11T08:02:43.813Z</time></trkpt><trkpt lat="41.839625" lon="13.1779267"><ele>893.3333333333333</ele><time>2026-04-11T08:02:44.814Z</time></trkpt><trkpt lat="41.8397983" lon="13.1779417"><ele>889.0</ele><time>2026-04-11T08:02:45.811Z</time></trkpt><trkpt lat="41.84" lon="13.1779283"><ele>884.6666666666666</ele><time>2026-04-11T08:02:46.814Z</time></trkpt><trkpt lat="41.8401967" lon="13.1779017"><ele>880.3333333333333</ele><time>2026-04-11T08:02:47.813Z</time></trkpt><trkpt lat="41.8403867" lon="13.1778867"><ele>876.0</ele><time>2026-04-11T08:02:48.814Z</time></trkpt><trkpt lat="41.8405717" lon="13.17791"><ele>876.0</ele><time>2026-04-11T08:02:49.811Z</time></trkpt><trkpt lat="41.840755" lon="13.1779617"><ele>876.0</ele><time>2026-04-11T08:02:50.814Z</time></trkpt><trkpt lat="41.8409283" lon="13.17805"><ele>876.0</ele><time>2026-04-11T08:02:51.814Z</time></trkpt><trkpt lat="41.841095" lon="13.1781667"><ele>876.3333333333333</ele><time>2026-04-11T08:02:52.813Z</time></trkpt><trkpt lat="41.8412617" lon="13.1783117"><ele>876.6666666666666</ele><time>2026-04-11T08:02:53.81Z</time></trkpt><trkpt lat="41.84142" lon="13.17847"><ele>877.0</ele><time>2026-04-11T08:02:54.812Z</time></trkpt><trkpt lat="41.8415633" lon="13.1786417"><ele>877.0</ele><time>2026-04-11T08:02:55.815Z</time></trkpt><trkpt lat="41.8416917" lon="13.1788217"><ele>877.0</ele><time>2026-04-11T08:02:56.811Z</time></trkpt><trkpt lat="41.8418" lon="13.1790317"><ele>877.0</ele><time>2026-04-11T08:02:57.814Z</time></trkpt><trkpt lat="41.841895" lon="13.1792417"><ele>875.6666666666666</ele><time>2026-04-11T08:02:58.812Z</time></trkpt><trkpt lat="41.8419933" lon="13.1794467"><ele>874.3333333333333</ele><time>2026-04-11T08:02:59.81Z</time></trkpt><trkpt lat="41.8421017" lon="13.1796467"><ele>873.0</ele><time>2026-04-11T08:03:00.811Z</time></trkpt><trkpt lat="41.8422117" lon="13.1798433"><ele>872.0</ele><time>2026-04-11T08:03:01.81Z</time></trkpt><trkpt lat="41.8423083" lon="13.1800817"><ele>871.0</ele><time>2026-04-11T08:03:02.811Z</time></trkpt><trkpt lat="41.8424067" lon="13.180335"><ele>870.0</ele><time>2026-04-11T08:03:03.811Z</time></trkpt><trkpt lat="41.8424967" lon="13.1806117"><ele>870.0</ele><time>2026-04-11T08:03:04.815Z</time></trkpt><trkpt lat="41.84258" lon="13.1808933"><ele>870.0</ele><time>2026-04-11T08:03:05.814Z</time></trkpt><trkpt lat="41.8426533" lon="13.1811567"><ele>870.0</ele><time>2026-04-11T08:03:06.812Z</time></trkpt><trkpt lat="41.842715" lon="13.1814067"><ele>870.3333333333333</ele><time>2026-04-11T08:03:07.811Z</time></trkpt><trkpt lat="41.8427583" lon="13.18166"><ele>870.6666666666666</ele><time>2026-04-11T08:03:08.813Z</time></trkpt><trkpt lat="41.842785" lon="13.1819183"><ele>871.0</ele><time>2026-04-11T08:03:09.812Z</time></trkpt><trkpt lat="41.8428083" lon="13.1821567"><ele>870.3333333333333</ele><time>2026-04-11T08:03:10.813Z</time></trkpt><trkpt lat="41.8428417" lon="13.18237"><ele>869.6666666666667</ele><time>2026-04-11T08:03:11.81Z</time></trkpt><trkpt lat="41.842885" lon="13.1825633"><ele>869.0</ele><time>2026-04-11T08:03:12.813Z</time></trkpt><trkpt lat="41.8429533" lon="13.1827617"><ele>869.0</ele><time>2026-04-11T08:03:13.813Z</time></trkpt><trkpt lat="41.8430417" lon="13.18296"><ele>869.0</ele><time>2026-04-11T08:03:14.813Z</time></trkpt><trkpt lat="41.8431317" lon="13.1831567"><ele>869.0</ele><time>2026-04-11T08:03:15.814Z</time></trkpt><trkpt lat="41.8432083" lon="13.1833567"><ele>867.0</ele><time>2026-04-11T08:03:16.812Z</time></trkpt><trkpt lat="41.843255" lon="13.1835633"><ele>865.0</ele><time>2026-04-11T08:03:17.813Z</time></trkpt><trkpt lat="41.8433" lon="13.183755"><ele>863.0</ele><time>2026-04-11T08:03:18.811Z</time></trkpt><trkpt lat="41.8433667" lon="13.1839433"><ele>861.3333333333334</ele><time>2026-04-11T08:03:19.812Z</time></trkpt><trkpt lat="41.8434517" lon="13.1841267"><ele>859.6666666666667</ele><time>2026-04-11T08:03:20.812Z</time></trkpt><trkpt lat="41.843555" lon="13.18429"><ele>858.0</ele><time>2026-04-11T08:03:21.813Z</time></trkpt><trkpt lat="41.8436583" lon="13.184435"><ele>857.5</ele><time>2026-04-11T08:03:22.813Z</time></trkpt><trkpt lat="41.8437517" lon="13.1845683"><ele>857.0</ele><time>2026-04-11T08:03:23.812Z</time></trkpt><trkpt lat="41.8438433" lon="13.1846883"><ele>856.5</ele><time>2026-04-11T08:03:24.811Z</time></trkpt><trkpt lat="41.8439283" lon="13.1848017"><ele>856.0</ele><time>2026-04-11T08:03:25.814Z</time></trkpt><trkpt lat="41.8440083" lon="13.1849133"><ele>856.0</ele><time>2026-04-11T08:03:26.814Z</time></trkpt><trkpt lat="41.844085" lon="13.1850233"><ele>855.9999999999999</ele><time>2026-04-11T08:03:27.813Z</time></trkpt><trkpt lat="41.8441567" lon="13.18513"><ele>855.9999999999999</ele><time>2026-04-11T08:03:28.812Z</time></trkpt><trkpt lat="41.8442267" lon="13.1852367"><ele>856.0</ele><time>2026-04-11T08:03:29.812Z</time></trkpt><trkpt lat="41.844285" lon="13.1853483"><ele>856.0</ele><time>2026-04-11T08:03:30.814Z</time></trkpt><trkpt lat="41.8443267" lon="13.1854683"><ele>855.8</ele><time>2026-04-11T08:03:31.813Z</time></trkpt><trkpt lat="41.8443483" lon="13.1856"><ele>855.5999999999999</ele><time>2026-04-11T08:03:32.81Z</time></trkpt><trkpt lat="41.8443467" lon="13.1857383"><ele>855.4</ele><time>2026-04-11T08:03:33.811Z</time></trkpt><trkpt lat="41.8443283" lon="13.185875"><ele>855.2</ele><time>2026-04-11T08:03:34.811Z</time></trkpt><trkpt lat="41.8443" lon="13.1860117"><ele>855.0</ele><time>2026-04-11T08:03:35.811Z</time></trkpt><trkpt lat="41.8442717" lon="13.1861467"><ele>855.0</ele><time>2026-04-11T08:03:36.812Z</time></trkpt><trkpt lat="41.844255" lon="13.1862717"><ele>855.0</ele><time>2026-04-11T08:03:37.814Z</time></trkpt><trkpt lat="41.8442567" lon="13.1863967"><ele>855.0</ele><time>2026-04-11T08:03:38.814Z</time></trkpt><trkpt lat="41.84428" lon="13.1865167"><ele>855.0</ele><time>2026-04-11T08:03:39.811Z</time></trkpt><trkpt lat="41.844325" lon="13.1866267"><ele>855.0</ele><time>2026-04-11T08:03:40.81Z</time></trkpt><trkpt lat="41.8443833" lon="13.1867133"><ele>853.8333333333334</ele><time>2026-04-11T08:03:41.813Z</time></trkpt><trkpt lat="41.8444417" lon="13.1867683"><ele>852.6666666666667</ele><time>2026-04-11T08:03:42.813Z</time></trkpt><trkpt lat="41.844525" lon="13.186845"><ele>851.5</ele><time>2026-04-11T08:03:44.812Z</time></trkpt><trkpt lat="41.8445933" lon="13.1868733"><ele>850.3333333333334</ele><time>2026-04-11T08:03:46.814Z</time></trkpt><trkpt lat="41.8445333" lon="13.1868217"><ele>849.1666666666667</ele><time>2026-04-11T08:17:47.81Z</time></trkpt><trkpt lat="41.8445833" lon="13.1868767"><ele>848.0</ele><time>2026-04-11T08:18:16.069Z</time></trkpt><trkpt lat="41.8446" lon="13.1867833"><ele>848.0</ele><time>2026-04-11T08:19:10.812Z</time></trkpt><trkpt lat="41.8445283" lon="13.1868333"><ele>848.0</ele><time>2026-04-11T08:19:13.81Z</time></trkpt><trkpt lat="41.844565" lon="13.1869083"><ele>848.0</ele><time>2026-04-11T08:19:16.811Z</time></trkpt><trkpt lat="41.8446" lon="13.186825"><ele>848.0</ele><time>2026-04-11T08:20:13.814Z</time></trkpt><trkpt lat="41.844645" lon="13.1867517"><ele>848.0</ele><time>2026-04-11T08:20:15.818Z</time></trkpt><trkpt lat="41.8446883" lon="13.1866883"><ele>848.0</ele><time>2026-04-11T08:20:16.813Z</time></trkpt><trkpt lat="41.844745" lon="13.18661"><ele>848.0</ele><time>2026-04-11T08:20:17.813Z</time></trkpt><trkpt lat="41.844795" lon="13.1865383"><ele>848.4</ele><time>2026-04-11T08:20:18.814Z</time></trkpt><trkpt lat="41.844845" lon="13.1864633"><ele>848.8</ele><time>2026-04-11T08:20:19.814Z</time></trkpt><trkpt lat="41.8449" lon="13.186375"><ele>849.2</ele><time>2026-04-11T08:20:20.813Z</time></trkpt><trkpt lat="41.8449767" lon="13.1862633"><ele>849.6</ele><time>2026-04-11T08:20:21.814Z</time></trkpt><trkpt lat="41.8450517" lon="13.1861533"><ele>850.0</ele><time>2026-04-11T08:20:22.814Z</time></trkpt><trkpt lat="41.845125" lon="13.1860467"><ele>849.8</ele><time>2026-04-11T08:20:23.814Z</time></trkpt><trkpt lat="41.845205" lon="13.1859417"><ele>849.6</ele><time>2026-04-11T08:20:24.814Z</time></trkpt><trkpt lat="41.8452883" lon="13.1858417"><ele>849.4000000000001</ele><time>2026-04-11T08:20:25.813Z</time></trkpt><trkpt lat="41.8453683" lon="13.18575"><ele>849.2</ele><time>2026-04-11T08:20:26.811Z</time></trkpt><trkpt lat="41.8454433" lon="13.18566"><ele>849.0</ele><time>2026-04-11T08:20:27.814Z</time></trkpt><trkpt lat="41.8455317" lon="13.1855817"><ele>849.25</ele><time>2026-04-11T08:20:28.813Z</time></trkpt><trkpt lat="41.84563" lon="13.18552"><ele>849.5</ele><time>2026-04-11T08:20:29.814Z</time></trkpt><trkpt lat="41.845735" lon="13.1854667"><ele>849.75</ele><time>2026-04-11T08:20:30.812Z</time></trkpt><trkpt lat="41.8458567" lon="13.1854367"><ele>850.0</ele><time>2026-04-11T08:20:31.813Z</time></trkpt><trkpt lat="41.84598" lon="13.1854267"><ele>850.0</ele><time>2026-04-11T08:20:32.814Z</time></trkpt><trkpt lat="41.8461017" lon="13.1854367"><ele>850.0</ele><time>2026-04-11T08:20:33.81Z</time></trkpt><trkpt lat="41.8462133" lon="13.1854833"><ele>850.0</ele><time>2026-04-11T08:20:34.811Z</time></trkpt><trkpt lat="41.846315" lon="13.1855583"><ele>850.0</ele><time>2026-04-11T08:20:35.812Z</time></trkpt><trkpt lat="41.8464217" lon="13.1856433"><ele>850.25</ele><time>2026-04-11T08:20:36.811Z</time></trkpt><trkpt lat="41.846525" lon="13.1857417"><ele>850.5</ele><time>2026-04-11T08:20:37.813Z</time></trkpt><trkpt lat="41.8466233" lon="13.1858583"><ele>850.75</ele><time>2026-04-11T08:20:38.814Z</time></trkpt><trkpt lat="41.84672" lon="13.1859983"><ele>851.0</ele><time>2026-04-11T08:20:39.814Z</time></trkpt><trkpt lat="41.8468267" lon="13.1861333"><ele>851.0</ele><time>2026-04-11T08:20:40.81Z</time></trkpt><trkpt lat="41.8469367" lon="13.1862733"><ele>851.0</ele><time>2026-04-11T08:20:41.813Z</time></trkpt><trkpt lat="41.8470517" lon="13.186415"><ele>851.0</ele><time>2026-04-11T08:20:42.814Z</time></trkpt><trkpt lat="41.847175" lon="13.1865617"><ele>851.3333333333334</ele><time>2026-04-11T08:20:43.814Z</time></trkpt><trkpt lat="41.847305" lon="13.1867183"><ele>851.6666666666667</ele><time>2026-04-11T08:20:44.814Z</time></trkpt><trkpt lat="41.8474333" lon="13.1868783"><ele>852.0</ele><time>2026-04-11T08:20:45.813Z</time></trkpt><trkpt lat="41.8475567" lon="13.1870333"><ele>850.3333333333333</ele><time>2026-04-11T08:20:46.811Z</time></trkpt><trkpt lat="41.8476817" lon="13.187185"><ele>848.6666666666666</ele><time>2026-04-11T08:20:47.814Z</time></trkpt><trkpt lat="41.8478033" lon="13.1873367"><ele>847.0</ele><time>2026-04-11T08:20:48.814Z</time></trkpt><trkpt lat="41.8479167" lon="13.18748"><ele>847.0</ele><time>2026-04-11T08:20:49.814Z</time></trkpt><trkpt lat="41.8480283" lon="13.18761"><ele>847.0</ele><time>2026-04-11T08:20:50.814Z</time></trkpt><trkpt lat="41.8481317" lon="13.187735"><ele>847.0</ele><time>2026-04-11T08:20:51.814Z</time></trkpt><trkpt lat="41.84821" lon="13.1878683"><ele>847.0</ele><time>2026-04-11T08:20:52.813Z</time></trkpt><trkpt lat="41.848275" lon="13.1880133"><ele>847.0</ele><time>2026-04-11T08:20:53.814Z</time></trkpt><trkpt lat="41.8483417" lon="13.188175"><ele>847.0</ele><time>2026-04-11T08:20:54.813Z</time></trkpt><trkpt lat="41.84841" lon="13.1883383"><ele>847.0</ele><time>2026-04-11T08:20:55.816Z</time></trkpt><trkpt lat="41.848475" lon="13.188505"><ele>847.0</ele><time>2026-04-11T08:20:56.811Z</time></trkpt><trkpt lat="41.8485383" lon="13.188675"><ele>846.75</ele><time>2026-04-11T08:20:57.905Z</time></trkpt><trkpt lat="41.8486083" lon="13.1888317"><ele>846.5</ele><time>2026-04-11T08:20:58.81Z</time></trkpt><trkpt lat="41.848705" lon="13.1889717"><ele>846.25</ele><time>2026-04-11T08:20:59.813Z</time></trkpt><trkpt lat="41.8488167" lon="13.1890917"><ele>846.0</ele><time>2026-04-11T08:21:00.81Z</time></trkpt><trkpt lat="41.8489417" lon="13.1892067"><ele>846.0</ele><time>2026-04-11T08:21:01.81Z</time></trkpt><trkpt lat="41.8490567" lon="13.1893267"><ele>846.0</ele><time>2026-04-11T08:21:02.817Z</time></trkpt><trkpt lat="41.8491633" lon="13.189445"><ele>846.0</ele><time>2026-04-11T08:21:03.809Z</time></trkpt><trkpt lat="41.84926" lon="13.1895633"><ele>846.0</ele><time>2026-04-11T08:21:04.814Z</time></trkpt><trkpt lat="41.8493517" lon="13.18968"><ele>846.1999999999999</ele><time>2026-04-11T08:21:05.814Z</time></trkpt><trkpt lat="41.8494317" lon="13.1897917"><ele>846.4</ele><time>2026-04-11T08:21:06.814Z</time></trkpt><trkpt lat="41.8495067" lon="13.18989"><ele>846.6</ele><time>2026-04-11T08:21:07.814Z</time></trkpt><trkpt lat="41.8495717" lon="13.1899833"><ele>846.8</ele><time>2026-04-11T08:21:08.814Z</time></trkpt><trkpt lat="41.8496333" lon="13.19006"><ele>847.0</ele><time>2026-04-11T08:21:09.81Z</time></trkpt><trkpt lat="41.849685" lon="13.190125"><ele>847.0</ele><time>2026-04-11T08:21:10.813Z</time></trkpt><trkpt lat="41.8497567" lon="13.1902483"><ele>847.0</ele><time>2026-04-11T08:21:12.813Z</time></trkpt><trkpt lat="41.8497733" lon="13.190405"><ele>847.0</ele><time>2026-04-11T08:21:14.812Z</time></trkpt><trkpt lat="41.8497667" lon="13.1905083"><ele>847.0</ele><time>2026-04-11T08:21:15.813Z</time></trkpt><trkpt lat="41.8497533" lon="13.1906267"><ele>847.0</ele><time>2026-04-11T08:21:16.813Z</time></trkpt><trkpt lat="41.8497367" lon="13.1907583"><ele>846.6</ele><time>2026-04-11T08:21:17.815Z</time></trkpt><trkpt lat="41.8497217" lon="13.19089"><ele>846.2</ele><time>2026-04-11T08:21:18.813Z</time></trkpt><trkpt lat="41.8497033" lon="13.1910233"><ele>845.8</ele><time>2026-04-11T08:21:19.813Z</time></trkpt><trkpt lat="41.84968" lon="13.191175"><ele>845.4</ele><time>2026-04-11T08:21:20.812Z</time></trkpt><trkpt lat="41.8496567" lon="13.191335"><ele>845.0</ele><time>2026-04-11T08:21:21.812Z</time></trkpt><trkpt lat="41.8496333" lon="13.1915033"><ele>845.75</ele><time>2026-04-11T08:21:22.812Z</time></trkpt><trkpt lat="41.849605" lon="13.19167"><ele>846.5</ele><time>2026-04-11T08:21:23.813Z</time></trkpt><trkpt lat="41.8495783" lon="13.1918367"><ele>847.25</ele><time>2026-04-11T08:21:24.813Z</time></trkpt><trkpt lat="41.8495517" lon="13.1920083"><ele>848.0</ele><time>2026-04-11T08:21:25.813Z</time></trkpt><trkpt lat="41.8495267" lon="13.1921783"><ele>848.0</ele><time>2026-04-11T08:21:26.812Z</time></trkpt><trkpt lat="41.8495033" lon="13.1923367"><ele>848.0</ele><time>2026-04-11T08:21:27.812Z</time></trkpt><trkpt lat="41.8494817" lon="13.1924833"><ele>848.0</ele><time>2026-04-11T08:21:28.812Z</time></trkpt><trkpt lat="41.8494617" lon="13.1926117"><ele>848.0</ele><time>2026-04-11T08:21:29.813Z</time></trkpt><trkpt lat="41.849445" lon="13.1927167"><ele>848.0</ele><time>2026-04-11T08:21:30.814Z</time></trkpt><trkpt lat="41.84943" lon="13.192805"><ele>848.2</ele><time>2026-04-11T08:21:31.813Z</time></trkpt><trkpt lat="41.8493917" lon="13.1929483"><ele>848.4</ele><time>2026-04-11T08:21:33.813Z</time></trkpt><trkpt lat="41.8493583" lon="13.1930433"><ele>848.6</ele><time>2026-04-11T08:21:35.812Z</time></trkpt><trkpt lat="41.8493817" lon="13.1931283"><ele>848.8000000000001</ele><time>2026-04-11T08:21:37.813Z</time></trkpt><trkpt lat="41.8494583" lon="13.193225"><ele>849.0</ele><time>2026-04-11T08:21:39.819Z</time></trkpt><trkpt lat="41.8495133" lon="13.19334"><ele>849.0</ele><time>2026-04-11T08:21:41.81Z</time></trkpt><trkpt lat="41.8495633" lon="13.19348"><ele>849.0</ele><time>2026-04-11T08:21:43.812Z</time></trkpt><trkpt lat="41.849595" lon="13.193565"><ele>849.0</ele><time>2026-04-11T08:21:44.812Z</time></trkpt><trkpt lat="41.8496233" lon="13.1936517"><ele>849.0</ele><time>2026-04-11T08:21:45.809Z</time></trkpt><trkpt lat="41.8496517" lon="13.19374"><ele>849.0</ele><time>2026-04-11T08:21:46.809Z</time></trkpt><trkpt lat="41.84968" lon="13.1938317"><ele>849.0</ele><time>2026-04-11T08:21:47.81Z</time></trkpt><trkpt lat="41.84971" lon="13.1939233"><ele>849.6666666666666</ele><time>2026-04-11T08:21:48.81Z</time></trkpt><trkpt lat="41.8497383" lon="13.19402"><ele>850.3333333333333</ele><time>2026-04-11T08:21:49.81Z</time></trkpt><trkpt lat="41.8497717" lon="13.194115"><ele>851.0</ele><time>2026-04-11T08:21:50.811Z</time></trkpt><trkpt lat="41.8498067" lon="13.19421"><ele>851.6666666666666</ele><time>2026-04-11T08:21:51.81Z</time></trkpt><trkpt lat="41.849845" lon="13.1943033"><ele>852.3333333333333</ele><time>2026-04-11T08:21:52.81Z</time></trkpt><trkpt lat="41.8498833" lon="13.1944"><ele>853.0</ele><time>2026-04-11T08:21:53.811Z</time></trkpt><trkpt lat="41.8499183" lon="13.1944967"><ele>852.9999999999999</ele><time>2026-04-11T08:21:54.811Z</time></trkpt><trkpt lat="41.84995" lon="13.1946"><ele>853.0</ele><time>2026-04-11T08:21:55.814Z</time></trkpt><trkpt lat="41.84998" lon="13.194705"><ele>853.0</ele><time>2026-04-11T08:21:56.81Z</time></trkpt><trkpt lat="41.8500083" lon="13.19481"><ele>853.0</ele><time>2026-04-11T08:21:57.809Z</time></trkpt><trkpt lat="41.850035" lon="13.194915"><ele>852.9999999999999</ele><time>2026-04-11T08:21:58.811Z</time></trkpt><trkpt lat="41.8500617" lon="13.19502"><ele>853.0</ele><time>2026-04-11T08:21:59.812Z</time></trkpt><trkpt lat="41.85009" lon="13.1951217"><ele>853.6666666666666</ele><time>2026-04-11T08:22:00.809Z</time></trkpt><trkpt lat="41.8501267" lon="13.1952183"><ele>854.3333333333333</ele><time>2026-04-11T08:22:01.81Z</time></trkpt><trkpt lat="41.85017" lon="13.1953083"><ele>855.0</ele><time>2026-04-11T08:22:02.811Z</time></trkpt><trkpt lat="41.8502383" lon="13.195375"><ele>855.6666666666667</ele><time>2026-04-11T08:22:03.81Z</time></trkpt><trkpt lat="41.8503067" lon="13.1954333"><ele>856.3333333333334</ele><time>2026-04-11T08:22:04.81Z</time></trkpt><trkpt lat="41.8503783" lon="13.1954883"><ele>857.0</ele><time>2026-04-11T08:22:05.81Z</time></trkpt><trkpt lat="41.85045" lon="13.19554"><ele>857.0000000000001</ele><time>2026-04-11T08:22:06.81Z</time></trkpt><trkpt lat="41.8505167" lon="13.1956017"><ele>857.0</ele><time>2026-04-11T08:22:07.813Z</time></trkpt><trkpt lat="41.850585" lon="13.195665"><ele>857.0</ele><time>2026-04-11T08:22:08.813Z</time></trkpt><trkpt lat="41.8506567" lon="13.1957283"><ele>857.0</ele><time>2026-04-11T08:22:09.814Z</time></trkpt><trkpt lat="41.8507217" lon="13.195805"><ele>857.0000000000001</ele><time>2026-04-11T08:22:10.813Z</time></trkpt><trkpt lat="41.8507867" lon="13.1958967"><ele>857.0</ele><time>2026-04-11T08:22:11.81Z</time></trkpt><trkpt lat="41.8508467" lon="13.1960067"><ele>857.0</ele><time>2026-04-11T08:22:12.812Z</time></trkpt><trkpt lat="41.8508917" lon="13.1961333"><ele>857.0</ele><time>2026-04-11T08:22:13.813Z</time></trkpt><trkpt lat="41.850915" lon="13.1962783"><ele>857.0</ele><time>2026-04-11T08:22:14.813Z</time></trkpt><trkpt lat="41.8509333" lon="13.1964383"><ele>857.0</ele><time>2026-04-11T08:22:15.815Z</time></trkpt><trkpt lat="41.85096" lon="13.1965983"><ele>858.6</ele><time>2026-04-11T08:22:16.814Z</time></trkpt><trkpt lat="41.851" lon="13.1967417"><ele>860.2</ele><time>2026-04-11T08:22:17.812Z</time></trkpt><trkpt lat="41.8510633" lon="13.1968517"><ele>861.8</ele><time>2026-04-11T08:22:18.811Z</time></trkpt><trkpt lat="41.851155" lon="13.1969317"><ele>863.4</ele><time>2026-04-11T08:22:19.813Z</time></trkpt><trkpt lat="41.8512583" lon="13.196975"><ele>865.0</ele><time>2026-04-11T08:22:20.812Z</time></trkpt><trkpt lat="41.8513783" lon="13.1969717"><ele>865.0</ele><time>2026-04-11T08:22:21.81Z</time></trkpt><trkpt lat="41.8515" lon="13.1969783"><ele>865.0</ele><time>2026-04-11T08:22:22.81Z</time></trkpt><trkpt lat="41.8516133" lon="13.1970017"><ele>865.0</ele><time>2026-04-11T08:22:23.81Z</time></trkpt><trkpt lat="41.85171" lon="13.1970533"><ele>865.0</ele><time>2026-04-11T08:22:24.813Z</time></trkpt><trkpt lat="41.8517867" lon="13.19715"><ele>865.0</ele><time>2026-04-11T08:22:25.812Z</time></trkpt><trkpt lat="41.851855" lon="13.1972917"><ele>866.25</ele><time>2026-04-11T08:22:26.812Z</time></trkpt><trkpt lat="41.85192" lon="13.1974617"><ele>867.5</ele><time>2026-04-11T08:22:27.815Z</time></trkpt><trkpt lat="41.8519917" lon="13.1976333"><ele>868.75</ele><time>2026-04-11T08:22:28.813Z</time></trkpt><trkpt lat="41.8520683" lon="13.1978033"><ele>870.0</ele><time>2026-04-11T08:22:29.813Z</time></trkpt><trkpt lat="41.8521533" lon="13.1979817"><ele>870.0</ele><time>2026-04-11T08:22:30.812Z</time></trkpt><trkpt lat="41.8522367" lon="13.1981667"><ele>870.0</ele><time>2026-04-11T08:22:31.809Z</time></trkpt><trkpt lat="41.8523083" lon="13.1983517"><ele>870.0</ele><time>2026-04-11T08:22:32.813Z</time></trkpt><trkpt lat="41.8523767" lon="13.1985183"><ele>869.4</ele><time>2026-04-11T08:22:33.813Z</time></trkpt><trkpt lat="41.8524367" lon="13.1986683"><ele>868.8</ele><time>2026-04-11T08:22:34.813Z</time></trkpt><trkpt lat="41.8524867" lon="13.1987983"><ele>868.2</ele><time>2026-04-11T08:22:35.812Z</time></trkpt><trkpt lat="41.85253" lon="13.1989133"><ele>867.6</ele><time>2026-04-11T08:22:36.813Z</time></trkpt><trkpt lat="41.8525667" lon="13.199015"><ele>867.0</ele><time>2026-04-11T08:22:37.812Z</time></trkpt><trkpt lat="41.8526" lon="13.1991117"><ele>867.2</ele><time>2026-04-11T08:22:38.813Z</time></trkpt><trkpt lat="41.8526333" lon="13.1992083"><ele>867.4000000000001</ele><time>2026-04-11T08:22:39.812Z</time></trkpt><trkpt lat="41.8526633" lon="13.1993067"><ele>867.5999999999999</ele><time>2026-04-11T08:22:40.813Z</time></trkpt><trkpt lat="41.8526867" lon="13.19942"><ele>867.8</ele><time>2026-04-11T08:22:41.813Z</time></trkpt><trkpt lat="41.8526883" lon="13.1995717"><ele>868.0</ele><time>2026-04-11T08:22:42.813Z</time></trkpt><trkpt lat="41.85269" lon="13.19976"><ele>863.6666666666666</ele><time>2026-04-11T08:22:43.813Z</time></trkpt><trkpt lat="41.8527067" lon="13.1999667"><ele>859.3333333333333</ele><time>2026-04-11T08:22:44.812Z</time></trkpt><trkpt lat="41.8527483" lon="13.200165"><ele>855.0</ele><time>2026-04-11T08:22:45.813Z</time></trkpt><trkpt lat="41.8528217" lon="13.2003467"><ele>855.0</ele><time>2026-04-11T08:22:46.812Z</time></trkpt><trkpt lat="41.8529217" lon="13.2005083"><ele>855.0</ele><time>2026-04-11T08:22:47.813Z</time></trkpt><trkpt lat="41.85301" lon="13.20066"><ele>855.0</ele><time>2026-04-11T08:22:48.813Z</time></trkpt><trkpt lat="41.85308" lon="13.2008267"><ele>855.0</ele><time>2026-04-11T08:22:49.811Z</time></trkpt><trkpt lat="41.853135" lon="13.2010433"><ele>854.0</ele><time>2026-04-11T08:22:50.812Z</time></trkpt><trkpt lat="41.8531717" lon="13.2013"><ele>853.0</ele><time>2026-04-11T08:22:51.81Z</time></trkpt><trkpt lat="41.8532083" lon="13.201555"><ele>852.0</ele><time>2026-04-11T08:22:52.812Z</time></trkpt><trkpt lat="41.8532417" lon="13.2017817"><ele>852.0</ele><time>2026-04-11T08:22:53.811Z</time></trkpt><trkpt lat="41.8532767" lon="13.2019733"><ele>852.0</ele><time>2026-04-11T08:22:54.813Z</time></trkpt><trkpt lat="41.853335" lon="13.2021333"><ele>852.0</ele><time>2026-04-11T08:22:55.813Z</time></trkpt><trkpt lat="41.8534083" lon="13.2022733"><ele>852.0</ele><time>2026-04-11T08:22:56.813Z</time></trkpt><trkpt lat="41.8534867" lon="13.2023883"><ele>845.8</ele><time>2026-04-11T08:22:57.813Z</time></trkpt><trkpt lat="41.8535417" lon="13.2025017"><ele>839.6</ele><time>2026-04-11T08:22:58.813Z</time></trkpt><trkpt lat="41.8535567" lon="13.2026283"><ele>833.4</ele><time>2026-04-11T08:22:59.814Z</time></trkpt><trkpt lat="41.85355" lon="13.202775"><ele>827.1999999999999</ele><time>2026-04-11T08:23:00.813Z</time></trkpt><trkpt lat="41.8535483" lon="13.202925"><ele>821.0</ele><time>2026-04-11T08:23:01.813Z</time></trkpt><trkpt lat="41.85358" lon="13.2030767"><ele>820.75</ele><time>2026-04-11T08:23:02.813Z</time></trkpt><trkpt lat="41.853635" lon="13.2032283"><ele>820.5</ele><time>2026-04-11T08:23:03.81Z</time></trkpt><trkpt lat="41.8536817" lon="13.20338"><ele>820.25</ele><time>2026-04-11T08:23:04.81Z</time></trkpt><trkpt lat="41.8537033" lon="13.2035483"><ele>820.0</ele><time>2026-04-11T08:23:05.813Z</time></trkpt><trkpt lat="41.85369" lon="13.2037333"><ele>820.0</ele><time>2026-04-11T08:23:06.813Z</time></trkpt><trkpt lat="41.853645" lon="13.20391"><ele>820.0</ele><time>2026-04-11T08:23:07.813Z</time></trkpt><trkpt lat="41.8535617" lon="13.2040717"><ele>820.0</ele><time>2026-04-11T08:23:08.812Z</time></trkpt><trkpt lat="41.8534667" lon="13.2042167"><ele>820.0</ele><time>2026-04-11T08:23:09.813Z</time></trkpt><trkpt lat="41.8533617" lon="13.2043333"><ele>828.0</ele><time>2026-04-11T08:23:10.812Z</time></trkpt><trkpt lat="41.8532433" lon="13.2044233"><ele>836.0</ele><time>2026-04-11T08:23:11.813Z</time></trkpt><trkpt lat="41.8531" lon="13.204495"><ele>844.0</ele><time>2026-04-11T08:23:12.81Z</time></trkpt><trkpt lat="41.8529333" lon="13.2045517"><ele>844.0</ele><time>2026-04-11T08:23:13.814Z</time></trkpt><trkpt lat="41.852805" lon="13.2046133"><ele>844.0</ele><time>2026-04-11T08:23:14.814Z</time></trkpt><trkpt lat="41.8527" lon="13.2046767"><ele>844.0</ele><time>2026-04-11T08:23:15.812Z</time></trkpt><trkpt lat="41.8526117" lon="13.204755"><ele>844.0</ele><time>2026-04-11T08:23:16.809Z</time></trkpt><trkpt lat="41.8525417" lon="13.204855"><ele>843.25</ele><time>2026-04-11T08:23:17.809Z</time></trkpt><trkpt lat="41.852495" lon="13.20499"><ele>842.5</ele><time>2026-04-11T08:23:18.809Z</time></trkpt><trkpt lat="41.8524733" lon="13.20517"><ele>841.75</ele><time>2026-04-11T08:23:19.815Z</time></trkpt><trkpt lat="41.85246" lon="13.2053583"><ele>841.0</ele><time>2026-04-11T08:23:20.81Z</time></trkpt><trkpt lat="41.852455" lon="13.2055333"><ele>841.0</ele><time>2026-04-11T08:23:21.811Z</time></trkpt><trkpt lat="41.85248" lon="13.2056933"><ele>841.0</ele><time>2026-04-11T08:23:22.811Z</time></trkpt><trkpt lat="41.8525283" lon="13.2058417"><ele>841.0</ele><time>2026-04-11T08:23:23.811Z</time></trkpt><trkpt lat="41.8526233" lon="13.2059967"><ele>841.0</ele><time>2026-04-11T08:23:24.811Z</time></trkpt><trkpt lat="41.8527167" lon="13.2061683"><ele>831.25</ele><time>2026-04-11T08:23:25.811Z</time></trkpt><trkpt lat="41.8528083" lon="13.2063367"><ele>821.5</ele><time>2026-04-11T08:23:26.816Z</time></trkpt><trkpt lat="41.852885" lon="13.2064867"><ele>811.75</ele><time>2026-04-11T08:23:27.906Z</time></trkpt><trkpt lat="41.8529517" lon="13.206625"><ele>802.0</ele><time>2026-04-11T08:23:28.812Z</time></trkpt><trkpt lat="41.853" lon="13.2067717"><ele>802.0</ele><time>2026-04-11T08:23:29.813Z</time></trkpt><trkpt lat="41.85303" lon="13.2069267"><ele>802.0</ele><time>2026-04-11T08:23:30.812Z</time></trkpt><trkpt lat="41.85304" lon="13.2070983"><ele>802.0</ele><time>2026-04-11T08:23:31.813Z</time></trkpt><trkpt lat="41.8530383" lon="13.2072617"><ele>802.0</ele><time>2026-04-11T08:23:32.813Z</time></trkpt><trkpt lat="41.8530267" lon="13.20742"><ele>801.8</ele><time>2026-04-11T08:23:33.812Z</time></trkpt><trkpt lat="41.8529933" lon="13.207565"><ele>801.6</ele><time>2026-04-11T08:23:34.812Z</time></trkpt><trkpt lat="41.8529483" lon="13.207695"><ele>801.4</ele><time>2026-04-11T08:23:35.812Z</time></trkpt><trkpt lat="41.85291" lon="13.20782"><ele>801.1999999999999</ele><time>2026-04-11T08:23:36.813Z</time></trkpt><trkpt lat="41.8528817" lon="13.20795"><ele>801.0</ele><time>2026-04-11T08:23:37.813Z</time></trkpt><trkpt lat="41.8528533" lon="13.2080883"><ele>800.0</ele><time>2026-04-11T08:23:38.813Z</time></trkpt><trkpt lat="41.8528533" lon="13.2082267"><ele>799.0</ele><time>2026-04-11T08:23:39.809Z</time></trkpt><trkpt lat="41.8528683" lon="13.2083617"><ele>798.0</ele><time>2026-04-11T08:23:40.809Z</time></trkpt><trkpt lat="41.8528983" lon="13.208495"><ele>797.0</ele><time>2026-04-11T08:23:41.812Z</time></trkpt><trkpt lat="41.8529317" lon="13.20863"><ele>796.0</ele><time>2026-04-11T08:23:42.815Z</time></trkpt><trkpt lat="41.8529717" lon="13.2087667"><ele>796.0</ele><time>2026-04-11T08:23:43.813Z</time></trkpt><trkpt lat="41.853005" lon="13.2089067"><ele>796.0</ele><time>2026-04-11T08:23:44.809Z</time></trkpt><trkpt lat="41.853035" lon="13.2090467"><ele>796.0</ele><time>2026-04-11T08:23:45.81Z</time></trkpt><trkpt lat="41.853065" lon="13.2091867"><ele>796.0</ele><time>2026-04-11T08:23:46.812Z</time></trkpt><trkpt lat="41.8530783" lon="13.2093267"><ele>796.0</ele><time>2026-04-11T08:23:47.812Z</time></trkpt><trkpt lat="41.8530833" lon="13.2094617"><ele>796.4</ele><time>2026-04-11T08:23:48.812Z</time></trkpt><trkpt lat="41.8530867" lon="13.20959"><ele>796.8</ele><time>2026-04-11T08:23:49.812Z</time></trkpt><trkpt lat="41.85309" lon="13.209715"><ele>797.1999999999999</ele><time>2026-04-11T08:23:50.81Z</time></trkpt><trkpt lat="41.8531" lon="13.2098417"><ele>797.5999999999999</ele><time>2026-04-11T08:23:51.812Z</time></trkpt><trkpt lat="41.853125" lon="13.2099633"><ele>798.0</ele><time>2026-04-11T08:23:52.812Z</time></trkpt><trkpt lat="41.8531667" lon="13.2100817"><ele>799.0</ele><time>2026-04-11T08:23:53.81Z</time></trkpt><trkpt lat="41.853215" lon="13.2102"><ele>800.0</ele><time>2026-04-11T08:23:54.81Z</time></trkpt><trkpt lat="41.8532583" lon="13.2103217"><ele>801.0</ele><time>2026-04-11T08:23:55.81Z</time></trkpt><trkpt lat="41.853295" lon="13.210455"><ele>802.0</ele><time>2026-04-11T08:23:56.813Z</time></trkpt><trkpt lat="41.8533167" lon="13.2105983"><ele>803.0</ele><time>2026-04-11T08:23:57.813Z</time></trkpt><trkpt lat="41.85333" lon="13.2107433"><ele>804.5999999999999</ele><time>2026-04-11T08:23:58.813Z</time></trkpt><trkpt lat="41.8533467" lon="13.21089"><ele>806.1999999999999</ele><time>2026-04-11T08:23:59.813Z</time></trkpt><trkpt lat="41.8533617" lon="13.2110367"><ele>807.8</ele><time>2026-04-11T08:24:00.812Z</time></trkpt><trkpt lat="41.8533767" lon="13.2111833"><ele>809.4</ele><time>2026-04-11T08:24:01.812Z</time></trkpt><trkpt lat="41.8533933" lon="13.21133"><ele>811.0</ele><time>2026-04-11T08:24:02.813Z</time></trkpt><trkpt lat="41.8534067" lon="13.2114783"><ele>811.4</ele><time>2026-04-11T08:24:03.809Z</time></trkpt><trkpt lat="41.85342" lon="13.2116233"><ele>811.8</ele><time>2026-04-11T08:24:04.813Z</time></trkpt><trkpt lat="41.85342" lon="13.2117683"><ele>812.1999999999999</ele><time>2026-04-11T08:24:05.812Z</time></trkpt><trkpt lat="41.8534167" lon="13.2119083"><ele>812.5999999999999</ele><time>2026-04-11T08:24:06.813Z</time></trkpt><trkpt lat="41.8534083" lon="13.2120483"><ele>813.0</ele><time>2026-04-11T08:24:07.813Z</time></trkpt><trkpt lat="41.8533967" lon="13.21219"><ele>811.5999999999999</ele><time>2026-04-11T08:24:08.812Z</time></trkpt><trkpt lat="41.85339" lon="13.2123317"><ele>810.1999999999999</ele><time>2026-04-11T08:24:09.812Z</time></trkpt><trkpt lat="41.8533817" lon="13.212475"><ele>808.8</ele><time>2026-04-11T08:24:10.814Z</time></trkpt><trkpt lat="41.853375" lon="13.2126183"><ele>807.4</ele><time>2026-04-11T08:24:11.813Z</time></trkpt><trkpt lat="41.8533683" lon="13.21276"><ele>806.0</ele><time>2026-04-11T08:24:12.813Z</time></trkpt><trkpt lat="41.8533667" lon="13.2129"><ele>806.0</ele><time>2026-04-11T08:24:13.813Z</time></trkpt><trkpt lat="41.8533533" lon="13.2130367"><ele>806.0</ele><time>2026-04-11T08:24:14.813Z</time></trkpt><trkpt lat="41.8533283" lon="13.213175"><ele>806.0</ele><time>2026-04-11T08:24:15.813Z</time></trkpt><trkpt lat="41.8533017" lon="13.21331"><ele>806.0</ele><time>2026-04-11T08:24:16.812Z</time></trkpt><trkpt lat="41.853265" lon="13.2134433"><ele>806.0</ele><time>2026-04-11T08:24:17.813Z</time></trkpt><trkpt lat="41.8532167" lon="13.2135717"><ele>803.8</ele><time>2026-04-11T08:24:18.813Z</time></trkpt><trkpt lat="41.8531683" lon="13.2137017"><ele>801.5999999999999</ele><time>2026-04-11T08:24:19.812Z</time></trkpt><trkpt lat="41.8531183" lon="13.2138283"><ele>799.4</ele><time>2026-04-11T08:24:20.812Z</time></trkpt><trkpt lat="41.85306" lon="13.2139567"><ele>797.2</ele><time>2026-04-11T08:24:21.812Z</time></trkpt><trkpt lat="41.8530017" lon="13.2140917"><ele>795.0</ele><time>2026-04-11T08:24:22.813Z</time></trkpt><trkpt lat="41.852945" lon="13.2142433"><ele>790.0</ele><time>2026-04-11T08:24:23.813Z</time></trkpt><trkpt lat="41.8528817" lon="13.2144117"><ele>785.0</ele><time>2026-04-11T08:24:24.813Z</time></trkpt><trkpt lat="41.8528233" lon="13.21459"><ele>780.0</ele><time>2026-04-11T08:24:25.813Z</time></trkpt><trkpt lat="41.8527517" lon="13.214745"><ele>775.0</ele><time>2026-04-11T08:24:26.813Z</time></trkpt><trkpt lat="41.8526717" lon="13.2148767"><ele>777.8</ele><time>2026-04-11T08:24:27.812Z</time></trkpt><trkpt lat="41.85256" lon="13.2149783"><ele>780.6</ele><time>2026-04-11T08:24:28.813Z</time></trkpt><trkpt lat="41.8524617" lon="13.2150633"><ele>783.4000000000001</ele><time>2026-04-11T08:24:29.814Z</time></trkpt><trkpt lat="41.8523933" lon="13.21515"><ele>786.2</ele><time>2026-04-11T08:24:30.812Z</time></trkpt><trkpt lat="41.8523483" lon="13.21524"><ele>789.0</ele><time>2026-04-11T08:24:31.813Z</time></trkpt><trkpt lat="41.8523283" lon="13.215355"><ele>789.0</ele><time>2026-04-11T08:24:32.812Z</time></trkpt><trkpt lat="41.85235" lon="13.2155017"><ele>789.0</ele><time>2026-04-11T08:24:33.813Z</time></trkpt><trkpt lat="41.8523533" lon="13.21566"><ele>789.0</ele><time>2026-04-11T08:24:34.813Z</time></trkpt><trkpt lat="41.852325" lon="13.2158233"><ele>789.0</ele><time>2026-04-11T08:24:35.813Z</time></trkpt><trkpt lat="41.8522633" lon="13.21599"><ele>786.4000000000001</ele><time>2026-04-11T08:24:36.813Z</time></trkpt><trkpt lat="41.85219" lon="13.2161417"><ele>783.8</ele><time>2026-04-11T08:24:37.813Z</time></trkpt><trkpt lat="41.8521233" lon="13.2162667"><ele>781.2</ele><time>2026-04-11T08:24:38.814Z</time></trkpt><trkpt lat="41.8520817" lon="13.2163767"><ele>778.5999999999999</ele><time>2026-04-11T08:24:39.813Z</time></trkpt><trkpt lat="41.8520517" lon="13.2164717"><ele>776.0</ele><time>2026-04-11T08:24:40.811Z</time></trkpt><trkpt lat="41.85205" lon="13.216565"><ele>776.0</ele><time>2026-04-11T08:24:41.81Z</time></trkpt><trkpt lat="41.8520883" lon="13.2166533"><ele>776.0</ele><time>2026-04-11T08:24:42.814Z</time></trkpt><trkpt lat="41.8521367" lon="13.2167533"><ele>776.0</ele><time>2026-04-11T08:24:43.81Z</time></trkpt><trkpt lat="41.8522183" lon="13.2168517"><ele>776.0</ele><time>2026-04-11T08:24:44.809Z</time></trkpt><trkpt lat="41.852315" lon="13.21695"><ele>776.0</ele><time>2026-04-11T08:24:45.809Z</time></trkpt><trkpt lat="41.8524533" lon="13.2170617"><ele>776.0</ele><time>2026-04-11T08:24:46.811Z</time></trkpt><trkpt lat="41.852605" lon="13.2171567"><ele>776.0</ele><time>2026-04-11T08:24:47.813Z</time></trkpt><trkpt lat="41.85278" lon="13.2172333"><ele>776.0</ele><time>2026-04-11T08:24:48.811Z</time></trkpt><trkpt lat="41.852905" lon="13.2173383"><ele>768.75</ele><time>2026-04-11T08:24:49.81Z</time></trkpt><trkpt lat="41.853005" lon="13.2174533"><ele>761.5</ele><time>2026-04-11T08:24:50.815Z</time></trkpt><trkpt lat="41.8530617" lon="13.2176117"><ele>754.25</ele><time>2026-04-11T08:24:51.811Z</time></trkpt><trkpt lat="41.8531" lon="13.2177767"><ele>747.0</ele><time>2026-04-11T08:24:52.81Z</time></trkpt><trkpt lat="41.8531133" lon="13.217945"><ele>747.0</ele><time>2026-04-11T08:24:53.814Z</time></trkpt><trkpt lat="41.853105" lon="13.218095"><ele>747.0</ele><time>2026-04-11T08:24:54.813Z</time></trkpt><trkpt lat="41.853075" lon="13.2182417"><ele>747.0</ele><time>2026-04-11T08:24:55.81Z</time></trkpt><trkpt lat="41.8530267" lon="13.2183817"><ele>747.0</ele><time>2026-04-11T08:24:56.813Z</time></trkpt><trkpt lat="41.8529683" lon="13.2185167"><ele>747.2</ele><time>2026-04-11T08:24:57.814Z</time></trkpt><trkpt lat="41.85292" lon="13.21865"><ele>747.4000000000001</ele><time>2026-04-11T08:24:58.813Z</time></trkpt><trkpt lat="41.8528767" lon="13.21878"><ele>747.5999999999999</ele><time>2026-04-11T08:24:59.813Z</time></trkpt><trkpt lat="41.8528583" lon="13.2189133"><ele>747.8</ele><time>2026-04-11T08:25:00.813Z</time></trkpt><trkpt lat="41.8528633" lon="13.2190417"><ele>748.0</ele><time>2026-04-11T08:25:01.813Z</time></trkpt><trkpt lat="41.8528967" lon="13.2191567"><ele>748.3333333333334</ele><time>2026-04-11T08:25:02.813Z</time></trkpt><trkpt lat="41.8529467" lon="13.2192567"><ele>748.6666666666667</ele><time>2026-04-11T08:25:03.81Z</time></trkpt><trkpt lat="41.853" lon="13.21935"><ele>749.0</ele><time>2026-04-11T08:25:04.81Z</time></trkpt><trkpt lat="41.8530567" lon="13.2194317"><ele>749.3333333333334</ele><time>2026-04-11T08:25:05.812Z</time></trkpt><trkpt lat="41.853115" lon="13.2194933"><ele>749.6666666666666</ele><time>2026-04-11T08:25:06.811Z</time></trkpt><trkpt lat="41.85318" lon="13.2195183"><ele>750.0</ele><time>2026-04-11T08:25:07.811Z</time></trkpt><trkpt lat="41.853245" lon="13.2195383"><ele>750.0</ele><time>2026-04-11T08:25:08.811Z</time></trkpt><trkpt lat="41.8533067" lon="13.2195633"><ele>750.0</ele><time>2026-04-11T08:25:09.811Z</time></trkpt><trkpt lat="41.8533717" lon="13.21958"><ele>750.0</ele><time>2026-04-11T08:25:10.81Z</time></trkpt><trkpt lat="41.8534367" lon="13.2196067"><ele>750.0</ele><time>2026-04-11T08:25:11.813Z</time></trkpt><trkpt lat="41.853505" lon="13.21962"><ele>750.0</ele><time>2026-04-11T08:25:12.809Z</time></trkpt><trkpt lat="41.853575" lon="13.21964"><ele>750.0</ele><time>2026-04-11T08:25:13.813Z</time></trkpt><trkpt lat="41.8536433" lon="13.2196667"><ele>750.0</ele><time>2026-04-11T08:25:14.813Z</time></trkpt><trkpt lat="41.853715" lon="13.219715"><ele>747.3333333333334</ele><time>2026-04-11T08:25:15.811Z</time></trkpt><trkpt lat="41.853775" lon="13.2197933"><ele>744.6666666666666</ele><time>2026-04-11T08:25:16.81Z</time></trkpt><trkpt lat="41.8538233" lon="13.2198833"><ele>742.0</ele><time>2026-04-11T08:25:17.811Z</time></trkpt><trkpt lat="41.8538633" lon="13.2199833"><ele>739.3333333333333</ele><time>2026-04-11T08:25:18.81Z</time></trkpt><trkpt lat="41.853895" lon="13.2200833"><ele>736.6666666666666</ele><time>2026-04-11T08:25:19.811Z</time></trkpt><trkpt lat="41.8539217" lon="13.2201817"><ele>734.0</ele><time>2026-04-11T08:25:20.811Z</time></trkpt><trkpt lat="41.85394" lon="13.2202767"><ele>734.0</ele><time>2026-04-11T08:25:21.811Z</time></trkpt><trkpt lat="41.8539567" lon="13.2203683"><ele>734.0</ele><time>2026-04-11T08:25:22.811Z</time></trkpt><trkpt lat="41.8539767" lon="13.2204617"><ele>734.0</ele><time>2026-04-11T08:25:23.811Z</time></trkpt><trkpt lat="41.8539883" lon="13.2205567"><ele>734.0</ele><time>2026-04-11T08:25:24.813Z</time></trkpt><trkpt lat="41.8540067" lon="13.2206617"><ele>734.0</ele><time>2026-04-11T08:25:25.812Z</time></trkpt><trkpt lat="41.8540183" lon="13.2207733"><ele>734.0</ele><time>2026-04-11T08:25:26.813Z</time></trkpt><trkpt lat="41.8540233" lon="13.220895"><ele>735.2</ele><time>2026-04-11T08:25:27.814Z</time></trkpt><trkpt lat="41.854015" lon="13.2210233"><ele>736.4000000000001</ele><time>2026-04-11T08:25:28.813Z</time></trkpt><trkpt lat="41.8540083" lon="13.221155"><ele>737.6</ele><time>2026-04-11T08:25:29.813Z</time></trkpt><trkpt lat="41.8539867" lon="13.2212983"><ele>738.8</ele><time>2026-04-11T08:25:30.813Z</time></trkpt><trkpt lat="41.85396" lon="13.22145"><ele>740.0</ele><time>2026-04-11T08:25:31.813Z</time></trkpt><trkpt lat="41.8539283" lon="13.22161"><ele>737.0</ele><time>2026-04-11T08:25:32.813Z</time></trkpt><trkpt lat="41.8538833" lon="13.2217767"><ele>734.0</ele><time>2026-04-11T08:25:33.814Z</time></trkpt><trkpt lat="41.8538183" lon="13.2219417"><ele>731.0</ele><time>2026-04-11T08:25:34.814Z</time></trkpt><trkpt lat="41.85374" lon="13.2221033"><ele>728.0</ele><time>2026-04-11T08:25:35.812Z</time></trkpt><trkpt lat="41.8536517" lon="13.2222533"><ele>731.0</ele><time>2026-04-11T08:25:36.814Z</time></trkpt><trkpt lat="41.8535567" lon="13.222385"><ele>734.0</ele><time>2026-04-11T08:25:37.813Z</time></trkpt><trkpt lat="41.8534533" lon="13.22249"><ele>737.0</ele><time>2026-04-11T08:25:38.812Z</time></trkpt><trkpt lat="41.853335" lon="13.2225717"><ele>740.0</ele><time>2026-04-11T08:25:39.814Z</time></trkpt><trkpt lat="41.8532083" lon="13.2226367"><ele>740.0</ele><time>2026-04-11T08:25:40.814Z</time></trkpt><trkpt lat="41.8530883" lon="13.2226967"><ele>740.0</ele><time>2026-04-11T08:25:41.813Z</time></trkpt><trkpt lat="41.8529867" lon="13.222765"><ele>740.0</ele><time>2026-04-11T08:25:42.809Z</time></trkpt><trkpt lat="41.852915" lon="13.222865"><ele>740.0</ele><time>2026-04-11T08:25:43.813Z</time></trkpt><trkpt lat="41.85288" lon="13.2229983"><ele>734.5</ele><time>2026-04-11T08:25:44.813Z</time></trkpt><trkpt lat="41.85288" lon="13.2231617"><ele>729.0</ele><time>2026-04-11T08:25:45.809Z</time></trkpt><trkpt lat="41.8528767" lon="13.2233483"><ele>723.5</ele><time>2026-04-11T08:25:46.813Z</time></trkpt><trkpt lat="41.8528667" lon="13.2235667"><ele>718.0</ele><time>2026-04-11T08:25:47.813Z</time></trkpt><trkpt lat="41.852845" lon="13.2238017"><ele>713.3333333333334</ele><time>2026-04-11T08:25:48.814Z</time></trkpt><trkpt lat="41.8528233" lon="13.2240383"><ele>708.6666666666666</ele><time>2026-04-11T08:25:49.812Z</time></trkpt><trkpt lat="41.8527967" lon="13.2242667"><ele>704.0</ele><time>2026-04-11T08:25:50.813Z</time></trkpt><trkpt lat="41.8527733" lon="13.2244667"><ele>704.0</ele><time>2026-04-11T08:25:51.813Z</time></trkpt><trkpt lat="41.8527583" lon="13.2246383"><ele>704.0</ele><time>2026-04-11T08:25:52.814Z</time></trkpt><trkpt lat="41.8527383" lon="13.2247933"><ele>704.0</ele><time>2026-04-11T08:25:53.813Z</time></trkpt><trkpt lat="41.8527117" lon="13.224925"><ele>704.0</ele><time>2026-04-11T08:25:54.812Z</time></trkpt><trkpt lat="41.8526833" lon="13.2250367"><ele>704.0</ele><time>2026-04-11T08:25:55.813Z</time></trkpt><trkpt lat="41.8526517" lon="13.2251317"><ele>702.4000000000001</ele><time>2026-04-11T08:25:56.813Z</time></trkpt><trkpt lat="41.8526333" lon="13.22522"><ele>700.8</ele><time>2026-04-11T08:25:57.812Z</time></trkpt><trkpt lat="41.8526617" lon="13.2253517"><ele>699.2</ele><time>2026-04-11T08:25:59.812Z</time></trkpt><trkpt lat="41.8527317" lon="13.2253867"><ele>697.5999999999999</ele><time>2026-04-11T08:26:01.81Z</time></trkpt><trkpt lat="41.85281" lon="13.2253017"><ele>696.0</ele><time>2026-04-11T08:26:03.81Z</time></trkpt><trkpt lat="41.85284" lon="13.2251533"><ele>696.0</ele><time>2026-04-11T08:26:04.809Z</time></trkpt><trkpt lat="41.8528617" lon="13.2249783"><ele>696.0</ele><time>2026-04-11T08:26:05.809Z</time></trkpt><trkpt lat="41.8528967" lon="13.2248383"><ele>696.0</ele><time>2026-04-11T08:26:06.813Z</time></trkpt><trkpt lat="41.8529333" lon="13.2247"><ele>696.0</ele><time>2026-04-11T08:26:07.814Z</time></trkpt><trkpt lat="41.8529733" lon="13.2245617"><ele>698.0</ele><time>2026-04-11T08:26:08.813Z</time></trkpt><trkpt lat="41.8530233" lon="13.2244167"><ele>700.0</ele><time>2026-04-11T08:26:09.81Z</time></trkpt><trkpt lat="41.8530967" lon="13.2242767"><ele>702.0</ele><time>2026-04-11T08:26:10.813Z</time></trkpt><trkpt lat="41.853175" lon="13.2241233"><ele>704.0</ele><time>2026-04-11T08:26:11.814Z</time></trkpt><trkpt lat="41.8532533" lon="13.2239883"><ele>706.8000000000001</ele><time>2026-04-11T08:26:12.813Z</time></trkpt><trkpt lat="41.8533333" lon="13.2238667"><ele>709.6</ele><time>2026-04-11T08:26:13.813Z</time></trkpt><trkpt lat="41.853405" lon="13.2237533"><ele>712.4</ele><time>2026-04-11T08:26:14.819Z</time></trkpt><trkpt lat="41.85347" lon="13.2236433"><ele>715.2</ele><time>2026-04-11T08:26:15.903Z</time></trkpt><trkpt lat="41.853515" lon="13.2235317"><ele>718.0</ele><time>2026-04-11T08:26:16.809Z</time></trkpt><trkpt lat="41.8535383" lon="13.2234267"><ele>713.0</ele><time>2026-04-11T08:26:17.814Z</time></trkpt><trkpt lat="41.853565" lon="13.2233383"><ele>708.0</ele><time>2026-04-11T08:26:18.812Z</time></trkpt><trkpt lat="41.8536083" lon="13.2232233"><ele>703.0</ele><time>2026-04-11T08:26:20.812Z</time></trkpt><trkpt lat="41.853685" lon="13.2232233"><ele>698.0</ele><time>2026-04-11T08:26:22.81Z</time></trkpt><trkpt lat="41.85372" lon="13.2233033"><ele>693.0</ele><time>2026-04-11T08:26:23.812Z</time></trkpt><trkpt lat="41.853745" lon="13.22344"><ele>688.0</ele><time>2026-04-11T08:26:24.814Z</time></trkpt><trkpt lat="41.8537533" lon="13.2236283"><ele>688.0</ele><time>2026-04-11T08:26:25.813Z</time></trkpt><trkpt lat="41.8537367" lon="13.2238083"><ele>688.0</ele><time>2026-04-11T08:26:26.813Z</time></trkpt><trkpt lat="41.8537117" lon="13.22396"><ele>688.0</ele><time>2026-04-11T08:26:27.812Z</time></trkpt><trkpt lat="41.853665" lon="13.2240917"><ele>688.0</ele><time>2026-04-11T08:26:28.809Z</time></trkpt><trkpt lat="41.8535983" lon="13.2242183"><ele>689.5999999999999</ele><time>2026-04-11T08:26:29.813Z</time></trkpt><trkpt lat="41.85352" lon="13.2243317"><ele>691.1999999999999</ele><time>2026-04-11T08:26:30.813Z</time></trkpt><trkpt lat="41.8534517" lon="13.2244367"><ele>692.8</ele><time>2026-04-11T08:26:31.812Z</time></trkpt><trkpt lat="41.8534083" lon="13.2245483"><ele>694.4</ele><time>2026-04-11T08:26:32.814Z</time></trkpt><trkpt lat="41.8533867" lon="13.2246817"><ele>696.0</ele><time>2026-04-11T08:26:33.812Z</time></trkpt><trkpt lat="41.853395" lon="13.2248517"><ele>696.0</ele><time>2026-04-11T08:26:34.814Z</time></trkpt><trkpt lat="41.8534283" lon="13.22505"><ele>696.0</ele><time>2026-04-11T08:26:35.814Z</time></trkpt><trkpt lat="41.853465" lon="13.2252683"><ele>696.0</ele><time>2026-04-11T08:26:36.812Z</time></trkpt><trkpt lat="41.85349" lon="13.2254883"><ele>688.75</ele><time>2026-04-11T08:26:37.814Z</time></trkpt><trkpt lat="41.85351" lon="13.22569"><ele>681.5</ele><time>2026-04-11T08:26:38.814Z</time></trkpt><trkpt lat="41.8535183" lon="13.2258667"><ele>674.25</ele><time>2026-04-11T08:26:39.813Z</time></trkpt><trkpt lat="41.8535167" lon="13.226025"><ele>667.0</ele><time>2026-04-11T08:26:40.814Z</time></trkpt><trkpt lat="41.8535017" lon="13.2261733"><ele>667.0</ele><time>2026-04-11T08:26:41.813Z</time></trkpt><trkpt lat="41.8534717" lon="13.2263167"><ele>667.0</ele><time>2026-04-11T08:26:42.812Z</time></trkpt><trkpt lat="41.8534183" lon="13.2264467"><ele>667.0</ele><time>2026-04-11T08:26:43.811Z</time></trkpt><trkpt lat="41.8533583" lon="13.2265667"><ele>667.0</ele><time>2026-04-11T08:26:44.81Z</time></trkpt><trkpt lat="41.85331" lon="13.22667"><ele>667.0</ele><time>2026-04-11T08:26:45.812Z</time></trkpt><trkpt lat="41.853275" lon="13.226765"><ele>666.25</ele><time>2026-04-11T08:26:46.811Z</time></trkpt><trkpt lat="41.853285" lon="13.226915"><ele>665.5</ele><time>2026-04-11T08:26:48.812Z</time></trkpt><trkpt lat="41.8534" lon="13.2269267"><ele>664.75</ele><time>2026-04-11T08:26:50.811Z</time></trkpt><trkpt lat="41.8534917" lon="13.226805"><ele>664.0</ele><time>2026-04-11T08:26:51.812Z</time></trkpt><trkpt lat="41.8536167" lon="13.2266533"><ele>665.0</ele><time>2026-04-11T08:26:52.812Z</time></trkpt><trkpt lat="41.85374" lon="13.226465"><ele>666.0</ele><time>2026-04-11T08:26:53.811Z</time></trkpt><trkpt lat="41.8538833" lon="13.2262483"><ele>667.0</ele><time>2026-04-11T08:26:54.81Z</time></trkpt><trkpt lat="41.8540183" lon="13.226"><ele>667.0</ele><time>2026-04-11T08:26:55.813Z</time></trkpt><trkpt lat="41.85415" lon="13.2257317"><ele>667.0</ele><time>2026-04-11T08:26:56.813Z</time></trkpt><trkpt lat="41.8542833" lon="13.2254783"><ele>663.3333333333334</ele><time>2026-04-11T08:26:57.812Z</time></trkpt><trkpt lat="41.8544017" lon="13.2252517"><ele>659.6666666666666</ele><time>2026-04-11T08:26:58.814Z</time></trkpt><trkpt lat="41.8545167" lon="13.2250383"><ele>656.0</ele><time>2026-04-11T08:26:59.813Z</time></trkpt><trkpt lat="41.85466" lon="13.2248417"><ele>657.0</ele><time>2026-04-11T08:27:00.813Z</time></trkpt><trkpt lat="41.8548133" lon="13.2246367"><ele>658.0</ele><time>2026-04-11T08:27:01.814Z</time></trkpt><trkpt lat="41.8549667" lon="13.2244567"><ele>659.0</ele><time>2026-04-11T08:27:02.812Z</time></trkpt><trkpt lat="41.85511" lon="13.2242917"><ele>655.0</ele><time>2026-04-11T08:27:03.812Z</time></trkpt><trkpt lat="41.855235" lon="13.224145"><ele>651.0</ele><time>2026-04-11T08:27:04.813Z</time></trkpt><trkpt lat="41.85535" lon="13.2240183"><ele>647.0</ele><time>2026-04-11T08:27:05.812Z</time></trkpt><trkpt lat="41.8554533" lon="13.2238983"><ele>647.0</ele><time>2026-04-11T08:27:06.809Z</time></trkpt><trkpt lat="41.8555467" lon="13.2237883"><ele>647.0</ele><time>2026-04-11T08:27:07.81Z</time></trkpt><trkpt lat="41.85564" lon="13.2237017"><ele>647.0</ele><time>2026-04-11T08:27:08.813Z</time></trkpt><trkpt lat="41.8557367" lon="13.223655"><ele>647.0</ele><time>2026-04-11T08:27:09.813Z</time></trkpt><trkpt lat="41.8558467" lon="13.2236483"><ele>646.0</ele><time>2026-04-11T08:27:10.813Z</time></trkpt><trkpt lat="41.8559633" lon="13.2236617"><ele>645.0</ele><time>2026-04-11T08:27:11.813Z</time></trkpt><trkpt lat="41.8560767" lon="13.2236867"><ele>644.0</ele><time>2026-04-11T08:27:12.812Z</time></trkpt><trkpt lat="41.8561717" lon="13.2237367"><ele>643.0</ele><time>2026-04-11T08:27:13.812Z</time></trkpt><trkpt lat="41.85625" lon="13.22382"><ele>642.0</ele><time>2026-04-11T08:27:14.816Z</time></trkpt><trkpt lat="41.8563" lon="13.223945"><ele>642.0</ele><time>2026-04-11T08:27:15.813Z</time></trkpt><trkpt lat="41.8563233" lon="13.2241233"><ele>642.0</ele><time>2026-04-11T08:27:16.814Z</time></trkpt><trkpt lat="41.8563283" lon="13.22434"><ele>642.0</ele><time>2026-04-11T08:27:17.813Z</time></trkpt><trkpt lat="41.8563217" lon="13.22456"><ele>642.0</ele><time>2026-04-11T08:27:18.81Z</time></trkpt><trkpt lat="41.8563117" lon="13.2247717"><ele>642.0</ele><time>2026-04-11T08:27:19.811Z</time></trkpt><trkpt lat="41.8563067" lon="13.2249667"><ele>642.0</ele><time>2026-04-11T08:27:20.809Z</time></trkpt><trkpt lat="41.856315" lon="13.2251433"><ele>642.0</ele><time>2026-04-11T08:27:21.81Z</time></trkpt><trkpt lat="41.8563533" lon="13.2253167"><ele>640.5</ele><time>2026-04-11T08:27:22.809Z</time></trkpt><trkpt lat="41.8564217" lon="13.22549"><ele>639.0</ele><time>2026-04-11T08:27:23.81Z</time></trkpt><trkpt lat="41.8564933" lon="13.2256417"><ele>637.5</ele><time>2026-04-11T08:27:24.809Z</time></trkpt><trkpt lat="41.856565" lon="13.2257567"><ele>636.0</ele><time>2026-04-11T08:27:25.809Z</time></trkpt><trkpt lat="41.8566367" lon="13.225835"><ele>635.8</ele><time>2026-04-11T08:27:26.811Z</time></trkpt><trkpt lat="41.8567083" lon="13.22588"><ele>635.6</ele><time>2026-04-11T08:27:27.81Z</time></trkpt><trkpt lat="41.8567833" lon="13.2258967"><ele>635.4</ele><time>2026-04-11T08:27:28.81Z</time></trkpt><trkpt lat="41.856875" lon="13.22587"><ele>635.2</ele><time>2026-04-11T08:27:29.813Z</time></trkpt><trkpt lat="41.856975" lon="13.2258217"><ele>635.0</ele><time>2026-04-11T08:27:30.813Z</time></trkpt><trkpt lat="41.85708" lon="13.225775"><ele>635.3333333333333</ele><time>2026-04-11T08:27:31.812Z</time></trkpt><trkpt lat="41.8571783" lon="13.2257317"><ele>635.6666666666666</ele><time>2026-04-11T08:27:32.813Z</time></trkpt><trkpt lat="41.8572683" lon="13.2257067"><ele>636.0</ele><time>2026-04-11T08:27:33.813Z</time></trkpt><trkpt lat="41.8573433" lon="13.225715"><ele>636.3333333333334</ele><time>2026-04-11T08:27:34.811Z</time></trkpt><trkpt lat="41.857415" lon="13.22574"><ele>636.6666666666667</ele><time>2026-04-11T08:27:35.815Z</time></trkpt><trkpt lat="41.85748" lon="13.2257917"><ele>637.0</ele><time>2026-04-11T08:27:36.813Z</time></trkpt><trkpt lat="41.8575417" lon="13.225885"><ele>637.0</ele><time>2026-04-11T08:27:37.813Z</time></trkpt><trkpt lat="41.857605" lon="13.2260167"><ele>637.0</ele><time>2026-04-11T08:27:38.814Z</time></trkpt><trkpt lat="41.8576683" lon="13.22618"><ele>637.0</ele><time>2026-04-11T08:27:39.813Z</time></trkpt><trkpt lat="41.8577333" lon="13.22634"><ele>637.0</ele><time>2026-04-11T08:27:40.813Z</time></trkpt><trkpt lat="41.8577983" lon="13.22652"><ele>642.3333333333334</ele><time>2026-04-11T08:27:41.814Z</time></trkpt><trkpt lat="41.8578433" lon="13.2267183"><ele>647.6666666666666</ele><time>2026-04-11T08:27:42.813Z</time></trkpt><trkpt lat="41.8578833" lon="13.2269317"><ele>653.0</ele><time>2026-04-11T08:27:43.812Z</time></trkpt><trkpt lat="41.857905" lon="13.22713"><ele>653.0</ele><time>2026-04-11T08:27:44.813Z</time></trkpt><trkpt lat="41.8579233" lon="13.2272967"><ele>653.0</ele><time>2026-04-11T08:27:45.812Z</time></trkpt><trkpt lat="41.8579433" lon="13.22744"><ele>653.0</ele><time>2026-04-11T08:27:46.812Z</time></trkpt><trkpt lat="41.857965" lon="13.2275667"><ele>653.0</ele><time>2026-04-11T08:27:47.812Z</time></trkpt><trkpt lat="41.8579983" lon="13.2277"><ele>653.0</ele><time>2026-04-11T08:27:48.809Z</time></trkpt><trkpt lat="41.85803" lon="13.2278383"><ele>652.2</ele><time>2026-04-11T08:27:49.809Z</time></trkpt><trkpt lat="41.8580567" lon="13.2279767"><ele>651.4</ele><time>2026-04-11T08:27:50.81Z</time></trkpt><trkpt lat="41.858085" lon="13.2281083"><ele>650.6</ele><time>2026-04-11T08:27:51.811Z</time></trkpt><trkpt lat="41.85813" lon="13.228215"><ele>649.8000000000001</ele><time>2026-04-11T08:27:52.811Z</time></trkpt><trkpt lat="41.8582067" lon="13.2282983"><ele>649.0</ele><time>2026-04-11T08:27:53.811Z</time></trkpt><trkpt lat="41.858325" lon="13.2283467"><ele>649.75</ele><time>2026-04-11T08:27:54.816Z</time></trkpt><trkpt lat="41.8584583" lon="13.2283783"><ele>650.5</ele><time>2026-04-11T08:27:55.812Z</time></trkpt><trkpt lat="41.8585867" lon="13.228385"><ele>651.25</ele><time>2026-04-11T08:27:56.811Z</time></trkpt><trkpt lat="41.8587033" lon="13.2283567"><ele>652.0</ele><time>2026-04-11T08:27:57.812Z</time></trkpt><trkpt lat="41.8588133" lon="13.2282767"><ele>652.0</ele><time>2026-04-11T08:27:58.811Z</time></trkpt><trkpt lat="41.8589333" lon="13.2281733"><ele>652.0</ele><time>2026-04-11T08:27:59.814Z</time></trkpt><trkpt lat="41.85906" lon="13.2280817"><ele>652.0</ele><time>2026-04-11T08:28:00.813Z</time></trkpt><trkpt lat="41.8591883" lon="13.2280133"><ele>652.0</ele><time>2026-04-11T08:28:01.812Z</time></trkpt><trkpt lat="41.8593283" lon="13.2279683"><ele>655.75</ele><time>2026-04-11T08:28:02.814Z</time></trkpt><trkpt lat="41.8594717" lon="13.227955"><ele>659.5</ele><time>2026-04-11T08:28:03.813Z</time></trkpt><trkpt lat="41.8596017" lon="13.2279367"><ele>663.25</ele><time>2026-04-11T08:28:04.812Z</time></trkpt><trkpt lat="41.8597017" lon="13.2279017"><ele>667.0</ele><time>2026-04-11T08:28:05.81Z</time></trkpt><trkpt lat="41.8597717" lon="13.2278467"><ele>667.0</ele><time>2026-04-11T08:28:06.81Z</time></trkpt><trkpt lat="41.8598317" lon="13.2277783"><ele>667.0</ele><time>2026-04-11T08:28:07.813Z</time></trkpt><trkpt lat="41.859875" lon="13.227665"><ele>667.0</ele><time>2026-04-11T08:28:08.813Z</time></trkpt><trkpt lat="41.8598783" lon="13.2275117"><ele>667.0</ele><time>2026-04-11T08:28:09.813Z</time></trkpt><trkpt lat="41.8598817" lon="13.227355"><ele>667.0</ele><time>2026-04-11T08:28:10.812Z</time></trkpt><trkpt lat="41.859885" lon="13.227205"><ele>667.1666666666667</ele><time>2026-04-11T08:28:11.812Z</time></trkpt><trkpt lat="41.85989" lon="13.2270783"><ele>667.3333333333334</ele><time>2026-04-11T08:28:12.808Z</time></trkpt><trkpt lat="41.859885" lon="13.2269717"><ele>667.5</ele><time>2026-04-11T08:28:13.813Z</time></trkpt><trkpt lat="41.8598883" lon="13.2268683"><ele>667.6666666666666</ele><time>2026-04-11T08:28:15.812Z</time></trkpt><trkpt lat="41.85985" lon="13.226765"><ele>667.8333333333333</ele><time>2026-04-11T08:28:20.81Z</time></trkpt><trkpt lat="41.8597767" lon="13.2267433"><ele>668.0</ele><time>2026-04-11T08:28:36.812Z</time></trkpt><trkpt lat="41.859685" lon="13.226755"><ele>668.0</ele><time>2026-04-11T08:28:38.813Z</time></trkpt><trkpt lat="41.8595917" lon="13.2268333"><ele>668.0</ele><time>2026-04-11T08:28:40.813Z</time></trkpt><trkpt lat="41.8595517" lon="13.226905"><ele>668.0</ele><time>2026-04-11T08:28:41.814Z</time></trkpt><trkpt lat="41.8595167" lon="13.227"><ele>668.0</ele><time>2026-04-11T08:28:42.813Z</time></trkpt><trkpt lat="41.8594783" lon="13.2271017"><ele>668.0</ele><time>2026-04-11T08:28:43.812Z</time></trkpt><trkpt lat="41.8594317" lon="13.22721"><ele>668.0</ele><time>2026-04-11T08:28:44.812Z</time></trkpt><trkpt lat="41.85938" lon="13.2273183"><ele>667.8</ele><time>2026-04-11T08:28:45.813Z</time></trkpt><trkpt lat="41.85932" lon="13.2274167"><ele>667.5999999999999</ele><time>2026-04-11T08:28:46.813Z</time></trkpt><trkpt lat="41.8592417" lon="13.2275083"><ele>667.4000000000001</ele><time>2026-04-11T08:28:47.81Z</time></trkpt><trkpt lat="41.8591433" lon="13.2275833"><ele>667.2</ele><time>2026-04-11T08:28:48.809Z</time></trkpt><trkpt lat="41.8590183" lon="13.2276233"><ele>667.0</ele><time>2026-04-11T08:28:49.81Z</time></trkpt><trkpt lat="41.8589" lon="13.22763"><ele>666.4000000000001</ele><time>2026-04-11T08:28:50.81Z</time></trkpt><trkpt lat="41.8587933" lon="13.22759"><ele>665.8000000000001</ele><time>2026-04-11T08:28:51.812Z</time></trkpt><trkpt lat="41.8587067" lon="13.2275033"><ele>665.2</ele><time>2026-04-11T08:28:52.811Z</time></trkpt><trkpt lat="41.85865" lon="13.2274017"><ele>664.6</ele><time>2026-04-11T08:28:53.812Z</time></trkpt><trkpt lat="41.8586283" lon="13.22727"><ele>664.0</ele><time>2026-04-11T08:28:54.812Z</time></trkpt><trkpt lat="41.85863" lon="13.2271117"><ele>667.0</ele><time>2026-04-11T08:28:55.813Z</time></trkpt><trkpt lat="41.8586367" lon="13.2269333"><ele>670.0</ele><time>2026-04-11T08:28:56.811Z</time></trkpt><trkpt lat="41.85863" lon="13.2267383"><ele>673.0</ele><time>2026-04-11T08:28:57.811Z</time></trkpt><trkpt lat="41.8586017" lon="13.2265333"><ele>676.0</ele><time>2026-04-11T08:28:58.812Z</time></trkpt><trkpt lat="41.8585433" lon="13.2263233"><ele>677.6666666666667</ele><time>2026-04-11T08:28:59.814Z</time></trkpt><trkpt lat="41.8584667" lon="13.22612"><ele>679.3333333333334</ele><time>2026-04-11T08:29:00.814Z</time></trkpt><trkpt lat="41.858395" lon="13.2259333"><ele>681.0</ele><time>2026-04-11T08:29:01.81Z</time></trkpt><trkpt lat="41.85834" lon="13.2257517"><ele>676.5</ele><time>2026-04-11T08:29:02.814Z</time></trkpt><trkpt lat="41.8583033" lon="13.2255717"><ele>672.0</ele><time>2026-04-11T08:29:03.813Z</time></trkpt><trkpt lat="41.8582883" lon="13.22541"><ele>667.5</ele><time>2026-04-11T08:29:04.813Z</time></trkpt><trkpt lat="41.85828" lon="13.2252667"><ele>663.0</ele><time>2026-04-11T08:29:05.813Z</time></trkpt><trkpt lat="41.8582817" lon="13.2251367"><ele>663.0</ele><time>2026-04-11T08:29:06.813Z</time></trkpt><trkpt lat="41.8582883" lon="13.225015"><ele>663.0</ele><time>2026-04-11T08:29:07.813Z</time></trkpt><trkpt lat="41.85832" lon="13.2249033"><ele>663.0</ele><time>2026-04-11T08:29:08.814Z</time></trkpt><trkpt lat="41.8583733" lon="13.2247833"><ele>663.0</ele><time>2026-04-11T08:29:09.813Z</time></trkpt><trkpt lat="41.858445" lon="13.2246467"><ele>663.0</ele><time>2026-04-11T08:29:10.812Z</time></trkpt><trkpt lat="41.8585217" lon="13.224505"><ele>664.75</ele><time>2026-04-11T08:29:11.813Z</time></trkpt><trkpt lat="41.8586017" lon="13.2243583"><ele>666.5</ele><time>2026-04-11T08:29:12.813Z</time></trkpt><trkpt lat="41.8586817" lon="13.2242"><ele>668.25</ele><time>2026-04-11T08:29:13.812Z</time></trkpt><trkpt lat="41.8587567" lon="13.2240317"><ele>670.0</ele><time>2026-04-11T08:29:14.814Z</time></trkpt><trkpt lat="41.858815" lon="13.22386"><ele>670.0</ele><time>2026-04-11T08:29:15.81Z</time></trkpt><trkpt lat="41.8588383" lon="13.2236717"><ele>670.0</ele><time>2026-04-11T08:29:16.812Z</time></trkpt><trkpt lat="41.85883" lon="13.223465"><ele>670.0</ele><time>2026-04-11T08:29:17.811Z</time></trkpt><trkpt lat="41.8587883" lon="13.2232333"><ele>668.0</ele><time>2026-04-11T08:29:18.81Z</time></trkpt><trkpt lat="41.85874" lon="13.2229883"><ele>666.0</ele><time>2026-04-11T08:29:19.809Z</time></trkpt><trkpt lat="41.8586933" lon="13.22274"><ele>664.0</ele><time>2026-04-11T08:29:20.81Z</time></trkpt><trkpt lat="41.858645" lon="13.2224967"><ele>662.6666666666667</ele><time>2026-04-11T08:29:21.81Z</time></trkpt><trkpt lat="41.8586" lon="13.2222683"><ele>661.3333333333334</ele><time>2026-04-11T08:29:22.812Z</time></trkpt><trkpt lat="41.85856" lon="13.22205"><ele>660.0</ele><time>2026-04-11T08:29:23.811Z</time></trkpt><trkpt lat="41.85854" lon="13.22184"><ele>660.0</ele><time>2026-04-11T08:29:24.814Z</time></trkpt><trkpt lat="41.8585417" lon="13.22165"><ele>660.0</ele><time>2026-04-11T08:29:25.813Z</time></trkpt><trkpt lat="41.858565" lon="13.2214733"><ele>660.0</ele><time>2026-04-11T08:29:26.814Z</time></trkpt><trkpt lat="41.8586017" lon="13.2212933"><ele>660.0</ele><time>2026-04-11T08:29:27.813Z</time></trkpt><trkpt lat="41.858635" lon="13.2211017"><ele>657.3333333333334</ele><time>2026-04-11T08:29:28.81Z</time></trkpt><trkpt lat="41.85866" lon="13.220895"><ele>654.6666666666667</ele><time>2026-04-11T08:29:29.81Z</time></trkpt><trkpt lat="41.858675" lon="13.22067"><ele>652.0</ele><time>2026-04-11T08:29:30.811Z</time></trkpt><trkpt lat="41.858695" lon="13.2204383"><ele>650.3333333333334</ele><time>2026-04-11T08:29:31.811Z</time></trkpt><trkpt lat="41.8587133" lon="13.2201983"><ele>648.6666666666666</ele><time>2026-04-11T08:29:32.812Z</time></trkpt><trkpt lat="41.858735" lon="13.219955"><ele>647.0</ele><time>2026-04-11T08:29:33.812Z</time></trkpt><trkpt lat="41.8587717" lon="13.219715"><ele>646.6666666666666</ele><time>2026-04-11T08:29:34.812Z</time></trkpt><trkpt lat="41.8588233" lon="13.219485"><ele>646.3333333333334</ele><time>2026-04-11T08:29:35.811Z</time></trkpt><trkpt lat="41.8588667" lon="13.21927"><ele>646.0</ele><time>2026-04-11T08:29:36.813Z</time></trkpt><trkpt lat="41.8589" lon="13.2190617"><ele>644.6666666666667</ele><time>2026-04-11T08:29:37.812Z</time></trkpt><trkpt lat="41.8589133" lon="13.2188383"><ele>643.3333333333334</ele><time>2026-04-11T08:29:38.811Z</time></trkpt><trkpt lat="41.85891" lon="13.2185983"><ele>642.0</ele><time>2026-04-11T08:29:39.812Z</time></trkpt><trkpt lat="41.858895" lon="13.21834"><ele>640.6666666666666</ele><time>2026-04-11T08:29:40.812Z</time></trkpt><trkpt lat="41.8588783" lon="13.2180817"><ele>639.3333333333333</ele><time>2026-04-11T08:29:41.811Z</time></trkpt><trkpt lat="41.85886" lon="13.2178317"><ele>638.0</ele><time>2026-04-11T08:29:42.811Z</time></trkpt><trkpt lat="41.8588417" lon="13.21759"><ele>638.0</ele><time>2026-04-11T08:29:43.812Z</time></trkpt><trkpt lat="41.8588217" lon="13.21736"><ele>638.0</ele><time>2026-04-11T08:29:44.811Z</time></trkpt><trkpt lat="41.858805" lon="13.2171367"><ele>638.0</ele><time>2026-04-11T08:29:45.813Z</time></trkpt><trkpt lat="41.8587933" lon="13.2169217"><ele>637.5</ele><time>2026-04-11T08:29:46.813Z</time></trkpt><trkpt lat="41.8587833" lon="13.216715"><ele>637.0</ele><time>2026-04-11T08:29:47.81Z</time></trkpt><trkpt lat="41.8587783" lon="13.216515"><ele>636.5</ele><time>2026-04-11T08:29:48.81Z</time></trkpt><trkpt lat="41.8587733" lon="13.2163217"><ele>636.0</ele><time>2026-04-11T08:29:49.809Z</time></trkpt><trkpt lat="41.8587667" lon="13.2161333"><ele>635.25</ele><time>2026-04-11T08:29:50.812Z</time></trkpt><trkpt lat="41.858765" lon="13.215945"><ele>634.5</ele><time>2026-04-11T08:29:51.81Z</time></trkpt><trkpt lat="41.8587667" lon="13.2157567"><ele>633.75</ele><time>2026-04-11T08:29:52.81Z</time></trkpt><trkpt lat="41.8587667" lon="13.2155683"><ele>633.0</ele><time>2026-04-11T08:29:53.81Z</time></trkpt><trkpt lat="41.858775" lon="13.21539"><ele>632.25</ele><time>2026-04-11T08:29:54.809Z</time></trkpt><trkpt lat="41.8587933" lon="13.2152133"><ele>631.5</ele><time>2026-04-11T08:29:55.811Z</time></trkpt><trkpt lat="41.8588183" lon="13.2150383"><ele>630.75</ele><time>2026-04-11T08:29:56.809Z</time></trkpt><trkpt lat="41.85885" lon="13.214865"><ele>630.0</ele><time>2026-04-11T08:29:57.811Z</time></trkpt><trkpt lat="41.8588933" lon="13.2146967"><ele>629.75</ele><time>2026-04-11T08:29:58.811Z</time></trkpt><trkpt lat="41.8589417" lon="13.214535"><ele>629.5</ele><time>2026-04-11T08:29:59.811Z</time></trkpt><trkpt lat="41.85899" lon="13.2143783"><ele>629.25</ele><time>2026-04-11T08:30:00.809Z</time></trkpt><trkpt lat="41.8590317" lon="13.2142217"><ele>629.0</ele><time>2026-04-11T08:30:01.809Z</time></trkpt><trkpt lat="41.8590667" lon="13.2140633"><ele>629.25</ele><time>2026-04-11T08:30:02.811Z</time></trkpt><trkpt lat="41.8591" lon="13.213905"><ele>629.5</ele><time>2026-04-11T08:30:03.81Z</time></trkpt><trkpt lat="41.8591267" lon="13.2137517"><ele>629.75</ele><time>2026-04-11T08:30:04.81Z</time></trkpt><trkpt lat="41.85915" lon="13.2136017"><ele>630.0</ele><time>2026-04-11T08:30:05.81Z</time></trkpt><trkpt lat="41.8591767" lon="13.2134583"><ele>630.0</ele><time>2026-04-11T08:30:06.81Z</time></trkpt><trkpt lat="41.8592017" lon="13.2133167"><ele>630.0</ele><time>2026-04-11T08:30:07.81Z</time></trkpt><trkpt lat="41.8592233" lon="13.2131783"><ele>630.0</ele><time>2026-04-11T08:30:08.809Z</time></trkpt><trkpt lat="41.8592367" lon="13.2130333"><ele>630.0</ele><time>2026-04-11T08:30:09.81Z</time></trkpt><trkpt lat="41.8592417" lon="13.2128867"><ele>630.0</ele><time>2026-04-11T08:30:10.81Z</time></trkpt><trkpt lat="41.8592383" lon="13.2127383"><ele>629.75</ele><time>2026-04-11T08:30:11.814Z</time></trkpt><trkpt lat="41.85923" lon="13.21259"><ele>629.5</ele><time>2026-04-11T08:30:12.813Z</time></trkpt><trkpt lat="41.8592317" lon="13.2124383"><ele>629.25</ele><time>2026-04-11T08:30:13.813Z</time></trkpt><trkpt lat="41.859255" lon="13.212285"><ele>629.0</ele><time>2026-04-11T08:30:14.814Z</time></trkpt><trkpt lat="41.85929" lon="13.2121267"><ele>628.75</ele><time>2026-04-11T08:30:15.813Z</time></trkpt><trkpt lat="41.8593117" lon="13.2119583"><ele>628.5</ele><time>2026-04-11T08:30:16.809Z</time></trkpt><trkpt lat="41.85933" lon="13.2117967"><ele>628.25</ele><time>2026-04-11T08:30:17.812Z</time></trkpt><trkpt lat="41.8593483" lon="13.21164"><ele>628.0</ele><time>2026-04-11T08:30:18.813Z</time></trkpt><trkpt lat="41.8593767" lon="13.21149"><ele>626.5</ele><time>2026-04-11T08:30:19.813Z</time></trkpt><trkpt lat="41.859405" lon="13.2113433"><ele>625.0</ele><time>2026-04-11T08:30:20.813Z</time></trkpt><trkpt lat="41.8594217" lon="13.2111883"><ele>623.5</ele><time>2026-04-11T08:30:21.812Z</time></trkpt><trkpt lat="41.8594117" lon="13.2110167"><ele>622.0</ele><time>2026-04-11T08:30:22.81Z</time></trkpt><trkpt lat="41.8593883" lon="13.21082"><ele>622.6666666666667</ele><time>2026-04-11T08:30:23.813Z</time></trkpt><trkpt lat="41.8593617" lon="13.2106133"><ele>623.3333333333334</ele><time>2026-04-11T08:30:24.813Z</time></trkpt><trkpt lat="41.8593333" lon="13.210405"><ele>624.0</ele><time>2026-04-11T08:30:25.81Z</time></trkpt><trkpt lat="41.8593" lon="13.2101983"><ele>621.0</ele><time>2026-04-11T08:30:26.813Z</time></trkpt><trkpt lat="41.8592667" lon="13.2099933"><ele>618.0</ele><time>2026-04-11T08:30:27.812Z</time></trkpt><trkpt lat="41.859235" lon="13.2097917"><ele>615.0</ele><time>2026-04-11T08:30:28.815Z</time></trkpt><trkpt lat="41.8592033" lon="13.209595"><ele>613.25</ele><time>2026-04-11T08:30:29.811Z</time></trkpt><trkpt lat="41.859175" lon="13.209405"><ele>611.5</ele><time>2026-04-11T08:30:30.81Z</time></trkpt><trkpt lat="41.8591483" lon="13.2092233"><ele>609.75</ele><time>2026-04-11T08:30:31.81Z</time></trkpt><trkpt lat="41.859125" lon="13.2090483"><ele>608.0</ele><time>2026-04-11T08:30:32.811Z</time></trkpt><trkpt lat="41.859115" lon="13.20888"><ele>606.75</ele><time>2026-04-11T08:30:33.81Z</time></trkpt><trkpt lat="41.8591333" lon="13.2087083"><ele>605.5</ele><time>2026-04-11T08:30:34.81Z</time></trkpt><trkpt lat="41.8591833" lon="13.2085217"><ele>604.25</ele><time>2026-04-11T08:30:35.812Z</time></trkpt><trkpt lat="41.85925" lon="13.208335"><ele>603.0</ele><time>2026-04-11T08:30:36.811Z</time></trkpt><trkpt lat="41.85932" lon="13.208155"><ele>603.0</ele><time>2026-04-11T08:30:37.811Z</time></trkpt><trkpt lat="41.859385" lon="13.207975"><ele>603.0</ele><time>2026-04-11T08:30:38.811Z</time></trkpt><trkpt lat="41.8594367" lon="13.20779"><ele>603.0</ele><time>2026-04-11T08:30:39.81Z</time></trkpt><trkpt lat="41.8594767" lon="13.2075917"><ele>603.0</ele><time>2026-04-11T08:30:40.81Z</time></trkpt><trkpt lat="41.8595083" lon="13.2073983"><ele>599.3333333333334</ele><time>2026-04-11T08:30:41.814Z</time></trkpt><trkpt lat="41.8595517" lon="13.2072183"><ele>595.6666666666667</ele><time>2026-04-11T08:30:42.813Z</time></trkpt><trkpt lat="41.85962" lon="13.2070367"><ele>592.0</ele><time>2026-04-11T08:30:43.812Z</time></trkpt><trkpt lat="41.859705" lon="13.20684"><ele>592.0</ele><time>2026-04-11T08:30:44.813Z</time></trkpt><trkpt lat="41.859795" lon="13.2066317"><ele>592.0</ele><time>2026-04-11T08:30:45.813Z</time></trkpt><trkpt lat="41.8598833" lon="13.206445"><ele>592.0</ele><time>2026-04-11T08:30:46.812Z</time></trkpt><trkpt lat="41.859955" lon="13.2062767"><ele>592.0</ele><time>2026-04-11T08:30:47.813Z</time></trkpt><trkpt lat="41.8600133" lon="13.2061067"><ele>592.0</ele><time>2026-04-11T08:30:48.81Z</time></trkpt><trkpt lat="41.860055" lon="13.2059233"><ele>592.0</ele><time>2026-04-11T08:30:49.81Z</time></trkpt><trkpt lat="41.8600733" lon="13.2057217"><ele>592.0</ele><time>2026-04-11T08:30:50.813Z</time></trkpt><trkpt lat="41.8600667" lon="13.2055267"><ele>592.0</ele><time>2026-04-11T08:30:51.812Z</time></trkpt><trkpt lat="41.8600367" lon="13.2053567"><ele>592.0</ele><time>2026-04-11T08:30:52.813Z</time></trkpt><trkpt lat="41.8599817" lon="13.2051967"><ele>592.0</ele><time>2026-04-11T08:30:53.813Z</time></trkpt><trkpt lat="41.8598933" lon="13.2050417"><ele>592.0</ele><time>2026-04-11T08:30:54.812Z</time></trkpt><trkpt lat="41.8598217" lon="13.2048867"><ele>594.25</ele><time>2026-04-11T08:30:55.812Z</time></trkpt><trkpt lat="41.859775" lon="13.2047317"><ele>596.5</ele><time>2026-04-11T08:30:56.814Z</time></trkpt><trkpt lat="41.8597467" lon="13.20456"><ele>598.75</ele><time>2026-04-11T08:30:57.813Z</time></trkpt><trkpt lat="41.85972" lon="13.204375"><ele>601.0</ele><time>2026-04-11T08:30:58.811Z</time></trkpt><trkpt lat="41.8596733" lon="13.2041917"><ele>601.0</ele><time>2026-04-11T08:30:59.809Z</time></trkpt><trkpt lat="41.8596017" lon="13.204025"><ele>601.0</ele><time>2026-04-11T08:31:00.809Z</time></trkpt><trkpt lat="41.85951" lon="13.203875"><ele>601.0</ele><time>2026-04-11T08:31:01.81Z</time></trkpt><trkpt lat="41.85942" lon="13.2037533"><ele>601.0</ele><time>2026-04-11T08:31:02.81Z</time></trkpt><trkpt lat="41.859355" lon="13.2036567"><ele>601.4</ele><time>2026-04-11T08:31:03.812Z</time></trkpt><trkpt lat="41.8593217" lon="13.2035583"><ele>601.8</ele><time>2026-04-11T08:31:04.811Z</time></trkpt><trkpt lat="41.8593033" lon="13.2034517"><ele>602.1999999999999</ele><time>2026-04-11T08:31:05.809Z</time></trkpt><trkpt lat="41.8593117" lon="13.2033333"><ele>602.6</ele><time>2026-04-11T08:31:06.81Z</time></trkpt><trkpt lat="41.8593217" lon="13.2032233"><ele>603.0</ele><time>2026-04-11T08:31:07.81Z</time></trkpt><trkpt lat="41.85939" lon="13.20308"><ele>599.0</ele><time>2026-04-11T08:31:08.813Z</time></trkpt><trkpt lat="41.859475" lon="13.2029617"><ele>595.0</ele><time>2026-04-11T08:31:09.813Z</time></trkpt><trkpt lat="41.85955" lon="13.20287"><ele>591.0</ele><time>2026-04-11T08:31:10.813Z</time></trkpt><trkpt lat="41.859635" lon="13.20279"><ele>587.0</ele><time>2026-04-11T08:31:11.81Z</time></trkpt><trkpt lat="41.859725" lon="13.20273"><ele>583.0</ele><time>2026-04-11T08:31:12.81Z</time></trkpt><trkpt lat="41.859825" lon="13.2026867"><ele>583.0</ele><time>2026-04-11T08:31:13.813Z</time></trkpt><trkpt lat="41.8599333" lon="13.2026533"><ele>583.0</ele><time>2026-04-11T08:31:14.813Z</time></trkpt><trkpt lat="41.8600467" lon="13.20261"><ele>583.0</ele><time>2026-04-11T08:31:15.809Z</time></trkpt><trkpt lat="41.8601467" lon="13.202535"><ele>583.0</ele><time>2026-04-11T08:31:16.816Z</time></trkpt><trkpt lat="41.860245" lon="13.2024567"><ele>581.75</ele><time>2026-04-11T08:31:17.812Z</time></trkpt><trkpt lat="41.8603417" lon="13.2023667"><ele>580.5</ele><time>2026-04-11T08:31:18.813Z</time></trkpt><trkpt lat="41.8604333" lon="13.20227"><ele>579.25</ele><time>2026-04-11T08:31:19.813Z</time></trkpt><trkpt lat="41.86052" lon="13.2021617"><ele>578.0</ele><time>2026-04-11T08:31:20.813Z</time></trkpt><trkpt lat="41.8606017" lon="13.20204"><ele>578.0</ele><time>2026-04-11T08:31:21.813Z</time></trkpt><trkpt lat="41.8606833" lon="13.2019183"><ele>578.0</ele><time>2026-04-11T08:31:22.812Z</time></trkpt><trkpt lat="41.860755" lon="13.2017867"><ele>578.0</ele><time>2026-04-11T08:31:23.812Z</time></trkpt><trkpt lat="41.8608283" lon="13.201655"><ele>578.0</ele><time>2026-04-11T08:31:24.81Z</time></trkpt><trkpt lat="41.8609083" lon="13.2015267"><ele>577.0</ele><time>2026-04-11T08:31:25.812Z</time></trkpt><trkpt lat="41.8609933" lon="13.2014033"><ele>576.0</ele><time>2026-04-11T08:31:26.814Z</time></trkpt><trkpt lat="41.8610917" lon="13.2012917"><ele>575.0</ele><time>2026-04-11T08:31:27.813Z</time></trkpt><trkpt lat="41.8611883" lon="13.2011817"><ele>574.0</ele><time>2026-04-11T08:31:28.813Z</time></trkpt><trkpt lat="41.8612883" lon="13.2010767"><ele>574.0</ele><time>2026-04-11T08:31:29.812Z</time></trkpt><trkpt lat="41.8613883" lon="13.2009717"><ele>574.0</ele><time>2026-04-11T08:31:30.813Z</time></trkpt><trkpt lat="41.8614867" lon="13.2008717"><ele>574.0</ele><time>2026-04-11T08:31:31.813Z</time></trkpt><trkpt lat="41.8615767" lon="13.2007817"><ele>574.0</ele><time>2026-04-11T08:31:32.814Z</time></trkpt><trkpt lat="41.8616583" lon="13.2006967"><ele>573.6</ele><time>2026-04-11T08:31:33.81Z</time></trkpt><trkpt lat="41.8617267" lon="13.2006017"><ele>573.2</ele><time>2026-04-11T08:31:34.809Z</time></trkpt><trkpt lat="41.86178" lon="13.2004933"><ele>572.8000000000001</ele><time>2026-04-11T08:31:35.813Z</time></trkpt><trkpt lat="41.8618217" lon="13.2003733"><ele>572.4</ele><time>2026-04-11T08:31:36.812Z</time></trkpt><trkpt lat="41.8618433" lon="13.2002367"><ele>572.0</ele><time>2026-04-11T08:31:37.812Z</time></trkpt><trkpt lat="41.8618583" lon="13.2001"><ele>571.5</ele><time>2026-04-11T08:31:38.813Z</time></trkpt><trkpt lat="41.8618767" lon="13.19997"><ele>571.0</ele><time>2026-04-11T08:31:39.813Z</time></trkpt><trkpt lat="41.8619133" lon="13.1998567"><ele>570.5</ele><time>2026-04-11T08:31:40.813Z</time></trkpt><trkpt lat="41.861965" lon="13.1997617"><ele>570.0</ele><time>2026-04-11T08:31:41.812Z</time></trkpt><trkpt lat="41.8620233" lon="13.1996867"><ele>569.5</ele><time>2026-04-11T08:31:42.812Z</time></trkpt><trkpt lat="41.862095" lon="13.1996333"><ele>569.0</ele><time>2026-04-11T08:31:43.812Z</time></trkpt><trkpt lat="41.8621767" lon="13.1995967"><ele>569.0</ele><time>2026-04-11T08:31:44.812Z</time></trkpt><trkpt lat="41.862265" lon="13.1995683"><ele>569.0</ele><time>2026-04-11T08:31:45.809Z</time></trkpt><trkpt lat="41.8623533" lon="13.1995383"><ele>569.0</ele><time>2026-04-11T08:31:46.812Z</time></trkpt><trkpt lat="41.8624433" lon="13.1995133"><ele>569.0</ele><time>2026-04-11T08:31:47.809Z</time></trkpt><trkpt lat="41.8625333" lon="13.199485"><ele>569.0</ele><time>2026-04-11T08:31:48.812Z</time></trkpt><trkpt lat="41.8626267" lon="13.1994733"><ele>569.4</ele><time>2026-04-11T08:31:49.81Z</time></trkpt><trkpt lat="41.8627217" lon="13.1994633"><ele>569.8</ele><time>2026-04-11T08:31:50.81Z</time></trkpt><trkpt lat="41.8628217" lon="13.1994517"><ele>570.2</ele><time>2026-04-11T08:31:51.813Z</time></trkpt><trkpt lat="41.86293" lon="13.1994333"><ele>570.6</ele><time>2026-04-11T08:31:52.811Z</time></trkpt><trkpt lat="41.8630417" lon="13.199415"><ele>571.0</ele><time>2026-04-11T08:31:53.812Z</time></trkpt><trkpt lat="41.8631517" lon="13.1994"><ele>571.0</ele><time>2026-04-11T08:31:54.808Z</time></trkpt><trkpt lat="41.86326" lon="13.19938"><ele>571.0</ele><time>2026-04-11T08:31:55.813Z</time></trkpt><trkpt lat="41.8633717" lon="13.199355"><ele>571.0</ele><time>2026-04-11T08:31:56.814Z</time></trkpt><trkpt lat="41.8634817" lon="13.1993067"><ele>571.0</ele><time>2026-04-11T08:31:57.813Z</time></trkpt><trkpt lat="41.8635967" lon="13.1992467"><ele>570.0</ele><time>2026-04-11T08:31:58.813Z</time></trkpt><trkpt lat="41.863715" lon="13.1991883"><ele>569.0</ele><time>2026-04-11T08:31:59.813Z</time></trkpt><trkpt lat="41.8638367" lon="13.199125"><ele>568.0</ele><time>2026-04-11T08:32:00.813Z</time></trkpt><trkpt lat="41.86396" lon="13.1990617"><ele>567.0</ele><time>2026-04-11T08:32:01.813Z</time></trkpt><trkpt lat="41.8640767" lon="13.198985"><ele>567.0</ele><time>2026-04-11T08:32:02.814Z</time></trkpt><trkpt lat="41.8641917" lon="13.1988967"><ele>567.0</ele><time>2026-04-11T08:32:03.813Z</time></trkpt><trkpt lat="41.8642883" lon="13.1987783"><ele>567.0</ele><time>2026-04-11T08:32:04.81Z</time></trkpt><trkpt lat="41.864365" lon="13.1986267"><ele>567.0</ele><time>2026-04-11T08:32:05.809Z</time></trkpt><trkpt lat="41.8644317" lon="13.1984667"><ele>567.25</ele><time>2026-04-11T08:32:06.814Z</time></trkpt><trkpt lat="41.8644933" lon="13.1983083"><ele>567.5</ele><time>2026-04-11T08:32:07.81Z</time></trkpt><trkpt lat="41.8645467" lon="13.1981517"><ele>567.75</ele><time>2026-04-11T08:32:08.81Z</time></trkpt><trkpt lat="41.8646033" lon="13.1980133"><ele>568.0</ele><time>2026-04-11T08:32:09.813Z</time></trkpt><trkpt lat="41.8646417" lon="13.1978783"><ele>568.0</ele><time>2026-04-11T08:32:10.815Z</time></trkpt><trkpt lat="41.8646533" lon="13.1977433"><ele>568.0</ele><time>2026-04-11T08:32:11.812Z</time></trkpt><trkpt lat="41.8646467" lon="13.19761"><ele>568.0</ele><time>2026-04-11T08:32:12.813Z</time></trkpt><trkpt lat="41.8646" lon="13.1974767"><ele>568.0</ele><time>2026-04-11T08:32:13.809Z</time></trkpt><trkpt lat="41.86453" lon="13.1973517"><ele>568.0</ele><time>2026-04-11T08:32:14.809Z</time></trkpt><trkpt lat="41.8644633" lon="13.1972317"><ele>568.5</ele><time>2026-04-11T08:32:15.81Z</time></trkpt><trkpt lat="41.8644017" lon="13.1971083"><ele>569.0</ele><time>2026-04-11T08:32:16.81Z</time></trkpt><trkpt lat="41.8643533" lon="13.1969767"><ele>569.5</ele><time>2026-04-11T08:32:17.81Z</time></trkpt><trkpt lat="41.8643133" lon="13.1968333"><ele>570.0</ele><time>2026-04-11T08:32:18.81Z</time></trkpt><trkpt lat="41.86428" lon="13.1966733"><ele>572.25</ele><time>2026-04-11T08:32:19.81Z</time></trkpt><trkpt lat="41.86425" lon="13.19651"><ele>574.5</ele><time>2026-04-11T08:32:20.812Z</time></trkpt><trkpt lat="41.86422" lon="13.1963383"><ele>576.75</ele><time>2026-04-11T08:32:21.812Z</time></trkpt><trkpt lat="41.8641883" lon="13.1961667"><ele>579.0</ele><time>2026-04-11T08:32:22.813Z</time></trkpt><trkpt lat="41.86416" lon="13.1959933"><ele>579.0</ele><time>2026-04-11T08:32:23.813Z</time></trkpt><trkpt lat="41.8641433" lon="13.1958233"><ele>579.0</ele><time>2026-04-11T08:32:24.813Z</time></trkpt><trkpt lat="41.8641383" lon="13.1956517"><ele>579.0</ele><time>2026-04-11T08:32:25.813Z</time></trkpt><trkpt lat="41.8641567" lon="13.1954833"><ele>579.0</ele><time>2026-04-11T08:32:26.814Z</time></trkpt><trkpt lat="41.8641817" lon="13.1953167"><ele>579.25</ele><time>2026-04-11T08:32:27.812Z</time></trkpt><trkpt lat="41.864215" lon="13.195155"><ele>579.5</ele><time>2026-04-11T08:32:28.81Z</time></trkpt><trkpt lat="41.86426" lon="13.1949933"><ele>579.75</ele><time>2026-04-11T08:32:29.818Z</time></trkpt><trkpt lat="41.8643133" lon="13.1948317"><ele>580.0</ele><time>2026-04-11T08:32:30.816Z</time></trkpt><trkpt lat="41.8643633" lon="13.1946683"><ele>576.25</ele><time>2026-04-11T08:32:31.811Z</time></trkpt><trkpt lat="41.864425" lon="13.194515"><ele>572.5</ele><time>2026-04-11T08:32:32.81Z</time></trkpt><trkpt lat="41.86451" lon="13.1943783"><ele>568.75</ele><time>2026-04-11T08:32:33.812Z</time></trkpt><trkpt lat="41.8645917" lon="13.194235"><ele>565.0</ele><time>2026-04-11T08:32:34.812Z</time></trkpt><trkpt lat="41.8646683" lon="13.1940883"><ele>568.5</ele><time>2026-04-11T08:32:35.813Z</time></trkpt><trkpt lat="41.8647483" lon="13.1939533"><ele>572.0</ele><time>2026-04-11T08:32:36.813Z</time></trkpt><trkpt lat="41.864825" lon="13.1938183"><ele>575.5</ele><time>2026-04-11T08:32:37.813Z</time></trkpt><trkpt lat="41.8649017" lon="13.193685"><ele>579.0</ele><time>2026-04-11T08:32:38.814Z</time></trkpt><trkpt lat="41.86497" lon="13.1935567"><ele>579.0</ele><time>2026-04-11T08:32:39.813Z</time></trkpt><trkpt lat="41.8650383" lon="13.1934367"><ele>579.0</ele><time>2026-04-11T08:32:40.813Z</time></trkpt><trkpt lat="41.86511" lon="13.1933333"><ele>579.0</ele><time>2026-04-11T08:32:41.813Z</time></trkpt><trkpt lat="41.8651917" lon="13.193235"><ele>579.0</ele><time>2026-04-11T08:32:42.809Z</time></trkpt><trkpt lat="41.8652767" lon="13.1931367"><ele>579.0</ele><time>2026-04-11T08:32:43.812Z</time></trkpt><trkpt lat="41.865365" lon="13.1930433"><ele>581.75</ele><time>2026-04-11T08:32:44.81Z</time></trkpt><trkpt lat="41.8654583" lon="13.1929617"><ele>584.5</ele><time>2026-04-11T08:32:45.81Z</time></trkpt><trkpt lat="41.8655633" lon="13.1928967"><ele>587.25</ele><time>2026-04-11T08:32:46.813Z</time></trkpt><trkpt lat="41.86568" lon="13.1928583"><ele>590.0</ele><time>2026-04-11T08:32:47.812Z</time></trkpt><trkpt lat="41.865805" lon="13.19284"><ele>590.0</ele><time>2026-04-11T08:32:48.813Z</time></trkpt><trkpt lat="41.86593" lon="13.1928183"><ele>590.0</ele><time>2026-04-11T08:32:49.81Z</time></trkpt><trkpt lat="41.86606" lon="13.1927783"><ele>590.0</ele><time>2026-04-11T08:32:50.81Z</time></trkpt><trkpt lat="41.8661883" lon="13.1927433"><ele>590.0</ele><time>2026-04-11T08:32:51.813Z</time></trkpt><trkpt lat="41.8663133" lon="13.1926967"><ele>587.0</ele><time>2026-04-11T08:32:52.809Z</time></trkpt><trkpt lat="41.8664283" lon="13.19265"><ele>584.0</ele><time>2026-04-11T08:32:53.814Z</time></trkpt><trkpt lat="41.8665417" lon="13.1926017"><ele>581.0</ele><time>2026-04-11T08:32:54.813Z</time></trkpt><trkpt lat="41.8666533" lon="13.1925483"><ele>578.0</ele><time>2026-04-11T08:32:55.813Z</time></trkpt><trkpt lat="41.8667667" lon="13.19249"><ele>576.1999999999999</ele><time>2026-04-11T08:32:56.813Z</time></trkpt><trkpt lat="41.8668767" lon="13.19243"><ele>574.4</ele><time>2026-04-11T08:32:57.813Z</time></trkpt><trkpt lat="41.8669783" lon="13.1923767"><ele>572.5999999999999</ele><time>2026-04-11T08:32:58.813Z</time></trkpt><trkpt lat="41.8670733" lon="13.19233"><ele>570.8</ele><time>2026-04-11T08:32:59.81Z</time></trkpt><trkpt lat="41.867165" lon="13.1922983"><ele>569.0</ele><time>2026-04-11T08:33:00.813Z</time></trkpt><trkpt lat="41.8672633" lon="13.1922733"><ele>569.0</ele><time>2026-04-11T08:33:01.812Z</time></trkpt><trkpt lat="41.8673567" lon="13.19226"><ele>569.0</ele><time>2026-04-11T08:33:02.811Z</time></trkpt><trkpt lat="41.86745" lon="13.1922583"><ele>569.0</ele><time>2026-04-11T08:33:03.809Z</time></trkpt><trkpt lat="41.8675317" lon="13.1922917"><ele>569.0</ele><time>2026-04-11T08:33:04.813Z</time></trkpt><trkpt lat="41.8676017" lon="13.1923533"><ele>569.0</ele><time>2026-04-11T08:33:05.809Z</time></trkpt><trkpt lat="41.8676783" lon="13.192415"><ele>569.0</ele><time>2026-04-11T08:33:06.813Z</time></trkpt><trkpt lat="41.8677517" lon="13.1924783"><ele>567.5</ele><time>2026-04-11T08:33:07.812Z</time></trkpt><trkpt lat="41.8678283" lon="13.1925333"><ele>566.0</ele><time>2026-04-11T08:33:08.814Z</time></trkpt><trkpt lat="41.8679133" lon="13.1925667"><ele>564.5</ele><time>2026-04-11T08:33:09.81Z</time></trkpt><trkpt lat="41.8680017" lon="13.192575"><ele>563.0</ele><time>2026-04-11T08:33:10.812Z</time></trkpt><trkpt lat="41.86809" lon="13.1925467"><ele>561.5</ele><time>2026-04-11T08:33:11.812Z</time></trkpt><trkpt lat="41.8681683" lon="13.192485"><ele>560.0</ele><time>2026-04-11T08:33:12.813Z</time></trkpt><trkpt lat="41.8682183" lon="13.1923617"><ele>560.8</ele><time>2026-04-11T08:33:13.816Z</time></trkpt><trkpt lat="41.8682767" lon="13.1922617"><ele>561.6</ele><time>2026-04-11T08:33:14.815Z</time></trkpt><trkpt lat="41.8683483" lon="13.19218"><ele>562.4</ele><time>2026-04-11T08:33:15.813Z</time></trkpt><trkpt lat="41.8684267" lon="13.1921033"><ele>563.2</ele><time>2026-04-11T08:33:16.814Z</time></trkpt><trkpt lat="41.8685033" lon="13.1920467"><ele>564.0</ele><time>2026-04-11T08:33:17.813Z</time></trkpt><trkpt lat="41.8685767" lon="13.1919983"><ele>566.0</ele><time>2026-04-11T08:33:18.813Z</time></trkpt><trkpt lat="41.8686467" lon="13.1919717"><ele>568.0</ele><time>2026-04-11T08:33:19.812Z</time></trkpt><trkpt lat="41.8687583" lon="13.1920317"><ele>570.0</ele><time>2026-04-11T08:33:21.81Z</time></trkpt><trkpt lat="41.8688033" lon="13.1921033"><ele>572.0</ele><time>2026-04-11T08:33:22.812Z</time></trkpt><trkpt lat="41.8688283" lon="13.1921917"><ele>574.0</ele><time>2026-04-11T08:33:23.813Z</time></trkpt><trkpt lat="41.8688483" lon="13.19228"><ele>576.0</ele><time>2026-04-11T08:33:24.809Z</time></trkpt><trkpt lat="41.8688733" lon="13.1924183"><ele>576.0</ele><time>2026-04-11T08:33:26.814Z</time></trkpt><trkpt lat="41.8688617" lon="13.192505"><ele>576.0</ele><time>2026-04-11T08:33:29.81Z</time></trkpt><trkpt lat="41.8688517" lon="13.19267"><ele>576.0</ele><time>2026-04-11T08:36:38.811Z</time></trkpt><trkpt lat="41.86885" lon="13.1928067"><ele>576.0</ele><time>2026-04-11T08:37:03.814Z</time></trkpt><trkpt lat="41.868875" lon="13.1928883"><ele>576.0</ele><time>2026-04-11T08:37:09.81Z</time></trkpt><trkpt lat="41.8688309" lon="13.1929529"><ele>576.0</ele><time>2026-04-11T08:37:16.81Z</time></trkpt><trkpt lat="41.8688158" lon="13.1930369"><ele>576.0</ele><time>2026-04-11T08:37:26.811Z</time></trkpt><trkpt lat="41.8688022" lon="13.1931245"><ele>576.0</ele><time>2026-04-11T08:37:31.811Z</time></trkpt><trkpt lat="41.8687749" lon="13.1932309"><ele>576.0</ele><time>2026-04-11T08:38:30.812Z</time></trkpt><trkpt lat="41.8686925" lon="13.1932837"><ele>576.0</ele><time>2026-04-11T08:38:46.811Z</time></trkpt><trkpt lat="41.8685952" lon="13.193266"><ele>576.0</ele><time>2026-04-11T08:39:43.811Z</time></trkpt><trkpt lat="41.8685055" lon="13.1932401"><ele>576.0</ele><time>2026-04-11T08:39:58.811Z</time></trkpt><trkpt lat="41.8684444" lon="13.1932181"><ele>573.3333333333334</ele><time>2026-04-11T08:40:02.813Z</time></trkpt><trkpt lat="41.8683795" lon="13.1932017"><ele>570.6666666666666</ele><time>2026-04-11T08:40:09.81Z</time></trkpt><trkpt lat="41.8682616" lon="13.193207"><ele>568.0</ele><time>2026-04-11T08:40:25.812Z</time></trkpt><trkpt lat="41.8681514" lon="13.1932132"><ele>565.3333333333333</ele><time>2026-04-11T08:40:41.812Z</time></trkpt><trkpt lat="41.8680841" lon="13.1931841"><ele>562.6666666666666</ele><time>2026-04-11T08:40:44.812Z</time></trkpt><trkpt lat="41.8680097" lon="13.1931709"><ele>560.0</ele><time>2026-04-11T08:40:52.812Z</time></trkpt><trkpt lat="41.8679418" lon="13.1931555"><ele>560.0</ele><time>2026-04-11T08:40:55.811Z</time></trkpt><trkpt lat="41.8678665" lon="13.1931669"><ele>560.0</ele><time>2026-04-11T08:41:02.812Z</time></trkpt><trkpt lat="41.8677486" lon="13.1931317"><ele>560.0</ele><time>2026-04-11T08:41:14.811Z</time></trkpt><trkpt lat="41.8676492" lon="13.1930457"><ele>560.0</ele><time>2026-04-11T08:41:27.812Z</time></trkpt><trkpt lat="41.8675321" lon="13.1930352"><ele>560.0</ele><time>2026-04-11T08:41:42.811Z</time></trkpt><trkpt lat="41.8674523" lon="13.1930785"><ele>561.5</ele><time>2026-04-11T08:41:50.812Z</time></trkpt><trkpt lat="41.867513" lon="13.1930349"><ele>563.0</ele><time>2026-04-11T08:42:11.811Z</time></trkpt><trkpt lat="41.8674671" lon="13.1931136"><ele>564.5</ele><time>2026-04-11T08:44:35.811Z</time></trkpt><trkpt lat="41.8673345" lon="13.1931539"><ele>566.0</ele><time>2026-04-11T08:44:48.812Z</time></trkpt><trkpt lat="41.8672588" lon="13.1931452"><ele>567.5</ele><time>2026-04-11T08:44:51.81Z</time></trkpt><trkpt lat="41.8671804" lon="13.1931462"><ele>569.0</ele><time>2026-04-11T08:44:59.812Z</time></trkpt><trkpt lat="41.8670803" lon="13.1931642"><ele>569.0</ele><time>2026-04-11T08:45:07.812Z</time></trkpt><trkpt lat="41.8670114" lon="13.193158"><ele>569.0</ele><time>2026-04-11T08:45:12.811Z</time></trkpt><trkpt lat="41.8669411" lon="13.1932274"><ele>569.0</ele><time>2026-04-11T08:45:25.812Z</time></trkpt><trkpt lat="41.8668741" lon="13.1932639"><ele>569.0</ele><time>2026-04-11T08:45:31.811Z</time></trkpt><trkpt lat="41.8668078" lon="13.1932457"><ele>569.0</ele><time>2026-04-11T08:45:38.814Z</time></trkpt><trkpt lat="41.8667427" lon="13.1932374"><ele>569.0</ele><time>2026-04-11T08:45:41.81Z</time></trkpt><trkpt lat="41.8666377" lon="13.1932274"><ele>568.8571428571429</ele><time>2026-04-11T08:45:51.811Z</time></trkpt><trkpt lat="41.8665618" lon="13.1932539"><ele>568.7142857142858</ele><time>2026-04-11T08:45:56.812Z</time></trkpt><trkpt lat="41.8665083" lon="13.1933078"><ele>568.5714285714286</ele><time>2026-04-11T08:46:01.811Z</time></trkpt><trkpt lat="41.86646" lon="13.1932477"><ele>568.4285714285714</ele><time>2026-04-11T08:46:06.81Z</time></trkpt><trkpt lat="41.8664325" lon="13.1933317"><ele>568.2857142857142</ele><time>2026-04-11T08:50:15.812Z</time></trkpt><trkpt lat="41.8664142" lon="13.1934423"><ele>568.1428571428571</ele><time>2026-04-11T08:50:33.811Z</time></trkpt><trkpt lat="41.8663452" lon="13.1934288"><ele>568.0</ele><time>2026-04-11T08:50:57.811Z</time></trkpt><trkpt lat="41.8663816" lon="13.1935071"><ele>568.0</ele><time>2026-04-11T08:52:26.814Z</time></trkpt><trkpt lat="41.8664207" lon="13.1934345"><ele>568.0</ele><time>2026-04-11T08:52:45.814Z</time></trkpt><trkpt lat="41.8665138" lon="13.1933642"><ele>568.0</ele><time>2026-04-11T08:52:58.812Z</time></trkpt><trkpt lat="41.8665859" lon="13.1933396"><ele>568.0</ele><time>2026-04-11T08:53:03.812Z</time></trkpt><trkpt lat="41.8666694" lon="13.193291"><ele>568.0</ele><time>2026-04-11T08:55:24.812Z</time></trkpt><trkpt lat="41.8667691" lon="13.1932517"><ele>568.0</ele><time>2026-04-11T08:55:39.814Z</time></trkpt><trkpt lat="41.8668971" lon="13.1932329"><ele>567.8333333333334</ele><time>2026-04-11T08:55:50.813Z</time></trkpt><trkpt lat="41.8669876" lon="13.1931985"><ele>567.6666666666667</ele><time>2026-04-11T08:55:56.812Z</time></trkpt><trkpt lat="41.8670583" lon="13.1931515"><ele>567.5</ele><time>2026-04-11T08:56:00.81Z</time></trkpt><trkpt lat="41.8671461" lon="13.1931724"><ele>567.3333333333334</ele><time>2026-04-11T08:56:22.811Z</time></trkpt><trkpt lat="41.8672133" lon="13.1931568"><ele>567.1666666666666</ele><time>2026-04-11T08:56:29.813Z</time></trkpt><trkpt lat="41.867293" lon="13.1931536"><ele>567.0</ele><time>2026-04-11T08:56:47.815Z</time></trkpt><trkpt lat="41.867413" lon="13.1931683"><ele>567.0</ele><time>2026-04-11T08:57:29.813Z</time></trkpt><trkpt lat="41.8675261" lon="13.1931791"><ele>567.0</ele><time>2026-04-11T08:57:44.813Z</time></trkpt><trkpt lat="41.8676442" lon="13.1932311"><ele>567.0</ele><time>2026-04-11T08:57:55.813Z</time></trkpt><trkpt lat="41.8677705" lon="13.1932246"><ele>567.0</ele><time>2026-04-11T08:58:09.813Z</time></trkpt><trkpt lat="41.867921" lon="13.1932266"><ele>565.8333333333334</ele><time>2026-04-11T08:58:28.812Z</time></trkpt><trkpt lat="41.8679836" lon="13.1932409"><ele>564.6666666666666</ele><time>2026-04-11T08:58:32.814Z</time></trkpt><trkpt lat="41.8680539" lon="13.193239"><ele>563.5</ele><time>2026-04-11T08:58:37.814Z</time></trkpt><trkpt lat="41.8681264" lon="13.1932338"><ele>562.3333333333333</ele><time>2026-04-11T08:58:42.813Z</time></trkpt><trkpt lat="41.8682458" lon="13.1932273"><ele>561.1666666666666</ele><time>2026-04-11T08:58:51.813Z</time></trkpt><trkpt lat="41.8683134" lon="13.193253"><ele>560.0</ele><time>2026-04-11T08:58:55.813Z</time></trkpt><trkpt lat="41.8683839" lon="13.1932522"><ele>561.6666666666666</ele><time>2026-04-11T08:59:07.815Z</time></trkpt><trkpt lat="41.8684579" lon="13.1932552"><ele>563.3333333333333</ele><time>2026-04-11T08:59:11.814Z</time></trkpt><trkpt lat="41.8685552" lon="13.1932859"><ele>565.0</ele><time>2026-04-11T08:59:32.814Z</time></trkpt><trkpt lat="41.8686402" lon="13.1933013"><ele>566.6666666666666</ele><time>2026-04-11T09:00:04.814Z</time></trkpt><trkpt lat="41.8687236" lon="13.1931922"><ele>568.3333333333334</ele><time>2026-04-11T09:00:16.811Z</time></trkpt><trkpt lat="41.8687607" lon="13.1931135"><ele>570.0</ele><time>2026-04-11T09:00:20.815Z</time></trkpt><trkpt lat="41.8687836" lon="13.1930194"><ele>571.2</ele><time>2026-04-11T09:00:38.814Z</time></trkpt><trkpt lat="41.8688299" lon="13.1929348"><ele>572.4</ele><time>2026-04-11T09:00:40.811Z</time></trkpt><trkpt lat="41.8688566" lon="13.1927938"><ele>573.6</ele><time>2026-04-11T09:00:55.812Z</time></trkpt><trkpt lat="41.8688255" lon="13.1926273"><ele>574.8</ele><time>2026-04-11T09:03:23.815Z</time></trkpt><trkpt lat="41.8688305" lon="13.1925403"><ele>576.0</ele><time>2026-04-11T09:07:57.814Z</time></trkpt><trkpt lat="41.8689033" lon="13.1924567"><ele>576.0</ele><time>2026-04-11T09:09:18.813Z</time></trkpt><trkpt lat="41.8689617" lon="13.192515"><ele>576.0</ele><time>2026-04-11T09:09:25.814Z</time></trkpt><trkpt lat="41.8689783" lon="13.1925967"><ele>576.0</ele><time>2026-04-11T09:09:27.814Z</time></trkpt><trkpt lat="41.8690117" lon="13.1926983"><ele>576.0</ele><time>2026-04-11T09:09:29.812Z</time></trkpt><trkpt lat="41.8690483" lon="13.1928183"><ele>576.0</ele><time>2026-04-11T09:09:31.814Z</time></trkpt><trkpt lat="41.86909" lon="13.1929533"><ele>576.0</ele><time>2026-04-11T09:09:33.812Z</time></trkpt><trkpt lat="41.8691133" lon="13.1930383"><ele>576.0</ele><time>2026-04-11T09:09:34.813Z</time></trkpt><trkpt lat="41.8691383" lon="13.1931433"><ele>576.0</ele><time>2026-04-11T09:09:35.812Z</time></trkpt><trkpt lat="41.869165" lon="13.1932283"><ele>576.0</ele><time>2026-04-11T09:09:36.812Z</time></trkpt><trkpt lat="41.8691867" lon="13.1933117"><ele>576.0</ele><time>2026-04-11T09:09:37.814Z</time></trkpt><trkpt lat="41.8692133" lon="13.1933933"><ele>576.0</ele><time>2026-04-11T09:09:38.814Z</time></trkpt><trkpt lat="41.8692333" lon="13.1935117"><ele>576.0</ele><time>2026-04-11T09:09:39.814Z</time></trkpt><trkpt lat="41.86924" lon="13.1936217"><ele>574.8</ele><time>2026-04-11T09:09:40.811Z</time></trkpt><trkpt lat="41.869235" lon="13.193735"><ele>573.6</ele><time>2026-04-11T09:09:41.812Z</time></trkpt><trkpt lat="41.8692133" lon="13.1938517"><ele>572.4</ele><time>2026-04-11T09:09:42.812Z</time></trkpt><trkpt lat="41.8691817" lon="13.193975"><ele>571.2</ele><time>2026-04-11T09:09:43.814Z</time></trkpt><trkpt lat="41.869145" lon="13.1941"><ele>570.0</ele><time>2026-04-11T09:09:44.813Z</time></trkpt><trkpt lat="41.869105" lon="13.19423"><ele>569.8</ele><time>2026-04-11T09:09:45.814Z</time></trkpt><trkpt lat="41.8690517" lon="13.1943583"><ele>569.6</ele><time>2026-04-11T09:09:46.813Z</time></trkpt><trkpt lat="41.8690017" lon="13.19448"><ele>569.4</ele><time>2026-04-11T09:09:47.81Z</time></trkpt><trkpt lat="41.8689533" lon="13.1946"><ele>569.2</ele><time>2026-04-11T09:09:48.812Z</time></trkpt><trkpt lat="41.868915" lon="13.1947267"><ele>569.0</ele><time>2026-04-11T09:09:49.812Z</time></trkpt><trkpt lat="41.8689117" lon="13.194865"><ele>570.75</ele><time>2026-04-11T09:09:50.814Z</time></trkpt><trkpt lat="41.8689317" lon="13.195005"><ele>572.5</ele><time>2026-04-11T09:09:51.812Z</time></trkpt><trkpt lat="41.86898" lon="13.1951367"><ele>574.25</ele><time>2026-04-11T09:09:52.813Z</time></trkpt><trkpt lat="41.8690483" lon="13.1952533"><ele>576.0</ele><time>2026-04-11T09:09:53.812Z</time></trkpt><trkpt lat="41.8691583" lon="13.1953333"><ele>584.75</ele><time>2026-04-11T09:09:54.814Z</time></trkpt><trkpt lat="41.8692833" lon="13.1954"><ele>593.5</ele><time>2026-04-11T09:09:55.814Z</time></trkpt><trkpt lat="41.86941" lon="13.1954617"><ele>602.25</ele><time>2026-04-11T09:09:56.814Z</time></trkpt><trkpt lat="41.8695233" lon="13.1955283"><ele>611.0</ele><time>2026-04-11T09:09:57.814Z</time></trkpt><trkpt lat="41.8696317" lon="13.1956083"><ele>605.5</ele><time>2026-04-11T09:09:58.813Z</time></trkpt><trkpt lat="41.86975" lon="13.195685"><ele>600.0</ele><time>2026-04-11T09:09:59.814Z</time></trkpt><trkpt lat="41.869855" lon="13.1957717"><ele>594.5</ele><time>2026-04-11T09:10:00.821Z</time></trkpt><trkpt lat="41.8699417" lon="13.19588"><ele>589.0</ele><time>2026-04-11T09:10:01.814Z</time></trkpt><trkpt lat="41.8700167" lon="13.1959933"><ele>589.0</ele><time>2026-04-11T09:10:02.814Z</time></trkpt><trkpt lat="41.870065" lon="13.1961283"><ele>589.0</ele><time>2026-04-11T09:10:03.811Z</time></trkpt><trkpt lat="41.8700983" lon="13.1962683"><ele>589.0</ele><time>2026-04-11T09:10:04.814Z</time></trkpt><trkpt lat="41.8701083" lon="13.196415"><ele>589.0</ele><time>2026-04-11T09:10:05.813Z</time></trkpt><trkpt lat="41.8701033" lon="13.1965633"><ele>589.0</ele><time>2026-04-11T09:10:06.814Z</time></trkpt><trkpt lat="41.8700733" lon="13.1967083"><ele>589.2</ele><time>2026-04-11T09:10:07.814Z</time></trkpt><trkpt lat="41.870025" lon="13.1968567"><ele>589.4</ele><time>2026-04-11T09:10:08.814Z</time></trkpt><trkpt lat="41.8699733" lon="13.197"><ele>589.6</ele><time>2026-04-11T09:10:09.814Z</time></trkpt><trkpt lat="41.86993" lon="13.1971283"><ele>589.8</ele><time>2026-04-11T09:10:10.813Z</time></trkpt><trkpt lat="41.8698917" lon="13.1972567"><ele>590.0</ele><time>2026-04-11T09:10:11.814Z</time></trkpt><trkpt lat="41.8698717" lon="13.1973833"><ele>590.0</ele><time>2026-04-11T09:10:12.814Z</time></trkpt><trkpt lat="41.8698733" lon="13.1975233"><ele>590.0</ele><time>2026-04-11T09:10:13.813Z</time></trkpt><trkpt lat="41.8699" lon="13.1976467"><ele>590.0</ele><time>2026-04-11T09:10:14.814Z</time></trkpt><trkpt lat="41.8699383" lon="13.1977417"><ele>590.0</ele><time>2026-04-11T09:10:15.814Z</time></trkpt><trkpt lat="41.86999" lon="13.19783"><ele>590.0</ele><time>2026-04-11T09:10:16.811Z</time></trkpt><trkpt lat="41.8700583" lon="13.1979133"><ele>596.0</ele><time>2026-04-11T09:10:17.811Z</time></trkpt><trkpt lat="41.8701333" lon="13.1979983"><ele>602.0</ele><time>2026-04-11T09:10:18.811Z</time></trkpt><trkpt lat="41.8701983" lon="13.1980917"><ele>608.0</ele><time>2026-04-11T09:10:19.811Z</time></trkpt><trkpt lat="41.870265" lon="13.1981833"><ele>614.0</ele><time>2026-04-11T09:10:20.811Z</time></trkpt><trkpt lat="41.8703167" lon="13.1982883"><ele>620.0</ele><time>2026-04-11T09:10:21.812Z</time></trkpt><trkpt lat="41.8703533" lon="13.1984"><ele>620.0</ele><time>2026-04-11T09:10:22.811Z</time></trkpt><trkpt lat="41.8703817" lon="13.19851"><ele>620.0</ele><time>2026-04-11T09:10:23.81Z</time></trkpt><trkpt lat="41.8704033" lon="13.198625"><ele>620.0</ele><time>2026-04-11T09:10:24.814Z</time></trkpt><trkpt lat="41.8704283" lon="13.198745"><ele>620.0</ele><time>2026-04-11T09:10:25.814Z</time></trkpt><trkpt lat="41.870465" lon="13.1988633"><ele>620.0</ele><time>2026-04-11T09:10:26.814Z</time></trkpt><trkpt lat="41.8704917" lon="13.198985"><ele>615.6</ele><time>2026-04-11T09:10:27.813Z</time></trkpt><trkpt lat="41.8705267" lon="13.1991017"><ele>611.2</ele><time>2026-04-11T09:10:28.815Z</time></trkpt><trkpt lat="41.8705717" lon="13.1992133"><ele>606.8</ele><time>2026-04-11T09:10:29.813Z</time></trkpt><trkpt lat="41.8706117" lon="13.1993183"><ele>602.4</ele><time>2026-04-11T09:10:30.813Z</time></trkpt><trkpt lat="41.8706333" lon="13.1994317"><ele>598.0</ele><time>2026-04-11T09:10:31.814Z</time></trkpt><trkpt lat="41.87065" lon="13.1995467"><ele>598.0</ele><time>2026-04-11T09:10:32.814Z</time></trkpt><trkpt lat="41.87064" lon="13.199685"><ele>598.0</ele><time>2026-04-11T09:10:33.813Z</time></trkpt><trkpt lat="41.870645" lon="13.1998233"><ele>598.0</ele><time>2026-04-11T09:10:34.814Z</time></trkpt><trkpt lat="41.8706717" lon="13.1999517"><ele>598.0</ele><time>2026-04-11T09:10:35.814Z</time></trkpt><trkpt lat="41.8707133" lon="13.2000733"><ele>598.0</ele><time>2026-04-11T09:10:36.81Z</time></trkpt><trkpt lat="41.87079" lon="13.2001783"><ele>593.75</ele><time>2026-04-11T09:10:37.815Z</time></trkpt><trkpt lat="41.8708833" lon="13.20026"><ele>589.5</ele><time>2026-04-11T09:10:38.812Z</time></trkpt><trkpt lat="41.8710067" lon="13.2003133"><ele>585.25</ele><time>2026-04-11T09:10:39.812Z</time></trkpt><trkpt lat="41.8711383" lon="13.20037"><ele>581.0</ele><time>2026-04-11T09:10:40.814Z</time></trkpt><trkpt lat="41.87126" lon="13.20045"><ele>582.5</ele><time>2026-04-11T09:10:41.814Z</time></trkpt><trkpt lat="41.8713833" lon="13.2005283"><ele>584.0</ele><time>2026-04-11T09:10:42.814Z</time></trkpt><trkpt lat="41.8714817" lon="13.200645"><ele>585.5</ele><time>2026-04-11T09:10:43.814Z</time></trkpt><trkpt lat="41.8715717" lon="13.2007783"><ele>587.0</ele><time>2026-04-11T09:10:44.813Z</time></trkpt><trkpt lat="41.8716583" lon="13.2009283"><ele>587.0</ele><time>2026-04-11T09:10:45.817Z</time></trkpt><trkpt lat="41.87174" lon="13.2010817"><ele>587.0</ele><time>2026-04-11T09:10:46.814Z</time></trkpt><trkpt lat="41.8718167" lon="13.201235"><ele>587.0</ele><time>2026-04-11T09:10:47.812Z</time></trkpt><trkpt lat="41.8718833" lon="13.2013867"><ele>587.0</ele><time>2026-04-11T09:10:48.812Z</time></trkpt><trkpt lat="41.8719533" lon="13.2015317"><ele>591.75</ele><time>2026-04-11T09:10:49.811Z</time></trkpt><trkpt lat="41.87203" lon="13.20167"><ele>596.5</ele><time>2026-04-11T09:10:50.812Z</time></trkpt><trkpt lat="41.872115" lon="13.2018017"><ele>601.25</ele><time>2026-04-11T09:10:51.811Z</time></trkpt><trkpt lat="41.872195" lon="13.201935"><ele>606.0</ele><time>2026-04-11T09:10:52.812Z</time></trkpt><trkpt lat="41.87227" lon="13.2020767"><ele>606.0</ele><time>2026-04-11T09:10:53.812Z</time></trkpt><trkpt lat="41.8723533" lon="13.2022167"><ele>606.0</ele><time>2026-04-11T09:10:54.814Z</time></trkpt><trkpt lat="41.8724583" lon="13.2023433"><ele>606.0</ele><time>2026-04-11T09:10:55.814Z</time></trkpt><trkpt lat="41.8725833" lon="13.2024667"><ele>606.0</ele><time>2026-04-11T09:10:56.811Z</time></trkpt><trkpt lat="41.8727067" lon="13.2025967"><ele>609.3333333333334</ele><time>2026-04-11T09:10:57.814Z</time></trkpt><trkpt lat="41.87281" lon="13.2027567"><ele>612.6666666666667</ele><time>2026-04-11T09:10:58.813Z</time></trkpt><trkpt lat="41.8729" lon="13.2029417"><ele>616.0</ele><time>2026-04-11T09:10:59.813Z</time></trkpt><trkpt lat="41.8729717" lon="13.2031333"><ele>610.75</ele><time>2026-04-11T09:11:00.814Z</time></trkpt><trkpt lat="41.8730133" lon="13.203315"><ele>605.5</ele><time>2026-04-11T09:11:01.817Z</time></trkpt><trkpt lat="41.8730317" lon="13.20348"><ele>600.25</ele><time>2026-04-11T09:11:02.813Z</time></trkpt><trkpt lat="41.87303" lon="13.20363"><ele>595.0</ele><time>2026-04-11T09:11:03.814Z</time></trkpt><trkpt lat="41.873045" lon="13.2037733"><ele>595.0</ele><time>2026-04-11T09:11:04.811Z</time></trkpt><trkpt lat="41.873095" lon="13.20389"><ele>595.0</ele><time>2026-04-11T09:11:05.811Z</time></trkpt><trkpt lat="41.873165" lon="13.2039767"><ele>595.0</ele><time>2026-04-11T09:11:06.813Z</time></trkpt><trkpt lat="41.8732467" lon="13.20404"><ele>595.0</ele><time>2026-04-11T09:11:07.81Z</time></trkpt><trkpt lat="41.8733333" lon="13.2040983"><ele>595.0</ele><time>2026-04-11T09:11:08.812Z</time></trkpt><trkpt lat="41.8734333" lon="13.2041467"><ele>598.8</ele><time>2026-04-11T09:11:09.81Z</time></trkpt><trkpt lat="41.873525" lon="13.204215"><ele>602.6</ele><time>2026-04-11T09:11:10.813Z</time></trkpt><trkpt lat="41.8736317" lon="13.20429"><ele>606.4</ele><time>2026-04-11T09:11:11.811Z</time></trkpt><trkpt lat="41.8736967" lon="13.204395"><ele>610.2</ele><time>2026-04-11T09:11:12.81Z</time></trkpt><trkpt lat="41.873735" lon="13.2045167"><ele>614.0</ele><time>2026-04-11T09:11:13.811Z</time></trkpt><trkpt lat="41.8737567" lon="13.20464"><ele>614.0</ele><time>2026-04-11T09:11:14.81Z</time></trkpt><trkpt lat="41.873745" lon="13.2047633"><ele>614.0</ele><time>2026-04-11T09:11:15.813Z</time></trkpt><trkpt lat="41.8737233" lon="13.204885"><ele>614.0</ele><time>2026-04-11T09:11:16.811Z</time></trkpt><trkpt lat="41.8736817" lon="13.205"><ele>614.0</ele><time>2026-04-11T09:11:17.812Z</time></trkpt><trkpt lat="41.873645" lon="13.2051167"><ele>614.0</ele><time>2026-04-11T09:11:18.813Z</time></trkpt><trkpt lat="41.8736217" lon="13.2052383"><ele>611.5</ele><time>2026-04-11T09:11:19.812Z</time></trkpt><trkpt lat="41.8736183" lon="13.2053567"><ele>609.0</ele><time>2026-04-11T09:11:20.812Z</time></trkpt><trkpt lat="41.8736417" lon="13.2054733"><ele>606.5</ele><time>2026-04-11T09:11:21.812Z</time></trkpt><trkpt lat="41.8736883" lon="13.2055817"><ele>604.0</ele><time>2026-04-11T09:11:22.811Z</time></trkpt><trkpt lat="41.8737467" lon="13.2056733"><ele>601.5</ele><time>2026-04-11T09:11:23.815Z</time></trkpt><trkpt lat="41.8738067" lon="13.2057567"><ele>599.0</ele><time>2026-04-11T09:11:24.814Z</time></trkpt><trkpt lat="41.8738717" lon="13.205825"><ele>600.6</ele><time>2026-04-11T09:11:25.811Z</time></trkpt><trkpt lat="41.8739467" lon="13.205875"><ele>602.2</ele><time>2026-04-11T09:11:26.812Z</time></trkpt><trkpt lat="41.8740317" lon="13.2059033"><ele>603.8000000000001</ele><time>2026-04-11T09:11:27.814Z</time></trkpt><trkpt lat="41.8741233" lon="13.2059133"><ele>605.4</ele><time>2026-04-11T09:11:28.814Z</time></trkpt><trkpt lat="41.8742233" lon="13.2058933"><ele>607.0</ele><time>2026-04-11T09:11:29.811Z</time></trkpt><trkpt lat="41.8743533" lon="13.205845"><ele>607.0</ele><time>2026-04-11T09:11:30.811Z</time></trkpt><trkpt lat="41.8744833" lon="13.205835"><ele>607.0</ele><time>2026-04-11T09:11:31.811Z</time></trkpt><trkpt lat="41.8746183" lon="13.2058383"><ele>607.0</ele><time>2026-04-11T09:11:32.811Z</time></trkpt><trkpt lat="41.874755" lon="13.20591"><ele>607.0</ele><time>2026-04-11T09:11:33.814Z</time></trkpt><trkpt lat="41.8748783" lon="13.206005"><ele>607.0</ele><time>2026-04-11T09:11:34.814Z</time></trkpt><trkpt lat="41.875" lon="13.2061167"><ele>607.0</ele><time>2026-04-11T09:11:35.814Z</time></trkpt><trkpt lat="41.8751083" lon="13.2062483"><ele>607.0</ele><time>2026-04-11T09:11:36.811Z</time></trkpt><trkpt lat="41.8751917" lon="13.2063833"><ele>607.0</ele><time>2026-04-11T09:11:37.812Z</time></trkpt><trkpt lat="41.87525" lon="13.206525"><ele>610.3333333333334</ele><time>2026-04-11T09:11:38.813Z</time></trkpt><trkpt lat="41.8752933" lon="13.2066617"><ele>613.6666666666667</ele><time>2026-04-11T09:11:39.814Z</time></trkpt><trkpt lat="41.8753267" lon="13.2067783"><ele>617.0</ele><time>2026-04-11T09:11:40.811Z</time></trkpt><trkpt lat="41.87536" lon="13.2068767"><ele>620.3333333333334</ele><time>2026-04-11T09:11:41.811Z</time></trkpt><trkpt lat="41.8753917" lon="13.2069783"><ele>623.6666666666666</ele><time>2026-04-11T09:11:43.814Z</time></trkpt><trkpt lat="41.8754267" lon="13.206905"><ele>627.0</ele><time>2026-04-11T09:11:46.814Z</time></trkpt><trkpt lat="41.87542" lon="13.2068067"><ele>627.0</ele><time>2026-04-11T09:11:48.814Z</time></trkpt><trkpt lat="41.8754033" lon="13.2067217"><ele>627.0</ele><time>2026-04-11T09:11:50.813Z</time></trkpt><trkpt lat="41.8753867" lon="13.20664"><ele>627.0</ele><time>2026-04-11T09:11:52.813Z</time></trkpt><trkpt lat="41.8753733" lon="13.2065167"><ele>627.0</ele><time>2026-04-11T09:11:55.812Z</time></trkpt><trkpt lat="41.875365" lon="13.2066367"><ele>627.0</ele><time>2026-04-11T09:12:28.814Z</time></trkpt><trkpt lat="41.8754017" lon="13.2067933"><ele>627.0</ele><time>2026-04-11T09:12:30.814Z</time></trkpt><trkpt lat="41.875385" lon="13.2068783"><ele>627.0</ele><time>2026-04-11T09:12:32.815Z</time></trkpt><trkpt lat="41.875305" lon="13.2067533"><ele>627.0</ele><time>2026-04-11T09:12:35.813Z</time></trkpt><trkpt lat="41.8752633" lon="13.2066333"><ele>627.0</ele><time>2026-04-11T09:12:36.813Z</time></trkpt><trkpt lat="41.8752167" lon="13.2065167"><ele>627.0</ele><time>2026-04-11T09:12:37.81Z</time></trkpt><trkpt lat="41.8751817" lon="13.2064033"><ele>627.0</ele><time>2026-04-11T09:12:38.814Z</time></trkpt><trkpt lat="41.8751517" lon="13.2063217"><ele>627.0</ele><time>2026-04-11T09:12:39.813Z</time></trkpt><trkpt lat="41.8751067" lon="13.2062483"><ele>627.0</ele><time>2026-04-11T09:12:41.813Z</time></trkpt><trkpt lat="41.8751317" lon="13.2063433"><ele>627.0</ele><time>2026-04-11T09:12:59.814Z</time></trkpt><trkpt lat="41.875185" lon="13.20642"><ele>627.0</ele><time>2026-04-11T09:13:00.821Z</time></trkpt><trkpt lat="41.8752333" lon="13.2064933"><ele>627.0</ele><time>2026-04-11T09:13:01.813Z</time></trkpt><trkpt lat="41.8752683" lon="13.206575"><ele>627.0</ele><time>2026-04-11T09:13:02.814Z</time></trkpt><trkpt lat="41.8752967" lon="13.206665"><ele>627.0</ele><time>2026-04-11T09:13:03.813Z</time></trkpt><trkpt lat="41.875335" lon="13.2068017"><ele>627.0</ele><time>2026-04-11T09:13:05.813Z</time></trkpt><trkpt lat="41.8753733" lon="13.20688"><ele>627.0</ele><time>2026-04-11T09:13:07.813Z</time></trkpt><trkpt lat="41.8753933" lon="13.2067717"><ele>627.0</ele><time>2026-04-11T09:13:11.814Z</time></trkpt><trkpt lat="41.8753783" lon="13.2066583"><ele>627.0</ele><time>2026-04-11T09:13:12.813Z</time></trkpt><trkpt lat="41.875345" lon="13.2065217"><ele>627.0</ele><time>2026-04-11T09:13:13.81Z</time></trkpt><trkpt lat="41.8753" lon="13.2063617"><ele>622.0</ele><time>2026-04-11T09:13:14.81Z</time></trkpt><trkpt lat="41.87524" lon="13.206195"><ele>617.0</ele><time>2026-04-11T09:13:15.81Z</time></trkpt><trkpt lat="41.8751717" lon="13.2060217"><ele>612.0</ele><time>2026-04-11T09:13:16.813Z</time></trkpt><trkpt lat="41.8750883" lon="13.2058567"><ele>607.0</ele><time>2026-04-11T09:13:17.813Z</time></trkpt><trkpt lat="41.8749817" lon="13.2057033"><ele>615.0</ele><time>2026-04-11T09:13:18.81Z</time></trkpt><trkpt lat="41.8748567" lon="13.205565"><ele>623.0</ele><time>2026-04-11T09:13:19.813Z</time></trkpt><trkpt lat="41.8747233" lon="13.2054467"><ele>631.0</ele><time>2026-04-11T09:13:20.81Z</time></trkpt><trkpt lat="41.8746" lon="13.205335"><ele>631.0</ele><time>2026-04-11T09:13:21.81Z</time></trkpt><trkpt lat="41.87449" lon="13.20524"><ele>631.0</ele><time>2026-04-11T09:13:22.811Z</time></trkpt><trkpt lat="41.8743917" lon="13.2051517"><ele>631.0</ele><time>2026-04-11T09:13:23.812Z</time></trkpt><trkpt lat="41.8743117" lon="13.2050367"><ele>631.0</ele><time>2026-04-11T09:13:24.813Z</time></trkpt><trkpt lat="41.8742483" lon="13.2048783"><ele>625.3333333333334</ele><time>2026-04-11T09:13:25.813Z</time></trkpt><trkpt lat="41.8742017" lon="13.2046833"><ele>619.6666666666666</ele><time>2026-04-11T09:13:26.813Z</time></trkpt><trkpt lat="41.8741483" lon="13.20446"><ele>614.0</ele><time>2026-04-11T09:13:27.81Z</time></trkpt><trkpt lat="41.8740917" lon="13.2042183"><ele>622.3333333333333</ele><time>2026-04-11T09:13:28.812Z</time></trkpt><trkpt lat="41.8740317" lon="13.20397"><ele>630.6666666666666</ele><time>2026-04-11T09:13:29.812Z</time></trkpt><trkpt lat="41.873965" lon="13.2037133"><ele>639.0</ele><time>2026-04-11T09:13:30.813Z</time></trkpt><trkpt lat="41.8738917" lon="13.203455"><ele>639.0</ele><time>2026-04-11T09:13:31.812Z</time></trkpt><trkpt lat="41.8738233" lon="13.2032317"><ele>639.0</ele><time>2026-04-11T09:13:32.812Z</time></trkpt><trkpt lat="41.873755" lon="13.2030433"><ele>639.0</ele><time>2026-04-11T09:13:33.81Z</time></trkpt><trkpt lat="41.873685" lon="13.20285"><ele>643.3333333333334</ele><time>2026-04-11T09:13:34.813Z</time></trkpt><trkpt lat="41.8736" lon="13.2026383"><ele>647.6666666666667</ele><time>2026-04-11T09:13:35.812Z</time></trkpt><trkpt lat="41.8734917" lon="13.2024017"><ele>652.0</ele><time>2026-04-11T09:13:36.812Z</time></trkpt><trkpt lat="41.8733633" lon="13.202165"><ele>652.0</ele><time>2026-04-11T09:13:37.81Z</time></trkpt><trkpt lat="41.8732283" lon="13.2019467"><ele>652.0</ele><time>2026-04-11T09:13:38.814Z</time></trkpt><trkpt lat="41.873105" lon="13.2017617"><ele>652.0</ele><time>2026-04-11T09:13:39.813Z</time></trkpt><trkpt lat="41.8730067" lon="13.201595"><ele>658.0</ele><time>2026-04-11T09:13:40.812Z</time></trkpt><trkpt lat="41.8729283" lon="13.2014233"><ele>664.0</ele><time>2026-04-11T09:13:41.813Z</time></trkpt><trkpt lat="41.872875" lon="13.2012383"><ele>670.0</ele><time>2026-04-11T09:13:42.813Z</time></trkpt><trkpt lat="41.8728317" lon="13.2010767"><ele>676.0</ele><time>2026-04-11T09:13:43.812Z</time></trkpt><trkpt lat="41.8727583" lon="13.2009483"><ele>676.0</ele><time>2026-04-11T09:13:44.813Z</time></trkpt><trkpt lat="41.872665" lon="13.2008367"><ele>676.0</ele><time>2026-04-11T09:13:45.812Z</time></trkpt><trkpt lat="41.8725583" lon="13.2007433"><ele>676.0</ele><time>2026-04-11T09:13:46.813Z</time></trkpt><trkpt lat="41.87246" lon="13.20064"><ele>676.0</ele><time>2026-04-11T09:13:47.813Z</time></trkpt><trkpt lat="41.8723683" lon="13.2004883"><ele>672.0</ele><time>2026-04-11T09:13:48.812Z</time></trkpt><trkpt lat="41.8722633" lon="13.200305"><ele>668.0</ele><time>2026-04-11T09:13:49.813Z</time></trkpt><trkpt lat="41.8721483" lon="13.2001083"><ele>664.0</ele><time>2026-04-11T09:13:50.813Z</time></trkpt><trkpt lat="41.872025" lon="13.199915"><ele>659.6666666666667</ele><time>2026-04-11T09:13:51.81Z</time></trkpt><trkpt lat="41.8718867" lon="13.1997267"><ele>655.3333333333334</ele><time>2026-04-11T09:13:52.812Z</time></trkpt><trkpt lat="41.8717483" lon="13.1995533"><ele>651.0</ele><time>2026-04-11T09:13:53.809Z</time></trkpt><trkpt lat="41.87163" lon="13.19939"><ele>651.0</ele><time>2026-04-11T09:13:54.81Z</time></trkpt><trkpt lat="41.8715317" lon="13.199215"><ele>651.0</ele><time>2026-04-11T09:13:55.81Z</time></trkpt><trkpt lat="41.8714417" lon="13.1990283"><ele>651.0</ele><time>2026-04-11T09:13:56.811Z</time></trkpt><trkpt lat="41.8713583" lon="13.1988167"><ele>659.0</ele><time>2026-04-11T09:13:57.81Z</time></trkpt><trkpt lat="41.87126" lon="13.1985967"><ele>667.0</ele><time>2026-04-11T09:13:58.812Z</time></trkpt><trkpt lat="41.8711517" lon="13.198385"><ele>675.0</ele><time>2026-04-11T09:13:59.813Z</time></trkpt><trkpt lat="41.8710417" lon="13.1981883"><ele>681.3333333333334</ele><time>2026-04-11T09:14:00.812Z</time></trkpt><trkpt lat="41.870955" lon="13.198005"><ele>687.6666666666667</ele><time>2026-04-11T09:14:01.813Z</time></trkpt><trkpt lat="41.870895" lon="13.197815"><ele>694.0</ele><time>2026-04-11T09:14:02.814Z</time></trkpt><trkpt lat="41.870855" lon="13.1976"><ele>676.6666666666667</ele><time>2026-04-11T09:14:03.808Z</time></trkpt><trkpt lat="41.8708367" lon="13.1973767"><ele>659.3333333333334</ele><time>2026-04-11T09:14:04.812Z</time></trkpt><trkpt lat="41.8708417" lon="13.1971417"><ele>642.0</ele><time>2026-04-11T09:14:05.813Z</time></trkpt><trkpt lat="41.8708667" lon="13.1968967"><ele>642.0</ele><time>2026-04-11T09:14:06.813Z</time></trkpt><trkpt lat="41.8709017" lon="13.1966467"><ele>642.0</ele><time>2026-04-11T09:14:07.813Z</time></trkpt><trkpt lat="41.87093" lon="13.196395"><ele>642.0</ele><time>2026-04-11T09:14:08.813Z</time></trkpt><trkpt lat="41.870935" lon="13.1961533"><ele>644.0</ele><time>2026-04-11T09:14:09.813Z</time></trkpt><trkpt lat="41.870905" lon="13.1959"><ele>646.0</ele><time>2026-04-11T09:14:10.813Z</time></trkpt><trkpt lat="41.87085" lon="13.1956383"><ele>648.0</ele><time>2026-04-11T09:14:11.812Z</time></trkpt><trkpt lat="41.8707883" lon="13.19537"><ele>653.6666666666666</ele><time>2026-04-11T09:14:12.814Z</time></trkpt><trkpt lat="41.870725" lon="13.1951083"><ele>659.3333333333333</ele><time>2026-04-11T09:14:13.812Z</time></trkpt><trkpt lat="41.870675" lon="13.194875"><ele>665.0</ele><time>2026-04-11T09:14:14.812Z</time></trkpt><trkpt lat="41.8706483" lon="13.194655"><ele>664.3333333333333</ele><time>2026-04-11T09:14:15.813Z</time></trkpt><trkpt lat="41.8706483" lon="13.1944133"><ele>663.6666666666666</ele><time>2026-04-11T09:14:16.812Z</time></trkpt><trkpt lat="41.870665" lon="13.1941583"><ele>663.0</ele><time>2026-04-11T09:14:17.813Z</time></trkpt><trkpt lat="41.8706917" lon="13.1939017"><ele>663.0</ele><time>2026-04-11T09:14:18.813Z</time></trkpt><trkpt lat="41.870725" lon="13.1936467"><ele>663.0</ele><time>2026-04-11T09:14:19.813Z</time></trkpt><trkpt lat="41.8707683" lon="13.1934033"><ele>663.0</ele><time>2026-04-11T09:14:20.813Z</time></trkpt><trkpt lat="41.8708317" lon="13.1931783"><ele>659.0</ele><time>2026-04-11T09:14:21.812Z</time></trkpt><trkpt lat="41.870915" lon="13.192955"><ele>655.0</ele><time>2026-04-11T09:14:22.814Z</time></trkpt><trkpt lat="41.8710133" lon="13.192735"><ele>651.0</ele><time>2026-04-11T09:14:23.813Z</time></trkpt><trkpt lat="41.8711283" lon="13.1925283"><ele>657.6666666666666</ele><time>2026-04-11T09:14:24.813Z</time></trkpt><trkpt lat="41.871265" lon="13.1923283"><ele>664.3333333333333</ele><time>2026-04-11T09:14:25.813Z</time></trkpt><trkpt lat="41.87142" lon="13.192125"><ele>671.0</ele><time>2026-04-11T09:14:26.813Z</time></trkpt><trkpt lat="41.8715817" lon="13.1919133"><ele>671.0</ele><time>2026-04-11T09:14:27.813Z</time></trkpt><trkpt lat="41.8717333" lon="13.1917117"><ele>671.0</ele><time>2026-04-11T09:14:28.813Z</time></trkpt><trkpt lat="41.8718683" lon="13.191525"><ele>671.0</ele><time>2026-04-11T09:14:29.813Z</time></trkpt><trkpt lat="41.8719883" lon="13.19134"><ele>671.3333333333333</ele><time>2026-04-11T09:14:30.813Z</time></trkpt><trkpt lat="41.8720867" lon="13.1911267"><ele>671.6666666666666</ele><time>2026-04-11T09:14:31.813Z</time></trkpt><trkpt lat="41.8721783" lon="13.1908867"><ele>672.0</ele><time>2026-04-11T09:14:32.813Z</time></trkpt><trkpt lat="41.8722883" lon="13.1906417"><ele>672.0</ele><time>2026-04-11T09:14:33.813Z</time></trkpt><trkpt lat="41.8724167" lon="13.1903917"><ele>672.0</ele><time>2026-04-11T09:14:34.813Z</time></trkpt><trkpt lat="41.8725417" lon="13.1901417"><ele>682.0</ele><time>2026-04-11T09:14:35.813Z</time></trkpt><trkpt lat="41.872645" lon="13.1899033"><ele>692.0</ele><time>2026-04-11T09:14:36.813Z</time></trkpt><trkpt lat="41.872735" lon="13.18968"><ele>702.0</ele><time>2026-04-11T09:14:37.813Z</time></trkpt><trkpt lat="41.872825" lon="13.1894883"><ele>702.0</ele><time>2026-04-11T09:14:38.813Z</time></trkpt><trkpt lat="41.8729283" lon="13.1893317"><ele>702.0</ele><time>2026-04-11T09:14:39.813Z</time></trkpt><trkpt lat="41.8730517" lon="13.18921"><ele>702.0</ele><time>2026-04-11T09:14:40.812Z</time></trkpt><trkpt lat="41.87318" lon="13.189075"><ele>695.3333333333334</ele><time>2026-04-11T09:14:41.812Z</time></trkpt><trkpt lat="41.8733067" lon="13.1889117"><ele>688.6666666666667</ele><time>2026-04-11T09:14:42.813Z</time></trkpt><trkpt lat="41.8734317" lon="13.1887383"><ele>682.0</ele><time>2026-04-11T09:14:43.812Z</time></trkpt><trkpt lat="41.8735317" lon="13.18857"><ele>692.75</ele><time>2026-04-11T09:14:44.813Z</time></trkpt><trkpt lat="41.8736" lon="13.1884133"><ele>703.5</ele><time>2026-04-11T09:14:45.813Z</time></trkpt><trkpt lat="41.8736483" lon="13.18827"><ele>714.25</ele><time>2026-04-11T09:14:46.813Z</time></trkpt><trkpt lat="41.8736367" lon="13.1880933"><ele>725.0</ele><time>2026-04-11T09:14:47.813Z</time></trkpt><trkpt lat="41.8736067" lon="13.1879117"><ele>725.0</ele><time>2026-04-11T09:14:48.813Z</time></trkpt><trkpt lat="41.8736017" lon="13.1877417"><ele>725.0</ele><time>2026-04-11T09:14:49.813Z</time></trkpt><trkpt lat="41.8736283" lon="13.1875867"><ele>725.0</ele><time>2026-04-11T09:14:50.815Z</time></trkpt><trkpt lat="41.87369" lon="13.187435"><ele>725.0</ele><time>2026-04-11T09:14:51.812Z</time></trkpt><trkpt lat="41.8737667" lon="13.187265"><ele>722.6666666666666</ele><time>2026-04-11T09:14:52.813Z</time></trkpt><trkpt lat="41.873835" lon="13.1870667"><ele>720.3333333333334</ele><time>2026-04-11T09:14:53.812Z</time></trkpt><trkpt lat="41.8738783" lon="13.186855"><ele>718.0</ele><time>2026-04-11T09:14:54.813Z</time></trkpt><trkpt lat="41.8739017" lon="13.1866683"><ele>718.0</ele><time>2026-04-11T09:14:55.813Z</time></trkpt><trkpt lat="41.8739433" lon="13.1865133"><ele>718.0</ele><time>2026-04-11T09:14:56.812Z</time></trkpt><trkpt lat="41.8740183" lon="13.1863667"><ele>718.0</ele><time>2026-04-11T09:14:57.812Z</time></trkpt><trkpt lat="41.8741117" lon="13.18621"><ele>718.0</ele><time>2026-04-11T09:14:58.813Z</time></trkpt><trkpt lat="41.8741967" lon="13.18603"><ele>712.6666666666667</ele><time>2026-04-11T09:14:59.813Z</time></trkpt><trkpt lat="41.87426" lon="13.1858233"><ele>707.3333333333334</ele><time>2026-04-11T09:15:00.813Z</time></trkpt><trkpt lat="41.874305" lon="13.1856067"><ele>702.0</ele><time>2026-04-11T09:15:01.812Z</time></trkpt><trkpt lat="41.874335" lon="13.1853817"><ele>720.3333333333334</ele><time>2026-04-11T09:15:02.814Z</time></trkpt><trkpt lat="41.8743417" lon="13.1851517"><ele>738.6666666666667</ele><time>2026-04-11T09:15:03.813Z</time></trkpt><trkpt lat="41.8743183" lon="13.1849383"><ele>757.0</ele><time>2026-04-11T09:15:04.813Z</time></trkpt><trkpt lat="41.8742833" lon="13.184745"><ele>757.0</ele><time>2026-04-11T09:15:05.812Z</time></trkpt><trkpt lat="41.87425" lon="13.1845733"><ele>757.0</ele><time>2026-04-11T09:15:06.813Z</time></trkpt><trkpt lat="41.8742333" lon="13.184415"><ele>757.0</ele><time>2026-04-11T09:15:07.813Z</time></trkpt><trkpt lat="41.8742533" lon="13.1842633"><ele>757.0</ele><time>2026-04-11T09:15:08.813Z</time></trkpt><trkpt lat="41.87431" lon="13.18411"><ele>753.3333333333334</ele><time>2026-04-11T09:15:09.813Z</time></trkpt><trkpt lat="41.874375" lon="13.1839367"><ele>749.6666666666666</ele><time>2026-04-11T09:15:10.813Z</time></trkpt><trkpt lat="41.8744467" lon="13.1837467"><ele>746.0</ele><time>2026-04-11T09:15:11.814Z</time></trkpt><trkpt lat="41.874525" lon="13.183535"><ele>746.0</ele><time>2026-04-11T09:15:12.812Z</time></trkpt><trkpt lat="41.874605" lon="13.1833017"><ele>746.0</ele><time>2026-04-11T09:15:13.813Z</time></trkpt><trkpt lat="41.8746867" lon="13.183065"><ele>746.0</ele><time>2026-04-11T09:15:14.814Z</time></trkpt><trkpt lat="41.8747767" lon="13.1828367"><ele>742.0</ele><time>2026-04-11T09:15:15.813Z</time></trkpt><trkpt lat="41.8748733" lon="13.182605"><ele>738.0</ele><time>2026-04-11T09:15:16.813Z</time></trkpt><trkpt lat="41.8749683" lon="13.18239"><ele>734.0</ele><time>2026-04-11T09:15:17.812Z</time></trkpt><trkpt lat="41.8750367" lon="13.1821883"><ele>729.6666666666666</ele><time>2026-04-11T09:15:18.809Z</time></trkpt><trkpt lat="41.8750783" lon="13.1819867"><ele>725.3333333333334</ele><time>2026-04-11T09:15:19.809Z</time></trkpt><trkpt lat="41.8750967" lon="13.1817667"><ele>721.0</ele><time>2026-04-11T09:15:20.81Z</time></trkpt><trkpt lat="41.875095" lon="13.1815317"><ele>721.0</ele><time>2026-04-11T09:15:21.811Z</time></trkpt><trkpt lat="41.87509" lon="13.18129"><ele>721.0</ele><time>2026-04-11T09:15:22.81Z</time></trkpt><trkpt lat="41.875095" lon="13.1810417"><ele>721.0</ele><time>2026-04-11T09:15:23.811Z</time></trkpt><trkpt lat="41.8751117" lon="13.1807983"><ele>736.0</ele><time>2026-04-11T09:15:24.81Z</time></trkpt><trkpt lat="41.8751433" lon="13.18057"><ele>751.0</ele><time>2026-04-11T09:15:25.81Z</time></trkpt><trkpt lat="41.8751933" lon="13.180355"><ele>766.0</ele><time>2026-04-11T09:15:26.81Z</time></trkpt><trkpt lat="41.87527" lon="13.1801467"><ele>766.0</ele><time>2026-04-11T09:15:27.81Z</time></trkpt><trkpt lat="41.8753617" lon="13.17993"><ele>766.0</ele><time>2026-04-11T09:15:28.81Z</time></trkpt><trkpt lat="41.875455" lon="13.179695"><ele>766.0</ele><time>2026-04-11T09:15:29.812Z</time></trkpt><trkpt lat="41.8755517" lon="13.1794517"><ele>757.5</ele><time>2026-04-11T09:15:30.812Z</time></trkpt><trkpt lat="41.875655" lon="13.179195"><ele>749.0</ele><time>2026-04-11T09:15:31.813Z</time></trkpt><trkpt lat="41.8757733" lon="13.1789217"><ele>739.5</ele><time>2026-04-11T09:15:32.813Z</time></trkpt><trkpt lat="41.8758983" lon="13.178635"><ele>730.0</ele><time>2026-04-11T09:15:33.812Z</time></trkpt><trkpt lat="41.87602" lon="13.1783433"><ele>748.5</ele><time>2026-04-11T09:15:34.813Z</time></trkpt><trkpt lat="41.8761383" lon="13.1780683"><ele>767.0</ele><time>2026-04-11T09:15:35.813Z</time></trkpt><trkpt lat="41.8762433" lon="13.1778183"><ele>767.0</ele><time>2026-04-11T09:15:36.813Z</time></trkpt><trkpt lat="41.8763383" lon="13.177595"><ele>767.0</ele><time>2026-04-11T09:15:37.813Z</time></trkpt><trkpt lat="41.8764317" lon="13.1774117"><ele>767.0</ele><time>2026-04-11T09:15:38.813Z</time></trkpt><trkpt lat="41.8765317" lon="13.1772583"><ele>774.3333333333333</ele><time>2026-04-11T09:15:39.812Z</time></trkpt><trkpt lat="41.876655" lon="13.1771217"><ele>781.6666666666666</ele><time>2026-04-11T09:15:40.813Z</time></trkpt><trkpt lat="41.8767867" lon="13.17701"><ele>789.0</ele><time>2026-04-11T09:15:41.813Z</time></trkpt><trkpt lat="41.8769117" lon="13.17691"><ele>789.0</ele><time>2026-04-11T09:15:42.813Z</time></trkpt><trkpt lat="41.8770067" lon="13.1767967"><ele>789.0</ele><time>2026-04-11T09:15:43.813Z</time></trkpt><trkpt lat="41.87708" lon="13.1766533"><ele>789.0</ele><time>2026-04-11T09:15:44.813Z</time></trkpt><trkpt lat="41.8771517" lon="13.1765017"><ele>789.0</ele><time>2026-04-11T09:15:45.812Z</time></trkpt><trkpt lat="41.8772433" lon="13.1763533"><ele>775.6666666666666</ele><time>2026-04-11T09:15:46.812Z</time></trkpt><trkpt lat="41.87736" lon="13.1762133"><ele>762.3333333333333</ele><time>2026-04-11T09:15:47.812Z</time></trkpt><trkpt lat="41.8774717" lon="13.1760433"><ele>749.0</ele><time>2026-04-11T09:15:48.808Z</time></trkpt><trkpt lat="41.877575" lon="13.17586"><ele>756.0</ele><time>2026-04-11T09:15:49.81Z</time></trkpt><trkpt lat="41.877685" lon="13.17568"><ele>763.0</ele><time>2026-04-11T09:15:50.812Z</time></trkpt><trkpt lat="41.8778133" lon="13.1754917"><ele>770.0</ele><time>2026-04-11T09:15:51.809Z</time></trkpt><trkpt lat="41.87796" lon="13.175305"><ele>770.0</ele><time>2026-04-11T09:15:52.809Z</time></trkpt><trkpt lat="41.8780967" lon="13.1751333"><ele>770.0</ele><time>2026-04-11T09:15:53.81Z</time></trkpt><trkpt lat="41.8782283" lon="13.1749867"><ele>770.0</ele><time>2026-04-11T09:15:54.81Z</time></trkpt><trkpt lat="41.8783633" lon="13.1748567"><ele>762.3333333333334</ele><time>2026-04-11T09:15:55.812Z</time></trkpt><trkpt lat="41.878515" lon="13.1747583"><ele>754.6666666666667</ele><time>2026-04-11T09:15:56.811Z</time></trkpt><trkpt lat="41.878675" lon="13.17469"><ele>747.0</ele><time>2026-04-11T09:15:57.811Z</time></trkpt><trkpt lat="41.87883" lon="13.1746583"><ele>747.0</ele><time>2026-04-11T09:15:58.812Z</time></trkpt><trkpt lat="41.8789683" lon="13.1746483"><ele>747.0</ele><time>2026-04-11T09:15:59.813Z</time></trkpt><trkpt lat="41.8790967" lon="13.174675"><ele>747.0</ele><time>2026-04-11T09:16:00.81Z</time></trkpt><trkpt lat="41.8792133" lon="13.1747633"><ele>747.0</ele><time>2026-04-11T09:16:01.81Z</time></trkpt><trkpt lat="41.8793383" lon="13.174875"><ele>759.25</ele><time>2026-04-11T09:16:02.814Z</time></trkpt><trkpt lat="41.8794667" lon="13.1749833"><ele>771.5</ele><time>2026-04-11T09:16:03.812Z</time></trkpt><trkpt lat="41.8795767" lon="13.1750733"><ele>783.75</ele><time>2026-04-11T09:16:04.813Z</time></trkpt><trkpt lat="41.8796667" lon="13.1751417"><ele>796.0</ele><time>2026-04-11T09:16:05.812Z</time></trkpt><trkpt lat="41.8797517" lon="13.1751967"><ele>796.0</ele><time>2026-04-11T09:16:06.812Z</time></trkpt><trkpt lat="41.87983" lon="13.1752183"><ele>796.0</ele><time>2026-04-11T09:16:07.813Z</time></trkpt><trkpt lat="41.879905" lon="13.1751933"><ele>796.0</ele><time>2026-04-11T09:16:08.813Z</time></trkpt><trkpt lat="41.8799833" lon="13.1751567"><ele>796.0</ele><time>2026-04-11T09:16:09.812Z</time></trkpt><trkpt lat="41.880045" lon="13.17496"><ele>796.0</ele><time>2026-04-11T09:16:10.813Z</time></trkpt><trkpt lat="41.8800833" lon="13.174775"><ele>798.25</ele><time>2026-04-11T09:16:11.812Z</time></trkpt><trkpt lat="41.88013" lon="13.1746317"><ele>800.5</ele><time>2026-04-11T09:16:12.811Z</time></trkpt><trkpt lat="41.8802033" lon="13.1745283"><ele>802.75</ele><time>2026-04-11T09:16:13.812Z</time></trkpt><trkpt lat="41.880305" lon="13.174455"><ele>805.0</ele><time>2026-04-11T09:16:14.81Z</time></trkpt><trkpt lat="41.8804117" lon="13.17437"><ele>805.0</ele><time>2026-04-11T09:16:15.809Z</time></trkpt><trkpt lat="41.8805167" lon="13.1742517"><ele>805.0</ele><time>2026-04-11T09:16:16.812Z</time></trkpt><trkpt lat="41.8806117" lon="13.174085"><ele>805.0</ele><time>2026-04-11T09:16:17.812Z</time></trkpt><trkpt lat="41.880695" lon="13.1738917"><ele>799.0</ele><time>2026-04-11T09:16:18.809Z</time></trkpt><trkpt lat="41.880775" lon="13.1736933"><ele>793.0</ele><time>2026-04-11T09:16:19.811Z</time></trkpt><trkpt lat="41.8808533" lon="13.1734867"><ele>787.0</ele><time>2026-04-11T09:16:20.812Z</time></trkpt><trkpt lat="41.8809267" lon="13.1732867"><ele>791.0</ele><time>2026-04-11T09:16:21.812Z</time></trkpt><trkpt lat="41.8809983" lon="13.173115"><ele>795.0</ele><time>2026-04-11T09:16:22.811Z</time></trkpt><trkpt lat="41.8810733" lon="13.1729883"><ele>799.0</ele><time>2026-04-11T09:16:23.811Z</time></trkpt><trkpt lat="41.88117" lon="13.17289"><ele>803.0</ele><time>2026-04-11T09:16:24.811Z</time></trkpt><trkpt lat="41.8812717" lon="13.1727983"><ele>803.0</ele><time>2026-04-11T09:16:25.811Z</time></trkpt><trkpt lat="41.88137" lon="13.1726933"><ele>803.0</ele><time>2026-04-11T09:16:26.81Z</time></trkpt><trkpt lat="41.8814533" lon="13.172555"><ele>803.0</ele><time>2026-04-11T09:16:27.811Z</time></trkpt><trkpt lat="41.8815183" lon="13.172405"><ele>803.0</ele><time>2026-04-11T09:16:28.812Z</time></trkpt><trkpt lat="41.8815833" lon="13.17228"><ele>799.0</ele><time>2026-04-11T09:16:29.813Z</time></trkpt><trkpt lat="41.8816583" lon="13.1721833"><ele>795.0</ele><time>2026-04-11T09:16:30.813Z</time></trkpt><trkpt lat="41.88174" lon="13.17212"><ele>791.0</ele><time>2026-04-11T09:16:31.812Z</time></trkpt><trkpt lat="41.8818383" lon="13.17209"><ele>787.0</ele><time>2026-04-11T09:16:32.813Z</time></trkpt><trkpt lat="41.8819533" lon="13.17211"><ele>783.0</ele><time>2026-04-11T09:16:33.812Z</time></trkpt><trkpt lat="41.8820883" lon="13.1721467"><ele>783.0</ele><time>2026-04-11T09:16:34.815Z</time></trkpt><trkpt lat="41.8822367" lon="13.1721767"><ele>783.0</ele><time>2026-04-11T09:16:35.812Z</time></trkpt><trkpt lat="41.882385" lon="13.1722083"><ele>783.0</ele><time>2026-04-11T09:16:36.813Z</time></trkpt><trkpt lat="41.8825367" lon="13.17224"><ele>780.6666666666667</ele><time>2026-04-11T09:16:37.813Z</time></trkpt><trkpt lat="41.8826967" lon="13.1722683"><ele>778.3333333333334</ele><time>2026-04-11T09:16:38.81Z</time></trkpt><trkpt lat="41.8828683" lon="13.1722967"><ele>776.0</ele><time>2026-04-11T09:16:39.815Z</time></trkpt><trkpt lat="41.88304" lon="13.1723233"><ele>776.0</ele><time>2026-04-11T09:16:40.812Z</time></trkpt><trkpt lat="41.8831883" lon="13.172345"><ele>776.0</ele><time>2026-04-11T09:16:41.813Z</time></trkpt><trkpt lat="41.8833067" lon="13.17237"><ele>776.0</ele><time>2026-04-11T09:16:42.813Z</time></trkpt><trkpt lat="41.8834" lon="13.1724267"><ele>776.0</ele><time>2026-04-11T09:16:43.812Z</time></trkpt><trkpt lat="41.883475" lon="13.17251"><ele>770.8</ele><time>2026-04-11T09:16:44.813Z</time></trkpt><trkpt lat="41.883535" lon="13.1725933"><ele>765.5999999999999</ele><time>2026-04-11T09:16:45.813Z</time></trkpt><trkpt lat="41.8835767" lon="13.1726733"><ele>760.4</ele><time>2026-04-11T09:16:46.813Z</time></trkpt><trkpt lat="41.8836" lon="13.1727683"><ele>755.2</ele><time>2026-04-11T09:16:47.81Z</time></trkpt><trkpt lat="41.8836033" lon="13.1729017"><ele>750.0</ele><time>2026-04-11T09:16:48.81Z</time></trkpt><trkpt lat="41.883555" lon="13.1731017"><ele>750.0</ele><time>2026-04-11T09:16:49.81Z</time></trkpt><trkpt lat="41.88348" lon="13.173335"><ele>750.0</ele><time>2026-04-11T09:16:50.81Z</time></trkpt><trkpt lat="41.883415" lon="13.173565"><ele>750.0</ele><time>2026-04-11T09:16:51.809Z</time></trkpt><trkpt lat="41.8833633" lon="13.1737917"><ele>774.0</ele><time>2026-04-11T09:16:52.811Z</time></trkpt><trkpt lat="41.883305" lon="13.174015"><ele>798.0</ele><time>2026-04-11T09:16:53.81Z</time></trkpt><trkpt lat="41.8832367" lon="13.1742533"><ele>822.0</ele><time>2026-04-11T09:16:54.813Z</time></trkpt><trkpt lat="41.883145" lon="13.174505"><ele>822.0</ele><time>2026-04-11T09:16:55.81Z</time></trkpt><trkpt lat="41.8830533" lon="13.1747667"><ele>822.0</ele><time>2026-04-11T09:16:56.811Z</time></trkpt><trkpt lat="41.8829683" lon="13.1750383"><ele>822.0</ele><time>2026-04-11T09:16:57.81Z</time></trkpt><trkpt lat="41.88288" lon="13.17532"><ele>816.0</ele><time>2026-04-11T09:16:58.811Z</time></trkpt><trkpt lat="41.8827917" lon="13.175605"><ele>810.0</ele><time>2026-04-11T09:16:59.812Z</time></trkpt><trkpt lat="41.8827183" lon="13.1758733"><ele>804.0</ele><time>2026-04-11T09:17:00.813Z</time></trkpt><trkpt lat="41.88265" lon="13.1761283"><ele>811.3333333333333</ele><time>2026-04-11T09:17:01.813Z</time></trkpt><trkpt lat="41.8825733" lon="13.1763617"><ele>818.6666666666666</ele><time>2026-04-11T09:17:02.813Z</time></trkpt><trkpt lat="41.88249" lon="13.1765883"><ele>826.0</ele><time>2026-04-11T09:17:03.81Z</time></trkpt><trkpt lat="41.8824033" lon="13.1768133"><ele>826.0</ele><time>2026-04-11T09:17:04.813Z</time></trkpt><trkpt lat="41.8823033" lon="13.1770433"><ele>826.0</ele><time>2026-04-11T09:17:05.813Z</time></trkpt><trkpt lat="41.88223" lon="13.1772883"><ele>826.0</ele><time>2026-04-11T09:17:06.818Z</time></trkpt><trkpt lat="41.88217" lon="13.17752"><ele>823.25</ele><time>2026-04-11T09:17:07.813Z</time></trkpt><trkpt lat="41.882105" lon="13.1777133"><ele>820.5</ele><time>2026-04-11T09:17:08.813Z</time></trkpt><trkpt lat="41.88204" lon="13.1778717"><ele>817.75</ele><time>2026-04-11T09:17:09.813Z</time></trkpt><trkpt lat="41.88197" lon="13.1780083"><ele>815.0</ele><time>2026-04-11T09:17:10.813Z</time></trkpt><trkpt lat="41.8818983" lon="13.1781317"><ele>815.0000000000001</ele><time>2026-04-11T09:17:11.814Z</time></trkpt><trkpt lat="41.881845" lon="13.1782483"><ele>815.0</ele><time>2026-04-11T09:17:12.809Z</time></trkpt><trkpt lat="41.8818217" lon="13.1783683"><ele>815.0</ele><time>2026-04-11T09:17:13.814Z</time></trkpt><trkpt lat="41.8818183" lon="13.1784817"><ele>815.0</ele><time>2026-04-11T09:17:14.814Z</time></trkpt><trkpt lat="41.8818283" lon="13.1785733"><ele>815.0000000000001</ele><time>2026-04-11T09:17:15.813Z</time></trkpt><trkpt lat="41.8818567" lon="13.1786517"><ele>815.0</ele><time>2026-04-11T09:17:17.809Z</time></trkpt><trkpt lat="41.8819183" lon="13.1786033"><ele>815.0</ele><time>2026-04-11T09:18:00.81Z</time></trkpt><trkpt lat="41.881985" lon="13.1785783"><ele>815.0</ele><time>2026-04-11T09:18:03.809Z</time></trkpt><trkpt lat="41.8820733" lon="13.1786083"><ele>815.0</ele><time>2026-04-11T09:18:05.81Z</time></trkpt><trkpt lat="41.882135" lon="13.17866"><ele>815.0</ele><time>2026-04-11T09:18:06.813Z</time></trkpt><trkpt lat="41.8822333" lon="13.1787517"><ele>815.0</ele><time>2026-04-11T09:18:07.81Z</time></trkpt><trkpt lat="41.8823117" lon="13.1788583"><ele>815.0</ele><time>2026-04-11T09:18:08.811Z</time></trkpt><trkpt lat="41.882385" lon="13.179"><ele>815.0</ele><time>2026-04-11T09:18:09.813Z</time></trkpt><trkpt lat="41.8824467" lon="13.1791217"><ele>815.0</ele><time>2026-04-11T09:18:10.813Z</time></trkpt><trkpt lat="41.8824933" lon="13.1792367"><ele>815.0</ele><time>2026-04-11T09:18:11.813Z</time></trkpt><trkpt lat="41.8825233" lon="13.1793683"><ele>815.0</ele><time>2026-04-11T09:18:12.813Z</time></trkpt><trkpt lat="41.8825367" lon="13.1795067"><ele>819.0</ele><time>2026-04-11T09:18:13.816Z</time></trkpt><trkpt lat="41.8825283" lon="13.179655"><ele>823.0</ele><time>2026-04-11T09:18:14.813Z</time></trkpt><trkpt lat="41.8824933" lon="13.179835"><ele>827.0</ele><time>2026-04-11T09:18:15.813Z</time></trkpt><trkpt lat="41.882445" lon="13.18003"><ele>831.0</ele><time>2026-04-11T09:18:16.813Z</time></trkpt><trkpt lat="41.8829833" lon="13.1802533"><ele>831.5</ele><time>2026-04-11T09:18:17.773Z</time></trkpt><trkpt lat="41.8830733" lon="13.1803683"><ele>832.0</ele><time>2026-04-11T09:18:18.784Z</time></trkpt><trkpt lat="41.88244" lon="13.1805133"><ele>832.0</ele><time>2026-04-11T09:18:19.817Z</time></trkpt><trkpt lat="41.8823283" lon="13.180645"><ele>832.0</ele><time>2026-04-11T09:18:20.809Z</time></trkpt><trkpt lat="41.8821183" lon="13.1807717"><ele>832.0</ele><time>2026-04-11T09:18:21.81Z</time></trkpt><trkpt lat="41.88198" lon="13.1808767"><ele>832.4000000000001</ele><time>2026-04-11T09:18:22.81Z</time></trkpt><trkpt lat="41.88186" lon="13.1809567"><ele>832.8000000000001</ele><time>2026-04-11T09:18:23.81Z</time></trkpt><trkpt lat="41.881755" lon="13.18102"><ele>833.2</ele><time>2026-04-11T09:18:24.809Z</time></trkpt><trkpt lat="41.8816717" lon="13.181075"><ele>833.6</ele><time>2026-04-11T09:18:25.81Z</time></trkpt><trkpt lat="41.8816" lon="13.1811517"><ele>834.0</ele><time>2026-04-11T09:18:26.81Z</time></trkpt><trkpt lat="41.8815683" lon="13.1812733"><ele>834.0</ele><time>2026-04-11T09:18:27.809Z</time></trkpt><trkpt lat="41.8815683" lon="13.1814383"><ele>834.0</ele><time>2026-04-11T09:18:28.809Z</time></trkpt><trkpt lat="41.8815667" lon="13.1816083"><ele>834.0</ele><time>2026-04-11T09:18:29.809Z</time></trkpt><trkpt lat="41.881555" lon="13.181765"><ele>834.0</ele><time>2026-04-11T09:18:30.81Z</time></trkpt><trkpt lat="41.8815483" lon="13.1819083"><ele>834.1666666666666</ele><time>2026-04-11T09:18:31.81Z</time></trkpt><trkpt lat="41.8815567" lon="13.1820333"><ele>834.3333333333333</ele><time>2026-04-11T09:18:32.812Z</time></trkpt><trkpt lat="41.8815867" lon="13.18214"><ele>834.5</ele><time>2026-04-11T09:18:33.809Z</time></trkpt><trkpt lat="41.8816233" lon="13.18223"><ele>834.6666666666666</ele><time>2026-04-11T09:18:34.809Z</time></trkpt><trkpt lat="41.88167" lon="13.1823067"><ele>834.8333333333333</ele><time>2026-04-11T09:18:35.81Z</time></trkpt><trkpt lat="41.8817383" lon="13.1823583"><ele>835.0</ele><time>2026-04-11T09:18:36.81Z</time></trkpt><trkpt lat="41.8818333" lon="13.1823883"><ele>832.75</ele><time>2026-04-11T09:18:37.809Z</time></trkpt><trkpt lat="41.8819467" lon="13.1823817"><ele>830.5</ele><time>2026-04-11T09:18:38.811Z</time></trkpt><trkpt lat="41.8821" lon="13.1823167"><ele>828.25</ele><time>2026-04-11T09:18:39.81Z</time></trkpt><trkpt lat="41.8822567" lon="13.1822767"><ele>826.0</ele><time>2026-04-11T09:18:40.81Z</time></trkpt><trkpt lat="41.8824367" lon="13.1822133"><ele>818.3333333333333</ele><time>2026-04-11T09:18:41.811Z</time></trkpt><trkpt lat="41.88263" lon="13.1821517"><ele>810.6666666666667</ele><time>2026-04-11T09:18:42.81Z</time></trkpt><trkpt lat="41.8827967" lon="13.1820833"><ele>803.0</ele><time>2026-04-11T09:18:43.81Z</time></trkpt><trkpt lat="41.8829517" lon="13.1820083"><ele>803.0</ele><time>2026-04-11T09:18:44.809Z</time></trkpt><trkpt lat="41.8830933" lon="13.1819233"><ele>803.0</ele><time>2026-04-11T09:18:45.81Z</time></trkpt><trkpt lat="41.8832367" lon="13.1818217"><ele>803.0</ele><time>2026-04-11T09:18:46.81Z</time></trkpt><trkpt lat="41.8833533" lon="13.1817517"><ele>803.0</ele><time>2026-04-11T09:18:47.809Z</time></trkpt><trkpt lat="41.8834567" lon="13.1817033"><ele>800.2</ele><time>2026-04-11T09:18:48.809Z</time></trkpt><trkpt lat="41.88355" lon="13.1816883"><ele>797.4</ele><time>2026-04-11T09:18:49.812Z</time></trkpt><trkpt lat="41.8836383" lon="13.1817033"><ele>794.6</ele><time>2026-04-11T09:18:50.811Z</time></trkpt><trkpt lat="41.8837283" lon="13.18174"><ele>791.8000000000001</ele><time>2026-04-11T09:18:51.811Z</time></trkpt><trkpt lat="41.8838317" lon="13.18184"><ele>789.0</ele><time>2026-04-11T09:18:52.809Z</time></trkpt><trkpt lat="41.8839217" lon="13.1819683"><ele>789.0</ele><time>2026-04-11T09:18:53.809Z</time></trkpt><trkpt lat="41.8840117" lon="13.1820733"><ele>789.0</ele><time>2026-04-11T09:18:54.81Z</time></trkpt><trkpt lat="41.88409" lon="13.18219"><ele>789.0</ele><time>2026-04-11T09:18:55.809Z</time></trkpt><trkpt lat="41.884155" lon="13.1823133"><ele>789.0</ele><time>2026-04-11T09:18:56.81Z</time></trkpt><trkpt lat="41.884185" lon="13.1824567"><ele>791.2</ele><time>2026-04-11T09:18:57.81Z</time></trkpt><trkpt lat="41.884185" lon="13.1825967"><ele>793.4000000000001</ele><time>2026-04-11T09:18:58.81Z</time></trkpt><trkpt lat="41.8841667" lon="13.1827383"><ele>795.6</ele><time>2026-04-11T09:18:59.813Z</time></trkpt><trkpt lat="41.884135" lon="13.1828767"><ele>797.8</ele><time>2026-04-11T09:19:00.811Z</time></trkpt><trkpt lat="41.8841017" lon="13.18302"><ele>800.0</ele><time>2026-04-11T09:19:01.81Z</time></trkpt><trkpt lat="41.8840717" lon="13.1831717"><ele>800.4</ele><time>2026-04-11T09:19:02.809Z</time></trkpt><trkpt lat="41.884045" lon="13.1833217"><ele>800.8</ele><time>2026-04-11T09:19:03.81Z</time></trkpt><trkpt lat="41.884015" lon="13.1834667"><ele>801.2</ele><time>2026-04-11T09:19:04.812Z</time></trkpt><trkpt lat="41.883985" lon="13.1836117"><ele>801.6</ele><time>2026-04-11T09:19:05.812Z</time></trkpt><trkpt lat="41.88396" lon="13.1837483"><ele>802.0</ele><time>2026-04-11T09:19:06.81Z</time></trkpt><trkpt lat="41.883935" lon="13.1838683"><ele>801.9999999999999</ele><time>2026-04-11T09:19:07.81Z</time></trkpt><trkpt lat="41.883925" lon="13.1839767"><ele>802.0</ele><time>2026-04-11T09:19:08.81Z</time></trkpt><trkpt lat="41.88393" lon="13.1840783"><ele>802.0</ele><time>2026-04-11T09:19:09.809Z</time></trkpt><trkpt lat="41.8839633" lon="13.1841717"><ele>802.0</ele><time>2026-04-11T09:19:10.811Z</time></trkpt><trkpt lat="41.8840417" lon="13.1842333"><ele>801.9999999999999</ele><time>2026-04-11T09:19:11.814Z</time></trkpt><trkpt lat="41.884115" lon="13.1842733"><ele>802.0</ele><time>2026-04-11T09:19:12.81Z</time></trkpt><trkpt lat="41.88418" lon="13.1842867"><ele>802.0</ele><time>2026-04-11T09:19:13.81Z</time></trkpt><trkpt lat="41.8842583" lon="13.184245"><ele>802.0</ele><time>2026-04-11T09:19:14.81Z</time></trkpt><trkpt lat="41.8843367" lon="13.18415"><ele>802.0</ele><time>2026-04-11T09:19:15.809Z</time></trkpt><trkpt lat="41.8844233" lon="13.184005"><ele>802.0</ele><time>2026-04-11T09:19:16.81Z</time></trkpt><trkpt lat="41.8845283" lon="13.1837017"><ele>803.5</ele><time>2026-04-11T09:19:17.81Z</time></trkpt><trkpt lat="41.8846283" lon="13.1833933"><ele>805.0</ele><time>2026-04-11T09:19:18.81Z</time></trkpt><trkpt lat="41.8847283" lon="13.1831017"><ele>800.3333333333333</ele><time>2026-04-11T09:19:19.81Z</time></trkpt><trkpt lat="41.884825" lon="13.1828733"><ele>795.6666666666667</ele><time>2026-04-11T09:19:20.813Z</time></trkpt><trkpt lat="41.884895" lon="13.1826983"><ele>791.0</ele><time>2026-04-11T09:19:21.813Z</time></trkpt><trkpt lat="41.884965" lon="13.1825667"><ele>791.0</ele><time>2026-04-11T09:19:22.81Z</time></trkpt><trkpt lat="41.885045" lon="13.182475"><ele>791.0</ele><time>2026-04-11T09:19:23.813Z</time></trkpt><trkpt lat="41.8851333" lon="13.1824233"><ele>791.0</ele><time>2026-04-11T09:19:24.813Z</time></trkpt><trkpt lat="41.8852367" lon="13.1824117"><ele>791.0</ele><time>2026-04-11T09:19:25.813Z</time></trkpt><trkpt lat="41.885345" lon="13.1824667"><ele>791.0</ele><time>2026-04-11T09:19:26.812Z</time></trkpt><trkpt lat="41.8854567" lon="13.1825417"><ele>792.3333333333334</ele><time>2026-04-11T09:19:27.813Z</time></trkpt><trkpt lat="41.8856" lon="13.1826583"><ele>793.6666666666667</ele><time>2026-04-11T09:19:28.809Z</time></trkpt><trkpt lat="41.8857333" lon="13.1827867"><ele>795.0</ele><time>2026-04-11T09:19:29.811Z</time></trkpt><trkpt lat="41.8858633" lon="13.1829483"><ele>796.3333333333333</ele><time>2026-04-11T09:19:30.809Z</time></trkpt><trkpt lat="41.8859783" lon="13.18315"><ele>797.6666666666666</ele><time>2026-04-11T09:19:31.81Z</time></trkpt><trkpt lat="41.8860783" lon="13.183325"><ele>799.0</ele><time>2026-04-11T09:19:32.81Z</time></trkpt><trkpt lat="41.886165" lon="13.1834533"><ele>799.0</ele><time>2026-04-11T09:19:33.81Z</time></trkpt><trkpt lat="41.886245" lon="13.1835333"><ele>799.0</ele><time>2026-04-11T09:19:34.809Z</time></trkpt><trkpt lat="41.886335" lon="13.1835717"><ele>799.0</ele><time>2026-04-11T09:19:35.81Z</time></trkpt><trkpt lat="41.8864233" lon="13.183585"><ele>799.0</ele><time>2026-04-11T09:19:36.809Z</time></trkpt><trkpt lat="41.8865133" lon="13.1835517"><ele>799.0</ele><time>2026-04-11T09:19:37.81Z</time></trkpt><trkpt lat="41.8866217" lon="13.183465"><ele>799.0</ele><time>2026-04-11T09:19:38.815Z</time></trkpt><trkpt lat="41.88673" lon="13.18336"><ele>799.0</ele><time>2026-04-11T09:19:39.813Z</time></trkpt><trkpt lat="41.8867933" lon="13.1832017"><ele>799.0</ele><time>2026-04-11T09:19:40.81Z</time></trkpt><trkpt lat="41.8868233" lon="13.1830383"><ele>799.0</ele><time>2026-04-11T09:19:41.811Z</time></trkpt><trkpt lat="41.8868167" lon="13.1828567"><ele>800.5</ele><time>2026-04-11T09:19:42.81Z</time></trkpt><trkpt lat="41.8867683" lon="13.1826833"><ele>802.0</ele><time>2026-04-11T09:19:43.811Z</time></trkpt><trkpt lat="41.8866983" lon="13.1825317"><ele>803.5</ele><time>2026-04-11T09:19:44.811Z</time></trkpt><trkpt lat="41.88655" lon="13.1824067"><ele>805.0</ele><time>2026-04-11T09:19:45.81Z</time></trkpt><trkpt lat="41.886405" lon="13.1822917"><ele>812.3333333333333</ele><time>2026-04-11T09:19:46.813Z</time></trkpt><trkpt lat="41.8862667" lon="13.1821733"><ele>819.6666666666667</ele><time>2026-04-11T09:19:47.811Z</time></trkpt><trkpt lat="41.88613" lon="13.182025"><ele>827.0</ele><time>2026-04-11T09:19:48.814Z</time></trkpt><trkpt lat="41.8860133" lon="13.1818483"><ele>824.0</ele><time>2026-04-11T09:19:49.813Z</time></trkpt><trkpt lat="41.885915" lon="13.1816667"><ele>821.0</ele><time>2026-04-11T09:19:50.812Z</time></trkpt><trkpt lat="41.8858433" lon="13.1814833"><ele>818.0</ele><time>2026-04-11T09:19:51.812Z</time></trkpt><trkpt lat="41.8857867" lon="13.1812833"><ele>818.0</ele><time>2026-04-11T09:19:52.81Z</time></trkpt><trkpt lat="41.8857317" lon="13.1810633"><ele>818.0</ele><time>2026-04-11T09:19:53.813Z</time></trkpt><trkpt lat="41.88568" lon="13.1808483"><ele>818.0</ele><time>2026-04-11T09:19:54.813Z</time></trkpt><trkpt lat="41.885645" lon="13.1806267"><ele>820.0</ele><time>2026-04-11T09:19:55.812Z</time></trkpt><trkpt lat="41.88563" lon="13.1803833"><ele>822.0</ele><time>2026-04-11T09:19:56.814Z</time></trkpt><trkpt lat="41.8856367" lon="13.1801167"><ele>824.0</ele><time>2026-04-11T09:19:57.812Z</time></trkpt><trkpt lat="41.885655" lon="13.179835"><ele>825.0</ele><time>2026-04-11T09:19:58.811Z</time></trkpt><trkpt lat="41.8856833" lon="13.1795567"><ele>826.0</ele><time>2026-04-11T09:19:59.813Z</time></trkpt><trkpt lat="41.8857133" lon="13.1792833"><ele>827.0</ele><time>2026-04-11T09:20:00.813Z</time></trkpt><trkpt lat="41.8857383" lon="13.1790033"><ele>827.6666666666667</ele><time>2026-04-11T09:20:01.815Z</time></trkpt><trkpt lat="41.88575" lon="13.178715"><ele>828.3333333333333</ele><time>2026-04-11T09:20:02.812Z</time></trkpt><trkpt lat="41.885745" lon="13.1784417"><ele>829.0</ele><time>2026-04-11T09:20:03.813Z</time></trkpt><trkpt lat="41.885735" lon="13.1782067"><ele>829.5</ele><time>2026-04-11T09:20:04.815Z</time></trkpt><trkpt lat="41.885735" lon="13.1780133"><ele>830.0</ele><time>2026-04-11T09:20:05.812Z</time></trkpt><trkpt lat="41.8857433" lon="13.177865"><ele>830.5</ele><time>2026-04-11T09:20:06.812Z</time></trkpt><trkpt lat="41.8857783" lon="13.1777333"><ele>831.0</ele><time>2026-04-11T09:20:07.813Z</time></trkpt><trkpt lat="41.8858383" lon="13.17761"><ele>831.0</ele><time>2026-04-11T09:20:08.813Z</time></trkpt><trkpt lat="41.8859233" lon="13.1775"><ele>831.0</ele><time>2026-04-11T09:20:09.813Z</time></trkpt><trkpt lat="41.88604" lon="13.1774217"><ele>831.0</ele><time>2026-04-11T09:20:10.813Z</time></trkpt><trkpt lat="41.886165" lon="13.1773717"><ele>831.0</ele><time>2026-04-11T09:20:11.814Z</time></trkpt><trkpt lat="41.8863017" lon="13.177355"><ele>832.5</ele><time>2026-04-11T09:20:12.813Z</time></trkpt><trkpt lat="41.8864417" lon="13.1773633"><ele>834.0</ele><time>2026-04-11T09:20:13.813Z</time></trkpt><trkpt lat="41.8865717" lon="13.1773633"><ele>835.5</ele><time>2026-04-11T09:20:14.813Z</time></trkpt><trkpt lat="41.8866867" lon="13.1773317"><ele>837.0</ele><time>2026-04-11T09:20:15.812Z</time></trkpt><trkpt lat="41.8867917" lon="13.1772633"><ele>844.5</ele><time>2026-04-11T09:20:16.813Z</time></trkpt><trkpt lat="41.8868783" lon="13.177155"><ele>852.0</ele><time>2026-04-11T09:20:17.813Z</time></trkpt><trkpt lat="41.88694" lon="13.177005"><ele>859.5</ele><time>2026-04-11T09:20:18.812Z</time></trkpt><trkpt lat="41.8869633" lon="13.176805"><ele>867.0</ele><time>2026-04-11T09:20:19.813Z</time></trkpt><trkpt lat="41.8869917" lon="13.1765883"><ele>864.6666666666667</ele><time>2026-04-11T09:20:20.813Z</time></trkpt><trkpt lat="41.88701" lon="13.1763633"><ele>862.3333333333334</ele><time>2026-04-11T09:20:21.812Z</time></trkpt><trkpt lat="41.8870333" lon="13.1761433"><ele>860.0</ele><time>2026-04-11T09:20:22.813Z</time></trkpt><trkpt lat="41.8870517" lon="13.1759467"><ele>860.0</ele><time>2026-04-11T09:20:23.812Z</time></trkpt><trkpt lat="41.8870767" lon="13.175785"><ele>860.0</ele><time>2026-04-11T09:20:24.813Z</time></trkpt><trkpt lat="41.8871183" lon="13.1756567"><ele>860.0</ele><time>2026-04-11T09:20:25.812Z</time></trkpt><trkpt lat="41.8871883" lon="13.175555"><ele>860.0</ele><time>2026-04-11T09:20:26.812Z</time></trkpt><trkpt lat="41.8872817" lon="13.1754733"><ele>860.0</ele><time>2026-04-11T09:20:27.813Z</time></trkpt><trkpt lat="41.8873967" lon="13.175405"><ele>857.8</ele><time>2026-04-11T09:20:28.814Z</time></trkpt><trkpt lat="41.8875033" lon="13.1753217"><ele>855.6</ele><time>2026-04-11T09:20:29.812Z</time></trkpt><trkpt lat="41.887585" lon="13.1752183"><ele>853.4000000000001</ele><time>2026-04-11T09:20:30.813Z</time></trkpt><trkpt lat="41.887645" lon="13.1751067"><ele>851.2</ele><time>2026-04-11T09:20:31.813Z</time></trkpt><trkpt lat="41.88769" lon="13.1749867"><ele>849.0</ele><time>2026-04-11T09:20:32.813Z</time></trkpt><trkpt lat="41.887725" lon="13.1748583"><ele>850.6666666666666</ele><time>2026-04-11T09:20:33.812Z</time></trkpt><trkpt lat="41.88776" lon="13.1747333"><ele>852.3333333333333</ele><time>2026-04-11T09:20:34.813Z</time></trkpt><trkpt lat="41.8878" lon="13.1746217"><ele>854.0</ele><time>2026-04-11T09:20:35.813Z</time></trkpt><trkpt lat="41.8878333" lon="13.1745217"><ele>855.6666666666666</ele><time>2026-04-11T09:20:36.813Z</time></trkpt><trkpt lat="41.88786" lon="13.1744317"><ele>857.3333333333333</ele><time>2026-04-11T09:20:37.813Z</time></trkpt><trkpt lat="41.8878883" lon="13.1743533"><ele>859.0</ele><time>2026-04-11T09:20:38.813Z</time></trkpt><trkpt lat="41.8879567" lon="13.17422"><ele>859.0</ele><time>2026-04-11T09:20:40.813Z</time></trkpt><trkpt lat="41.8880267" lon="13.17411"><ele>859.0000000000001</ele><time>2026-04-11T09:20:42.819Z</time></trkpt><trkpt lat="41.8880917" lon="13.174015"><ele>859.0000000000001</ele><time>2026-04-11T09:20:44.816Z</time></trkpt><trkpt lat="41.8881783" lon="13.1739183"><ele>859.0</ele><time>2026-04-11T09:20:46.813Z</time></trkpt><trkpt lat="41.8882867" lon="13.17383"><ele>859.0</ele><time>2026-04-11T09:20:48.812Z</time></trkpt><trkpt lat="41.8883483" lon="13.17379"><ele>859.4000000000001</ele><time>2026-04-11T09:20:49.814Z</time></trkpt><trkpt lat="41.8884183" lon="13.173745"><ele>859.8000000000001</ele><time>2026-04-11T09:20:50.814Z</time></trkpt><trkpt lat="41.8885017" lon="13.1737"><ele>860.1999999999999</ele><time>2026-04-11T09:20:51.813Z</time></trkpt><trkpt lat="41.888605" lon="13.1736467"><ele>860.5999999999999</ele><time>2026-04-11T09:20:52.813Z</time></trkpt><trkpt lat="41.8887133" lon="13.1735933"><ele>861.0</ele><time>2026-04-11T09:20:53.813Z</time></trkpt><trkpt lat="41.8888217" lon="13.173545"><ele>861.0</ele><time>2026-04-11T09:20:54.812Z</time></trkpt><trkpt lat="41.8889317" lon="13.17349"><ele>860.9999999999999</ele><time>2026-04-11T09:20:55.813Z</time></trkpt><trkpt lat="41.8890367" lon="13.1734233"><ele>860.9999999999999</ele><time>2026-04-11T09:20:56.814Z</time></trkpt><trkpt lat="41.8891267" lon="13.1733467"><ele>861.0</ele><time>2026-04-11T09:20:57.813Z</time></trkpt><trkpt lat="41.8891867" lon="13.1732517"><ele>861.0</ele><time>2026-04-11T09:20:58.812Z</time></trkpt><trkpt lat="41.88922" lon="13.17314"><ele>862.1999999999999</ele><time>2026-04-11T09:20:59.812Z</time></trkpt><trkpt lat="41.8892167" lon="13.1730217"><ele>863.3999999999999</ele><time>2026-04-11T09:21:00.812Z</time></trkpt><trkpt lat="41.889175" lon="13.17291"><ele>864.6</ele><time>2026-04-11T09:21:01.812Z</time></trkpt><trkpt lat="41.88908" lon="13.1728083"><ele>865.8</ele><time>2026-04-11T09:21:02.814Z</time></trkpt><trkpt lat="41.8889617" lon="13.1727"><ele>867.0</ele><time>2026-04-11T09:21:03.814Z</time></trkpt><trkpt lat="41.8888333" lon="13.1725917"><ele>867.0</ele><time>2026-04-11T09:21:04.813Z</time></trkpt><trkpt lat="41.8887167" lon="13.1724833"><ele>867.0</ele><time>2026-04-11T09:21:05.813Z</time></trkpt><trkpt lat="41.8886117" lon="13.1723667"><ele>867.0</ele><time>2026-04-11T09:21:06.813Z</time></trkpt><trkpt lat="41.88851" lon="13.1722483"><ele>867.0</ele><time>2026-04-11T09:21:07.809Z</time></trkpt><trkpt lat="41.88841" lon="13.1721133"><ele>865.0</ele><time>2026-04-11T09:21:08.816Z</time></trkpt><trkpt lat="41.8883183" lon="13.17197"><ele>863.0</ele><time>2026-04-11T09:21:09.814Z</time></trkpt><trkpt lat="41.8882317" lon="13.171825"><ele>861.0</ele><time>2026-04-11T09:21:10.81Z</time></trkpt><trkpt lat="41.888155" lon="13.171685"><ele>859.0</ele><time>2026-04-11T09:21:11.816Z</time></trkpt><trkpt lat="41.8880933" lon="13.17155"><ele>860.2</ele><time>2026-04-11T09:21:12.813Z</time></trkpt><trkpt lat="41.8880467" lon="13.1714167"><ele>861.4000000000001</ele><time>2026-04-11T09:21:13.813Z</time></trkpt><trkpt lat="41.8880133" lon="13.1712783"><ele>862.6</ele><time>2026-04-11T09:21:14.817Z</time></trkpt><trkpt lat="41.8880017" lon="13.1711317"><ele>863.8</ele><time>2026-04-11T09:21:15.813Z</time></trkpt><trkpt lat="41.8880133" lon="13.1709883"><ele>865.0</ele><time>2026-04-11T09:21:16.813Z</time></trkpt><trkpt lat="41.8880283" lon="13.1708483"><ele>865.0</ele><time>2026-04-11T09:21:17.813Z</time></trkpt><trkpt lat="41.8880417" lon="13.1707217"><ele>865.0</ele><time>2026-04-11T09:21:18.813Z</time></trkpt><trkpt lat="41.8880533" lon="13.170615"><ele>865.0</ele><time>2026-04-11T09:21:19.814Z</time></trkpt><trkpt lat="41.8880883" lon="13.17048"><ele>865.0</ele><time>2026-04-11T09:21:21.81Z</time></trkpt><trkpt lat="41.8881767" lon="13.170515"><ele>865.0</ele><time>2026-04-11T09:21:27.813Z</time></trkpt><trkpt lat="41.8882567" lon="13.170625"><ele>865.0</ele><time>2026-04-11T09:21:29.813Z</time></trkpt><trkpt lat="41.8883133" lon="13.1706767"><ele>865.0</ele><time>2026-04-11T09:21:30.813Z</time></trkpt><trkpt lat="41.888365" lon="13.17073"><ele>865.0</ele><time>2026-04-11T09:21:31.813Z</time></trkpt><trkpt lat="41.8884217" lon="13.17078"><ele>865.0</ele><time>2026-04-11T09:21:32.813Z</time></trkpt><trkpt lat="41.8884733" lon="13.17083"><ele>865.0</ele><time>2026-04-11T09:21:33.813Z</time></trkpt><trkpt lat="41.888525" lon="13.1708817"><ele>865.0</ele><time>2026-04-11T09:21:34.813Z</time></trkpt><trkpt lat="41.888575" lon="13.17094"><ele>865.0</ele><time>2026-04-11T09:21:35.813Z</time></trkpt><trkpt lat="41.8886217" lon="13.171"><ele>866.9999999999999</ele><time>2026-04-11T09:21:36.812Z</time></trkpt><trkpt lat="41.8886783" lon="13.1710567"><ele>869.0</ele><time>2026-04-11T09:21:37.814Z</time></trkpt><trkpt lat="41.8887467" lon="13.171115"><ele>871.0</ele><time>2026-04-11T09:21:38.813Z</time></trkpt><trkpt lat="41.8888183" lon="13.1711867"><ele>873.0</ele><time>2026-04-11T09:21:39.813Z</time></trkpt><trkpt lat="41.8888883" lon="13.171275"><ele>874.9999999999999</ele><time>2026-04-11T09:21:40.813Z</time></trkpt><trkpt lat="41.88896" lon="13.1713583"><ele>877.0</ele><time>2026-04-11T09:21:41.813Z</time></trkpt><trkpt lat="41.8890283" lon="13.1714333"><ele>876.9999999999999</ele><time>2026-04-11T09:21:42.813Z</time></trkpt><trkpt lat="41.8891" lon="13.1715117"><ele>877.0</ele><time>2026-04-11T09:21:43.812Z</time></trkpt><trkpt lat="41.8891733" lon="13.1715883"><ele>877.0</ele><time>2026-04-11T09:21:44.813Z</time></trkpt><trkpt lat="41.88924" lon="13.1716483"><ele>877.0</ele><time>2026-04-11T09:21:45.812Z</time></trkpt><trkpt lat="41.8893083" lon="13.1716833"><ele>876.9999999999999</ele><time>2026-04-11T09:21:46.812Z</time></trkpt><trkpt lat="41.88938" lon="13.1717"><ele>877.0</ele><time>2026-04-11T09:21:47.81Z</time></trkpt><trkpt lat="41.8894583" lon="13.1716967"><ele>879.8333333333333</ele><time>2026-04-11T09:21:48.81Z</time></trkpt><trkpt lat="41.8895467" lon="13.171695"><ele>882.6666666666666</ele><time>2026-04-11T09:21:49.815Z</time></trkpt><trkpt lat="41.889645" lon="13.1716917"><ele>885.5</ele><time>2026-04-11T09:21:50.816Z</time></trkpt><trkpt lat="41.8897333" lon="13.171705"><ele>888.3333333333333</ele><time>2026-04-11T09:21:51.811Z</time></trkpt><trkpt lat="41.8898033" lon="13.1717317"><ele>891.1666666666666</ele><time>2026-04-11T09:21:52.815Z</time></trkpt><trkpt lat="41.8898583" lon="13.1717783"><ele>894.0</ele><time>2026-04-11T09:21:53.812Z</time></trkpt><trkpt lat="41.8898933" lon="13.17186"><ele>894.0</ele><time>2026-04-11T09:21:54.812Z</time></trkpt><trkpt lat="41.8899183" lon="13.1719583"><ele>894.0000000000001</ele><time>2026-04-11T09:21:55.813Z</time></trkpt><trkpt lat="41.889945" lon="13.1720617"><ele>894.0000000000001</ele><time>2026-04-11T09:21:56.813Z</time></trkpt><trkpt lat="41.8899617" lon="13.1721783"><ele>894.0</ele><time>2026-04-11T09:21:57.813Z</time></trkpt><trkpt lat="41.88999" lon="13.1723133"><ele>894.0</ele><time>2026-04-11T09:21:58.814Z</time></trkpt><trkpt lat="41.8900417" lon="13.1724767"><ele>901.0</ele><time>2026-04-11T09:21:59.813Z</time></trkpt><trkpt lat="41.890115" lon="13.1726567"><ele>908.0</ele><time>2026-04-11T09:22:00.814Z</time></trkpt><trkpt lat="41.8901967" lon="13.1728417"><ele>915.0</ele><time>2026-04-11T09:22:01.813Z</time></trkpt><trkpt lat="41.8902867" lon="13.1730433"><ele>915.6666666666667</ele><time>2026-04-11T09:22:02.813Z</time></trkpt><trkpt lat="41.89037" lon="13.1732667"><ele>916.3333333333334</ele><time>2026-04-11T09:22:03.813Z</time></trkpt><trkpt lat="41.8904533" lon="13.173505"><ele>917.0</ele><time>2026-04-11T09:22:04.815Z</time></trkpt><trkpt lat="41.890545" lon="13.1737567"><ele>917.0</ele><time>2026-04-11T09:22:05.814Z</time></trkpt><trkpt lat="41.8906383" lon="13.1740183"><ele>917.0</ele><time>2026-04-11T09:22:06.812Z</time></trkpt><trkpt lat="41.8907233" lon="13.174255"><ele>917.0</ele><time>2026-04-11T09:22:07.819Z</time></trkpt><trkpt lat="41.890795" lon="13.1744433"><ele>917.2</ele><time>2026-04-11T09:22:08.813Z</time></trkpt><trkpt lat="41.890855" lon="13.1745783"><ele>917.4000000000001</ele><time>2026-04-11T09:22:09.817Z</time></trkpt><trkpt lat="41.8909267" lon="13.1746717"><ele>917.5999999999999</ele><time>2026-04-11T09:22:10.812Z</time></trkpt><trkpt lat="41.8910167" lon="13.1747483"><ele>917.8</ele><time>2026-04-11T09:22:11.812Z</time></trkpt><trkpt lat="41.891135" lon="13.1747883"><ele>918.0</ele><time>2026-04-11T09:22:12.813Z</time></trkpt><trkpt lat="41.8912667" lon="13.1748167"><ele>919.2</ele><time>2026-04-11T09:22:13.812Z</time></trkpt><trkpt lat="41.891395" lon="13.1748417"><ele>920.4</ele><time>2026-04-11T09:22:14.815Z</time></trkpt><trkpt lat="41.8915033" lon="13.1748617"><ele>921.6000000000001</ele><time>2026-04-11T09:22:15.813Z</time></trkpt><trkpt lat="41.891605" lon="13.1748733"><ele>922.8000000000001</ele><time>2026-04-11T09:22:16.813Z</time></trkpt><trkpt lat="41.8917017" lon="13.174875"><ele>924.0</ele><time>2026-04-11T09:22:17.81Z</time></trkpt><trkpt lat="41.89179" lon="13.1748517"><ele>924.0</ele><time>2026-04-11T09:22:18.812Z</time></trkpt><trkpt lat="41.8918767" lon="13.1748133"><ele>924.0000000000001</ele><time>2026-04-11T09:22:19.813Z</time></trkpt><trkpt lat="41.891965" lon="13.1747467"><ele>924.0000000000001</ele><time>2026-04-11T09:22:20.812Z</time></trkpt><trkpt lat="41.8920383" lon="13.1746217"><ele>924.0</ele><time>2026-04-11T09:22:21.812Z</time></trkpt><trkpt lat="41.89209" lon="13.1744733"><ele>924.0</ele><time>2026-04-11T09:22:22.812Z</time></trkpt><trkpt lat="41.8921183" lon="13.17431"><ele>924.0</ele><time>2026-04-11T09:22:23.812Z</time></trkpt><trkpt lat="41.8921283" lon="13.17412"><ele>924.0</ele><time>2026-04-11T09:22:24.813Z</time></trkpt><trkpt lat="41.89213" lon="13.1739233"><ele>924.0</ele><time>2026-04-11T09:22:25.813Z</time></trkpt><trkpt lat="41.8921283" lon="13.1737517"><ele>924.0</ele><time>2026-04-11T09:22:26.812Z</time></trkpt><trkpt lat="41.8921167" lon="13.1735983"><ele>924.75</ele><time>2026-04-11T09:22:27.814Z</time></trkpt><trkpt lat="41.8921" lon="13.17345"><ele>925.5</ele><time>2026-04-11T09:22:28.812Z</time></trkpt><trkpt lat="41.8920983" lon="13.17328"><ele>926.25</ele><time>2026-04-11T09:22:29.813Z</time></trkpt><trkpt lat="41.892115" lon="13.1730917"><ele>927.0</ele><time>2026-04-11T09:22:30.812Z</time></trkpt><trkpt lat="41.892155" lon="13.172895"><ele>928.0</ele><time>2026-04-11T09:22:31.813Z</time></trkpt><trkpt lat="41.8922017" lon="13.1726983"><ele>929.0</ele><time>2026-04-11T09:22:32.813Z</time></trkpt><trkpt lat="41.8922617" lon="13.1725117"><ele>930.0</ele><time>2026-04-11T09:22:33.813Z</time></trkpt><trkpt lat="41.8923367" lon="13.17235"><ele>931.0</ele><time>2026-04-11T09:22:34.813Z</time></trkpt><trkpt lat="41.892435" lon="13.1722183"><ele>933.25</ele><time>2026-04-11T09:22:35.813Z</time></trkpt><trkpt lat="41.892555" lon="13.1720883"><ele>935.5</ele><time>2026-04-11T09:22:36.814Z</time></trkpt><trkpt lat="41.8926733" lon="13.1719567"><ele>937.75</ele><time>2026-04-11T09:22:37.813Z</time></trkpt><trkpt lat="41.89277" lon="13.1718233"><ele>940.0</ele><time>2026-04-11T09:22:38.813Z</time></trkpt><trkpt lat="41.892845" lon="13.17168"><ele>935.6666666666666</ele><time>2026-04-11T09:22:39.813Z</time></trkpt><trkpt lat="41.8929" lon="13.1715117"><ele>931.3333333333333</ele><time>2026-04-11T09:22:40.813Z</time></trkpt><trkpt lat="41.8929583" lon="13.1713183"><ele>927.0</ele><time>2026-04-11T09:22:41.812Z</time></trkpt><trkpt lat="41.8929983" lon="13.171105"><ele>927.0</ele><time>2026-04-11T09:22:42.814Z</time></trkpt><trkpt lat="41.893025" lon="13.1708917"><ele>927.0</ele><time>2026-04-11T09:22:43.814Z</time></trkpt><trkpt lat="41.89304" lon="13.1707017"><ele>927.0</ele><time>2026-04-11T09:22:44.812Z</time></trkpt><trkpt lat="41.8930617" lon="13.170535"><ele>927.0</ele><time>2026-04-11T09:22:45.813Z</time></trkpt><trkpt lat="41.8931033" lon="13.1703833"><ele>925.2</ele><time>2026-04-11T09:22:46.813Z</time></trkpt><trkpt lat="41.89316" lon="13.1702517"><ele>923.4000000000001</ele><time>2026-04-11T09:22:47.816Z</time></trkpt><trkpt lat="41.893225" lon="13.1701383"><ele>921.5999999999999</ele><time>2026-04-11T09:22:48.81Z</time></trkpt><trkpt lat="41.893305" lon="13.1700483"><ele>919.8</ele><time>2026-04-11T09:22:49.812Z</time></trkpt><trkpt lat="41.8933917" lon="13.16999"><ele>918.0</ele><time>2026-04-11T09:22:50.809Z</time></trkpt><trkpt lat="41.893495" lon="13.1699583"><ele>918.0</ele><time>2026-04-11T09:22:51.81Z</time></trkpt><trkpt lat="41.8936033" lon="13.169945"><ele>918.0</ele><time>2026-04-11T09:22:52.81Z</time></trkpt><trkpt lat="41.8937067" lon="13.169945"><ele>918.0</ele><time>2026-04-11T09:22:53.81Z</time></trkpt><trkpt lat="41.8938067" lon="13.1699533"><ele>918.0</ele><time>2026-04-11T09:22:54.815Z</time></trkpt><trkpt lat="41.8939" lon="13.169985"><ele>918.0</ele><time>2026-04-11T09:22:55.813Z</time></trkpt><trkpt lat="41.893985" lon="13.1700533"><ele>918.0</ele><time>2026-04-11T09:22:56.815Z</time></trkpt><trkpt lat="41.8940633" lon="13.1701383"><ele>918.0</ele><time>2026-04-11T09:22:57.814Z</time></trkpt><trkpt lat="41.8941317" lon="13.170225"><ele>918.0</ele><time>2026-04-11T09:22:58.813Z</time></trkpt><trkpt lat="41.8941983" lon="13.1703033"><ele>918.0</ele><time>2026-04-11T09:22:59.813Z</time></trkpt><trkpt lat="41.8942667" lon="13.1703783"><ele>918.0</ele><time>2026-04-11T09:23:00.814Z</time></trkpt><trkpt lat="41.8943333" lon="13.17045"><ele>919.3333333333334</ele><time>2026-04-11T09:23:01.812Z</time></trkpt><trkpt lat="41.8943967" lon="13.1705233"><ele>920.6666666666667</ele><time>2026-04-11T09:23:02.812Z</time></trkpt><trkpt lat="41.8944583" lon="13.1705817"><ele>922.0</ele><time>2026-04-11T09:23:03.814Z</time></trkpt><trkpt lat="41.89452" lon="13.17063"><ele>923.3333333333334</ele><time>2026-04-11T09:23:04.813Z</time></trkpt><trkpt lat="41.8945833" lon="13.1706667"><ele>924.6666666666667</ele><time>2026-04-11T09:23:05.812Z</time></trkpt><trkpt lat="41.8946517" lon="13.1707"><ele>926.0</ele><time>2026-04-11T09:23:06.814Z</time></trkpt><trkpt lat="41.8947267" lon="13.1707383"><ele>926.0</ele><time>2026-04-11T09:23:07.813Z</time></trkpt><trkpt lat="41.894815" lon="13.1707733"><ele>925.9999999999999</ele><time>2026-04-11T09:23:08.814Z</time></trkpt><trkpt lat="41.8949083" lon="13.1708067"><ele>925.9999999999999</ele><time>2026-04-11T09:23:09.812Z</time></trkpt><trkpt lat="41.89501" lon="13.17084"><ele>926.0</ele><time>2026-04-11T09:23:10.813Z</time></trkpt><trkpt lat="41.8951167" lon="13.1708683"><ele>926.0</ele><time>2026-04-11T09:23:11.813Z</time></trkpt><trkpt lat="41.89523" lon="13.1708767"><ele>927.5</ele><time>2026-04-11T09:23:12.812Z</time></trkpt><trkpt lat="41.8953483" lon="13.17087"><ele>929.0</ele><time>2026-04-11T09:23:13.816Z</time></trkpt><trkpt lat="41.895475" lon="13.1708583"><ele>930.5</ele><time>2026-04-11T09:23:14.812Z</time></trkpt><trkpt lat="41.895595" lon="13.170835"><ele>932.0</ele><time>2026-04-11T09:23:15.814Z</time></trkpt><trkpt lat="41.8957067" lon="13.1708217"><ele>932.0</ele><time>2026-04-11T09:23:16.812Z</time></trkpt><trkpt lat="41.8958133" lon="13.1708267"><ele>932.0</ele><time>2026-04-11T09:23:17.812Z</time></trkpt><trkpt lat="41.8959217" lon="13.1708633"><ele>932.0</ele><time>2026-04-11T09:23:18.81Z</time></trkpt><trkpt lat="41.8960333" lon="13.1709367"><ele>932.0</ele><time>2026-04-11T09:23:19.81Z</time></trkpt><trkpt lat="41.8961633" lon="13.17101"><ele>933.6666666666667</ele><time>2026-04-11T09:23:20.809Z</time></trkpt><trkpt lat="41.8963017" lon="13.1710717"><ele>935.3333333333333</ele><time>2026-04-11T09:23:21.809Z</time></trkpt><trkpt lat="41.8964483" lon="13.171115"><ele>937.0</ele><time>2026-04-11T09:23:22.81Z</time></trkpt><trkpt lat="41.8966017" lon="13.17115"><ele>937.0</ele><time>2026-04-11T09:23:23.811Z</time></trkpt><trkpt lat="41.8967517" lon="13.1711817"><ele>937.0</ele><time>2026-04-11T09:23:24.813Z</time></trkpt><trkpt lat="41.8968833" lon="13.1712067"><ele>937.0</ele><time>2026-04-11T09:23:25.813Z</time></trkpt><trkpt lat="41.8969967" lon="13.1712183"><ele>937.0</ele><time>2026-04-11T09:23:26.813Z</time></trkpt><trkpt lat="41.8970983" lon="13.171225"><ele>942.6666666666666</ele><time>2026-04-11T09:23:27.813Z</time></trkpt><trkpt lat="41.8971833" lon="13.17122"><ele>948.3333333333333</ele><time>2026-04-11T09:23:28.812Z</time></trkpt><trkpt lat="41.8972583" lon="13.17119"><ele>954.0</ele><time>2026-04-11T09:23:29.812Z</time></trkpt><trkpt lat="41.89731" lon="13.17113"><ele>959.6666666666667</ele><time>2026-04-11T09:23:30.809Z</time></trkpt><trkpt lat="41.8973417" lon="13.1710417"><ele>965.3333333333334</ele><time>2026-04-11T09:23:31.811Z</time></trkpt><trkpt lat="41.8973383" lon="13.17095"><ele>971.0</ele><time>2026-04-11T09:23:32.813Z</time></trkpt><trkpt lat="41.8972833" lon="13.1707933"><ele>971.0</ele><time>2026-04-11T09:23:34.809Z</time></trkpt><trkpt lat="41.8972133" lon="13.17071"><ele>970.9999999999999</ele><time>2026-04-11T09:23:35.813Z</time></trkpt><trkpt lat="41.8971767" lon="13.17061"><ele>970.9999999999999</ele><time>2026-04-11T09:23:36.813Z</time></trkpt><trkpt lat="41.897145" lon="13.1704833"><ele>971.0</ele><time>2026-04-11T09:23:37.813Z</time></trkpt><trkpt lat="41.897125" lon="13.17035"><ele>971.0</ele><time>2026-04-11T09:23:38.812Z</time></trkpt><trkpt lat="41.8971133" lon="13.170245"><ele>972.1999999999999</ele><time>2026-04-11T09:23:39.812Z</time></trkpt><trkpt lat="41.8971317" lon="13.1701283"><ele>973.3999999999999</ele><time>2026-04-11T09:23:41.814Z</time></trkpt><trkpt lat="41.8971967" lon="13.1701733"><ele>974.6</ele><time>2026-04-11T09:23:43.814Z</time></trkpt><trkpt lat="41.8972283" lon="13.1702767"><ele>975.8</ele><time>2026-04-11T09:23:44.812Z</time></trkpt><trkpt lat="41.8972517" lon="13.1704217"><ele>977.0</ele><time>2026-04-11T09:23:45.812Z</time></trkpt><trkpt lat="41.8972817" lon="13.17055"><ele>975.5</ele><time>2026-04-11T09:23:46.813Z</time></trkpt><trkpt lat="41.89736" lon="13.17072"><ele>974.0</ele><time>2026-04-11T09:23:47.813Z</time></trkpt><trkpt lat="41.89745" lon="13.1708817"><ele>972.5</ele><time>2026-04-11T09:23:48.812Z</time></trkpt><trkpt lat="41.8975367" lon="13.1710233"><ele>971.0</ele><time>2026-04-11T09:23:49.812Z</time></trkpt><trkpt lat="41.8976017" lon="13.1711467"><ele>972.3333333333334</ele><time>2026-04-11T09:23:50.813Z</time></trkpt><trkpt lat="41.8976383" lon="13.1712517"><ele>973.6666666666667</ele><time>2026-04-11T09:23:51.813Z</time></trkpt><trkpt lat="41.89765" lon="13.1713467"><ele>975.0</ele><time>2026-04-11T09:23:52.813Z</time></trkpt><trkpt lat="41.897645" lon="13.1714383"><ele>976.3333333333333</ele><time>2026-04-11T09:23:53.812Z</time></trkpt><trkpt lat="41.8976333" lon="13.17153"><ele>977.6666666666666</ele><time>2026-04-11T09:23:54.813Z</time></trkpt><trkpt lat="41.8976033" lon="13.1716133"><ele>979.0</ele><time>2026-04-11T09:23:55.813Z</time></trkpt><trkpt lat="41.8974917" lon="13.1716417"><ele>979.0</ele><time>2026-04-11T09:23:56.811Z</time></trkpt><trkpt lat="41.8973433" lon="13.171665"><ele>979.0</ele><time>2026-04-11T09:23:57.811Z</time></trkpt><trkpt lat="41.8971383" lon="13.1716417"><ele>979.0</ele><time>2026-04-11T09:23:58.813Z</time></trkpt><trkpt lat="41.8969517" lon="13.1716417"><ele>979.0</ele><time>2026-04-11T09:23:59.812Z</time></trkpt><trkpt lat="41.89678" lon="13.1716367"><ele>979.0</ele><time>2026-04-11T09:24:00.811Z</time></trkpt><trkpt lat="41.8965883" lon="13.17164"><ele>979.0</ele><time>2026-04-11T09:24:01.816Z</time></trkpt><trkpt lat="41.8964217" lon="13.1716517"><ele>977.0</ele><time>2026-04-11T09:24:02.812Z</time></trkpt><trkpt lat="41.8962783" lon="13.1716567"><ele>975.0</ele><time>2026-04-11T09:24:03.81Z</time></trkpt><trkpt lat="41.8961517" lon="13.1716717"><ele>973.0</ele><time>2026-04-11T09:24:04.81Z</time></trkpt><trkpt lat="41.8960483" lon="13.1717033"><ele>971.0</ele><time>2026-04-11T09:24:05.813Z</time></trkpt><trkpt lat="41.89597" lon="13.1717667"><ele>971.0</ele><time>2026-04-11T09:24:06.812Z</time></trkpt><trkpt lat="41.89593" lon="13.1718667"><ele>971.0</ele><time>2026-04-11T09:24:07.811Z</time></trkpt><trkpt lat="41.8959117" lon="13.1720033"><ele>971.0</ele><time>2026-04-11T09:24:08.811Z</time></trkpt><trkpt lat="41.89597" lon="13.17222"><ele>971.0</ele><time>2026-04-11T09:24:09.813Z</time></trkpt><trkpt lat="41.896035" lon="13.1724417"><ele>975.5999999999999</ele><time>2026-04-11T09:24:10.812Z</time></trkpt><trkpt lat="41.8960817" lon="13.1726283"><ele>980.1999999999999</ele><time>2026-04-11T09:24:11.812Z</time></trkpt><trkpt lat="41.89611" lon="13.1727833"><ele>984.8000000000001</ele><time>2026-04-11T09:24:12.814Z</time></trkpt><trkpt lat="41.896125" lon="13.17291"><ele>989.4000000000001</ele><time>2026-04-11T09:24:13.81Z</time></trkpt><trkpt lat="41.8961117" lon="13.1730233"><ele>994.0</ele><time>2026-04-11T09:24:14.812Z</time></trkpt><trkpt lat="41.8960967" lon="13.1731433"><ele>995.0</ele><time>2026-04-11T09:24:15.813Z</time></trkpt><trkpt lat="41.8960933" lon="13.17328"><ele>996.0</ele><time>2026-04-11T09:24:16.812Z</time></trkpt><trkpt lat="41.89612" lon="13.1734183"><ele>997.0</ele><time>2026-04-11T09:24:17.812Z</time></trkpt><trkpt lat="41.8961833" lon="13.173555"><ele>998.0</ele><time>2026-04-11T09:24:18.812Z</time></trkpt><trkpt lat="41.8962633" lon="13.1736817"><ele>998.0</ele><time>2026-04-11T09:24:19.813Z</time></trkpt><trkpt lat="41.8963367" lon="13.1738017"><ele>998.0</ele><time>2026-04-11T09:24:20.812Z</time></trkpt><trkpt lat="41.8963833" lon="13.1739167"><ele>998.0</ele><time>2026-04-11T09:24:21.813Z</time></trkpt><trkpt lat="41.8964" lon="13.1740317"><ele>998.0</ele><time>2026-04-11T09:24:22.814Z</time></trkpt><trkpt lat="41.89639" lon="13.1741533"><ele>998.0</ele><time>2026-04-11T09:24:23.814Z</time></trkpt><trkpt lat="41.8963533" lon="13.1742883"><ele>999.25</ele><time>2026-04-11T09:24:24.813Z</time></trkpt><trkpt lat="41.896305" lon="13.17444"><ele>1000.5</ele><time>2026-04-11T09:24:25.813Z</time></trkpt><trkpt lat="41.8962417" lon="13.1746017"><ele>1001.75</ele><time>2026-04-11T09:24:26.812Z</time></trkpt><trkpt lat="41.8961783" lon="13.17478"><ele>1003.0</ele><time>2026-04-11T09:24:27.814Z</time></trkpt><trkpt lat="41.8961267" lon="13.1749717"><ele>1009.0</ele><time>2026-04-11T09:24:28.811Z</time></trkpt><trkpt lat="41.8960883" lon="13.1751767"><ele>1015.0</ele><time>2026-04-11T09:24:29.813Z</time></trkpt><trkpt lat="41.896055" lon="13.17537"><ele>1021.0</ele><time>2026-04-11T09:24:30.812Z</time></trkpt><trkpt lat="41.8960417" lon="13.1755667"><ele>1023.5</ele><time>2026-04-11T09:24:31.811Z</time></trkpt><trkpt lat="41.896045" lon="13.1757717"><ele>1026.0</ele><time>2026-04-11T09:24:32.812Z</time></trkpt><trkpt lat="41.8960417" lon="13.1759633"><ele>1028.5</ele><time>2026-04-11T09:24:33.812Z</time></trkpt><trkpt lat="41.896015" lon="13.176145"><ele>1031.0</ele><time>2026-04-11T09:24:34.813Z</time></trkpt><trkpt lat="41.8959567" lon="13.1763333"><ele>1022.3333333333334</ele><time>2026-04-11T09:24:35.813Z</time></trkpt><trkpt lat="41.89589" lon="13.176545"><ele>1013.6666666666667</ele><time>2026-04-11T09:24:36.812Z</time></trkpt><trkpt lat="41.89584" lon="13.1767733"><ele>1005.0</ele><time>2026-04-11T09:24:37.81Z</time></trkpt><trkpt lat="41.8958067" lon="13.1769983"><ele>1005.0</ele><time>2026-04-11T09:24:38.813Z</time></trkpt><trkpt lat="41.8958" lon="13.1772267"><ele>1005.0</ele><time>2026-04-11T09:24:39.812Z</time></trkpt><trkpt lat="41.8958083" lon="13.17744"><ele>1005.0</ele><time>2026-04-11T09:24:40.812Z</time></trkpt><trkpt lat="41.8958067" lon="13.1776167"><ele>1007.25</ele><time>2026-04-11T09:24:41.814Z</time></trkpt><trkpt lat="41.8957817" lon="13.177765"><ele>1009.5</ele><time>2026-04-11T09:24:42.813Z</time></trkpt><trkpt lat="41.895725" lon="13.1778983"><ele>1011.75</ele><time>2026-04-11T09:24:43.813Z</time></trkpt><trkpt lat="41.895645" lon="13.1780233"><ele>1014.0</ele><time>2026-04-11T09:24:44.816Z</time></trkpt><trkpt lat="41.8955717" lon="13.1781517"><ele>1017.4000000000001</ele><time>2026-04-11T09:24:45.814Z</time></trkpt><trkpt lat="41.8955117" lon="13.1782767"><ele>1020.8000000000001</ele><time>2026-04-11T09:24:46.814Z</time></trkpt><trkpt lat="41.8954717" lon="13.1784117"><ele>1024.1999999999998</ele><time>2026-04-11T09:24:47.812Z</time></trkpt><trkpt lat="41.895445" lon="13.1785533"><ele>1027.6</ele><time>2026-04-11T09:24:48.813Z</time></trkpt><trkpt lat="41.8954433" lon="13.178715"><ele>1031.0</ele><time>2026-04-11T09:24:49.813Z</time></trkpt><trkpt lat="41.8954517" lon="13.1788833"><ele>1033.75</ele><time>2026-04-11T09:24:50.813Z</time></trkpt><trkpt lat="41.8954517" lon="13.1790517"><ele>1036.5</ele><time>2026-04-11T09:24:51.813Z</time></trkpt><trkpt lat="41.89543" lon="13.1792217"><ele>1039.25</ele><time>2026-04-11T09:24:52.814Z</time></trkpt><trkpt lat="41.895395" lon="13.1793867"><ele>1042.0</ele><time>2026-04-11T09:24:53.814Z</time></trkpt><trkpt lat="41.895365" lon="13.1795567"><ele>1042.0</ele><time>2026-04-11T09:24:54.813Z</time></trkpt><trkpt lat="41.895345" lon="13.17972"><ele>1042.0</ele><time>2026-04-11T09:24:55.81Z</time></trkpt><trkpt lat="41.8953233" lon="13.179885"><ele>1042.0</ele><time>2026-04-11T09:24:56.812Z</time></trkpt><trkpt lat="41.8952967" lon="13.1800517"><ele>1042.0</ele><time>2026-04-11T09:24:57.814Z</time></trkpt><trkpt lat="41.8952817" lon="13.1802233"><ele>1044.75</ele><time>2026-04-11T09:24:58.813Z</time></trkpt><trkpt lat="41.8952767" lon="13.1803883"><ele>1047.5</ele><time>2026-04-11T09:24:59.813Z</time></trkpt><trkpt lat="41.8952833" lon="13.18055"><ele>1050.25</ele><time>2026-04-11T09:25:00.813Z</time></trkpt><trkpt lat="41.8952917" lon="13.18069"><ele>1053.0</ele><time>2026-04-11T09:25:01.81Z</time></trkpt><trkpt lat="41.8953117" lon="13.1808267"><ele>1053.6</ele><time>2026-04-11T09:25:02.814Z</time></trkpt><trkpt lat="41.8953433" lon="13.18096"><ele>1054.1999999999998</ele><time>2026-04-11T09:25:03.814Z</time></trkpt><trkpt lat="41.89538" lon="13.1810967"><ele>1054.8</ele><time>2026-04-11T09:25:04.813Z</time></trkpt><trkpt lat="41.895405" lon="13.1812333"><ele>1055.3999999999999</ele><time>2026-04-11T09:25:05.81Z</time></trkpt><trkpt lat="41.89541" lon="13.1813717"><ele>1056.0</ele><time>2026-04-11T09:25:06.812Z</time></trkpt><trkpt lat="41.8953883" lon="13.1815117"><ele>1057.8</ele><time>2026-04-11T09:25:07.813Z</time></trkpt><trkpt lat="41.8953617" lon="13.1816517"><ele>1059.6</ele><time>2026-04-11T09:25:08.812Z</time></trkpt><trkpt lat="41.8953483" lon="13.1817967"><ele>1061.4</ele><time>2026-04-11T09:25:09.813Z</time></trkpt><trkpt lat="41.895345" lon="13.1819467"><ele>1063.2</ele><time>2026-04-11T09:25:10.81Z</time></trkpt><trkpt lat="41.895355" lon="13.1820917"><ele>1065.0</ele><time>2026-04-11T09:25:11.813Z</time></trkpt><trkpt lat="41.8953717" lon="13.182235"><ele>1066.2</ele><time>2026-04-11T09:25:12.813Z</time></trkpt><trkpt lat="41.895385" lon="13.1823783"><ele>1067.4</ele><time>2026-04-11T09:25:13.813Z</time></trkpt><trkpt lat="41.89539" lon="13.18251"><ele>1068.6</ele><time>2026-04-11T09:25:14.813Z</time></trkpt><trkpt lat="41.8953717" lon="13.182625"><ele>1069.8</ele><time>2026-04-11T09:25:15.812Z</time></trkpt><trkpt lat="41.8953333" lon="13.18273"><ele>1071.0</ele><time>2026-04-11T09:25:16.812Z</time></trkpt><trkpt lat="41.89528" lon="13.1828367"><ele>1071.0</ele><time>2026-04-11T09:25:17.81Z</time></trkpt><trkpt lat="41.8952067" lon="13.182945"><ele>1071.0</ele><time>2026-04-11T09:25:18.809Z</time></trkpt><trkpt lat="41.89514" lon="13.1830667"><ele>1071.0</ele><time>2026-04-11T09:25:19.811Z</time></trkpt><trkpt lat="41.8950817" lon="13.1831983"><ele>1071.0</ele><time>2026-04-11T09:25:20.811Z</time></trkpt><trkpt lat="41.8950267" lon="13.18334"><ele>1063.5</ele><time>2026-04-11T09:25:21.81Z</time></trkpt><trkpt lat="41.8949867" lon="13.183485"><ele>1056.0</ele><time>2026-04-11T09:25:22.809Z</time></trkpt><trkpt lat="41.894965" lon="13.1836383"><ele>1048.5</ele><time>2026-04-11T09:25:23.812Z</time></trkpt><trkpt lat="41.89496" lon="13.1837983"><ele>1041.0</ele><time>2026-04-11T09:25:24.813Z</time></trkpt><trkpt lat="41.8949617" lon="13.18396"><ele>1043.5</ele><time>2026-04-11T09:25:25.814Z</time></trkpt><trkpt lat="41.8949567" lon="13.1841217"><ele>1046.0</ele><time>2026-04-11T09:25:26.813Z</time></trkpt><trkpt lat="41.894945" lon="13.1842783"><ele>1048.5</ele><time>2026-04-11T09:25:27.813Z</time></trkpt><trkpt lat="41.89493" lon="13.184435"><ele>1051.0</ele><time>2026-04-11T09:25:28.813Z</time></trkpt><trkpt lat="41.8949117" lon="13.1845933"><ele>1051.0</ele><time>2026-04-11T09:25:29.812Z</time></trkpt><trkpt lat="41.894895" lon="13.184755"><ele>1051.0</ele><time>2026-04-11T09:25:30.813Z</time></trkpt><trkpt lat="41.894885" lon="13.1849183"><ele>1051.0</ele><time>2026-04-11T09:25:31.811Z</time></trkpt><trkpt lat="41.89489" lon="13.1850867"><ele>1051.0</ele><time>2026-04-11T09:25:32.814Z</time></trkpt><trkpt lat="41.8949083" lon="13.1852483"><ele>1052.0</ele><time>2026-04-11T09:25:33.813Z</time></trkpt><trkpt lat="41.8949383" lon="13.1854017"><ele>1053.0</ele><time>2026-04-11T09:25:34.813Z</time></trkpt><trkpt lat="41.894985" lon="13.1855467"><ele>1054.0</ele><time>2026-04-11T09:25:35.813Z</time></trkpt><trkpt lat="41.895045" lon="13.18568"><ele>1055.0</ele><time>2026-04-11T09:25:36.813Z</time></trkpt><trkpt lat="41.8951167" lon="13.1858083"><ele>1063.5</ele><time>2026-04-11T09:25:37.809Z</time></trkpt><trkpt lat="41.895205" lon="13.18595"><ele>1072.0</ele><time>2026-04-11T09:25:38.809Z</time></trkpt><trkpt lat="41.8952867" lon="13.1861"><ele>1080.5</ele><time>2026-04-11T09:25:39.813Z</time></trkpt><trkpt lat="41.89536" lon="13.186265"><ele>1089.0</ele><time>2026-04-11T09:25:40.813Z</time></trkpt><trkpt lat="41.895425" lon="13.1864333"><ele>1085.4</ele><time>2026-04-11T09:25:41.81Z</time></trkpt><trkpt lat="41.8954767" lon="13.1865867"><ele>1081.8000000000002</ele><time>2026-04-11T09:25:42.814Z</time></trkpt><trkpt lat="41.895525" lon="13.1867233"><ele>1078.1999999999998</ele><time>2026-04-11T09:25:43.813Z</time></trkpt><trkpt lat="41.8955817" lon="13.1868367"><ele>1074.6</ele><time>2026-04-11T09:25:44.811Z</time></trkpt><trkpt lat="41.8956567" lon="13.1869267"><ele>1071.0</ele><time>2026-04-11T09:25:45.814Z</time></trkpt><trkpt lat="41.8957517" lon="13.1869883"><ele>1071.0</ele><time>2026-04-11T09:25:46.812Z</time></trkpt><trkpt lat="41.8958533" lon="13.1870417"><ele>1071.0</ele><time>2026-04-11T09:25:47.811Z</time></trkpt><trkpt lat="41.8959583" lon="13.187105"><ele>1071.0</ele><time>2026-04-11T09:25:48.813Z</time></trkpt><trkpt lat="41.8960667" lon="13.1871767"><ele>1071.0</ele><time>2026-04-11T09:25:49.813Z</time></trkpt><trkpt lat="41.8961733" lon="13.1872633"><ele>1072.0</ele><time>2026-04-11T09:25:50.813Z</time></trkpt><trkpt lat="41.8962833" lon="13.18736"><ele>1073.0</ele><time>2026-04-11T09:25:51.813Z</time></trkpt><trkpt lat="41.8963933" lon="13.187475"><ele>1074.0</ele><time>2026-04-11T09:25:52.809Z</time></trkpt><trkpt lat="41.8965017" lon="13.187595"><ele>1075.0</ele><time>2026-04-11T09:25:53.813Z</time></trkpt><trkpt lat="41.8966133" lon="13.1876933"><ele>1075.0</ele><time>2026-04-11T09:25:54.813Z</time></trkpt><trkpt lat="41.8967283" lon="13.1877717"><ele>1075.0</ele><time>2026-04-11T09:25:55.812Z</time></trkpt><trkpt lat="41.8968367" lon="13.1878283"><ele>1075.0</ele><time>2026-04-11T09:25:56.809Z</time></trkpt><trkpt lat="41.8969283" lon="13.1878617"><ele>1075.0</ele><time>2026-04-11T09:25:57.814Z</time></trkpt><trkpt lat="41.896995" lon="13.1878967"><ele>1075.0</ele><time>2026-04-11T09:25:58.813Z</time></trkpt><trkpt lat="41.8970633" lon="13.188015"><ele>1073.75</ele><time>2026-04-11T09:26:00.813Z</time></trkpt><trkpt lat="41.8970383" lon="13.18817"><ele>1072.5</ele><time>2026-04-11T09:26:02.815Z</time></trkpt><trkpt lat="41.8969733" lon="13.1882583"><ele>1071.25</ele><time>2026-04-11T09:26:03.812Z</time></trkpt><trkpt lat="41.8968783" lon="13.1883617"><ele>1070.0</ele><time>2026-04-11T09:26:04.814Z</time></trkpt><trkpt lat="41.8967417" lon="13.1884883"><ele>1070.0</ele><time>2026-04-11T09:26:05.813Z</time></trkpt><trkpt lat="41.896605" lon="13.188605"><ele>1070.0</ele><time>2026-04-11T09:26:06.812Z</time></trkpt><trkpt lat="41.8964817" lon="13.1887183"><ele>1070.0</ele><time>2026-04-11T09:26:07.813Z</time></trkpt><trkpt lat="41.8963467" lon="13.1888167"><ele>1070.0</ele><time>2026-04-11T09:26:08.813Z</time></trkpt><trkpt lat="41.8962" lon="13.1889133"><ele>1070.0</ele><time>2026-04-11T09:26:09.813Z</time></trkpt><trkpt lat="41.8960517" lon="13.189005"><ele>1070.0</ele><time>2026-04-11T09:26:10.813Z</time></trkpt><trkpt lat="41.895905" lon="13.1891067"><ele>1071.5</ele><time>2026-04-11T09:26:11.813Z</time></trkpt><trkpt lat="41.895765" lon="13.189205"><ele>1073.0</ele><time>2026-04-11T09:26:12.813Z</time></trkpt><trkpt lat="41.8956483" lon="13.18932"><ele>1074.5</ele><time>2026-04-11T09:26:13.813Z</time></trkpt><trkpt lat="41.895545" lon="13.189445"><ele>1076.0</ele><time>2026-04-11T09:26:14.81Z</time></trkpt><trkpt lat="41.89547" lon="13.189605"><ele>1076.0</ele><time>2026-04-11T09:26:15.81Z</time></trkpt><trkpt lat="41.8954117" lon="13.1897933"><ele>1076.0</ele><time>2026-04-11T09:26:16.81Z</time></trkpt><trkpt lat="41.8953867" lon="13.1900033"><ele>1076.0</ele><time>2026-04-11T09:26:17.809Z</time></trkpt><trkpt lat="41.895375" lon="13.1902"><ele>1081.25</ele><time>2026-04-11T09:26:18.814Z</time></trkpt><trkpt lat="41.89537" lon="13.1903767"><ele>1086.5</ele><time>2026-04-11T09:26:19.813Z</time></trkpt><trkpt lat="41.8953833" lon="13.190535"><ele>1091.75</ele><time>2026-04-11T09:26:20.813Z</time></trkpt><trkpt lat="41.8954133" lon="13.1906817"><ele>1097.0</ele><time>2026-04-11T09:26:21.813Z</time></trkpt><trkpt lat="41.8954583" lon="13.1908167"><ele>1098.0</ele><time>2026-04-11T09:26:22.815Z</time></trkpt><trkpt lat="41.895515" lon="13.1909517"><ele>1099.0</ele><time>2026-04-11T09:26:23.814Z</time></trkpt><trkpt lat="41.8955733" lon="13.19109"><ele>1100.0</ele><time>2026-04-11T09:26:24.813Z</time></trkpt><trkpt lat="41.8956383" lon="13.1912333"><ele>1101.0</ele><time>2026-04-11T09:26:25.812Z</time></trkpt><trkpt lat="41.895715" lon="13.1913717"><ele>1097.75</ele><time>2026-04-11T09:26:26.812Z</time></trkpt><trkpt lat="41.895795" lon="13.1915133"><ele>1094.5</ele><time>2026-04-11T09:26:27.813Z</time></trkpt><trkpt lat="41.895885" lon="13.1916633"><ele>1091.25</ele><time>2026-04-11T09:26:28.812Z</time></trkpt><trkpt lat="41.8959783" lon="13.1918267"><ele>1088.0</ele><time>2026-04-11T09:26:29.813Z</time></trkpt><trkpt lat="41.8960717" lon="13.192"><ele>1095.0</ele><time>2026-04-11T09:26:30.81Z</time></trkpt><trkpt lat="41.896155" lon="13.1921633"><ele>1102.0</ele><time>2026-04-11T09:26:31.811Z</time></trkpt><trkpt lat="41.8962267" lon="13.1923167"><ele>1109.0</ele><time>2026-04-11T09:26:32.812Z</time></trkpt><trkpt lat="41.8962767" lon="13.19246"><ele>1116.0</ele><time>2026-04-11T09:26:33.81Z</time></trkpt><trkpt lat="41.8963" lon="13.19259"><ele>1116.0</ele><time>2026-04-11T09:26:34.813Z</time></trkpt><trkpt lat="41.89629" lon="13.19271"><ele>1116.0</ele><time>2026-04-11T09:26:35.813Z</time></trkpt><trkpt lat="41.8962567" lon="13.1928267"><ele>1116.0</ele><time>2026-04-11T09:26:36.813Z</time></trkpt><trkpt lat="41.8961783" lon="13.1929533"><ele>1116.0</ele><time>2026-04-11T09:26:37.813Z</time></trkpt><trkpt lat="41.896075" lon="13.193075"><ele>1116.0</ele><time>2026-04-11T09:26:38.813Z</time></trkpt><trkpt lat="41.895955" lon="13.1931883"><ele>1111.3333333333333</ele><time>2026-04-11T09:26:39.81Z</time></trkpt><trkpt lat="41.8958217" lon="13.1932967"><ele>1106.6666666666665</ele><time>2026-04-11T09:26:40.813Z</time></trkpt><trkpt lat="41.8956867" lon="13.1933967"><ele>1102.0</ele><time>2026-04-11T09:26:41.814Z</time></trkpt><trkpt lat="41.8955533" lon="13.1935067"><ele>1102.0</ele><time>2026-04-11T09:26:42.814Z</time></trkpt><trkpt lat="41.8954333" lon="13.193615"><ele>1102.0</ele><time>2026-04-11T09:26:43.812Z</time></trkpt><trkpt lat="41.89533" lon="13.1937233"><ele>1102.0</ele><time>2026-04-11T09:26:44.814Z</time></trkpt><trkpt lat="41.89525" lon="13.1938433"><ele>1102.0</ele><time>2026-04-11T09:26:45.809Z</time></trkpt><trkpt lat="41.8951933" lon="13.1939917"><ele>1110.6666666666665</ele><time>2026-04-11T09:26:46.809Z</time></trkpt><trkpt lat="41.8951617" lon="13.1941733"><ele>1119.3333333333333</ele><time>2026-04-11T09:26:47.809Z</time></trkpt><trkpt lat="41.8951567" lon="13.1943833"><ele>1128.0</ele><time>2026-04-11T09:26:48.81Z</time></trkpt><trkpt lat="41.8951667" lon="13.1946133"><ele>1129.0</ele><time>2026-04-11T09:26:49.81Z</time></trkpt><trkpt lat="41.8951983" lon="13.194845"><ele>1130.0</ele><time>2026-04-11T09:26:50.815Z</time></trkpt><trkpt lat="41.8952417" lon="13.19506"><ele>1131.0</ele><time>2026-04-11T09:26:51.814Z</time></trkpt><trkpt lat="41.89529" lon="13.195245"><ele>1131.0</ele><time>2026-04-11T09:26:52.812Z</time></trkpt><trkpt lat="41.89535" lon="13.1954067"><ele>1131.0</ele><time>2026-04-11T09:26:53.812Z</time></trkpt><trkpt lat="41.8954433" lon="13.1955517"><ele>1131.0</ele><time>2026-04-11T09:26:54.813Z</time></trkpt><trkpt lat="41.8955617" lon="13.1956917"><ele>1131.0</ele><time>2026-04-11T09:26:55.814Z</time></trkpt><trkpt lat="41.895685" lon="13.1958267"><ele>1128.6</ele><time>2026-04-11T09:26:56.813Z</time></trkpt><trkpt lat="41.895785" lon="13.1959383"><ele>1126.1999999999998</ele><time>2026-04-11T09:26:57.814Z</time></trkpt><trkpt lat="41.89586" lon="13.19603"><ele>1123.8000000000002</ele><time>2026-04-11T09:26:58.809Z</time></trkpt><trkpt lat="41.8958983" lon="13.1961233"><ele>1121.4</ele><time>2026-04-11T09:26:59.813Z</time></trkpt><trkpt lat="41.8959083" lon="13.196225"><ele>1119.0</ele><time>2026-04-11T09:27:00.813Z</time></trkpt><trkpt lat="41.89589" lon="13.1963383"><ele>1119.0</ele><time>2026-04-11T09:27:01.812Z</time></trkpt><trkpt lat="41.8958617" lon="13.1964683"><ele>1119.0</ele><time>2026-04-11T09:27:02.815Z</time></trkpt><trkpt lat="41.8958183" lon="13.196635"><ele>1119.0</ele><time>2026-04-11T09:27:03.813Z</time></trkpt><trkpt lat="41.89579" lon="13.1967983"><ele>1119.0</ele><time>2026-04-11T09:27:04.812Z</time></trkpt><trkpt lat="41.8957733" lon="13.1969467"><ele>1119.2</ele><time>2026-04-11T09:27:05.813Z</time></trkpt><trkpt lat="41.8957683" lon="13.1970867"><ele>1119.4</ele><time>2026-04-11T09:27:06.812Z</time></trkpt><trkpt lat="41.8957867" lon="13.1972133"><ele>1119.6</ele><time>2026-04-11T09:27:07.811Z</time></trkpt><trkpt lat="41.895835" lon="13.1973083"><ele>1119.8</ele><time>2026-04-11T09:27:08.811Z</time></trkpt><trkpt lat="41.8959017" lon="13.1973833"><ele>1120.0</ele><time>2026-04-11T09:27:09.811Z</time></trkpt><trkpt lat="41.8959983" lon="13.1974283"><ele>1120.0</ele><time>2026-04-11T09:27:10.811Z</time></trkpt><trkpt lat="41.8961083" lon="13.19746"><ele>1120.0</ele><time>2026-04-11T09:27:11.815Z</time></trkpt><trkpt lat="41.8962317" lon="13.1974867"><ele>1120.0</ele><time>2026-04-11T09:27:12.812Z</time></trkpt><trkpt lat="41.8963517" lon="13.1975217"><ele>1120.0</ele><time>2026-04-11T09:27:13.812Z</time></trkpt><trkpt lat="41.8964717" lon="13.1975333"><ele>1120.0</ele><time>2026-04-11T09:27:14.811Z</time></trkpt><trkpt lat="41.896585" lon="13.1975217"><ele>1120.0</ele><time>2026-04-11T09:27:15.811Z</time></trkpt><trkpt lat="41.8966967" lon="13.19748"><ele>1120.0</ele><time>2026-04-11T09:27:16.81Z</time></trkpt><trkpt lat="41.8967967" lon="13.1974067"><ele>1120.0</ele><time>2026-04-11T09:27:17.813Z</time></trkpt><trkpt lat="41.8968883" lon="13.1972983"><ele>1122.75</ele><time>2026-04-11T09:27:18.81Z</time></trkpt><trkpt lat="41.8969717" lon="13.1971717"><ele>1125.5</ele><time>2026-04-11T09:27:19.81Z</time></trkpt><trkpt lat="41.897055" lon="13.1970367"><ele>1128.25</ele><time>2026-04-11T09:27:20.811Z</time></trkpt><trkpt lat="41.89715" lon="13.19689"><ele>1131.0</ele><time>2026-04-11T09:27:21.811Z</time></trkpt><trkpt lat="41.8972517" lon="13.1967233"><ele>1131.0</ele><time>2026-04-11T09:27:22.811Z</time></trkpt><trkpt lat="41.8973667" lon="13.1965467"><ele>1131.0</ele><time>2026-04-11T09:27:23.81Z</time></trkpt><trkpt lat="41.8975" lon="13.1963583"><ele>1131.0</ele><time>2026-04-11T09:27:24.809Z</time></trkpt><trkpt lat="41.89764" lon="13.1961767"><ele>1133.3333333333333</ele><time>2026-04-11T09:27:25.809Z</time></trkpt><trkpt lat="41.897795" lon="13.1960067"><ele>1135.6666666666665</ele><time>2026-04-11T09:27:26.811Z</time></trkpt><trkpt lat="41.89796" lon="13.195835"><ele>1138.0</ele><time>2026-04-11T09:27:27.81Z</time></trkpt><trkpt lat="41.8981217" lon="13.1956483"><ele>1142.6666666666665</ele><time>2026-04-11T09:27:28.812Z</time></trkpt><trkpt lat="41.8982733" lon="13.19547"><ele>1147.3333333333333</ele><time>2026-04-11T09:27:29.812Z</time></trkpt><trkpt lat="41.8984067" lon="13.1953"><ele>1152.0</ele><time>2026-04-11T09:27:30.813Z</time></trkpt><trkpt lat="41.8985267" lon="13.1951367"><ele>1152.0</ele><time>2026-04-11T09:27:31.814Z</time></trkpt><trkpt lat="41.8986283" lon="13.19496"><ele>1152.0</ele><time>2026-04-11T09:27:32.81Z</time></trkpt><trkpt lat="41.898715" lon="13.1947767"><ele>1152.0</ele><time>2026-04-11T09:27:33.812Z</time></trkpt><trkpt lat="41.898785" lon="13.1945867"><ele>1154.75</ele><time>2026-04-11T09:27:34.815Z</time></trkpt><trkpt lat="41.8988467" lon="13.1944117"><ele>1157.5</ele><time>2026-04-11T09:27:35.815Z</time></trkpt><trkpt lat="41.8989083" lon="13.194265"><ele>1160.25</ele><time>2026-04-11T09:27:36.812Z</time></trkpt><trkpt lat="41.898975" lon="13.1941417"><ele>1163.0</ele><time>2026-04-11T09:27:37.813Z</time></trkpt><trkpt lat="41.8990317" lon="13.1940183"><ele>1165.6</ele><time>2026-04-11T09:27:38.813Z</time></trkpt><trkpt lat="41.8991017" lon="13.1939033"><ele>1168.1999999999998</ele><time>2026-04-11T09:27:39.814Z</time></trkpt><trkpt lat="41.89918" lon="13.1938017"><ele>1170.8</ele><time>2026-04-11T09:27:40.814Z</time></trkpt><trkpt lat="41.8992633" lon="13.1937083"><ele>1173.3999999999999</ele><time>2026-04-11T09:27:41.813Z</time></trkpt><trkpt lat="41.8993567" lon="13.1936333"><ele>1176.0</ele><time>2026-04-11T09:27:42.813Z</time></trkpt><trkpt lat="41.89945" lon="13.19356"><ele>1176.0</ele><time>2026-04-11T09:27:43.813Z</time></trkpt><trkpt lat="41.8995467" lon="13.1934933"><ele>1176.0</ele><time>2026-04-11T09:27:44.813Z</time></trkpt><trkpt lat="41.89964" lon="13.19343"><ele>1176.0</ele><time>2026-04-11T09:27:45.813Z</time></trkpt><trkpt lat="41.8997367" lon="13.19337"><ele>1176.0</ele><time>2026-04-11T09:27:46.813Z</time></trkpt><trkpt lat="41.89983" lon="13.1933183"><ele>1176.0</ele><time>2026-04-11T09:27:47.813Z</time></trkpt><trkpt lat="41.8999267" lon="13.1932817"><ele>1176.0</ele><time>2026-04-11T09:27:48.81Z</time></trkpt><trkpt lat="41.9000267" lon="13.1932583"><ele>1176.0</ele><time>2026-04-11T09:27:49.81Z</time></trkpt><trkpt lat="41.9001333" lon="13.19325"><ele>1176.0</ele><time>2026-04-11T09:27:50.809Z</time></trkpt><trkpt lat="41.9002483" lon="13.1932433"><ele>1176.0</ele><time>2026-04-11T09:27:51.81Z</time></trkpt><trkpt lat="41.9003617" lon="13.1932283"><ele>1176.0</ele><time>2026-04-11T09:27:52.81Z</time></trkpt><trkpt lat="41.9004683" lon="13.1932133"><ele>1179.0</ele><time>2026-04-11T09:27:53.809Z</time></trkpt><trkpt lat="41.9005833" lon="13.193185"><ele>1182.0</ele><time>2026-04-11T09:27:54.81Z</time></trkpt><trkpt lat="41.9007083" lon="13.1931567"><ele>1185.0</ele><time>2026-04-11T09:27:55.81Z</time></trkpt><trkpt lat="41.900835" lon="13.19313"><ele>1188.0</ele><time>2026-04-11T09:27:56.811Z</time></trkpt><trkpt lat="41.9009533" lon="13.1931067"><ele>1189.6666666666667</ele><time>2026-04-11T09:27:57.809Z</time></trkpt><trkpt lat="41.9010567" lon="13.1930917"><ele>1191.3333333333333</ele><time>2026-04-11T09:27:58.81Z</time></trkpt><trkpt lat="41.90115" lon="13.1930783"><ele>1193.0</ele><time>2026-04-11T09:27:59.813Z</time></trkpt><trkpt lat="41.9012367" lon="13.1930733"><ele>1194.6666666666665</ele><time>2026-04-11T09:28:00.812Z</time></trkpt><trkpt lat="41.901315" lon="13.1930767"><ele>1196.3333333333333</ele><time>2026-04-11T09:28:01.813Z</time></trkpt><trkpt lat="41.9013783" lon="13.1930967"><ele>1198.0</ele><time>2026-04-11T09:28:02.813Z</time></trkpt><trkpt lat="41.90143" lon="13.1932"><ele>1198.0</ele><time>2026-04-11T09:28:04.813Z</time></trkpt><trkpt lat="41.9013917" lon="13.1933067"><ele>1198.0</ele><time>2026-04-11T09:28:05.813Z</time></trkpt><trkpt lat="41.901345" lon="13.19339"><ele>1198.0</ele><time>2026-04-11T09:28:06.811Z</time></trkpt><trkpt lat="41.9012867" lon="13.1934617"><ele>1198.0</ele><time>2026-04-11T09:28:07.812Z</time></trkpt><trkpt lat="41.901215" lon="13.1935367"><ele>1198.0</ele><time>2026-04-11T09:28:08.812Z</time></trkpt><trkpt lat="41.90112" lon="13.193615"><ele>1198.0</ele><time>2026-04-11T09:28:09.81Z</time></trkpt><trkpt lat="41.9009767" lon="13.1937383"><ele>1200.3333333333333</ele><time>2026-04-11T09:28:10.812Z</time></trkpt><trkpt lat="41.9008517" lon="13.19386"><ele>1202.6666666666667</ele><time>2026-04-11T09:28:11.809Z</time></trkpt><trkpt lat="41.9007167" lon="13.1940117"><ele>1205.0</ele><time>2026-04-11T09:28:12.81Z</time></trkpt><trkpt lat="41.9005717" lon="13.1941683"><ele>1205.0</ele><time>2026-04-11T09:28:13.81Z</time></trkpt><trkpt lat="41.9004233" lon="13.1943183"><ele>1205.0</ele><time>2026-04-11T09:28:14.813Z</time></trkpt><trkpt lat="41.9002867" lon="13.1944617"><ele>1205.0</ele><time>2026-04-11T09:28:15.809Z</time></trkpt><trkpt lat="41.9001667" lon="13.1946133"><ele>1199.3333333333335</ele><time>2026-04-11T09:28:16.813Z</time></trkpt><trkpt lat="41.9000667" lon="13.1947733"><ele>1193.6666666666667</ele><time>2026-04-11T09:28:17.813Z</time></trkpt><trkpt lat="41.899995" lon="13.1949533"><ele>1188.0</ele><time>2026-04-11T09:28:18.81Z</time></trkpt><trkpt lat="41.8999517" lon="13.1951733"><ele>1188.0</ele><time>2026-04-11T09:28:19.811Z</time></trkpt><trkpt lat="41.899925" lon="13.1954167"><ele>1188.0</ele><time>2026-04-11T09:28:20.81Z</time></trkpt><trkpt lat="41.8998983" lon="13.1956717"><ele>1188.0</ele><time>2026-04-11T09:28:21.81Z</time></trkpt><trkpt lat="41.89987" lon="13.1959367"><ele>1192.0</ele><time>2026-04-11T09:28:22.812Z</time></trkpt><trkpt lat="41.89983" lon="13.19619"><ele>1196.0</ele><time>2026-04-11T09:28:23.811Z</time></trkpt><trkpt lat="41.8997717" lon="13.1964433"><ele>1200.0</ele><time>2026-04-11T09:28:24.814Z</time></trkpt><trkpt lat="41.8997017" lon="13.1967017"><ele>1205.6666666666667</ele><time>2026-04-11T09:28:25.812Z</time></trkpt><trkpt lat="41.8996317" lon="13.196965"><ele>1211.3333333333335</ele><time>2026-04-11T09:28:26.811Z</time></trkpt><trkpt lat="41.8995633" lon="13.19722"><ele>1217.0</ele><time>2026-04-11T09:28:27.814Z</time></trkpt><trkpt lat="41.8995033" lon="13.1974533"><ele>1219.5</ele><time>2026-04-11T09:28:28.811Z</time></trkpt><trkpt lat="41.8994683" lon="13.19765"><ele>1222.0</ele><time>2026-04-11T09:28:29.814Z</time></trkpt><trkpt lat="41.8994567" lon="13.197815"><ele>1224.5</ele><time>2026-04-11T09:28:30.813Z</time></trkpt><trkpt lat="41.8994767" lon="13.1979467"><ele>1227.0</ele><time>2026-04-11T09:28:31.812Z</time></trkpt><trkpt lat="41.899525" lon="13.1980717"><ele>1225.0</ele><time>2026-04-11T09:28:32.812Z</time></trkpt><trkpt lat="41.8996067" lon="13.1981867"><ele>1223.0</ele><time>2026-04-11T09:28:33.818Z</time></trkpt><trkpt lat="41.8997017" lon="13.1983"><ele>1221.0</ele><time>2026-04-11T09:28:34.813Z</time></trkpt><trkpt lat="41.8997967" lon="13.19842"><ele>1219.0</ele><time>2026-04-11T09:28:35.812Z</time></trkpt><trkpt lat="41.8999017" lon="13.1985433"><ele>1219.0</ele><time>2026-04-11T09:28:36.813Z</time></trkpt><trkpt lat="41.9000183" lon="13.19866"><ele>1219.0</ele><time>2026-04-11T09:28:37.813Z</time></trkpt><trkpt lat="41.900145" lon="13.198775"><ele>1219.0</ele><time>2026-04-11T09:28:38.813Z</time></trkpt><trkpt lat="41.900285" lon="13.1988883"><ele>1220.0</ele><time>2026-04-11T09:28:39.813Z</time></trkpt><trkpt lat="41.9004333" lon="13.1990033"><ele>1221.0</ele><time>2026-04-11T09:28:40.813Z</time></trkpt><trkpt lat="41.9005817" lon="13.1991117"><ele>1222.0</ele><time>2026-04-11T09:28:41.812Z</time></trkpt><trkpt lat="41.90072" lon="13.1992083"><ele>1222.0</ele><time>2026-04-11T09:28:42.814Z</time></trkpt><trkpt lat="41.9008533" lon="13.1992933"><ele>1222.0</ele><time>2026-04-11T09:28:43.813Z</time></trkpt><trkpt lat="41.9009917" lon="13.1993583"><ele>1222.0</ele><time>2026-04-11T09:28:44.81Z</time></trkpt><trkpt lat="41.9011233" lon="13.1994133"><ele>1222.0</ele><time>2026-04-11T09:28:45.813Z</time></trkpt><trkpt lat="41.9012467" lon="13.19945"><ele>1226.2</ele><time>2026-04-11T09:28:46.812Z</time></trkpt><trkpt lat="41.9013533" lon="13.1994833"><ele>1230.4</ele><time>2026-04-11T09:28:47.81Z</time></trkpt><trkpt lat="41.9014367" lon="13.19952"><ele>1234.6</ele><time>2026-04-11T09:28:48.81Z</time></trkpt><trkpt lat="41.901515" lon="13.199545"><ele>1238.8</ele><time>2026-04-11T09:28:49.81Z</time></trkpt><trkpt lat="41.9015817" lon="13.1995567"><ele>1243.0</ele><time>2026-04-11T09:28:50.81Z</time></trkpt><trkpt lat="41.9016933" lon="13.19953"><ele>1243.0</ele><time>2026-04-11T09:28:52.812Z</time></trkpt><trkpt lat="41.9016267" lon="13.19937"><ele>1243.0</ele><time>2026-04-11T09:28:55.811Z</time></trkpt><trkpt lat="41.90153" lon="13.1992767"><ele>1243.0</ele><time>2026-04-11T09:28:56.81Z</time></trkpt><trkpt lat="41.9013683" lon="13.1991967"><ele>1243.0</ele><time>2026-04-11T09:28:57.809Z</time></trkpt><trkpt lat="41.9012083" lon="13.19915"><ele>1243.0</ele><time>2026-04-11T09:28:58.81Z</time></trkpt><trkpt lat="41.90107" lon="13.19908"><ele>1243.0</ele><time>2026-04-11T09:28:59.811Z</time></trkpt><trkpt lat="41.9009533" lon="13.1989917"><ele>1243.0</ele><time>2026-04-11T09:29:00.814Z</time></trkpt><trkpt lat="41.9008517" lon="13.1988717"><ele>1243.0</ele><time>2026-04-11T09:29:01.812Z</time></trkpt><trkpt lat="41.9007583" lon="13.1987483"><ele>1244.5</ele><time>2026-04-11T09:29:02.813Z</time></trkpt><trkpt lat="41.9006583" lon="13.1986267"><ele>1246.0</ele><time>2026-04-11T09:29:03.812Z</time></trkpt><trkpt lat="41.9005567" lon="13.1985"><ele>1247.5</ele><time>2026-04-11T09:29:04.81Z</time></trkpt><trkpt lat="41.9004567" lon="13.19836"><ele>1249.0</ele><time>2026-04-11T09:29:05.812Z</time></trkpt><trkpt lat="41.9003717" lon="13.1982033"><ele>1253.75</ele><time>2026-04-11T09:29:06.813Z</time></trkpt><trkpt lat="41.9003" lon="13.1980433"><ele>1258.5</ele><time>2026-04-11T09:29:07.814Z</time></trkpt><trkpt lat="41.90025" lon="13.1978967"><ele>1263.25</ele><time>2026-04-11T09:29:08.813Z</time></trkpt><trkpt lat="41.9002183" lon="13.1977567"><ele>1268.0</ele><time>2026-04-11T09:29:09.81Z</time></trkpt><trkpt lat="41.9002167" lon="13.1976083"><ele>1268.0</ele><time>2026-04-11T09:29:10.814Z</time></trkpt><trkpt lat="41.9002433" lon="13.19745"><ele>1268.0</ele><time>2026-04-11T09:29:11.814Z</time></trkpt><trkpt lat="41.90029" lon="13.197295"><ele>1268.0</ele><time>2026-04-11T09:29:12.813Z</time></trkpt><trkpt lat="41.90035" lon="13.1971433"><ele>1268.0</ele><time>2026-04-11T09:29:13.813Z</time></trkpt><trkpt lat="41.900415" lon="13.1969867"><ele>1266.5</ele><time>2026-04-11T09:29:14.813Z</time></trkpt><trkpt lat="41.9004833" lon="13.1968283"><ele>1265.0</ele><time>2026-04-11T09:29:15.813Z</time></trkpt><trkpt lat="41.9005567" lon="13.196665"><ele>1263.5</ele><time>2026-04-11T09:29:16.813Z</time></trkpt><trkpt lat="41.9006267" lon="13.1965033"><ele>1262.0</ele><time>2026-04-11T09:29:17.812Z</time></trkpt><trkpt lat="41.9006917" lon="13.1963317"><ele>1260.75</ele><time>2026-04-11T09:29:18.811Z</time></trkpt><trkpt lat="41.900755" lon="13.1961533"><ele>1259.5</ele><time>2026-04-11T09:29:19.812Z</time></trkpt><trkpt lat="41.9008183" lon="13.1959733"><ele>1258.25</ele><time>2026-04-11T09:29:20.813Z</time></trkpt><trkpt lat="41.9008883" lon="13.1958017"><ele>1257.0</ele><time>2026-04-11T09:29:21.81Z</time></trkpt><trkpt lat="41.900975" lon="13.1956517"><ele>1257.0</ele><time>2026-04-11T09:29:22.811Z</time></trkpt><trkpt lat="41.90108" lon="13.1955283"><ele>1257.0</ele><time>2026-04-11T09:29:23.812Z</time></trkpt><trkpt lat="41.9011967" lon="13.195415"><ele>1257.0</ele><time>2026-04-11T09:29:24.813Z</time></trkpt><trkpt lat="41.9013383" lon="13.19532"><ele>1257.0</ele><time>2026-04-11T09:29:25.812Z</time></trkpt><trkpt lat="41.901485" lon="13.195225"><ele>1257.0</ele><time>2026-04-11T09:29:26.812Z</time></trkpt><trkpt lat="41.9016283" lon="13.1951283"><ele>1257.0</ele><time>2026-04-11T09:29:27.813Z</time></trkpt><trkpt lat="41.9017667" lon="13.1950367"><ele>1257.0</ele><time>2026-04-11T09:29:28.812Z</time></trkpt><trkpt lat="41.9018967" lon="13.1949533"><ele>1251.75</ele><time>2026-04-11T09:29:29.813Z</time></trkpt><trkpt lat="41.9020267" lon="13.1948833"><ele>1246.5</ele><time>2026-04-11T09:29:30.813Z</time></trkpt><trkpt lat="41.9021683" lon="13.194835"><ele>1241.25</ele><time>2026-04-11T09:29:31.813Z</time></trkpt><trkpt lat="41.9023167" lon="13.19481"><ele>1236.0</ele><time>2026-04-11T09:29:32.813Z</time></trkpt><trkpt lat="41.90246" lon="13.19481"><ele>1235.3999999999999</ele><time>2026-04-11T09:29:33.813Z</time></trkpt><trkpt lat="41.9025817" lon="13.19483"><ele>1234.8</ele><time>2026-04-11T09:29:34.813Z</time></trkpt><trkpt lat="41.9026883" lon="13.1948783"><ele>1234.1999999999998</ele><time>2026-04-11T09:29:35.813Z</time></trkpt><trkpt lat="41.9027867" lon="13.1949317"><ele>1233.6</ele><time>2026-04-11T09:29:36.813Z</time></trkpt><trkpt lat="41.902875" lon="13.195005"><ele>1233.0</ele><time>2026-04-11T09:29:37.814Z</time></trkpt><trkpt lat="41.9029633" lon="13.1950933"><ele>1240.25</ele><time>2026-04-11T09:29:38.812Z</time></trkpt><trkpt lat="41.90305" lon="13.19521"><ele>1247.5</ele><time>2026-04-11T09:29:39.809Z</time></trkpt><trkpt lat="41.90314" lon="13.1953367"><ele>1254.75</ele><time>2026-04-11T09:29:40.81Z</time></trkpt><trkpt lat="41.9032433" lon="13.195465"><ele>1262.0</ele><time>2026-04-11T09:29:41.812Z</time></trkpt><trkpt lat="41.9033717" lon="13.1956233"><ele>1267.6666666666667</ele><time>2026-04-11T09:29:42.814Z</time></trkpt><trkpt lat="41.903515" lon="13.1957533"><ele>1273.3333333333333</ele><time>2026-04-11T09:29:43.814Z</time></trkpt><trkpt lat="41.9036633" lon="13.1958883"><ele>1279.0</ele><time>2026-04-11T09:29:44.812Z</time></trkpt><trkpt lat="41.9038183" lon="13.1960183"><ele>1279.0</ele><time>2026-04-11T09:29:45.813Z</time></trkpt><trkpt lat="41.9039683" lon="13.1961533"><ele>1279.0</ele><time>2026-04-11T09:29:46.812Z</time></trkpt><trkpt lat="41.904105" lon="13.1962667"><ele>1279.0</ele><time>2026-04-11T09:29:47.81Z</time></trkpt><trkpt lat="41.904245" lon="13.196365"><ele>1276.6666666666665</ele><time>2026-04-11T09:29:48.813Z</time></trkpt><trkpt lat="41.9043933" lon="13.196455"><ele>1274.3333333333333</ele><time>2026-04-11T09:29:49.812Z</time></trkpt><trkpt lat="41.9045483" lon="13.19653"><ele>1272.0</ele><time>2026-04-11T09:29:50.811Z</time></trkpt><trkpt lat="41.9047117" lon="13.1966017"><ele>1283.0</ele><time>2026-04-11T09:29:51.811Z</time></trkpt><trkpt lat="41.90489" lon="13.19666"><ele>1294.0</ele><time>2026-04-11T09:29:52.811Z</time></trkpt><trkpt lat="41.9050867" lon="13.1966833"><ele>1305.0</ele><time>2026-04-11T09:29:53.811Z</time></trkpt><trkpt lat="41.9052817" lon="13.1967017"><ele>1306.3333333333333</ele><time>2026-04-11T09:29:54.813Z</time></trkpt><trkpt lat="41.905465" lon="13.1967233"><ele>1307.6666666666665</ele><time>2026-04-11T09:29:55.813Z</time></trkpt><trkpt lat="41.9056333" lon="13.1967383"><ele>1309.0</ele><time>2026-04-11T09:29:56.814Z</time></trkpt><trkpt lat="41.905785" lon="13.1967567"><ele>1313.0</ele><time>2026-04-11T09:29:57.813Z</time></trkpt><trkpt lat="41.9059267" lon="13.1967767"><ele>1317.0</ele><time>2026-04-11T09:29:58.81Z</time></trkpt><trkpt lat="41.9060683" lon="13.196775"><ele>1321.0</ele><time>2026-04-11T09:29:59.813Z</time></trkpt><trkpt lat="41.9062117" lon="13.196745"><ele>1325.0</ele><time>2026-04-11T09:30:00.813Z</time></trkpt><trkpt lat="41.9063533" lon="13.1967083"><ele>1325.0</ele><time>2026-04-11T09:30:01.813Z</time></trkpt><trkpt lat="41.906485" lon="13.196635"><ele>1325.0</ele><time>2026-04-11T09:30:02.809Z</time></trkpt><trkpt lat="41.9066233" lon="13.1965683"><ele>1325.0</ele><time>2026-04-11T09:30:03.81Z</time></trkpt><trkpt lat="41.906765" lon="13.196505"><ele>1325.0</ele><time>2026-04-11T09:30:04.81Z</time></trkpt><trkpt lat="41.9069217" lon="13.19643"><ele>1320.0</ele><time>2026-04-11T09:30:05.814Z</time></trkpt><trkpt lat="41.9070817" lon="13.1963783"><ele>1315.0</ele><time>2026-04-11T09:30:06.81Z</time></trkpt><trkpt lat="41.9072333" lon="13.1963233"><ele>1310.0</ele><time>2026-04-11T09:30:07.813Z</time></trkpt><trkpt lat="41.9073933" lon="13.1962917"><ele>1310.0</ele><time>2026-04-11T09:30:08.813Z</time></trkpt><trkpt lat="41.9075417" lon="13.196275"><ele>1310.0</ele><time>2026-04-11T09:30:09.81Z</time></trkpt><trkpt lat="41.9076817" lon="13.1962867"><ele>1310.0</ele><time>2026-04-11T09:30:10.811Z</time></trkpt><trkpt lat="41.9078167" lon="13.1963217"><ele>1310.0</ele><time>2026-04-11T09:30:11.81Z</time></trkpt><trkpt lat="41.9079433" lon="13.196375"><ele>1312.2</ele><time>2026-04-11T09:30:12.815Z</time></trkpt><trkpt lat="41.9080567" lon="13.19644"><ele>1314.4</ele><time>2026-04-11T09:30:13.813Z</time></trkpt><trkpt lat="41.90815" lon="13.196505"><ele>1316.6</ele><time>2026-04-11T09:30:14.81Z</time></trkpt><trkpt lat="41.90823" lon="13.1965617"><ele>1318.8</ele><time>2026-04-11T09:30:15.811Z</time></trkpt><trkpt lat="41.9082967" lon="13.196595"><ele>1321.0</ele><time>2026-04-11T09:30:16.811Z</time></trkpt><trkpt lat="41.9083583" lon="13.19663"><ele>1324.5</ele><time>2026-04-11T09:30:17.811Z</time></trkpt><trkpt lat="41.908455" lon="13.1965917"><ele>1328.0</ele><time>2026-04-11T09:30:19.811Z</time></trkpt><trkpt lat="41.9084767" lon="13.1964"><ele>1331.5</ele><time>2026-04-11T09:30:20.811Z</time></trkpt><trkpt lat="41.9085483" lon="13.1962567"><ele>1335.0</ele><time>2026-04-11T09:30:21.81Z</time></trkpt><trkpt lat="41.9086533" lon="13.1961033"><ele>1335.0</ele><time>2026-04-11T09:30:22.812Z</time></trkpt><trkpt lat="41.9087733" lon="13.19598"><ele>1335.0</ele><time>2026-04-11T09:30:23.811Z</time></trkpt><trkpt lat="41.9088917" lon="13.195935"><ele>1335.0</ele><time>2026-04-11T09:30:24.812Z</time></trkpt><trkpt lat="41.9089967" lon="13.1959233"><ele>1335.0</ele><time>2026-04-11T09:30:25.813Z</time></trkpt><trkpt lat="41.9090883" lon="13.1959667"><ele>1335.0</ele><time>2026-04-11T09:30:26.813Z</time></trkpt><trkpt lat="41.9091683" lon="13.196055"><ele>1335.0</ele><time>2026-04-11T09:30:27.813Z</time></trkpt><trkpt lat="41.9092333" lon="13.1961433"><ele>1335.0</ele><time>2026-04-11T09:30:28.815Z</time></trkpt><trkpt lat="41.9092933" lon="13.196235"><ele>1335.0</ele><time>2026-04-11T09:30:29.811Z</time></trkpt><trkpt lat="41.9093617" lon="13.1962933"><ele>1335.0</ele><time>2026-04-11T09:30:30.811Z</time></trkpt><trkpt lat="41.90943" lon="13.19634"><ele>1335.0</ele><time>2026-04-11T09:30:31.811Z</time></trkpt><trkpt lat="41.9095" lon="13.1963667"><ele>1337.8</ele><time>2026-04-11T09:30:32.812Z</time></trkpt><trkpt lat="41.9095667" lon="13.1963683"><ele>1340.6</ele><time>2026-04-11T09:30:33.811Z</time></trkpt><trkpt lat="41.909675" lon="13.1962683"><ele>1343.4</ele><time>2026-04-11T09:30:35.811Z</time></trkpt><trkpt lat="41.90971" lon="13.196135"><ele>1346.2</ele><time>2026-04-11T09:30:36.812Z</time></trkpt><trkpt lat="41.9097883" lon="13.1960067"><ele>1349.0</ele><time>2026-04-11T09:30:37.811Z</time></trkpt><trkpt lat="41.9098767" lon="13.1959"><ele>1349.0</ele><time>2026-04-11T09:30:38.814Z</time></trkpt><trkpt lat="41.909975" lon="13.1958317"><ele>1349.0</ele><time>2026-04-11T09:30:39.81Z</time></trkpt><trkpt lat="41.9101633" lon="13.19571"><ele>1349.0</ele><time>2026-04-11T09:30:40.811Z</time></trkpt><trkpt lat="41.9103083" lon="13.1956667"><ele>1349.3333333333335</ele><time>2026-04-11T09:30:41.811Z</time></trkpt><trkpt lat="41.91045" lon="13.1956267"><ele>1349.6666666666667</ele><time>2026-04-11T09:30:42.814Z</time></trkpt><trkpt lat="41.9106133" lon="13.19557"><ele>1350.0</ele><time>2026-04-11T09:30:43.813Z</time></trkpt><trkpt lat="41.9107717" lon="13.1954933"><ele>1356.6666666666667</ele><time>2026-04-11T09:30:44.812Z</time></trkpt><trkpt lat="41.9109283" lon="13.1953867"><ele>1363.3333333333335</ele><time>2026-04-11T09:30:45.812Z</time></trkpt><trkpt lat="41.9110767" lon="13.1952483"><ele>1370.0</ele><time>2026-04-11T09:30:46.814Z</time></trkpt><trkpt lat="41.911225" lon="13.1950917"><ele>1370.0</ele><time>2026-04-11T09:30:47.813Z</time></trkpt><trkpt lat="41.91139" lon="13.19493"><ele>1370.0</ele><time>2026-04-11T09:30:48.81Z</time></trkpt><trkpt lat="41.9115583" lon="13.1947783"><ele>1370.0</ele><time>2026-04-11T09:30:49.812Z</time></trkpt><trkpt lat="41.911735" lon="13.1946367"><ele>1369.3333333333335</ele><time>2026-04-11T09:30:50.812Z</time></trkpt><trkpt lat="41.9119033" lon="13.194505"><ele>1368.6666666666667</ele><time>2026-04-11T09:30:51.813Z</time></trkpt><trkpt lat="41.9120617" lon="13.19436"><ele>1368.0</ele><time>2026-04-11T09:30:52.812Z</time></trkpt><trkpt lat="41.912205" lon="13.1942383"><ele>1368.0</ele><time>2026-04-11T09:30:53.813Z</time></trkpt><trkpt lat="41.9123467" lon="13.1941483"><ele>1368.0</ele><time>2026-04-11T09:30:54.813Z</time></trkpt><trkpt lat="41.912495" lon="13.19409"><ele>1368.0</ele><time>2026-04-11T09:30:55.813Z</time></trkpt><trkpt lat="41.9126433" lon="13.19405"><ele>1371.75</ele><time>2026-04-11T09:30:56.813Z</time></trkpt><trkpt lat="41.9127717" lon="13.194005"><ele>1375.5</ele><time>2026-04-11T09:30:57.812Z</time></trkpt><trkpt lat="41.9128767" lon="13.193945"><ele>1379.25</ele><time>2026-04-11T09:30:58.813Z</time></trkpt><trkpt lat="41.9129633" lon="13.1938583"><ele>1383.0</ele><time>2026-04-11T09:30:59.813Z</time></trkpt><trkpt lat="41.9130233" lon="13.1937317"><ele>1383.0</ele><time>2026-04-11T09:31:00.813Z</time></trkpt><trkpt lat="41.9130583" lon="13.1935683"><ele>1383.0</ele><time>2026-04-11T09:31:01.813Z</time></trkpt><trkpt lat="41.9130633" lon="13.1933617"><ele>1383.0</ele><time>2026-04-11T09:31:02.813Z</time></trkpt><trkpt lat="41.9130767" lon="13.19316"><ele>1383.0</ele><time>2026-04-11T09:31:03.814Z</time></trkpt><trkpt lat="41.9131033" lon="13.1929817"><ele>1381.0</ele><time>2026-04-11T09:31:04.814Z</time></trkpt><trkpt lat="41.9131467" lon="13.1928217"><ele>1379.0</ele><time>2026-04-11T09:31:05.81Z</time></trkpt><trkpt lat="41.91322" lon="13.192675"><ele>1377.0</ele><time>2026-04-11T09:31:06.81Z</time></trkpt><trkpt lat="41.91331" lon="13.1925267"><ele>1375.0</ele><time>2026-04-11T09:31:07.812Z</time></trkpt><trkpt lat="41.9133933" lon="13.1923633"><ele>1379.25</ele><time>2026-04-11T09:31:08.809Z</time></trkpt><trkpt lat="41.913465" lon="13.1922033"><ele>1383.5</ele><time>2026-04-11T09:31:09.81Z</time></trkpt><trkpt lat="41.9135383" lon="13.1920533"><ele>1387.75</ele><time>2026-04-11T09:31:10.813Z</time></trkpt><trkpt lat="41.9136183" lon="13.1919183"><ele>1392.0</ele><time>2026-04-11T09:31:11.813Z</time></trkpt><trkpt lat="41.913715" lon="13.1918183"><ele>1392.0</ele><time>2026-04-11T09:31:12.815Z</time></trkpt><trkpt lat="41.913825" lon="13.1917583"><ele>1392.0</ele><time>2026-04-11T09:31:13.813Z</time></trkpt><trkpt lat="41.9139567" lon="13.1917283"><ele>1392.0</ele><time>2026-04-11T09:31:14.817Z</time></trkpt><trkpt lat="41.9140983" lon="13.1917117"><ele>1392.0</ele><time>2026-04-11T09:31:15.812Z</time></trkpt><trkpt lat="41.9142483" lon="13.1916917"><ele>1393.0</ele><time>2026-04-11T09:31:16.809Z</time></trkpt><trkpt lat="41.91439" lon="13.1916633"><ele>1394.0</ele><time>2026-04-11T09:31:17.812Z</time></trkpt><trkpt lat="41.914505" lon="13.1916317"><ele>1395.0</ele><time>2026-04-11T09:31:18.811Z</time></trkpt><trkpt lat="41.9145983" lon="13.1915917"><ele>1396.0</ele><time>2026-04-11T09:31:19.81Z</time></trkpt><trkpt lat="41.91466" lon="13.1915533"><ele>1397.0</ele><time>2026-04-11T09:31:20.809Z</time></trkpt><trkpt lat="41.9147117" lon="13.191485"><ele>1397.0</ele><time>2026-04-11T09:31:21.809Z</time></trkpt><trkpt lat="41.9147267" lon="13.1913033"><ele>1397.0</ele><time>2026-04-11T09:31:23.811Z</time></trkpt><trkpt lat="41.9146983" lon="13.1911767"><ele>1397.0</ele><time>2026-04-11T09:31:24.811Z</time></trkpt><trkpt lat="41.914615" lon="13.1910233"><ele>1397.0</ele><time>2026-04-11T09:31:25.81Z</time></trkpt><trkpt lat="41.9144767" lon="13.1909267"><ele>1397.0</ele><time>2026-04-11T09:31:26.812Z</time></trkpt><trkpt lat="41.9143983" lon="13.19083"><ele>1397.0</ele><time>2026-04-11T09:31:27.81Z</time></trkpt><trkpt lat="41.9143167" lon="13.19076"><ele>1397.0</ele><time>2026-04-11T09:31:28.81Z</time></trkpt><trkpt lat="41.9142417" lon="13.1906967"><ele>1397.0</ele><time>2026-04-11T09:31:29.809Z</time></trkpt><trkpt lat="41.914425" lon="13.190735"><ele>1397.0</ele><time>2026-04-11T09:31:35.811Z</time></trkpt><trkpt lat="41.9145617" lon="13.1908067"><ele>1397.0</ele><time>2026-04-11T09:31:36.81Z</time></trkpt><trkpt lat="41.9147383" lon="13.19085"><ele>1397.0</ele><time>2026-04-11T09:31:37.81Z</time></trkpt><trkpt lat="41.91482" lon="13.1908683"><ele>1397.0</ele><time>2026-04-11T09:31:38.81Z</time></trkpt><trkpt lat="41.9149367" lon="13.1908567"><ele>1397.0</ele><time>2026-04-11T09:31:39.81Z</time></trkpt><trkpt lat="41.9150367" lon="13.190845"><ele>1397.0</ele><time>2026-04-11T09:31:40.81Z</time></trkpt><trkpt lat="41.915145" lon="13.1908267"><ele>1397.0</ele><time>2026-04-11T09:31:41.811Z</time></trkpt><trkpt lat="41.9152433" lon="13.19074"><ele>1397.0</ele><time>2026-04-11T09:31:42.81Z</time></trkpt><trkpt lat="41.91532" lon="13.1906733"><ele>1397.0</ele><time>2026-04-11T09:31:43.815Z</time></trkpt><trkpt lat="41.9153683" lon="13.1905183"><ele>1402.6666666666667</ele><time>2026-04-11T09:31:44.811Z</time></trkpt><trkpt lat="41.9153767" lon="13.1902667"><ele>1408.3333333333333</ele><time>2026-04-11T09:31:45.81Z</time></trkpt><trkpt lat="41.9153417" lon="13.1900333"><ele>1414.0</ele><time>2026-04-11T09:31:46.81Z</time></trkpt><trkpt lat="41.9153633" lon="13.1898533"><ele>1413.25</ele><time>2026-04-11T09:31:47.809Z</time></trkpt><trkpt lat="41.91541" lon="13.1896933"><ele>1412.5</ele><time>2026-04-11T09:31:48.814Z</time></trkpt><trkpt lat="41.9154617" lon="13.1895267"><ele>1411.75</ele><time>2026-04-11T09:31:49.813Z</time></trkpt><trkpt lat="41.9155333" lon="13.189335"><ele>1411.0</ele><time>2026-04-11T09:31:50.81Z</time></trkpt><trkpt lat="41.9156067" lon="13.1891383"><ele>1408.6666666666665</ele><time>2026-04-11T09:31:51.812Z</time></trkpt><trkpt lat="41.9156933" lon="13.1889283"><ele>1406.3333333333333</ele><time>2026-04-11T09:31:52.813Z</time></trkpt><trkpt lat="41.9157817" lon="13.188725"><ele>1404.0</ele><time>2026-04-11T09:31:53.812Z</time></trkpt><trkpt lat="41.9158567" lon="13.1885217"><ele>1410.0</ele><time>2026-04-11T09:31:54.811Z</time></trkpt><trkpt lat="41.915935" lon="13.188315"><ele>1416.0</ele><time>2026-04-11T09:31:55.811Z</time></trkpt><trkpt lat="41.9160167" lon="13.1881183"><ele>1422.0</ele><time>2026-04-11T09:31:56.813Z</time></trkpt><trkpt lat="41.916105" lon="13.187945"><ele>1422.0</ele><time>2026-04-11T09:31:57.81Z</time></trkpt><trkpt lat="41.9161917" lon="13.1877683"><ele>1422.0</ele><time>2026-04-11T09:31:58.81Z</time></trkpt><trkpt lat="41.916265" lon="13.1875917"><ele>1422.0</ele><time>2026-04-11T09:31:59.81Z</time></trkpt><trkpt lat="41.9163283" lon="13.1874017"><ele>1420.5</ele><time>2026-04-11T09:32:00.81Z</time></trkpt><trkpt lat="41.9163717" lon="13.18722"><ele>1419.0</ele><time>2026-04-11T09:32:01.811Z</time></trkpt><trkpt lat="41.9164133" lon="13.1870583"><ele>1417.5</ele><time>2026-04-11T09:32:02.81Z</time></trkpt><trkpt lat="41.91644" lon="13.1869083"><ele>1416.0</ele><time>2026-04-11T09:32:03.81Z</time></trkpt><trkpt lat="41.9164617" lon="13.186775"><ele>1416.0</ele><time>2026-04-11T09:32:04.81Z</time></trkpt><trkpt lat="41.9164717" lon="13.1866467"><ele>1416.0</ele><time>2026-04-11T09:32:05.809Z</time></trkpt><trkpt lat="41.9164717" lon="13.1865233"><ele>1416.0</ele><time>2026-04-11T09:32:06.809Z</time></trkpt><trkpt lat="41.9164383" lon="13.18639"><ele>1416.0</ele><time>2026-04-11T09:32:07.81Z</time></trkpt><trkpt lat="41.9163983" lon="13.1862617"><ele>1416.0</ele><time>2026-04-11T09:32:08.815Z</time></trkpt><trkpt lat="41.9163617" lon="13.1861383"><ele>1415.8</ele><time>2026-04-11T09:32:09.81Z</time></trkpt><trkpt lat="41.9163533" lon="13.1860083"><ele>1415.6</ele><time>2026-04-11T09:32:10.81Z</time></trkpt><trkpt lat="41.916355" lon="13.18588"><ele>1415.4</ele><time>2026-04-11T09:32:11.809Z</time></trkpt><trkpt lat="41.916405" lon="13.1857717"><ele>1415.2</ele><time>2026-04-11T09:32:12.81Z</time></trkpt><trkpt lat="41.9164583" lon="13.18567"><ele>1415.0</ele><time>2026-04-11T09:32:13.81Z</time></trkpt><trkpt lat="41.9165317" lon="13.185585"><ele>1415.5</ele><time>2026-04-11T09:32:14.811Z</time></trkpt><trkpt lat="41.9166133" lon="13.1855"><ele>1416.0</ele><time>2026-04-11T09:32:15.813Z</time></trkpt><trkpt lat="41.916685" lon="13.185395"><ele>1416.5</ele><time>2026-04-11T09:32:16.813Z</time></trkpt><trkpt lat="41.9167683" lon="13.1852633"><ele>1417.0</ele><time>2026-04-11T09:32:17.81Z</time></trkpt><trkpt lat="41.9168467" lon="13.1851533"><ele>1416.25</ele><time>2026-04-11T09:32:18.811Z</time></trkpt><trkpt lat="41.9169283" lon="13.185035"><ele>1415.5</ele><time>2026-04-11T09:32:19.811Z</time></trkpt><trkpt lat="41.9170083" lon="13.1849283"><ele>1414.75</ele><time>2026-04-11T09:32:20.812Z</time></trkpt><trkpt lat="41.9171033" lon="13.1848217"><ele>1414.0</ele><time>2026-04-11T09:32:21.809Z</time></trkpt><trkpt lat="41.91719" lon="13.1847083"><ele>1414.0</ele><time>2026-04-11T09:32:22.81Z</time></trkpt><trkpt lat="41.917265" lon="13.1845733"><ele>1414.0</ele><time>2026-04-11T09:32:23.809Z</time></trkpt><trkpt lat="41.9173333" lon="13.1844283"><ele>1414.0</ele><time>2026-04-11T09:32:24.813Z</time></trkpt><trkpt lat="41.91739" lon="13.1842883"><ele>1414.0</ele><time>2026-04-11T09:32:25.811Z</time></trkpt><trkpt lat="41.9174317" lon="13.18413"><ele>1412.75</ele><time>2026-04-11T09:32:26.809Z</time></trkpt><trkpt lat="41.9174783" lon="13.1839633"><ele>1411.5</ele><time>2026-04-11T09:32:27.809Z</time></trkpt><trkpt lat="41.9175233" lon="13.1837967"><ele>1410.25</ele><time>2026-04-11T09:32:28.816Z</time></trkpt><trkpt lat="41.9175883" lon="13.1836467"><ele>1409.0</ele><time>2026-04-11T09:32:29.813Z</time></trkpt><trkpt lat="41.917655" lon="13.1834983"><ele>1409.0</ele><time>2026-04-11T09:32:30.81Z</time></trkpt><trkpt lat="41.91772" lon="13.183345"><ele>1409.0</ele><time>2026-04-11T09:32:31.809Z</time></trkpt><trkpt lat="41.9177767" lon="13.18319"><ele>1409.0</ele><time>2026-04-11T09:32:32.81Z</time></trkpt><trkpt lat="41.91782" lon="13.183045"><ele>1409.0</ele><time>2026-04-11T09:32:33.809Z</time></trkpt><trkpt lat="41.91786" lon="13.1828933"><ele>1409.75</ele><time>2026-04-11T09:32:34.81Z</time></trkpt><trkpt lat="41.9178983" lon="13.1827383"><ele>1410.5</ele><time>2026-04-11T09:32:35.809Z</time></trkpt><trkpt lat="41.917955" lon="13.1825817"><ele>1411.25</ele><time>2026-04-11T09:32:36.813Z</time></trkpt><trkpt lat="41.9179983" lon="13.182455"><ele>1412.0</ele><time>2026-04-11T09:32:37.81Z</time></trkpt><trkpt lat="41.918055" lon="13.1823317"><ele>1413.3999999999999</ele><time>2026-04-11T09:32:38.811Z</time></trkpt><trkpt lat="41.91812" lon="13.182215"><ele>1414.8</ele><time>2026-04-11T09:32:39.81Z</time></trkpt><trkpt lat="41.9181783" lon="13.1820917"><ele>1416.2</ele><time>2026-04-11T09:32:40.811Z</time></trkpt><trkpt lat="41.9182467" lon="13.1819633"><ele>1417.6</ele><time>2026-04-11T09:32:41.81Z</time></trkpt><trkpt lat="41.9183067" lon="13.1818317"><ele>1419.0</ele><time>2026-04-11T09:32:42.811Z</time></trkpt><trkpt lat="41.918365" lon="13.1816917"><ele>1418.5</ele><time>2026-04-11T09:32:43.81Z</time></trkpt><trkpt lat="41.91843" lon="13.1815433"><ele>1418.0</ele><time>2026-04-11T09:32:44.81Z</time></trkpt><trkpt lat="41.9185067" lon="13.1813933"><ele>1417.5</ele><time>2026-04-11T09:32:45.809Z</time></trkpt><trkpt lat="41.91859" lon="13.1812567"><ele>1417.0</ele><time>2026-04-11T09:32:46.81Z</time></trkpt><trkpt lat="41.91869" lon="13.18112"><ele>1417.0</ele><time>2026-04-11T09:32:47.81Z</time></trkpt><trkpt lat="41.9188017" lon="13.18099"><ele>1417.0</ele><time>2026-04-11T09:32:48.809Z</time></trkpt><trkpt lat="41.918935" lon="13.1808433"><ele>1417.0</ele><time>2026-04-11T09:32:49.81Z</time></trkpt><trkpt lat="41.9190817" lon="13.1806817"><ele>1418.0</ele><time>2026-04-11T09:32:50.811Z</time></trkpt><trkpt lat="41.9192233" lon="13.1805183"><ele>1419.0</ele><time>2026-04-11T09:32:51.811Z</time></trkpt><trkpt lat="41.91937" lon="13.1803583"><ele>1420.0</ele><time>2026-04-11T09:32:52.81Z</time></trkpt><trkpt lat="41.9195083" lon="13.1802067"><ele>1417.6666666666665</ele><time>2026-04-11T09:32:53.81Z</time></trkpt><trkpt lat="41.9196383" lon="13.18006"><ele>1415.3333333333333</ele><time>2026-04-11T09:32:54.81Z</time></trkpt><trkpt lat="41.9197517" lon="13.1799283"><ele>1413.0</ele><time>2026-04-11T09:32:55.809Z</time></trkpt><trkpt lat="41.9198933" lon="13.179795"><ele>1411.75</ele><time>2026-04-11T09:32:56.814Z</time></trkpt><trkpt lat="41.9200117" lon="13.17969"><ele>1410.5</ele><time>2026-04-11T09:32:57.812Z</time></trkpt><trkpt lat="41.920125" lon="13.179595"><ele>1409.25</ele><time>2026-04-11T09:32:58.81Z</time></trkpt><trkpt lat="41.9202283" lon="13.1795133"><ele>1408.0</ele><time>2026-04-11T09:32:59.815Z</time></trkpt><trkpt lat="41.9203217" lon="13.17945"><ele>1406.6666666666665</ele><time>2026-04-11T09:33:00.81Z</time></trkpt><trkpt lat="41.9204067" lon="13.1794"><ele>1405.3333333333333</ele><time>2026-04-11T09:33:01.811Z</time></trkpt><trkpt lat="41.9204767" lon="13.179375"><ele>1404.0</ele><time>2026-04-11T09:33:02.812Z</time></trkpt><trkpt lat="41.92058" lon="13.179365"><ele>1402.6666666666667</ele><time>2026-04-11T09:33:04.81Z</time></trkpt><trkpt lat="41.92065" lon="13.17939"><ele>1401.3333333333335</ele><time>2026-04-11T09:33:06.81Z</time></trkpt><trkpt lat="41.92072" lon="13.179355"><ele>1400.0</ele><time>2026-04-11T09:36:19.814Z</time></trkpt><trkpt lat="41.92067" lon="13.1792917"><ele>1400.0</ele><time>2026-04-11T09:37:55.812Z</time></trkpt><trkpt lat="41.9206083" lon="13.17921"><ele>1400.0</ele><time>2026-04-11T09:38:04.814Z</time></trkpt><trkpt lat="41.9205896" lon="13.1791266"><ele>1400.0</ele><time>2026-04-11T09:38:13.815Z</time></trkpt><trkpt lat="41.9206433" lon="13.1791997"><ele>1400.0</ele><time>2026-04-11T09:38:54.813Z</time></trkpt><trkpt lat="41.9206865" lon="13.1792822"><ele>1400.0</ele><time>2026-04-11T09:39:21.814Z</time></trkpt><trkpt lat="41.9206738" lon="13.1793725"><ele>1400.0</ele><time>2026-04-11T09:39:27.814Z</time></trkpt><trkpt lat="41.9206998" lon="13.1792903"><ele>1400.0</ele><time>2026-04-11T09:39:56.814Z</time></trkpt><trkpt lat="41.9206646" lon="13.1792097"><ele>1400.0</ele><time>2026-04-11T09:40:02.816Z</time></trkpt><trkpt lat="41.9206517" lon="13.1791124"><ele>1400.0</ele><time>2026-04-11T09:40:08.815Z</time></trkpt><trkpt lat="41.9206652" lon="13.179013"><ele>1400.0</ele><time>2026-04-11T09:40:13.815Z</time></trkpt><trkpt lat="41.9206851" lon="13.1789224"><ele>1400.0</ele><time>2026-04-11T09:40:18.812Z</time></trkpt><trkpt lat="41.9207774" lon="13.1789139"><ele>1400.0</ele><time>2026-04-11T09:40:49.814Z</time></trkpt><trkpt lat="41.9208162" lon="13.1790004"><ele>1400.0</ele><time>2026-04-11T09:40:54.814Z</time></trkpt><trkpt lat="41.9208253" lon="13.1790855"><ele>1400.0</ele><time>2026-04-11T09:41:00.815Z</time></trkpt><trkpt lat="41.9208084" lon="13.1791704"><ele>1400.0</ele><time>2026-04-11T09:41:04.816Z</time></trkpt><trkpt lat="41.9208111" lon="13.1792553"><ele>1400.0</ele><time>2026-04-11T09:41:08.813Z</time></trkpt><trkpt lat="41.920872" lon="13.1793145"><ele>1400.0</ele><time>2026-04-11T09:41:15.816Z</time></trkpt><trkpt lat="41.920957" lon="13.1793727"><ele>1400.0</ele><time>2026-04-11T09:41:38.812Z</time></trkpt><trkpt lat="41.9210497" lon="13.1794159"><ele>1400.0</ele><time>2026-04-11T09:42:04.814Z</time></trkpt><trkpt lat="41.9211161" lon="13.17942"><ele>1400.0</ele><time>2026-04-11T09:42:07.816Z</time></trkpt><trkpt lat="41.9211837" lon="13.179452"><ele>1400.0</ele><time>2026-04-11T09:42:13.814Z</time></trkpt><trkpt lat="41.9212322" lon="13.1795153"><ele>1400.0</ele><time>2026-04-11T09:42:19.816Z</time></trkpt><trkpt lat="41.9212866" lon="13.1795637"><ele>1400.0</ele><time>2026-04-11T09:42:30.816Z</time></trkpt><trkpt lat="41.9213773" lon="13.1796814"><ele>1400.0</ele><time>2026-04-11T09:42:48.814Z</time></trkpt><trkpt lat="41.9214606" lon="13.1798103"><ele>1400.0</ele><time>2026-04-11T09:44:21.814Z</time></trkpt><trkpt lat="41.921393" lon="13.1798365"><ele>1400.0</ele><time>2026-04-11T09:46:24.813Z</time></trkpt><trkpt lat="41.9213306" lon="13.1797603"><ele>1400.0</ele><time>2026-04-11T09:46:33.815Z</time></trkpt><trkpt lat="41.921286" lon="13.1796966"><ele>1400.0</ele><time>2026-04-11T09:46:37.816Z</time></trkpt><trkpt lat="41.9212314" lon="13.1796372"><ele>1400.0</ele><time>2026-04-11T09:46:44.815Z</time></trkpt><trkpt lat="41.9211792" lon="13.1795692"><ele>1400.0</ele><time>2026-04-11T09:46:51.814Z</time></trkpt><trkpt lat="41.9211145" lon="13.1795344"><ele>1400.0</ele><time>2026-04-11T09:46:58.815Z</time></trkpt><trkpt lat="41.9210469" lon="13.1795041"><ele>1400.0</ele><time>2026-04-11T09:47:05.813Z</time></trkpt><trkpt lat="41.9209765" lon="13.1794781"><ele>1400.0</ele><time>2026-04-11T09:47:11.815Z</time></trkpt><trkpt lat="41.9209159" lon="13.1794507"><ele>1400.0</ele><time>2026-04-11T09:47:16.817Z</time></trkpt><trkpt lat="41.9208451" lon="13.1794409"><ele>1400.0</ele><time>2026-04-11T09:47:22.812Z</time></trkpt><trkpt lat="41.9207763" lon="13.1794018"><ele>1400.0</ele><time>2026-04-11T09:47:36.811Z</time></trkpt><trkpt lat="41.9207133" lon="13.1793981"><ele>1400.0</ele><time>2026-04-11T09:47:42.816Z</time></trkpt><trkpt lat="41.9206862" lon="13.1793058"><ele>1400.0</ele><time>2026-04-11T09:52:52.81Z</time></trkpt><trkpt lat="41.9207466" lon="13.1792251"><ele>1400.0</ele><time>2026-04-11T09:52:55.81Z</time></trkpt><trkpt lat="41.9208081" lon="13.1791808"><ele>1400.0</ele><time>2026-04-11T09:52:57.811Z</time></trkpt><trkpt lat="41.9208752" lon="13.1791422"><ele>1400.0</ele><time>2026-04-11T09:52:59.812Z</time></trkpt><trkpt lat="41.920958" lon="13.1790982"><ele>1400.0</ele><time>2026-04-11T09:53:01.816Z</time></trkpt><trkpt lat="41.9210549" lon="13.1790434"><ele>1400.0</ele><time>2026-04-11T09:53:03.81Z</time></trkpt><trkpt lat="41.9211781" lon="13.1789815"><ele>1400.0</ele><time>2026-04-11T09:53:05.81Z</time></trkpt><trkpt lat="41.9212435" lon="13.178945"><ele>1400.0</ele><time>2026-04-11T09:53:06.809Z</time></trkpt><trkpt lat="41.9213035" lon="13.1789078"><ele>1400.0</ele><time>2026-04-11T09:53:07.811Z</time></trkpt><trkpt lat="41.9214056" lon="13.1788468"><ele>1400.0</ele><time>2026-04-11T09:53:09.81Z</time></trkpt><trkpt lat="41.9215047" lon="13.1787817"><ele>1400.0</ele><time>2026-04-11T09:53:11.811Z</time></trkpt><trkpt lat="41.9215628" lon="13.178744"><ele>1400.0</ele><time>2026-04-11T09:53:12.81Z</time></trkpt><trkpt lat="41.92163" lon="13.1787026"><ele>1400.0</ele><time>2026-04-11T09:53:13.811Z</time></trkpt><trkpt lat="41.9217047" lon="13.1786553"><ele>1400.0</ele><time>2026-04-11T09:53:14.81Z</time></trkpt><trkpt lat="41.9217895" lon="13.1786049"><ele>1400.0</ele><time>2026-04-11T09:53:15.811Z</time></trkpt><trkpt lat="41.9218841" lon="13.1785486"><ele>1400.0</ele><time>2026-04-11T09:53:16.811Z</time></trkpt><trkpt lat="41.9219789" lon="13.1784913"><ele>1400.0</ele><time>2026-04-11T09:53:17.812Z</time></trkpt><trkpt lat="41.9220739" lon="13.1784339"><ele>1399.8</ele><time>2026-04-11T09:53:18.81Z</time></trkpt><trkpt lat="41.9221705" lon="13.1783768"><ele>1399.6</ele><time>2026-04-11T09:53:19.81Z</time></trkpt><trkpt lat="41.9222707" lon="13.1783163"><ele>1399.4</ele><time>2026-04-11T09:53:20.811Z</time></trkpt><trkpt lat="41.92237" lon="13.1782533"><ele>1399.2</ele><time>2026-04-11T09:53:21.81Z</time></trkpt><trkpt lat="41.9224717" lon="13.17819"><ele>1399.0</ele><time>2026-04-11T09:53:22.81Z</time></trkpt><trkpt lat="41.9225767" lon="13.178125"><ele>1398.25</ele><time>2026-04-11T09:53:23.811Z</time></trkpt><trkpt lat="41.9226817" lon="13.1780617"><ele>1397.5</ele><time>2026-04-11T09:53:24.811Z</time></trkpt><trkpt lat="41.922785" lon="13.1779983"><ele>1396.75</ele><time>2026-04-11T09:53:25.813Z</time></trkpt><trkpt lat="41.9228883" lon="13.177935"><ele>1396.0</ele><time>2026-04-11T09:53:26.812Z</time></trkpt><trkpt lat="41.9229933" lon="13.17787"><ele>1396.0</ele><time>2026-04-11T09:53:27.814Z</time></trkpt><trkpt lat="41.9230983" lon="13.1778067"><ele>1396.0</ele><time>2026-04-11T09:53:28.812Z</time></trkpt><trkpt lat="41.9232" lon="13.1777433"><ele>1396.0</ele><time>2026-04-11T09:53:29.813Z</time></trkpt><trkpt lat="41.9233017" lon="13.1776767"><ele>1396.0</ele><time>2026-04-11T09:53:30.814Z</time></trkpt><trkpt lat="41.9234033" lon="13.1776117"><ele>1396.3333333333333</ele><time>2026-04-11T09:53:31.809Z</time></trkpt><trkpt lat="41.923615" lon="13.177485"><ele>1396.6666666666667</ele><time>2026-04-11T09:53:33.815Z</time></trkpt><trkpt lat="41.923725" lon="13.17742"><ele>1397.0</ele><time>2026-04-11T09:53:34.812Z</time></trkpt><trkpt lat="41.9238383" lon="13.1773533"><ele>1398.25</ele><time>2026-04-11T09:53:35.816Z</time></trkpt><trkpt lat="41.9239533" lon="13.1772783"><ele>1399.5</ele><time>2026-04-11T09:53:36.81Z</time></trkpt><trkpt lat="41.9240683" lon="13.1772033"><ele>1400.75</ele><time>2026-04-11T09:53:37.814Z</time></trkpt><trkpt lat="41.9241867" lon="13.1771267"><ele>1402.0</ele><time>2026-04-11T09:53:38.813Z</time></trkpt><trkpt lat="41.9243083" lon="13.1770483"><ele>1403.25</ele><time>2026-04-11T09:53:39.814Z</time></trkpt><trkpt lat="41.92443" lon="13.1769683"><ele>1404.5</ele><time>2026-04-11T09:53:40.813Z</time></trkpt><trkpt lat="41.92455" lon="13.17689"><ele>1405.75</ele><time>2026-04-11T09:53:41.813Z</time></trkpt><trkpt lat="41.9246683" lon="13.1768183"><ele>1407.0</ele><time>2026-04-11T09:53:42.814Z</time></trkpt><trkpt lat="41.9247883" lon="13.1767483"><ele>1407.0</ele><time>2026-04-11T09:53:43.816Z</time></trkpt><trkpt lat="41.9249083" lon="13.1766733"><ele>1407.0</ele><time>2026-04-11T09:53:44.813Z</time></trkpt><trkpt lat="41.9250333" lon="13.1766033"><ele>1407.0</ele><time>2026-04-11T09:53:45.814Z</time></trkpt><trkpt lat="41.9251567" lon="13.17653"><ele>1407.0</ele><time>2026-04-11T09:53:46.818Z</time></trkpt><trkpt lat="41.9252767" lon="13.176465"><ele>1407.5</ele><time>2026-04-11T09:53:47.811Z</time></trkpt><trkpt lat="41.92539" lon="13.176415"><ele>1408.0</ele><time>2026-04-11T09:53:48.81Z</time></trkpt><trkpt lat="41.9255067" lon="13.1763933"><ele>1408.5</ele><time>2026-04-11T09:53:49.809Z</time></trkpt><trkpt lat="41.925625" lon="13.1763917"><ele>1409.0</ele><time>2026-04-11T09:53:50.811Z</time></trkpt><trkpt lat="41.9257433" lon="13.1763867"><ele>1409.0</ele><time>2026-04-11T09:53:51.813Z</time></trkpt><trkpt lat="41.9258617" lon="13.1763683"><ele>1409.0</ele><time>2026-04-11T09:53:52.811Z</time></trkpt><trkpt lat="41.9259733" lon="13.1763517"><ele>1409.0</ele><time>2026-04-11T09:53:53.811Z</time></trkpt><trkpt lat="41.9260867" lon="13.1763217"><ele>1409.0</ele><time>2026-04-11T09:53:54.814Z</time></trkpt><trkpt lat="41.9261917" lon="13.1762767"><ele>1413.0</ele><time>2026-04-11T09:53:55.81Z</time></trkpt><trkpt lat="41.9262917" lon="13.1762083"><ele>1417.0</ele><time>2026-04-11T09:53:56.811Z</time></trkpt><trkpt lat="41.9263867" lon="13.1761033"><ele>1421.0</ele><time>2026-04-11T09:53:57.81Z</time></trkpt><trkpt lat="41.9264617" lon="13.175945"><ele>1425.0</ele><time>2026-04-11T09:53:58.816Z</time></trkpt><trkpt lat="41.9265133" lon="13.1757433"><ele>1423.0</ele><time>2026-04-11T09:53:59.81Z</time></trkpt><trkpt lat="41.9265717" lon="13.17555"><ele>1421.0</ele><time>2026-04-11T09:54:00.81Z</time></trkpt><trkpt lat="41.9266183" lon="13.175385"><ele>1419.0</ele><time>2026-04-11T09:54:01.814Z</time></trkpt><trkpt lat="41.9266483" lon="13.1752367"><ele>1417.0</ele><time>2026-04-11T09:54:02.813Z</time></trkpt><trkpt lat="41.92664" lon="13.1750783"><ele>1417.0</ele><time>2026-04-11T09:54:03.814Z</time></trkpt><trkpt lat="41.9266317" lon="13.1749233"><ele>1417.0</ele><time>2026-04-11T09:54:04.813Z</time></trkpt><trkpt lat="41.9266483" lon="13.1747783"><ele>1417.0</ele><time>2026-04-11T09:54:05.812Z</time></trkpt><trkpt lat="41.9266817" lon="13.174655"><ele>1417.0</ele><time>2026-04-11T09:54:06.814Z</time></trkpt><trkpt lat="41.9267367" lon="13.1745617"><ele>1417.0</ele><time>2026-04-11T09:54:07.814Z</time></trkpt><trkpt lat="41.9268017" lon="13.17451"><ele>1418.1666666666665</ele><time>2026-04-11T09:54:08.814Z</time></trkpt><trkpt lat="41.9268667" lon="13.1744833"><ele>1419.3333333333333</ele><time>2026-04-11T09:54:09.814Z</time></trkpt><trkpt lat="41.9269367" lon="13.1744583"><ele>1420.5</ele><time>2026-04-11T09:54:10.814Z</time></trkpt><trkpt lat="41.9270167" lon="13.17444"><ele>1421.6666666666667</ele><time>2026-04-11T09:54:11.812Z</time></trkpt><trkpt lat="41.9271117" lon="13.1744267"><ele>1422.8333333333335</ele><time>2026-04-11T09:54:12.811Z</time></trkpt><trkpt lat="41.9272117" lon="13.17439"><ele>1424.0</ele><time>2026-04-11T09:54:13.809Z</time></trkpt><trkpt lat="41.92731" lon="13.174315"><ele>1424.0</ele><time>2026-04-11T09:54:14.81Z</time></trkpt><trkpt lat="41.9274" lon="13.1742133"><ele>1424.0</ele><time>2026-04-11T09:54:15.813Z</time></trkpt><trkpt lat="41.9274683" lon="13.17408"><ele>1424.0</ele><time>2026-04-11T09:54:16.812Z</time></trkpt><trkpt lat="41.9275233" lon="13.1739233"><ele>1424.0</ele><time>2026-04-11T09:54:17.811Z</time></trkpt><trkpt lat="41.92759" lon="13.1737483"><ele>1425.6666666666667</ele><time>2026-04-11T09:54:18.809Z</time></trkpt><trkpt lat="41.9276567" lon="13.17356"><ele>1427.3333333333333</ele><time>2026-04-11T09:54:19.81Z</time></trkpt><trkpt lat="41.927725" lon="13.173375"><ele>1429.0</ele><time>2026-04-11T09:54:20.809Z</time></trkpt><trkpt lat="41.9277783" lon="13.1731533"><ele>1429.0</ele><time>2026-04-11T09:54:21.81Z</time></trkpt><trkpt lat="41.92784" lon="13.1729583"><ele>1429.0</ele><time>2026-04-11T09:54:22.818Z</time></trkpt><trkpt lat="41.9278983" lon="13.1727817"><ele>1429.0</ele><time>2026-04-11T09:54:23.814Z</time></trkpt><trkpt lat="41.9279717" lon="13.1726367"><ele>1429.0</ele><time>2026-04-11T09:54:24.813Z</time></trkpt><trkpt lat="41.9280633" lon="13.1725233"><ele>1429.0</ele><time>2026-04-11T09:54:25.811Z</time></trkpt><trkpt lat="41.9281667" lon="13.172415"><ele>1429.0</ele><time>2026-04-11T09:54:26.812Z</time></trkpt><trkpt lat="41.928275" lon="13.172305"><ele>1429.0</ele><time>2026-04-11T09:54:27.811Z</time></trkpt><trkpt lat="41.9283717" lon="13.1721983"><ele>1429.0</ele><time>2026-04-11T09:54:28.813Z</time></trkpt><trkpt lat="41.9284583" lon="13.17208"><ele>1431.25</ele><time>2026-04-11T09:54:29.811Z</time></trkpt><trkpt lat="41.9285217" lon="13.1719367"><ele>1433.5</ele><time>2026-04-11T09:54:30.811Z</time></trkpt><trkpt lat="41.9285617" lon="13.1717667"><ele>1435.75</ele><time>2026-04-11T09:54:31.812Z</time></trkpt><trkpt lat="41.928565" lon="13.1715933"><ele>1438.0</ele><time>2026-04-11T09:54:32.814Z</time></trkpt><trkpt lat="41.9285217" lon="13.1714167"><ele>1438.0</ele><time>2026-04-11T09:54:33.814Z</time></trkpt><trkpt lat="41.928485" lon="13.1712383"><ele>1438.0</ele><time>2026-04-11T09:54:34.812Z</time></trkpt><trkpt lat="41.9284833" lon="13.1710483"><ele>1438.0</ele><time>2026-04-11T09:54:35.816Z</time></trkpt><trkpt lat="41.9285117" lon="13.170875"><ele>1438.0</ele><time>2026-04-11T09:54:36.816Z</time></trkpt><trkpt lat="41.9285583" lon="13.17072"><ele>1433.75</ele><time>2026-04-11T09:54:37.81Z</time></trkpt><trkpt lat="41.9286333" lon="13.170585"><ele>1429.5</ele><time>2026-04-11T09:54:38.813Z</time></trkpt><trkpt lat="41.9287383" lon="13.17047"><ele>1425.25</ele><time>2026-04-11T09:54:39.813Z</time></trkpt><trkpt lat="41.928855" lon="13.1703717"><ele>1421.0</ele><time>2026-04-11T09:54:40.811Z</time></trkpt><trkpt lat="41.92897" lon="13.1702867"><ele>1421.0</ele><time>2026-04-11T09:54:41.811Z</time></trkpt><trkpt lat="41.929075" lon="13.170215"><ele>1421.0</ele><time>2026-04-11T09:54:42.81Z</time></trkpt><trkpt lat="41.9291767" lon="13.1701667"><ele>1421.0</ele><time>2026-04-11T09:54:43.811Z</time></trkpt><trkpt lat="41.9292833" lon="13.170135"><ele>1421.0</ele><time>2026-04-11T09:54:44.812Z</time></trkpt><trkpt lat="41.929385" lon="13.17012"><ele>1421.0</ele><time>2026-04-11T09:54:45.809Z</time></trkpt><trkpt lat="41.9294867" lon="13.17012"><ele>1423.8333333333335</ele><time>2026-04-11T09:54:46.81Z</time></trkpt><trkpt lat="41.9295767" lon="13.1701183"><ele>1426.6666666666667</ele><time>2026-04-11T09:54:47.81Z</time></trkpt><trkpt lat="41.9296517" lon="13.170125"><ele>1429.5</ele><time>2026-04-11T09:54:48.813Z</time></trkpt><trkpt lat="41.92972" lon="13.17013"><ele>1432.3333333333333</ele><time>2026-04-11T09:54:49.82Z</time></trkpt><trkpt lat="41.929835" lon="13.17009"><ele>1435.1666666666665</ele><time>2026-04-11T09:54:51.816Z</time></trkpt><trkpt lat="41.9298067" lon="13.1700117"><ele>1438.0</ele><time>2026-04-11T09:54:53.81Z</time></trkpt><trkpt lat="41.929745" lon="13.1699517"><ele>1438.0</ele><time>2026-04-11T09:54:54.811Z</time></trkpt><trkpt lat="41.9296517" lon="13.16987"><ele>1438.0</ele><time>2026-04-11T09:54:55.81Z</time></trkpt><trkpt lat="41.9295567" lon="13.1697717"><ele>1438.0</ele><time>2026-04-11T09:54:56.811Z</time></trkpt><trkpt lat="41.92946" lon="13.16969"><ele>1438.0</ele><time>2026-04-11T09:54:57.815Z</time></trkpt><trkpt lat="41.9293617" lon="13.1695817"><ele>1441.25</ele><time>2026-04-11T09:54:58.813Z</time></trkpt><trkpt lat="41.9292583" lon="13.169465"><ele>1444.5</ele><time>2026-04-11T09:54:59.814Z</time></trkpt><trkpt lat="41.929135" lon="13.16935"><ele>1447.75</ele><time>2026-04-11T09:55:00.814Z</time></trkpt><trkpt lat="41.9290167" lon="13.169235"><ele>1451.0</ele><time>2026-04-11T09:55:01.812Z</time></trkpt><trkpt lat="41.9289017" lon="13.16911"><ele>1447.25</ele><time>2026-04-11T09:55:02.813Z</time></trkpt><trkpt lat="41.928815" lon="13.1689733"><ele>1443.5</ele><time>2026-04-11T09:55:03.813Z</time></trkpt><trkpt lat="41.9287633" lon="13.1688317"><ele>1439.75</ele><time>2026-04-11T09:55:04.813Z</time></trkpt><trkpt lat="41.9287417" lon="13.1686883"><ele>1436.0</ele><time>2026-04-11T09:55:05.814Z</time></trkpt><trkpt lat="41.9287567" lon="13.16853"><ele>1436.0</ele><time>2026-04-11T09:55:06.813Z</time></trkpt><trkpt lat="41.9287983" lon="13.1683633"><ele>1436.0</ele><time>2026-04-11T09:55:07.815Z</time></trkpt><trkpt lat="41.9288533" lon="13.1681883"><ele>1436.0</ele><time>2026-04-11T09:55:08.813Z</time></trkpt><trkpt lat="41.9289067" lon="13.1680133"><ele>1436.0</ele><time>2026-04-11T09:55:09.813Z</time></trkpt><trkpt lat="41.9289567" lon="13.1678367"><ele>1435.0</ele><time>2026-04-11T09:55:10.814Z</time></trkpt><trkpt lat="41.9290033" lon="13.1676483"><ele>1434.0</ele><time>2026-04-11T09:55:11.814Z</time></trkpt><trkpt lat="41.92905" lon="13.16745"><ele>1433.0</ele><time>2026-04-11T09:55:12.814Z</time></trkpt><trkpt lat="41.9291067" lon="13.1672383"><ele>1430.3333333333335</ele><time>2026-04-11T09:55:13.814Z</time></trkpt><trkpt lat="41.929165" lon="13.167025"><ele>1427.6666666666667</ele><time>2026-04-11T09:55:14.813Z</time></trkpt><trkpt lat="41.929215" lon="13.166825"><ele>1425.0</ele><time>2026-04-11T09:55:15.813Z</time></trkpt><trkpt lat="41.9292567" lon="13.1666633"><ele>1427.0</ele><time>2026-04-11T09:55:16.814Z</time></trkpt><trkpt lat="41.9293033" lon="13.1665467"><ele>1429.0</ele><time>2026-04-11T09:55:17.814Z</time></trkpt><trkpt lat="41.92935" lon="13.166465"><ele>1431.0</ele><time>2026-04-11T09:55:18.814Z</time></trkpt><trkpt lat="41.92941" lon="13.166425"><ele>1433.0</ele><time>2026-04-11T09:55:19.816Z</time></trkpt><trkpt lat="41.9294833" lon="13.1664267"><ele>1435.0</ele><time>2026-04-11T09:55:20.814Z</time></trkpt><trkpt lat="41.9295667" lon="13.1664933"><ele>1437.0</ele><time>2026-04-11T09:55:21.814Z</time></trkpt><trkpt lat="41.9296617" lon="13.1665783"><ele>1438.25</ele><time>2026-04-11T09:55:22.81Z</time></trkpt><trkpt lat="41.929755" lon="13.1666567"><ele>1439.5</ele><time>2026-04-11T09:55:23.814Z</time></trkpt><trkpt lat="41.929865" lon="13.1667583"><ele>1440.75</ele><time>2026-04-11T09:55:24.809Z</time></trkpt><trkpt lat="41.9299767" lon="13.166875"><ele>1442.0</ele><time>2026-04-11T09:55:25.811Z</time></trkpt><trkpt lat="41.9300667" lon="13.1669917"><ele>1445.3333333333335</ele><time>2026-04-11T09:55:26.816Z</time></trkpt><trkpt lat="41.9301417" lon="13.1670617"><ele>1448.6666666666667</ele><time>2026-04-11T09:55:27.814Z</time></trkpt><trkpt lat="41.9302117" lon="13.1671117"><ele>1452.0</ele><time>2026-04-11T09:55:28.812Z</time></trkpt><trkpt lat="41.9302767" lon="13.167125"><ele>1455.3333333333333</ele><time>2026-04-11T09:55:29.81Z</time></trkpt><trkpt lat="41.930345" lon="13.16714"><ele>1458.6666666666665</ele><time>2026-04-11T09:55:30.81Z</time></trkpt><trkpt lat="41.93036" lon="13.1670267"><ele>1462.0</ele><time>2026-04-11T09:55:31.81Z</time></trkpt><trkpt lat="41.9304" lon="13.1668917"><ele>1462.0</ele><time>2026-04-11T09:55:32.811Z</time></trkpt><trkpt lat="41.9303933" lon="13.1666933"><ele>1462.0</ele><time>2026-04-11T09:55:33.81Z</time></trkpt><trkpt lat="41.9303617" lon="13.1664783"><ele>1462.0</ele><time>2026-04-11T09:55:34.811Z</time></trkpt><trkpt lat="41.9303117" lon="13.1662633"><ele>1461.6666666666665</ele><time>2026-04-11T09:55:35.812Z</time></trkpt><trkpt lat="41.9302617" lon="13.1660383"><ele>1461.3333333333333</ele><time>2026-04-11T09:55:36.813Z</time></trkpt><trkpt lat="41.9302167" lon="13.165815"><ele>1461.0</ele><time>2026-04-11T09:55:37.813Z</time></trkpt><trkpt lat="41.9301817" lon="13.165605"><ele>1461.0</ele><time>2026-04-11T09:55:38.813Z</time></trkpt><trkpt lat="41.9301533" lon="13.16539"><ele>1461.0</ele><time>2026-04-11T09:55:39.813Z</time></trkpt><trkpt lat="41.9301233" lon="13.1651767"><ele>1461.0</ele><time>2026-04-11T09:55:40.814Z</time></trkpt><trkpt lat="41.9300883" lon="13.1649883"><ele>1460.25</ele><time>2026-04-11T09:55:41.813Z</time></trkpt><trkpt lat="41.930065" lon="13.164805"><ele>1459.5</ele><time>2026-04-11T09:55:42.813Z</time></trkpt><trkpt lat="41.9300583" lon="13.1646217"><ele>1458.75</ele><time>2026-04-11T09:55:43.814Z</time></trkpt><trkpt lat="41.93007" lon="13.164455"><ele>1458.0</ele><time>2026-04-11T09:55:44.813Z</time></trkpt><trkpt lat="41.930095" lon="13.1643217"><ele>1458.0</ele><time>2026-04-11T09:55:45.814Z</time></trkpt><trkpt lat="41.9301483" lon="13.1642067"><ele>1458.0</ele><time>2026-04-11T09:55:46.814Z</time></trkpt><trkpt lat="41.9302367" lon="13.1640967"><ele>1458.0</ele><time>2026-04-11T09:55:47.814Z</time></trkpt><trkpt lat="41.9303383" lon="13.163965"><ele>1458.0</ele><time>2026-04-11T09:55:48.814Z</time></trkpt><trkpt lat="41.930445" lon="13.163805"><ele>1455.75</ele><time>2026-04-11T09:55:49.814Z</time></trkpt><trkpt lat="41.93055" lon="13.1636583"><ele>1453.5</ele><time>2026-04-11T09:55:50.815Z</time></trkpt><trkpt lat="41.9306317" lon="13.1635517"><ele>1451.25</ele><time>2026-04-11T09:55:51.814Z</time></trkpt><trkpt lat="41.9307133" lon="13.1634833"><ele>1449.0</ele><time>2026-04-11T09:55:52.813Z</time></trkpt><trkpt lat="41.9308" lon="13.1634533"><ele>1448.8000000000002</ele><time>2026-04-11T09:55:53.814Z</time></trkpt><trkpt lat="41.9308983" lon="13.1634483"><ele>1448.6000000000001</ele><time>2026-04-11T09:55:54.811Z</time></trkpt><trkpt lat="41.9309983" lon="13.1634683"><ele>1448.4</ele><time>2026-04-11T09:55:55.813Z</time></trkpt><trkpt lat="41.9311117" lon="13.1634967"><ele>1448.2</ele><time>2026-04-11T09:55:56.811Z</time></trkpt><trkpt lat="41.93124" lon="13.1635367"><ele>1448.0</ele><time>2026-04-11T09:55:57.811Z</time></trkpt><trkpt lat="41.931355" lon="13.1635417"><ele>1448.0</ele><time>2026-04-11T09:55:58.813Z</time></trkpt><trkpt lat="41.931465" lon="13.163535"><ele>1448.0</ele><time>2026-04-11T09:55:59.81Z</time></trkpt><trkpt lat="41.9315733" lon="13.1635367"><ele>1448.0</ele><time>2026-04-11T09:56:00.81Z</time></trkpt><trkpt lat="41.931665" lon="13.1635583"><ele>1448.0</ele><time>2026-04-11T09:56:01.811Z</time></trkpt><trkpt lat="41.9317367" lon="13.1635917"><ele>1448.0</ele><time>2026-04-11T09:56:02.814Z</time></trkpt><trkpt lat="41.93179" lon="13.16366"><ele>1448.4</ele><time>2026-04-11T09:56:03.813Z</time></trkpt><trkpt lat="41.9318533" lon="13.1637167"><ele>1448.8000000000002</ele><time>2026-04-11T09:56:04.813Z</time></trkpt><trkpt lat="41.931895" lon="13.163825"><ele>1449.2</ele><time>2026-04-11T09:56:05.812Z</time></trkpt><trkpt lat="41.9319233" lon="13.16397"><ele>1449.6</ele><time>2026-04-11T09:56:06.811Z</time></trkpt><trkpt lat="41.93195" lon="13.16411"><ele>1450.0</ele><time>2026-04-11T09:56:07.811Z</time></trkpt><trkpt lat="41.9319617" lon="13.1642533"><ele>1450.0</ele><time>2026-04-11T09:56:08.811Z</time></trkpt><trkpt lat="41.9319283" lon="13.164435"><ele>1450.0</ele><time>2026-04-11T09:56:09.81Z</time></trkpt><trkpt lat="41.931945" lon="13.164545"><ele>1450.0</ele><time>2026-04-11T09:56:10.811Z</time></trkpt><trkpt lat="41.9319483" lon="13.16469"><ele>1450.0</ele><time>2026-04-11T09:56:12.811Z</time></trkpt><trkpt lat="41.9320583" lon="13.1646583"><ele>1450.0</ele><time>2026-04-11T09:56:14.811Z</time></trkpt><trkpt lat="41.9322133" lon="13.16456"><ele>1450.0</ele><time>2026-04-11T09:56:16.815Z</time></trkpt><trkpt lat="41.9324483" lon="13.1643033"><ele>1450.0</ele><time>2026-04-11T09:56:17.811Z</time></trkpt><trkpt lat="41.9325833" lon="13.1641717"><ele>1448.0</ele><time>2026-04-11T09:56:18.811Z</time></trkpt><trkpt lat="41.932715" lon="13.1640517"><ele>1446.0</ele><time>2026-04-11T09:56:19.811Z</time></trkpt><trkpt lat="41.9328433" lon="13.1639583"><ele>1444.0</ele><time>2026-04-11T09:56:20.812Z</time></trkpt><trkpt lat="41.9329933" lon="13.1639033"><ele>1444.0</ele><time>2026-04-11T09:56:21.811Z</time></trkpt><trkpt lat="41.9331717" lon="13.1638467"><ele>1444.0</ele><time>2026-04-11T09:56:22.811Z</time></trkpt><trkpt lat="41.93331" lon="13.1637933"><ele>1444.0</ele><time>2026-04-11T09:56:23.812Z</time></trkpt><trkpt lat="41.93341" lon="13.1637417"><ele>1444.0</ele><time>2026-04-11T09:56:24.811Z</time></trkpt><trkpt lat="41.933485" lon="13.1636667"><ele>1444.2</ele><time>2026-04-11T09:56:25.812Z</time></trkpt><trkpt lat="41.9335383" lon="13.1635617"><ele>1444.4</ele><time>2026-04-11T09:56:26.812Z</time></trkpt><trkpt lat="41.933575" lon="13.1634333"><ele>1444.6</ele><time>2026-04-11T09:56:27.811Z</time></trkpt><trkpt lat="41.9336017" lon="13.1632783"><ele>1444.8</ele><time>2026-04-11T09:56:28.81Z</time></trkpt><trkpt lat="41.9336567" lon="13.163145"><ele>1445.0</ele><time>2026-04-11T09:56:29.81Z</time></trkpt><trkpt lat="41.9337317" lon="13.1630583"><ele>1445.0</ele><time>2026-04-11T09:56:30.814Z</time></trkpt><trkpt lat="41.9338167" lon="13.1630283"><ele>1445.0</ele><time>2026-04-11T09:56:31.814Z</time></trkpt><trkpt lat="41.933915" lon="13.16303"><ele>1445.0</ele><time>2026-04-11T09:56:32.814Z</time></trkpt><trkpt lat="41.9340183" lon="13.16312"><ele>1445.0</ele><time>2026-04-11T09:56:33.814Z</time></trkpt><trkpt lat="41.9340933" lon="13.1632183"><ele>1445.0</ele><time>2026-04-11T09:56:34.81Z</time></trkpt><trkpt lat="41.9341667" lon="13.1633283"><ele>1446.1666666666667</ele><time>2026-04-11T09:56:35.813Z</time></trkpt><trkpt lat="41.934225" lon="13.163405"><ele>1447.3333333333335</ele><time>2026-04-11T09:56:36.814Z</time></trkpt><trkpt lat="41.9342933" lon="13.1634533"><ele>1448.5</ele><time>2026-04-11T09:56:37.81Z</time></trkpt><trkpt lat="41.9343617" lon="13.1634833"><ele>1449.6666666666667</ele><time>2026-04-11T09:56:38.814Z</time></trkpt><trkpt lat="41.9344267" lon="13.16349"><ele>1450.8333333333333</ele><time>2026-04-11T09:56:39.811Z</time></trkpt><trkpt lat="41.9344867" lon="13.1634317"><ele>1452.0</ele><time>2026-04-11T09:56:40.81Z</time></trkpt><trkpt lat="41.9345517" lon="13.1632767"><ele>1452.1999999999998</ele><time>2026-04-11T09:56:41.812Z</time></trkpt><trkpt lat="41.9345733" lon="13.1631217"><ele>1452.4</ele><time>2026-04-11T09:56:42.811Z</time></trkpt><trkpt lat="41.93459" lon="13.1630017"><ele>1452.6</ele><time>2026-04-11T09:56:43.812Z</time></trkpt><trkpt lat="41.9345683" lon="13.1628683"><ele>1452.8000000000002</ele><time>2026-04-11T09:56:44.81Z</time></trkpt><trkpt lat="41.9345167" lon="13.162745"><ele>1453.0</ele><time>2026-04-11T09:56:45.811Z</time></trkpt><trkpt lat="41.9344217" lon="13.1626333"><ele>1453.0</ele><time>2026-04-11T09:56:46.811Z</time></trkpt><trkpt lat="41.93434" lon="13.162525"><ele>1453.0</ele><time>2026-04-11T09:56:47.814Z</time></trkpt><trkpt lat="41.93427" lon="13.162405"><ele>1453.0</ele><time>2026-04-11T09:56:48.814Z</time></trkpt><trkpt lat="41.9342217" lon="13.1622583"><ele>1453.0</ele><time>2026-04-11T09:56:49.813Z</time></trkpt><trkpt lat="41.9341867" lon="13.1621083"><ele>1451.6000000000001</ele><time>2026-04-11T09:56:50.811Z</time></trkpt><trkpt lat="41.934165" lon="13.1619683"><ele>1450.2</ele><time>2026-04-11T09:56:51.811Z</time></trkpt><trkpt lat="41.93418" lon="13.161825"><ele>1448.8</ele><time>2026-04-11T09:56:52.814Z</time></trkpt><trkpt lat="41.93422" lon="13.1617"><ele>1447.4</ele><time>2026-04-11T09:56:53.811Z</time></trkpt><trkpt lat="41.934285" lon="13.1615783"><ele>1446.0</ele><time>2026-04-11T09:56:54.814Z</time></trkpt><trkpt lat="41.9343683" lon="13.1614617"><ele>1439.6666666666667</ele><time>2026-04-11T09:56:55.814Z</time></trkpt><trkpt lat="41.9344733" lon="13.1613383"><ele>1433.3333333333335</ele><time>2026-04-11T09:56:56.814Z</time></trkpt><trkpt lat="41.934595" lon="13.1612033"><ele>1427.0</ele><time>2026-04-11T09:56:57.814Z</time></trkpt><trkpt lat="41.9347117" lon="13.16106"><ele>1427.0</ele><time>2026-04-11T09:56:58.811Z</time></trkpt><trkpt lat="41.934835" lon="13.160905"><ele>1427.0</ele><time>2026-04-11T09:56:59.811Z</time></trkpt><trkpt lat="41.9349517" lon="13.1607283"><ele>1427.0</ele><time>2026-04-11T09:57:00.811Z</time></trkpt><trkpt lat="41.9350683" lon="13.1605467"><ele>1425.0</ele><time>2026-04-11T09:57:01.81Z</time></trkpt><trkpt lat="41.9351933" lon="13.1603733"><ele>1423.0</ele><time>2026-04-11T09:57:02.811Z</time></trkpt><trkpt lat="41.9353233" lon="13.160215"><ele>1421.0</ele><time>2026-04-11T09:57:03.809Z</time></trkpt><trkpt lat="41.9354483" lon="13.16007"><ele>1421.0</ele><time>2026-04-11T09:57:04.812Z</time></trkpt><trkpt lat="41.9355717" lon="13.1599317"><ele>1421.0</ele><time>2026-04-11T09:57:05.811Z</time></trkpt><trkpt lat="41.935695" lon="13.15979"><ele>1421.0</ele><time>2026-04-11T09:57:06.811Z</time></trkpt><trkpt lat="41.9358183" lon="13.15965"><ele>1419.0</ele><time>2026-04-11T09:57:07.812Z</time></trkpt><trkpt lat="41.9359433" lon="13.159525"><ele>1417.0</ele><time>2026-04-11T09:57:08.811Z</time></trkpt><trkpt lat="41.9360533" lon="13.1593983"><ele>1415.0</ele><time>2026-04-11T09:57:09.811Z</time></trkpt><trkpt lat="41.9361583" lon="13.1592767"><ele>1413.0</ele><time>2026-04-11T09:57:10.81Z</time></trkpt><trkpt lat="41.9362533" lon="13.1591367"><ele>1412.2</ele><time>2026-04-11T09:57:11.812Z</time></trkpt><trkpt lat="41.9363317" lon="13.15899"><ele>1411.4</ele><time>2026-04-11T09:57:12.811Z</time></trkpt><trkpt lat="41.936385" lon="13.1588583"><ele>1410.6000000000001</ele><time>2026-04-11T09:57:13.812Z</time></trkpt><trkpt lat="41.9364217" lon="13.15873"><ele>1409.8000000000002</ele><time>2026-04-11T09:57:14.812Z</time></trkpt><trkpt lat="41.9364533" lon="13.1586033"><ele>1409.0</ele><time>2026-04-11T09:57:15.811Z</time></trkpt><trkpt lat="41.9364583" lon="13.1584767"><ele>1409.0</ele><time>2026-04-11T09:57:16.814Z</time></trkpt><trkpt lat="41.9364483" lon="13.1583567"><ele>1409.0</ele><time>2026-04-11T09:57:17.814Z</time></trkpt><trkpt lat="41.936435" lon="13.158255"><ele>1409.0</ele><time>2026-04-11T09:57:18.811Z</time></trkpt><trkpt lat="41.936415" lon="13.1581733"><ele>1409.0</ele><time>2026-04-11T09:57:19.811Z</time></trkpt><trkpt lat="41.9363983" lon="13.1580683"><ele>1409.0</ele><time>2026-04-11T09:57:21.816Z</time></trkpt><trkpt lat="41.936345" lon="13.158005"><ele>1409.0</ele><time>2026-04-11T09:57:41.814Z</time></trkpt><trkpt lat="41.9363067" lon="13.1578633"><ele>1407.8000000000002</ele><time>2026-04-11T09:57:43.814Z</time></trkpt><trkpt lat="41.9362817" lon="13.15777"><ele>1406.6000000000001</ele><time>2026-04-11T09:57:44.814Z</time></trkpt><trkpt lat="41.936245" lon="13.1576667"><ele>1405.4</ele><time>2026-04-11T09:57:45.814Z</time></trkpt><trkpt lat="41.936205" lon="13.15754"><ele>1404.2</ele><time>2026-04-11T09:57:46.813Z</time></trkpt><trkpt lat="41.936165" lon="13.1573983"><ele>1403.0</ele><time>2026-04-11T09:57:47.812Z</time></trkpt><trkpt lat="41.9361217" lon="13.1572467"><ele>1401.75</ele><time>2026-04-11T09:57:48.811Z</time></trkpt><trkpt lat="41.9360783" lon="13.1570783"><ele>1400.5</ele><time>2026-04-11T09:57:49.811Z</time></trkpt><trkpt lat="41.936025" lon="13.1568983"><ele>1399.25</ele><time>2026-04-11T09:57:50.812Z</time></trkpt><trkpt lat="41.935965" lon="13.156715"><ele>1398.0</ele><time>2026-04-11T09:57:51.811Z</time></trkpt><trkpt lat="41.9359067" lon="13.1565333"><ele>1395.25</ele><time>2026-04-11T09:57:52.81Z</time></trkpt><trkpt lat="41.9358417" lon="13.156355"><ele>1392.5</ele><time>2026-04-11T09:57:53.813Z</time></trkpt><trkpt lat="41.9357767" lon="13.1561767"><ele>1389.75</ele><time>2026-04-11T09:57:54.814Z</time></trkpt><trkpt lat="41.9357183" lon="13.1560017"><ele>1387.0</ele><time>2026-04-11T09:57:55.814Z</time></trkpt><trkpt lat="41.9356717" lon="13.1558217"><ele>1386.25</ele><time>2026-04-11T09:57:56.814Z</time></trkpt><trkpt lat="41.9356333" lon="13.1556467"><ele>1385.5</ele><time>2026-04-11T09:57:57.814Z</time></trkpt><trkpt lat="41.9356017" lon="13.1554783"><ele>1384.75</ele><time>2026-04-11T09:57:58.814Z</time></trkpt><trkpt lat="41.93558" lon="13.1553083"><ele>1384.0</ele><time>2026-04-11T09:57:59.813Z</time></trkpt><trkpt lat="41.93557" lon="13.1551417"><ele>1384.0</ele><time>2026-04-11T09:58:00.813Z</time></trkpt><trkpt lat="41.9355683" lon="13.15498"><ele>1384.0</ele><time>2026-04-11T09:58:01.814Z</time></trkpt><trkpt lat="41.9355967" lon="13.15482"><ele>1384.0</ele><time>2026-04-11T09:58:02.813Z</time></trkpt><trkpt lat="41.93565" lon="13.1546683"><ele>1384.0</ele><time>2026-04-11T09:58:03.814Z</time></trkpt><trkpt lat="41.9357133" lon="13.1545333"><ele>1384.0</ele><time>2026-04-11T09:58:04.813Z</time></trkpt><trkpt lat="41.9357883" lon="13.154415"><ele>1384.0</ele><time>2026-04-11T09:58:05.814Z</time></trkpt><trkpt lat="41.9358767" lon="13.1543083"><ele>1384.0</ele><time>2026-04-11T09:58:06.813Z</time></trkpt><trkpt lat="41.9359533" lon="13.1541967"><ele>1384.0</ele><time>2026-04-11T09:58:07.814Z</time></trkpt><trkpt lat="41.936035" lon="13.154085"><ele>1381.25</ele><time>2026-04-11T09:58:08.814Z</time></trkpt><trkpt lat="41.9361233" lon="13.15398"><ele>1378.5</ele><time>2026-04-11T09:58:09.814Z</time></trkpt><trkpt lat="41.9362117" lon="13.1538717"><ele>1375.75</ele><time>2026-04-11T09:58:10.813Z</time></trkpt><trkpt lat="41.9362967" lon="13.1537617"><ele>1373.0</ele><time>2026-04-11T09:58:11.81Z</time></trkpt><trkpt lat="41.936385" lon="13.15365"><ele>1373.0</ele><time>2026-04-11T09:58:12.81Z</time></trkpt><trkpt lat="41.9364683" lon="13.1535417"><ele>1373.0</ele><time>2026-04-11T09:58:13.81Z</time></trkpt><trkpt lat="41.936545" lon="13.1534417"><ele>1373.0</ele><time>2026-04-11T09:58:14.813Z</time></trkpt><trkpt lat="41.9366267" lon="13.153345"><ele>1373.0</ele><time>2026-04-11T09:58:15.813Z</time></trkpt><trkpt lat="41.93671" lon="13.1532467"><ele>1373.0</ele><time>2026-04-11T09:58:16.814Z</time></trkpt><trkpt lat="41.936795" lon="13.1531483"><ele>1373.2</ele><time>2026-04-11T09:58:17.811Z</time></trkpt><trkpt lat="41.9368783" lon="13.1530517"><ele>1373.4</ele><time>2026-04-11T09:58:18.811Z</time></trkpt><trkpt lat="41.9369467" lon="13.1529467"><ele>1373.6000000000001</ele><time>2026-04-11T09:58:19.81Z</time></trkpt><trkpt lat="41.9370133" lon="13.1528517"><ele>1373.8000000000002</ele><time>2026-04-11T09:58:20.811Z</time></trkpt><trkpt lat="41.93707" lon="13.15276"><ele>1374.0</ele><time>2026-04-11T09:58:21.811Z</time></trkpt><trkpt lat="41.9371217" lon="13.1526717"><ele>1374.0</ele><time>2026-04-11T09:58:22.811Z</time></trkpt><trkpt lat="41.9371683" lon="13.152585"><ele>1374.0</ele><time>2026-04-11T09:58:23.811Z</time></trkpt><trkpt lat="41.93721" lon="13.1525033"><ele>1374.0</ele><time>2026-04-11T09:58:24.815Z</time></trkpt><trkpt lat="41.9372517" lon="13.1524217"><ele>1374.0</ele><time>2026-04-11T09:58:25.817Z</time></trkpt><trkpt lat="41.9372967" lon="13.1523317"><ele>1374.0</ele><time>2026-04-11T09:58:26.814Z</time></trkpt><trkpt lat="41.93734" lon="13.152235"><ele>1374.0</ele><time>2026-04-11T09:58:27.81Z</time></trkpt><trkpt lat="41.9373833" lon="13.1521367"><ele>1373.0</ele><time>2026-04-11T09:58:28.814Z</time></trkpt><trkpt lat="41.9374233" lon="13.1520383"><ele>1372.0</ele><time>2026-04-11T09:58:29.814Z</time></trkpt><trkpt lat="41.93746" lon="13.151945"><ele>1371.0</ele><time>2026-04-11T09:58:30.814Z</time></trkpt><trkpt lat="41.9375033" lon="13.15186"><ele>1370.0</ele><time>2026-04-11T09:58:31.815Z</time></trkpt><trkpt lat="41.937545" lon="13.1517767"><ele>1369.0</ele><time>2026-04-11T09:58:32.814Z</time></trkpt><trkpt lat="41.9375883" lon="13.1517"><ele>1368.0</ele><time>2026-04-11T09:58:33.814Z</time></trkpt><trkpt lat="41.937635" lon="13.15162"><ele>1365.8333333333333</ele><time>2026-04-11T09:58:34.815Z</time></trkpt><trkpt lat="41.93768" lon="13.15154"><ele>1363.6666666666667</ele><time>2026-04-11T09:58:35.813Z</time></trkpt><trkpt lat="41.937725" lon="13.1514617"><ele>1361.5</ele><time>2026-04-11T09:58:36.813Z</time></trkpt><trkpt lat="41.9377683" lon="13.15138"><ele>1359.3333333333335</ele><time>2026-04-11T09:58:37.813Z</time></trkpt><trkpt lat="41.9378183" lon="13.1513"><ele>1357.1666666666667</ele><time>2026-04-11T09:58:38.814Z</time></trkpt><trkpt lat="41.9378717" lon="13.1512183"><ele>1355.0</ele><time>2026-04-11T09:58:39.814Z</time></trkpt><trkpt lat="41.9379233" lon="13.151135"><ele>1355.0000000000002</ele><time>2026-04-11T09:58:40.814Z</time></trkpt><trkpt lat="41.9379683" lon="13.1510533"><ele>1355.0</ele><time>2026-04-11T09:58:41.813Z</time></trkpt><trkpt lat="41.9380083" lon="13.1509767"><ele>1355.0</ele><time>2026-04-11T09:58:42.815Z</time></trkpt><trkpt lat="41.9380467" lon="13.1508967"><ele>1355.0</ele><time>2026-04-11T09:58:43.814Z</time></trkpt><trkpt lat="41.9380833" lon="13.1508167"><ele>1355.0</ele><time>2026-04-11T09:58:44.813Z</time></trkpt><trkpt lat="41.9381183" lon="13.15074"><ele>1355.0000000000002</ele><time>2026-04-11T09:58:45.813Z</time></trkpt><trkpt lat="41.93815" lon="13.1506583"><ele>1355.0</ele><time>2026-04-11T09:58:46.815Z</time></trkpt><trkpt lat="41.9381783" lon="13.1505767"><ele>1354.8333333333335</ele><time>2026-04-11T09:58:47.81Z</time></trkpt><trkpt lat="41.9382083" lon="13.150495"><ele>1354.6666666666667</ele><time>2026-04-11T09:58:48.811Z</time></trkpt><trkpt lat="41.9382383" lon="13.15042"><ele>1354.5</ele><time>2026-04-11T09:58:49.811Z</time></trkpt><trkpt lat="41.938295" lon="13.1503"><ele>1354.3333333333333</ele><time>2026-04-11T09:58:51.813Z</time></trkpt><trkpt lat="41.9383383" lon="13.1502267"><ele>1354.1666666666665</ele><time>2026-04-11T09:58:53.811Z</time></trkpt><trkpt lat="41.9383733" lon="13.150135"><ele>1354.0</ele><time>2026-04-11T09:58:57.814Z</time></trkpt><trkpt lat="41.9384233" lon="13.1500417"><ele>1353.9999999999998</ele><time>2026-04-11T09:59:00.814Z</time></trkpt><trkpt lat="41.9384467" lon="13.1499333"><ele>1354.0</ele><time>2026-04-11T09:59:02.813Z</time></trkpt><trkpt lat="41.9384183" lon="13.1498567"><ele>1354.0</ele><time>2026-04-11T09:59:04.813Z</time></trkpt><trkpt lat="41.9383517" lon="13.1498967"><ele>1354.0</ele><time>2026-04-11T09:59:07.813Z</time></trkpt><trkpt lat="41.9382983" lon="13.149955"><ele>1354.0</ele><time>2026-04-11T09:59:09.814Z</time></trkpt><trkpt lat="41.938235" lon="13.1499583"><ele>1353.9999999999998</ele><time>2026-04-11T09:59:11.814Z</time></trkpt><trkpt lat="41.9382933" lon="13.1499117"><ele>1354.0</ele><time>2026-04-11T10:04:47.812Z</time></trkpt><trkpt lat="41.938233" lon="13.1499641"><ele>1354.0</ele><time>2026-04-11T10:08:39.815Z</time></trkpt><trkpt lat="41.9382998" lon="13.1499895"><ele>1354.0</ele><time>2026-04-11T10:08:45.811Z</time></trkpt><trkpt lat="41.9383501" lon="13.1500581"><ele>1354.0</ele><time>2026-04-11T10:08:51.812Z</time></trkpt><trkpt lat="41.9384348" lon="13.1501905"><ele>1354.0</ele><time>2026-04-11T10:09:10.815Z</time></trkpt><trkpt lat="41.9384848" lon="13.1502504"><ele>1354.0</ele><time>2026-04-11T10:09:14.815Z</time></trkpt><trkpt lat="41.9385762" lon="13.1502683"><ele>1354.0</ele><time>2026-04-11T10:10:18.814Z</time></trkpt><trkpt lat="41.9384992" lon="13.1502205"><ele>1353.9999999999998</ele><time>2026-04-11T10:10:23.813Z</time></trkpt><trkpt lat="41.9385123" lon="13.1501324"><ele>1354.0</ele><time>2026-04-11T10:10:26.814Z</time></trkpt><trkpt lat="41.9385727" lon="13.1501681"><ele>1354.0</ele><time>2026-04-11T10:10:30.812Z</time></trkpt><trkpt lat="41.9385361" lon="13.1502613"><ele>1354.0</ele><time>2026-04-11T10:10:55.813Z</time></trkpt><trkpt lat="41.9384553" lon="13.1502876"><ele>1354.0</ele><time>2026-04-11T10:11:21.811Z</time></trkpt><trkpt lat="41.9384241" lon="13.150387"><ele>1353.9999999999998</ele><time>2026-04-11T10:11:28.812Z</time></trkpt><trkpt lat="41.9384633" lon="13.1503201"><ele>1354.0</ele><time>2026-04-11T10:11:59.812Z</time></trkpt><trkpt lat="41.9385181" lon="13.1504143"><ele>1354.0</ele><time>2026-04-11T10:12:53.811Z</time></trkpt><trkpt lat="41.9385754" lon="13.1505318"><ele>1354.0</ele><time>2026-04-11T10:14:32.814Z</time></trkpt><trkpt lat="41.9385909" lon="13.1503434"><ele>1354.0</ele><time>2026-04-11T10:18:23.645Z</time></trkpt><trkpt lat="41.9386747" lon="13.1503424"><ele>1354.0</ele><time>2026-04-11T10:18:48.813Z</time></trkpt></trkseg><trkseg><trkpt lat="41.9387071" lon="13.1503463"><ele>1354.0</ele><time>2026-04-11T11:06:44.812Z</time></trkpt><trkpt lat="41.938654" lon="13.1502912"><ele>1354.0</ele><time>2026-04-11T11:14:58.811Z</time></trkpt><trkpt lat="41.938582" lon="13.150283"><ele>1354.0</ele><time>2026-04-11T11:16:24.812Z</time></trkpt><trkpt lat="41.9386556" lon="13.15028"><ele>1354.0</ele><time>2026-04-11T11:16:43.813Z</time></trkpt><trkpt lat="41.9385975" lon="13.1502262"><ele>1354.0</ele><time>2026-04-11T11:17:05.811Z</time></trkpt><trkpt lat="41.9386634" lon="13.1503206"><ele>1354.0</ele><time>2026-04-11T11:17:56.814Z</time></trkpt><trkpt lat="41.9387579" lon="13.1503355"><ele>1353.9999999999998</ele><time>2026-04-11T11:18:14.814Z</time></trkpt><trkpt lat="41.9387067" lon="13.1502329"><ele>1354.0</ele><time>2026-04-11T11:18:36.814Z</time></trkpt><trkpt lat="41.938643" lon="13.1501783"><ele>1354.0</ele><time>2026-04-11T11:19:20.813Z</time></trkpt><trkpt lat="41.9385816" lon="13.15021"><ele>1354.0</ele><time>2026-04-11T11:19:45.811Z</time></trkpt><trkpt lat="41.938644" lon="13.1502591"><ele>1354.0</ele><time>2026-04-11T11:20:48.813Z</time></trkpt><trkpt lat="41.9386888" lon="13.1501965"><ele>1353.9999999999998</ele><time>2026-04-11T11:22:15.812Z</time></trkpt><trkpt lat="41.9386264" lon="13.1501527"><ele>1354.0</ele><time>2026-04-11T11:22:35.812Z</time></trkpt><trkpt lat="41.938634" lon="13.150255"><ele>1353.9999999999998</ele><time>2026-04-11T11:23:30.812Z</time></trkpt><trkpt lat="41.9385551" lon="13.1503132"><ele>1354.0</ele><time>2026-04-11T11:23:44.815Z</time></trkpt><trkpt lat="41.9384839" lon="13.1503136"><ele>1354.0</ele><time>2026-04-11T11:23:52.814Z</time></trkpt><trkpt lat="41.9384334" lon="13.1503772"><ele>1354.0</ele><time>2026-04-11T11:24:01.815Z</time></trkpt><trkpt lat="41.9383608" lon="13.1503634"><ele>1354.0</ele><time>2026-04-11T11:25:26.815Z</time></trkpt><trkpt lat="41.9384108" lon="13.1503108"><ele>1353.9999999999998</ele><time>2026-04-11T11:25:35.815Z</time></trkpt><trkpt lat="41.9384068" lon="13.1504036"><ele>1354.0</ele><time>2026-04-11T11:31:15.814Z</time></trkpt><trkpt lat="41.9384623" lon="13.1503614"><ele>1354.0</ele><time>2026-04-11T11:32:25.815Z</time></trkpt><trkpt lat="41.9385162" lon="13.1503136"><ele>1354.0</ele><time>2026-04-11T11:43:54.812Z</time></trkpt><trkpt lat="41.9385708" lon="13.1502679"><ele>1354.0</ele><time>2026-04-11T11:44:06.813Z</time></trkpt><trkpt lat="41.938654" lon="13.1502122"><ele>1354.0</ele><time>2026-04-11T11:44:50.812Z</time></trkpt><trkpt lat="41.9386952" lon="13.1501311"><ele>1354.0</ele><time>2026-04-11T11:44:56.812Z</time></trkpt><trkpt lat="41.9387017" lon="13.15002"><ele>1354.0</ele><time>2026-04-11T11:44:58.811Z</time></trkpt><trkpt lat="41.9387293" lon="13.1499195"><ele>1353.9999999999998</ele><time>2026-04-11T11:45:00.815Z</time></trkpt><trkpt lat="41.9387509" lon="13.1498182"><ele>1354.0</ele><time>2026-04-11T11:45:02.812Z</time></trkpt><trkpt lat="41.9387624" lon="13.1499208"><ele>1354.0</ele><time>2026-04-11T11:45:13.811Z</time></trkpt><trkpt lat="41.9387344" lon="13.1500017"><ele>1354.0</ele><time>2026-04-11T11:45:16.813Z</time></trkpt><trkpt lat="41.9387178" lon="13.150099"><ele>1354.0</ele><time>2026-04-11T11:45:23.813Z</time></trkpt><trkpt lat="41.9387801" lon="13.1500432"><ele>1353.9999999999998</ele><time>2026-04-11T11:45:36.816Z</time></trkpt><trkpt lat="41.9388424" lon="13.1500771"><ele>1354.0</ele><time>2026-04-11T11:45:43.812Z</time></trkpt><trkpt lat="41.9388769" lon="13.15015"><ele>1354.0</ele><time>2026-04-11T11:45:49.811Z</time></trkpt><trkpt lat="41.9388455" lon="13.1502344"><ele>1354.0</ele><time>2026-04-11T11:45:53.811Z</time></trkpt><trkpt lat="41.9388499" lon="13.1503359"><ele>1354.0</ele><time>2026-04-11T11:45:58.813Z</time></trkpt><trkpt lat="41.9387969" lon="13.1503969"><ele>1354.0</ele><time>2026-04-11T11:46:03.813Z</time></trkpt><trkpt lat="41.9388265" lon="13.1502929"><ele>1354.0</ele><time>2026-04-11T11:46:06.815Z</time></trkpt><trkpt lat="41.9388706" lon="13.1502071"><ele>1354.0</ele><time>2026-04-11T11:46:09.813Z</time></trkpt><trkpt lat="41.9387762" lon="13.1502028"><ele>1354.0</ele><time>2026-04-11T11:46:19.813Z</time></trkpt><trkpt lat="41.9387002" lon="13.1502401"><ele>1354.0</ele><time>2026-04-11T11:46:20.813Z</time></trkpt><trkpt lat="41.9386294" lon="13.1502048"><ele>1354.0</ele><time>2026-04-11T11:46:22.809Z</time></trkpt><trkpt lat="41.9385631" lon="13.150194"><ele>1354.0</ele><time>2026-04-11T11:46:29.812Z</time></trkpt><trkpt lat="41.9384978" lon="13.1502228"><ele>1354.0</ele><time>2026-04-11T11:46:34.811Z</time></trkpt><trkpt lat="41.9384515" lon="13.1502809"><ele>1354.0</ele><time>2026-04-11T11:46:39.815Z</time></trkpt><trkpt lat="41.9383642" lon="13.1503438"><ele>1353.7142857142856</ele><time>2026-04-11T12:16:56.811Z</time></trkpt><trkpt lat="41.9383055" lon="13.1502927"><ele>1353.4285714285713</ele><time>2026-04-11T12:17:02.812Z</time></trkpt><trkpt lat="41.9382685" lon="13.1502204"><ele>1353.142857142857</ele><time>2026-04-11T12:17:08.813Z</time></trkpt><trkpt lat="41.938247" lon="13.1501302"><ele>1352.8571428571427</ele><time>2026-04-11T12:17:15.815Z</time></trkpt><trkpt lat="41.9382337" lon="13.1500429"><ele>1352.5714285714284</ele><time>2026-04-11T12:17:20.813Z</time></trkpt><trkpt lat="41.9381955" lon="13.1499701"><ele>1352.2857142857142</ele><time>2026-04-11T12:17:26.815Z</time></trkpt><trkpt lat="41.9382474" lon="13.1499178"><ele>1352.0</ele><time>2026-04-11T12:20:03.813Z</time></trkpt><trkpt lat="41.9382995" lon="13.149869"><ele>1351.5</ele><time>2026-04-11T12:20:09.813Z</time></trkpt><trkpt lat="41.9383497" lon="13.1497704"><ele>1351.0</ele><time>2026-04-11T12:20:13.813Z</time></trkpt><trkpt lat="41.9384057" lon="13.1496736"><ele>1350.5</ele><time>2026-04-11T12:20:16.812Z</time></trkpt><trkpt lat="41.9384555" lon="13.149618"><ele>1350.0</ele><time>2026-04-11T12:20:18.812Z</time></trkpt><trkpt lat="41.9385095" lon="13.1495629"><ele>1349.5</ele><time>2026-04-11T12:20:20.812Z</time></trkpt><trkpt lat="41.9385699" lon="13.149501"><ele>1349.0</ele><time>2026-04-11T12:20:22.812Z</time></trkpt><trkpt lat="41.9386273" lon="13.1494267"><ele>1348.857142857143</ele><time>2026-04-11T12:20:24.813Z</time></trkpt><trkpt lat="41.9386709" lon="13.1493358"><ele>1348.7142857142858</ele><time>2026-04-11T12:20:26.814Z</time></trkpt><trkpt lat="41.9386917" lon="13.1492433"><ele>1348.5714285714287</ele><time>2026-04-11T12:20:28.813Z</time></trkpt><trkpt lat="41.9387017" lon="13.149155"><ele>1348.4285714285716</ele><time>2026-04-11T12:20:30.813Z</time></trkpt><trkpt lat="41.93871" lon="13.149065"><ele>1348.2857142857142</ele><time>2026-04-11T12:20:32.814Z</time></trkpt><trkpt lat="41.9387167" lon="13.1489767"><ele>1348.1428571428573</ele><time>2026-04-11T12:20:34.812Z</time></trkpt><trkpt lat="41.9387217" lon="13.148885"><ele>1348.0</ele><time>2026-04-11T12:20:36.812Z</time></trkpt><trkpt lat="41.9387267" lon="13.1487933"><ele>1347.0</ele><time>2026-04-11T12:20:38.813Z</time></trkpt><trkpt lat="41.93873" lon="13.1487"><ele>1346.0</ele><time>2026-04-11T12:20:40.813Z</time></trkpt><trkpt lat="41.9387333" lon="13.1486017"><ele>1345.0</ele><time>2026-04-11T12:20:42.813Z</time></trkpt><trkpt lat="41.9387367" lon="13.1485133"><ele>1344.0</ele><time>2026-04-11T12:20:44.818Z</time></trkpt><trkpt lat="41.9387417" lon="13.1484233"><ele>1343.0</ele><time>2026-04-11T12:20:46.813Z</time></trkpt><trkpt lat="41.93874" lon="13.1483217"><ele>1342.0</ele><time>2026-04-11T12:20:48.813Z</time></trkpt><trkpt lat="41.9387383" lon="13.1481817"><ele>1342.0</ele><time>2026-04-11T12:20:50.814Z</time></trkpt><trkpt lat="41.9387383" lon="13.1480967"><ele>1342.0</ele><time>2026-04-11T12:20:51.813Z</time></trkpt><trkpt lat="41.9387367" lon="13.1480033"><ele>1342.0</ele><time>2026-04-11T12:20:52.813Z</time></trkpt><trkpt lat="41.9387383" lon="13.147905"><ele>1342.0</ele><time>2026-04-11T12:20:53.813Z</time></trkpt><trkpt lat="41.9387383" lon="13.1478067"><ele>1342.0</ele><time>2026-04-11T12:20:54.813Z</time></trkpt><trkpt lat="41.93874" lon="13.1477067"><ele>1342.0</ele><time>2026-04-11T12:20:55.812Z</time></trkpt><trkpt lat="41.9387417" lon="13.1475983"><ele>1342.0</ele><time>2026-04-11T12:20:56.812Z</time></trkpt><trkpt lat="41.938745" lon="13.1474817"><ele>1341.1999999999998</ele><time>2026-04-11T12:20:57.813Z</time></trkpt><trkpt lat="41.93875" lon="13.1473567"><ele>1340.4</ele><time>2026-04-11T12:20:58.813Z</time></trkpt><trkpt lat="41.938755" lon="13.14723"><ele>1339.6</ele><time>2026-04-11T12:20:59.813Z</time></trkpt><trkpt lat="41.938755" lon="13.1471"><ele>1338.8000000000002</ele><time>2026-04-11T12:21:00.813Z</time></trkpt><trkpt lat="41.938755" lon="13.1469717"><ele>1338.0</ele><time>2026-04-11T12:21:01.813Z</time></trkpt><trkpt lat="41.9387567" lon="13.14684"><ele>1338.0</ele><time>2026-04-11T12:21:02.812Z</time></trkpt><trkpt lat="41.93876" lon="13.1467067"><ele>1338.0</ele><time>2026-04-11T12:21:03.813Z</time></trkpt><trkpt lat="41.938765" lon="13.1465683"><ele>1338.0</ele><time>2026-04-11T12:21:04.813Z</time></trkpt><trkpt lat="41.9387733" lon="13.1464283"><ele>1338.0</ele><time>2026-04-11T12:21:05.813Z</time></trkpt><trkpt lat="41.93878" lon="13.1462833"><ele>1338.0</ele><time>2026-04-11T12:21:06.813Z</time></trkpt><trkpt lat="41.938785" lon="13.146135"><ele>1338.6000000000001</ele><time>2026-04-11T12:21:07.813Z</time></trkpt><trkpt lat="41.9387933" lon="13.14599"><ele>1339.2</ele><time>2026-04-11T12:21:08.814Z</time></trkpt><trkpt lat="41.9388" lon="13.1458417"><ele>1339.8</ele><time>2026-04-11T12:21:09.813Z</time></trkpt><trkpt lat="41.9388067" lon="13.145695"><ele>1340.4</ele><time>2026-04-11T12:21:10.812Z</time></trkpt><trkpt lat="41.9388083" lon="13.145545"><ele>1341.0</ele><time>2026-04-11T12:21:11.814Z</time></trkpt><trkpt lat="41.93881" lon="13.145395"><ele>1342.1999999999998</ele><time>2026-04-11T12:21:12.813Z</time></trkpt><trkpt lat="41.93881" lon="13.1452467"><ele>1343.3999999999999</ele><time>2026-04-11T12:21:13.812Z</time></trkpt><trkpt lat="41.9388117" lon="13.1451033"><ele>1344.6</ele><time>2026-04-11T12:21:14.814Z</time></trkpt><trkpt lat="41.93881" lon="13.1449717"><ele>1345.8</ele><time>2026-04-11T12:21:15.812Z</time></trkpt><trkpt lat="41.9387967" lon="13.1448417"><ele>1347.0</ele><time>2026-04-11T12:21:16.813Z</time></trkpt><trkpt lat="41.93877" lon="13.144715"><ele>1348.1999999999998</ele><time>2026-04-11T12:21:17.813Z</time></trkpt><trkpt lat="41.9387317" lon="13.1445917"><ele>1349.4</ele><time>2026-04-11T12:21:18.813Z</time></trkpt><trkpt lat="41.938685" lon="13.14447"><ele>1350.6</ele><time>2026-04-11T12:21:19.812Z</time></trkpt><trkpt lat="41.93864" lon="13.144345"><ele>1351.8000000000002</ele><time>2026-04-11T12:21:20.813Z</time></trkpt><trkpt lat="41.9385983" lon="13.144225"><ele>1353.0</ele><time>2026-04-11T12:21:21.812Z</time></trkpt><trkpt lat="41.938555" lon="13.144105"><ele>1353.2</ele><time>2026-04-11T12:21:22.812Z</time></trkpt><trkpt lat="41.93851" lon="13.143985"><ele>1353.4</ele><time>2026-04-11T12:21:23.813Z</time></trkpt><trkpt lat="41.9384683" lon="13.14386"><ele>1353.6000000000001</ele><time>2026-04-11T12:21:24.813Z</time></trkpt><trkpt lat="41.9384283" lon="13.1437267"><ele>1353.8000000000002</ele><time>2026-04-11T12:21:25.812Z</time></trkpt><trkpt lat="41.9383867" lon="13.1435933"><ele>1354.0</ele><time>2026-04-11T12:21:26.814Z</time></trkpt><trkpt lat="41.938345" lon="13.1434583"><ele>1352.6</ele><time>2026-04-11T12:21:27.813Z</time></trkpt><trkpt lat="41.9383033" lon="13.1433267"><ele>1351.2</ele><time>2026-04-11T12:21:28.812Z</time></trkpt><trkpt lat="41.9382617" lon="13.1431967"><ele>1349.8</ele><time>2026-04-11T12:21:29.813Z</time></trkpt><trkpt lat="41.9382183" lon="13.14307"><ele>1348.3999999999999</ele><time>2026-04-11T12:21:30.812Z</time></trkpt><trkpt lat="41.9381767" lon="13.1429417"><ele>1347.0</ele><time>2026-04-11T12:21:31.813Z</time></trkpt><trkpt lat="41.9381317" lon="13.1428083"><ele>1347.0</ele><time>2026-04-11T12:21:32.812Z</time></trkpt><trkpt lat="41.93809" lon="13.1426717"><ele>1347.0</ele><time>2026-04-11T12:21:33.813Z</time></trkpt><trkpt lat="41.93805" lon="13.14253"><ele>1347.0</ele><time>2026-04-11T12:21:34.813Z</time></trkpt><trkpt lat="41.938015" lon="13.1423867"><ele>1347.0</ele><time>2026-04-11T12:21:35.813Z</time></trkpt><trkpt lat="41.9379883" lon="13.1422433"><ele>1347.0</ele><time>2026-04-11T12:21:36.814Z</time></trkpt><trkpt lat="41.9379783" lon="13.142095"><ele>1347.25</ele><time>2026-04-11T12:21:37.813Z</time></trkpt><trkpt lat="41.9379833" lon="13.14194"><ele>1347.5</ele><time>2026-04-11T12:21:38.815Z</time></trkpt><trkpt lat="41.9379983" lon="13.14178"><ele>1347.75</ele><time>2026-04-11T12:21:39.814Z</time></trkpt><trkpt lat="41.9380233" lon="13.14162"><ele>1348.0</ele><time>2026-04-11T12:21:40.813Z</time></trkpt><trkpt lat="41.9380417" lon="13.1414683"><ele>1346.4</ele><time>2026-04-11T12:21:41.813Z</time></trkpt><trkpt lat="41.93806" lon="13.1413217"><ele>1344.8000000000002</ele><time>2026-04-11T12:21:42.813Z</time></trkpt><trkpt lat="41.9380733" lon="13.1411733"><ele>1343.2</ele><time>2026-04-11T12:21:43.812Z</time></trkpt><trkpt lat="41.938085" lon="13.141025"><ele>1341.6</ele><time>2026-04-11T12:21:44.813Z</time></trkpt><trkpt lat="41.9380933" lon="13.1408767"><ele>1340.0</ele><time>2026-04-11T12:21:45.812Z</time></trkpt><trkpt lat="41.9381033" lon="13.1407267"><ele>1338.75</ele><time>2026-04-11T12:21:46.813Z</time></trkpt><trkpt lat="41.9381133" lon="13.1405717"><ele>1337.5</ele><time>2026-04-11T12:21:47.811Z</time></trkpt><trkpt lat="41.9381233" lon="13.1404133"><ele>1336.25</ele><time>2026-04-11T12:21:48.81Z</time></trkpt><trkpt lat="41.9381383" lon="13.1402533"><ele>1335.0</ele><time>2026-04-11T12:21:49.811Z</time></trkpt><trkpt lat="41.9381517" lon="13.1400983"><ele>1335.0</ele><time>2026-04-11T12:21:50.811Z</time></trkpt><trkpt lat="41.938165" lon="13.1399433"><ele>1335.0</ele><time>2026-04-11T12:21:51.811Z</time></trkpt><trkpt lat="41.9381783" lon="13.13979"><ele>1335.0</ele><time>2026-04-11T12:21:52.811Z</time></trkpt><trkpt lat="41.938195" lon="13.1396467"><ele>1335.0</ele><time>2026-04-11T12:21:53.811Z</time></trkpt><trkpt lat="41.9382083" lon="13.1395117"><ele>1335.0</ele><time>2026-04-11T12:21:54.813Z</time></trkpt><trkpt lat="41.9382183" lon="13.139385"><ele>1335.3333333333333</ele><time>2026-04-11T12:21:55.813Z</time></trkpt><trkpt lat="41.9382267" lon="13.139265"><ele>1335.6666666666667</ele><time>2026-04-11T12:21:56.813Z</time></trkpt><trkpt lat="41.938235" lon="13.1391533"><ele>1336.0</ele><time>2026-04-11T12:21:57.813Z</time></trkpt><trkpt lat="41.938245" lon="13.1390483"><ele>1336.3333333333335</ele><time>2026-04-11T12:21:58.813Z</time></trkpt><trkpt lat="41.9382567" lon="13.1389467"><ele>1336.6666666666667</ele><time>2026-04-11T12:21:59.813Z</time></trkpt><trkpt lat="41.9382667" lon="13.138845"><ele>1337.0</ele><time>2026-04-11T12:22:00.813Z</time></trkpt><trkpt lat="41.938275" lon="13.1387417"><ele>1336.5</ele><time>2026-04-11T12:22:01.813Z</time></trkpt><trkpt lat="41.9382867" lon="13.1386367"><ele>1336.0</ele><time>2026-04-11T12:22:02.813Z</time></trkpt><trkpt lat="41.9382983" lon="13.1385233"><ele>1335.5</ele><time>2026-04-11T12:22:03.813Z</time></trkpt><trkpt lat="41.9383083" lon="13.13841"><ele>1335.0</ele><time>2026-04-11T12:22:04.812Z</time></trkpt><trkpt lat="41.9383183" lon="13.1382933"><ele>1334.5</ele><time>2026-04-11T12:22:05.813Z</time></trkpt><trkpt lat="41.9383283" lon="13.13818"><ele>1334.0</ele><time>2026-04-11T12:22:06.814Z</time></trkpt><trkpt lat="41.9383417" lon="13.1380683"><ele>1334.0</ele><time>2026-04-11T12:22:07.813Z</time></trkpt><trkpt lat="41.9383517" lon="13.1379583"><ele>1334.0</ele><time>2026-04-11T12:22:08.813Z</time></trkpt><trkpt lat="41.9383617" lon="13.13785"><ele>1334.0</ele><time>2026-04-11T12:22:09.813Z</time></trkpt><trkpt lat="41.9383733" lon="13.137745"><ele>1334.0</ele><time>2026-04-11T12:22:10.813Z</time></trkpt><trkpt lat="41.9383883" lon="13.1376417"><ele>1334.0</ele><time>2026-04-11T12:22:11.813Z</time></trkpt><trkpt lat="41.9384117" lon="13.1375383"><ele>1334.0</ele><time>2026-04-11T12:22:12.813Z</time></trkpt><trkpt lat="41.93844" lon="13.1374333"><ele>1331.6</ele><time>2026-04-11T12:22:13.813Z</time></trkpt><trkpt lat="41.938475" lon="13.1373267"><ele>1329.2</ele><time>2026-04-11T12:22:14.813Z</time></trkpt><trkpt lat="41.938515" lon="13.1372133"><ele>1326.8</ele><time>2026-04-11T12:22:15.809Z</time></trkpt><trkpt lat="41.9385567" lon="13.137095"><ele>1324.3999999999999</ele><time>2026-04-11T12:22:16.811Z</time></trkpt><trkpt lat="41.9386017" lon="13.136975"><ele>1322.0</ele><time>2026-04-11T12:22:17.813Z</time></trkpt><trkpt lat="41.9386483" lon="13.1368483"><ele>1322.0</ele><time>2026-04-11T12:22:18.812Z</time></trkpt><trkpt lat="41.9386933" lon="13.13671"><ele>1322.0</ele><time>2026-04-11T12:22:19.812Z</time></trkpt><trkpt lat="41.93874" lon="13.13657"><ele>1322.0</ele><time>2026-04-11T12:22:20.812Z</time></trkpt><trkpt lat="41.9387867" lon="13.136425"><ele>1322.0</ele><time>2026-04-11T12:22:21.812Z</time></trkpt><trkpt lat="41.9388333" lon="13.1362683"><ele>1321.75</ele><time>2026-04-11T12:22:22.813Z</time></trkpt><trkpt lat="41.9388833" lon="13.1361133"><ele>1321.5</ele><time>2026-04-11T12:22:23.812Z</time></trkpt><trkpt lat="41.9389383" lon="13.13596"><ele>1321.25</ele><time>2026-04-11T12:22:24.814Z</time></trkpt><trkpt lat="41.938995" lon="13.1358083"><ele>1321.0</ele><time>2026-04-11T12:22:25.813Z</time></trkpt><trkpt lat="41.9390583" lon="13.1356567"><ele>1321.75</ele><time>2026-04-11T12:22:26.814Z</time></trkpt><trkpt lat="41.9391267" lon="13.1355"><ele>1322.5</ele><time>2026-04-11T12:22:27.81Z</time></trkpt><trkpt lat="41.9391967" lon="13.13534"><ele>1323.25</ele><time>2026-04-11T12:22:28.813Z</time></trkpt><trkpt lat="41.9392733" lon="13.13518"><ele>1324.0</ele><time>2026-04-11T12:22:29.813Z</time></trkpt><trkpt lat="41.9393483" lon="13.13502"><ele>1322.0</ele><time>2026-04-11T12:22:30.812Z</time></trkpt><trkpt lat="41.93943" lon="13.1348717"><ele>1320.0</ele><time>2026-04-11T12:22:31.812Z</time></trkpt><trkpt lat="41.939515" lon="13.1347267"><ele>1318.0</ele><time>2026-04-11T12:22:32.813Z</time></trkpt><trkpt lat="41.9396033" lon="13.13458"><ele>1316.0</ele><time>2026-04-11T12:22:33.812Z</time></trkpt><trkpt lat="41.9396917" lon="13.134425"><ele>1316.0</ele><time>2026-04-11T12:22:34.813Z</time></trkpt><trkpt lat="41.9397783" lon="13.134265"><ele>1316.0</ele><time>2026-04-11T12:22:35.813Z</time></trkpt><trkpt lat="41.9398567" lon="13.1341017"><ele>1316.0</ele><time>2026-04-11T12:22:36.811Z</time></trkpt><trkpt lat="41.9399367" lon="13.1339367"><ele>1316.0</ele><time>2026-04-11T12:22:37.812Z</time></trkpt><trkpt lat="41.9400183" lon="13.13377"><ele>1314.3333333333335</ele><time>2026-04-11T12:22:38.811Z</time></trkpt><trkpt lat="41.9401083" lon="13.1336033"><ele>1312.6666666666667</ele><time>2026-04-11T12:22:39.813Z</time></trkpt><trkpt lat="41.9402017" lon="13.1334383"><ele>1311.0</ele><time>2026-04-11T12:22:40.813Z</time></trkpt><trkpt lat="41.9402933" lon="13.13327"><ele>1310.6666666666667</ele><time>2026-04-11T12:22:41.812Z</time></trkpt><trkpt lat="41.9403883" lon="13.1331033"><ele>1310.3333333333335</ele><time>2026-04-11T12:22:42.813Z</time></trkpt><trkpt lat="41.9404817" lon="13.132935"><ele>1310.0</ele><time>2026-04-11T12:22:43.812Z</time></trkpt><trkpt lat="41.9405683" lon="13.1327633"><ele>1310.0</ele><time>2026-04-11T12:22:44.813Z</time></trkpt><trkpt lat="41.940655" lon="13.1325967"><ele>1310.0</ele><time>2026-04-11T12:22:45.812Z</time></trkpt><trkpt lat="41.9407433" lon="13.1324383"><ele>1310.0</ele><time>2026-04-11T12:22:46.812Z</time></trkpt><trkpt lat="41.9408267" lon="13.1322867"><ele>1310.0</ele><time>2026-04-11T12:22:47.809Z</time></trkpt><trkpt lat="41.9409083" lon="13.1321433"><ele>1304.5</ele><time>2026-04-11T12:22:48.811Z</time></trkpt><trkpt lat="41.9409733" lon="13.1319967"><ele>1299.0</ele><time>2026-04-11T12:22:49.81Z</time></trkpt><trkpt lat="41.94103" lon="13.1318417"><ele>1293.5</ele><time>2026-04-11T12:22:50.809Z</time></trkpt><trkpt lat="41.9410683" lon="13.131675"><ele>1288.0</ele><time>2026-04-11T12:22:51.81Z</time></trkpt><trkpt lat="41.941105" lon="13.1314967"><ele>1287.5</ele><time>2026-04-11T12:22:52.81Z</time></trkpt><trkpt lat="41.941155" lon="13.1313183"><ele>1287.0</ele><time>2026-04-11T12:22:53.811Z</time></trkpt><trkpt lat="41.94123" lon="13.1311467"><ele>1286.5</ele><time>2026-04-11T12:22:54.814Z</time></trkpt><trkpt lat="41.9413167" lon="13.1309883"><ele>1286.0</ele><time>2026-04-11T12:22:55.813Z</time></trkpt><trkpt lat="41.9414183" lon="13.1308467"><ele>1286.25</ele><time>2026-04-11T12:22:56.813Z</time></trkpt><trkpt lat="41.9415283" lon="13.1307133"><ele>1286.5</ele><time>2026-04-11T12:22:57.812Z</time></trkpt><trkpt lat="41.9416367" lon="13.1305733"><ele>1286.75</ele><time>2026-04-11T12:22:58.813Z</time></trkpt><trkpt lat="41.9417317" lon="13.1304267"><ele>1287.0</ele><time>2026-04-11T12:22:59.814Z</time></trkpt><trkpt lat="41.9418117" lon="13.1302767"><ele>1280.0</ele><time>2026-04-11T12:23:00.813Z</time></trkpt><trkpt lat="41.9418817" lon="13.1301317"><ele>1273.0</ele><time>2026-04-11T12:23:01.813Z</time></trkpt><trkpt lat="41.9419417" lon="13.1299917"><ele>1266.0</ele><time>2026-04-11T12:23:02.814Z</time></trkpt><trkpt lat="41.9419833" lon="13.1298633"><ele>1259.0</ele><time>2026-04-11T12:23:03.813Z</time></trkpt><trkpt lat="41.9420017" lon="13.1297383"><ele>1252.0</ele><time>2026-04-11T12:23:04.812Z</time></trkpt><trkpt lat="41.94199" lon="13.12962"><ele>1251.6</ele><time>2026-04-11T12:23:05.812Z</time></trkpt><trkpt lat="41.94196" lon="13.12952"><ele>1251.2</ele><time>2026-04-11T12:23:06.812Z</time></trkpt><trkpt lat="41.941905" lon="13.12943"><ele>1250.8</ele><time>2026-04-11T12:23:07.813Z</time></trkpt><trkpt lat="41.94183" lon="13.1293733"><ele>1250.4</ele><time>2026-04-11T12:23:08.814Z</time></trkpt><trkpt lat="41.9417367" lon="13.12934"><ele>1250.0</ele><time>2026-04-11T12:23:09.813Z</time></trkpt><trkpt lat="41.9416083" lon="13.129365"><ele>1252.5</ele><time>2026-04-11T12:23:10.812Z</time></trkpt><trkpt lat="41.9414833" lon="13.1293867"><ele>1255.0</ele><time>2026-04-11T12:23:11.813Z</time></trkpt><trkpt lat="41.9413483" lon="13.1294233"><ele>1257.5</ele><time>2026-04-11T12:23:12.812Z</time></trkpt><trkpt lat="41.9412083" lon="13.129465"><ele>1260.0</ele><time>2026-04-11T12:23:13.812Z</time></trkpt><trkpt lat="41.9410817" lon="13.129485"><ele>1260.0</ele><time>2026-04-11T12:23:14.814Z</time></trkpt><trkpt lat="41.940955" lon="13.1295"><ele>1260.0</ele><time>2026-04-11T12:23:15.813Z</time></trkpt><trkpt lat="41.940825" lon="13.1295133"><ele>1260.0</ele><time>2026-04-11T12:23:16.812Z</time></trkpt><trkpt lat="41.940695" lon="13.12953"><ele>1260.0</ele><time>2026-04-11T12:23:17.809Z</time></trkpt><trkpt lat="41.940565" lon="13.1295583"><ele>1258.0</ele><time>2026-04-11T12:23:18.81Z</time></trkpt><trkpt lat="41.9404367" lon="13.1295783"><ele>1256.0</ele><time>2026-04-11T12:23:19.809Z</time></trkpt><trkpt lat="41.9403117" lon="13.1296"><ele>1254.0</ele><time>2026-04-11T12:23:20.81Z</time></trkpt><trkpt lat="41.9401933" lon="13.129625"><ele>1252.0</ele><time>2026-04-11T12:23:21.81Z</time></trkpt><trkpt lat="41.9400767" lon="13.1296483"><ele>1251.0</ele><time>2026-04-11T12:23:22.81Z</time></trkpt><trkpt lat="41.939965" lon="13.129665"><ele>1250.0</ele><time>2026-04-11T12:23:23.811Z</time></trkpt><trkpt lat="41.9398733" lon="13.129655"><ele>1249.0</ele><time>2026-04-11T12:23:24.813Z</time></trkpt><trkpt lat="41.9397867" lon="13.1296217"><ele>1248.0</ele><time>2026-04-11T12:23:25.81Z</time></trkpt><trkpt lat="41.9397017" lon="13.12955"><ele>1247.0</ele><time>2026-04-11T12:23:26.813Z</time></trkpt><trkpt lat="41.9396167" lon="13.1294467"><ele>1247.0</ele><time>2026-04-11T12:23:27.812Z</time></trkpt><trkpt lat="41.93954" lon="13.1293283"><ele>1247.0</ele><time>2026-04-11T12:23:28.809Z</time></trkpt><trkpt lat="41.939465" lon="13.1292033"><ele>1247.0</ele><time>2026-04-11T12:23:29.81Z</time></trkpt><trkpt lat="41.9393967" lon="13.1290917"><ele>1247.0</ele><time>2026-04-11T12:23:30.811Z</time></trkpt><trkpt lat="41.9393183" lon="13.1289917"><ele>1244.5</ele><time>2026-04-11T12:23:31.809Z</time></trkpt><trkpt lat="41.9392267" lon="13.1289033"><ele>1242.0</ele><time>2026-04-11T12:23:32.813Z</time></trkpt><trkpt lat="41.9391083" lon="13.128855"><ele>1239.5</ele><time>2026-04-11T12:23:33.812Z</time></trkpt><trkpt lat="41.938975" lon="13.1288217"><ele>1237.0</ele><time>2026-04-11T12:23:34.813Z</time></trkpt><trkpt lat="41.938835" lon="13.1288"><ele>1237.0</ele><time>2026-04-11T12:23:35.812Z</time></trkpt><trkpt lat="41.9387167" lon="13.12878"><ele>1237.0</ele><time>2026-04-11T12:23:36.812Z</time></trkpt><trkpt lat="41.9386067" lon="13.1287633"><ele>1237.0</ele><time>2026-04-11T12:23:37.813Z</time></trkpt><trkpt lat="41.9385083" lon="13.1287533"><ele>1237.0</ele><time>2026-04-11T12:23:38.813Z</time></trkpt><trkpt lat="41.9384133" lon="13.1287783"><ele>1237.0</ele><time>2026-04-11T12:23:39.814Z</time></trkpt><trkpt lat="41.9383283" lon="13.1288383"><ele>1238.6</ele><time>2026-04-11T12:23:40.813Z</time></trkpt><trkpt lat="41.9382583" lon="13.1289217"><ele>1240.2</ele><time>2026-04-11T12:23:41.813Z</time></trkpt><trkpt lat="41.9381817" lon="13.129005"><ele>1241.8</ele><time>2026-04-11T12:23:42.813Z</time></trkpt><trkpt lat="41.9380967" lon="13.1290633"><ele>1243.4</ele><time>2026-04-11T12:23:43.813Z</time></trkpt><trkpt lat="41.9379933" lon="13.1290933"><ele>1245.0</ele><time>2026-04-11T12:23:44.813Z</time></trkpt><trkpt lat="41.9378883" lon="13.1290883"><ele>1245.0</ele><time>2026-04-11T12:23:45.813Z</time></trkpt><trkpt lat="41.9377717" lon="13.12905"><ele>1245.0</ele><time>2026-04-11T12:23:46.812Z</time></trkpt><trkpt lat="41.9376483" lon="13.1290017"><ele>1245.0</ele><time>2026-04-11T12:23:47.812Z</time></trkpt><trkpt lat="41.937525" lon="13.1289833"><ele>1245.0</ele><time>2026-04-11T12:23:48.813Z</time></trkpt><trkpt lat="41.937395" lon="13.1290017"><ele>1246.5</ele><time>2026-04-11T12:23:49.812Z</time></trkpt><trkpt lat="41.9372783" lon="13.129065"><ele>1248.0</ele><time>2026-04-11T12:23:50.815Z</time></trkpt><trkpt lat="41.9371733" lon="13.1291683"><ele>1249.5</ele><time>2026-04-11T12:23:51.813Z</time></trkpt><trkpt lat="41.9370733" lon="13.1292867"><ele>1251.0</ele><time>2026-04-11T12:23:52.813Z</time></trkpt><trkpt lat="41.9369817" lon="13.129405"><ele>1251.0</ele><time>2026-04-11T12:23:53.813Z</time></trkpt><trkpt lat="41.9368967" lon="13.1295183"><ele>1251.0</ele><time>2026-04-11T12:23:54.813Z</time></trkpt><trkpt lat="41.9368117" lon="13.129635"><ele>1251.0</ele><time>2026-04-11T12:23:55.813Z</time></trkpt><trkpt lat="41.9367333" lon="13.1297483"><ele>1251.0</ele><time>2026-04-11T12:23:56.814Z</time></trkpt><trkpt lat="41.9366617" lon="13.1298483"><ele>1249.2</ele><time>2026-04-11T12:23:57.813Z</time></trkpt><trkpt lat="41.936595" lon="13.12994"><ele>1247.3999999999999</ele><time>2026-04-11T12:23:58.812Z</time></trkpt><trkpt lat="41.9365383" lon="13.1300333"><ele>1245.6</ele><time>2026-04-11T12:23:59.813Z</time></trkpt><trkpt lat="41.9365" lon="13.1301417"><ele>1243.8</ele><time>2026-04-11T12:24:00.813Z</time></trkpt><trkpt lat="41.9364933" lon="13.130275"><ele>1242.0</ele><time>2026-04-11T12:24:01.814Z</time></trkpt><trkpt lat="41.9365167" lon="13.1304317"><ele>1242.0</ele><time>2026-04-11T12:24:02.813Z</time></trkpt><trkpt lat="41.9365483" lon="13.1305933"><ele>1242.0</ele><time>2026-04-11T12:24:03.813Z</time></trkpt><trkpt lat="41.936575" lon="13.13075"><ele>1242.0</ele><time>2026-04-11T12:24:04.81Z</time></trkpt><trkpt lat="41.9366067" lon="13.1309"><ele>1242.0</ele><time>2026-04-11T12:24:05.814Z</time></trkpt><trkpt lat="41.9366383" lon="13.131045"><ele>1241.8</ele><time>2026-04-11T12:24:06.814Z</time></trkpt><trkpt lat="41.93667" lon="13.13118"><ele>1241.6</ele><time>2026-04-11T12:24:07.814Z</time></trkpt><trkpt lat="41.93669" lon="13.1313083"><ele>1241.3999999999999</ele><time>2026-04-11T12:24:08.814Z</time></trkpt><trkpt lat="41.9367033" lon="13.13143"><ele>1241.2</ele><time>2026-04-11T12:24:09.81Z</time></trkpt><trkpt lat="41.9367117" lon="13.131545"><ele>1241.0</ele><time>2026-04-11T12:24:10.815Z</time></trkpt><trkpt lat="41.93672" lon="13.1316517"><ele>1241.1666666666667</ele><time>2026-04-11T12:24:11.813Z</time></trkpt><trkpt lat="41.9367283" lon="13.1317433"><ele>1241.3333333333335</ele><time>2026-04-11T12:24:12.813Z</time></trkpt><trkpt lat="41.9367217" lon="13.1318767"><ele>1241.5</ele><time>2026-04-11T12:24:14.813Z</time></trkpt><trkpt lat="41.9366633" lon="13.1319333"><ele>1241.6666666666667</ele><time>2026-04-11T12:24:16.81Z</time></trkpt><trkpt lat="41.936595" lon="13.1318717"><ele>1241.8333333333333</ele><time>2026-04-11T12:24:18.813Z</time></trkpt><trkpt lat="41.9365717" lon="13.131775"><ele>1242.0</ele><time>2026-04-11T12:24:19.813Z</time></trkpt><trkpt lat="41.9365517" lon="13.1316683"><ele>1241.75</ele><time>2026-04-11T12:24:20.815Z</time></trkpt><trkpt lat="41.9365333" lon="13.1314983"><ele>1241.5</ele><time>2026-04-11T12:24:21.812Z</time></trkpt><trkpt lat="41.9364983" lon="13.131335"><ele>1241.25</ele><time>2026-04-11T12:24:22.812Z</time></trkpt><trkpt lat="41.9364533" lon="13.131165"><ele>1241.0</ele><time>2026-04-11T12:24:23.813Z</time></trkpt><trkpt lat="41.93639" lon="13.1310083"><ele>1241.0</ele><time>2026-04-11T12:24:24.813Z</time></trkpt><trkpt lat="41.9363133" lon="13.1308617"><ele>1241.0</ele><time>2026-04-11T12:24:25.813Z</time></trkpt><trkpt lat="41.9362167" lon="13.1307283"><ele>1241.0</ele><time>2026-04-11T12:24:26.813Z</time></trkpt><trkpt lat="41.9361017" lon="13.1306267"><ele>1241.0</ele><time>2026-04-11T12:24:27.81Z</time></trkpt><trkpt lat="41.936" lon="13.1305517"><ele>1241.1666666666667</ele><time>2026-04-11T12:24:28.81Z</time></trkpt><trkpt lat="41.93591" lon="13.1305083"><ele>1241.3333333333335</ele><time>2026-04-11T12:24:29.813Z</time></trkpt><trkpt lat="41.9358383" lon="13.1304567"><ele>1241.5</ele><time>2026-04-11T12:24:30.813Z</time></trkpt><trkpt lat="41.935775" lon="13.130395"><ele>1241.6666666666667</ele><time>2026-04-11T12:24:31.813Z</time></trkpt><trkpt lat="41.935745" lon="13.13032"><ele>1241.8333333333333</ele><time>2026-04-11T12:24:32.81Z</time></trkpt><trkpt lat="41.935745" lon="13.130155"><ele>1242.0</ele><time>2026-04-11T12:24:34.809Z</time></trkpt><trkpt lat="41.9357933" lon="13.1300267"><ele>1238.75</ele><time>2026-04-11T12:24:35.81Z</time></trkpt><trkpt lat="41.9358817" lon="13.1298333"><ele>1235.5</ele><time>2026-04-11T12:24:36.813Z</time></trkpt><trkpt lat="41.9359167" lon="13.1296867"><ele>1232.25</ele><time>2026-04-11T12:24:37.811Z</time></trkpt><trkpt lat="41.935965" lon="13.1295567"><ele>1229.0</ele><time>2026-04-11T12:24:38.813Z</time></trkpt><trkpt lat="41.9360217" lon="13.1294367"><ele>1229.0</ele><time>2026-04-11T12:24:39.812Z</time></trkpt><trkpt lat="41.9360767" lon="13.1293317"><ele>1229.0</ele><time>2026-04-11T12:24:40.811Z</time></trkpt><trkpt lat="41.9361367" lon="13.1292217"><ele>1229.0</ele><time>2026-04-11T12:24:41.813Z</time></trkpt><trkpt lat="41.93621" lon="13.1291117"><ele>1229.0</ele><time>2026-04-11T12:24:42.814Z</time></trkpt><trkpt lat="41.93628" lon="13.129005"><ele>1229.0</ele><time>2026-04-11T12:24:43.811Z</time></trkpt><trkpt lat="41.9363483" lon="13.1289083"><ele>1225.3333333333335</ele><time>2026-04-11T12:24:44.812Z</time></trkpt><trkpt lat="41.936405" lon="13.1288117"><ele>1221.6666666666667</ele><time>2026-04-11T12:24:45.812Z</time></trkpt><trkpt lat="41.9364567" lon="13.1287083"><ele>1218.0</ele><time>2026-04-11T12:24:46.813Z</time></trkpt><trkpt lat="41.9365017" lon="13.1286083"><ele>1214.3333333333333</ele><time>2026-04-11T12:24:47.812Z</time></trkpt><trkpt lat="41.9365533" lon="13.1285283"><ele>1210.6666666666665</ele><time>2026-04-11T12:24:48.813Z</time></trkpt><trkpt lat="41.9366217" lon="13.1284683"><ele>1207.0</ele><time>2026-04-11T12:24:49.813Z</time></trkpt><trkpt lat="41.936715" lon="13.1284233"><ele>1210.2</ele><time>2026-04-11T12:24:50.812Z</time></trkpt><trkpt lat="41.93682" lon="13.128375"><ele>1213.4</ele><time>2026-04-11T12:24:51.813Z</time></trkpt><trkpt lat="41.9369233" lon="13.128315"><ele>1216.6</ele><time>2026-04-11T12:24:52.813Z</time></trkpt><trkpt lat="41.9370033" lon="13.1282333"><ele>1219.8</ele><time>2026-04-11T12:24:53.813Z</time></trkpt><trkpt lat="41.9370533" lon="13.12814"><ele>1223.0</ele><time>2026-04-11T12:24:54.809Z</time></trkpt><trkpt lat="41.937085" lon="13.1280433"><ele>1223.0</ele><time>2026-04-11T12:24:55.81Z</time></trkpt><trkpt lat="41.93709" lon="13.1279367"><ele>1223.0</ele><time>2026-04-11T12:24:56.809Z</time></trkpt><trkpt lat="41.9370883" lon="13.1278283"><ele>1223.0</ele><time>2026-04-11T12:24:57.813Z</time></trkpt><trkpt lat="41.9370617" lon="13.1276833"><ele>1223.0</ele><time>2026-04-11T12:24:58.81Z</time></trkpt><trkpt lat="41.937055" lon="13.127535"><ele>1223.0</ele><time>2026-04-11T12:24:59.812Z</time></trkpt><trkpt lat="41.9370717" lon="13.1273683"><ele>1218.25</ele><time>2026-04-11T12:25:00.811Z</time></trkpt><trkpt lat="41.9370933" lon="13.1271967"><ele>1213.5</ele><time>2026-04-11T12:25:01.812Z</time></trkpt><trkpt lat="41.93712" lon="13.1270267"><ele>1208.75</ele><time>2026-04-11T12:25:02.812Z</time></trkpt><trkpt lat="41.937145" lon="13.1268467"><ele>1204.0</ele><time>2026-04-11T12:25:03.815Z</time></trkpt><trkpt lat="41.9371783" lon="13.12667"><ele>1196.75</ele><time>2026-04-11T12:25:04.814Z</time></trkpt><trkpt lat="41.9372233" lon="13.1265167"><ele>1189.5</ele><time>2026-04-11T12:25:05.813Z</time></trkpt><trkpt lat="41.9372783" lon="13.1263817"><ele>1182.25</ele><time>2026-04-11T12:25:06.81Z</time></trkpt><trkpt lat="41.93735" lon="13.1262633"><ele>1175.0</ele><time>2026-04-11T12:25:07.811Z</time></trkpt><trkpt lat="41.937425" lon="13.1261733"><ele>1175.0</ele><time>2026-04-11T12:25:08.811Z</time></trkpt><trkpt lat="41.9375083" lon="13.1261117"><ele>1175.0</ele><time>2026-04-11T12:25:09.811Z</time></trkpt><trkpt lat="41.9376017" lon="13.1260833"><ele>1175.0</ele><time>2026-04-11T12:25:10.813Z</time></trkpt><trkpt lat="41.9377067" lon="13.1260917"><ele>1175.0</ele><time>2026-04-11T12:25:11.812Z</time></trkpt><trkpt lat="41.93781" lon="13.126105"><ele>1175.0</ele><time>2026-04-11T12:25:12.813Z</time></trkpt><trkpt lat="41.93791" lon="13.1261233"><ele>1173.3333333333335</ele><time>2026-04-11T12:25:13.813Z</time></trkpt><trkpt lat="41.9379983" lon="13.1261383"><ele>1171.6666666666667</ele><time>2026-04-11T12:25:14.812Z</time></trkpt><trkpt lat="41.9380667" lon="13.12617"><ele>1170.0</ele><time>2026-04-11T12:25:15.813Z</time></trkpt><trkpt lat="41.938125" lon="13.12622"><ele>1168.3333333333333</ele><time>2026-04-11T12:25:16.813Z</time></trkpt><trkpt lat="41.9381767" lon="13.1262733"><ele>1166.6666666666665</ele><time>2026-04-11T12:25:17.811Z</time></trkpt><trkpt lat="41.9382317" lon="13.1263367"><ele>1165.0</ele><time>2026-04-11T12:25:18.81Z</time></trkpt><trkpt lat="41.93828" lon="13.1264317"><ele>1165.0</ele><time>2026-04-11T12:25:19.81Z</time></trkpt><trkpt lat="41.9383367" lon="13.126545"><ele>1165.0</ele><time>2026-04-11T12:25:20.811Z</time></trkpt><trkpt lat="41.9383917" lon="13.1266717"><ele>1165.0</ele><time>2026-04-11T12:25:21.81Z</time></trkpt><trkpt lat="41.9384533" lon="13.1268083"><ele>1165.0</ele><time>2026-04-11T12:25:22.811Z</time></trkpt><trkpt lat="41.9385217" lon="13.12695"><ele>1160.8</ele><time>2026-04-11T12:25:23.811Z</time></trkpt><trkpt lat="41.9385933" lon="13.127085"><ele>1156.6</ele><time>2026-04-11T12:25:24.813Z</time></trkpt><trkpt lat="41.9386633" lon="13.1272083"><ele>1152.4</ele><time>2026-04-11T12:25:25.813Z</time></trkpt><trkpt lat="41.9387333" lon="13.127315"><ele>1148.2</ele><time>2026-04-11T12:25:26.812Z</time></trkpt><trkpt lat="41.938815" lon="13.1273967"><ele>1144.0</ele><time>2026-04-11T12:25:27.813Z</time></trkpt><trkpt lat="41.9389167" lon="13.127445"><ele>1148.8</ele><time>2026-04-11T12:25:28.813Z</time></trkpt><trkpt lat="41.9390333" lon="13.1274533"><ele>1153.6000000000001</ele><time>2026-04-11T12:25:29.813Z</time></trkpt><trkpt lat="41.9391417" lon="13.1274533"><ele>1158.4</ele><time>2026-04-11T12:25:30.813Z</time></trkpt><trkpt lat="41.939255" lon="13.1274517"><ele>1163.2</ele><time>2026-04-11T12:25:31.812Z</time></trkpt><trkpt lat="41.93936" lon="13.127455"><ele>1168.0</ele><time>2026-04-11T12:25:32.81Z</time></trkpt><trkpt lat="41.939465" lon="13.1274733"><ele>1168.0</ele><time>2026-04-11T12:25:33.813Z</time></trkpt><trkpt lat="41.93957" lon="13.1275133"><ele>1168.0</ele><time>2026-04-11T12:25:34.814Z</time></trkpt><trkpt lat="41.939665" lon="13.1275717"><ele>1168.0</ele><time>2026-04-11T12:25:35.813Z</time></trkpt><trkpt lat="41.9397633" lon="13.1276567"><ele>1168.0</ele><time>2026-04-11T12:25:36.813Z</time></trkpt><trkpt lat="41.9398583" lon="13.1277517"><ele>1168.0</ele><time>2026-04-11T12:25:37.818Z</time></trkpt><trkpt lat="41.9399517" lon="13.1278517"><ele>1164.0</ele><time>2026-04-11T12:25:38.809Z</time></trkpt><trkpt lat="41.94005" lon="13.127935"><ele>1160.0</ele><time>2026-04-11T12:25:39.814Z</time></trkpt><trkpt lat="41.9401567" lon="13.1279917"><ele>1156.0</ele><time>2026-04-11T12:25:40.815Z</time></trkpt><trkpt lat="41.9402733" lon="13.1280117"><ele>1152.0</ele><time>2026-04-11T12:25:41.813Z</time></trkpt><trkpt lat="41.9403867" lon="13.1279983"><ele>1152.0</ele><time>2026-04-11T12:25:42.814Z</time></trkpt><trkpt lat="41.9404933" lon="13.1279717"><ele>1152.0</ele><time>2026-04-11T12:25:43.814Z</time></trkpt><trkpt lat="41.9405967" lon="13.1279467"><ele>1152.0</ele><time>2026-04-11T12:25:44.815Z</time></trkpt><trkpt lat="41.9406967" lon="13.1279083"><ele>1152.0</ele><time>2026-04-11T12:25:45.812Z</time></trkpt><trkpt lat="41.9407983" lon="13.1278467"><ele>1152.0</ele><time>2026-04-11T12:25:46.812Z</time></trkpt><trkpt lat="41.9409117" lon="13.12778"><ele>1156.5</ele><time>2026-04-11T12:25:47.813Z</time></trkpt><trkpt lat="41.9410467" lon="13.1277117"><ele>1161.0</ele><time>2026-04-11T12:25:48.813Z</time></trkpt><trkpt lat="41.9411883" lon="13.127635"><ele>1165.5</ele><time>2026-04-11T12:25:49.812Z</time></trkpt><trkpt lat="41.9413167" lon="13.1275467"><ele>1170.0</ele><time>2026-04-11T12:25:50.813Z</time></trkpt><trkpt lat="41.941435" lon="13.1274633"><ele>1170.0</ele><time>2026-04-11T12:25:51.813Z</time></trkpt><trkpt lat="41.94155" lon="13.1274067"><ele>1170.0</ele><time>2026-04-11T12:25:52.813Z</time></trkpt><trkpt lat="41.9416667" lon="13.1273617"><ele>1170.0</ele><time>2026-04-11T12:25:53.812Z</time></trkpt><trkpt lat="41.9417767" lon="13.127335"><ele>1170.0</ele><time>2026-04-11T12:25:54.813Z</time></trkpt><trkpt lat="41.9418783" lon="13.1273083"><ele>1167.2</ele><time>2026-04-11T12:25:55.814Z</time></trkpt><trkpt lat="41.9419683" lon="13.1272667"><ele>1164.4</ele><time>2026-04-11T12:25:56.813Z</time></trkpt><trkpt lat="41.942045" lon="13.12719"><ele>1161.6</ele><time>2026-04-11T12:25:57.813Z</time></trkpt><trkpt lat="41.9421167" lon="13.1270967"><ele>1158.8</ele><time>2026-04-11T12:25:58.809Z</time></trkpt><trkpt lat="41.942185" lon="13.1269817"><ele>1156.0</ele><time>2026-04-11T12:25:59.809Z</time></trkpt><trkpt lat="41.94226" lon="13.126865"><ele>1156.0</ele><time>2026-04-11T12:26:00.81Z</time></trkpt><trkpt lat="41.94235" lon="13.1267467"><ele>1156.0</ele><time>2026-04-11T12:26:01.809Z</time></trkpt><trkpt lat="41.94245" lon="13.12664"><ele>1156.0</ele><time>2026-04-11T12:26:02.81Z</time></trkpt><trkpt lat="41.9425583" lon="13.12655"><ele>1156.0</ele><time>2026-04-11T12:26:03.813Z</time></trkpt><trkpt lat="41.942675" lon="13.1264817"><ele>1146.0</ele><time>2026-04-11T12:26:04.811Z</time></trkpt><trkpt lat="41.942795" lon="13.126435"><ele>1136.0</ele><time>2026-04-11T12:26:05.812Z</time></trkpt><trkpt lat="41.94292" lon="13.1264183"><ele>1126.0</ele><time>2026-04-11T12:26:06.812Z</time></trkpt><trkpt lat="41.9430533" lon="13.126445"><ele>1116.0</ele><time>2026-04-11T12:26:07.812Z</time></trkpt><trkpt lat="41.943185" lon="13.1264833"><ele>1116.0</ele><time>2026-04-11T12:26:08.813Z</time></trkpt><trkpt lat="41.9433033" lon="13.1265333"><ele>1116.0</ele><time>2026-04-11T12:26:09.813Z</time></trkpt><trkpt lat="41.9434117" lon="13.1265783"><ele>1116.0</ele><time>2026-04-11T12:26:10.812Z</time></trkpt><trkpt lat="41.943505" lon="13.12661"><ele>1116.0</ele><time>2026-04-11T12:26:11.813Z</time></trkpt><trkpt lat="41.9435817" lon="13.1266517"><ele>1116.0</ele><time>2026-04-11T12:26:12.812Z</time></trkpt><trkpt lat="41.9436467" lon="13.1267033"><ele>1115.0</ele><time>2026-04-11T12:26:13.814Z</time></trkpt><trkpt lat="41.943695" lon="13.126775"><ele>1114.0</ele><time>2026-04-11T12:26:14.813Z</time></trkpt><trkpt lat="41.943725" lon="13.12688"><ele>1113.0</ele><time>2026-04-11T12:26:15.813Z</time></trkpt><trkpt lat="41.9437433" lon="13.12701"><ele>1112.0</ele><time>2026-04-11T12:26:16.812Z</time></trkpt><trkpt lat="41.9437733" lon="13.1271467"><ele>1111.0</ele><time>2026-04-11T12:26:17.813Z</time></trkpt><trkpt lat="41.94382" lon="13.1272883"><ele>1115.0</ele><time>2026-04-11T12:26:18.814Z</time></trkpt><trkpt lat="41.9438717" lon="13.1274283"><ele>1119.0</ele><time>2026-04-11T12:26:19.812Z</time></trkpt><trkpt lat="41.9439283" lon="13.12756"><ele>1123.0</ele><time>2026-04-11T12:26:20.812Z</time></trkpt><trkpt lat="41.9439767" lon="13.127695"><ele>1127.0</ele><time>2026-04-11T12:26:21.814Z</time></trkpt><trkpt lat="41.944015" lon="13.12783"><ele>1131.0</ele><time>2026-04-11T12:26:22.813Z</time></trkpt><trkpt lat="41.9440417" lon="13.127965"><ele>1131.0</ele><time>2026-04-11T12:26:23.813Z</time></trkpt><trkpt lat="41.9440517" lon="13.128105"><ele>1131.0</ele><time>2026-04-11T12:26:24.813Z</time></trkpt><trkpt lat="41.9440567" lon="13.12824"><ele>1131.0</ele><time>2026-04-11T12:26:25.813Z</time></trkpt><trkpt lat="41.9440717" lon="13.1283683"><ele>1131.0</ele><time>2026-04-11T12:26:26.811Z</time></trkpt><trkpt lat="41.9440917" lon="13.1284817"><ele>1131.0</ele><time>2026-04-11T12:26:27.812Z</time></trkpt><trkpt lat="41.944115" lon="13.1285783"><ele>1133.2</ele><time>2026-04-11T12:26:28.812Z</time></trkpt><trkpt lat="41.9441383" lon="13.1286583"><ele>1135.3999999999999</ele><time>2026-04-11T12:26:29.812Z</time></trkpt><trkpt lat="41.94423" lon="13.128775"><ele>1137.6</ele><time>2026-04-11T12:26:31.813Z</time></trkpt><trkpt lat="41.9443083" lon="13.1287867"><ele>1139.8</ele><time>2026-04-11T12:26:32.813Z</time></trkpt><trkpt lat="41.9443967" lon="13.128795"><ele>1142.0</ele><time>2026-04-11T12:26:33.811Z</time></trkpt><trkpt lat="41.9445067" lon="13.1287633"><ele>1142.0</ele><time>2026-04-11T12:26:34.811Z</time></trkpt><trkpt lat="41.9446317" lon="13.1286833"><ele>1142.0</ele><time>2026-04-11T12:26:35.811Z</time></trkpt><trkpt lat="41.944745" lon="13.1286067"><ele>1142.0</ele><time>2026-04-11T12:26:36.813Z</time></trkpt><trkpt lat="41.9448533" lon="13.1285133"><ele>1142.0</ele><time>2026-04-11T12:26:37.813Z</time></trkpt><trkpt lat="41.9449383" lon="13.1284167"><ele>1142.0</ele><time>2026-04-11T12:26:38.812Z</time></trkpt><trkpt lat="41.9450267" lon="13.128305"><ele>1142.0</ele><time>2026-04-11T12:26:39.812Z</time></trkpt><trkpt lat="41.945105" lon="13.12819"><ele>1142.0</ele><time>2026-04-11T12:26:40.813Z</time></trkpt><trkpt lat="41.94517" lon="13.1280517"><ele>1142.0</ele><time>2026-04-11T12:26:41.813Z</time></trkpt><trkpt lat="41.9452383" lon="13.1279167"><ele>1141.5</ele><time>2026-04-11T12:26:42.813Z</time></trkpt><trkpt lat="41.945315" lon="13.1277833"><ele>1141.0</ele><time>2026-04-11T12:26:43.81Z</time></trkpt><trkpt lat="41.9454067" lon="13.1276583"><ele>1140.5</ele><time>2026-04-11T12:26:44.81Z</time></trkpt><trkpt lat="41.945505" lon="13.1275383"><ele>1140.0</ele><time>2026-04-11T12:26:45.813Z</time></trkpt><trkpt lat="41.9456033" lon="13.12743"><ele>1139.0</ele><time>2026-04-11T12:26:46.813Z</time></trkpt><trkpt lat="41.9457083" lon="13.1273283"><ele>1138.0</ele><time>2026-04-11T12:26:47.813Z</time></trkpt><trkpt lat="41.945825" lon="13.1272367"><ele>1137.0</ele><time>2026-04-11T12:26:48.81Z</time></trkpt><trkpt lat="41.945945" lon="13.12715"><ele>1136.0</ele><time>2026-04-11T12:26:49.81Z</time></trkpt><trkpt lat="41.94606" lon="13.1270533"><ele>1136.0</ele><time>2026-04-11T12:26:50.812Z</time></trkpt><trkpt lat="41.9461633" lon="13.1269417"><ele>1136.0</ele><time>2026-04-11T12:26:51.81Z</time></trkpt><trkpt lat="41.9462583" lon="13.12681"><ele>1136.0</ele><time>2026-04-11T12:26:52.81Z</time></trkpt><trkpt lat="41.9463583" lon="13.126675"><ele>1136.0</ele><time>2026-04-11T12:26:53.813Z</time></trkpt><trkpt lat="41.9464617" lon="13.126545"><ele>1138.25</ele><time>2026-04-11T12:26:54.809Z</time></trkpt><trkpt lat="41.9465683" lon="13.1264133"><ele>1140.5</ele><time>2026-04-11T12:26:55.811Z</time></trkpt><trkpt lat="41.9466717" lon="13.12628"><ele>1142.75</ele><time>2026-04-11T12:26:56.812Z</time></trkpt><trkpt lat="41.946765" lon="13.12614"><ele>1145.0</ele><time>2026-04-11T12:26:57.812Z</time></trkpt><trkpt lat="41.9468567" lon="13.1260067"><ele>1145.0</ele><time>2026-04-11T12:26:58.811Z</time></trkpt><trkpt lat="41.9469433" lon="13.1258733"><ele>1145.0</ele><time>2026-04-11T12:26:59.81Z</time></trkpt><trkpt lat="41.947025" lon="13.12574"><ele>1145.0</ele><time>2026-04-11T12:27:00.811Z</time></trkpt><trkpt lat="41.9471" lon="13.1256033"><ele>1145.0</ele><time>2026-04-11T12:27:01.81Z</time></trkpt><trkpt lat="41.947175" lon="13.1254767"><ele>1137.75</ele><time>2026-04-11T12:27:02.81Z</time></trkpt><trkpt lat="41.94724" lon="13.12534"><ele>1130.5</ele><time>2026-04-11T12:27:03.811Z</time></trkpt><trkpt lat="41.9473017" lon="13.1251867"><ele>1123.25</ele><time>2026-04-11T12:27:04.81Z</time></trkpt><trkpt lat="41.947365" lon="13.125005"><ele>1116.0</ele><time>2026-04-11T12:27:05.81Z</time></trkpt><trkpt lat="41.9474367" lon="13.1247983"><ele>1108.0</ele><time>2026-04-11T12:27:06.811Z</time></trkpt><trkpt lat="41.9475333" lon="13.1245983"><ele>1100.0</ele><time>2026-04-11T12:27:07.813Z</time></trkpt><trkpt lat="41.94762" lon="13.1243983"><ele>1092.0</ele><time>2026-04-11T12:27:08.811Z</time></trkpt><trkpt lat="41.9477117" lon="13.12423"><ele>1103.3333333333333</ele><time>2026-04-11T12:27:09.811Z</time></trkpt><trkpt lat="41.9477867" lon="13.12406"><ele>1114.6666666666665</ele><time>2026-04-11T12:27:10.813Z</time></trkpt><trkpt lat="41.9478417" lon="13.1238617"><ele>1126.0</ele><time>2026-04-11T12:27:11.81Z</time></trkpt><trkpt lat="41.9478683" lon="13.1236283"><ele>1126.0</ele><time>2026-04-11T12:27:12.811Z</time></trkpt><trkpt lat="41.9478767" lon="13.1233967"><ele>1126.0</ele><time>2026-04-11T12:27:13.81Z</time></trkpt><trkpt lat="41.9478717" lon="13.12319"><ele>1126.0</ele><time>2026-04-11T12:27:14.811Z</time></trkpt><trkpt lat="41.94786" lon="13.1230117"><ele>1123.75</ele><time>2026-04-11T12:27:15.813Z</time></trkpt><trkpt lat="41.94784" lon="13.12285"><ele>1121.5</ele><time>2026-04-11T12:27:16.815Z</time></trkpt><trkpt lat="41.9478033" lon="13.1226883"><ele>1119.25</ele><time>2026-04-11T12:27:17.813Z</time></trkpt><trkpt lat="41.947755" lon="13.12252"><ele>1117.0</ele><time>2026-04-11T12:27:18.81Z</time></trkpt><trkpt lat="41.9477117" lon="13.122345"><ele>1112.5</ele><time>2026-04-11T12:27:19.81Z</time></trkpt><trkpt lat="41.9476783" lon="13.1221583"><ele>1108.0</ele><time>2026-04-11T12:27:20.811Z</time></trkpt><trkpt lat="41.9476483" lon="13.121975"><ele>1103.5</ele><time>2026-04-11T12:27:21.809Z</time></trkpt><trkpt lat="41.9476233" lon="13.1218017"><ele>1099.0</ele><time>2026-04-11T12:27:22.809Z</time></trkpt><trkpt lat="41.9476017" lon="13.1216417"><ele>1092.5</ele><time>2026-04-11T12:27:23.81Z</time></trkpt><trkpt lat="41.9475883" lon="13.1215017"><ele>1086.0</ele><time>2026-04-11T12:27:24.811Z</time></trkpt><trkpt lat="41.947585" lon="13.1213767"><ele>1079.5</ele><time>2026-04-11T12:27:25.811Z</time></trkpt><trkpt lat="41.9476067" lon="13.121265"><ele>1073.0</ele><time>2026-04-11T12:27:26.812Z</time></trkpt><trkpt lat="41.9476483" lon="13.121175"><ele>1066.5</ele><time>2026-04-11T12:27:27.811Z</time></trkpt><trkpt lat="41.9477067" lon="13.1211183"><ele>1060.0</ele><time>2026-04-11T12:27:28.811Z</time></trkpt><trkpt lat="41.9477867" lon="13.1211233"><ele>1060.0</ele><time>2026-04-11T12:27:29.81Z</time></trkpt><trkpt lat="41.9478833" lon="13.1211633"><ele>1060.0</ele><time>2026-04-11T12:27:30.813Z</time></trkpt><trkpt lat="41.9479933" lon="13.12122"><ele>1060.0</ele><time>2026-04-11T12:27:31.813Z</time></trkpt><trkpt lat="41.948135" lon="13.1213167"><ele>1060.0</ele><time>2026-04-11T12:27:32.812Z</time></trkpt><trkpt lat="41.9482717" lon="13.121395"><ele>1055.75</ele><time>2026-04-11T12:27:33.813Z</time></trkpt><trkpt lat="41.94841" lon="13.1214683"><ele>1051.5</ele><time>2026-04-11T12:27:34.813Z</time></trkpt><trkpt lat="41.948545" lon="13.1215183"><ele>1047.25</ele><time>2026-04-11T12:27:35.812Z</time></trkpt><trkpt lat="41.9486833" lon="13.1215483"><ele>1043.0</ele><time>2026-04-11T12:27:36.813Z</time></trkpt><trkpt lat="41.9488167" lon="13.1215667"><ele>1048.25</ele><time>2026-04-11T12:27:37.814Z</time></trkpt><trkpt lat="41.9489533" lon="13.12158"><ele>1053.5</ele><time>2026-04-11T12:27:38.813Z</time></trkpt><trkpt lat="41.9490817" lon="13.1215917"><ele>1058.75</ele><time>2026-04-11T12:27:39.813Z</time></trkpt><trkpt lat="41.9492067" lon="13.1216"><ele>1064.0</ele><time>2026-04-11T12:27:40.814Z</time></trkpt><trkpt lat="41.949335" lon="13.12161"><ele>1064.0</ele><time>2026-04-11T12:27:41.813Z</time></trkpt><trkpt lat="41.9494583" lon="13.1216167"><ele>1064.0</ele><time>2026-04-11T12:27:42.813Z</time></trkpt><trkpt lat="41.9495767" lon="13.1216483"><ele>1064.0</ele><time>2026-04-11T12:27:43.813Z</time></trkpt><trkpt lat="41.9496867" lon="13.1216967"><ele>1064.0</ele><time>2026-04-11T12:27:44.813Z</time></trkpt><trkpt lat="41.9498033" lon="13.1217633"><ele>1064.0</ele><time>2026-04-11T12:27:45.813Z</time></trkpt><trkpt lat="41.9499283" lon="13.1218633"><ele>1064.0</ele><time>2026-04-11T12:27:46.813Z</time></trkpt><trkpt lat="41.9500483" lon="13.1219833"><ele>1064.0</ele><time>2026-04-11T12:27:47.812Z</time></trkpt><trkpt lat="41.9501567" lon="13.1221183"><ele>1064.0</ele><time>2026-04-11T12:27:48.809Z</time></trkpt><trkpt lat="41.9502533" lon="13.1222533"><ele>1060.5</ele><time>2026-04-11T12:27:49.81Z</time></trkpt><trkpt lat="41.9503417" lon="13.1223867"><ele>1057.0</ele><time>2026-04-11T12:27:50.809Z</time></trkpt><trkpt lat="41.95042" lon="13.1225367"><ele>1053.5</ele><time>2026-04-11T12:27:51.809Z</time></trkpt><trkpt lat="41.9504933" lon="13.12269"><ele>1050.0</ele><time>2026-04-11T12:27:52.809Z</time></trkpt><trkpt lat="41.9505583" lon="13.1228433"><ele>1050.0</ele><time>2026-04-11T12:27:53.81Z</time></trkpt><trkpt lat="41.95061" lon="13.1230017"><ele>1050.0</ele><time>2026-04-11T12:27:54.809Z</time></trkpt><trkpt lat="41.9506483" lon="13.1231617"><ele>1050.0</ele><time>2026-04-11T12:27:55.811Z</time></trkpt><trkpt lat="41.9506817" lon="13.12332"><ele>1050.0</ele><time>2026-04-11T12:27:56.811Z</time></trkpt><trkpt lat="41.95071" lon="13.12347"><ele>1048.3333333333333</ele><time>2026-04-11T12:27:57.811Z</time></trkpt><trkpt lat="41.9507383" lon="13.1236117"><ele>1046.6666666666667</ele><time>2026-04-11T12:27:58.81Z</time></trkpt><trkpt lat="41.950765" lon="13.12374"><ele>1045.0</ele><time>2026-04-11T12:27:59.813Z</time></trkpt><trkpt lat="41.95079" lon="13.12385"><ele>1043.3333333333335</ele><time>2026-04-11T12:28:00.812Z</time></trkpt><trkpt lat="41.950815" lon="13.1239433"><ele>1041.6666666666667</ele><time>2026-04-11T12:28:01.813Z</time></trkpt><trkpt lat="41.9508483" lon="13.12402"><ele>1040.0</ele><time>2026-04-11T12:28:02.811Z</time></trkpt><trkpt lat="41.9509217" lon="13.1241"><ele>1035.5</ele><time>2026-04-11T12:28:04.812Z</time></trkpt><trkpt lat="41.950995" lon="13.124055"><ele>1031.0</ele><time>2026-04-11T12:28:06.811Z</time></trkpt><trkpt lat="41.9509933" lon="13.1239633"><ele>1026.5</ele><time>2026-04-11T12:28:07.81Z</time></trkpt><trkpt lat="41.950935" lon="13.12375"><ele>1022.0</ele><time>2026-04-11T12:28:08.81Z</time></trkpt><trkpt lat="41.9508917" lon="13.12356"><ele>1029.0</ele><time>2026-04-11T12:28:09.811Z</time></trkpt><trkpt lat="41.9508583" lon="13.1234017"><ele>1036.0</ele><time>2026-04-11T12:28:10.813Z</time></trkpt><trkpt lat="41.9508317" lon="13.123245"><ele>1043.0</ele><time>2026-04-11T12:28:11.813Z</time></trkpt><trkpt lat="41.950805" lon="13.1230933"><ele>1050.0</ele><time>2026-04-11T12:28:12.813Z</time></trkpt><trkpt lat="41.950775" lon="13.1229317"><ele>1050.0</ele><time>2026-04-11T12:28:13.811Z</time></trkpt><trkpt lat="41.9507433" lon="13.122765"><ele>1050.0</ele><time>2026-04-11T12:28:14.811Z</time></trkpt><trkpt lat="41.950705" lon="13.1225983"><ele>1050.0</ele><time>2026-04-11T12:28:15.81Z</time></trkpt><trkpt lat="41.950655" lon="13.1224367"><ele>1050.0</ele><time>2026-04-11T12:28:16.81Z</time></trkpt><trkpt lat="41.9505933" lon="13.1222817"><ele>1044.5</ele><time>2026-04-11T12:28:17.809Z</time></trkpt><trkpt lat="41.95052" lon="13.1221367"><ele>1039.0</ele><time>2026-04-11T12:28:18.811Z</time></trkpt><trkpt lat="41.9504417" lon="13.121995"><ele>1033.5</ele><time>2026-04-11T12:28:19.811Z</time></trkpt><trkpt lat="41.9503567" lon="13.1218583"><ele>1028.0</ele><time>2026-04-11T12:28:20.81Z</time></trkpt><trkpt lat="41.9502683" lon="13.1217217"><ele>1028.0</ele><time>2026-04-11T12:28:21.809Z</time></trkpt><trkpt lat="41.9501733" lon="13.1215833"><ele>1028.0</ele><time>2026-04-11T12:28:22.81Z</time></trkpt><trkpt lat="41.9500717" lon="13.1214483"><ele>1028.0</ele><time>2026-04-11T12:28:23.811Z</time></trkpt><trkpt lat="41.9499583" lon="13.12132"><ele>1028.0</ele><time>2026-04-11T12:28:24.812Z</time></trkpt><trkpt lat="41.949835" lon="13.121205"><ele>1028.0</ele><time>2026-04-11T12:28:25.809Z</time></trkpt><trkpt lat="41.9497083" lon="13.1211083"><ele>1028.0</ele><time>2026-04-11T12:28:26.811Z</time></trkpt><trkpt lat="41.94958" lon="13.1210317"><ele>1028.0</ele><time>2026-04-11T12:28:27.81Z</time></trkpt><trkpt lat="41.9494467" lon="13.1209733"><ele>1028.0</ele><time>2026-04-11T12:28:28.81Z</time></trkpt><trkpt lat="41.94931" lon="13.120925"><ele>1031.75</ele><time>2026-04-11T12:28:29.81Z</time></trkpt><trkpt lat="41.9491717" lon="13.120875"><ele>1035.5</ele><time>2026-04-11T12:28:30.81Z</time></trkpt><trkpt lat="41.9490317" lon="13.1208283"><ele>1039.25</ele><time>2026-04-11T12:28:31.814Z</time></trkpt><trkpt lat="41.9488933" lon="13.1207767"><ele>1043.0</ele><time>2026-04-11T12:28:32.814Z</time></trkpt><trkpt lat="41.9487533" lon="13.1207167"><ele>1037.75</ele><time>2026-04-11T12:28:33.813Z</time></trkpt><trkpt lat="41.9486133" lon="13.12065"><ele>1032.5</ele><time>2026-04-11T12:28:34.809Z</time></trkpt><trkpt lat="41.9484817" lon="13.12056"><ele>1027.25</ele><time>2026-04-11T12:28:35.813Z</time></trkpt><trkpt lat="41.94836" lon="13.12047"><ele>1022.0</ele><time>2026-04-11T12:28:36.812Z</time></trkpt><trkpt lat="41.94824" lon="13.1203817"><ele>1022.0</ele><time>2026-04-11T12:28:37.812Z</time></trkpt><trkpt lat="41.94812" lon="13.1203067"><ele>1022.0</ele><time>2026-04-11T12:28:38.813Z</time></trkpt><trkpt lat="41.9480033" lon="13.120225"><ele>1022.0</ele><time>2026-04-11T12:28:39.813Z</time></trkpt><trkpt lat="41.9478867" lon="13.1201467"><ele>1022.0</ele><time>2026-04-11T12:28:40.809Z</time></trkpt><trkpt lat="41.94777" lon="13.12006"><ele>1022.0</ele><time>2026-04-11T12:28:41.813Z</time></trkpt><trkpt lat="41.9476533" lon="13.1199683"><ele>1022.0</ele><time>2026-04-11T12:28:42.81Z</time></trkpt><trkpt lat="41.947545" lon="13.1198683"><ele>1022.0</ele><time>2026-04-11T12:28:43.812Z</time></trkpt><trkpt lat="41.9474483" lon="13.1197483"><ele>1022.0</ele><time>2026-04-11T12:28:44.81Z</time></trkpt><trkpt lat="41.9473583" lon="13.1196267"><ele>1018.25</ele><time>2026-04-11T12:28:45.814Z</time></trkpt><trkpt lat="41.9472733" lon="13.1195067"><ele>1014.5</ele><time>2026-04-11T12:28:46.812Z</time></trkpt><trkpt lat="41.9471917" lon="13.1193917"><ele>1010.75</ele><time>2026-04-11T12:28:47.81Z</time></trkpt><trkpt lat="41.9471117" lon="13.1192783"><ele>1007.0</ele><time>2026-04-11T12:28:48.812Z</time></trkpt><trkpt lat="41.9470333" lon="13.1191717"><ele>1007.0</ele><time>2026-04-11T12:28:49.81Z</time></trkpt><trkpt lat="41.9469583" lon="13.1190717"><ele>1007.0</ele><time>2026-04-11T12:28:50.812Z</time></trkpt><trkpt lat="41.94689" lon="13.1189933"><ele>1007.0</ele><time>2026-04-11T12:28:51.811Z</time></trkpt><trkpt lat="41.9468183" lon="13.118945"><ele>1007.0</ele><time>2026-04-11T12:28:52.813Z</time></trkpt><trkpt lat="41.9467483" lon="13.11891"><ele>1007.0</ele><time>2026-04-11T12:28:53.814Z</time></trkpt><trkpt lat="41.9466117" lon="13.1190183"><ele>1009.25</ele><time>2026-04-11T12:28:55.811Z</time></trkpt><trkpt lat="41.9465483" lon="13.1191767"><ele>1011.5</ele><time>2026-04-11T12:28:56.812Z</time></trkpt><trkpt lat="41.9465317" lon="13.119345"><ele>1013.75</ele><time>2026-04-11T12:28:57.811Z</time></trkpt><trkpt lat="41.9465233" lon="13.1195167"><ele>1016.0</ele><time>2026-04-11T12:28:58.81Z</time></trkpt><trkpt lat="41.94652" lon="13.1196917"><ele>1016.0</ele><time>2026-04-11T12:28:59.814Z</time></trkpt><trkpt lat="41.9465167" lon="13.11986"><ele>1016.0</ele><time>2026-04-11T12:29:00.813Z</time></trkpt><trkpt lat="41.94652" lon="13.1200417"><ele>1016.0</ele><time>2026-04-11T12:29:01.814Z</time></trkpt><trkpt lat="41.9465117" lon="13.1202283"><ele>1016.0</ele><time>2026-04-11T12:29:02.813Z</time></trkpt><trkpt lat="41.946495" lon="13.1204267"><ele>1018.6666666666667</ele><time>2026-04-11T12:29:03.813Z</time></trkpt><trkpt lat="41.9464767" lon="13.1206283"><ele>1021.3333333333333</ele><time>2026-04-11T12:29:04.813Z</time></trkpt><trkpt lat="41.9464567" lon="13.1208267"><ele>1024.0</ele><time>2026-04-11T12:29:05.812Z</time></trkpt><trkpt lat="41.94644" lon="13.1210317"><ele>1024.0</ele><time>2026-04-11T12:29:06.813Z</time></trkpt><trkpt lat="41.946425" lon="13.12124"><ele>1024.0</ele><time>2026-04-11T12:29:07.812Z</time></trkpt><trkpt lat="41.9464067" lon="13.121455"><ele>1024.0</ele><time>2026-04-11T12:29:08.813Z</time></trkpt><trkpt lat="41.9463883" lon="13.12167"><ele>1025.6666666666665</ele><time>2026-04-11T12:29:09.813Z</time></trkpt><trkpt lat="41.94637" lon="13.1218817"><ele>1027.3333333333333</ele><time>2026-04-11T12:29:10.813Z</time></trkpt><trkpt lat="41.94635" lon="13.1220867"><ele>1029.0</ele><time>2026-04-11T12:29:11.814Z</time></trkpt><trkpt lat="41.9463267" lon="13.12228"><ele>1029.5</ele><time>2026-04-11T12:29:12.813Z</time></trkpt><trkpt lat="41.946305" lon="13.1224717"><ele>1030.0</ele><time>2026-04-11T12:29:13.813Z</time></trkpt><trkpt lat="41.946285" lon="13.1226567"><ele>1030.5</ele><time>2026-04-11T12:29:14.813Z</time></trkpt><trkpt lat="41.9462567" lon="13.1228317"><ele>1031.0</ele><time>2026-04-11T12:29:15.812Z</time></trkpt><trkpt lat="41.9462267" lon="13.1229983"><ele>1031.0</ele><time>2026-04-11T12:29:16.812Z</time></trkpt><trkpt lat="41.9461867" lon="13.1231567"><ele>1031.0</ele><time>2026-04-11T12:29:17.81Z</time></trkpt><trkpt lat="41.9461367" lon="13.1233117"><ele>1031.0</ele><time>2026-04-11T12:29:18.811Z</time></trkpt><trkpt lat="41.94608" lon="13.123455"><ele>1031.0</ele><time>2026-04-11T12:29:19.81Z</time></trkpt><trkpt lat="41.9460233" lon="13.1235833"><ele>1031.5</ele><time>2026-04-11T12:29:20.812Z</time></trkpt><trkpt lat="41.9459717" lon="13.1236917"><ele>1032.0</ele><time>2026-04-11T12:29:21.811Z</time></trkpt><trkpt lat="41.945925" lon="13.12379"><ele>1032.5</ele><time>2026-04-11T12:29:22.81Z</time></trkpt><trkpt lat="41.9458833" lon="13.1238783"><ele>1033.0</ele><time>2026-04-11T12:29:23.81Z</time></trkpt><trkpt lat="41.9458433" lon="13.1239583"><ele>1033.5</ele><time>2026-04-11T12:29:24.812Z</time></trkpt><trkpt lat="41.9457633" lon="13.124055"><ele>1034.0</ele><time>2026-04-11T12:29:26.813Z</time></trkpt><trkpt lat="41.945695" lon="13.1239867"><ele>1034.0</ele><time>2026-04-11T12:29:28.814Z</time></trkpt><trkpt lat="41.9457267" lon="13.12388"><ele>1034.0</ele><time>2026-04-11T12:29:29.814Z</time></trkpt><trkpt lat="41.9457783" lon="13.12378"><ele>1034.0</ele><time>2026-04-11T12:29:30.813Z</time></trkpt><trkpt lat="41.945855" lon="13.1236533"><ele>1034.0</ele><time>2026-04-11T12:29:31.812Z</time></trkpt><trkpt lat="41.9459267" lon="13.12351"><ele>1034.0</ele><time>2026-04-11T12:29:32.811Z</time></trkpt><trkpt lat="41.9459917" lon="13.1233633"><ele>1033.25</ele><time>2026-04-11T12:29:33.81Z</time></trkpt><trkpt lat="41.9460533" lon="13.12321"><ele>1032.5</ele><time>2026-04-11T12:29:34.811Z</time></trkpt><trkpt lat="41.9460917" lon="13.1230333"><ele>1031.75</ele><time>2026-04-11T12:29:35.812Z</time></trkpt><trkpt lat="41.9461017" lon="13.1228217"><ele>1031.0</ele><time>2026-04-11T12:29:36.811Z</time></trkpt><trkpt lat="41.9460917" lon="13.12258"><ele>1030.3333333333335</ele><time>2026-04-11T12:29:37.814Z</time></trkpt><trkpt lat="41.946075" lon="13.122335"><ele>1029.6666666666667</ele><time>2026-04-11T12:29:38.811Z</time></trkpt><trkpt lat="41.9460633" lon="13.1221"><ele>1029.0</ele><time>2026-04-11T12:29:39.811Z</time></trkpt><trkpt lat="41.9460533" lon="13.1218633"><ele>1029.0</ele><time>2026-04-11T12:29:40.81Z</time></trkpt><trkpt lat="41.946045" lon="13.12163"><ele>1029.0</ele><time>2026-04-11T12:29:41.812Z</time></trkpt><trkpt lat="41.94604" lon="13.1214"><ele>1029.0</ele><time>2026-04-11T12:29:42.811Z</time></trkpt><trkpt lat="41.9460383" lon="13.1211783"><ele>1027.3333333333333</ele><time>2026-04-11T12:29:43.811Z</time></trkpt><trkpt lat="41.9460333" lon="13.1209583"><ele>1025.6666666666665</ele><time>2026-04-11T12:29:44.809Z</time></trkpt><trkpt lat="41.9460333" lon="13.1207317"><ele>1024.0</ele><time>2026-04-11T12:29:45.813Z</time></trkpt><trkpt lat="41.9460317" lon="13.1205033"><ele>1024.0</ele><time>2026-04-11T12:29:46.81Z</time></trkpt><trkpt lat="41.9460267" lon="13.120265"><ele>1024.0</ele><time>2026-04-11T12:29:47.811Z</time></trkpt><trkpt lat="41.94602" lon="13.1200133"><ele>1024.0</ele><time>2026-04-11T12:29:48.811Z</time></trkpt><trkpt lat="41.946015" lon="13.1197467"><ele>1021.3333333333333</ele><time>2026-04-11T12:29:49.81Z</time></trkpt><trkpt lat="41.946005" lon="13.1194767"><ele>1018.6666666666667</ele><time>2026-04-11T12:29:50.811Z</time></trkpt><trkpt lat="41.9459933" lon="13.11922"><ele>1016.0</ele><time>2026-04-11T12:29:51.811Z</time></trkpt><trkpt lat="41.9459867" lon="13.118985"><ele>1009.0</ele><time>2026-04-11T12:29:52.809Z</time></trkpt><trkpt lat="41.9459833" lon="13.1187683"><ele>1002.0</ele><time>2026-04-11T12:29:53.81Z</time></trkpt><trkpt lat="41.9459733" lon="13.1185633"><ele>995.0</ele><time>2026-04-11T12:29:54.811Z</time></trkpt><trkpt lat="41.9459667" lon="13.1183733"><ele>985.5</ele><time>2026-04-11T12:29:55.81Z</time></trkpt><trkpt lat="41.9459767" lon="13.118185"><ele>976.0</ele><time>2026-04-11T12:29:56.811Z</time></trkpt><trkpt lat="41.9460067" lon="13.118015"><ele>966.5</ele><time>2026-04-11T12:29:57.81Z</time></trkpt><trkpt lat="41.946055" lon="13.1178717"><ele>957.0</ele><time>2026-04-11T12:29:58.811Z</time></trkpt><trkpt lat="41.9461283" lon="13.1177667"><ele>957.0</ele><time>2026-04-11T12:29:59.811Z</time></trkpt><trkpt lat="41.946195" lon="13.1176767"><ele>957.0</ele><time>2026-04-11T12:30:00.809Z</time></trkpt><trkpt lat="41.9462417" lon="13.1175867"><ele>957.0</ele><time>2026-04-11T12:30:01.811Z</time></trkpt><trkpt lat="41.9462767" lon="13.1175117"><ele>957.0</ele><time>2026-04-11T12:30:02.809Z</time></trkpt><trkpt lat="41.9462467" lon="13.1173867"><ele>957.0</ele><time>2026-04-11T12:30:04.809Z</time></trkpt><trkpt lat="41.9461683" lon="13.117405"><ele>957.0</ele><time>2026-04-11T12:30:05.811Z</time></trkpt><trkpt lat="41.94611" lon="13.1174567"><ele>957.0</ele><time>2026-04-11T12:30:06.81Z</time></trkpt><trkpt lat="41.945995" lon="13.1176617"><ele>957.0</ele><time>2026-04-11T12:30:07.81Z</time></trkpt><trkpt lat="41.9459367" lon="13.1178133"><ele>957.0</ele><time>2026-04-11T12:30:08.811Z</time></trkpt><trkpt lat="41.9458883" lon="13.1179767"><ele>957.0</ele><time>2026-04-11T12:30:09.81Z</time></trkpt><trkpt lat="41.9458517" lon="13.118135"><ele>957.75</ele><time>2026-04-11T12:30:10.81Z</time></trkpt><trkpt lat="41.9458333" lon="13.1183"><ele>958.5</ele><time>2026-04-11T12:30:11.813Z</time></trkpt><trkpt lat="41.9458117" lon="13.1184717"><ele>959.25</ele><time>2026-04-11T12:30:12.814Z</time></trkpt><trkpt lat="41.9457917" lon="13.1186467"><ele>960.0</ele><time>2026-04-11T12:30:13.813Z</time></trkpt><trkpt lat="41.94577" lon="13.1188167"><ele>960.0</ele><time>2026-04-11T12:30:14.813Z</time></trkpt><trkpt lat="41.9457417" lon="13.1189867"><ele>960.0</ele><time>2026-04-11T12:30:15.81Z</time></trkpt><trkpt lat="41.9457117" lon="13.119165"><ele>960.0</ele><time>2026-04-11T12:30:16.813Z</time></trkpt><trkpt lat="41.9456767" lon="13.1193533"><ele>960.0</ele><time>2026-04-11T12:30:17.814Z</time></trkpt><trkpt lat="41.9456383" lon="13.119565"><ele>963.0</ele><time>2026-04-11T12:30:18.812Z</time></trkpt><trkpt lat="41.9455983" lon="13.11979"><ele>966.0</ele><time>2026-04-11T12:30:19.813Z</time></trkpt><trkpt lat="41.9455517" lon="13.12003"><ele>969.0</ele><time>2026-04-11T12:30:20.813Z</time></trkpt><trkpt lat="41.9454967" lon="13.1202883"><ele>970.0</ele><time>2026-04-11T12:30:21.813Z</time></trkpt><trkpt lat="41.9454433" lon="13.1205367"><ele>971.0</ele><time>2026-04-11T12:30:22.813Z</time></trkpt><trkpt lat="41.9453917" lon="13.1207567"><ele>972.0</ele><time>2026-04-11T12:30:23.812Z</time></trkpt><trkpt lat="41.94535" lon="13.12095"><ele>973.25</ele><time>2026-04-11T12:30:24.81Z</time></trkpt><trkpt lat="41.9453133" lon="13.121125"><ele>974.5</ele><time>2026-04-11T12:30:25.814Z</time></trkpt><trkpt lat="41.94528" lon="13.12129"><ele>975.75</ele><time>2026-04-11T12:30:26.813Z</time></trkpt><trkpt lat="41.9452483" lon="13.12144"><ele>977.0</ele><time>2026-04-11T12:30:27.814Z</time></trkpt><trkpt lat="41.9452233" lon="13.12159"><ele>977.6</ele><time>2026-04-11T12:30:28.81Z</time></trkpt><trkpt lat="41.9452067" lon="13.1217267"><ele>978.2</ele><time>2026-04-11T12:30:29.809Z</time></trkpt><trkpt lat="41.9451917" lon="13.1218417"><ele>978.8</ele><time>2026-04-11T12:30:30.811Z</time></trkpt><trkpt lat="41.9451733" lon="13.1219333"><ele>979.4</ele><time>2026-04-11T12:30:31.811Z</time></trkpt><trkpt lat="41.9451083" lon="13.122025"><ele>980.0</ele><time>2026-04-11T12:30:33.81Z</time></trkpt><trkpt lat="41.9450517" lon="13.12191"><ele>979.25</ele><time>2026-04-11T12:30:35.812Z</time></trkpt><trkpt lat="41.9450367" lon="13.121815"><ele>978.5</ele><time>2026-04-11T12:30:36.81Z</time></trkpt><trkpt lat="41.94504" lon="13.1216367"><ele>977.75</ele><time>2026-04-11T12:30:37.812Z</time></trkpt><trkpt lat="41.9450633" lon="13.121405"><ele>977.0</ele><time>2026-04-11T12:30:38.812Z</time></trkpt><trkpt lat="41.9450783" lon="13.12114"><ele>977.0</ele><time>2026-04-11T12:30:39.812Z</time></trkpt><trkpt lat="41.9451" lon="13.12084"><ele>977.0</ele><time>2026-04-11T12:30:40.81Z</time></trkpt><trkpt lat="41.9451083" lon="13.1205667"><ele>977.0</ele><time>2026-04-11T12:30:41.811Z</time></trkpt><trkpt lat="41.9451167" lon="13.120305"><ele>975.3333333333334</ele><time>2026-04-11T12:30:42.811Z</time></trkpt><trkpt lat="41.9451233" lon="13.120055"><ele>973.6666666666667</ele><time>2026-04-11T12:30:43.814Z</time></trkpt><trkpt lat="41.9451267" lon="13.1198117"><ele>972.0</ele><time>2026-04-11T12:30:44.814Z</time></trkpt><trkpt lat="41.9451267" lon="13.1195833"><ele>971.0</ele><time>2026-04-11T12:30:45.813Z</time></trkpt><trkpt lat="41.9451267" lon="13.1193733"><ele>970.0</ele><time>2026-04-11T12:30:46.813Z</time></trkpt><trkpt lat="41.9451267" lon="13.11917"><ele>969.0</ele><time>2026-04-11T12:30:47.814Z</time></trkpt><trkpt lat="41.9451283" lon="13.1189717"><ele>966.75</ele><time>2026-04-11T12:30:48.813Z</time></trkpt><trkpt lat="41.9451267" lon="13.1187733"><ele>964.5</ele><time>2026-04-11T12:30:49.813Z</time></trkpt><trkpt lat="41.9451267" lon="13.118575"><ele>962.25</ele><time>2026-04-11T12:30:50.813Z</time></trkpt><trkpt lat="41.9451267" lon="13.1183717"><ele>960.0</ele><time>2026-04-11T12:30:51.813Z</time></trkpt><trkpt lat="41.9451333" lon="13.1181633"><ele>955.6666666666667</ele><time>2026-04-11T12:30:52.813Z</time></trkpt><trkpt lat="41.9451417" lon="13.11795"><ele>951.3333333333334</ele><time>2026-04-11T12:30:53.813Z</time></trkpt><trkpt lat="41.9451583" lon="13.1177383"><ele>947.0</ele><time>2026-04-11T12:30:54.809Z</time></trkpt><trkpt lat="41.9451883" lon="13.1175367"><ele>941.5</ele><time>2026-04-11T12:30:55.809Z</time></trkpt><trkpt lat="41.9452267" lon="13.1173433"><ele>936.0</ele><time>2026-04-11T12:30:56.81Z</time></trkpt><trkpt lat="41.9452783" lon="13.1171633"><ele>930.5</ele><time>2026-04-11T12:30:57.812Z</time></trkpt><trkpt lat="41.94534" lon="13.116995"><ele>925.0</ele><time>2026-04-11T12:30:58.81Z</time></trkpt><trkpt lat="41.9454067" lon="13.1168417"><ele>925.0</ele><time>2026-04-11T12:30:59.812Z</time></trkpt><trkpt lat="41.9454733" lon="13.1166883"><ele>925.0</ele><time>2026-04-11T12:31:00.81Z</time></trkpt><trkpt lat="41.9455717" lon="13.11653"><ele>925.0</ele><time>2026-04-11T12:31:02.042Z</time></trkpt><trkpt lat="41.9455033" lon="13.1163"><ele>918.6666666666666</ele><time>2026-04-11T12:31:03.021Z</time></trkpt><trkpt lat="41.9455533" lon="13.11605"><ele>912.3333333333333</ele><time>2026-04-11T12:31:04.311Z</time></trkpt><trkpt lat="41.94556" lon="13.1157633"><ele>906.0</ele><time>2026-04-11T12:31:05.81Z</time></trkpt><trkpt lat="41.94557" lon="13.1155833"><ele>902.5999999999999</ele><time>2026-04-11T12:31:06.81Z</time></trkpt><trkpt lat="41.9455717" lon="13.1154167"><ele>899.1999999999999</ele><time>2026-04-11T12:31:07.809Z</time></trkpt><trkpt lat="41.9455817" lon="13.1152617"><ele>895.8000000000001</ele><time>2026-04-11T12:31:08.809Z</time></trkpt><trkpt lat="41.9456033" lon="13.1151233"><ele>892.4000000000001</ele><time>2026-04-11T12:31:09.81Z</time></trkpt><trkpt lat="41.945625" lon="13.1150017"><ele>889.0</ele><time>2026-04-11T12:31:10.81Z</time></trkpt><trkpt lat="41.9456383" lon="13.1148933"><ele>889.0</ele><time>2026-04-11T12:31:11.81Z</time></trkpt><trkpt lat="41.945565" lon="13.11478"><ele>889.0</ele><time>2026-04-11T12:31:13.81Z</time></trkpt><trkpt lat="41.9454667" lon="13.1148867"><ele>889.0</ele><time>2026-04-11T12:31:15.81Z</time></trkpt><trkpt lat="41.94544" lon="13.1150467"><ele>889.0</ele><time>2026-04-11T12:31:16.809Z</time></trkpt><trkpt lat="41.9454133" lon="13.11524"><ele>889.0</ele><time>2026-04-11T12:31:17.811Z</time></trkpt><trkpt lat="41.9453817" lon="13.1154683"><ele>889.0</ele><time>2026-04-11T12:31:18.809Z</time></trkpt><trkpt lat="41.94535" lon="13.1157217"><ele>889.0</ele><time>2026-04-11T12:31:19.811Z</time></trkpt><trkpt lat="41.9453283" lon="13.1159517"><ele>893.25</ele><time>2026-04-11T12:31:20.812Z</time></trkpt><trkpt lat="41.94531" lon="13.1161417"><ele>897.5</ele><time>2026-04-11T12:31:21.81Z</time></trkpt><trkpt lat="41.9452833" lon="13.1162967"><ele>901.75</ele><time>2026-04-11T12:31:22.814Z</time></trkpt><trkpt lat="41.9452383" lon="13.1164333"><ele>906.0</ele><time>2026-04-11T12:31:23.811Z</time></trkpt><trkpt lat="41.9451783" lon="13.1165567"><ele>910.75</ele><time>2026-04-11T12:31:24.813Z</time></trkpt><trkpt lat="41.9451033" lon="13.1166667"><ele>915.5</ele><time>2026-04-11T12:31:25.81Z</time></trkpt><trkpt lat="41.94502" lon="13.1167767"><ele>920.25</ele><time>2026-04-11T12:31:26.81Z</time></trkpt><trkpt lat="41.944925" lon="13.116885"><ele>925.0</ele><time>2026-04-11T12:31:27.81Z</time></trkpt><trkpt lat="41.9448417" lon="13.117005"><ele>919.25</ele><time>2026-04-11T12:31:28.81Z</time></trkpt><trkpt lat="41.94476" lon="13.1171333"><ele>913.5</ele><time>2026-04-11T12:31:29.811Z</time></trkpt><trkpt lat="41.9446883" lon="13.1172667"><ele>907.75</ele><time>2026-04-11T12:31:30.81Z</time></trkpt><trkpt lat="41.944625" lon="13.1174"><ele>902.0</ele><time>2026-04-11T12:31:31.811Z</time></trkpt><trkpt lat="41.94458" lon="13.1175317"><ele>902.0000000000001</ele><time>2026-04-11T12:31:32.81Z</time></trkpt><trkpt lat="41.9445433" lon="13.1176633"><ele>902.0</ele><time>2026-04-11T12:31:33.81Z</time></trkpt><trkpt lat="41.9445183" lon="13.11779"><ele>902.0</ele><time>2026-04-11T12:31:34.81Z</time></trkpt><trkpt lat="41.9444967" lon="13.1179033"><ele>902.0</ele><time>2026-04-11T12:31:35.811Z</time></trkpt><trkpt lat="41.9444767" lon="13.118"><ele>902.0000000000001</ele><time>2026-04-11T12:31:36.81Z</time></trkpt><trkpt lat="41.9444633" lon="13.118085"><ele>902.0</ele><time>2026-04-11T12:31:37.81Z</time></trkpt><trkpt lat="41.9444167" lon="13.1181817"><ele>902.0</ele><time>2026-04-11T12:31:39.81Z</time></trkpt><trkpt lat="41.9443717" lon="13.11809"><ele>902.0</ele><time>2026-04-11T12:31:41.811Z</time></trkpt><trkpt lat="41.9443817" lon="13.1180017"><ele>902.0</ele><time>2026-04-11T12:31:42.81Z</time></trkpt><trkpt lat="41.944405" lon="13.11789"><ele>902.0</ele><time>2026-04-11T12:31:43.811Z</time></trkpt><trkpt lat="41.94443" lon="13.11775"><ele>902.0</ele><time>2026-04-11T12:31:44.811Z</time></trkpt><trkpt lat="41.944445" lon="13.11758"><ele>902.0</ele><time>2026-04-11T12:31:45.81Z</time></trkpt><trkpt lat="41.9444533" lon="13.1174067"><ele>902.0</ele><time>2026-04-11T12:31:46.81Z</time></trkpt><trkpt lat="41.9444617" lon="13.1172283"><ele>902.0</ele><time>2026-04-11T12:31:47.811Z</time></trkpt><trkpt lat="41.94448" lon="13.1170567"><ele>902.0</ele><time>2026-04-11T12:31:48.81Z</time></trkpt><trkpt lat="41.9445217" lon="13.11689"><ele>897.75</ele><time>2026-04-11T12:31:49.81Z</time></trkpt><trkpt lat="41.9445917" lon="13.11674"><ele>893.5</ele><time>2026-04-11T12:31:50.812Z</time></trkpt><trkpt lat="41.9446733" lon="13.1166"><ele>889.25</ele><time>2026-04-11T12:31:51.811Z</time></trkpt><trkpt lat="41.94474" lon="13.11645"><ele>885.0</ele><time>2026-04-11T12:31:52.81Z</time></trkpt><trkpt lat="41.9447833" lon="13.1162833"><ele>880.6666666666667</ele><time>2026-04-11T12:31:53.812Z</time></trkpt><trkpt lat="41.944795" lon="13.11608"><ele>876.3333333333334</ele><time>2026-04-11T12:31:54.809Z</time></trkpt><trkpt lat="41.944755" lon="13.11584"><ele>872.0</ele><time>2026-04-11T12:31:55.81Z</time></trkpt><trkpt lat="41.9447183" lon="13.115595"><ele>870.3333333333334</ele><time>2026-04-11T12:31:56.811Z</time></trkpt><trkpt lat="41.944685" lon="13.115355"><ele>868.6666666666667</ele><time>2026-04-11T12:31:57.809Z</time></trkpt><trkpt lat="41.9446533" lon="13.115135"><ele>867.0</ele><time>2026-04-11T12:31:58.809Z</time></trkpt><trkpt lat="41.9446233" lon="13.1149417"><ele>864.25</ele><time>2026-04-11T12:31:59.811Z</time></trkpt><trkpt lat="41.9446067" lon="13.1147633"><ele>861.5</ele><time>2026-04-11T12:32:00.812Z</time></trkpt><trkpt lat="41.944605" lon="13.1145933"><ele>858.75</ele><time>2026-04-11T12:32:01.812Z</time></trkpt><trkpt lat="41.9446183" lon="13.1144317"><ele>856.0</ele><time>2026-04-11T12:32:02.811Z</time></trkpt><trkpt lat="41.944645" lon="13.1142733"><ele>856.0</ele><time>2026-04-11T12:32:03.811Z</time></trkpt><trkpt lat="41.9446733" lon="13.114115"><ele>856.0</ele><time>2026-04-11T12:32:04.809Z</time></trkpt><trkpt lat="41.9447033" lon="13.1139533"><ele>856.0</ele><time>2026-04-11T12:32:05.81Z</time></trkpt><trkpt lat="41.9447383" lon="13.1137883"><ele>856.0</ele><time>2026-04-11T12:32:06.81Z</time></trkpt><trkpt lat="41.9447883" lon="13.113625"><ele>850.5999999999999</ele><time>2026-04-11T12:32:07.81Z</time></trkpt><trkpt lat="41.9448533" lon="13.1134767"><ele>845.1999999999999</ele><time>2026-04-11T12:32:08.811Z</time></trkpt><trkpt lat="41.9449283" lon="13.1133517"><ele>839.8</ele><time>2026-04-11T12:32:09.81Z</time></trkpt><trkpt lat="41.9450133" lon="13.1132717"><ele>834.4000000000001</ele><time>2026-04-11T12:32:10.809Z</time></trkpt><trkpt lat="41.9451" lon="13.1132483"><ele>829.0</ele><time>2026-04-11T12:32:11.811Z</time></trkpt><trkpt lat="41.945185" lon="13.1132583"><ele>825.0</ele><time>2026-04-11T12:32:12.811Z</time></trkpt><trkpt lat="41.9452633" lon="13.1133017"><ele>821.0</ele><time>2026-04-11T12:32:13.813Z</time></trkpt><trkpt lat="41.9453317" lon="13.1133817"><ele>817.0</ele><time>2026-04-11T12:32:14.813Z</time></trkpt><trkpt lat="41.9454067" lon="13.11346"><ele>813.0</ele><time>2026-04-11T12:32:15.813Z</time></trkpt><trkpt lat="41.945485" lon="13.1135267"><ele>809.0</ele><time>2026-04-11T12:32:16.813Z</time></trkpt><trkpt lat="41.94557" lon="13.113595"><ele>809.0</ele><time>2026-04-11T12:32:17.814Z</time></trkpt><trkpt lat="41.945655" lon="13.11367"><ele>809.0</ele><time>2026-04-11T12:32:18.813Z</time></trkpt><trkpt lat="41.9457383" lon="13.1137617"><ele>809.0</ele><time>2026-04-11T12:32:19.814Z</time></trkpt><trkpt lat="41.9458167" lon="13.1138567"><ele>809.0</ele><time>2026-04-11T12:32:20.816Z</time></trkpt><trkpt lat="41.9458967" lon="13.113955"><ele>809.0</ele><time>2026-04-11T12:32:21.814Z</time></trkpt><trkpt lat="41.9459933" lon="13.1140233"><ele>810.5</ele><time>2026-04-11T12:32:22.813Z</time></trkpt><trkpt lat="41.9461017" lon="13.1140667"><ele>812.0</ele><time>2026-04-11T12:32:23.81Z</time></trkpt><trkpt lat="41.9462133" lon="13.1141"><ele>813.5</ele><time>2026-04-11T12:32:24.812Z</time></trkpt><trkpt lat="41.94633" lon="13.1141317"><ele>815.0</ele><time>2026-04-11T12:32:25.814Z</time></trkpt><trkpt lat="41.9464467" lon="13.1141583"><ele>815.0</ele><time>2026-04-11T12:32:26.812Z</time></trkpt><trkpt lat="41.9465583" lon="13.1141833"><ele>815.0</ele><time>2026-04-11T12:32:27.814Z</time></trkpt><trkpt lat="41.946665" lon="13.1142083"><ele>815.0</ele><time>2026-04-11T12:32:28.81Z</time></trkpt><trkpt lat="41.946765" lon="13.1142583"><ele>815.0</ele><time>2026-04-11T12:32:29.813Z</time></trkpt><trkpt lat="41.9468533" lon="13.114335"><ele>815.0</ele><time>2026-04-11T12:32:30.81Z</time></trkpt><trkpt lat="41.94693" lon="13.1144367"><ele>816.6</ele><time>2026-04-11T12:32:31.812Z</time></trkpt><trkpt lat="41.9470083" lon="13.1145483"><ele>818.2</ele><time>2026-04-11T12:32:32.809Z</time></trkpt><trkpt lat="41.94708" lon="13.114665"><ele>819.8</ele><time>2026-04-11T12:32:33.811Z</time></trkpt><trkpt lat="41.9471433" lon="13.1147767"><ele>821.4</ele><time>2026-04-11T12:32:34.81Z</time></trkpt><trkpt lat="41.947205" lon="13.11488"><ele>823.0</ele><time>2026-04-11T12:32:35.811Z</time></trkpt><trkpt lat="41.9472767" lon="13.1149733"><ele>823.0</ele><time>2026-04-11T12:32:36.811Z</time></trkpt><trkpt lat="41.94735" lon="13.1150417"><ele>823.0</ele><time>2026-04-11T12:32:37.81Z</time></trkpt><trkpt lat="41.9474283" lon="13.115075"><ele>823.0</ele><time>2026-04-11T12:32:38.809Z</time></trkpt><trkpt lat="41.9475133" lon="13.115065"><ele>823.0</ele><time>2026-04-11T12:32:39.813Z</time></trkpt><trkpt lat="41.9476" lon="13.1150017"><ele>823.0</ele><time>2026-04-11T12:32:40.809Z</time></trkpt><trkpt lat="41.947685" lon="13.1148917"><ele>823.0</ele><time>2026-04-11T12:32:41.814Z</time></trkpt><trkpt lat="41.94775" lon="13.1147533"><ele>823.0</ele><time>2026-04-11T12:32:42.81Z</time></trkpt><trkpt lat="41.9477767" lon="13.1146167"><ele>823.0</ele><time>2026-04-11T12:32:43.814Z</time></trkpt><trkpt lat="41.947785" lon="13.114495"><ele>823.0</ele><time>2026-04-11T12:32:44.813Z</time></trkpt><trkpt lat="41.9477717" lon="13.114395"><ele>823.0</ele><time>2026-04-11T12:32:45.813Z</time></trkpt><trkpt lat="41.9477233" lon="13.1143317"><ele>823.0</ele><time>2026-04-11T12:32:46.812Z</time></trkpt><trkpt lat="41.9476433" lon="13.114265"><ele>823.0</ele><time>2026-04-11T12:32:47.813Z</time></trkpt><trkpt lat="41.9475317" lon="13.1142533"><ele>823.0</ele><time>2026-04-11T12:32:48.81Z</time></trkpt><trkpt lat="41.9473883" lon="13.1142783"><ele>823.0</ele><time>2026-04-11T12:32:49.812Z</time></trkpt><trkpt lat="41.9472783" lon="13.1142583"><ele>818.25</ele><time>2026-04-11T12:32:50.82Z</time></trkpt><trkpt lat="41.9471733" lon="13.114205"><ele>813.5</ele><time>2026-04-11T12:32:51.814Z</time></trkpt><trkpt lat="41.9470817" lon="13.1141133"><ele>808.75</ele><time>2026-04-11T12:32:52.813Z</time></trkpt><trkpt lat="41.947" lon="13.114"><ele>804.0</ele><time>2026-04-11T12:32:53.813Z</time></trkpt><trkpt lat="41.9469117" lon="13.1138883"><ele>802.75</ele><time>2026-04-11T12:32:54.813Z</time></trkpt><trkpt lat="41.946805" lon="13.1138167"><ele>801.5</ele><time>2026-04-11T12:32:55.814Z</time></trkpt><trkpt lat="41.94669" lon="13.113775"><ele>800.25</ele><time>2026-04-11T12:32:56.814Z</time></trkpt><trkpt lat="41.9465633" lon="13.1137517"><ele>799.0</ele><time>2026-04-11T12:32:57.814Z</time></trkpt><trkpt lat="41.946435" lon="13.1137017"><ele>795.6666666666666</ele><time>2026-04-11T12:32:58.81Z</time></trkpt><trkpt lat="41.9463067" lon="13.1136117"><ele>792.3333333333333</ele><time>2026-04-11T12:32:59.81Z</time></trkpt><trkpt lat="41.9461833" lon="13.1134683"><ele>789.0</ele><time>2026-04-11T12:33:00.811Z</time></trkpt><trkpt lat="41.9460617" lon="13.1133067"><ele>785.3333333333333</ele><time>2026-04-11T12:33:01.811Z</time></trkpt><trkpt lat="41.9459417" lon="13.11315"><ele>781.6666666666666</ele><time>2026-04-11T12:33:02.81Z</time></trkpt><trkpt lat="41.9458267" lon="13.113"><ele>778.0</ele><time>2026-04-11T12:33:03.81Z</time></trkpt><trkpt lat="41.9457167" lon="13.1128517"><ele>778.0</ele><time>2026-04-11T12:33:04.811Z</time></trkpt><trkpt lat="41.9456067" lon="13.1127067"><ele>778.0</ele><time>2026-04-11T12:33:05.811Z</time></trkpt><trkpt lat="41.9454983" lon="13.112565"><ele>778.0</ele><time>2026-04-11T12:33:06.81Z</time></trkpt><trkpt lat="41.9453917" lon="13.11243"><ele>773.0</ele><time>2026-04-11T12:33:07.81Z</time></trkpt><trkpt lat="41.9452917" lon="13.1123017"><ele>768.0</ele><time>2026-04-11T12:33:08.812Z</time></trkpt><trkpt lat="41.9451983" lon="13.1121783"><ele>763.0</ele><time>2026-04-11T12:33:09.811Z</time></trkpt><trkpt lat="41.9451333" lon="13.1120467"><ele>758.0</ele><time>2026-04-11T12:33:10.809Z</time></trkpt><trkpt lat="41.9450933" lon="13.1118967"><ele>758.0</ele><time>2026-04-11T12:33:11.814Z</time></trkpt><trkpt lat="41.9450667" lon="13.1117417"><ele>758.0</ele><time>2026-04-11T12:33:12.809Z</time></trkpt><trkpt lat="41.9450383" lon="13.111575"><ele>758.0</ele><time>2026-04-11T12:33:13.814Z</time></trkpt><trkpt lat="41.9450067" lon="13.111405"><ele>758.0</ele><time>2026-04-11T12:33:14.811Z</time></trkpt><trkpt lat="41.94498" lon="13.1112383"><ele>758.75</ele><time>2026-04-11T12:33:15.81Z</time></trkpt><trkpt lat="41.9449533" lon="13.1110683"><ele>759.5</ele><time>2026-04-11T12:33:16.813Z</time></trkpt><trkpt lat="41.9449317" lon="13.1108967"><ele>760.25</ele><time>2026-04-11T12:33:17.813Z</time></trkpt><trkpt lat="41.94491" lon="13.1107267"><ele>761.0</ele><time>2026-04-11T12:33:18.813Z</time></trkpt><trkpt lat="41.9448883" lon="13.1105633"><ele>759.0</ele><time>2026-04-11T12:33:19.813Z</time></trkpt><trkpt lat="41.944865" lon="13.1104167"><ele>757.0</ele><time>2026-04-11T12:33:20.813Z</time></trkpt><trkpt lat="41.9448383" lon="13.1102933"><ele>755.0</ele><time>2026-04-11T12:33:21.814Z</time></trkpt><trkpt lat="41.9448067" lon="13.110185"><ele>753.0</ele><time>2026-04-11T12:33:22.814Z</time></trkpt><trkpt lat="41.944765" lon="13.1101017"><ele>751.0</ele><time>2026-04-11T12:33:23.812Z</time></trkpt><trkpt lat="41.9446767" lon="13.1100167"><ele>751.0</ele><time>2026-04-11T12:33:25.81Z</time></trkpt><trkpt lat="41.9445683" lon="13.110035"><ele>751.0</ele><time>2026-04-11T12:33:27.814Z</time></trkpt><trkpt lat="41.944475" lon="13.1101683"><ele>751.0</ele><time>2026-04-11T12:33:28.811Z</time></trkpt><trkpt lat="41.9443983" lon="13.11024"><ele>751.0</ele><time>2026-04-11T12:33:29.81Z</time></trkpt><trkpt lat="41.94432" lon="13.1103033"><ele>751.0</ele><time>2026-04-11T12:33:30.811Z</time></trkpt><trkpt lat="41.9442433" lon="13.110375"><ele>751.0</ele><time>2026-04-11T12:33:31.811Z</time></trkpt><trkpt lat="41.9441583" lon="13.1104533"><ele>751.0</ele><time>2026-04-11T12:33:32.811Z</time></trkpt><trkpt lat="41.9440733" lon="13.1105117"><ele>751.0</ele><time>2026-04-11T12:33:33.81Z</time></trkpt><trkpt lat="41.94399" lon="13.1105567"><ele>751.0</ele><time>2026-04-11T12:33:34.811Z</time></trkpt><trkpt lat="41.9439067" lon="13.110575"><ele>751.0</ele><time>2026-04-11T12:33:35.811Z</time></trkpt><trkpt lat="41.9438283" lon="13.11056"><ele>751.0</ele><time>2026-04-11T12:33:36.81Z</time></trkpt><trkpt lat="41.9437617" lon="13.110535"><ele>751.0</ele><time>2026-04-11T12:33:37.812Z</time></trkpt><trkpt lat="41.9436817" lon="13.1104683"><ele>751.0</ele><time>2026-04-11T12:33:38.811Z</time></trkpt><trkpt lat="41.9436" lon="13.1103883"><ele>751.0</ele><time>2026-04-11T12:33:39.81Z</time></trkpt><trkpt lat="41.94351" lon="13.1102883"><ele>751.0</ele><time>2026-04-11T12:33:40.811Z</time></trkpt><trkpt lat="41.9434167" lon="13.1101867"><ele>748.25</ele><time>2026-04-11T12:33:41.814Z</time></trkpt><trkpt lat="41.9433183" lon="13.1100917"><ele>745.5</ele><time>2026-04-11T12:33:42.813Z</time></trkpt><trkpt lat="41.9432133" lon="13.1100217"><ele>742.75</ele><time>2026-04-11T12:33:43.814Z</time></trkpt><trkpt lat="41.9431017" lon="13.1099883"><ele>740.0</ele><time>2026-04-11T12:33:44.813Z</time></trkpt><trkpt lat="41.9429933" lon="13.1099783"><ele>740.0</ele><time>2026-04-11T12:33:45.813Z</time></trkpt><trkpt lat="41.94289" lon="13.1099683"><ele>740.0</ele><time>2026-04-11T12:33:46.814Z</time></trkpt><trkpt lat="41.9427967" lon="13.1099267"><ele>740.0</ele><time>2026-04-11T12:33:47.81Z</time></trkpt><trkpt lat="41.94271" lon="13.109855"><ele>740.0</ele><time>2026-04-11T12:33:48.81Z</time></trkpt><trkpt lat="41.9426317" lon="13.1097567"><ele>740.0</ele><time>2026-04-11T12:33:49.809Z</time></trkpt><trkpt lat="41.9425633" lon="13.1096333"><ele>735.75</ele><time>2026-04-11T12:33:50.811Z</time></trkpt><trkpt lat="41.9425033" lon="13.109495"><ele>731.5</ele><time>2026-04-11T12:33:51.81Z</time></trkpt><trkpt lat="41.942445" lon="13.10935"><ele>727.25</ele><time>2026-04-11T12:33:52.81Z</time></trkpt><trkpt lat="41.9423783" lon="13.1092067"><ele>723.0</ele><time>2026-04-11T12:33:53.81Z</time></trkpt><trkpt lat="41.942315" lon="13.109055"><ele>721.75</ele><time>2026-04-11T12:33:54.811Z</time></trkpt><trkpt lat="41.94225" lon="13.1089017"><ele>720.5</ele><time>2026-04-11T12:33:55.809Z</time></trkpt><trkpt lat="41.94218" lon="13.1087533"><ele>719.25</ele><time>2026-04-11T12:33:56.81Z</time></trkpt><trkpt lat="41.9421083" lon="13.1086017"><ele>718.0</ele><time>2026-04-11T12:33:57.81Z</time></trkpt><trkpt lat="41.94204" lon="13.10845"><ele>718.0</ele><time>2026-04-11T12:33:58.811Z</time></trkpt><trkpt lat="41.941985" lon="13.1082967"><ele>718.0</ele><time>2026-04-11T12:33:59.815Z</time></trkpt><trkpt lat="41.9419417" lon="13.108145"><ele>718.0</ele><time>2026-04-11T12:34:00.811Z</time></trkpt><trkpt lat="41.9419167" lon="13.108"><ele>718.0</ele><time>2026-04-11T12:34:01.811Z</time></trkpt><trkpt lat="41.941905" lon="13.10787"><ele>716.2</ele><time>2026-04-11T12:34:02.81Z</time></trkpt><trkpt lat="41.941885" lon="13.1077517"><ele>714.4</ele><time>2026-04-11T12:34:03.809Z</time></trkpt><trkpt lat="41.94185" lon="13.107645"><ele>712.6</ele><time>2026-04-11T12:34:04.81Z</time></trkpt><trkpt lat="41.9417917" lon="13.1075567"><ele>710.8000000000001</ele><time>2026-04-11T12:34:05.811Z</time></trkpt><trkpt lat="41.9417083" lon="13.1074917"><ele>709.0</ele><time>2026-04-11T12:34:06.809Z</time></trkpt><trkpt lat="41.9416117" lon="13.1074383"><ele>705.6</ele><time>2026-04-11T12:34:07.809Z</time></trkpt><trkpt lat="41.9415117" lon="13.1073867"><ele>702.2</ele><time>2026-04-11T12:34:08.812Z</time></trkpt><trkpt lat="41.9414133" lon="13.1073283"><ele>698.8000000000001</ele><time>2026-04-11T12:34:09.81Z</time></trkpt><trkpt lat="41.94132" lon="13.1072583"><ele>695.4000000000001</ele><time>2026-04-11T12:34:10.809Z</time></trkpt><trkpt lat="41.941245" lon="13.1071717"><ele>692.0</ele><time>2026-04-11T12:34:11.813Z</time></trkpt><trkpt lat="41.9411867" lon="13.1070667"><ele>692.0</ele><time>2026-04-11T12:34:12.81Z</time></trkpt><trkpt lat="41.94115" lon="13.1069483"><ele>692.0</ele><time>2026-04-11T12:34:13.81Z</time></trkpt><trkpt lat="41.9411367" lon="13.1068167"><ele>692.0</ele><time>2026-04-11T12:34:14.811Z</time></trkpt><trkpt lat="41.9411433" lon="13.1066767"><ele>692.0</ele><time>2026-04-11T12:34:15.812Z</time></trkpt><trkpt lat="41.941165" lon="13.1065317"><ele>692.0</ele><time>2026-04-11T12:34:16.814Z</time></trkpt><trkpt lat="41.941205" lon="13.106395"><ele>690.0</ele><time>2026-04-11T12:34:17.812Z</time></trkpt><trkpt lat="41.9412567" lon="13.1062717"><ele>688.0</ele><time>2026-04-11T12:34:18.812Z</time></trkpt><trkpt lat="41.941305" lon="13.1061667"><ele>686.0</ele><time>2026-04-11T12:34:19.81Z</time></trkpt><trkpt lat="41.9413367" lon="13.1060783"><ele>684.0</ele><time>2026-04-11T12:34:20.813Z</time></trkpt><trkpt lat="41.9412783" lon="13.1059517"><ele>682.0</ele><time>2026-04-11T12:34:22.811Z</time></trkpt><trkpt lat="41.94121" lon="13.1059383"><ele>682.0</ele><time>2026-04-11T12:34:23.814Z</time></trkpt><trkpt lat="41.9411383" lon="13.105975"><ele>682.0</ele><time>2026-04-11T12:34:24.812Z</time></trkpt><trkpt lat="41.941075" lon="13.1060567"><ele>682.0</ele><time>2026-04-11T12:34:25.813Z</time></trkpt><trkpt lat="41.941015" lon="13.1061483"><ele>682.0</ele><time>2026-04-11T12:34:26.814Z</time></trkpt><trkpt lat="41.9409567" lon="13.1062667"><ele>682.0</ele><time>2026-04-11T12:34:27.814Z</time></trkpt><trkpt lat="41.9409017" lon="13.106375"><ele>682.0</ele><time>2026-04-11T12:34:28.811Z</time></trkpt><trkpt lat="41.9408517" lon="13.10647"><ele>682.0</ele><time>2026-04-11T12:34:29.811Z</time></trkpt><trkpt lat="41.9408083" lon="13.1065567"><ele>682.0</ele><time>2026-04-11T12:34:30.809Z</time></trkpt><trkpt lat="41.9407667" lon="13.10664"><ele>682.0</ele><time>2026-04-11T12:34:31.811Z</time></trkpt><trkpt lat="41.9406783" lon="13.1067183"><ele>682.0</ele><time>2026-04-11T12:34:33.81Z</time></trkpt><trkpt lat="41.9406383" lon="13.1066317"><ele>682.0</ele><time>2026-04-11T12:34:35.811Z</time></trkpt><trkpt lat="41.9406517" lon="13.1065333"><ele>680.2</ele><time>2026-04-11T12:34:36.81Z</time></trkpt><trkpt lat="41.9406917" lon="13.106395"><ele>678.4000000000001</ele><time>2026-04-11T12:34:37.81Z</time></trkpt><trkpt lat="41.94073" lon="13.1062483"><ele>676.5999999999999</ele><time>2026-04-11T12:34:38.81Z</time></trkpt><trkpt lat="41.9407683" lon="13.1061233"><ele>674.8</ele><time>2026-04-11T12:34:39.809Z</time></trkpt><trkpt lat="41.9408067" lon="13.106005"><ele>673.0</ele><time>2026-04-11T12:34:40.811Z</time></trkpt><trkpt lat="41.94084" lon="13.1059"><ele>673.0</ele><time>2026-04-11T12:34:41.811Z</time></trkpt><trkpt lat="41.9408617" lon="13.1058"><ele>673.0</ele><time>2026-04-11T12:34:42.81Z</time></trkpt><trkpt lat="41.9408617" lon="13.1057017"><ele>673.0</ele><time>2026-04-11T12:34:43.812Z</time></trkpt><trkpt lat="41.9408283" lon="13.1056083"><ele>673.0</ele><time>2026-04-11T12:34:44.813Z</time></trkpt><trkpt lat="41.940785" lon="13.105515"><ele>673.0</ele><time>2026-04-11T12:34:45.812Z</time></trkpt><trkpt lat="41.940715" lon="13.1054117"><ele>673.0</ele><time>2026-04-11T12:34:46.814Z</time></trkpt><trkpt lat="41.9406383" lon="13.1053033"><ele>670.75</ele><time>2026-04-11T12:34:47.811Z</time></trkpt><trkpt lat="41.9405617" lon="13.10519"><ele>668.5</ele><time>2026-04-11T12:34:48.81Z</time></trkpt><trkpt lat="41.940485" lon="13.1050767"><ele>666.25</ele><time>2026-04-11T12:34:49.811Z</time></trkpt><trkpt lat="41.9404117" lon="13.104955"><ele>664.0</ele><time>2026-04-11T12:34:50.812Z</time></trkpt><trkpt lat="41.9403317" lon="13.104835"><ele>662.5</ele><time>2026-04-11T12:34:51.811Z</time></trkpt><trkpt lat="41.94025" lon="13.1047133"><ele>661.0</ele><time>2026-04-11T12:34:52.811Z</time></trkpt><trkpt lat="41.940165" lon="13.10459"><ele>659.5</ele><time>2026-04-11T12:34:53.81Z</time></trkpt><trkpt lat="41.94008" lon="13.1044583"><ele>658.0</ele><time>2026-04-11T12:34:54.81Z</time></trkpt><trkpt lat="41.94" lon="13.1043267"><ele>656.5</ele><time>2026-04-11T12:34:55.809Z</time></trkpt><trkpt lat="41.9399217" lon="13.1041917"><ele>655.0</ele><time>2026-04-11T12:34:56.811Z</time></trkpt><trkpt lat="41.9398433" lon="13.104065"><ele>653.5</ele><time>2026-04-11T12:34:57.81Z</time></trkpt><trkpt lat="41.9397617" lon="13.1039433"><ele>652.0</ele><time>2026-04-11T12:34:58.811Z</time></trkpt><trkpt lat="41.9396733" lon="13.1038317"><ele>650.25</ele><time>2026-04-11T12:34:59.812Z</time></trkpt><trkpt lat="41.9395833" lon="13.1037217"><ele>648.5</ele><time>2026-04-11T12:35:00.809Z</time></trkpt><trkpt lat="41.939495" lon="13.1036067"><ele>646.75</ele><time>2026-04-11T12:35:01.81Z</time></trkpt><trkpt lat="41.939405" lon="13.10349"><ele>645.0</ele><time>2026-04-11T12:35:02.811Z</time></trkpt><trkpt lat="41.939315" lon="13.1033633"><ele>643.5</ele><time>2026-04-11T12:35:03.81Z</time></trkpt><trkpt lat="41.93922" lon="13.10324"><ele>642.0</ele><time>2026-04-11T12:35:04.811Z</time></trkpt><trkpt lat="41.9391233" lon="13.1031117"><ele>640.5</ele><time>2026-04-11T12:35:05.81Z</time></trkpt><trkpt lat="41.939025" lon="13.1029817"><ele>639.0</ele><time>2026-04-11T12:35:06.81Z</time></trkpt><trkpt lat="41.9389217" lon="13.102845"><ele>637.25</ele><time>2026-04-11T12:35:07.811Z</time></trkpt><trkpt lat="41.9388183" lon="13.10271"><ele>635.5</ele><time>2026-04-11T12:35:08.81Z</time></trkpt><trkpt lat="41.938715" lon="13.10257"><ele>633.75</ele><time>2026-04-11T12:35:09.809Z</time></trkpt><trkpt lat="41.93861" lon="13.10243"><ele>632.0</ele><time>2026-04-11T12:35:10.811Z</time></trkpt><trkpt lat="41.9384983" lon="13.1023017"><ele>629.0</ele><time>2026-04-11T12:35:11.814Z</time></trkpt><trkpt lat="41.93838" lon="13.10219"><ele>626.0</ele><time>2026-04-11T12:35:12.81Z</time></trkpt><trkpt lat="41.9382567" lon="13.10209"><ele>623.0</ele><time>2026-04-11T12:35:13.811Z</time></trkpt><trkpt lat="41.9381283" lon="13.102005"><ele>620.0</ele><time>2026-04-11T12:35:14.811Z</time></trkpt><trkpt lat="41.9380017" lon="13.1019283"><ele>620.0</ele><time>2026-04-11T12:35:15.814Z</time></trkpt><trkpt lat="41.9378717" lon="13.1018633"><ele>620.0</ele><time>2026-04-11T12:35:16.813Z</time></trkpt><trkpt lat="41.9377383" lon="13.1018067"><ele>620.0</ele><time>2026-04-11T12:35:17.814Z</time></trkpt><trkpt lat="41.9376033" lon="13.1017483"><ele>620.0</ele><time>2026-04-11T12:35:18.812Z</time></trkpt><trkpt lat="41.9374667" lon="13.1016883"><ele>618.5</ele><time>2026-04-11T12:35:19.811Z</time></trkpt><trkpt lat="41.9373317" lon="13.1016283"><ele>617.0</ele><time>2026-04-11T12:35:20.814Z</time></trkpt><trkpt lat="41.937195" lon="13.1015717"><ele>615.5</ele><time>2026-04-11T12:35:21.81Z</time></trkpt><trkpt lat="41.9370667" lon="13.1015217"><ele>614.0</ele><time>2026-04-11T12:35:22.811Z</time></trkpt><trkpt lat="41.9369417" lon="13.101485"><ele>612.5</ele><time>2026-04-11T12:35:23.81Z</time></trkpt><trkpt lat="41.9368217" lon="13.1014517"><ele>611.0</ele><time>2026-04-11T12:35:24.813Z</time></trkpt><trkpt lat="41.9366983" lon="13.101425"><ele>609.5</ele><time>2026-04-11T12:35:25.81Z</time></trkpt><trkpt lat="41.9365783" lon="13.1014017"><ele>608.0</ele><time>2026-04-11T12:35:26.811Z</time></trkpt><trkpt lat="41.936465" lon="13.101375"><ele>606.0</ele><time>2026-04-11T12:35:27.809Z</time></trkpt><trkpt lat="41.9363583" lon="13.1013383"><ele>604.0</ele><time>2026-04-11T12:35:28.81Z</time></trkpt><trkpt lat="41.9362633" lon="13.101285"><ele>602.0</ele><time>2026-04-11T12:35:29.811Z</time></trkpt><trkpt lat="41.9361833" lon="13.1012183"><ele>600.0</ele><time>2026-04-11T12:35:30.81Z</time></trkpt><trkpt lat="41.9361133" lon="13.1011417"><ele>598.0</ele><time>2026-04-11T12:35:31.809Z</time></trkpt><trkpt lat="41.9360483" lon="13.1010567"><ele>598.0</ele><time>2026-04-11T12:35:32.81Z</time></trkpt><trkpt lat="41.9359867" lon="13.10097"><ele>598.0</ele><time>2026-04-11T12:35:33.81Z</time></trkpt><trkpt lat="41.9359217" lon="13.1008867"><ele>598.0</ele><time>2026-04-11T12:35:34.81Z</time></trkpt><trkpt lat="41.9358583" lon="13.1008033"><ele>598.0</ele><time>2026-04-11T12:35:35.81Z</time></trkpt><trkpt lat="41.935795" lon="13.1007317"><ele>598.0</ele><time>2026-04-11T12:35:36.814Z</time></trkpt><trkpt lat="41.9357367" lon="13.10067"><ele>598.0</ele><time>2026-04-11T12:35:37.814Z</time></trkpt><trkpt lat="41.9356833" lon="13.1006117"><ele>596.2857142857142</ele><time>2026-04-11T12:35:38.813Z</time></trkpt><trkpt lat="41.935635" lon="13.1005517"><ele>594.5714285714286</ele><time>2026-04-11T12:35:39.814Z</time></trkpt><trkpt lat="41.93559" lon="13.1004867"><ele>592.8571428571429</ele><time>2026-04-11T12:35:40.81Z</time></trkpt><trkpt lat="41.9355467" lon="13.1004133"><ele>591.1428571428571</ele><time>2026-04-11T12:35:41.809Z</time></trkpt><trkpt lat="41.9355133" lon="13.1003367"><ele>589.4285714285714</ele><time>2026-04-11T12:35:42.81Z</time></trkpt><trkpt lat="41.935495" lon="13.1002533"><ele>587.7142857142857</ele><time>2026-04-11T12:35:43.81Z</time></trkpt><trkpt lat="41.9354967" lon="13.1001617"><ele>586.0</ele><time>2026-04-11T12:35:44.811Z</time></trkpt><trkpt lat="41.9355183" lon="13.1000683"><ele>586.0</ele><time>2026-04-11T12:35:45.814Z</time></trkpt><trkpt lat="41.9355583" lon="13.0999717"><ele>586.0</ele><time>2026-04-11T12:35:46.814Z</time></trkpt><trkpt lat="41.9356117" lon="13.0998783"><ele>586.0</ele><time>2026-04-11T12:35:47.816Z</time></trkpt><trkpt lat="41.9356717" lon="13.0997767"><ele>586.0</ele><time>2026-04-11T12:35:48.813Z</time></trkpt><trkpt lat="41.9357333" lon="13.0996617"><ele>586.0</ele><time>2026-04-11T12:35:49.814Z</time></trkpt><trkpt lat="41.9358033" lon="13.0995367"><ele>585.25</ele><time>2026-04-11T12:35:50.814Z</time></trkpt><trkpt lat="41.9358717" lon="13.0994117"><ele>584.5</ele><time>2026-04-11T12:35:51.814Z</time></trkpt><trkpt lat="41.9359433" lon="13.0992867"><ele>583.75</ele><time>2026-04-11T12:35:52.813Z</time></trkpt><trkpt lat="41.9360117" lon="13.0991667"><ele>583.0</ele><time>2026-04-11T12:35:53.813Z</time></trkpt><trkpt lat="41.936085" lon="13.0990417"><ele>583.0</ele><time>2026-04-11T12:35:54.813Z</time></trkpt><trkpt lat="41.93616" lon="13.0989117"><ele>583.0</ele><time>2026-04-11T12:35:55.814Z</time></trkpt><trkpt lat="41.936235" lon="13.0987733"><ele>583.0</ele><time>2026-04-11T12:35:56.812Z</time></trkpt><trkpt lat="41.9363133" lon="13.098625"><ele>583.0</ele><time>2026-04-11T12:35:57.811Z</time></trkpt><trkpt lat="41.936395" lon="13.0984733"><ele>583.0</ele><time>2026-04-11T12:35:58.812Z</time></trkpt><trkpt lat="41.93648" lon="13.0983117"><ele>583.0</ele><time>2026-04-11T12:35:59.812Z</time></trkpt><trkpt lat="41.936565" lon="13.098145"><ele>583.0</ele><time>2026-04-11T12:36:00.812Z</time></trkpt><trkpt lat="41.9366517" lon="13.0979733"><ele>583.5</ele><time>2026-04-11T12:36:01.811Z</time></trkpt><trkpt lat="41.936735" lon="13.0978117"><ele>584.0</ele><time>2026-04-11T12:36:02.812Z</time></trkpt><trkpt lat="41.936815" lon="13.0976533"><ele>584.5</ele><time>2026-04-11T12:36:03.81Z</time></trkpt><trkpt lat="41.936895" lon="13.0974967"><ele>585.0</ele><time>2026-04-11T12:36:04.812Z</time></trkpt><trkpt lat="41.9369767" lon="13.0973367"><ele>585.0</ele><time>2026-04-11T12:36:05.811Z</time></trkpt><trkpt lat="41.9370583" lon="13.0971733"><ele>585.0</ele><time>2026-04-11T12:36:06.812Z</time></trkpt><trkpt lat="41.937145" lon="13.09701"><ele>585.0</ele><time>2026-04-11T12:36:07.812Z</time></trkpt><trkpt lat="41.9372417" lon="13.0968567"><ele>585.0</ele><time>2026-04-11T12:36:08.812Z</time></trkpt><trkpt lat="41.9373533" lon="13.0967183"><ele>585.0</ele><time>2026-04-11T12:36:09.81Z</time></trkpt><trkpt lat="41.93747" lon="13.0965933"><ele>585.0</ele><time>2026-04-11T12:36:10.812Z</time></trkpt><trkpt lat="41.9375917" lon="13.09649"><ele>585.0</ele><time>2026-04-11T12:36:11.812Z</time></trkpt><trkpt lat="41.9377167" lon="13.0964117"><ele>585.0</ele><time>2026-04-11T12:36:12.811Z</time></trkpt><trkpt lat="41.93784" lon="13.096355"><ele>582.5</ele><time>2026-04-11T12:36:13.812Z</time></trkpt><trkpt lat="41.9379617" lon="13.096335"><ele>580.0</ele><time>2026-04-11T12:36:14.814Z</time></trkpt><trkpt lat="41.9380767" lon="13.0963567"><ele>577.5</ele><time>2026-04-11T12:36:15.814Z</time></trkpt><trkpt lat="41.9381917" lon="13.0964233"><ele>575.0</ele><time>2026-04-11T12:36:16.813Z</time></trkpt><trkpt lat="41.93829" lon="13.096525"><ele>577.0</ele><time>2026-04-11T12:36:17.814Z</time></trkpt><trkpt lat="41.93838" lon="13.096645"><ele>579.0</ele><time>2026-04-11T12:36:18.81Z</time></trkpt><trkpt lat="41.9384633" lon="13.0967783"><ele>581.0</ele><time>2026-04-11T12:36:19.813Z</time></trkpt><trkpt lat="41.9385367" lon="13.0969083"><ele>583.0</ele><time>2026-04-11T12:36:20.816Z</time></trkpt><trkpt lat="41.938605" lon="13.0970283"><ele>583.0</ele><time>2026-04-11T12:36:21.813Z</time></trkpt><trkpt lat="41.9386717" lon="13.0971383"><ele>583.0</ele><time>2026-04-11T12:36:22.813Z</time></trkpt><trkpt lat="41.9387367" lon="13.0972383"><ele>583.0</ele><time>2026-04-11T12:36:23.813Z</time></trkpt><trkpt lat="41.9387983" lon="13.0973233"><ele>583.0</ele><time>2026-04-11T12:36:24.814Z</time></trkpt><trkpt lat="41.938855" lon="13.0973967"><ele>583.0</ele><time>2026-04-11T12:36:25.814Z</time></trkpt><trkpt lat="41.938915" lon="13.0974517"><ele>583.0</ele><time>2026-04-11T12:36:26.812Z</time></trkpt><trkpt lat="41.9389867" lon="13.097475"><ele>583.6</ele><time>2026-04-11T12:36:27.813Z</time></trkpt><trkpt lat="41.9390683" lon="13.0974717"><ele>584.1999999999999</ele><time>2026-04-11T12:36:28.811Z</time></trkpt><trkpt lat="41.9391533" lon="13.0974267"><ele>584.8</ele><time>2026-04-11T12:36:29.814Z</time></trkpt><trkpt lat="41.93923" lon="13.09734"><ele>585.4</ele><time>2026-04-11T12:36:30.813Z</time></trkpt><trkpt lat="41.9392867" lon="13.0972233"><ele>586.0</ele><time>2026-04-11T12:36:31.811Z</time></trkpt><trkpt lat="41.93929" lon="13.09706"><ele>585.75</ele><time>2026-04-11T12:36:32.816Z</time></trkpt><trkpt lat="41.9392617" lon="13.096895"><ele>585.5</ele><time>2026-04-11T12:36:33.812Z</time></trkpt><trkpt lat="41.9391967" lon="13.0967167"><ele>585.25</ele><time>2026-04-11T12:36:34.814Z</time></trkpt><trkpt lat="41.9391667" lon="13.0965617"><ele>585.0</ele><time>2026-04-11T12:36:35.811Z</time></trkpt><trkpt lat="41.9391533" lon="13.0964017"><ele>585.0</ele><time>2026-04-11T12:36:36.811Z</time></trkpt><trkpt lat="41.9391483" lon="13.09624"><ele>585.0</ele><time>2026-04-11T12:36:37.811Z</time></trkpt><trkpt lat="41.9391433" lon="13.0960717"><ele>585.0</ele><time>2026-04-11T12:36:38.811Z</time></trkpt><trkpt lat="41.9391417" lon="13.095895"><ele>585.0</ele><time>2026-04-11T12:36:39.81Z</time></trkpt><trkpt lat="41.9391433" lon="13.0957117"><ele>584.5</ele><time>2026-04-11T12:36:40.811Z</time></trkpt><trkpt lat="41.9391483" lon="13.0955367"><ele>584.0</ele><time>2026-04-11T12:36:41.811Z</time></trkpt><trkpt lat="41.9391517" lon="13.095375"><ele>583.5</ele><time>2026-04-11T12:36:42.811Z</time></trkpt><trkpt lat="41.939155" lon="13.0952283"><ele>583.0</ele><time>2026-04-11T12:36:43.811Z</time></trkpt><trkpt lat="41.9391583" lon="13.0951033"><ele>583.0</ele><time>2026-04-11T12:36:44.814Z</time></trkpt><trkpt lat="41.9391633" lon="13.0950017"><ele>583.0</ele><time>2026-04-11T12:36:45.814Z</time></trkpt><trkpt lat="41.9391617" lon="13.0948583"><ele>583.0</ele><time>2026-04-11T12:36:47.812Z</time></trkpt><trkpt lat="41.9391183" lon="13.0947733"><ele>583.0</ele><time>2026-04-11T12:36:50.814Z</time></trkpt><trkpt lat="41.939045" lon="13.094725"><ele>583.0</ele><time>2026-04-11T12:36:52.812Z</time></trkpt><trkpt lat="41.9389317" lon="13.0946717"><ele>582.0</ele><time>2026-04-11T12:36:54.809Z</time></trkpt><trkpt lat="41.9388683" lon="13.0946367"><ele>581.0</ele><time>2026-04-11T12:36:55.811Z</time></trkpt><trkpt lat="41.9388033" lon="13.0946"><ele>580.0</ele><time>2026-04-11T12:36:56.81Z</time></trkpt><trkpt lat="41.9387333" lon="13.0945533"><ele>579.0</ele><time>2026-04-11T12:36:57.813Z</time></trkpt><trkpt lat="41.9386533" lon="13.094495"><ele>578.0</ele><time>2026-04-11T12:36:58.812Z</time></trkpt><trkpt lat="41.9385683" lon="13.09442"><ele>577.0</ele><time>2026-04-11T12:36:59.811Z</time></trkpt><trkpt lat="41.9384933" lon="13.094325"><ele>577.0</ele><time>2026-04-11T12:37:00.813Z</time></trkpt><trkpt lat="41.938435" lon="13.09422"><ele>577.0</ele><time>2026-04-11T12:37:01.813Z</time></trkpt><trkpt lat="41.9383833" lon="13.0941133"><ele>577.0</ele><time>2026-04-11T12:37:02.813Z</time></trkpt><trkpt lat="41.9383217" lon="13.094015"><ele>577.0</ele><time>2026-04-11T12:37:03.812Z</time></trkpt><trkpt lat="41.9382483" lon="13.09394"><ele>577.0</ele><time>2026-04-11T12:37:04.811Z</time></trkpt><trkpt lat="41.9381633" lon="13.093895"><ele>576.5</ele><time>2026-04-11T12:37:05.811Z</time></trkpt><trkpt lat="41.93806" lon="13.0939033"><ele>576.0</ele><time>2026-04-11T12:37:06.809Z</time></trkpt><trkpt lat="41.9379567" lon="13.0939733"><ele>575.5</ele><time>2026-04-11T12:37:07.811Z</time></trkpt><trkpt lat="41.9378633" lon="13.0941067"><ele>575.0</ele><time>2026-04-11T12:37:08.811Z</time></trkpt><trkpt lat="41.9377867" lon="13.0942967"><ele>575.0</ele><time>2026-04-11T12:37:09.81Z</time></trkpt><trkpt lat="41.9377433" lon="13.0944917"><ele>575.0</ele><time>2026-04-11T12:37:10.81Z</time></trkpt><trkpt lat="41.9377483" lon="13.09467"><ele>575.0</ele><time>2026-04-11T12:37:11.814Z</time></trkpt><trkpt lat="41.9377617" lon="13.0948317"><ele>575.0</ele><time>2026-04-11T12:37:12.813Z</time></trkpt><trkpt lat="41.9377683" lon="13.0949617"><ele>575.4</ele><time>2026-04-11T12:37:13.814Z</time></trkpt><trkpt lat="41.93776" lon="13.095075"><ele>575.8</ele><time>2026-04-11T12:37:14.813Z</time></trkpt><trkpt lat="41.9377283" lon="13.0951767"><ele>576.2</ele><time>2026-04-11T12:37:15.814Z</time></trkpt><trkpt lat="41.9376767" lon="13.095255"><ele>576.6</ele><time>2026-04-11T12:37:16.814Z</time></trkpt><trkpt lat="41.9376033" lon="13.0952917"><ele>577.0</ele><time>2026-04-11T12:37:17.811Z</time></trkpt><trkpt lat="41.93748" lon="13.0952167"><ele>574.25</ele><time>2026-04-11T12:37:18.813Z</time></trkpt><trkpt lat="41.93738" lon="13.09512"><ele>571.5</ele><time>2026-04-11T12:37:19.811Z</time></trkpt><trkpt lat="41.9373" lon="13.09499"><ele>568.75</ele><time>2026-04-11T12:37:20.811Z</time></trkpt><trkpt lat="41.937225" lon="13.0948517"><ele>566.0</ele><time>2026-04-11T12:37:21.81Z</time></trkpt><trkpt lat="41.937145" lon="13.094715"><ele>564.25</ele><time>2026-04-11T12:37:22.81Z</time></trkpt><trkpt lat="41.9370533" lon="13.09459"><ele>562.5</ele><time>2026-04-11T12:37:23.81Z</time></trkpt><trkpt lat="41.9369533" lon="13.09447"><ele>560.75</ele><time>2026-04-11T12:37:24.815Z</time></trkpt><trkpt lat="41.9368483" lon="13.0943533"><ele>559.0</ele><time>2026-04-11T12:37:25.814Z</time></trkpt><trkpt lat="41.9367383" lon="13.09424"><ele>557.75</ele><time>2026-04-11T12:37:26.812Z</time></trkpt><trkpt lat="41.9366333" lon="13.094125"><ele>556.5</ele><time>2026-04-11T12:37:27.812Z</time></trkpt><trkpt lat="41.9365283" lon="13.0940083"><ele>555.25</ele><time>2026-04-11T12:37:28.813Z</time></trkpt><trkpt lat="41.93642" lon="13.09389"><ele>554.0</ele><time>2026-04-11T12:37:29.81Z</time></trkpt><trkpt lat="41.9363083" lon="13.09377"><ele>552.25</ele><time>2026-04-11T12:37:30.81Z</time></trkpt><trkpt lat="41.9361967" lon="13.0936483"><ele>550.5</ele><time>2026-04-11T12:37:31.813Z</time></trkpt><trkpt lat="41.9360883" lon="13.09353"><ele>548.75</ele><time>2026-04-11T12:37:32.813Z</time></trkpt><trkpt lat="41.935985" lon="13.09341"><ele>547.0</ele><time>2026-04-11T12:37:33.814Z</time></trkpt><trkpt lat="41.9358883" lon="13.09329"><ele>546.25</ele><time>2026-04-11T12:37:34.814Z</time></trkpt><trkpt lat="41.9358" lon="13.0931617"><ele>545.5</ele><time>2026-04-11T12:37:35.813Z</time></trkpt><trkpt lat="41.9357283" lon="13.0930167"><ele>544.75</ele><time>2026-04-11T12:37:36.81Z</time></trkpt><trkpt lat="41.93567" lon="13.0928567"><ele>544.0</ele><time>2026-04-11T12:37:37.814Z</time></trkpt><trkpt lat="41.9356117" lon="13.09269"><ele>544.0</ele><time>2026-04-11T12:37:38.811Z</time></trkpt><trkpt lat="41.9355567" lon="13.0925183"><ele>544.0</ele><time>2026-04-11T12:37:39.81Z</time></trkpt><trkpt lat="41.9355017" lon="13.0923433"><ele>544.0</ele><time>2026-04-11T12:37:40.81Z</time></trkpt><trkpt lat="41.9354467" lon="13.0921617"><ele>544.0</ele><time>2026-04-11T12:37:41.814Z</time></trkpt><trkpt lat="41.93539" lon="13.0919783"><ele>541.3333333333334</ele><time>2026-04-11T12:37:42.815Z</time></trkpt><trkpt lat="41.93533" lon="13.09179"><ele>538.6666666666666</ele><time>2026-04-11T12:37:43.811Z</time></trkpt><trkpt lat="41.9352717" lon="13.091595"><ele>536.0</ele><time>2026-04-11T12:37:44.814Z</time></trkpt><trkpt lat="41.93522" lon="13.0913917"><ele>533.6666666666666</ele><time>2026-04-11T12:37:45.814Z</time></trkpt><trkpt lat="41.9351817" lon="13.0911817"><ele>531.3333333333334</ele><time>2026-04-11T12:37:46.813Z</time></trkpt><trkpt lat="41.935145" lon="13.090975"><ele>529.0</ele><time>2026-04-11T12:37:47.814Z</time></trkpt><trkpt lat="41.9351167" lon="13.0907733"><ele>530.0</ele><time>2026-04-11T12:37:48.816Z</time></trkpt><trkpt lat="41.9350933" lon="13.0905783"><ele>531.0</ele><time>2026-04-11T12:37:49.814Z</time></trkpt><trkpt lat="41.93507" lon="13.0903917"><ele>532.0</ele><time>2026-04-11T12:37:50.813Z</time></trkpt><trkpt lat="41.935045" lon="13.0902117"><ele>533.0</ele><time>2026-04-11T12:37:51.812Z</time></trkpt><trkpt lat="41.9350183" lon="13.0900367"><ele>532.5</ele><time>2026-04-11T12:37:52.813Z</time></trkpt><trkpt lat="41.9349967" lon="13.0898617"><ele>532.0</ele><time>2026-04-11T12:37:53.814Z</time></trkpt><trkpt lat="41.934975" lon="13.0896917"><ele>531.5</ele><time>2026-04-11T12:37:54.81Z</time></trkpt><trkpt lat="41.9349417" lon="13.08953"><ele>531.0</ele><time>2026-04-11T12:37:55.814Z</time></trkpt><trkpt lat="41.9348967" lon="13.089375"><ele>531.0</ele><time>2026-04-11T12:37:56.814Z</time></trkpt><trkpt lat="41.9348367" lon="13.0892367"><ele>531.0</ele><time>2026-04-11T12:37:57.809Z</time></trkpt><trkpt lat="41.9347533" lon="13.089115"><ele>531.0</ele><time>2026-04-11T12:37:58.811Z</time></trkpt><trkpt lat="41.9346567" lon="13.089005"><ele>531.0</ele><time>2026-04-11T12:37:59.812Z</time></trkpt><trkpt lat="41.9345483" lon="13.0888967"><ele>529.5</ele><time>2026-04-11T12:38:00.818Z</time></trkpt><trkpt lat="41.93444" lon="13.0887833"><ele>528.0</ele><time>2026-04-11T12:38:01.812Z</time></trkpt><trkpt lat="41.9343283" lon="13.0886733"><ele>526.5</ele><time>2026-04-11T12:38:02.814Z</time></trkpt><trkpt lat="41.9342233" lon="13.0885683"><ele>525.0</ele><time>2026-04-11T12:38:03.81Z</time></trkpt><trkpt lat="41.9341217" lon="13.0884667"><ele>524.8</ele><time>2026-04-11T12:38:04.814Z</time></trkpt><trkpt lat="41.9340317" lon="13.0883683"><ele>524.6</ele><time>2026-04-11T12:38:05.814Z</time></trkpt><trkpt lat="41.9339533" lon="13.088265"><ele>524.4</ele><time>2026-04-11T12:38:06.813Z</time></trkpt><trkpt lat="41.9338817" lon="13.0881567"><ele>524.2</ele><time>2026-04-11T12:38:07.811Z</time></trkpt><trkpt lat="41.9338183" lon="13.0880417"><ele>524.0</ele><time>2026-04-11T12:38:08.811Z</time></trkpt><trkpt lat="41.933755" lon="13.0879233"><ele>523.5</ele><time>2026-04-11T12:38:09.81Z</time></trkpt><trkpt lat="41.9336933" lon="13.087795"><ele>523.0</ele><time>2026-04-11T12:38:10.81Z</time></trkpt><trkpt lat="41.9336283" lon="13.0876633"><ele>522.5</ele><time>2026-04-11T12:38:11.811Z</time></trkpt><trkpt lat="41.9335617" lon="13.0875217"><ele>522.0</ele><time>2026-04-11T12:38:12.81Z</time></trkpt><trkpt lat="41.933495" lon="13.087375"><ele>520.5</ele><time>2026-04-11T12:38:13.811Z</time></trkpt><trkpt lat="41.9334317" lon="13.08723"><ele>519.0</ele><time>2026-04-11T12:38:14.811Z</time></trkpt><trkpt lat="41.9333683" lon="13.0870917"><ele>517.5</ele><time>2026-04-11T12:38:15.814Z</time></trkpt><trkpt lat="41.9333067" lon="13.0869633"><ele>516.0</ele><time>2026-04-11T12:38:16.814Z</time></trkpt><trkpt lat="41.9332533" lon="13.086835"><ele>515.8</ele><time>2026-04-11T12:38:17.815Z</time></trkpt><trkpt lat="41.9332217" lon="13.0866983"><ele>515.6</ele><time>2026-04-11T12:38:18.814Z</time></trkpt><trkpt lat="41.9332133" lon="13.086555"><ele>515.4</ele><time>2026-04-11T12:38:19.813Z</time></trkpt><trkpt lat="41.9332283" lon="13.0864067"><ele>515.2</ele><time>2026-04-11T12:38:20.814Z</time></trkpt><trkpt lat="41.93326" lon="13.0862667"><ele>515.0</ele><time>2026-04-11T12:38:21.812Z</time></trkpt><trkpt lat="41.9333" lon="13.0861383"><ele>513.8</ele><time>2026-04-11T12:38:22.814Z</time></trkpt><trkpt lat="41.9333483" lon="13.0860167"><ele>512.6</ele><time>2026-04-11T12:38:23.813Z</time></trkpt><trkpt lat="41.93339" lon="13.0858967"><ele>511.4</ele><time>2026-04-11T12:38:24.81Z</time></trkpt><trkpt lat="41.93342" lon="13.0857733"><ele>510.2</ele><time>2026-04-11T12:38:25.811Z</time></trkpt><trkpt lat="41.9334233" lon="13.085655"><ele>509.0</ele><time>2026-04-11T12:38:26.814Z</time></trkpt><trkpt lat="41.9333983" lon="13.0855333"><ele>505.6</ele><time>2026-04-11T12:38:27.814Z</time></trkpt><trkpt lat="41.9333433" lon="13.0854233"><ele>502.2</ele><time>2026-04-11T12:38:28.814Z</time></trkpt><trkpt lat="41.9332667" lon="13.0853317"><ele>498.80000000000007</ele><time>2026-04-11T12:38:29.814Z</time></trkpt><trkpt lat="41.933175" lon="13.08528"><ele>495.40000000000003</ele><time>2026-04-11T12:38:30.81Z</time></trkpt><trkpt lat="41.9330817" lon="13.0852667"><ele>492.0</ele><time>2026-04-11T12:38:31.811Z</time></trkpt><trkpt lat="41.9329967" lon="13.0852817"><ele>492.00000000000006</ele><time>2026-04-11T12:38:32.811Z</time></trkpt><trkpt lat="41.932925" lon="13.08532"><ele>492.0</ele><time>2026-04-11T12:38:33.81Z</time></trkpt><trkpt lat="41.9328583" lon="13.0853667"><ele>492.00000000000006</ele><time>2026-04-11T12:38:34.814Z</time></trkpt><trkpt lat="41.9327983" lon="13.0854167"><ele>492.00000000000006</ele><time>2026-04-11T12:38:35.814Z</time></trkpt><trkpt lat="41.9327433" lon="13.08547"><ele>492.0</ele><time>2026-04-11T12:38:36.813Z</time></trkpt><trkpt lat="41.93269" lon="13.085525"><ele>492.00000000000006</ele><time>2026-04-11T12:38:37.814Z</time></trkpt><trkpt lat="41.9326317" lon="13.0855717"><ele>492.00000000000006</ele><time>2026-04-11T12:38:38.811Z</time></trkpt><trkpt lat="41.9325683" lon="13.085615"><ele>491.6666666666667</ele><time>2026-04-11T12:38:39.813Z</time></trkpt><trkpt lat="41.9324933" lon="13.08564"><ele>491.33333333333337</ele><time>2026-04-11T12:38:40.811Z</time></trkpt><trkpt lat="41.93241" lon="13.0856417"><ele>491.0</ele><time>2026-04-11T12:38:41.811Z</time></trkpt><trkpt lat="41.9323217" lon="13.0856183"><ele>490.6666666666667</ele><time>2026-04-11T12:38:42.809Z</time></trkpt><trkpt lat="41.9322367" lon="13.0855583"><ele>490.33333333333337</ele><time>2026-04-11T12:38:43.813Z</time></trkpt><trkpt lat="41.9321667" lon="13.085465"><ele>490.0</ele><time>2026-04-11T12:38:44.814Z</time></trkpt><trkpt lat="41.9321067" lon="13.0853667"><ele>490.0</ele><time>2026-04-11T12:38:45.814Z</time></trkpt><trkpt lat="41.9320533" lon="13.0852617"><ele>490.0</ele><time>2026-04-11T12:38:46.814Z</time></trkpt><trkpt lat="41.9319983" lon="13.0851617"><ele>490.0</ele><time>2026-04-11T12:38:47.813Z</time></trkpt><trkpt lat="41.931945" lon="13.08506"><ele>490.0</ele><time>2026-04-11T12:38:48.812Z</time></trkpt><trkpt lat="41.9318917" lon="13.0849567"><ele>490.0</ele><time>2026-04-11T12:38:49.814Z</time></trkpt><trkpt lat="41.931835" lon="13.084855"><ele>489.33333333333337</ele><time>2026-04-11T12:38:50.812Z</time></trkpt><trkpt lat="41.9317683" lon="13.0847667"><ele>488.6666666666667</ele><time>2026-04-11T12:38:51.809Z</time></trkpt><trkpt lat="41.9316967" lon="13.0846917"><ele>488.0</ele><time>2026-04-11T12:38:52.814Z</time></trkpt><trkpt lat="41.9316167" lon="13.0846433"><ele>487.33333333333337</ele><time>2026-04-11T12:38:53.811Z</time></trkpt><trkpt lat="41.9315317" lon="13.0846083"><ele>486.6666666666667</ele><time>2026-04-11T12:38:54.814Z</time></trkpt><trkpt lat="41.9314517" lon="13.0845683"><ele>486.0</ele><time>2026-04-11T12:38:55.814Z</time></trkpt><trkpt lat="41.9313783" lon="13.0845217"><ele>486.0</ele><time>2026-04-11T12:38:56.812Z</time></trkpt><trkpt lat="41.9313133" lon="13.0844633"><ele>486.0</ele><time>2026-04-11T12:38:57.814Z</time></trkpt><trkpt lat="41.9312583" lon="13.0843867"><ele>486.0</ele><time>2026-04-11T12:38:58.814Z</time></trkpt><trkpt lat="41.9312133" lon="13.084295"><ele>486.0</ele><time>2026-04-11T12:38:59.812Z</time></trkpt><trkpt lat="41.9311817" lon="13.0841867"><ele>486.0</ele><time>2026-04-11T12:39:00.811Z</time></trkpt><trkpt lat="41.9311683" lon="13.0840633"><ele>486.0</ele><time>2026-04-11T12:39:01.811Z</time></trkpt><trkpt lat="41.931165" lon="13.08394"><ele>483.3333333333333</ele><time>2026-04-11T12:39:02.812Z</time></trkpt><trkpt lat="41.93117" lon="13.0838183"><ele>480.66666666666663</ele><time>2026-04-11T12:39:03.814Z</time></trkpt><trkpt lat="41.9311767" lon="13.0837017"><ele>478.0</ele><time>2026-04-11T12:39:04.812Z</time></trkpt><trkpt lat="41.931185" lon="13.0835867"><ele>475.3333333333333</ele><time>2026-04-11T12:39:05.814Z</time></trkpt><trkpt lat="41.9311917" lon="13.0834733"><ele>472.66666666666663</ele><time>2026-04-11T12:39:06.813Z</time></trkpt><trkpt lat="41.9311983" lon="13.0833583"><ele>470.0</ele><time>2026-04-11T12:39:07.811Z</time></trkpt><trkpt lat="41.9311983" lon="13.0832483"><ele>466.99999999999994</ele><time>2026-04-11T12:39:08.814Z</time></trkpt><trkpt lat="41.9311833" lon="13.0831383"><ele>464.0</ele><time>2026-04-11T12:39:09.811Z</time></trkpt><trkpt lat="41.93116" lon="13.0830283"><ele>461.0</ele><time>2026-04-11T12:39:10.813Z</time></trkpt><trkpt lat="41.931125" lon="13.0829217"><ele>458.0</ele><time>2026-04-11T12:39:11.814Z</time></trkpt><trkpt lat="41.931085" lon="13.0828217"><ele>454.99999999999994</ele><time>2026-04-11T12:39:12.814Z</time></trkpt><trkpt lat="41.9310417" lon="13.0827317"><ele>452.0</ele><time>2026-04-11T12:39:13.814Z</time></trkpt><trkpt lat="41.9310033" lon="13.0826483"><ele>451.99999999999994</ele><time>2026-04-11T12:39:14.814Z</time></trkpt><trkpt lat="41.9309667" lon="13.08257"><ele>452.0</ele><time>2026-04-11T12:39:15.813Z</time></trkpt><trkpt lat="41.9309283" lon="13.0825"><ele>452.0</ele><time>2026-04-11T12:39:16.814Z</time></trkpt><trkpt lat="41.93089" lon="13.08243"><ele>452.0</ele><time>2026-04-11T12:39:17.814Z</time></trkpt><trkpt lat="41.9308517" lon="13.0823617"><ele>451.99999999999994</ele><time>2026-04-11T12:39:18.81Z</time></trkpt><trkpt lat="41.9307817" lon="13.0822367"><ele>452.0</ele><time>2026-04-11T12:39:20.811Z</time></trkpt><trkpt lat="41.9306967" lon="13.0821483"><ele>454.8</ele><time>2026-04-11T12:39:22.811Z</time></trkpt><trkpt lat="41.9305717" lon="13.0821183"><ele>457.6</ele><time>2026-04-11T12:39:24.81Z</time></trkpt><trkpt lat="41.93049" lon="13.082125"><ele>460.40000000000003</ele><time>2026-04-11T12:39:25.811Z</time></trkpt><trkpt lat="41.930405" lon="13.0821467"><ele>463.20000000000005</ele><time>2026-04-11T12:39:26.81Z</time></trkpt><trkpt lat="41.93032" lon="13.082185"><ele>466.0</ele><time>2026-04-11T12:39:27.811Z</time></trkpt><trkpt lat="41.9302367" lon="13.0822467"><ele>466.0</ele><time>2026-04-11T12:39:28.81Z</time></trkpt><trkpt lat="41.93017" lon="13.0823483"><ele>466.0</ele><time>2026-04-11T12:39:29.811Z</time></trkpt><trkpt lat="41.930105" lon="13.0824683"><ele>466.0</ele><time>2026-04-11T12:39:30.811Z</time></trkpt><trkpt lat="41.9300483" lon="13.0826017"><ele>466.0</ele><time>2026-04-11T12:39:31.811Z</time></trkpt><trkpt lat="41.93" lon="13.0827333"><ele>466.0</ele><time>2026-04-11T12:39:32.813Z</time></trkpt><trkpt lat="41.9299567" lon="13.08286"><ele>466.8</ele><time>2026-04-11T12:39:33.811Z</time></trkpt><trkpt lat="41.9299167" lon="13.0829883"><ele>467.6</ele><time>2026-04-11T12:39:34.811Z</time></trkpt><trkpt lat="41.9298867" lon="13.0831233"><ele>468.4</ele><time>2026-04-11T12:39:35.811Z</time></trkpt><trkpt lat="41.9298717" lon="13.083265"><ele>469.2</ele><time>2026-04-11T12:39:36.811Z</time></trkpt><trkpt lat="41.9298633" lon="13.0834067"><ele>470.0</ele><time>2026-04-11T12:39:37.81Z</time></trkpt><trkpt lat="41.9298617" lon="13.0835433"><ele>470.0</ele><time>2026-04-11T12:39:38.811Z</time></trkpt><trkpt lat="41.9298717" lon="13.0836783"><ele>470.0</ele><time>2026-04-11T12:39:39.811Z</time></trkpt><trkpt lat="41.9298883" lon="13.0838133"><ele>470.0</ele><time>2026-04-11T12:39:40.811Z</time></trkpt><trkpt lat="41.9299083" lon="13.0839517"><ele>470.0</ele><time>2026-04-11T12:39:41.811Z</time></trkpt><trkpt lat="41.9299283" lon="13.0840883"><ele>470.0</ele><time>2026-04-11T12:39:42.811Z</time></trkpt><trkpt lat="41.9299367" lon="13.0842233"><ele>470.0</ele><time>2026-04-11T12:39:43.811Z</time></trkpt><trkpt lat="41.9299267" lon="13.0843583"><ele>470.0</ele><time>2026-04-11T12:39:44.811Z</time></trkpt><trkpt lat="41.929895" lon="13.0844783"><ele>470.0</ele><time>2026-04-11T12:39:45.811Z</time></trkpt><trkpt lat="41.9298417" lon="13.08459"><ele>470.0</ele><time>2026-04-11T12:39:46.813Z</time></trkpt><trkpt lat="41.929775" lon="13.0847"><ele>470.0</ele><time>2026-04-11T12:39:47.814Z</time></trkpt><trkpt lat="41.9297067" lon="13.084815"><ele>471.5</ele><time>2026-04-11T12:39:48.811Z</time></trkpt><trkpt lat="41.9296367" lon="13.084935"><ele>473.0</ele><time>2026-04-11T12:39:49.812Z</time></trkpt><trkpt lat="41.9295633" lon="13.08506"><ele>474.5</ele><time>2026-04-11T12:39:50.812Z</time></trkpt><trkpt lat="41.9294833" lon="13.0851933"><ele>476.0</ele><time>2026-04-11T12:39:51.811Z</time></trkpt><trkpt lat="41.9293867" lon="13.085335"><ele>476.0</ele><time>2026-04-11T12:39:52.811Z</time></trkpt><trkpt lat="41.929275" lon="13.0854733"><ele>476.0</ele><time>2026-04-11T12:39:53.812Z</time></trkpt><trkpt lat="41.9291583" lon="13.0856033"><ele>476.0</ele><time>2026-04-11T12:39:54.812Z</time></trkpt><trkpt lat="41.9290433" lon="13.0857283"><ele>472.0</ele><time>2026-04-11T12:39:55.813Z</time></trkpt><trkpt lat="41.9289367" lon="13.085855"><ele>468.0</ele><time>2026-04-11T12:39:56.812Z</time></trkpt><trkpt lat="41.92884" lon="13.0859783"><ele>464.0</ele><time>2026-04-11T12:39:57.813Z</time></trkpt><trkpt lat="41.9287517" lon="13.086095"><ele>460.0</ele><time>2026-04-11T12:39:58.811Z</time></trkpt><trkpt lat="41.9286867" lon="13.0862183"><ele>460.0</ele><time>2026-04-11T12:39:59.814Z</time></trkpt><trkpt lat="41.9286383" lon="13.0863467"><ele>460.0</ele><time>2026-04-11T12:40:00.812Z</time></trkpt><trkpt lat="41.92862" lon="13.0864883"><ele>460.0</ele><time>2026-04-11T12:40:01.814Z</time></trkpt><trkpt lat="41.928645" lon="13.0866217"><ele>460.0</ele><time>2026-04-11T12:40:02.812Z</time></trkpt><trkpt lat="41.9287067" lon="13.0867383"><ele>460.0</ele><time>2026-04-11T12:40:03.813Z</time></trkpt><trkpt lat="41.9288033" lon="13.0868367"><ele>459.0</ele><time>2026-04-11T12:40:04.814Z</time></trkpt><trkpt lat="41.92892" lon="13.08692"><ele>458.0</ele><time>2026-04-11T12:40:05.813Z</time></trkpt><trkpt lat="41.9290267" lon="13.086995"><ele>457.0</ele><time>2026-04-11T12:40:06.813Z</time></trkpt><trkpt lat="41.929105" lon="13.0870783"><ele>456.0</ele><time>2026-04-11T12:40:07.811Z</time></trkpt><trkpt lat="41.9291533" lon="13.0871767"><ele>455.0</ele><time>2026-04-11T12:40:08.81Z</time></trkpt><trkpt lat="41.9291767" lon="13.0872833"><ele>455.0</ele><time>2026-04-11T12:40:09.811Z</time></trkpt><trkpt lat="41.9291767" lon="13.087405"><ele>455.0</ele><time>2026-04-11T12:40:10.814Z</time></trkpt><trkpt lat="41.9291483" lon="13.087535"><ele>455.0</ele><time>2026-04-11T12:40:11.812Z</time></trkpt><trkpt lat="41.929065" lon="13.0876333"><ele>455.0</ele><time>2026-04-11T12:40:12.81Z</time></trkpt><trkpt lat="41.9289433" lon="13.0877133"><ele>455.0</ele><time>2026-04-11T12:40:13.812Z</time></trkpt><trkpt lat="41.9288267" lon="13.0877867"><ele>453.25</ele><time>2026-04-11T12:40:14.813Z</time></trkpt><trkpt lat="41.9287133" lon="13.0878667"><ele>451.5</ele><time>2026-04-11T12:40:15.812Z</time></trkpt><trkpt lat="41.92861" lon="13.087965"><ele>449.75</ele><time>2026-04-11T12:40:16.812Z</time></trkpt><trkpt lat="41.9285133" lon="13.0880767"><ele>448.0</ele><time>2026-04-11T12:40:17.814Z</time></trkpt><trkpt lat="41.9284267" lon="13.0881983"><ele>445.25</ele><time>2026-04-11T12:40:18.809Z</time></trkpt><trkpt lat="41.928355" lon="13.0883283"><ele>442.5</ele><time>2026-04-11T12:40:19.811Z</time></trkpt><trkpt lat="41.9283033" lon="13.0884767"><ele>439.75</ele><time>2026-04-11T12:40:20.811Z</time></trkpt><trkpt lat="41.9282767" lon="13.0886433"><ele>437.0</ele><time>2026-04-11T12:40:21.811Z</time></trkpt><trkpt lat="41.92825" lon="13.08881"><ele>437.0</ele><time>2026-04-11T12:40:22.811Z</time></trkpt><trkpt lat="41.9282017" lon="13.088965"><ele>437.0</ele><time>2026-04-11T12:40:23.81Z</time></trkpt><trkpt lat="41.9281283" lon="13.0890833"><ele>437.0</ele><time>2026-04-11T12:40:24.81Z</time></trkpt><trkpt lat="41.9280283" lon="13.0891583"><ele>437.0</ele><time>2026-04-11T12:40:25.81Z</time></trkpt><trkpt lat="41.9279217" lon="13.0892"><ele>440.0</ele><time>2026-04-11T12:40:26.811Z</time></trkpt><trkpt lat="41.927815" lon="13.089205"><ele>443.0</ele><time>2026-04-11T12:40:27.81Z</time></trkpt><trkpt lat="41.9277033" lon="13.089165"><ele>446.0</ele><time>2026-04-11T12:40:28.81Z</time></trkpt><trkpt lat="41.927595" lon="13.0891083"><ele>449.0</ele><time>2026-04-11T12:40:29.814Z</time></trkpt><trkpt lat="41.92749" lon="13.089055"><ele>445.0</ele><time>2026-04-11T12:40:30.809Z</time></trkpt><trkpt lat="41.9273833" lon="13.089015"><ele>441.0</ele><time>2026-04-11T12:40:31.811Z</time></trkpt><trkpt lat="41.927275" lon="13.089"><ele>437.0</ele><time>2026-04-11T12:40:32.81Z</time></trkpt><trkpt lat="41.9271667" lon="13.08902"><ele>433.0</ele><time>2026-04-11T12:40:33.81Z</time></trkpt><trkpt lat="41.92707" lon="13.0890617"><ele>429.0</ele><time>2026-04-11T12:40:34.811Z</time></trkpt><trkpt lat="41.9269883" lon="13.0891133"><ele>429.0</ele><time>2026-04-11T12:40:35.812Z</time></trkpt><trkpt lat="41.9269167" lon="13.0891817"><ele>429.0</ele><time>2026-04-11T12:40:36.813Z</time></trkpt><trkpt lat="41.9268717" lon="13.08927"><ele>429.0</ele><time>2026-04-11T12:40:37.814Z</time></trkpt><trkpt lat="41.9268483" lon="13.0893783"><ele>429.0</ele><time>2026-04-11T12:40:38.813Z</time></trkpt><trkpt lat="41.926845" lon="13.0894933"><ele>429.0</ele><time>2026-04-11T12:40:39.904Z</time></trkpt><trkpt lat="41.9268467" lon="13.0896067"><ele>429.0</ele><time>2026-04-11T12:40:40.81Z</time></trkpt><trkpt lat="41.926845" lon="13.0897217"><ele>429.0</ele><time>2026-04-11T12:40:41.814Z</time></trkpt><trkpt lat="41.926835" lon="13.0898383"><ele>429.0</ele><time>2026-04-11T12:40:42.814Z</time></trkpt><trkpt lat="41.9268" lon="13.0899433"><ele>429.0</ele><time>2026-04-11T12:40:43.814Z</time></trkpt><trkpt lat="41.9267383" lon="13.0900383"><ele>429.0</ele><time>2026-04-11T12:40:44.81Z</time></trkpt><trkpt lat="41.92665" lon="13.0901183"><ele>429.0</ele><time>2026-04-11T12:40:45.814Z</time></trkpt><trkpt lat="41.9265567" lon="13.0901917"><ele>427.6</ele><time>2026-04-11T12:40:46.814Z</time></trkpt><trkpt lat="41.9264683" lon="13.09027"><ele>426.2</ele><time>2026-04-11T12:40:47.811Z</time></trkpt><trkpt lat="41.9263917" lon="13.0903567"><ele>424.8</ele><time>2026-04-11T12:40:48.813Z</time></trkpt><trkpt lat="41.9263233" lon="13.090465"><ele>423.40000000000003</ele><time>2026-04-11T12:40:49.812Z</time></trkpt><trkpt lat="41.9262633" lon="13.0905817"><ele>422.0</ele><time>2026-04-11T12:40:50.814Z</time></trkpt><trkpt lat="41.9262" lon="13.0906867"><ele>420.8333333333333</ele><time>2026-04-11T12:40:51.811Z</time></trkpt><trkpt lat="41.9261433" lon="13.0907767"><ele>419.66666666666663</ele><time>2026-04-11T12:40:52.811Z</time></trkpt><trkpt lat="41.9260833" lon="13.0908533"><ele>418.5</ele><time>2026-04-11T12:40:53.813Z</time></trkpt><trkpt lat="41.9260167" lon="13.09092"><ele>417.33333333333337</ele><time>2026-04-11T12:40:54.812Z</time></trkpt><trkpt lat="41.9259533" lon="13.090985"><ele>416.1666666666667</ele><time>2026-04-11T12:40:55.812Z</time></trkpt><trkpt lat="41.92589" lon="13.09104"><ele>415.0</ele><time>2026-04-11T12:40:56.812Z</time></trkpt><trkpt lat="41.9258433" lon="13.0910983"><ele>415.0</ele><time>2026-04-11T12:40:57.813Z</time></trkpt><trkpt lat="41.925795" lon="13.09123"><ele>415.0</ele><time>2026-04-11T12:40:59.814Z</time></trkpt><trkpt lat="41.9257833" lon="13.0913767"><ele>415.0</ele><time>2026-04-11T12:41:01.814Z</time></trkpt><trkpt lat="41.92578" lon="13.0915467"><ele>415.0</ele><time>2026-04-11T12:41:03.813Z</time></trkpt><trkpt lat="41.9257783" lon="13.0916317"><ele>415.0</ele><time>2026-04-11T12:41:04.812Z</time></trkpt><trkpt lat="41.9257733" lon="13.0917833"><ele>415.1666666666667</ele><time>2026-04-11T12:41:06.815Z</time></trkpt><trkpt lat="41.9257683" lon="13.0918883"><ele>415.33333333333337</ele><time>2026-04-11T12:41:08.812Z</time></trkpt><trkpt lat="41.92577" lon="13.092005"><ele>415.5</ele><time>2026-04-11T12:41:11.811Z</time></trkpt><trkpt lat="41.925765" lon="13.0920933"><ele>415.66666666666663</ele><time>2026-04-11T12:41:13.813Z</time></trkpt><trkpt lat="41.925735" lon="13.092215"><ele>415.8333333333333</ele><time>2026-04-11T12:41:15.81Z</time></trkpt><trkpt lat="41.92567" lon="13.092355"><ele>416.0</ele><time>2026-04-11T12:41:17.81Z</time></trkpt><trkpt lat="41.9256167" lon="13.0924233"><ele>417.4</ele><time>2026-04-11T12:41:18.812Z</time></trkpt><trkpt lat="41.9255467" lon="13.0924983"><ele>418.8</ele><time>2026-04-11T12:41:19.81Z</time></trkpt><trkpt lat="41.9254667" lon="13.092575"><ele>420.2</ele><time>2026-04-11T12:41:20.811Z</time></trkpt><trkpt lat="41.9253917" lon="13.092655"><ele>421.59999999999997</ele><time>2026-04-11T12:41:21.811Z</time></trkpt><trkpt lat="41.9253183" lon="13.09274"><ele>423.0</ele><time>2026-04-11T12:41:22.81Z</time></trkpt><trkpt lat="41.9252467" lon="13.09283"><ele>423.0</ele><time>2026-04-11T12:41:23.811Z</time></trkpt><trkpt lat="41.925175" lon="13.0929117"><ele>423.0</ele><time>2026-04-11T12:41:24.811Z</time></trkpt><trkpt lat="41.925105" lon="13.09299"><ele>423.0</ele><time>2026-04-11T12:41:25.811Z</time></trkpt><trkpt lat="41.925035" lon="13.0930633"><ele>423.0</ele><time>2026-04-11T12:41:26.813Z</time></trkpt><trkpt lat="41.9249717" lon="13.09314"><ele>423.0</ele><time>2026-04-11T12:41:27.811Z</time></trkpt><trkpt lat="41.9249033" lon="13.093205"><ele>423.0</ele><time>2026-04-11T12:41:28.811Z</time></trkpt><trkpt lat="41.92484" lon="13.0932733"><ele>423.1666666666667</ele><time>2026-04-11T12:41:29.81Z</time></trkpt><trkpt lat="41.924795" lon="13.093355"><ele>423.33333333333337</ele><time>2026-04-11T12:41:30.811Z</time></trkpt><trkpt lat="41.92474" lon="13.093425"><ele>423.5</ele><time>2026-04-11T12:41:31.811Z</time></trkpt><trkpt lat="41.92468" lon="13.093485"><ele>423.6666666666667</ele><time>2026-04-11T12:41:32.811Z</time></trkpt><trkpt lat="41.924625" lon="13.09355"><ele>423.83333333333337</ele><time>2026-04-11T12:41:33.811Z</time></trkpt><trkpt lat="41.9245583" lon="13.0936083"><ele>424.0</ele><time>2026-04-11T12:41:34.809Z</time></trkpt><trkpt lat="41.9245033" lon="13.0936883"><ele>424.00000000000006</ele><time>2026-04-11T12:41:35.813Z</time></trkpt><trkpt lat="41.924455" lon="13.093775"><ele>424.0</ele><time>2026-04-11T12:41:36.814Z</time></trkpt><trkpt lat="41.924405" lon="13.09386"><ele>424.0</ele><time>2026-04-11T12:41:37.811Z</time></trkpt><trkpt lat="41.9243567" lon="13.0939317"><ele>424.0</ele><time>2026-04-11T12:41:38.811Z</time></trkpt><trkpt lat="41.9242883" lon="13.09403"><ele>424.00000000000006</ele><time>2026-04-11T12:41:40.814Z</time></trkpt><trkpt lat="41.9242267" lon="13.0940883"><ele>424.0</ele><time>2026-04-11T12:41:44.814Z</time></trkpt><trkpt lat="41.9241633" lon="13.0941083"><ele>422.1666666666667</ele><time>2026-04-11T12:41:47.81Z</time></trkpt><trkpt lat="41.9240733" lon="13.0941167"><ele>420.33333333333337</ele><time>2026-04-11T12:41:50.813Z</time></trkpt><trkpt lat="41.9240067" lon="13.09411"><ele>418.5</ele><time>2026-04-11T12:41:52.811Z</time></trkpt><trkpt lat="41.92396" lon="13.094215"><ele>416.66666666666663</ele><time>2026-04-11T12:41:55.813Z</time></trkpt><trkpt lat="41.92396" lon="13.094305"><ele>414.8333333333333</ele><time>2026-04-11T12:41:56.815Z</time></trkpt><trkpt lat="41.9239517" lon="13.094405"><ele>413.0</ele><time>2026-04-11T12:41:57.812Z</time></trkpt><trkpt lat="41.9239383" lon="13.09451"><ele>412.99999999999994</ele><time>2026-04-11T12:41:58.81Z</time></trkpt><trkpt lat="41.9239367" lon="13.0946133"><ele>413.0</ele><time>2026-04-11T12:41:59.81Z</time></trkpt><trkpt lat="41.92394" lon="13.094725"><ele>413.0</ele><time>2026-04-11T12:42:00.81Z</time></trkpt><trkpt lat="41.92394" lon="13.0948567"><ele>413.0</ele><time>2026-04-11T12:42:01.81Z</time></trkpt><trkpt lat="41.9239383" lon="13.0949833"><ele>412.99999999999994</ele><time>2026-04-11T12:42:02.812Z</time></trkpt><trkpt lat="41.9239383" lon="13.0951133"><ele>413.0</ele><time>2026-04-11T12:42:03.811Z</time></trkpt><trkpt lat="41.9239317" lon="13.09524"><ele>413.99999999999994</ele><time>2026-04-11T12:42:04.811Z</time></trkpt><trkpt lat="41.92393" lon="13.09536"><ele>415.0</ele><time>2026-04-11T12:42:05.81Z</time></trkpt><trkpt lat="41.92393" lon="13.0954767"><ele>416.0</ele><time>2026-04-11T12:42:06.811Z</time></trkpt><trkpt lat="41.92393" lon="13.0955883"><ele>417.0</ele><time>2026-04-11T12:42:07.811Z</time></trkpt><trkpt lat="41.9239367" lon="13.0957"><ele>417.99999999999994</ele><time>2026-04-11T12:42:08.811Z</time></trkpt><trkpt lat="41.9239433" lon="13.0957967"><ele>419.0</ele><time>2026-04-11T12:42:09.814Z</time></trkpt><trkpt lat="41.9239517" lon="13.0958883"><ele>419.2857142857143</ele><time>2026-04-11T12:42:10.811Z</time></trkpt><trkpt lat="41.9239633" lon="13.09598"><ele>419.57142857142856</ele><time>2026-04-11T12:42:11.813Z</time></trkpt><trkpt lat="41.92398" lon="13.0960683"><ele>419.8571428571429</ele><time>2026-04-11T12:42:12.81Z</time></trkpt><trkpt lat="41.9239983" lon="13.0961567"><ele>420.1428571428571</ele><time>2026-04-11T12:42:13.811Z</time></trkpt><trkpt lat="41.924015" lon="13.09624"><ele>420.42857142857144</ele><time>2026-04-11T12:42:14.811Z</time></trkpt><trkpt lat="41.9240383" lon="13.09633"><ele>420.7142857142857</ele><time>2026-04-11T12:42:15.811Z</time></trkpt><trkpt lat="41.9240633" lon="13.0964167"><ele>421.0</ele><time>2026-04-11T12:42:16.81Z</time></trkpt><trkpt lat="41.924095" lon="13.0965"><ele>421.00000000000006</ele><time>2026-04-11T12:42:17.811Z</time></trkpt><trkpt lat="41.9241283" lon="13.09658"><ele>421.0</ele><time>2026-04-11T12:42:18.814Z</time></trkpt><trkpt lat="41.92419" lon="13.09664"><ele>421.0</ele><time>2026-04-11T12:42:19.814Z</time></trkpt><trkpt lat="41.924265" lon="13.0966883"><ele>421.0</ele><time>2026-04-11T12:42:20.81Z</time></trkpt><trkpt lat="41.9243283" lon="13.0967383"><ele>421.0</ele><time>2026-04-11T12:42:21.811Z</time></trkpt><trkpt lat="41.924395" lon="13.0967767"><ele>421.00000000000006</ele><time>2026-04-11T12:42:22.811Z</time></trkpt><trkpt lat="41.9244617" lon="13.0968133"><ele>421.0</ele><time>2026-04-11T12:42:23.812Z</time></trkpt><trkpt lat="41.9245217" lon="13.0968467"><ele>421.4</ele><time>2026-04-11T12:42:24.817Z</time></trkpt><trkpt lat="41.9246183" lon="13.0969567"><ele>421.8</ele><time>2026-04-11T12:42:26.81Z</time></trkpt><trkpt lat="41.92467" lon="13.0970167"><ele>422.2</ele><time>2026-04-11T12:42:27.811Z</time></trkpt><trkpt lat="41.9247183" lon="13.0970933"><ele>422.59999999999997</ele><time>2026-04-11T12:42:28.81Z</time></trkpt><trkpt lat="41.924765" lon="13.0971967"><ele>423.0</ele><time>2026-04-11T12:42:29.811Z</time></trkpt><trkpt lat="41.924815" lon="13.0972983"><ele>423.0</ele><time>2026-04-11T12:42:30.81Z</time></trkpt><trkpt lat="41.92487" lon="13.0973883"><ele>423.0</ele><time>2026-04-11T12:42:31.813Z</time></trkpt><trkpt lat="41.9249317" lon="13.09747"><ele>423.0</ele><time>2026-04-11T12:42:32.814Z</time></trkpt><trkpt lat="41.9250017" lon="13.0975367"><ele>423.0</ele><time>2026-04-11T12:42:33.814Z</time></trkpt><trkpt lat="41.9250733" lon="13.0975917"><ele>423.0</ele><time>2026-04-11T12:42:34.814Z</time></trkpt><trkpt lat="41.9251533" lon="13.0976283"><ele>423.0</ele><time>2026-04-11T12:42:35.81Z</time></trkpt><trkpt lat="41.9252317" lon="13.0976617"><ele>420.85714285714283</ele><time>2026-04-11T12:42:36.811Z</time></trkpt><trkpt lat="41.9253083" lon="13.0976817"><ele>418.7142857142857</ele><time>2026-04-11T12:42:37.81Z</time></trkpt><trkpt lat="41.92538" lon="13.0977"><ele>416.57142857142856</ele><time>2026-04-11T12:42:38.811Z</time></trkpt><trkpt lat="41.92545" lon="13.0977183"><ele>414.42857142857144</ele><time>2026-04-11T12:42:39.811Z</time></trkpt><trkpt lat="41.9255133" lon="13.0977283"><ele>412.28571428571433</ele><time>2026-04-11T12:42:40.811Z</time></trkpt><trkpt lat="41.925575" lon="13.09775"><ele>410.14285714285717</ele><time>2026-04-11T12:42:41.81Z</time></trkpt><trkpt lat="41.9256267" lon="13.0978"><ele>408.0</ele><time>2026-04-11T12:42:42.812Z</time></trkpt><trkpt lat="41.9257383" lon="13.097885"><ele>408.0</ele><time>2026-04-11T12:42:44.812Z</time></trkpt><trkpt lat="41.92578" lon="13.09796"><ele>408.0</ele><time>2026-04-11T12:42:45.811Z</time></trkpt><trkpt lat="41.9258083" lon="13.0980433"><ele>408.0</ele><time>2026-04-11T12:42:46.809Z</time></trkpt><trkpt lat="41.925825" lon="13.0981283"><ele>408.0</ele><time>2026-04-11T12:42:47.811Z</time></trkpt><trkpt lat="41.9258233" lon="13.0982133"><ele>408.0</ele><time>2026-04-11T12:42:48.811Z</time></trkpt><trkpt lat="41.9258067" lon="13.0983017"><ele>408.0</ele><time>2026-04-11T12:42:49.813Z</time></trkpt><trkpt lat="41.9257883" lon="13.098395"><ele>408.0</ele><time>2026-04-11T12:42:50.811Z</time></trkpt><trkpt lat="41.9257717" lon="13.0984917"><ele>406.8333333333333</ele><time>2026-04-11T12:42:51.813Z</time></trkpt><trkpt lat="41.9257617" lon="13.0985967"><ele>405.66666666666663</ele><time>2026-04-11T12:42:52.81Z</time></trkpt><trkpt lat="41.925755" lon="13.0987083"><ele>404.5</ele><time>2026-04-11T12:42:53.811Z</time></trkpt><trkpt lat="41.9257467" lon="13.0988267"><ele>403.3333333333333</ele><time>2026-04-11T12:42:54.813Z</time></trkpt><trkpt lat="41.9257433" lon="13.0989517"><ele>402.16666666666663</ele><time>2026-04-11T12:42:55.81Z</time></trkpt><trkpt lat="41.92574" lon="13.0990767"><ele>401.0</ele><time>2026-04-11T12:42:56.812Z</time></trkpt><trkpt lat="41.925735" lon="13.099205"><ele>401.0</ele><time>2026-04-11T12:42:57.818Z</time></trkpt><trkpt lat="41.92573" lon="13.099335"><ele>401.0</ele><time>2026-04-11T12:42:58.813Z</time></trkpt><trkpt lat="41.9257217" lon="13.0994683"><ele>401.0</ele><time>2026-04-11T12:42:59.811Z</time></trkpt><trkpt lat="41.925715" lon="13.0996083"><ele>401.0</ele><time>2026-04-11T12:43:00.81Z</time></trkpt><trkpt lat="41.9257083" lon="13.0997517"><ele>401.0</ele><time>2026-04-11T12:43:01.813Z</time></trkpt><trkpt lat="41.9257" lon="13.0998917"><ele>401.20000000000005</ele><time>2026-04-11T12:43:02.812Z</time></trkpt><trkpt lat="41.9256867" lon="13.10003"><ele>401.40000000000003</ele><time>2026-04-11T12:43:03.812Z</time></trkpt><trkpt lat="41.9256733" lon="13.1001733"><ele>401.6</ele><time>2026-04-11T12:43:04.813Z</time></trkpt><trkpt lat="41.92566" lon="13.10032"><ele>401.8</ele><time>2026-04-11T12:43:05.81Z</time></trkpt><trkpt lat="41.9256417" lon="13.10047"><ele>402.0</ele><time>2026-04-11T12:43:06.814Z</time></trkpt><trkpt lat="41.9256283" lon="13.1006233"><ele>403.5</ele><time>2026-04-11T12:43:07.811Z</time></trkpt><trkpt lat="41.92562" lon="13.1007783"><ele>405.0</ele><time>2026-04-11T12:43:08.814Z</time></trkpt><trkpt lat="41.9256133" lon="13.10093"><ele>406.5</ele><time>2026-04-11T12:43:09.812Z</time></trkpt><trkpt lat="41.925605" lon="13.1010833"><ele>408.0</ele><time>2026-04-11T12:43:10.81Z</time></trkpt><trkpt lat="41.925595" lon="13.1012267"><ele>408.0</ele><time>2026-04-11T12:43:11.813Z</time></trkpt><trkpt lat="41.9256" lon="13.10137"><ele>408.0</ele><time>2026-04-11T12:43:12.812Z</time></trkpt><trkpt lat="41.92562" lon="13.10151"><ele>408.0</ele><time>2026-04-11T12:43:13.811Z</time></trkpt><trkpt lat="41.9256583" lon="13.1016533"><ele>408.0</ele><time>2026-04-11T12:43:14.811Z</time></trkpt><trkpt lat="41.92573" lon="13.1017833"><ele>408.0</ele><time>2026-04-11T12:43:15.814Z</time></trkpt><trkpt lat="41.9258067" lon="13.1018983"><ele>408.0</ele><time>2026-04-11T12:43:16.81Z</time></trkpt><trkpt lat="41.9258767" lon="13.1019983"><ele>408.0</ele><time>2026-04-11T12:43:17.81Z</time></trkpt><trkpt lat="41.925935" lon="13.1020933"><ele>408.0</ele><time>2026-04-11T12:43:18.81Z</time></trkpt><trkpt lat="41.92598" lon="13.1021833"><ele>408.0</ele><time>2026-04-11T12:43:19.814Z</time></trkpt><trkpt lat="41.9260133" lon="13.1022717"><ele>408.0</ele><time>2026-04-11T12:43:20.814Z</time></trkpt><trkpt lat="41.9260383" lon="13.10236"><ele>408.0</ele><time>2026-04-11T12:43:21.811Z</time></trkpt><trkpt lat="41.9260517" lon="13.10245"><ele>410.2</ele><time>2026-04-11T12:43:22.811Z</time></trkpt><trkpt lat="41.92606" lon="13.1025467"><ele>412.4</ele><time>2026-04-11T12:43:23.811Z</time></trkpt><trkpt lat="41.92606" lon="13.1026583"><ele>414.59999999999997</ele><time>2026-04-11T12:43:24.813Z</time></trkpt><trkpt lat="41.9260617" lon="13.102785"><ele>416.79999999999995</ele><time>2026-04-11T12:43:25.814Z</time></trkpt><trkpt lat="41.9260583" lon="13.102925"><ele>419.0</ele><time>2026-04-11T12:43:26.814Z</time></trkpt><trkpt lat="41.9260583" lon="13.103065"><ele>419.0</ele><time>2026-04-11T12:43:27.814Z</time></trkpt><trkpt lat="41.9260583" lon="13.10321"><ele>419.0</ele><time>2026-04-11T12:43:28.814Z</time></trkpt><trkpt lat="41.9260483" lon="13.10335"><ele>419.0</ele><time>2026-04-11T12:43:29.81Z</time></trkpt><trkpt lat="41.9260317" lon="13.1034883"><ele>419.0</ele><time>2026-04-11T12:43:30.812Z</time></trkpt><trkpt lat="41.9260067" lon="13.10362"><ele>419.0</ele><time>2026-04-11T12:43:31.811Z</time></trkpt><trkpt lat="41.9259767" lon="13.10375"><ele>420.6</ele><time>2026-04-11T12:43:32.811Z</time></trkpt><trkpt lat="41.9259383" lon="13.1038717"><ele>422.2</ele><time>2026-04-11T12:43:33.811Z</time></trkpt><trkpt lat="41.9258983" lon="13.10399"><ele>423.80000000000007</ele><time>2026-04-11T12:43:34.811Z</time></trkpt><trkpt lat="41.9258583" lon="13.104105"><ele>425.40000000000003</ele><time>2026-04-11T12:43:35.811Z</time></trkpt><trkpt lat="41.92582" lon="13.1042217"><ele>427.0</ele><time>2026-04-11T12:43:36.811Z</time></trkpt><trkpt lat="41.9257817" lon="13.1043367"><ele>427.0</ele><time>2026-04-11T12:43:37.812Z</time></trkpt><trkpt lat="41.9257433" lon="13.1044533"><ele>427.00000000000006</ele><time>2026-04-11T12:43:38.811Z</time></trkpt><trkpt lat="41.9257" lon="13.1045683"><ele>427.00000000000006</ele><time>2026-04-11T12:43:39.811Z</time></trkpt><trkpt lat="41.92565" lon="13.1046817"><ele>427.0</ele><time>2026-04-11T12:43:40.813Z</time></trkpt><trkpt lat="41.9255917" lon="13.104785"><ele>427.0</ele><time>2026-04-11T12:43:41.813Z</time></trkpt><trkpt lat="41.9255167" lon="13.1048733"><ele>426.6</ele><time>2026-04-11T12:43:42.814Z</time></trkpt><trkpt lat="41.92543" lon="13.1049533"><ele>426.20000000000005</ele><time>2026-04-11T12:43:43.811Z</time></trkpt><trkpt lat="41.9253367" lon="13.1050217"><ele>425.8</ele><time>2026-04-11T12:43:44.812Z</time></trkpt><trkpt lat="41.9252417" lon="13.1050817"><ele>425.4</ele><time>2026-04-11T12:43:45.812Z</time></trkpt><trkpt lat="41.9251417" lon="13.1051267"><ele>425.0</ele><time>2026-04-11T12:43:46.816Z</time></trkpt><trkpt lat="41.92503" lon="13.10516"><ele>425.0</ele><time>2026-04-11T12:43:47.813Z</time></trkpt><trkpt lat="41.9249367" lon="13.10519"><ele>425.0</ele><time>2026-04-11T12:43:48.813Z</time></trkpt><trkpt lat="41.9248367" lon="13.1052067"><ele>425.0</ele><time>2026-04-11T12:43:49.811Z</time></trkpt><trkpt lat="41.9247417" lon="13.1052183"><ele>425.0</ele><time>2026-04-11T12:43:50.811Z</time></trkpt><trkpt lat="41.9246417" lon="13.1052217"><ele>425.0</ele><time>2026-04-11T12:43:51.812Z</time></trkpt><trkpt lat="41.9245483" lon="13.1052233"><ele>424.99999999999994</ele><time>2026-04-11T12:43:52.809Z</time></trkpt><trkpt lat="41.924465" lon="13.1052217"><ele>425.0</ele><time>2026-04-11T12:43:53.811Z</time></trkpt><trkpt lat="41.9243817" lon="13.1052333"><ele>425.0</ele><time>2026-04-11T12:43:54.811Z</time></trkpt><trkpt lat="41.9243" lon="13.105265"><ele>425.0</ele><time>2026-04-11T12:43:55.81Z</time></trkpt><trkpt lat="41.9242183" lon="13.10531"><ele>424.99999999999994</ele><time>2026-04-11T12:43:56.811Z</time></trkpt><trkpt lat="41.9241383" lon="13.105355"><ele>425.0</ele><time>2026-04-11T12:43:57.813Z</time></trkpt><trkpt lat="41.9240617" lon="13.105405"><ele>424.3333333333333</ele><time>2026-04-11T12:43:58.811Z</time></trkpt><trkpt lat="41.9239883" lon="13.105455"><ele>423.66666666666663</ele><time>2026-04-11T12:43:59.81Z</time></trkpt><trkpt lat="41.92391" lon="13.1054967"><ele>423.0</ele><time>2026-04-11T12:44:00.812Z</time></trkpt><trkpt lat="41.92383" lon="13.105525"><ele>422.33333333333337</ele><time>2026-04-11T12:44:01.811Z</time></trkpt><trkpt lat="41.923755" lon="13.10555"><ele>421.6666666666667</ele><time>2026-04-11T12:44:02.811Z</time></trkpt><trkpt lat="41.923685" lon="13.1055817"><ele>421.0</ele><time>2026-04-11T12:44:03.81Z</time></trkpt><trkpt lat="41.9236133" lon="13.1056217"><ele>421.0</ele><time>2026-04-11T12:44:04.812Z</time></trkpt><trkpt lat="41.92354" lon="13.1056733"><ele>421.0</ele><time>2026-04-11T12:44:05.812Z</time></trkpt><trkpt lat="41.9234633" lon="13.105735"><ele>421.0</ele><time>2026-04-11T12:44:06.812Z</time></trkpt><trkpt lat="41.9233767" lon="13.1057917"><ele>421.0</ele><time>2026-04-11T12:44:07.813Z</time></trkpt><trkpt lat="41.9232917" lon="13.1058567"><ele>421.0</ele><time>2026-04-11T12:44:08.811Z</time></trkpt><trkpt lat="41.9231967" lon="13.1059183"><ele>424.25</ele><time>2026-04-11T12:44:09.814Z</time></trkpt><trkpt lat="41.923095" lon="13.1059833"><ele>427.5</ele><time>2026-04-11T12:44:10.81Z</time></trkpt><trkpt lat="41.9229883" lon="13.106055"><ele>430.75</ele><time>2026-04-11T12:44:11.81Z</time></trkpt><trkpt lat="41.9228733" lon="13.1061133"><ele>434.0</ele><time>2026-04-11T12:44:12.814Z</time></trkpt><trkpt lat="41.922755" lon="13.1061617"><ele>434.0</ele><time>2026-04-11T12:44:13.81Z</time></trkpt><trkpt lat="41.922645" lon="13.1062083"><ele>434.0</ele><time>2026-04-11T12:44:14.811Z</time></trkpt><trkpt lat="41.9225383" lon="13.1062567"><ele>434.0</ele><time>2026-04-11T12:44:15.814Z</time></trkpt><trkpt lat="41.9224367" lon="13.1062983"><ele>434.0</ele><time>2026-04-11T12:44:16.813Z</time></trkpt><trkpt lat="41.92234" lon="13.106345"><ele>434.0</ele><time>2026-04-11T12:44:17.811Z</time></trkpt><trkpt lat="41.9222483" lon="13.1063833"><ele>432.99999999999994</ele><time>2026-04-11T12:44:18.811Z</time></trkpt><trkpt lat="41.9221667" lon="13.1064133"><ele>432.0</ele><time>2026-04-11T12:44:19.813Z</time></trkpt><trkpt lat="41.9220883" lon="13.106445"><ele>431.0</ele><time>2026-04-11T12:44:20.814Z</time></trkpt><trkpt lat="41.92201" lon="13.106475"><ele>430.0</ele><time>2026-04-11T12:44:21.814Z</time></trkpt><trkpt lat="41.9219267" lon="13.106505"><ele>428.99999999999994</ele><time>2026-04-11T12:44:22.81Z</time></trkpt><trkpt lat="41.9218367" lon="13.1065433"><ele>428.0</ele><time>2026-04-11T12:44:23.812Z</time></trkpt><trkpt lat="41.9217383" lon="13.1065783"><ele>431.4</ele><time>2026-04-11T12:44:24.812Z</time></trkpt><trkpt lat="41.92164" lon="13.10661"><ele>434.79999999999995</ele><time>2026-04-11T12:44:25.81Z</time></trkpt><trkpt lat="41.921535" lon="13.1066517"><ele>438.2</ele><time>2026-04-11T12:44:26.812Z</time></trkpt><trkpt lat="41.9214283" lon="13.106695"><ele>441.6</ele><time>2026-04-11T12:44:27.812Z</time></trkpt><trkpt lat="41.9213217" lon="13.10675"><ele>445.0</ele><time>2026-04-11T12:44:28.811Z</time></trkpt><trkpt lat="41.9212167" lon="13.1068167"><ele>445.0</ele><time>2026-04-11T12:44:29.811Z</time></trkpt><trkpt lat="41.9211167" lon="13.1068917"><ele>445.0</ele><time>2026-04-11T12:44:30.812Z</time></trkpt><trkpt lat="41.921015" lon="13.1069733"><ele>445.0</ele><time>2026-04-11T12:44:31.812Z</time></trkpt><trkpt lat="41.920925" lon="13.1070567"><ele>445.0</ele><time>2026-04-11T12:44:32.81Z</time></trkpt><trkpt lat="41.9208417" lon="13.1071383"><ele>445.0</ele><time>2026-04-11T12:44:33.813Z</time></trkpt><trkpt lat="41.92075" lon="13.1072"><ele>441.0</ele><time>2026-04-11T12:44:34.812Z</time></trkpt><trkpt lat="41.9206467" lon="13.1072283"><ele>437.0</ele><time>2026-04-11T12:44:35.812Z</time></trkpt><trkpt lat="41.9205417" lon="13.1072517"><ele>433.0</ele><time>2026-04-11T12:44:36.811Z</time></trkpt><trkpt lat="41.9204367" lon="13.1072683"><ele>429.0</ele><time>2026-04-11T12:44:37.812Z</time></trkpt><trkpt lat="41.9203317" lon="13.1072833"><ele>425.0</ele><time>2026-04-11T12:44:38.812Z</time></trkpt><trkpt lat="41.9202267" lon="13.107295"><ele>425.0</ele><time>2026-04-11T12:44:39.811Z</time></trkpt><trkpt lat="41.92012" lon="13.1073083"><ele>425.0</ele><time>2026-04-11T12:44:40.81Z</time></trkpt><trkpt lat="41.9200133" lon="13.1073117"><ele>425.0</ele><time>2026-04-11T12:44:41.814Z</time></trkpt><trkpt lat="41.9199033" lon="13.107315"><ele>425.0</ele><time>2026-04-11T12:44:42.81Z</time></trkpt><trkpt lat="41.919785" lon="13.107325"><ele>425.0</ele><time>2026-04-11T12:44:43.815Z</time></trkpt><trkpt lat="41.91966" lon="13.1073383"><ele>426.2</ele><time>2026-04-11T12:44:44.814Z</time></trkpt><trkpt lat="41.9195467" lon="13.1073433"><ele>427.4</ele><time>2026-04-11T12:44:45.814Z</time></trkpt><trkpt lat="41.9194433" lon="13.107345"><ele>428.6</ele><time>2026-04-11T12:44:46.811Z</time></trkpt><trkpt lat="41.9193433" lon="13.1073417"><ele>429.8</ele><time>2026-04-11T12:44:47.814Z</time></trkpt><trkpt lat="41.9192467" lon="13.1073183"><ele>431.0</ele><time>2026-04-11T12:44:48.814Z</time></trkpt><trkpt lat="41.9191633" lon="13.1072617"><ele>434.8333333333333</ele><time>2026-04-11T12:44:49.814Z</time></trkpt><trkpt lat="41.919095" lon="13.10719"><ele>438.66666666666663</ele><time>2026-04-11T12:44:50.814Z</time></trkpt><trkpt lat="41.91905" lon="13.1071033"><ele>442.5</ele><time>2026-04-11T12:44:51.814Z</time></trkpt><trkpt lat="41.919025" lon="13.1070117"><ele>446.33333333333337</ele><time>2026-04-11T12:44:52.814Z</time></trkpt><trkpt lat="41.919015" lon="13.1069117"><ele>450.1666666666667</ele><time>2026-04-11T12:44:53.814Z</time></trkpt><trkpt lat="41.919025" lon="13.1067783"><ele>454.0</ele><time>2026-04-11T12:44:54.814Z</time></trkpt><trkpt lat="41.9190383" lon="13.10663"><ele>455.6</ele><time>2026-04-11T12:44:55.813Z</time></trkpt><trkpt lat="41.919045" lon="13.10648"><ele>457.2</ele><time>2026-04-11T12:44:56.814Z</time></trkpt><trkpt lat="41.9190517" lon="13.1063333"><ele>458.80000000000007</ele><time>2026-04-11T12:44:57.814Z</time></trkpt><trkpt lat="41.91906" lon="13.1061883"><ele>460.40000000000003</ele><time>2026-04-11T12:44:58.814Z</time></trkpt><trkpt lat="41.9190767" lon="13.1060433"><ele>462.0</ele><time>2026-04-11T12:44:59.814Z</time></trkpt><trkpt lat="41.9191033" lon="13.105905"><ele>462.0</ele><time>2026-04-11T12:45:00.81Z</time></trkpt><trkpt lat="41.9191417" lon="13.1057667"><ele>462.0</ele><time>2026-04-11T12:45:01.813Z</time></trkpt><trkpt lat="41.9191867" lon="13.1056217"><ele>462.0</ele><time>2026-04-11T12:45:02.814Z</time></trkpt><trkpt lat="41.9192367" lon="13.1054617"><ele>462.0</ele><time>2026-04-11T12:45:03.81Z</time></trkpt><trkpt lat="41.919285" lon="13.1052683"><ele>463.0</ele><time>2026-04-11T12:45:04.811Z</time></trkpt><trkpt lat="41.9193333" lon="13.1050533"><ele>464.0</ele><time>2026-04-11T12:45:05.813Z</time></trkpt><trkpt lat="41.9193783" lon="13.1048333"><ele>465.0</ele><time>2026-04-11T12:45:06.81Z</time></trkpt><trkpt lat="41.91942" lon="13.1046067"><ele>472.66666666666663</ele><time>2026-04-11T12:45:07.811Z</time></trkpt><trkpt lat="41.9194383" lon="13.1043683"><ele>480.3333333333333</ele><time>2026-04-11T12:45:08.814Z</time></trkpt><trkpt lat="41.9194633" lon="13.10413"><ele>488.0</ele><time>2026-04-11T12:45:09.811Z</time></trkpt><trkpt lat="41.9194767" lon="13.1038817"><ele>488.3333333333333</ele><time>2026-04-11T12:45:10.811Z</time></trkpt><trkpt lat="41.9194983" lon="13.10364"><ele>488.66666666666663</ele><time>2026-04-11T12:45:11.811Z</time></trkpt><trkpt lat="41.91952" lon="13.1033933"><ele>489.0</ele><time>2026-04-11T12:45:12.81Z</time></trkpt><trkpt lat="41.91954" lon="13.1031417"><ele>484.66666666666663</ele><time>2026-04-11T12:45:13.81Z</time></trkpt><trkpt lat="41.9195583" lon="13.1028883"><ele>480.3333333333333</ele><time>2026-04-11T12:45:14.81Z</time></trkpt><trkpt lat="41.9195767" lon="13.1026333"><ele>476.0</ele><time>2026-04-11T12:45:15.81Z</time></trkpt><trkpt lat="41.919575" lon="13.102365"><ele>476.0</ele><time>2026-04-11T12:45:16.811Z</time></trkpt><trkpt lat="41.9196483" lon="13.102315"><ele>476.0</ele><time>2026-04-11T12:45:17.811Z</time></trkpt><trkpt lat="41.9195967" lon="13.1026283"><ele>476.0</ele><time>2026-04-11T12:45:19.812Z</time></trkpt><trkpt lat="41.9196533" lon="13.102685"><ele>476.0</ele><time>2026-04-11T12:45:20.812Z</time></trkpt><trkpt lat="41.91964" lon="13.10251"><ele>474.75</ele><time>2026-04-11T12:45:22.81Z</time></trkpt><trkpt lat="41.9195817" lon="13.1023667"><ele>473.5</ele><time>2026-04-11T12:45:23.814Z</time></trkpt><trkpt lat="41.9194767" lon="13.1022583"><ele>472.25</ele><time>2026-04-11T12:45:24.811Z</time></trkpt><trkpt lat="41.9193533" lon="13.10218"><ele>471.0</ele><time>2026-04-11T12:45:25.814Z</time></trkpt><trkpt lat="41.9192067" lon="13.1021267"><ele>471.0</ele><time>2026-04-11T12:45:26.814Z</time></trkpt><trkpt lat="41.9190483" lon="13.10211"><ele>471.0</ele><time>2026-04-11T12:45:27.814Z</time></trkpt><trkpt lat="41.9188817" lon="13.1021383"><ele>471.0</ele><time>2026-04-11T12:45:28.814Z</time></trkpt><trkpt lat="41.9187133" lon="13.10221"><ele>471.0</ele><time>2026-04-11T12:45:29.814Z</time></trkpt><trkpt lat="41.9185417" lon="13.102325"><ele>471.0</ele><time>2026-04-11T12:45:30.814Z</time></trkpt><trkpt lat="41.9183733" lon="13.1024283"><ele>471.0</ele><time>2026-04-11T12:45:31.814Z</time></trkpt><trkpt lat="41.9182017" lon="13.1025333"><ele>474.5</ele><time>2026-04-11T12:45:32.813Z</time></trkpt><trkpt lat="41.9180517" lon="13.10263"><ele>478.0</ele><time>2026-04-11T12:45:33.813Z</time></trkpt><trkpt lat="41.917915" lon="13.10271"><ele>481.5</ele><time>2026-04-11T12:45:34.814Z</time></trkpt><trkpt lat="41.9177917" lon="13.1027567"><ele>485.0</ele><time>2026-04-11T12:45:35.813Z</time></trkpt><trkpt lat="41.9176517" lon="13.1027683"><ele>489.3333333333333</ele><time>2026-04-11T12:45:36.813Z</time></trkpt><trkpt lat="41.917505" lon="13.102745"><ele>493.66666666666663</ele><time>2026-04-11T12:45:37.814Z</time></trkpt><trkpt lat="41.91737" lon="13.1026733"><ele>498.0</ele><time>2026-04-11T12:45:38.813Z</time></trkpt><trkpt lat="41.91723" lon="13.1025617"><ele>498.0</ele><time>2026-04-11T12:45:39.814Z</time></trkpt><trkpt lat="41.9170867" lon="13.1024383"><ele>498.0</ele><time>2026-04-11T12:45:40.814Z</time></trkpt><trkpt lat="41.9169467" lon="13.1023183"><ele>498.0</ele><time>2026-04-11T12:45:41.813Z</time></trkpt><trkpt lat="41.916835" lon="13.10219"><ele>497.33333333333337</ele><time>2026-04-11T12:45:42.813Z</time></trkpt><trkpt lat="41.9167433" lon="13.10204"><ele>496.6666666666667</ele><time>2026-04-11T12:45:43.814Z</time></trkpt><trkpt lat="41.9166733" lon="13.101845"><ele>496.0</ele><time>2026-04-11T12:45:44.814Z</time></trkpt><trkpt lat="41.9166183" lon="13.1016317"><ele>499.0</ele><time>2026-04-11T12:45:45.813Z</time></trkpt><trkpt lat="41.9165717" lon="13.101445"><ele>502.0</ele><time>2026-04-11T12:45:46.814Z</time></trkpt><trkpt lat="41.9165133" lon="13.101315"><ele>505.0</ele><time>2026-04-11T12:45:47.813Z</time></trkpt><trkpt lat="41.916435" lon="13.1012317"><ele>508.0</ele><time>2026-04-11T12:45:48.814Z</time></trkpt><trkpt lat="41.9163367" lon="13.1011833"><ele>508.0</ele><time>2026-04-11T12:45:49.814Z</time></trkpt><trkpt lat="41.9162233" lon="13.101175"><ele>508.0</ele><time>2026-04-11T12:45:50.814Z</time></trkpt><trkpt lat="41.91609" lon="13.1012283"><ele>508.0</ele><time>2026-04-11T12:45:51.813Z</time></trkpt><trkpt lat="41.9159533" lon="13.101325"><ele>508.0</ele><time>2026-04-11T12:45:52.813Z</time></trkpt><trkpt lat="41.91582" lon="13.10144"><ele>508.6666666666667</ele><time>2026-04-11T12:45:53.813Z</time></trkpt><trkpt lat="41.915685" lon="13.1015283"><ele>509.33333333333337</ele><time>2026-04-11T12:45:54.814Z</time></trkpt><trkpt lat="41.9155417" lon="13.1015767"><ele>510.0</ele><time>2026-04-11T12:45:55.814Z</time></trkpt><trkpt lat="41.91539" lon="13.1015733"><ele>510.0</ele><time>2026-04-11T12:45:56.814Z</time></trkpt><trkpt lat="41.9152383" lon="13.1015183"><ele>510.0</ele><time>2026-04-11T12:45:57.811Z</time></trkpt><trkpt lat="41.9151083" lon="13.1014217"><ele>510.0</ele><time>2026-04-11T12:45:58.813Z</time></trkpt><trkpt lat="41.914985" lon="13.10133"><ele>510.0</ele><time>2026-04-11T12:45:59.813Z</time></trkpt><trkpt lat="41.9148633" lon="13.101265"><ele>509.25</ele><time>2026-04-11T12:46:00.811Z</time></trkpt><trkpt lat="41.9147267" lon="13.1012633"><ele>508.5</ele><time>2026-04-11T12:46:01.812Z</time></trkpt><trkpt lat="41.9145867" lon="13.10131"><ele>507.75</ele><time>2026-04-11T12:46:02.814Z</time></trkpt><trkpt lat="41.91444" lon="13.101395"><ele>507.0</ele><time>2026-04-11T12:46:03.814Z</time></trkpt><trkpt lat="41.91427" lon="13.1014917"><ele>510.0</ele><time>2026-04-11T12:46:04.814Z</time></trkpt><trkpt lat="41.9140967" lon="13.1015833"><ele>513.0</ele><time>2026-04-11T12:46:05.814Z</time></trkpt><trkpt lat="41.913915" lon="13.101665"><ele>516.0</ele><time>2026-04-11T12:46:06.811Z</time></trkpt><trkpt lat="41.91372" lon="13.1017333"><ele>516.0</ele><time>2026-04-11T12:46:07.813Z</time></trkpt><trkpt lat="41.9135117" lon="13.1017883"><ele>516.0</ele><time>2026-04-11T12:46:08.812Z</time></trkpt><trkpt lat="41.9132967" lon="13.1018367"><ele>516.0</ele><time>2026-04-11T12:46:09.811Z</time></trkpt><trkpt lat="41.9130733" lon="13.1018817"><ele>515.0</ele><time>2026-04-11T12:46:10.813Z</time></trkpt><trkpt lat="41.9128567" lon="13.101925"><ele>514.0</ele><time>2026-04-11T12:46:11.812Z</time></trkpt><trkpt lat="41.91264" lon="13.1019467"><ele>513.0</ele><time>2026-04-11T12:46:12.812Z</time></trkpt><trkpt lat="41.9124183" lon="13.1019483"><ele>512.3333333333334</ele><time>2026-04-11T12:46:13.814Z</time></trkpt><trkpt lat="41.9122" lon="13.1019367"><ele>511.6666666666667</ele><time>2026-04-11T12:46:14.814Z</time></trkpt><trkpt lat="41.9119967" lon="13.101925"><ele>511.0</ele><time>2026-04-11T12:46:15.814Z</time></trkpt><trkpt lat="41.9118033" lon="13.10191"><ele>511.6666666666667</ele><time>2026-04-11T12:46:16.814Z</time></trkpt><trkpt lat="41.9116283" lon="13.1019067"><ele>512.3333333333334</ele><time>2026-04-11T12:46:17.814Z</time></trkpt><trkpt lat="41.911475" lon="13.1019333"><ele>513.0</ele><time>2026-04-11T12:46:18.814Z</time></trkpt><trkpt lat="41.9113433" lon="13.1020067"><ele>513.0</ele><time>2026-04-11T12:46:19.813Z</time></trkpt><trkpt lat="41.911215" lon="13.1021267"><ele>513.0</ele><time>2026-04-11T12:46:20.814Z</time></trkpt><trkpt lat="41.911095" lon="13.1022767"><ele>513.0</ele><time>2026-04-11T12:46:21.814Z</time></trkpt><trkpt lat="41.9109683" lon="13.102445"><ele>515.0</ele><time>2026-04-11T12:46:22.814Z</time></trkpt><trkpt lat="41.91084" lon="13.1026117"><ele>517.0</ele><time>2026-04-11T12:46:23.814Z</time></trkpt><trkpt lat="41.9106917" lon="13.1027717"><ele>519.0</ele><time>2026-04-11T12:46:24.813Z</time></trkpt><trkpt lat="41.9105333" lon="13.102925"><ele>519.0</ele><time>2026-04-11T12:46:25.813Z</time></trkpt><trkpt lat="41.9103867" lon="13.103065"><ele>519.0</ele><time>2026-04-11T12:46:26.814Z</time></trkpt><trkpt lat="41.9102583" lon="13.1031833"><ele>519.0</ele><time>2026-04-11T12:46:27.814Z</time></trkpt><trkpt lat="41.91014" lon="13.1032817"><ele>519.75</ele><time>2026-04-11T12:46:28.814Z</time></trkpt><trkpt lat="41.9100267" lon="13.103375"><ele>520.5</ele><time>2026-04-11T12:46:29.814Z</time></trkpt><trkpt lat="41.909915" lon="13.103475"><ele>521.25</ele><time>2026-04-11T12:46:30.813Z</time></trkpt><trkpt lat="41.9098117" lon="13.1035817"><ele>522.0</ele><time>2026-04-11T12:46:31.813Z</time></trkpt><trkpt lat="41.9097133" lon="13.1036933"><ele>522.0</ele><time>2026-04-11T12:46:32.814Z</time></trkpt><trkpt lat="41.9096217" lon="13.1038067"><ele>522.0</ele><time>2026-04-11T12:46:33.813Z</time></trkpt><trkpt lat="41.9095367" lon="13.10391"><ele>522.0</ele><time>2026-04-11T12:46:34.813Z</time></trkpt><trkpt lat="41.9094533" lon="13.104005"><ele>522.0</ele><time>2026-04-11T12:46:35.813Z</time></trkpt><trkpt lat="41.90936" lon="13.104085"><ele>524.25</ele><time>2026-04-11T12:46:36.814Z</time></trkpt><trkpt lat="41.909255" lon="13.1041467"><ele>526.5</ele><time>2026-04-11T12:46:37.813Z</time></trkpt><trkpt lat="41.9091333" lon="13.10417"><ele>528.75</ele><time>2026-04-11T12:46:38.814Z</time></trkpt><trkpt lat="41.9090117" lon="13.1041717"><ele>531.0</ele><time>2026-04-11T12:46:39.814Z</time></trkpt><trkpt lat="41.90889" lon="13.1041667"><ele>531.0</ele><time>2026-04-11T12:46:40.814Z</time></trkpt><trkpt lat="41.9087817" lon="13.104185"><ele>531.0</ele><time>2026-04-11T12:46:41.814Z</time></trkpt><trkpt lat="41.9086817" lon="13.1042167"><ele>531.0</ele><time>2026-04-11T12:46:42.811Z</time></trkpt><trkpt lat="41.9085933" lon="13.1042617"><ele>531.0</ele><time>2026-04-11T12:46:43.814Z</time></trkpt><trkpt lat="41.908515" lon="13.1043033"><ele>531.0</ele><time>2026-04-11T12:46:44.814Z</time></trkpt><trkpt lat="41.9084467" lon="13.1043283"><ele>530.8571428571429</ele><time>2026-04-11T12:46:45.813Z</time></trkpt><trkpt lat="41.9083767" lon="13.1043267"><ele>530.7142857142858</ele><time>2026-04-11T12:46:46.815Z</time></trkpt><trkpt lat="41.90831" lon="13.1043133"><ele>530.5714285714286</ele><time>2026-04-11T12:46:47.812Z</time></trkpt><trkpt lat="41.9082467" lon="13.104275"><ele>530.4285714285714</ele><time>2026-04-11T12:46:48.81Z</time></trkpt><trkpt lat="41.908195" lon="13.1042083"><ele>530.2857142857142</ele><time>2026-04-11T12:46:49.811Z</time></trkpt><trkpt lat="41.90816" lon="13.104115"><ele>530.1428571428571</ele><time>2026-04-11T12:46:50.811Z</time></trkpt><trkpt lat="41.9081333" lon="13.1040133"><ele>530.0</ele><time>2026-04-11T12:46:51.81Z</time></trkpt><trkpt lat="41.9081083" lon="13.1039067"><ele>528.6666666666666</ele><time>2026-04-11T12:46:52.811Z</time></trkpt><trkpt lat="41.9080833" lon="13.1037967"><ele>527.3333333333333</ele><time>2026-04-11T12:46:53.81Z</time></trkpt><trkpt lat="41.9080583" lon="13.1036917"><ele>526.0</ele><time>2026-04-11T12:46:54.816Z</time></trkpt><trkpt lat="41.9080267" lon="13.1035917"><ele>524.6666666666666</ele><time>2026-04-11T12:46:55.811Z</time></trkpt><trkpt lat="41.90799" lon="13.103495"><ele>523.3333333333334</ele><time>2026-04-11T12:46:56.812Z</time></trkpt><trkpt lat="41.9079467" lon="13.1034017"><ele>522.0</ele><time>2026-04-11T12:46:57.812Z</time></trkpt><trkpt lat="41.9078917" lon="13.10332"><ele>522.0</ele><time>2026-04-11T12:46:58.819Z</time></trkpt><trkpt lat="41.9078233" lon="13.103255"><ele>522.0</ele><time>2026-04-11T12:46:59.814Z</time></trkpt><trkpt lat="41.9077483" lon="13.103215"><ele>522.0</ele><time>2026-04-11T12:47:00.814Z</time></trkpt><trkpt lat="41.90767" lon="13.1032067"><ele>522.0</ele><time>2026-04-11T12:47:01.814Z</time></trkpt><trkpt lat="41.90758" lon="13.1032317"><ele>522.0</ele><time>2026-04-11T12:47:02.814Z</time></trkpt><trkpt lat="41.90749" lon="13.1032483"><ele>522.0</ele><time>2026-04-11T12:47:03.813Z</time></trkpt><trkpt lat="41.9073983" lon="13.1032417"><ele>522.0</ele><time>2026-04-11T12:47:04.811Z</time></trkpt><trkpt lat="41.9073067" lon="13.1032"><ele>522.0</ele><time>2026-04-11T12:47:05.811Z</time></trkpt><trkpt lat="41.9072217" lon="13.1031333"><ele>522.0</ele><time>2026-04-11T12:47:06.811Z</time></trkpt><trkpt lat="41.9071367" lon="13.103065"><ele>522.0</ele><time>2026-04-11T12:47:07.81Z</time></trkpt><trkpt lat="41.90705" lon="13.1029983"><ele>522.0</ele><time>2026-04-11T12:47:08.814Z</time></trkpt><trkpt lat="41.9069633" lon="13.102935"><ele>522.0</ele><time>2026-04-11T12:47:09.813Z</time></trkpt><trkpt lat="41.9068783" lon="13.1028683"><ele>522.0</ele><time>2026-04-11T12:47:10.813Z</time></trkpt><trkpt lat="41.9067967" lon="13.1027967"><ele>522.0</ele><time>2026-04-11T12:47:11.813Z</time></trkpt><trkpt lat="41.9067317" lon="13.1027117"><ele>522.0</ele><time>2026-04-11T12:47:12.811Z</time></trkpt><trkpt lat="41.9066967" lon="13.1025967"><ele>522.0</ele><time>2026-04-11T12:47:13.814Z</time></trkpt><trkpt lat="41.9066967" lon="13.102455"><ele>521.5</ele><time>2026-04-11T12:47:14.814Z</time></trkpt><trkpt lat="41.9067183" lon="13.1023017"><ele>521.0</ele><time>2026-04-11T12:47:15.813Z</time></trkpt><trkpt lat="41.9067483" lon="13.1021467"><ele>520.5</ele><time>2026-04-11T12:47:16.814Z</time></trkpt><trkpt lat="41.9067767" lon="13.1019917"><ele>520.0</ele><time>2026-04-11T12:47:17.812Z</time></trkpt><trkpt lat="41.9068067" lon="13.101825"><ele>520.0</ele><time>2026-04-11T12:47:18.812Z</time></trkpt><trkpt lat="41.906845" lon="13.1016433"><ele>520.0</ele><time>2026-04-11T12:47:19.812Z</time></trkpt><trkpt lat="41.9068917" lon="13.10146"><ele>520.0</ele><time>2026-04-11T12:47:20.811Z</time></trkpt><trkpt lat="41.90695" lon="13.1012867"><ele>520.0</ele><time>2026-04-11T12:47:21.811Z</time></trkpt><trkpt lat="41.9070067" lon="13.1011283"><ele>519.6</ele><time>2026-04-11T12:47:22.812Z</time></trkpt><trkpt lat="41.90706" lon="13.1009883"><ele>519.2</ele><time>2026-04-11T12:47:23.812Z</time></trkpt><trkpt lat="41.9071017" lon="13.1008667"><ele>518.8</ele><time>2026-04-11T12:47:24.813Z</time></trkpt><trkpt lat="41.907135" lon="13.10075"><ele>518.4</ele><time>2026-04-11T12:47:25.813Z</time></trkpt><trkpt lat="41.9071517" lon="13.100635"><ele>518.0</ele><time>2026-04-11T12:47:26.813Z</time></trkpt><trkpt lat="41.9071533" lon="13.1005267"><ele>517.1999999999999</ele><time>2026-04-11T12:47:27.814Z</time></trkpt><trkpt lat="41.90714" lon="13.1004267"><ele>516.4</ele><time>2026-04-11T12:47:28.814Z</time></trkpt><trkpt lat="41.907105" lon="13.1003267"><ele>515.5999999999999</ele><time>2026-04-11T12:47:29.81Z</time></trkpt><trkpt lat="41.9070267" lon="13.100235"><ele>514.8</ele><time>2026-04-11T12:47:30.814Z</time></trkpt><trkpt lat="41.9069267" lon="13.1001433"><ele>514.0</ele><time>2026-04-11T12:47:31.813Z</time></trkpt><trkpt lat="41.9068467" lon="13.1000417"><ele>514.0</ele><time>2026-04-11T12:47:32.814Z</time></trkpt><trkpt lat="41.9067867" lon="13.0999217"><ele>514.0</ele><time>2026-04-11T12:47:33.817Z</time></trkpt><trkpt lat="41.9067367" lon="13.0997883"><ele>514.0</ele><time>2026-04-11T12:47:34.813Z</time></trkpt><trkpt lat="41.9067067" lon="13.0996433"><ele>514.0</ele><time>2026-04-11T12:47:35.814Z</time></trkpt><trkpt lat="41.9066867" lon="13.099485"><ele>517.25</ele><time>2026-04-11T12:47:36.814Z</time></trkpt><trkpt lat="41.9066833" lon="13.0993167"><ele>520.5</ele><time>2026-04-11T12:47:37.814Z</time></trkpt><trkpt lat="41.9066933" lon="13.0991433"><ele>523.75</ele><time>2026-04-11T12:47:38.814Z</time></trkpt><trkpt lat="41.9067133" lon="13.09896"><ele>527.0</ele><time>2026-04-11T12:47:39.815Z</time></trkpt><trkpt lat="41.9067317" lon="13.0987717"><ele>527.0</ele><time>2026-04-11T12:47:40.814Z</time></trkpt><trkpt lat="41.9067433" lon="13.0985783"><ele>527.0</ele><time>2026-04-11T12:47:41.814Z</time></trkpt><trkpt lat="41.9067383" lon="13.0983717"><ele>527.0</ele><time>2026-04-11T12:47:42.814Z</time></trkpt><trkpt lat="41.9067267" lon="13.0981617"><ele>526.25</ele><time>2026-04-11T12:47:43.814Z</time></trkpt><trkpt lat="41.906715" lon="13.097955"><ele>525.5</ele><time>2026-04-11T12:47:44.813Z</time></trkpt><trkpt lat="41.9067067" lon="13.0977583"><ele>524.75</ele><time>2026-04-11T12:47:45.814Z</time></trkpt><trkpt lat="41.9067033" lon="13.0975617"><ele>524.0</ele><time>2026-04-11T12:47:46.813Z</time></trkpt><trkpt lat="41.906705" lon="13.0973667"><ele>522.75</ele><time>2026-04-11T12:47:47.811Z</time></trkpt><trkpt lat="41.906715" lon="13.0971767"><ele>521.5</ele><time>2026-04-11T12:47:48.813Z</time></trkpt><trkpt lat="41.9067333" lon="13.096995"><ele>520.25</ele><time>2026-04-11T12:47:49.814Z</time></trkpt><trkpt lat="41.906755" lon="13.0968183"><ele>519.0</ele><time>2026-04-11T12:47:50.814Z</time></trkpt><trkpt lat="41.906775" lon="13.0966467"><ele>512.0</ele><time>2026-04-11T12:47:51.815Z</time></trkpt><trkpt lat="41.9067933" lon="13.096475"><ele>505.0</ele><time>2026-04-11T12:47:52.811Z</time></trkpt><trkpt lat="41.9068033" lon="13.0963067"><ele>498.0</ele><time>2026-04-11T12:47:53.812Z</time></trkpt><trkpt lat="41.9068017" lon="13.0961317"><ele>491.0</ele><time>2026-04-11T12:47:54.811Z</time></trkpt><trkpt lat="41.9067967" lon="13.0959483"><ele>491.0</ele><time>2026-04-11T12:47:55.813Z</time></trkpt><trkpt lat="41.9067833" lon="13.09576"><ele>491.0</ele><time>2026-04-11T12:47:56.81Z</time></trkpt><trkpt lat="41.9067567" lon="13.095565"><ele>491.0</ele><time>2026-04-11T12:47:57.813Z</time></trkpt><trkpt lat="41.9067417" lon="13.0953733"><ele>491.0</ele><time>2026-04-11T12:47:58.814Z</time></trkpt><trkpt lat="41.906735" lon="13.0951883"><ele>491.25</ele><time>2026-04-11T12:47:59.815Z</time></trkpt><trkpt lat="41.9067417" lon="13.0950067"><ele>491.5</ele><time>2026-04-11T12:48:00.814Z</time></trkpt><trkpt lat="41.90676" lon="13.0948267"><ele>491.75</ele><time>2026-04-11T12:48:01.814Z</time></trkpt><trkpt lat="41.90679" lon="13.094645"><ele>492.0</ele><time>2026-04-11T12:48:02.814Z</time></trkpt><trkpt lat="41.906825" lon="13.0944633"><ele>492.0</ele><time>2026-04-11T12:48:03.814Z</time></trkpt><trkpt lat="41.9068617" lon="13.0942817"><ele>492.0</ele><time>2026-04-11T12:48:04.814Z</time></trkpt><trkpt lat="41.9068967" lon="13.0941067"><ele>492.0</ele><time>2026-04-11T12:48:05.814Z</time></trkpt><trkpt lat="41.90693" lon="13.0939333"><ele>492.0</ele><time>2026-04-11T12:48:06.814Z</time></trkpt><trkpt lat="41.9069633" lon="13.093765"><ele>492.75</ele><time>2026-04-11T12:48:07.813Z</time></trkpt><trkpt lat="41.9069983" lon="13.0936017"><ele>493.5</ele><time>2026-04-11T12:48:08.813Z</time></trkpt><trkpt lat="41.9070283" lon="13.093445"><ele>494.25</ele><time>2026-04-11T12:48:09.814Z</time></trkpt><trkpt lat="41.9070483" lon="13.093285"><ele>495.0</ele><time>2026-04-11T12:48:10.813Z</time></trkpt><trkpt lat="41.90706" lon="13.0931183"><ele>495.75</ele><time>2026-04-11T12:48:11.812Z</time></trkpt><trkpt lat="41.90706" lon="13.0929533"><ele>496.5</ele><time>2026-04-11T12:48:12.815Z</time></trkpt><trkpt lat="41.9070467" lon="13.0927867"><ele>497.25</ele><time>2026-04-11T12:48:13.817Z</time></trkpt><trkpt lat="41.9070167" lon="13.0926133"><ele>498.0</ele><time>2026-04-11T12:48:14.813Z</time></trkpt><trkpt lat="41.9070017" lon="13.0924333"><ele>498.5</ele><time>2026-04-11T12:48:15.811Z</time></trkpt><trkpt lat="41.9069983" lon="13.092255"><ele>499.0</ele><time>2026-04-11T12:48:16.812Z</time></trkpt><trkpt lat="41.9069967" lon="13.092075"><ele>499.5</ele><time>2026-04-11T12:48:17.811Z</time></trkpt><trkpt lat="41.9069967" lon="13.0919"><ele>500.0</ele><time>2026-04-11T12:48:18.81Z</time></trkpt><trkpt lat="41.9069883" lon="13.0917283"><ele>500.75</ele><time>2026-04-11T12:48:19.809Z</time></trkpt><trkpt lat="41.9069783" lon="13.0915583"><ele>501.5</ele><time>2026-04-11T12:48:20.81Z</time></trkpt><trkpt lat="41.906975" lon="13.09139"><ele>502.25</ele><time>2026-04-11T12:48:21.81Z</time></trkpt><trkpt lat="41.9069867" lon="13.0912283"><ele>503.0</ele><time>2026-04-11T12:48:22.81Z</time></trkpt><trkpt lat="41.9070217" lon="13.0910767"><ele>503.0</ele><time>2026-04-11T12:48:23.81Z</time></trkpt><trkpt lat="41.9070767" lon="13.0909383"><ele>502.99999999999994</ele><time>2026-04-11T12:48:24.813Z</time></trkpt><trkpt lat="41.9071283" lon="13.0908083"><ele>502.99999999999994</ele><time>2026-04-11T12:48:25.812Z</time></trkpt><trkpt lat="41.9071733" lon="13.0906833"><ele>503.0</ele><time>2026-04-11T12:48:26.812Z</time></trkpt><trkpt lat="41.907205" lon="13.09056"><ele>503.0</ele><time>2026-04-11T12:48:27.815Z</time></trkpt><trkpt lat="41.9072167" lon="13.0904317"><ele>504.0</ele><time>2026-04-11T12:48:28.812Z</time></trkpt><trkpt lat="41.907205" lon="13.090295"><ele>504.99999999999994</ele><time>2026-04-11T12:48:29.811Z</time></trkpt><trkpt lat="41.9071933" lon="13.0901533"><ele>505.99999999999994</ele><time>2026-04-11T12:48:30.813Z</time></trkpt><trkpt lat="41.907185" lon="13.09001"><ele>507.0</ele><time>2026-04-11T12:48:31.813Z</time></trkpt><trkpt lat="41.9071967" lon="13.0898717"><ele>508.0</ele><time>2026-04-11T12:48:32.812Z</time></trkpt><trkpt lat="41.9072183" lon="13.0897367"><ele>509.4</ele><time>2026-04-11T12:48:33.812Z</time></trkpt><trkpt lat="41.9072483" lon="13.089605"><ele>510.79999999999995</ele><time>2026-04-11T12:48:34.813Z</time></trkpt><trkpt lat="41.9072883" lon="13.089485"><ele>512.2</ele><time>2026-04-11T12:48:35.813Z</time></trkpt><trkpt lat="41.9073467" lon="13.0893817"><ele>513.6</ele><time>2026-04-11T12:48:36.813Z</time></trkpt><trkpt lat="41.9074283" lon="13.0892967"><ele>515.0</ele><time>2026-04-11T12:48:37.812Z</time></trkpt><trkpt lat="41.9075283" lon="13.089225"><ele>514.0</ele><time>2026-04-11T12:48:38.813Z</time></trkpt><trkpt lat="41.9076367" lon="13.0891517"><ele>513.0</ele><time>2026-04-11T12:48:39.813Z</time></trkpt><trkpt lat="41.9077483" lon="13.0890683"><ele>512.0</ele><time>2026-04-11T12:48:40.813Z</time></trkpt><trkpt lat="41.90786" lon="13.08898"><ele>511.0</ele><time>2026-04-11T12:48:41.812Z</time></trkpt><trkpt lat="41.9079633" lon="13.088885"><ele>510.0</ele><time>2026-04-11T12:48:42.812Z</time></trkpt><trkpt lat="41.9080583" lon="13.088785"><ele>509.0</ele><time>2026-04-11T12:48:43.813Z</time></trkpt><trkpt lat="41.9081333" lon="13.0886717"><ele>508.0</ele><time>2026-04-11T12:48:44.812Z</time></trkpt><trkpt lat="41.908195" lon="13.08854"><ele>507.0</ele><time>2026-04-11T12:48:45.813Z</time></trkpt><trkpt lat="41.9082383" lon="13.08838"><ele>506.0</ele><time>2026-04-11T12:48:46.813Z</time></trkpt><trkpt lat="41.90826" lon="13.0881817"><ele>505.0</ele><time>2026-04-11T12:48:47.812Z</time></trkpt><trkpt lat="41.9082567" lon="13.0879533"><ele>504.0</ele><time>2026-04-11T12:48:48.813Z</time></trkpt><trkpt lat="41.908255" lon="13.0877083"><ele>504.0</ele><time>2026-04-11T12:48:49.813Z</time></trkpt><trkpt lat="41.9082567" lon="13.0874633"><ele>504.0</ele><time>2026-04-11T12:48:50.813Z</time></trkpt><trkpt lat="41.90826" lon="13.0872433"><ele>504.0</ele><time>2026-04-11T12:48:51.813Z</time></trkpt><trkpt lat="41.90826" lon="13.0870617"><ele>503.25</ele><time>2026-04-11T12:48:52.813Z</time></trkpt><trkpt lat="41.9082517" lon="13.086915"><ele>502.5</ele><time>2026-04-11T12:48:53.812Z</time></trkpt><trkpt lat="41.9082117" lon="13.08679"><ele>501.75</ele><time>2026-04-11T12:48:54.812Z</time></trkpt><trkpt lat="41.9081317" lon="13.08668"><ele>501.0</ele><time>2026-04-11T12:48:55.813Z</time></trkpt><trkpt lat="41.908025" lon="13.0865917"><ele>501.0</ele><time>2026-04-11T12:48:56.814Z</time></trkpt><trkpt lat="41.9079" lon="13.086565"><ele>501.0</ele><time>2026-04-11T12:48:57.813Z</time></trkpt><trkpt lat="41.907755" lon="13.08661"><ele>501.0</ele><time>2026-04-11T12:48:58.814Z</time></trkpt><trkpt lat="41.90759" lon="13.0867017"><ele>499.33333333333337</ele><time>2026-04-11T12:48:59.813Z</time></trkpt><trkpt lat="41.9074067" lon="13.086795"><ele>497.6666666666667</ele><time>2026-04-11T12:49:00.812Z</time></trkpt><trkpt lat="41.9072067" lon="13.0868833"><ele>496.0</ele><time>2026-04-11T12:49:01.812Z</time></trkpt><trkpt lat="41.906995" lon="13.0869733"><ele>496.0</ele><time>2026-04-11T12:49:02.809Z</time></trkpt><trkpt lat="41.906775" lon="13.0870733"><ele>496.0</ele><time>2026-04-11T12:49:03.809Z</time></trkpt><trkpt lat="41.9065483" lon="13.0871767"><ele>497.0</ele><time>2026-04-11T12:49:04.809Z</time></trkpt><trkpt lat="41.9063283" lon="13.08728"><ele>498.0</ele><time>2026-04-11T12:49:05.81Z</time></trkpt><trkpt lat="41.906135" lon="13.0873817"><ele>499.0</ele><time>2026-04-11T12:49:06.81Z</time></trkpt><trkpt lat="41.905975" lon="13.08748"><ele>497.25</ele><time>2026-04-11T12:49:07.81Z</time></trkpt><trkpt lat="41.9058417" lon="13.0875733"><ele>495.5</ele><time>2026-04-11T12:49:08.809Z</time></trkpt><trkpt lat="41.90573" lon="13.0876433"><ele>493.75</ele><time>2026-04-11T12:49:09.809Z</time></trkpt><trkpt lat="41.9056367" lon="13.0876683"><ele>492.0</ele><time>2026-04-11T12:49:10.812Z</time></trkpt><trkpt lat="41.905555" lon="13.08766"><ele>492.0</ele><time>2026-04-11T12:49:11.811Z</time></trkpt><trkpt lat="41.9054817" lon="13.0876233"><ele>492.00000000000006</ele><time>2026-04-11T12:49:12.811Z</time></trkpt><trkpt lat="41.9054417" lon="13.0875033"><ele>492.00000000000006</ele><time>2026-04-11T12:49:13.813Z</time></trkpt><trkpt lat="41.9053983" lon="13.0873533"><ele>492.0</ele><time>2026-04-11T12:49:14.813Z</time></trkpt><trkpt lat="41.9053417" lon="13.087205"><ele>492.0</ele><time>2026-04-11T12:49:15.813Z</time></trkpt><trkpt lat="41.9052567" lon="13.0870867"><ele>488.0</ele><time>2026-04-11T12:49:16.813Z</time></trkpt><trkpt lat="41.9051433" lon="13.0870083"><ele>484.0</ele><time>2026-04-11T12:49:17.809Z</time></trkpt><trkpt lat="41.9050067" lon="13.0869717"><ele>480.0</ele><time>2026-04-11T12:49:18.811Z</time></trkpt><trkpt lat="41.90485" lon="13.08697"><ele>476.0</ele><time>2026-04-11T12:49:19.81Z</time></trkpt><trkpt lat="41.90468" lon="13.087"><ele>474.66666666666663</ele><time>2026-04-11T12:49:20.811Z</time></trkpt><trkpt lat="41.9045" lon="13.0870767"><ele>473.33333333333337</ele><time>2026-04-11T12:49:21.812Z</time></trkpt><trkpt lat="41.9043183" lon="13.087185"><ele>472.0</ele><time>2026-04-11T12:49:22.81Z</time></trkpt><trkpt lat="41.90413" lon="13.0872917"><ele>474.6666666666667</ele><time>2026-04-11T12:49:23.81Z</time></trkpt><trkpt lat="41.90393" lon="13.0873783"><ele>477.33333333333337</ele><time>2026-04-11T12:49:24.812Z</time></trkpt><trkpt lat="41.903715" lon="13.08744"><ele>480.0</ele><time>2026-04-11T12:49:25.813Z</time></trkpt><trkpt lat="41.903485" lon="13.0874867"><ele>477.0</ele><time>2026-04-11T12:49:26.812Z</time></trkpt><trkpt lat="41.90326" lon="13.0875417"><ele>474.0</ele><time>2026-04-11T12:49:27.813Z</time></trkpt><trkpt lat="41.90304" lon="13.087615"><ele>474.0</ele><time>2026-04-11T12:49:28.813Z</time></trkpt><trkpt lat="41.9028133" lon="13.0877133"><ele>474.0</ele><time>2026-04-11T12:49:29.812Z</time></trkpt><trkpt lat="41.9025867" lon="13.0878267"><ele>469.0</ele><time>2026-04-11T12:49:30.813Z</time></trkpt><trkpt lat="41.9023783" lon="13.0879383"><ele>464.0</ele><time>2026-04-11T12:49:31.813Z</time></trkpt><trkpt lat="41.9021867" lon="13.0880367"><ele>459.0</ele><time>2026-04-11T12:49:32.813Z</time></trkpt><trkpt lat="41.9020067" lon="13.0881383"><ele>462.66666666666663</ele><time>2026-04-11T12:49:33.814Z</time></trkpt><trkpt lat="41.9018367" lon="13.0882733"><ele>466.3333333333333</ele><time>2026-04-11T12:49:34.813Z</time></trkpt><trkpt lat="41.9016733" lon="13.088435"><ele>470.0</ele><time>2026-04-11T12:49:35.813Z</time></trkpt><trkpt lat="41.9015267" lon="13.0885817"><ele>470.0</ele><time>2026-04-11T12:49:36.812Z</time></trkpt><trkpt lat="41.901385" lon="13.08869"><ele>470.0</ele><time>2026-04-11T12:49:37.813Z</time></trkpt><trkpt lat="41.9012333" lon="13.0887617"><ele>470.0</ele><time>2026-04-11T12:49:38.813Z</time></trkpt><trkpt lat="41.9010617" lon="13.0887967"><ele>467.3333333333333</ele><time>2026-04-11T12:49:39.813Z</time></trkpt><trkpt lat="41.9008783" lon="13.08883"><ele>464.66666666666663</ele><time>2026-04-11T12:49:40.813Z</time></trkpt><trkpt lat="41.90069" lon="13.0889"><ele>462.0</ele><time>2026-04-11T12:49:41.812Z</time></trkpt><trkpt lat="41.9005" lon="13.08902"><ele>464.66666666666663</ele><time>2026-04-11T12:49:42.813Z</time></trkpt><trkpt lat="41.900315" lon="13.08916"><ele>467.3333333333333</ele><time>2026-04-11T12:49:43.813Z</time></trkpt><trkpt lat="41.90014" lon="13.0892917"><ele>470.0</ele><time>2026-04-11T12:49:44.813Z</time></trkpt><trkpt lat="41.899985" lon="13.08939"><ele>470.0</ele><time>2026-04-11T12:49:45.813Z</time></trkpt><trkpt lat="41.8998517" lon="13.0894833"><ele>470.0</ele><time>2026-04-11T12:49:46.813Z</time></trkpt><trkpt lat="41.8997367" lon="13.0895967"><ele>470.0</ele><time>2026-04-11T12:49:47.813Z</time></trkpt><trkpt lat="41.899635" lon="13.0897033"><ele>470.0</ele><time>2026-04-11T12:49:48.813Z</time></trkpt><trkpt lat="41.8995333" lon="13.0897783"><ele>469.99999999999994</ele><time>2026-04-11T12:49:49.813Z</time></trkpt><trkpt lat="41.8994283" lon="13.0898017"><ele>470.0</ele><time>2026-04-11T12:49:50.813Z</time></trkpt><trkpt lat="41.8993417" lon="13.0897817"><ele>470.0</ele><time>2026-04-11T12:49:51.812Z</time></trkpt><trkpt lat="41.8992667" lon="13.0897367"><ele>470.0</ele><time>2026-04-11T12:49:52.812Z</time></trkpt><trkpt lat="41.89921" lon="13.0896833"><ele>469.99999999999994</ele><time>2026-04-11T12:49:53.812Z</time></trkpt><trkpt lat="41.89917" lon="13.089605"><ele>470.0</ele><time>2026-04-11T12:49:54.813Z</time></trkpt><trkpt lat="41.8991133" lon="13.089535"><ele>470.4</ele><time>2026-04-11T12:49:55.813Z</time></trkpt><trkpt lat="41.8990417" lon="13.0894617"><ele>470.8</ele><time>2026-04-11T12:49:56.811Z</time></trkpt><trkpt lat="41.89895" lon="13.0894133"><ele>471.20000000000005</ele><time>2026-04-11T12:49:57.818Z</time></trkpt><trkpt lat="41.898845" lon="13.0893883"><ele>471.6</ele><time>2026-04-11T12:49:58.813Z</time></trkpt><trkpt lat="41.8987317" lon="13.0893817"><ele>472.0</ele><time>2026-04-11T12:49:59.813Z</time></trkpt><trkpt lat="41.8986083" lon="13.0894033"><ele>472.0</ele><time>2026-04-11T12:50:00.813Z</time></trkpt><trkpt lat="41.8984833" lon="13.0894633"><ele>472.0</ele><time>2026-04-11T12:50:01.812Z</time></trkpt><trkpt lat="41.898355" lon="13.08954"><ele>472.0</ele><time>2026-04-11T12:50:02.812Z</time></trkpt><trkpt lat="41.8982117" lon="13.0896083"><ele>472.0</ele><time>2026-04-11T12:50:03.809Z</time></trkpt><trkpt lat="41.8980467" lon="13.0896667"><ele>472.6666666666667</ele><time>2026-04-11T12:50:04.81Z</time></trkpt><trkpt lat="41.897865" lon="13.0897283"><ele>473.33333333333337</ele><time>2026-04-11T12:50:05.812Z</time></trkpt><trkpt lat="41.897685" lon="13.0897967"><ele>474.0</ele><time>2026-04-11T12:50:06.813Z</time></trkpt><trkpt lat="41.8975083" lon="13.08986"><ele>475.33333333333337</ele><time>2026-04-11T12:50:07.813Z</time></trkpt><trkpt lat="41.8973283" lon="13.0899233"><ele>476.6666666666667</ele><time>2026-04-11T12:50:08.812Z</time></trkpt><trkpt lat="41.89715" lon="13.089995"><ele>478.0</ele><time>2026-04-11T12:50:09.813Z</time></trkpt><trkpt lat="41.8969867" lon="13.0901083"><ele>481.0</ele><time>2026-04-11T12:50:10.813Z</time></trkpt><trkpt lat="41.8968483" lon="13.090235"><ele>484.0</ele><time>2026-04-11T12:50:11.813Z</time></trkpt><trkpt lat="41.8967183" lon="13.0903317"><ele>487.0</ele><time>2026-04-11T12:50:12.812Z</time></trkpt><trkpt lat="41.89658" lon="13.0903983"><ele>488.0</ele><time>2026-04-11T12:50:13.813Z</time></trkpt><trkpt lat="41.8964183" lon="13.0904233"><ele>489.0</ele><time>2026-04-11T12:50:14.813Z</time></trkpt><trkpt lat="41.89624" lon="13.0904317"><ele>490.0</ele><time>2026-04-11T12:50:15.813Z</time></trkpt><trkpt lat="41.8960633" lon="13.09044"><ele>490.0</ele><time>2026-04-11T12:50:16.812Z</time></trkpt><trkpt lat="41.89591" lon="13.090445"><ele>490.0</ele><time>2026-04-11T12:50:17.813Z</time></trkpt><trkpt lat="41.895785" lon="13.0904567"><ele>490.0</ele><time>2026-04-11T12:50:18.812Z</time></trkpt><trkpt lat="41.8956867" lon="13.0904683"><ele>490.0</ele><time>2026-04-11T12:50:19.812Z</time></trkpt><trkpt lat="41.8956067" lon="13.0904833"><ele>490.00000000000006</ele><time>2026-04-11T12:50:20.813Z</time></trkpt><trkpt lat="41.8955417" lon="13.0904967"><ele>490.0</ele><time>2026-04-11T12:50:21.812Z</time></trkpt><trkpt lat="41.895435" lon="13.0905183"><ele>490.0</ele><time>2026-04-11T12:50:23.812Z</time></trkpt><trkpt lat="41.8953633" lon="13.0905383"><ele>490.0</ele><time>2026-04-11T12:50:25.813Z</time></trkpt><trkpt lat="41.8952883" lon="13.0905717"><ele>490.00000000000006</ele><time>2026-04-11T12:50:46.812Z</time></trkpt><trkpt lat="41.8952233" lon="13.090585"><ele>490.0</ele><time>2026-04-11T12:50:49.81Z</time></trkpt><trkpt lat="41.8951433" lon="13.0906033"><ele>492.4</ele><time>2026-04-11T12:51:01.813Z</time></trkpt><trkpt lat="41.89504" lon="13.0906217"><ele>494.8</ele><time>2026-04-11T12:51:03.813Z</time></trkpt><trkpt lat="41.8949583" lon="13.09064"><ele>497.20000000000005</ele><time>2026-04-11T12:51:04.814Z</time></trkpt><trkpt lat="41.894875" lon="13.0906567"><ele>499.6</ele><time>2026-04-11T12:51:05.813Z</time></trkpt><trkpt lat="41.8947833" lon="13.0906767"><ele>502.0</ele><time>2026-04-11T12:51:06.813Z</time></trkpt><trkpt lat="41.89468" lon="13.0907"><ele>502.0</ele><time>2026-04-11T12:51:07.816Z</time></trkpt><trkpt lat="41.8945717" lon="13.09072"><ele>502.00000000000006</ele><time>2026-04-11T12:51:08.816Z</time></trkpt><trkpt lat="41.8944667" lon="13.0907383"><ele>502.00000000000006</ele><time>2026-04-11T12:51:09.813Z</time></trkpt><trkpt lat="41.8943617" lon="13.0907333"><ele>502.0</ele><time>2026-04-11T12:51:10.811Z</time></trkpt><trkpt lat="41.8942517" lon="13.0906967"><ele>502.0</ele><time>2026-04-11T12:51:11.817Z</time></trkpt><trkpt lat="41.89414" lon="13.09061"><ele>503.33333333333337</ele><time>2026-04-11T12:51:12.812Z</time></trkpt><trkpt lat="41.8940233" lon="13.0904833"><ele>504.66666666666663</ele><time>2026-04-11T12:51:13.812Z</time></trkpt><trkpt lat="41.893895" lon="13.0903183"><ele>506.0</ele><time>2026-04-11T12:51:14.814Z</time></trkpt><trkpt lat="41.89376" lon="13.09015"><ele>506.0</ele><time>2026-04-11T12:51:15.814Z</time></trkpt><trkpt lat="41.8936233" lon="13.089975"><ele>506.0</ele><time>2026-04-11T12:51:16.813Z</time></trkpt><trkpt lat="41.8934833" lon="13.0898"><ele>506.0</ele><time>2026-04-11T12:51:17.813Z</time></trkpt><trkpt lat="41.8933383" lon="13.089645"><ele>508.0</ele><time>2026-04-11T12:51:18.809Z</time></trkpt><trkpt lat="41.893185" lon="13.0895283"><ele>510.0</ele><time>2026-04-11T12:51:19.81Z</time></trkpt><trkpt lat="41.8930167" lon="13.0894333"><ele>512.0</ele><time>2026-04-11T12:51:20.813Z</time></trkpt><trkpt lat="41.8928183" lon="13.089385"><ele>512.0</ele><time>2026-04-11T12:51:21.81Z</time></trkpt><trkpt lat="41.892595" lon="13.0893867"><ele>512.0</ele><time>2026-04-11T12:51:22.81Z</time></trkpt><trkpt lat="41.8923667" lon="13.089395"><ele>513.3333333333333</ele><time>2026-04-11T12:51:23.81Z</time></trkpt><trkpt lat="41.8921417" lon="13.089395"><ele>514.6666666666666</ele><time>2026-04-11T12:51:24.809Z</time></trkpt><trkpt lat="41.8919333" lon="13.089385"><ele>516.0</ele><time>2026-04-11T12:51:25.81Z</time></trkpt><trkpt lat="41.89174" lon="13.0893633"><ele>516.6666666666666</ele><time>2026-04-11T12:51:26.81Z</time></trkpt><trkpt lat="41.8915617" lon="13.089325"><ele>517.3333333333333</ele><time>2026-04-11T12:51:27.81Z</time></trkpt><trkpt lat="41.8914067" lon="13.0892617"><ele>518.0</ele><time>2026-04-11T12:51:28.809Z</time></trkpt><trkpt lat="41.8912817" lon="13.0891817"><ele>516.25</ele><time>2026-04-11T12:51:29.814Z</time></trkpt><trkpt lat="41.89118" lon="13.0890817"><ele>514.5</ele><time>2026-04-11T12:51:30.813Z</time></trkpt><trkpt lat="41.8910733" lon="13.0889717"><ele>512.75</ele><time>2026-04-11T12:51:31.813Z</time></trkpt><trkpt lat="41.8909433" lon="13.0888783"><ele>511.0</ele><time>2026-04-11T12:51:32.814Z</time></trkpt><trkpt lat="41.8907983" lon="13.0887967"><ele>511.0</ele><time>2026-04-11T12:51:33.812Z</time></trkpt><trkpt lat="41.89066" lon="13.0887117"><ele>511.0</ele><time>2026-04-11T12:51:34.813Z</time></trkpt><trkpt lat="41.8905467" lon="13.0886017"><ele>511.0</ele><time>2026-04-11T12:51:35.812Z</time></trkpt><trkpt lat="41.8904617" lon="13.08845"><ele>511.0</ele><time>2026-04-11T12:51:36.812Z</time></trkpt><trkpt lat="41.890405" lon="13.0882467"><ele>509.33333333333337</ele><time>2026-04-11T12:51:37.812Z</time></trkpt><trkpt lat="41.89037" lon="13.088005"><ele>507.66666666666663</ele><time>2026-04-11T12:51:38.812Z</time></trkpt><trkpt lat="41.890355" lon="13.0877367"><ele>506.0</ele><time>2026-04-11T12:51:39.813Z</time></trkpt><trkpt lat="41.8903633" lon="13.0874567"><ele>505.5</ele><time>2026-04-11T12:51:40.813Z</time></trkpt><trkpt lat="41.890395" lon="13.087165"><ele>505.0</ele><time>2026-04-11T12:51:41.81Z</time></trkpt><trkpt lat="41.8904367" lon="13.0868583"><ele>503.5</ele><time>2026-04-11T12:51:42.81Z</time></trkpt><trkpt lat="41.8904733" lon="13.08654"><ele>502.0</ele><time>2026-04-11T12:51:43.809Z</time></trkpt><trkpt lat="41.8904867" lon="13.0862167"><ele>502.0</ele><time>2026-04-11T12:51:44.81Z</time></trkpt><trkpt lat="41.8904767" lon="13.0858983"><ele>502.0</ele><time>2026-04-11T12:51:45.813Z</time></trkpt><trkpt lat="41.8904617" lon="13.08558"><ele>500.5</ele><time>2026-04-11T12:51:46.812Z</time></trkpt><trkpt lat="41.890435" lon="13.08526"><ele>499.0</ele><time>2026-04-11T12:51:47.814Z</time></trkpt><trkpt lat="41.890405" lon="13.0849517"><ele>497.6666666666667</ele><time>2026-04-11T12:51:48.809Z</time></trkpt><trkpt lat="41.8903767" lon="13.084655"><ele>496.33333333333337</ele><time>2026-04-11T12:51:49.809Z</time></trkpt><trkpt lat="41.89036" lon="13.08436"><ele>495.0</ele><time>2026-04-11T12:51:50.81Z</time></trkpt><trkpt lat="41.890365" lon="13.0840567"><ele>494.5</ele><time>2026-04-11T12:51:51.809Z</time></trkpt><trkpt lat="41.890385" lon="13.0837333"><ele>494.0</ele><time>2026-04-11T12:51:52.809Z</time></trkpt><trkpt lat="41.8904083" lon="13.0833933"><ele>495.5</ele><time>2026-04-11T12:51:53.809Z</time></trkpt><trkpt lat="41.8904383" lon="13.0830417"><ele>497.0</ele><time>2026-04-11T12:51:54.81Z</time></trkpt><trkpt lat="41.8904767" lon="13.0826783"><ele>499.5</ele><time>2026-04-11T12:51:55.81Z</time></trkpt><trkpt lat="41.8905183" lon="13.0823033"><ele>502.0</ele><time>2026-04-11T12:51:56.81Z</time></trkpt><trkpt lat="41.8905533" lon="13.0819283"><ele>503.0</ele><time>2026-04-11T12:51:57.81Z</time></trkpt><trkpt lat="41.890585" lon="13.0815633"><ele>504.0</ele><time>2026-04-11T12:51:58.81Z</time></trkpt><trkpt lat="41.8906167" lon="13.0811983"><ele>504.0</ele><time>2026-04-11T12:51:59.81Z</time></trkpt><trkpt lat="41.89065" lon="13.080825"><ele>504.0</ele><time>2026-04-11T12:52:00.81Z</time></trkpt><trkpt lat="41.8906833" lon="13.0804433"><ele>505.5</ele><time>2026-04-11T12:52:01.81Z</time></trkpt><trkpt lat="41.89071" lon="13.080065"><ele>507.0</ele><time>2026-04-11T12:52:02.809Z</time></trkpt><trkpt lat="41.8907217" lon="13.0797167"><ele>508.5</ele><time>2026-04-11T12:52:03.809Z</time></trkpt><trkpt lat="41.890725" lon="13.0794"><ele>510.0</ele><time>2026-04-11T12:52:04.81Z</time></trkpt><trkpt lat="41.8907367" lon="13.0790867"><ele>513.0</ele><time>2026-04-11T12:52:05.809Z</time></trkpt><trkpt lat="41.8907683" lon="13.0787617"><ele>516.0</ele><time>2026-04-11T12:52:06.809Z</time></trkpt><trkpt lat="41.8908117" lon="13.0784217"><ele>518.0</ele><time>2026-04-11T12:52:07.813Z</time></trkpt><trkpt lat="41.89086" lon="13.078085"><ele>520.0</ele><time>2026-04-11T12:52:08.811Z</time></trkpt><trkpt lat="41.8909133" lon="13.0777683"><ele>510.6666666666667</ele><time>2026-04-11T12:52:09.81Z</time></trkpt><trkpt lat="41.8909683" lon="13.0774783"><ele>501.33333333333337</ele><time>2026-04-11T12:52:10.809Z</time></trkpt><trkpt lat="41.8910233" lon="13.0772183"><ele>492.0</ele><time>2026-04-11T12:52:11.81Z</time></trkpt><trkpt lat="41.891075" lon="13.0769767"><ele>492.0</ele><time>2026-04-11T12:52:12.81Z</time></trkpt><trkpt lat="41.8911117" lon="13.0767417"><ele>492.0</ele><time>2026-04-11T12:52:13.81Z</time></trkpt><trkpt lat="41.8911317" lon="13.0765033"><ele>492.0</ele><time>2026-04-11T12:52:14.811Z</time></trkpt><trkpt lat="41.8911217" lon="13.0762467"><ele>493.66666666666663</ele><time>2026-04-11T12:52:15.815Z</time></trkpt><trkpt lat="41.8911167" lon="13.075975"><ele>495.3333333333333</ele><time>2026-04-11T12:52:16.814Z</time></trkpt><trkpt lat="41.8911367" lon="13.075695"><ele>497.0</ele><time>2026-04-11T12:52:17.813Z</time></trkpt><trkpt lat="41.8911717" lon="13.0754383"><ele>500.66666666666663</ele><time>2026-04-11T12:52:18.81Z</time></trkpt><trkpt lat="41.891215" lon="13.075215"><ele>504.33333333333337</ele><time>2026-04-11T12:52:19.811Z</time></trkpt><trkpt lat="41.89129" lon="13.07501"><ele>508.0</ele><time>2026-04-11T12:52:20.81Z</time></trkpt><trkpt lat="41.8913817" lon="13.0748183"><ele>513.0</ele><time>2026-04-11T12:52:21.81Z</time></trkpt><trkpt lat="41.8914717" lon="13.0746367"><ele>518.0</ele><time>2026-04-11T12:52:22.81Z</time></trkpt><trkpt lat="41.8915433" lon="13.07445"><ele>523.0</ele><time>2026-04-11T12:52:23.809Z</time></trkpt><trkpt lat="41.89159" lon="13.0742467"><ele>526.0</ele><time>2026-04-11T12:52:24.811Z</time></trkpt><trkpt lat="41.891635" lon="13.074025"><ele>529.0</ele><time>2026-04-11T12:52:25.811Z</time></trkpt><trkpt lat="41.89169" lon="13.073805"><ele>532.0</ele><time>2026-04-11T12:52:26.81Z</time></trkpt><trkpt lat="41.8917483" lon="13.0736083"><ele>531.8000000000001</ele><time>2026-04-11T12:52:27.81Z</time></trkpt><trkpt lat="41.8918017" lon="13.073445"><ele>531.6</ele><time>2026-04-11T12:52:28.81Z</time></trkpt><trkpt lat="41.891845" lon="13.073315"><ele>531.4000000000001</ele><time>2026-04-11T12:52:29.813Z</time></trkpt><trkpt lat="41.8918817" lon="13.07319"><ele>531.2</ele><time>2026-04-11T12:52:30.814Z</time></trkpt><trkpt lat="41.8919167" lon="13.0730683"><ele>531.0</ele><time>2026-04-11T12:52:31.813Z</time></trkpt><trkpt lat="41.8919483" lon="13.072955"><ele>531.0</ele><time>2026-04-11T12:52:32.813Z</time></trkpt><trkpt lat="41.8919667" lon="13.0728533"><ele>531.0</ele><time>2026-04-11T12:52:33.813Z</time></trkpt><trkpt lat="41.8919733" lon="13.0727617"><ele>531.0</ele><time>2026-04-11T12:52:34.812Z</time></trkpt><trkpt lat="41.8919617" lon="13.0726767"><ele>531.0</ele><time>2026-04-11T12:52:35.812Z</time></trkpt><trkpt lat="41.8919267" lon="13.072605"><ele>531.0</ele><time>2026-04-11T12:52:36.812Z</time></trkpt><trkpt lat="41.8917717" lon="13.0727133"><ele>531.0</ele><time>2026-04-11T12:52:38.812Z</time></trkpt><trkpt lat="41.8916933" lon="13.072835"><ele>531.3333333333334</ele><time>2026-04-11T12:52:39.81Z</time></trkpt><trkpt lat="41.8915717" lon="13.0730633"><ele>531.6666666666667</ele><time>2026-04-11T12:52:40.813Z</time></trkpt><trkpt lat="41.89147" lon="13.0732567"><ele>532.0</ele><time>2026-04-11T12:52:41.813Z</time></trkpt><trkpt lat="41.8913717" lon="13.0734283"><ele>532.0</ele><time>2026-04-11T12:52:42.812Z</time></trkpt><trkpt lat="41.8912883" lon="13.0735583"><ele>532.0</ele><time>2026-04-11T12:52:43.812Z</time></trkpt><trkpt lat="41.8911967" lon="13.0736383"><ele>532.0</ele><time>2026-04-11T12:52:44.813Z</time></trkpt><trkpt lat="41.8911" lon="13.0736633"><ele>532.0</ele><time>2026-04-11T12:52:45.813Z</time></trkpt><trkpt lat="41.8909983" lon="13.0736433"><ele>532.0</ele><time>2026-04-11T12:52:46.813Z</time></trkpt><trkpt lat="41.8908883" lon="13.07359"><ele>533.5</ele><time>2026-04-11T12:52:47.809Z</time></trkpt><trkpt lat="41.8907817" lon="13.0735183"><ele>535.0</ele><time>2026-04-11T12:52:48.809Z</time></trkpt><trkpt lat="41.8906833" lon="13.0734283"><ele>536.5</ele><time>2026-04-11T12:52:49.809Z</time></trkpt><trkpt lat="41.8905867" lon="13.0733267"><ele>538.0</ele><time>2026-04-11T12:52:50.81Z</time></trkpt><trkpt lat="41.8905033" lon="13.0731967"><ele>538.0</ele><time>2026-04-11T12:52:51.81Z</time></trkpt><trkpt lat="41.8904383" lon="13.0730267"><ele>538.0</ele><time>2026-04-11T12:52:52.809Z</time></trkpt><trkpt lat="41.8903933" lon="13.07283"><ele>538.0</ele><time>2026-04-11T12:52:53.81Z</time></trkpt><trkpt lat="41.890355" lon="13.0726133"><ele>539.6666666666667</ele><time>2026-04-11T12:52:54.81Z</time></trkpt><trkpt lat="41.8902983" lon="13.072375"><ele>541.3333333333334</ele><time>2026-04-11T12:52:55.81Z</time></trkpt><trkpt lat="41.8902083" lon="13.0721183"><ele>543.0</ele><time>2026-04-11T12:52:56.81Z</time></trkpt><trkpt lat="41.8900967" lon="13.0718483"><ele>540.6666666666666</ele><time>2026-04-11T12:52:57.809Z</time></trkpt><trkpt lat="41.8899967" lon="13.0715967"><ele>538.3333333333333</ele><time>2026-04-11T12:52:58.81Z</time></trkpt><trkpt lat="41.889915" lon="13.071385"><ele>536.0</ele><time>2026-04-11T12:52:59.812Z</time></trkpt><trkpt lat="41.889845" lon="13.0712117"><ele>536.0</ele><time>2026-04-11T12:53:00.812Z</time></trkpt><trkpt lat="41.8897717" lon="13.0710767"><ele>536.0</ele><time>2026-04-11T12:53:01.813Z</time></trkpt><trkpt lat="41.8896767" lon="13.070975"><ele>536.0</ele><time>2026-04-11T12:53:02.813Z</time></trkpt><trkpt lat="41.8895567" lon="13.0709217"><ele>536.0</ele><time>2026-04-11T12:53:03.812Z</time></trkpt><trkpt lat="41.8894183" lon="13.0709217"><ele>536.0</ele><time>2026-04-11T12:53:04.813Z</time></trkpt><trkpt lat="41.8892883" lon="13.0709583"><ele>536.0</ele><time>2026-04-11T12:53:05.817Z</time></trkpt><trkpt lat="41.8891867" lon="13.0710017"><ele>536.0</ele><time>2026-04-11T12:53:06.813Z</time></trkpt><trkpt lat="41.88911" lon="13.0710133"><ele>536.0</ele><time>2026-04-11T12:53:07.813Z</time></trkpt><trkpt lat="41.889045" lon="13.0709983"><ele>536.0</ele><time>2026-04-11T12:53:08.813Z</time></trkpt><trkpt lat="41.888985" lon="13.070935"><ele>535.0</ele><time>2026-04-11T12:53:09.812Z</time></trkpt><trkpt lat="41.8889283" lon="13.0708217"><ele>534.0</ele><time>2026-04-11T12:53:10.813Z</time></trkpt><trkpt lat="41.888885" lon="13.0706517"><ele>533.0</ele><time>2026-04-11T12:53:11.813Z</time></trkpt><trkpt lat="41.8888467" lon="13.0704333"><ele>532.0</ele><time>2026-04-11T12:53:12.813Z</time></trkpt><trkpt lat="41.888845" lon="13.070185"><ele>529.6666666666667</ele><time>2026-04-11T12:53:13.812Z</time></trkpt><trkpt lat="41.8888733" lon="13.0698867"><ele>527.3333333333334</ele><time>2026-04-11T12:53:14.813Z</time></trkpt><trkpt lat="41.8889" lon="13.0696167"><ele>525.0</ele><time>2026-04-11T12:53:15.813Z</time></trkpt><trkpt lat="41.8889367" lon="13.0693733"><ele>525.0</ele><time>2026-04-11T12:53:16.813Z</time></trkpt><trkpt lat="41.888995" lon="13.0691517"><ele>525.0</ele><time>2026-04-11T12:53:17.81Z</time></trkpt><trkpt lat="41.8890767" lon="13.0689483"><ele>525.0</ele><time>2026-04-11T12:53:18.809Z</time></trkpt><trkpt lat="41.88917" lon="13.0687683"><ele>525.25</ele><time>2026-04-11T12:53:19.81Z</time></trkpt><trkpt lat="41.889245" lon="13.0686133"><ele>525.5</ele><time>2026-04-11T12:53:20.81Z</time></trkpt><trkpt lat="41.8892867" lon="13.06847"><ele>525.75</ele><time>2026-04-11T12:53:21.81Z</time></trkpt><trkpt lat="41.889285" lon="13.068325"><ele>526.0</ele><time>2026-04-11T12:53:22.814Z</time></trkpt><trkpt lat="41.8892333" lon="13.0681933"><ele>526.0</ele><time>2026-04-11T12:53:23.81Z</time></trkpt><trkpt lat="41.8891483" lon="13.0680633"><ele>526.0</ele><time>2026-04-11T12:53:24.814Z</time></trkpt><trkpt lat="41.8890083" lon="13.06795"><ele>526.0</ele><time>2026-04-11T12:53:25.812Z</time></trkpt><trkpt lat="41.8888367" lon="13.0678583"><ele>526.0</ele><time>2026-04-11T12:53:26.813Z</time></trkpt><trkpt lat="41.8886867" lon="13.06775"><ele>526.0</ele><time>2026-04-11T12:53:27.813Z</time></trkpt><trkpt lat="41.8885533" lon="13.0676283"><ele>526.0</ele><time>2026-04-11T12:53:28.813Z</time></trkpt><trkpt lat="41.88844" lon="13.06747"><ele>524.6666666666667</ele><time>2026-04-11T12:53:29.812Z</time></trkpt><trkpt lat="41.888335" lon="13.067275"><ele>523.3333333333334</ele><time>2026-04-11T12:53:30.814Z</time></trkpt><trkpt lat="41.888225" lon="13.0670533"><ele>522.0</ele><time>2026-04-11T12:53:31.813Z</time></trkpt><trkpt lat="41.8881017" lon="13.0668217"><ele>527.3333333333334</ele><time>2026-04-11T12:53:32.813Z</time></trkpt><trkpt lat="41.887985" lon="13.0665983"><ele>532.6666666666667</ele><time>2026-04-11T12:53:33.815Z</time></trkpt><trkpt lat="41.887885" lon="13.06639"><ele>538.0</ele><time>2026-04-11T12:53:34.812Z</time></trkpt><trkpt lat="41.8878083" lon="13.0661783"><ele>538.0</ele><time>2026-04-11T12:53:35.813Z</time></trkpt><trkpt lat="41.8877567" lon="13.0659417"><ele>538.0</ele><time>2026-04-11T12:53:36.813Z</time></trkpt><trkpt lat="41.8877233" lon="13.0656783"><ele>538.0</ele><time>2026-04-11T12:53:37.812Z</time></trkpt><trkpt lat="41.887695" lon="13.065395"><ele>536.6666666666667</ele><time>2026-04-11T12:53:38.813Z</time></trkpt><trkpt lat="41.8876783" lon="13.06512"><ele>535.3333333333334</ele><time>2026-04-11T12:53:39.81Z</time></trkpt><trkpt lat="41.8876767" lon="13.0648583"><ele>534.0</ele><time>2026-04-11T12:53:40.813Z</time></trkpt><trkpt lat="41.8876967" lon="13.0646067"><ele>534.0</ele><time>2026-04-11T12:53:41.813Z</time></trkpt><trkpt lat="41.8877417" lon="13.0643583"><ele>534.0</ele><time>2026-04-11T12:53:42.813Z</time></trkpt><trkpt lat="41.88781" lon="13.0641017"><ele>534.0</ele><time>2026-04-11T12:53:43.81Z</time></trkpt><trkpt lat="41.8879067" lon="13.0638433"><ele>526.3333333333334</ele><time>2026-04-11T12:53:44.811Z</time></trkpt><trkpt lat="41.8880167" lon="13.063605"><ele>518.6666666666667</ele><time>2026-04-11T12:53:45.811Z</time></trkpt><trkpt lat="41.8881133" lon="13.0634"><ele>511.0</ele><time>2026-04-11T12:53:46.809Z</time></trkpt><trkpt lat="41.88819" lon="13.0632283"><ele>508.5</ele><time>2026-04-11T12:53:47.81Z</time></trkpt><trkpt lat="41.888245" lon="13.063085"><ele>506.0</ele><time>2026-04-11T12:53:48.813Z</time></trkpt><trkpt lat="41.888275" lon="13.0629433"><ele>503.5</ele><time>2026-04-11T12:53:49.81Z</time></trkpt><trkpt lat="41.888255" lon="13.062785"><ele>501.0</ele><time>2026-04-11T12:53:50.81Z</time></trkpt><trkpt lat="41.8882317" lon="13.0626133"><ele>503.66666666666663</ele><time>2026-04-11T12:53:51.809Z</time></trkpt><trkpt lat="41.8882267" lon="13.0624267"><ele>506.3333333333333</ele><time>2026-04-11T12:53:52.811Z</time></trkpt><trkpt lat="41.8882667" lon="13.06223"><ele>509.0</ele><time>2026-04-11T12:53:53.809Z</time></trkpt><trkpt lat="41.8883433" lon="13.0620267"><ele>503.66666666666663</ele><time>2026-04-11T12:53:54.813Z</time></trkpt><trkpt lat="41.8884267" lon="13.061805"><ele>498.33333333333337</ele><time>2026-04-11T12:53:55.809Z</time></trkpt><trkpt lat="41.888525" lon="13.0615683"><ele>493.0</ele><time>2026-04-11T12:53:56.81Z</time></trkpt><trkpt lat="41.8886267" lon="13.0613133"><ele>493.0</ele><time>2026-04-11T12:53:57.809Z</time></trkpt><trkpt lat="41.8887233" lon="13.0610467"><ele>493.0</ele><time>2026-04-11T12:53:58.81Z</time></trkpt><trkpt lat="41.8888167" lon="13.0607667"><ele>493.0</ele><time>2026-04-11T12:53:59.81Z</time></trkpt><trkpt lat="41.8889017" lon="13.060485"><ele>493.33333333333337</ele><time>2026-04-11T12:54:00.81Z</time></trkpt><trkpt lat="41.8889717" lon="13.0602167"><ele>493.66666666666663</ele><time>2026-04-11T12:54:01.81Z</time></trkpt><trkpt lat="41.8890317" lon="13.0599767"><ele>494.0</ele><time>2026-04-11T12:54:02.81Z</time></trkpt><trkpt lat="41.8890817" lon="13.0597633"><ele>496.66666666666663</ele><time>2026-04-11T12:54:03.809Z</time></trkpt><trkpt lat="41.8891067" lon="13.0595583"><ele>499.33333333333337</ele><time>2026-04-11T12:54:04.81Z</time></trkpt><trkpt lat="41.8891167" lon="13.0593567"><ele>502.0</ele><time>2026-04-11T12:54:05.813Z</time></trkpt><trkpt lat="41.8891083" lon="13.05915"><ele>504.6666666666667</ele><time>2026-04-11T12:54:06.813Z</time></trkpt><trkpt lat="41.8890717" lon="13.05893"><ele>507.33333333333337</ele><time>2026-04-11T12:54:07.813Z</time></trkpt><trkpt lat="41.8890083" lon="13.058695"><ele>510.0</ele><time>2026-04-11T12:54:08.814Z</time></trkpt><trkpt lat="41.8889417" lon="13.0584517"><ele>512.6666666666666</ele><time>2026-04-11T12:54:09.812Z</time></trkpt><trkpt lat="41.8888683" lon="13.0581933"><ele>515.3333333333333</ele><time>2026-04-11T12:54:10.813Z</time></trkpt><trkpt lat="41.8887917" lon="13.05792"><ele>518.0</ele><time>2026-04-11T12:54:11.813Z</time></trkpt><trkpt lat="41.8887133" lon="13.05765"><ele>513.0</ele><time>2026-04-11T12:54:12.813Z</time></trkpt><trkpt lat="41.8886417" lon="13.0574033"><ele>508.0</ele><time>2026-04-11T12:54:13.813Z</time></trkpt><trkpt lat="41.8885783" lon="13.0571783"><ele>503.0</ele><time>2026-04-11T12:54:14.813Z</time></trkpt><trkpt lat="41.8885317" lon="13.056975"><ele>503.0</ele><time>2026-04-11T12:54:15.813Z</time></trkpt><trkpt lat="41.8884983" lon="13.0567817"><ele>503.0</ele><time>2026-04-11T12:54:16.814Z</time></trkpt><trkpt lat="41.888485" lon="13.0565867"><ele>503.0</ele><time>2026-04-11T12:54:17.812Z</time></trkpt><trkpt lat="41.8885033" lon="13.0563767"><ele>500.0</ele><time>2026-04-11T12:54:18.814Z</time></trkpt><trkpt lat="41.88855" lon="13.0561483"><ele>497.0</ele><time>2026-04-11T12:54:19.814Z</time></trkpt><trkpt lat="41.888625" lon="13.0559133"><ele>494.0</ele><time>2026-04-11T12:54:20.814Z</time></trkpt><trkpt lat="41.8887167" lon="13.055695"><ele>494.0</ele><time>2026-04-11T12:54:21.81Z</time></trkpt><trkpt lat="41.8888267" lon="13.05552"><ele>494.0</ele><time>2026-04-11T12:54:22.809Z</time></trkpt><trkpt lat="41.888935" lon="13.0553767"><ele>494.0</ele><time>2026-04-11T12:54:23.813Z</time></trkpt><trkpt lat="41.8890367" lon="13.05524"><ele>494.0</ele><time>2026-04-11T12:54:24.809Z</time></trkpt><trkpt lat="41.889125" lon="13.055085"><ele>494.0</ele><time>2026-04-11T12:54:25.81Z</time></trkpt><trkpt lat="41.8891917" lon="13.05491"><ele>494.0</ele><time>2026-04-11T12:54:26.811Z</time></trkpt><trkpt lat="41.8892217" lon="13.05473"><ele>494.0</ele><time>2026-04-11T12:54:27.81Z</time></trkpt><trkpt lat="41.8892233" lon="13.0545617"><ele>492.4</ele><time>2026-04-11T12:54:28.811Z</time></trkpt><trkpt lat="41.8892133" lon="13.054425"><ele>490.79999999999995</ele><time>2026-04-11T12:54:29.809Z</time></trkpt><trkpt lat="41.8892017" lon="13.0543117"><ele>489.20000000000005</ele><time>2026-04-11T12:54:30.81Z</time></trkpt><trkpt lat="41.8891767" lon="13.0542117"><ele>487.6</ele><time>2026-04-11T12:54:31.81Z</time></trkpt><trkpt lat="41.889125" lon="13.0541167"><ele>486.0</ele><time>2026-04-11T12:54:32.813Z</time></trkpt><trkpt lat="41.88904" lon="13.0540383"><ele>478.33333333333337</ele><time>2026-04-11T12:54:33.812Z</time></trkpt><trkpt lat="41.888915" lon="13.0539817"><ele>470.6666666666667</ele><time>2026-04-11T12:54:34.813Z</time></trkpt><trkpt lat="41.888765" lon="13.0539633"><ele>463.0</ele><time>2026-04-11T12:54:35.813Z</time></trkpt><trkpt lat="41.88859" lon="13.0540017"><ele>468.33333333333337</ele><time>2026-04-11T12:54:36.813Z</time></trkpt><trkpt lat="41.8884133" lon="13.054075"><ele>473.66666666666663</ele><time>2026-04-11T12:54:37.813Z</time></trkpt><trkpt lat="41.888245" lon="13.054135"><ele>479.0</ele><time>2026-04-11T12:54:38.814Z</time></trkpt><trkpt lat="41.8880883" lon="13.0541617"><ele>479.0</ele><time>2026-04-11T12:54:39.814Z</time></trkpt><trkpt lat="41.88793" lon="13.0541533"><ele>479.0</ele><time>2026-04-11T12:54:40.813Z</time></trkpt><trkpt lat="41.88777" lon="13.0541117"><ele>479.0</ele><time>2026-04-11T12:54:41.813Z</time></trkpt><trkpt lat="41.88761" lon="13.05405"><ele>484.0</ele><time>2026-04-11T12:54:42.812Z</time></trkpt><trkpt lat="41.8874567" lon="13.0539817"><ele>489.0</ele><time>2026-04-11T12:54:43.813Z</time></trkpt><trkpt lat="41.887315" lon="13.0539117"><ele>494.0</ele><time>2026-04-11T12:54:44.81Z</time></trkpt><trkpt lat="41.8871733" lon="13.0538217"><ele>494.0</ele><time>2026-04-11T12:54:45.812Z</time></trkpt><trkpt lat="41.8870333" lon="13.0537"><ele>494.0</ele><time>2026-04-11T12:54:46.812Z</time></trkpt><trkpt lat="41.8869017" lon="13.0535483"><ele>494.0</ele><time>2026-04-11T12:54:47.812Z</time></trkpt><trkpt lat="41.8867883" lon="13.053395"><ele>497.25</ele><time>2026-04-11T12:54:48.813Z</time></trkpt><trkpt lat="41.88669" lon="13.0532567"><ele>500.5</ele><time>2026-04-11T12:54:49.813Z</time></trkpt><trkpt lat="41.886595" lon="13.0531167"><ele>503.75</ele><time>2026-04-11T12:54:50.813Z</time></trkpt><trkpt lat="41.8865083" lon="13.0529483"><ele>507.0</ele><time>2026-04-11T12:54:51.813Z</time></trkpt><trkpt lat="41.8864217" lon="13.0527567"><ele>507.0</ele><time>2026-04-11T12:54:52.81Z</time></trkpt><trkpt lat="41.8863233" lon="13.05256"><ele>507.0</ele><time>2026-04-11T12:54:53.809Z</time></trkpt><trkpt lat="41.88621" lon="13.0523683"><ele>507.0</ele><time>2026-04-11T12:54:54.81Z</time></trkpt><trkpt lat="41.8861017" lon="13.0521917"><ele>504.33333333333337</ele><time>2026-04-11T12:54:55.81Z</time></trkpt><trkpt lat="41.8860133" lon="13.052015"><ele>501.6666666666667</ele><time>2026-04-11T12:54:56.811Z</time></trkpt><trkpt lat="41.88594" lon="13.05183"><ele>499.0</ele><time>2026-04-11T12:54:57.813Z</time></trkpt><trkpt lat="41.8858883" lon="13.051645"><ele>498.75</ele><time>2026-04-11T12:54:58.813Z</time></trkpt><trkpt lat="41.8858683" lon="13.0514667"><ele>498.5</ele><time>2026-04-11T12:54:59.813Z</time></trkpt><trkpt lat="41.8858883" lon="13.051295"><ele>498.25</ele><time>2026-04-11T12:55:00.813Z</time></trkpt><trkpt lat="41.8859483" lon="13.0511167"><ele>498.0</ele><time>2026-04-11T12:55:01.812Z</time></trkpt><trkpt lat="41.8860433" lon="13.0509317"><ele>500.75</ele><time>2026-04-11T12:55:02.812Z</time></trkpt><trkpt lat="41.886145" lon="13.05075"><ele>503.5</ele><time>2026-04-11T12:55:03.813Z</time></trkpt><trkpt lat="41.886225" lon="13.0505983"><ele>506.25</ele><time>2026-04-11T12:55:04.812Z</time></trkpt><trkpt lat="41.88628" lon="13.0504833"><ele>509.0</ele><time>2026-04-11T12:55:05.813Z</time></trkpt><trkpt lat="41.8863117" lon="13.05037"><ele>509.0</ele><time>2026-04-11T12:55:06.814Z</time></trkpt><trkpt lat="41.8863217" lon="13.0502467"><ele>509.0</ele><time>2026-04-11T12:55:07.813Z</time></trkpt><trkpt lat="41.8863033" lon="13.0501083"><ele>509.0</ele><time>2026-04-11T12:55:08.813Z</time></trkpt><trkpt lat="41.8862433" lon="13.0499767"><ele>509.0</ele><time>2026-04-11T12:55:09.812Z</time></trkpt><trkpt lat="41.88613" lon="13.0498433"><ele>507.0</ele><time>2026-04-11T12:55:10.813Z</time></trkpt><trkpt lat="41.8859783" lon="13.0497317"><ele>505.0</ele><time>2026-04-11T12:55:11.812Z</time></trkpt><trkpt lat="41.88582" lon="13.04963"><ele>503.0</ele><time>2026-04-11T12:55:12.814Z</time></trkpt><trkpt lat="41.8856483" lon="13.049525"><ele>503.0</ele><time>2026-04-11T12:55:13.813Z</time></trkpt><trkpt lat="41.885485" lon="13.04942"><ele>503.0</ele><time>2026-04-11T12:55:14.813Z</time></trkpt><trkpt lat="41.8853317" lon="13.0493133"><ele>503.0</ele><time>2026-04-11T12:55:15.815Z</time></trkpt><trkpt lat="41.8852017" lon="13.0492117"><ele>506.25</ele><time>2026-04-11T12:55:16.816Z</time></trkpt><trkpt lat="41.8850917" lon="13.0491"><ele>509.5</ele><time>2026-04-11T12:55:17.813Z</time></trkpt><trkpt lat="41.8849917" lon="13.0489633"><ele>512.75</ele><time>2026-04-11T12:55:18.812Z</time></trkpt><trkpt lat="41.884905" lon="13.0487917"><ele>516.0</ele><time>2026-04-11T12:55:19.812Z</time></trkpt><trkpt lat="41.8848367" lon="13.0486067"><ele>516.0</ele><time>2026-04-11T12:55:20.813Z</time></trkpt><trkpt lat="41.8847983" lon="13.0484183"><ele>516.0</ele><time>2026-04-11T12:55:21.813Z</time></trkpt><trkpt lat="41.884785" lon="13.0482217"><ele>516.0</ele><time>2026-04-11T12:55:22.812Z</time></trkpt><trkpt lat="41.884795" lon="13.0480233"><ele>516.0</ele><time>2026-04-11T12:55:23.813Z</time></trkpt><trkpt lat="41.884815" lon="13.0478217"><ele>519.5</ele><time>2026-04-11T12:55:24.81Z</time></trkpt><trkpt lat="41.8848483" lon="13.04762"><ele>523.0</ele><time>2026-04-11T12:55:25.813Z</time></trkpt><trkpt lat="41.8848933" lon="13.0474317"><ele>526.5</ele><time>2026-04-11T12:55:26.811Z</time></trkpt><trkpt lat="41.88496" lon="13.0472833"><ele>530.0</ele><time>2026-04-11T12:55:27.811Z</time></trkpt><trkpt lat="41.8850167" lon="13.0471517"><ele>532.75</ele><time>2026-04-11T12:55:28.811Z</time></trkpt><trkpt lat="41.8850567" lon="13.0470167"><ele>535.5</ele><time>2026-04-11T12:55:29.813Z</time></trkpt><trkpt lat="41.8850733" lon="13.0468717"><ele>538.25</ele><time>2026-04-11T12:55:30.811Z</time></trkpt><trkpt lat="41.8850483" lon="13.04671"><ele>541.0</ele><time>2026-04-11T12:55:31.813Z</time></trkpt><trkpt lat="41.8850033" lon="13.0465567"><ele>544.2</ele><time>2026-04-11T12:55:32.81Z</time></trkpt><trkpt lat="41.884965" lon="13.046425"><ele>547.4000000000001</ele><time>2026-04-11T12:55:33.814Z</time></trkpt><trkpt lat="41.8849533" lon="13.046305"><ele>550.6</ele><time>2026-04-11T12:55:34.809Z</time></trkpt><trkpt lat="41.8849667" lon="13.0461883"><ele>553.8000000000001</ele><time>2026-04-11T12:55:35.813Z</time></trkpt><trkpt lat="41.8849967" lon="13.0460683"><ele>557.0</ele><time>2026-04-11T12:55:36.813Z</time></trkpt><trkpt lat="41.8850567" lon="13.045935"><ele>552.25</ele><time>2026-04-11T12:55:37.81Z</time></trkpt><trkpt lat="41.8851167" lon="13.045785"><ele>547.5</ele><time>2026-04-11T12:55:38.813Z</time></trkpt><trkpt lat="41.88517" lon="13.045625"><ele>542.75</ele><time>2026-04-11T12:55:39.809Z</time></trkpt><trkpt lat="41.8852233" lon="13.045465"><ele>538.0</ele><time>2026-04-11T12:55:40.81Z</time></trkpt><trkpt lat="41.8853033" lon="13.0453083"><ele>538.0</ele><time>2026-04-11T12:55:41.81Z</time></trkpt><trkpt lat="41.8853917" lon="13.045165"><ele>538.0</ele><time>2026-04-11T12:55:42.81Z</time></trkpt><trkpt lat="41.8854933" lon="13.0450383"><ele>538.0</ele><time>2026-04-11T12:55:43.81Z</time></trkpt><trkpt lat="41.885605" lon="13.044925"><ele>538.0</ele><time>2026-04-11T12:55:44.81Z</time></trkpt><trkpt lat="41.8857183" lon="13.0448333"><ele>539.0</ele><time>2026-04-11T12:55:45.809Z</time></trkpt><trkpt lat="41.8858233" lon="13.0447317"><ele>540.0</ele><time>2026-04-11T12:55:46.811Z</time></trkpt><trkpt lat="41.8859133" lon="13.0446167"><ele>541.0</ele><time>2026-04-11T12:55:47.813Z</time></trkpt><trkpt lat="41.8859767" lon="13.04451"><ele>542.0</ele><time>2026-04-11T12:55:48.813Z</time></trkpt><trkpt lat="41.88601" lon="13.0444183"><ele>543.0</ele><time>2026-04-11T12:55:49.812Z</time></trkpt><trkpt lat="41.886025" lon="13.0443317"><ele>543.0</ele><time>2026-04-11T12:55:50.813Z</time></trkpt><trkpt lat="41.8860033" lon="13.0442517"><ele>543.0</ele><time>2026-04-11T12:55:51.812Z</time></trkpt><trkpt lat="41.8859467" lon="13.0441867"><ele>543.0</ele><time>2026-04-11T12:55:52.812Z</time></trkpt><trkpt lat="41.885855" lon="13.0441517"><ele>543.0</ele><time>2026-04-11T12:55:53.813Z</time></trkpt><trkpt lat="41.8857617" lon="13.0440983"><ele>543.0</ele><time>2026-04-11T12:55:54.813Z</time></trkpt><trkpt lat="41.8856267" lon="13.0440367"><ele>536.0</ele><time>2026-04-11T12:55:55.813Z</time></trkpt><trkpt lat="41.8854617" lon="13.0439783"><ele>529.0</ele><time>2026-04-11T12:55:56.812Z</time></trkpt><trkpt lat="41.8853" lon="13.0439233"><ele>522.0</ele><time>2026-04-11T12:55:57.81Z</time></trkpt><trkpt lat="41.8851483" lon="13.0438917"><ele>528.6666666666666</ele><time>2026-04-11T12:55:58.812Z</time></trkpt><trkpt lat="41.8850017" lon="13.0438883"><ele>535.3333333333333</ele><time>2026-04-11T12:55:59.813Z</time></trkpt><trkpt lat="41.8848533" lon="13.0439133"><ele>542.0</ele><time>2026-04-11T12:56:00.811Z</time></trkpt><trkpt lat="41.8847017" lon="13.0439467"><ele>542.0</ele><time>2026-04-11T12:56:01.813Z</time></trkpt><trkpt lat="41.8845633" lon="13.0439717"><ele>542.0</ele><time>2026-04-11T12:56:02.809Z</time></trkpt><trkpt lat="41.8844417" lon="13.0439783"><ele>542.0</ele><time>2026-04-11T12:56:03.81Z</time></trkpt><trkpt lat="41.884335" lon="13.0439683"><ele>542.0</ele><time>2026-04-11T12:56:04.813Z</time></trkpt><trkpt lat="41.88424" lon="13.04393"><ele>547.5</ele><time>2026-04-11T12:56:05.812Z</time></trkpt><trkpt lat="41.8841783" lon="13.0438583"><ele>553.0</ele><time>2026-04-11T12:56:06.813Z</time></trkpt><trkpt lat="41.884135" lon="13.043795"><ele>558.5</ele><time>2026-04-11T12:56:07.813Z</time></trkpt><trkpt lat="41.8840833" lon="13.043715"><ele>564.0</ele><time>2026-04-11T12:56:09.813Z</time></trkpt><trkpt lat="41.8840083" lon="13.0437817"><ele>569.5</ele><time>2026-04-11T12:56:12.81Z</time></trkpt><trkpt lat="41.8840067" lon="13.0438683"><ele>575.0</ele><time>2026-04-11T12:56:13.812Z</time></trkpt><trkpt lat="41.8840567" lon="13.0440617"><ele>575.0</ele><time>2026-04-11T12:56:15.809Z</time></trkpt><trkpt lat="41.8841467" lon="13.0441967"><ele>575.0</ele><time>2026-04-11T12:56:16.813Z</time></trkpt><trkpt lat="41.88433" lon="13.0443617"><ele>575.0</ele><time>2026-04-11T12:56:17.81Z</time></trkpt><trkpt lat="41.8844817" lon="13.0444833"><ele>572.0</ele><time>2026-04-11T12:56:18.81Z</time></trkpt><trkpt lat="41.8846283" lon="13.044565"><ele>569.0</ele><time>2026-04-11T12:56:19.813Z</time></trkpt><trkpt lat="41.8847583" lon="13.0446217"><ele>566.0</ele><time>2026-04-11T12:56:20.809Z</time></trkpt><trkpt lat="41.8848417" lon="13.0446633"><ele>563.0</ele><time>2026-04-11T12:56:21.814Z</time></trkpt><trkpt lat="41.8848967" lon="13.0447167"><ele>563.0</ele><time>2026-04-11T12:56:22.813Z</time></trkpt><trkpt lat="41.8849083" lon="13.0448067"><ele>563.0</ele><time>2026-04-11T12:56:24.813Z</time></trkpt><trkpt lat="41.8848183" lon="13.0448067"><ele>563.0</ele><time>2026-04-11T12:56:26.81Z</time></trkpt><trkpt lat="41.8847383" lon="13.0447933"><ele>563.0</ele><time>2026-04-11T12:56:27.814Z</time></trkpt><trkpt lat="41.8846283" lon="13.0447883"><ele>563.0</ele><time>2026-04-11T12:56:28.813Z</time></trkpt><trkpt lat="41.88448" lon="13.0447783"><ele>563.0</ele><time>2026-04-11T12:56:29.812Z</time></trkpt><trkpt lat="41.8842967" lon="13.0447733"><ele>563.0</ele><time>2026-04-11T12:56:30.812Z</time></trkpt><trkpt lat="41.884105" lon="13.0447517"><ele>563.0</ele><time>2026-04-11T12:56:31.813Z</time></trkpt><trkpt lat="41.883915" lon="13.0447333"><ele>567.0</ele><time>2026-04-11T12:56:32.813Z</time></trkpt><trkpt lat="41.88373" lon="13.0446933"><ele>571.0</ele><time>2026-04-11T12:56:33.812Z</time></trkpt><trkpt lat="41.8835633" lon="13.0446467"><ele>575.0</ele><time>2026-04-11T12:56:34.809Z</time></trkpt><trkpt lat="41.8834167" lon="13.0445933"><ele>580.5</ele><time>2026-04-11T12:56:35.811Z</time></trkpt><trkpt lat="41.8832817" lon="13.0445333"><ele>586.0</ele><time>2026-04-11T12:56:36.813Z</time></trkpt><trkpt lat="41.88315" lon="13.04447"><ele>591.5</ele><time>2026-04-11T12:56:37.818Z</time></trkpt><trkpt lat="41.8830283" lon="13.04442"><ele>597.0</ele><time>2026-04-11T12:56:38.813Z</time></trkpt><trkpt lat="41.8829167" lon="13.0444033"><ele>597.0</ele><time>2026-04-11T12:56:39.813Z</time></trkpt><trkpt lat="41.8828" lon="13.0444633"><ele>597.0</ele><time>2026-04-11T12:56:40.813Z</time></trkpt><trkpt lat="41.8826817" lon="13.0445367"><ele>597.0</ele><time>2026-04-11T12:56:41.812Z</time></trkpt><trkpt lat="41.882545" lon="13.044595"><ele>597.0</ele><time>2026-04-11T12:56:42.813Z</time></trkpt><trkpt lat="41.8824183" lon="13.0446317"><ele>599.6</ele><time>2026-04-11T12:56:43.809Z</time></trkpt><trkpt lat="41.8823183" lon="13.0446583"><ele>602.2</ele><time>2026-04-11T12:56:44.809Z</time></trkpt><trkpt lat="41.8822233" lon="13.0446483"><ele>604.8</ele><time>2026-04-11T12:56:45.9Z</time></trkpt><trkpt lat="41.8821433" lon="13.0445917"><ele>607.4</ele><time>2026-04-11T12:56:46.81Z</time></trkpt><trkpt lat="41.8820783" lon="13.0445067"><ele>610.0</ele><time>2026-04-11T12:56:47.809Z</time></trkpt><trkpt lat="41.8820283" lon="13.04437"><ele>610.0</ele><time>2026-04-11T12:56:48.813Z</time></trkpt><trkpt lat="41.8819833" lon="13.0442117"><ele>610.0</ele><time>2026-04-11T12:56:49.813Z</time></trkpt><trkpt lat="41.881935" lon="13.0440567"><ele>610.0</ele><time>2026-04-11T12:56:50.814Z</time></trkpt><trkpt lat="41.8818683" lon="13.0439283"><ele>610.0</ele><time>2026-04-11T12:56:51.812Z</time></trkpt><trkpt lat="41.881765" lon="13.043835"><ele>611.5</ele><time>2026-04-11T12:56:52.814Z</time></trkpt><trkpt lat="41.8816533" lon="13.04378"><ele>613.0</ele><time>2026-04-11T12:56:53.813Z</time></trkpt><trkpt lat="41.881555" lon="13.0437233"><ele>614.5</ele><time>2026-04-11T12:56:54.81Z</time></trkpt><trkpt lat="41.88147" lon="13.0436317"><ele>616.0</ele><time>2026-04-11T12:56:55.813Z</time></trkpt><trkpt lat="41.8814033" lon="13.04349"><ele>616.0</ele><time>2026-04-11T12:56:56.809Z</time></trkpt><trkpt lat="41.8813583" lon="13.0433133"><ele>616.0</ele><time>2026-04-11T12:56:57.814Z</time></trkpt><trkpt lat="41.8813183" lon="13.0431317"><ele>616.0</ele><time>2026-04-11T12:56:58.813Z</time></trkpt><trkpt lat="41.8812933" lon="13.0429317"><ele>616.0</ele><time>2026-04-11T12:56:59.812Z</time></trkpt><trkpt lat="41.8812867" lon="13.04271"><ele>615.5</ele><time>2026-04-11T12:57:00.813Z</time></trkpt><trkpt lat="41.881285" lon="13.0424867"><ele>615.0</ele><time>2026-04-11T12:57:01.813Z</time></trkpt><trkpt lat="41.8812733" lon="13.0422967"><ele>614.5</ele><time>2026-04-11T12:57:02.814Z</time></trkpt><trkpt lat="41.8812417" lon="13.04212"><ele>614.0</ele><time>2026-04-11T12:57:03.813Z</time></trkpt><trkpt lat="41.8811717" lon="13.0419567"><ele>612.25</ele><time>2026-04-11T12:57:04.813Z</time></trkpt><trkpt lat="41.8810683" lon="13.04182"><ele>610.5</ele><time>2026-04-11T12:57:05.812Z</time></trkpt><trkpt lat="41.88095" lon="13.0417"><ele>608.75</ele><time>2026-04-11T12:57:06.813Z</time></trkpt><trkpt lat="41.8808467" lon="13.04158"><ele>607.0</ele><time>2026-04-11T12:57:07.814Z</time></trkpt><trkpt lat="41.8807767" lon="13.0414533"><ele>607.0</ele><time>2026-04-11T12:57:08.811Z</time></trkpt><trkpt lat="41.8807367" lon="13.0412933"><ele>607.0</ele><time>2026-04-11T12:57:09.813Z</time></trkpt><trkpt lat="41.880705" lon="13.04111"><ele>607.0</ele><time>2026-04-11T12:57:10.813Z</time></trkpt><trkpt lat="41.88066" lon="13.0409117"><ele>607.0</ele><time>2026-04-11T12:57:11.813Z</time></trkpt><trkpt lat="41.880615" lon="13.0407033"><ele>606.3333333333334</ele><time>2026-04-11T12:57:12.813Z</time></trkpt><trkpt lat="41.88057" lon="13.0404917"><ele>605.6666666666666</ele><time>2026-04-11T12:57:13.813Z</time></trkpt><trkpt lat="41.8805133" lon="13.0402867"><ele>605.0</ele><time>2026-04-11T12:57:14.812Z</time></trkpt><trkpt lat="41.880425" lon="13.0400933"><ele>605.3333333333333</ele><time>2026-04-11T12:57:15.813Z</time></trkpt><trkpt lat="41.880305" lon="13.039905"><ele>605.6666666666666</ele><time>2026-04-11T12:57:16.813Z</time></trkpt><trkpt lat="41.8801767" lon="13.0397217"><ele>606.0</ele><time>2026-04-11T12:57:17.814Z</time></trkpt><trkpt lat="41.8800633" lon="13.03953"><ele>612.0</ele><time>2026-04-11T12:57:18.813Z</time></trkpt><trkpt lat="41.87997" lon="13.039315"><ele>618.0</ele><time>2026-04-11T12:57:19.818Z</time></trkpt><trkpt lat="41.8798867" lon="13.0390967"><ele>624.0</ele><time>2026-04-11T12:57:20.813Z</time></trkpt><trkpt lat="41.87981" lon="13.0388833"><ele>626.6666666666666</ele><time>2026-04-11T12:57:21.813Z</time></trkpt><trkpt lat="41.8797383" lon="13.0386567"><ele>629.3333333333333</ele><time>2026-04-11T12:57:22.812Z</time></trkpt><trkpt lat="41.8796767" lon="13.038435"><ele>632.0</ele><time>2026-04-11T12:57:23.813Z</time></trkpt><trkpt lat="41.8796083" lon="13.0382367"><ele>632.6666666666666</ele><time>2026-04-11T12:57:24.813Z</time></trkpt><trkpt lat="41.8795383" lon="13.038055"><ele>633.3333333333334</ele><time>2026-04-11T12:57:25.813Z</time></trkpt><trkpt lat="41.8794483" lon="13.037885"><ele>634.0</ele><time>2026-04-11T12:57:26.814Z</time></trkpt><trkpt lat="41.8793383" lon="13.0377367"><ele>635.5</ele><time>2026-04-11T12:57:27.812Z</time></trkpt><trkpt lat="41.87923" lon="13.037625"><ele>637.0</ele><time>2026-04-11T12:57:28.812Z</time></trkpt><trkpt lat="41.8791317" lon="13.0375467"><ele>638.5</ele><time>2026-04-11T12:57:29.817Z</time></trkpt><trkpt lat="41.8790317" lon="13.0375067"><ele>640.0</ele><time>2026-04-11T12:57:30.812Z</time></trkpt><trkpt lat="41.8789233" lon="13.0375067"><ele>640.0</ele><time>2026-04-11T12:57:31.813Z</time></trkpt><trkpt lat="41.8788217" lon="13.0375433"><ele>640.0</ele><time>2026-04-11T12:57:32.813Z</time></trkpt><trkpt lat="41.8787317" lon="13.0375583"><ele>640.0</ele><time>2026-04-11T12:57:33.813Z</time></trkpt><trkpt lat="41.87864" lon="13.0375467"><ele>640.0</ele><time>2026-04-11T12:57:34.813Z</time></trkpt><trkpt lat="41.8785517" lon="13.0374867"><ele>640.0</ele><time>2026-04-11T12:57:35.813Z</time></trkpt><trkpt lat="41.8784733" lon="13.037355"><ele>647.5</ele><time>2026-04-11T12:57:36.814Z</time></trkpt><trkpt lat="41.878385" lon="13.0372017"><ele>655.0</ele><time>2026-04-11T12:57:37.813Z</time></trkpt><trkpt lat="41.8782733" lon="13.0370767"><ele>662.5</ele><time>2026-04-11T12:57:38.813Z</time></trkpt><trkpt lat="41.8781533" lon="13.0369967"><ele>670.0</ele><time>2026-04-11T12:57:39.812Z</time></trkpt><trkpt lat="41.8780483" lon="13.0369667"><ele>670.0</ele><time>2026-04-11T12:57:40.814Z</time></trkpt><trkpt lat="41.8779417" lon="13.0369967"><ele>670.0</ele><time>2026-04-11T12:57:41.816Z</time></trkpt><trkpt lat="41.87784" lon="13.037085"><ele>670.0</ele><time>2026-04-11T12:57:42.813Z</time></trkpt><trkpt lat="41.877745" lon="13.03721"><ele>670.0</ele><time>2026-04-11T12:57:43.81Z</time></trkpt><trkpt lat="41.877665" lon="13.0373733"><ele>671.0</ele><time>2026-04-11T12:57:44.81Z</time></trkpt><trkpt lat="41.877615" lon="13.0375533"><ele>672.0</ele><time>2026-04-11T12:57:45.81Z</time></trkpt><trkpt lat="41.8775533" lon="13.0377267"><ele>673.0</ele><time>2026-04-11T12:57:46.812Z</time></trkpt><trkpt lat="41.8774783" lon="13.0379033"><ele>674.0</ele><time>2026-04-11T12:57:47.812Z</time></trkpt><trkpt lat="41.8774167" lon="13.0381"><ele>674.0</ele><time>2026-04-11T12:57:48.813Z</time></trkpt><trkpt lat="41.8773767" lon="13.0382983"><ele>674.0</ele><time>2026-04-11T12:57:49.813Z</time></trkpt><trkpt lat="41.8773467" lon="13.03849"><ele>674.0</ele><time>2026-04-11T12:57:50.812Z</time></trkpt><trkpt lat="41.87731" lon="13.03868"><ele>674.0</ele><time>2026-04-11T12:57:51.813Z</time></trkpt><trkpt lat="41.8772667" lon="13.0388717"><ele>671.4000000000001</ele><time>2026-04-11T12:57:52.813Z</time></trkpt><trkpt lat="41.8772267" lon="13.03905"><ele>668.8</ele><time>2026-04-11T12:57:53.814Z</time></trkpt><trkpt lat="41.877205" lon="13.039205"><ele>666.2</ele><time>2026-04-11T12:57:54.813Z</time></trkpt><trkpt lat="41.8771917" lon="13.0393183"><ele>663.5999999999999</ele><time>2026-04-11T12:57:55.813Z</time></trkpt><trkpt lat="41.87718" lon="13.0394017"><ele>661.0</ele><time>2026-04-11T12:57:56.813Z</time></trkpt><trkpt lat="41.8771133" lon="13.0394783"><ele>661.0</ele><time>2026-04-11T12:57:58.817Z</time></trkpt><trkpt lat="41.8770633" lon="13.0394133"><ele>661.0</ele><time>2026-04-11T12:57:59.813Z</time></trkpt><trkpt lat="41.8770283" lon="13.0393367"><ele>661.0</ele><time>2026-04-11T12:58:00.813Z</time></trkpt><trkpt lat="41.8770167" lon="13.03923"><ele>661.0</ele><time>2026-04-11T12:58:01.814Z</time></trkpt><trkpt lat="41.877025" lon="13.0390833"><ele>661.0</ele><time>2026-04-11T12:58:02.812Z</time></trkpt><trkpt lat="41.8770517" lon="13.0389"><ele>661.0</ele><time>2026-04-11T12:58:03.813Z</time></trkpt><trkpt lat="41.8770733" lon="13.0387117"><ele>661.0</ele><time>2026-04-11T12:58:04.813Z</time></trkpt><trkpt lat="41.8770883" lon="13.03852"><ele>661.0</ele><time>2026-04-11T12:58:05.813Z</time></trkpt><trkpt lat="41.8770817" lon="13.03832"><ele>661.0</ele><time>2026-04-11T12:58:06.814Z</time></trkpt><trkpt lat="41.8770833" lon="13.0381333"><ele>665.3333333333334</ele><time>2026-04-11T12:58:07.812Z</time></trkpt><trkpt lat="41.8771133" lon="13.03795"><ele>669.6666666666666</ele><time>2026-04-11T12:58:08.813Z</time></trkpt><trkpt lat="41.877185" lon="13.03776"><ele>674.0</ele><time>2026-04-11T12:58:09.812Z</time></trkpt><trkpt lat="41.8772633" lon="13.0375483"><ele>679.6666666666666</ele><time>2026-04-11T12:58:10.813Z</time></trkpt><trkpt lat="41.8773417" lon="13.0373167"><ele>685.3333333333334</ele><time>2026-04-11T12:58:11.813Z</time></trkpt><trkpt lat="41.8774" lon="13.0370883"><ele>691.0</ele><time>2026-04-11T12:58:12.814Z</time></trkpt><trkpt lat="41.87744" lon="13.0368933"><ele>691.0</ele><time>2026-04-11T12:58:13.813Z</time></trkpt><trkpt lat="41.877485" lon="13.036735"><ele>691.0</ele><time>2026-04-11T12:58:14.813Z</time></trkpt><trkpt lat="41.877565" lon="13.0365983"><ele>691.0</ele><time>2026-04-11T12:58:15.812Z</time></trkpt><trkpt lat="41.87766" lon="13.0364617"><ele>691.0</ele><time>2026-04-11T12:58:16.813Z</time></trkpt><trkpt lat="41.8777633" lon="13.0363183"><ele>691.0</ele><time>2026-04-11T12:58:17.814Z</time></trkpt><trkpt lat="41.8778733" lon="13.0361617"><ele>691.0</ele><time>2026-04-11T12:58:18.812Z</time></trkpt><trkpt lat="41.8779833" lon="13.0359983"><ele>691.0</ele><time>2026-04-11T12:58:19.812Z</time></trkpt><trkpt lat="41.878075" lon="13.0358433"><ele>690.8</ele><time>2026-04-11T12:58:20.813Z</time></trkpt><trkpt lat="41.8781317" lon="13.0357017"><ele>690.5999999999999</ele><time>2026-04-11T12:58:21.815Z</time></trkpt><trkpt lat="41.8781633" lon="13.0355783"><ele>690.4</ele><time>2026-04-11T12:58:22.812Z</time></trkpt><trkpt lat="41.8781783" lon="13.0354733"><ele>690.2</ele><time>2026-04-11T12:58:23.813Z</time></trkpt><trkpt lat="41.8781933" lon="13.0353367"><ele>690.0</ele><time>2026-04-11T12:58:25.813Z</time></trkpt><trkpt lat="41.8782017" lon="13.0352467"><ele>690.0</ele><time>2026-04-11T12:58:27.813Z</time></trkpt><trkpt lat="41.878235" lon="13.0351517"><ele>690.0</ele><time>2026-04-11T12:58:30.812Z</time></trkpt><trkpt lat="41.8782867" lon="13.035085"><ele>690.0</ele><time>2026-04-11T12:58:32.813Z</time></trkpt><trkpt lat="41.8783" lon="13.0349967"><ele>690.0</ele><time>2026-04-11T12:58:34.813Z</time></trkpt><trkpt lat="41.8783733" lon="13.0350767"><ele>690.0</ele><time>2026-04-11T13:12:37.772Z</time></trkpt><trkpt lat="41.878315" lon="13.0350383"><ele>690.0</ele><time>2026-04-11T13:12:38.812Z</time></trkpt><trkpt lat="41.878215" lon="13.035065"><ele>690.0</ele><time>2026-04-11T13:14:37.817Z</time></trkpt><trkpt lat="41.8781233" lon="13.0351"><ele>690.0</ele><time>2026-04-11T13:14:39.813Z</time></trkpt><trkpt lat="41.8780283" lon="13.035115"><ele>690.0</ele><time>2026-04-11T13:14:40.813Z</time></trkpt><trkpt lat="41.8779217" lon="13.0351367"><ele>690.0</ele><time>2026-04-11T13:14:41.811Z</time></trkpt><trkpt lat="41.8778133" lon="13.0351767"><ele>690.0</ele><time>2026-04-11T13:14:42.812Z</time></trkpt><trkpt lat="41.877705" lon="13.0352533"><ele>685.5</ele><time>2026-04-11T13:14:43.814Z</time></trkpt><trkpt lat="41.8775883" lon="13.0353683"><ele>681.0</ele><time>2026-04-11T13:14:44.812Z</time></trkpt><trkpt lat="41.877465" lon="13.0354933"><ele>676.5</ele><time>2026-04-11T13:14:45.814Z</time></trkpt><trkpt lat="41.8773417" lon="13.0355983"><ele>672.0</ele><time>2026-04-11T13:14:46.814Z</time></trkpt><trkpt lat="41.8772133" lon="13.0356767"><ele>672.0</ele><time>2026-04-11T13:14:47.813Z</time></trkpt><trkpt lat="41.877075" lon="13.03574"><ele>672.0</ele><time>2026-04-11T13:14:48.813Z</time></trkpt><trkpt lat="41.8769417" lon="13.0357817"><ele>672.0</ele><time>2026-04-11T13:14:49.813Z</time></trkpt><trkpt lat="41.876815" lon="13.0358083"><ele>672.0</ele><time>2026-04-11T13:14:50.813Z</time></trkpt><trkpt lat="41.8766867" lon="13.0358217"><ele>674.4000000000001</ele><time>2026-04-11T13:14:51.81Z</time></trkpt><trkpt lat="41.8765717" lon="13.0358233"><ele>676.8000000000001</ele><time>2026-04-11T13:14:52.813Z</time></trkpt><trkpt lat="41.8764767" lon="13.0358167"><ele>679.2</ele><time>2026-04-11T13:14:53.813Z</time></trkpt><trkpt lat="41.8763767" lon="13.0358"><ele>681.6</ele><time>2026-04-11T13:14:54.813Z</time></trkpt><trkpt lat="41.8762783" lon="13.0357683"><ele>684.0</ele><time>2026-04-11T13:14:55.814Z</time></trkpt><trkpt lat="41.876175" lon="13.0357233"><ele>678.5</ele><time>2026-04-11T13:14:56.815Z</time></trkpt><trkpt lat="41.8760683" lon="13.0356567"><ele>673.0</ele><time>2026-04-11T13:14:57.814Z</time></trkpt><trkpt lat="41.8759683" lon="13.0355633"><ele>667.5</ele><time>2026-04-11T13:14:58.811Z</time></trkpt><trkpt lat="41.87587" lon="13.0354433"><ele>662.0</ele><time>2026-04-11T13:14:59.811Z</time></trkpt><trkpt lat="41.8757783" lon="13.0353117"><ele>662.0</ele><time>2026-04-11T13:15:00.81Z</time></trkpt><trkpt lat="41.875685" lon="13.0351917"><ele>662.0</ele><time>2026-04-11T13:15:01.811Z</time></trkpt><trkpt lat="41.87559" lon="13.0350967"><ele>662.0</ele><time>2026-04-11T13:15:02.81Z</time></trkpt><trkpt lat="41.8755" lon="13.0350217"><ele>662.0</ele><time>2026-04-11T13:15:03.814Z</time></trkpt><trkpt lat="41.8754133" lon="13.0349733"><ele>662.0</ele><time>2026-04-11T13:15:04.813Z</time></trkpt><trkpt lat="41.8753283" lon="13.03495"><ele>662.0</ele><time>2026-04-11T13:15:05.811Z</time></trkpt><trkpt lat="41.875255" lon="13.0349817"><ele>662.0</ele><time>2026-04-11T13:15:06.809Z</time></trkpt><trkpt lat="41.87518" lon="13.035055"><ele>662.0</ele><time>2026-04-11T13:15:07.81Z</time></trkpt><trkpt lat="41.8751133" lon="13.0351833"><ele>662.0</ele><time>2026-04-11T13:15:08.813Z</time></trkpt><trkpt lat="41.8750717" lon="13.0353683"><ele>662.0</ele><time>2026-04-11T13:15:09.814Z</time></trkpt><trkpt lat="41.8750417" lon="13.035535"><ele>662.8333333333333</ele><time>2026-04-11T13:15:10.814Z</time></trkpt><trkpt lat="41.8750183" lon="13.0356817"><ele>663.6666666666666</ele><time>2026-04-11T13:15:11.817Z</time></trkpt><trkpt lat="41.87499" lon="13.0358033"><ele>664.5</ele><time>2026-04-11T13:15:12.814Z</time></trkpt><trkpt lat="41.8749417" lon="13.035895"><ele>665.3333333333334</ele><time>2026-04-11T13:15:13.814Z</time></trkpt><trkpt lat="41.874875" lon="13.035945"><ele>666.1666666666667</ele><time>2026-04-11T13:15:14.814Z</time></trkpt><trkpt lat="41.8747967" lon="13.0359583"><ele>667.0</ele><time>2026-04-11T13:15:15.815Z</time></trkpt><trkpt lat="41.8747033" lon="13.035915"><ele>667.0</ele><time>2026-04-11T13:15:16.813Z</time></trkpt><trkpt lat="41.8746017" lon="13.035835"><ele>667.0</ele><time>2026-04-11T13:15:17.813Z</time></trkpt><trkpt lat="41.8744583" lon="13.0356917"><ele>667.0</ele><time>2026-04-11T13:15:18.81Z</time></trkpt><trkpt lat="41.8743333" lon="13.0355683"><ele>662.5</ele><time>2026-04-11T13:15:19.811Z</time></trkpt><trkpt lat="41.8742183" lon="13.0354283"><ele>658.0</ele><time>2026-04-11T13:15:20.81Z</time></trkpt><trkpt lat="41.87412" lon="13.03532"><ele>653.5</ele><time>2026-04-11T13:15:21.81Z</time></trkpt><trkpt lat="41.8740367" lon="13.0352383"><ele>649.0</ele><time>2026-04-11T13:15:22.81Z</time></trkpt><trkpt lat="41.8739517" lon="13.035185"><ele>649.0</ele><time>2026-04-11T13:15:23.81Z</time></trkpt><trkpt lat="41.8738633" lon="13.03516"><ele>649.0</ele><time>2026-04-11T13:15:24.81Z</time></trkpt><trkpt lat="41.8737633" lon="13.03519"><ele>649.0</ele><time>2026-04-11T13:15:25.81Z</time></trkpt><trkpt lat="41.8736617" lon="13.0352217"><ele>649.0</ele><time>2026-04-11T13:15:26.81Z</time></trkpt><trkpt lat="41.8735333" lon="13.0352633"><ele>649.0</ele><time>2026-04-11T13:15:27.81Z</time></trkpt><trkpt lat="41.8734017" lon="13.0353"><ele>647.0</ele><time>2026-04-11T13:15:28.81Z</time></trkpt><trkpt lat="41.873285" lon="13.0353367"><ele>645.0</ele><time>2026-04-11T13:15:29.813Z</time></trkpt><trkpt lat="41.8731717" lon="13.0354017"><ele>643.0</ele><time>2026-04-11T13:15:30.811Z</time></trkpt><trkpt lat="41.8730583" lon="13.0354917"><ele>641.0</ele><time>2026-04-11T13:15:31.813Z</time></trkpt><trkpt lat="41.872955" lon="13.035625"><ele>641.0</ele><time>2026-04-11T13:15:32.813Z</time></trkpt><trkpt lat="41.87286" lon="13.0357683"><ele>641.0</ele><time>2026-04-11T13:15:33.813Z</time></trkpt><trkpt lat="41.8727583" lon="13.035875"><ele>641.0</ele><time>2026-04-11T13:15:34.814Z</time></trkpt><trkpt lat="41.872645" lon="13.0359383"><ele>641.0</ele><time>2026-04-11T13:15:35.814Z</time></trkpt><trkpt lat="41.8725267" lon="13.0359917"><ele>641.5</ele><time>2026-04-11T13:15:36.813Z</time></trkpt><trkpt lat="41.8724083" lon="13.0360717"><ele>642.0</ele><time>2026-04-11T13:15:37.809Z</time></trkpt><trkpt lat="41.8723067" lon="13.03616"><ele>642.5</ele><time>2026-04-11T13:15:38.812Z</time></trkpt><trkpt lat="41.87223" lon="13.0362717"><ele>643.0</ele><time>2026-04-11T13:15:39.81Z</time></trkpt><trkpt lat="41.8721683" lon="13.0363983"><ele>643.0</ele><time>2026-04-11T13:15:40.814Z</time></trkpt><trkpt lat="41.87214" lon="13.03656"><ele>643.0</ele><time>2026-04-11T13:15:41.814Z</time></trkpt><trkpt lat="41.8721417" lon="13.0367433"><ele>643.0</ele><time>2026-04-11T13:15:42.814Z</time></trkpt><trkpt lat="41.8721483" lon="13.036915"><ele>643.0</ele><time>2026-04-11T13:15:43.81Z</time></trkpt><trkpt lat="41.8721783" lon="13.0370767"><ele>645.1666666666667</ele><time>2026-04-11T13:15:44.811Z</time></trkpt><trkpt lat="41.8721817" lon="13.0372233"><ele>647.3333333333334</ele><time>2026-04-11T13:15:45.814Z</time></trkpt><trkpt lat="41.87217" lon="13.0373467"><ele>649.5</ele><time>2026-04-11T13:15:46.813Z</time></trkpt><trkpt lat="41.872145" lon="13.037445"><ele>651.6666666666666</ele><time>2026-04-11T13:15:47.809Z</time></trkpt><trkpt lat="41.872115" lon="13.03752"><ele>653.8333333333333</ele><time>2026-04-11T13:15:48.811Z</time></trkpt><trkpt lat="41.8720217" lon="13.0375667"><ele>656.0</ele><time>2026-04-11T13:15:50.813Z</time></trkpt><trkpt lat="41.87196" lon="13.0375183"><ele>656.0</ele><time>2026-04-11T13:15:51.813Z</time></trkpt><trkpt lat="41.8718867" lon="13.0374133"><ele>656.0</ele><time>2026-04-11T13:15:52.813Z</time></trkpt><trkpt lat="41.8717483" lon="13.03723"><ele>656.0</ele><time>2026-04-11T13:15:53.812Z</time></trkpt><trkpt lat="41.87166" lon="13.0370217"><ele>649.6666666666666</ele><time>2026-04-11T13:15:54.812Z</time></trkpt><trkpt lat="41.8715533" lon="13.0368"><ele>643.3333333333334</ele><time>2026-04-11T13:15:55.812Z</time></trkpt><trkpt lat="41.87146" lon="13.0365867"><ele>637.0</ele><time>2026-04-11T13:15:56.812Z</time></trkpt><trkpt lat="41.8713817" lon="13.036395"><ele>631.0</ele><time>2026-04-11T13:15:57.814Z</time></trkpt><trkpt lat="41.8713083" lon="13.03623"><ele>625.0</ele><time>2026-04-11T13:15:58.811Z</time></trkpt><trkpt lat="41.871235" lon="13.0360933"><ele>619.0</ele><time>2026-04-11T13:15:59.811Z</time></trkpt><trkpt lat="41.8711333" lon="13.0359817"><ele>613.0</ele><time>2026-04-11T13:16:00.811Z</time></trkpt><trkpt lat="41.8710133" lon="13.0358933"><ele>614.6666666666667</ele><time>2026-04-11T13:16:01.813Z</time></trkpt><trkpt lat="41.8708617" lon="13.0358267"><ele>616.3333333333334</ele><time>2026-04-11T13:16:02.813Z</time></trkpt><trkpt lat="41.8706867" lon="13.0358"><ele>618.0</ele><time>2026-04-11T13:16:03.812Z</time></trkpt><trkpt lat="41.87052" lon="13.0358017"><ele>618.0</ele><time>2026-04-11T13:16:04.814Z</time></trkpt><trkpt lat="41.87036" lon="13.035845"><ele>618.0</ele><time>2026-04-11T13:16:05.81Z</time></trkpt><trkpt lat="41.8702167" lon="13.0358983"><ele>618.0</ele><time>2026-04-11T13:16:06.812Z</time></trkpt><trkpt lat="41.870095" lon="13.0359183"><ele>618.0</ele><time>2026-04-11T13:16:07.814Z</time></trkpt><trkpt lat="41.8699933" lon="13.0359017"><ele>618.0</ele><time>2026-04-11T13:16:08.814Z</time></trkpt><trkpt lat="41.8699083" lon="13.0358217"><ele>618.0</ele><time>2026-04-11T13:16:09.812Z</time></trkpt><trkpt lat="41.8698617" lon="13.0356933"><ele>618.0</ele><time>2026-04-11T13:16:10.813Z</time></trkpt><trkpt lat="41.8698317" lon="13.0355267"><ele>618.0</ele><time>2026-04-11T13:16:11.813Z</time></trkpt><trkpt lat="41.8698083" lon="13.0353417"><ele>614.0</ele><time>2026-04-11T13:16:12.813Z</time></trkpt><trkpt lat="41.86978" lon="13.03515"><ele>610.0</ele><time>2026-04-11T13:16:13.813Z</time></trkpt><trkpt lat="41.86975" lon="13.03495"><ele>606.0</ele><time>2026-04-11T13:16:14.816Z</time></trkpt><trkpt lat="41.8697217" lon="13.0347467"><ele>605.25</ele><time>2026-04-11T13:16:15.813Z</time></trkpt><trkpt lat="41.8696883" lon="13.03455"><ele>604.5</ele><time>2026-04-11T13:16:16.814Z</time></trkpt><trkpt lat="41.869655" lon="13.0343617"><ele>603.75</ele><time>2026-04-11T13:16:17.813Z</time></trkpt><trkpt lat="41.8696133" lon="13.0341917"><ele>603.0</ele><time>2026-04-11T13:16:18.811Z</time></trkpt><trkpt lat="41.8695533" lon="13.034045"><ele>604.3333333333334</ele><time>2026-04-11T13:16:19.816Z</time></trkpt><trkpt lat="41.869465" lon="13.03392"><ele>605.6666666666667</ele><time>2026-04-11T13:16:20.812Z</time></trkpt><trkpt lat="41.8693333" lon="13.0338167"><ele>607.0</ele><time>2026-04-11T13:16:21.813Z</time></trkpt><trkpt lat="41.8691733" lon="13.033725"><ele>607.0</ele><time>2026-04-11T13:16:22.811Z</time></trkpt><trkpt lat="41.8690133" lon="13.0336417"><ele>607.0</ele><time>2026-04-11T13:16:23.81Z</time></trkpt><trkpt lat="41.8688783" lon="13.03357"><ele>607.0</ele><time>2026-04-11T13:16:24.81Z</time></trkpt><trkpt lat="41.8687667" lon="13.0335017"><ele>607.0</ele><time>2026-04-11T13:16:25.811Z</time></trkpt><trkpt lat="41.868685" lon="13.0334067"><ele>605.75</ele><time>2026-04-11T13:16:26.813Z</time></trkpt><trkpt lat="41.8686183" lon="13.033275"><ele>604.5</ele><time>2026-04-11T13:16:27.81Z</time></trkpt><trkpt lat="41.8685433" lon="13.03312"><ele>603.25</ele><time>2026-04-11T13:16:28.811Z</time></trkpt><trkpt lat="41.8684517" lon="13.032985"><ele>602.0</ele><time>2026-04-11T13:16:29.813Z</time></trkpt><trkpt lat="41.868345" lon="13.032875"><ele>602.0</ele><time>2026-04-11T13:16:30.814Z</time></trkpt><trkpt lat="41.868215" lon="13.0327933"><ele>602.0</ele><time>2026-04-11T13:16:31.813Z</time></trkpt><trkpt lat="41.86806" lon="13.032755"><ele>602.0</ele><time>2026-04-11T13:16:32.814Z</time></trkpt><trkpt lat="41.8678833" lon="13.0327483"><ele>602.0</ele><time>2026-04-11T13:16:33.814Z</time></trkpt><trkpt lat="41.86771" lon="13.0327517"><ele>602.0</ele><time>2026-04-11T13:16:34.814Z</time></trkpt><trkpt lat="41.867535" lon="13.0327683"><ele>602.0</ele><time>2026-04-11T13:16:35.813Z</time></trkpt><trkpt lat="41.867365" lon="13.0328"><ele>601.6666666666666</ele><time>2026-04-11T13:16:36.813Z</time></trkpt><trkpt lat="41.867205" lon="13.032825"><ele>601.3333333333334</ele><time>2026-04-11T13:16:37.814Z</time></trkpt><trkpt lat="41.86705" lon="13.0328267"><ele>601.0</ele><time>2026-04-11T13:16:38.813Z</time></trkpt><trkpt lat="41.8668967" lon="13.0327967"><ele>597.0</ele><time>2026-04-11T13:16:39.813Z</time></trkpt><trkpt lat="41.8667467" lon="13.0327417"><ele>593.0</ele><time>2026-04-11T13:16:40.814Z</time></trkpt><trkpt lat="41.8665983" lon="13.03269"><ele>589.0</ele><time>2026-04-11T13:16:41.809Z</time></trkpt><trkpt lat="41.8664567" lon="13.032645"><ele>589.0</ele><time>2026-04-11T13:16:42.809Z</time></trkpt><trkpt lat="41.8663183" lon="13.0326217"><ele>589.0</ele><time>2026-04-11T13:16:43.81Z</time></trkpt><trkpt lat="41.8661833" lon="13.032625"><ele>589.0</ele><time>2026-04-11T13:16:44.813Z</time></trkpt><trkpt lat="41.8660517" lon="13.0326417"><ele>589.0</ele><time>2026-04-11T13:16:45.812Z</time></trkpt><trkpt lat="41.865925" lon="13.0326433"><ele>585.75</ele><time>2026-04-11T13:16:46.81Z</time></trkpt><trkpt lat="41.8658" lon="13.03265"><ele>582.5</ele><time>2026-04-11T13:16:47.811Z</time></trkpt><trkpt lat="41.86568" lon="13.0326117"><ele>579.25</ele><time>2026-04-11T13:16:48.809Z</time></trkpt><trkpt lat="41.86557" lon="13.0325383"><ele>576.0</ele><time>2026-04-11T13:16:49.811Z</time></trkpt><trkpt lat="41.86547" lon="13.032445"><ele>575.6</ele><time>2026-04-11T13:16:50.81Z</time></trkpt><trkpt lat="41.8653767" lon="13.0323467"><ele>575.2</ele><time>2026-04-11T13:16:51.81Z</time></trkpt><trkpt lat="41.8652867" lon="13.0322667"><ele>574.8</ele><time>2026-04-11T13:16:52.811Z</time></trkpt><trkpt lat="41.8652" lon="13.0322033"><ele>574.4</ele><time>2026-04-11T13:16:53.811Z</time></trkpt><trkpt lat="41.8651117" lon="13.032165"><ele>574.0</ele><time>2026-04-11T13:16:54.813Z</time></trkpt><trkpt lat="41.865025" lon="13.03214"><ele>571.4</ele><time>2026-04-11T13:16:55.81Z</time></trkpt><trkpt lat="41.8649417" lon="13.0321783"><ele>568.8</ele><time>2026-04-11T13:16:56.81Z</time></trkpt><trkpt lat="41.8648833" lon="13.032255"><ele>566.2</ele><time>2026-04-11T13:16:57.811Z</time></trkpt><trkpt lat="41.86487" lon="13.0323633"><ele>563.6</ele><time>2026-04-11T13:16:58.812Z</time></trkpt><trkpt lat="41.8649433" lon="13.032495"><ele>561.0</ele><time>2026-04-11T13:16:59.81Z</time></trkpt><trkpt lat="41.8650067" lon="13.0326117"><ele>561.0</ele><time>2026-04-11T13:17:00.81Z</time></trkpt><trkpt lat="41.8650933" lon="13.032725"><ele>561.0</ele><time>2026-04-11T13:17:01.811Z</time></trkpt><trkpt lat="41.8651817" lon="13.032845"><ele>561.0</ele><time>2026-04-11T13:17:02.811Z</time></trkpt><trkpt lat="41.865275" lon="13.0329667"><ele>561.0</ele><time>2026-04-11T13:17:03.81Z</time></trkpt><trkpt lat="41.865365" lon="13.0330883"><ele>560.25</ele><time>2026-04-11T13:17:04.811Z</time></trkpt><trkpt lat="41.8654533" lon="13.0332017"><ele>559.5</ele><time>2026-04-11T13:17:05.812Z</time></trkpt><trkpt lat="41.8655467" lon="13.0333033"><ele>558.75</ele><time>2026-04-11T13:17:06.809Z</time></trkpt><trkpt lat="41.8656467" lon="13.033385"><ele>558.0</ele><time>2026-04-11T13:17:07.811Z</time></trkpt><trkpt lat="41.86576" lon="13.0334333"><ele>558.0</ele><time>2026-04-11T13:17:08.81Z</time></trkpt><trkpt lat="41.8658783" lon="13.0334817"><ele>558.0</ele><time>2026-04-11T13:17:09.811Z</time></trkpt><trkpt lat="41.8659933" lon="13.033545"><ele>558.0</ele><time>2026-04-11T13:17:10.811Z</time></trkpt><trkpt lat="41.866105" lon="13.0336183"><ele>558.0</ele><time>2026-04-11T13:17:11.81Z</time></trkpt><trkpt lat="41.8662133" lon="13.0337017"><ele>560.25</ele><time>2026-04-11T13:17:12.81Z</time></trkpt><trkpt lat="41.8663217" lon="13.033785"><ele>562.5</ele><time>2026-04-11T13:17:13.81Z</time></trkpt><trkpt lat="41.866425" lon="13.0338733"><ele>564.75</ele><time>2026-04-11T13:17:14.811Z</time></trkpt><trkpt lat="41.866525" lon="13.0339583"><ele>567.0</ele><time>2026-04-11T13:17:15.811Z</time></trkpt><trkpt lat="41.8666167" lon="13.03405"><ele>566.4</ele><time>2026-04-11T13:17:16.809Z</time></trkpt><trkpt lat="41.866705" lon="13.0341417"><ele>565.8000000000001</ele><time>2026-04-11T13:17:17.811Z</time></trkpt><trkpt lat="41.8667883" lon="13.03424"><ele>565.2</ele><time>2026-04-11T13:17:18.81Z</time></trkpt><trkpt lat="41.8668633" lon="13.0343333"><ele>564.6</ele><time>2026-04-11T13:17:19.811Z</time></trkpt><trkpt lat="41.86692" lon="13.0344317"><ele>564.0</ele><time>2026-04-11T13:17:20.812Z</time></trkpt><trkpt lat="41.8669583" lon="13.0345283"><ele>564.0</ele><time>2026-04-11T13:17:21.81Z</time></trkpt><trkpt lat="41.8669717" lon="13.03462"><ele>564.0</ele><time>2026-04-11T13:17:22.809Z</time></trkpt><trkpt lat="41.866895" lon="13.0347567"><ele>564.0</ele><time>2026-04-11T13:17:24.811Z</time></trkpt><trkpt lat="41.86679" lon="13.034795"><ele>564.0</ele><time>2026-04-11T13:17:25.813Z</time></trkpt><trkpt lat="41.8666733" lon="13.0348367"><ele>564.0</ele><time>2026-04-11T13:17:26.814Z</time></trkpt><trkpt lat="41.866515" lon="13.034865"><ele>562.0</ele><time>2026-04-11T13:17:27.814Z</time></trkpt><trkpt lat="41.8663717" lon="13.0349067"><ele>560.0</ele><time>2026-04-11T13:17:28.813Z</time></trkpt><trkpt lat="41.8662217" lon="13.0349683"><ele>558.0</ele><time>2026-04-11T13:17:29.813Z</time></trkpt><trkpt lat="41.8660767" lon="13.0350483"><ele>558.0</ele><time>2026-04-11T13:17:30.812Z</time></trkpt><trkpt lat="41.8659583" lon="13.0351533"><ele>558.0</ele><time>2026-04-11T13:17:31.814Z</time></trkpt><trkpt lat="41.8658717" lon="13.03529"><ele>558.0</ele><time>2026-04-11T13:17:32.814Z</time></trkpt><trkpt lat="41.865805" lon="13.0354283"><ele>558.0</ele><time>2026-04-11T13:17:33.813Z</time></trkpt><trkpt lat="41.8657383" lon="13.0355417"><ele>554.0</ele><time>2026-04-11T13:17:34.815Z</time></trkpt><trkpt lat="41.8656533" lon="13.0356133"><ele>550.0</ele><time>2026-04-11T13:17:35.814Z</time></trkpt><trkpt lat="41.8655567" lon="13.03563"><ele>546.0</ele><time>2026-04-11T13:17:36.813Z</time></trkpt><trkpt lat="41.8654533" lon="13.0356017"><ele>542.0</ele><time>2026-04-11T13:17:37.81Z</time></trkpt><trkpt lat="41.8653383" lon="13.0355417"><ele>538.0</ele><time>2026-04-11T13:17:38.814Z</time></trkpt><trkpt lat="41.8652117" lon="13.03549"><ele>536.5</ele><time>2026-04-11T13:17:39.813Z</time></trkpt><trkpt lat="41.86508" lon="13.0354633"><ele>535.0</ele><time>2026-04-11T13:17:40.81Z</time></trkpt><trkpt lat="41.8649467" lon="13.03545"><ele>533.5</ele><time>2026-04-11T13:17:41.813Z</time></trkpt><trkpt lat="41.8648117" lon="13.03544"><ele>532.0</ele><time>2026-04-11T13:17:42.814Z</time></trkpt><trkpt lat="41.86468" lon="13.0354317"><ele>532.0</ele><time>2026-04-11T13:17:43.812Z</time></trkpt><trkpt lat="41.8645533" lon="13.0354217"><ele>532.0</ele><time>2026-04-11T13:17:44.811Z</time></trkpt><trkpt lat="41.8644433" lon="13.0354167"><ele>532.0</ele><time>2026-04-11T13:17:45.813Z</time></trkpt><trkpt lat="41.8643483" lon="13.0354233"><ele>532.0</ele><time>2026-04-11T13:17:46.813Z</time></trkpt><trkpt lat="41.8642717" lon="13.0354433"><ele>532.0</ele><time>2026-04-11T13:17:47.81Z</time></trkpt><trkpt lat="41.8642117" lon="13.03547"><ele>530.5</ele><time>2026-04-11T13:17:48.81Z</time></trkpt><trkpt lat="41.86415" lon="13.0355117"><ele>529.0</ele><time>2026-04-11T13:17:50.811Z</time></trkpt><trkpt lat="41.8640733" lon="13.035475"><ele>527.5</ele><time>2026-04-11T13:17:57.814Z</time></trkpt><trkpt lat="41.8640083" lon="13.0355"><ele>526.0</ele><time>2026-04-11T13:18:00.814Z</time></trkpt><trkpt lat="41.8640433" lon="13.0355783"><ele>524.5</ele><time>2026-04-11T13:19:55.814Z</time></trkpt><trkpt lat="41.8639067" lon="13.0356"><ele>523.0</ele><time>2026-04-11T13:20:40.813Z</time></trkpt><trkpt lat="41.86389" lon="13.035695"><ele>523.0</ele><time>2026-04-11T13:21:46.812Z</time></trkpt><trkpt lat="41.86393" lon="13.0356233"><ele>523.0</ele><time>2026-04-11T13:22:17.812Z</time></trkpt><trkpt lat="41.8638483" lon="13.0355617"><ele>523.0</ele><time>2026-04-11T13:23:26.813Z</time></trkpt><trkpt lat="41.8639717" lon="13.0355767"><ele>523.0</ele><time>2026-04-11T13:23:53.813Z</time></trkpt><trkpt lat="41.8639933" lon="13.0356567"><ele>523.0</ele><time>2026-04-11T13:23:54.813Z</time></trkpt><trkpt lat="41.8640117" lon="13.035745"><ele>523.0</ele><time>2026-04-11T13:23:57.813Z</time></trkpt><trkpt lat="41.8639417" lon="13.035765"><ele>523.0</ele><time>2026-04-11T13:24:01.818Z</time></trkpt><trkpt lat="41.86388" lon="13.03579"><ele>523.0</ele><time>2026-04-11T13:24:04.813Z</time></trkpt><trkpt lat="41.8638133" lon="13.0357483"><ele>523.0</ele><time>2026-04-11T13:24:08.811Z</time></trkpt><trkpt lat="41.863735" lon="13.0357233"><ele>523.0</ele><time>2026-04-11T13:24:11.812Z</time></trkpt><trkpt lat="41.863765" lon="13.0356367"><ele>523.0</ele><time>2026-04-11T13:24:22.812Z</time></trkpt><trkpt lat="41.8638733" lon="13.035665"><ele>523.0</ele><time>2026-04-11T13:24:44.814Z</time></trkpt><trkpt lat="41.8639283" lon="13.0357217"><ele>523.0</ele><time>2026-04-11T13:24:50.814Z</time></trkpt><trkpt lat="41.8639383" lon="13.0358317"><ele>523.0</ele><time>2026-04-11T13:24:54.814Z</time></trkpt><trkpt lat="41.8639383" lon="13.0359183"><ele>523.0</ele><time>2026-04-11T13:24:57.813Z</time></trkpt><trkpt lat="41.86388" lon="13.0358767"><ele>523.0</ele><time>2026-04-11T13:25:10.813Z</time></trkpt><trkpt lat="41.8638167" lon="13.0357833"><ele>523.0</ele><time>2026-04-11T13:25:12.811Z</time></trkpt><trkpt lat="41.8637467" lon="13.0357633"><ele>523.0</ele><time>2026-04-11T13:25:18.813Z</time></trkpt><trkpt lat="41.863825" lon="13.0357133"><ele>523.0</ele><time>2026-04-11T13:26:18.814Z</time></trkpt><trkpt lat="41.8639183" lon="13.035675"><ele>523.0</ele><time>2026-04-11T13:26:20.812Z</time></trkpt><trkpt lat="41.8639233" lon="13.0355833"><ele>523.0</ele><time>2026-04-11T13:26:28.813Z</time></trkpt><trkpt lat="41.86382" lon="13.035485"><ele>523.0</ele><time>2026-04-11T13:26:40.81Z</time></trkpt><trkpt lat="41.8638033" lon="13.0355667"><ele>523.0</ele><time>2026-04-11T13:26:44.811Z</time></trkpt><trkpt lat="41.863855" lon="13.0354467"><ele>523.0</ele><time>2026-04-11T13:26:57.812Z</time></trkpt><trkpt lat="41.86388" lon="13.0351717"><ele>523.0</ele><time>2026-04-11T13:27:03.812Z</time></trkpt><trkpt lat="41.8638733" lon="13.035295"><ele>523.0</ele><time>2026-04-11T13:27:14.812Z</time></trkpt><trkpt lat="41.863945" lon="13.0353983"><ele>523.0</ele><time>2026-04-11T13:27:25.814Z</time></trkpt><trkpt lat="41.8640417" lon="13.03557"><ele>523.0</ele><time>2026-04-11T13:28:06.814Z</time></trkpt><trkpt lat="41.86395" lon="13.0356817"><ele>523.0</ele><time>2026-04-11T13:28:20.812Z</time></trkpt><trkpt lat="41.86401" lon="13.035655"><ele>523.0</ele><time>2026-04-11T13:28:29.811Z</time></trkpt><trkpt lat="41.8640717" lon="13.035615"><ele>523.0</ele><time>2026-04-11T13:28:31.811Z</time></trkpt><trkpt lat="41.8641317" lon="13.0355433"><ele>523.0</ele><time>2026-04-11T13:28:38.81Z</time></trkpt><trkpt lat="41.8641533" lon="13.03546"><ele>523.0</ele><time>2026-04-11T13:28:41.809Z</time></trkpt><trkpt lat="41.8641067" lon="13.0355217"><ele>523.0</ele><time>2026-04-11T13:29:39.812Z</time></trkpt><trkpt lat="41.8641033" lon="13.0356233"><ele>523.0</ele><time>2026-04-11T13:29:44.814Z</time></trkpt><trkpt lat="41.864145" lon="13.0357017"><ele>523.0</ele><time>2026-04-11T13:29:56.812Z</time></trkpt><trkpt lat="41.86413" lon="13.0357917"><ele>523.0</ele><time>2026-04-11T13:30:02.814Z</time></trkpt><trkpt lat="41.8640817" lon="13.0358583"><ele>523.0</ele><time>2026-04-11T13:30:09.81Z</time></trkpt><trkpt lat="41.864065" lon="13.0357167"><ele>523.0</ele><time>2026-04-11T13:30:30.811Z</time></trkpt><trkpt lat="41.8640067" lon="13.0356"><ele>523.0</ele><time>2026-04-11T13:31:01.813Z</time></trkpt><trkpt lat="41.8636883" lon="13.0357333"><ele>523.0</ele><time>2026-04-11T13:31:09.662Z</time></trkpt><trkpt lat="41.8637667" lon="13.0357017"><ele>523.0</ele><time>2026-04-11T13:31:22.812Z</time></trkpt><trkpt lat="41.86384" lon="13.0356417"><ele>523.0</ele><time>2026-04-11T13:31:26.812Z</time></trkpt><trkpt lat="41.86394" lon="13.0356217"><ele>523.0</ele><time>2026-04-11T13:31:35.812Z</time></trkpt><trkpt lat="41.864005" lon="13.03565"><ele>523.0</ele><time>2026-04-11T13:31:42.81Z</time></trkpt><trkpt lat="41.8640817" lon="13.0356767"><ele>523.0</ele><time>2026-04-11T13:31:48.812Z</time></trkpt><trkpt lat="41.8640783" lon="13.0355833"><ele>523.0</ele><time>2026-04-11T13:31:58.813Z</time></trkpt><trkpt lat="41.86408" lon="13.0354767"><ele>523.0</ele><time>2026-04-11T13:32:00.811Z</time></trkpt><trkpt lat="41.86403" lon="13.03533"><ele>523.0</ele><time>2026-04-11T13:32:03.811Z</time></trkpt><trkpt lat="41.8640683" lon="13.03518"><ele>523.0</ele><time>2026-04-11T13:32:04.811Z</time></trkpt><trkpt lat="41.86404" lon="13.0349983"><ele>523.0</ele><time>2026-04-11T13:32:06.81Z</time></trkpt><trkpt lat="41.8640467" lon="13.0348133"><ele>523.0</ele><time>2026-04-11T13:32:07.812Z</time></trkpt><trkpt lat="41.8640933" lon="13.0349433"><ele>523.0</ele><time>2026-04-11T13:32:11.81Z</time></trkpt><trkpt lat="41.8640917" lon="13.0350817"><ele>523.0</ele><time>2026-04-11T13:32:13.812Z</time></trkpt><trkpt lat="41.8641183" lon="13.0352017"><ele>523.0</ele><time>2026-04-11T13:32:24.812Z</time></trkpt><trkpt lat="41.8641083" lon="13.0351"><ele>523.0</ele><time>2026-04-11T13:32:31.811Z</time></trkpt><trkpt lat="41.86415" lon="13.035005"><ele>523.0</ele><time>2026-04-11T13:32:35.813Z</time></trkpt><trkpt lat="41.8641817" lon="13.0351883"><ele>523.0</ele><time>2026-04-11T13:32:48.814Z</time></trkpt><trkpt lat="41.86418" lon="13.03528"><ele>523.0</ele><time>2026-04-11T13:32:51.812Z</time></trkpt><trkpt lat="41.8641583" lon="13.0354317"><ele>523.0</ele><time>2026-04-11T13:32:54.813Z</time></trkpt><trkpt lat="41.864125" lon="13.03551"><ele>523.0</ele><time>2026-04-11T13:32:56.813Z</time></trkpt><trkpt lat="41.86411" lon="13.0355983"><ele>523.0</ele><time>2026-04-11T13:32:59.813Z</time></trkpt><trkpt lat="41.8640933" lon="13.0356817"><ele>523.0</ele><time>2026-04-11T13:33:02.811Z</time></trkpt><trkpt lat="41.8640317" lon="13.0355983"><ele>523.0</ele><time>2026-04-11T13:33:04.812Z</time></trkpt><trkpt lat="41.863815" lon="13.0354433"><ele>523.0</ele><time>2026-04-11T13:39:57.276Z</time></trkpt><trkpt lat="41.8638667" lon="13.0354917"><ele>523.0</ele><time>2026-04-11T13:40:14.81Z</time></trkpt><trkpt lat="41.8639317" lon="13.0355267"><ele>523.0</ele><time>2026-04-11T13:40:34.81Z</time></trkpt><trkpt lat="41.8640083" lon="13.0354783"><ele>523.0</ele><time>2026-04-11T13:41:37.814Z</time></trkpt><trkpt lat="41.8639617" lon="13.035575"><ele>523.0</ele><time>2026-04-11T13:41:48.81Z</time></trkpt><trkpt lat="41.86391" lon="13.0356517"><ele>523.0</ele><time>2026-04-11T13:41:50.811Z</time></trkpt><trkpt lat="41.8638433" lon="13.0357217"><ele>523.0</ele><time>2026-04-11T13:41:52.811Z</time></trkpt><trkpt lat="41.8637617" lon="13.0357617"><ele>523.0</ele><time>2026-04-11T13:41:54.81Z</time></trkpt><trkpt lat="41.86366" lon="13.03574"><ele>523.0</ele><time>2026-04-11T13:41:56.81Z</time></trkpt><trkpt lat="41.8635433" lon="13.0356717"><ele>523.0</ele><time>2026-04-11T13:41:58.811Z</time></trkpt><trkpt lat="41.8634783" lon="13.035635"><ele>523.0</ele><time>2026-04-11T13:41:59.81Z</time></trkpt><trkpt lat="41.86342" lon="13.0356017"><ele>523.0</ele><time>2026-04-11T13:42:00.81Z</time></trkpt><trkpt lat="41.8633083" lon="13.0355367"><ele>523.0</ele><time>2026-04-11T13:42:02.811Z</time></trkpt><trkpt lat="41.863245" lon="13.0355"><ele>523.0</ele><time>2026-04-11T13:42:03.81Z</time></trkpt><trkpt lat="41.8631883" lon="13.0354583"><ele>523.0</ele><time>2026-04-11T13:42:04.811Z</time></trkpt><trkpt lat="41.86313" lon="13.03542"><ele>523.5</ele><time>2026-04-11T13:42:05.81Z</time></trkpt><trkpt lat="41.8630667" lon="13.0353833"><ele>524.0</ele><time>2026-04-11T13:42:06.812Z</time></trkpt><trkpt lat="41.862995" lon="13.03535"><ele>524.5</ele><time>2026-04-11T13:42:07.811Z</time></trkpt><trkpt lat="41.86292" lon="13.0353217"><ele>525.0</ele><time>2026-04-11T13:42:08.811Z</time></trkpt><trkpt lat="41.86284" lon="13.035305"><ele>525.5</ele><time>2026-04-11T13:42:09.809Z</time></trkpt><trkpt lat="41.8627533" lon="13.0353017"><ele>526.0</ele><time>2026-04-11T13:42:10.811Z</time></trkpt><trkpt lat="41.8626617" lon="13.0353133"><ele>527.8</ele><time>2026-04-11T13:42:11.81Z</time></trkpt><trkpt lat="41.862565" lon="13.0353383"><ele>529.6</ele><time>2026-04-11T13:42:12.81Z</time></trkpt><trkpt lat="41.862475" lon="13.0353583"><ele>531.4</ele><time>2026-04-11T13:42:13.81Z</time></trkpt><trkpt lat="41.8623817" lon="13.0353767"><ele>533.2</ele><time>2026-04-11T13:42:14.81Z</time></trkpt><trkpt lat="41.8622917" lon="13.0353933"><ele>535.0</ele><time>2026-04-11T13:42:15.809Z</time></trkpt><trkpt lat="41.8622" lon="13.0354083"><ele>535.0</ele><time>2026-04-11T13:42:16.811Z</time></trkpt><trkpt lat="41.8621067" lon="13.0354217"><ele>535.0</ele><time>2026-04-11T13:42:17.811Z</time></trkpt><trkpt lat="41.8620117" lon="13.035435"><ele>535.0</ele><time>2026-04-11T13:42:18.809Z</time></trkpt><trkpt lat="41.861915" lon="13.0354517"><ele>535.0</ele><time>2026-04-11T13:42:19.812Z</time></trkpt><trkpt lat="41.86182" lon="13.035465"><ele>535.0</ele><time>2026-04-11T13:42:20.811Z</time></trkpt><trkpt lat="41.8617233" lon="13.03548"><ele>539.5</ele><time>2026-04-11T13:42:21.811Z</time></trkpt><trkpt lat="41.8616233" lon="13.03549"><ele>544.0</ele><time>2026-04-11T13:42:22.81Z</time></trkpt><trkpt lat="41.8615117" lon="13.0354567"><ele>548.5</ele><time>2026-04-11T13:42:23.81Z</time></trkpt><trkpt lat="41.8613583" lon="13.0354267"><ele>553.0</ele><time>2026-04-11T13:42:24.81Z</time></trkpt><trkpt lat="41.8612133" lon="13.0354083"><ele>553.0</ele><time>2026-04-11T13:42:25.813Z</time></trkpt><trkpt lat="41.861065" lon="13.0353833"><ele>553.0</ele><time>2026-04-11T13:42:26.812Z</time></trkpt><trkpt lat="41.8609383" lon="13.0353617"><ele>553.0</ele><time>2026-04-11T13:42:27.81Z</time></trkpt><trkpt lat="41.8608167" lon="13.0353433"><ele>553.0</ele><time>2026-04-11T13:42:28.81Z</time></trkpt><trkpt lat="41.8607" lon="13.0353183"><ele>552.0</ele><time>2026-04-11T13:42:29.811Z</time></trkpt><trkpt lat="41.8605717" lon="13.0352333"><ele>551.0</ele><time>2026-04-11T13:42:30.812Z</time></trkpt><trkpt lat="41.860455" lon="13.0351717"><ele>550.0</ele><time>2026-04-11T13:42:31.812Z</time></trkpt><trkpt lat="41.8603467" lon="13.0350783"><ele>549.0</ele><time>2026-04-11T13:42:32.81Z</time></trkpt><trkpt lat="41.8602483" lon="13.0349883"><ele>549.0</ele><time>2026-04-11T13:42:33.81Z</time></trkpt><trkpt lat="41.8601317" lon="13.0350283"><ele>549.0</ele><time>2026-04-11T13:42:34.812Z</time></trkpt><trkpt lat="41.8598917" lon="13.0352967"><ele>549.0</ele><time>2026-04-11T13:42:35.811Z</time></trkpt><trkpt lat="41.8597817" lon="13.0354583"><ele>544.0</ele><time>2026-04-11T13:42:36.811Z</time></trkpt><trkpt lat="41.859685" lon="13.03553"><ele>539.0</ele><time>2026-04-11T13:42:37.813Z</time></trkpt><trkpt lat="41.8596217" lon="13.0355533"><ele>534.0</ele><time>2026-04-11T13:42:39.811Z</time></trkpt><trkpt lat="41.8595167" lon="13.035635"><ele>529.0</ele><time>2026-04-11T13:42:52.812Z</time></trkpt><trkpt lat="41.859435" lon="13.035695"><ele>524.0</ele><time>2026-04-11T13:42:53.814Z</time></trkpt><trkpt lat="41.8593533" lon="13.0357717"><ele>522.0</ele><time>2026-04-11T13:42:54.813Z</time></trkpt><trkpt lat="41.859265" lon="13.0358567"><ele>520.0</ele><time>2026-04-11T13:42:55.812Z</time></trkpt><trkpt lat="41.8591817" lon="13.035945"><ele>518.0</ele><time>2026-04-11T13:42:56.814Z</time></trkpt><trkpt lat="41.8591067" lon="13.0360333"><ele>516.0</ele><time>2026-04-11T13:42:57.81Z</time></trkpt><trkpt lat="41.8590383" lon="13.0361233"><ele>514.0</ele><time>2026-04-11T13:42:58.813Z</time></trkpt><trkpt lat="41.858985" lon="13.0362233"><ele>514.0</ele><time>2026-04-11T13:42:59.813Z</time></trkpt><trkpt lat="41.85894" lon="13.0363217"><ele>514.0</ele><time>2026-04-11T13:43:00.809Z</time></trkpt><trkpt lat="41.8589083" lon="13.0364133"><ele>514.0</ele><time>2026-04-11T13:43:01.814Z</time></trkpt><trkpt lat="41.85889" lon="13.0365"><ele>514.0</ele><time>2026-04-11T13:43:02.811Z</time></trkpt><trkpt lat="41.8588667" lon="13.03665"><ele>514.0</ele><time>2026-04-11T13:43:04.816Z</time></trkpt><trkpt lat="41.8588417" lon="13.0367883"><ele>514.0</ele><time>2026-04-11T13:43:06.813Z</time></trkpt><trkpt lat="41.8588017" lon="13.03694"><ele>514.25</ele><time>2026-04-11T13:43:08.813Z</time></trkpt><trkpt lat="41.858755" lon="13.0370967"><ele>514.5</ele><time>2026-04-11T13:43:10.811Z</time></trkpt><trkpt lat="41.858705" lon="13.0372367"><ele>514.75</ele><time>2026-04-11T13:43:12.81Z</time></trkpt><trkpt lat="41.8586583" lon="13.0373633"><ele>515.0</ele><time>2026-04-11T13:43:14.812Z</time></trkpt><trkpt lat="41.8586117" lon="13.0374933"><ele>517.0</ele><time>2026-04-11T13:43:16.813Z</time></trkpt><trkpt lat="41.8585683" lon="13.0376133"><ele>519.0</ele><time>2026-04-11T13:43:18.813Z</time></trkpt><trkpt lat="41.858505" lon="13.0377283"><ele>521.0</ele><time>2026-04-11T13:43:20.812Z</time></trkpt><trkpt lat="41.8584233" lon="13.0378283"><ele>523.0</ele><time>2026-04-11T13:43:22.811Z</time></trkpt><trkpt lat="41.8583033" lon="13.0379017"><ele>525.0</ele><time>2026-04-11T13:43:24.81Z</time></trkpt><trkpt lat="41.85822" lon="13.0379367"><ele>520.0</ele><time>2026-04-11T13:43:25.817Z</time></trkpt><trkpt lat="41.8581233" lon="13.0379733"><ele>515.0</ele><time>2026-04-11T13:43:26.813Z</time></trkpt><trkpt lat="41.858015" lon="13.0380117"><ele>510.0</ele><time>2026-04-11T13:43:27.814Z</time></trkpt><trkpt lat="41.8579017" lon="13.03805"><ele>505.0</ele><time>2026-04-11T13:43:28.814Z</time></trkpt><trkpt lat="41.8577767" lon="13.038085"><ele>505.0</ele><time>2026-04-11T13:43:29.815Z</time></trkpt><trkpt lat="41.8576533" lon="13.038115"><ele>505.0</ele><time>2026-04-11T13:43:30.813Z</time></trkpt><trkpt lat="41.8575433" lon="13.03815"><ele>505.0</ele><time>2026-04-11T13:43:31.814Z</time></trkpt><trkpt lat="41.85744" lon="13.0381733"><ele>505.0</ele><time>2026-04-11T13:43:32.815Z</time></trkpt><trkpt lat="41.85734" lon="13.03819"><ele>505.0</ele><time>2026-04-11T13:43:33.814Z</time></trkpt><trkpt lat="41.8572483" lon="13.0382083"><ele>505.0</ele><time>2026-04-11T13:43:34.814Z</time></trkpt><trkpt lat="41.8571617" lon="13.038245"><ele>505.0</ele><time>2026-04-11T13:43:35.814Z</time></trkpt><trkpt lat="41.8570717" lon="13.0382767"><ele>505.0</ele><time>2026-04-11T13:43:36.813Z</time></trkpt><trkpt lat="41.8569817" lon="13.0383167"><ele>505.0</ele><time>2026-04-11T13:43:37.813Z</time></trkpt><trkpt lat="41.85689" lon="13.0383617"><ele>505.0</ele><time>2026-04-11T13:43:38.814Z</time></trkpt><trkpt lat="41.8568" lon="13.0384133"><ele>502.0</ele><time>2026-04-11T13:43:39.81Z</time></trkpt><trkpt lat="41.8567233" lon="13.0384967"><ele>499.0</ele><time>2026-04-11T13:43:40.814Z</time></trkpt><trkpt lat="41.8566567" lon="13.0385967"><ele>496.0</ele><time>2026-04-11T13:43:41.814Z</time></trkpt><trkpt lat="41.856595" lon="13.038705"><ele>493.0</ele><time>2026-04-11T13:43:42.814Z</time></trkpt><trkpt lat="41.8565367" lon="13.0388217"><ele>490.0</ele><time>2026-04-11T13:43:43.813Z</time></trkpt><trkpt lat="41.856475" lon="13.0389383"><ele>490.0</ele><time>2026-04-11T13:43:44.813Z</time></trkpt><trkpt lat="41.8564" lon="13.0390417"><ele>490.0</ele><time>2026-04-11T13:43:45.814Z</time></trkpt><trkpt lat="41.856305" lon="13.039115"><ele>490.0</ele><time>2026-04-11T13:43:46.813Z</time></trkpt><trkpt lat="41.8562067" lon="13.0391783"><ele>490.0</ele><time>2026-04-11T13:43:47.814Z</time></trkpt><trkpt lat="41.8561083" lon="13.0392433"><ele>490.0</ele><time>2026-04-11T13:43:48.814Z</time></trkpt><trkpt lat="41.8560083" lon="13.0393017"><ele>489.0</ele><time>2026-04-11T13:43:49.814Z</time></trkpt><trkpt lat="41.8559133" lon="13.0393533"><ele>488.0</ele><time>2026-04-11T13:43:50.813Z</time></trkpt><trkpt lat="41.8558233" lon="13.0394083"><ele>487.0</ele><time>2026-04-11T13:43:51.814Z</time></trkpt><trkpt lat="41.855735" lon="13.0394617"><ele>486.0</ele><time>2026-04-11T13:43:52.814Z</time></trkpt><trkpt lat="41.8556517" lon="13.039525"><ele>485.0</ele><time>2026-04-11T13:43:53.816Z</time></trkpt><trkpt lat="41.8555733" lon="13.0395967"><ele>485.0</ele><time>2026-04-11T13:43:54.814Z</time></trkpt><trkpt lat="41.855505" lon="13.0396833"><ele>485.0</ele><time>2026-04-11T13:43:55.813Z</time></trkpt><trkpt lat="41.8554417" lon="13.0397717"><ele>485.0</ele><time>2026-04-11T13:43:56.814Z</time></trkpt><trkpt lat="41.8553783" lon="13.03986"><ele>485.0</ele><time>2026-04-11T13:43:57.814Z</time></trkpt><trkpt lat="41.8553117" lon="13.0399433"><ele>485.0</ele><time>2026-04-11T13:43:58.814Z</time></trkpt><trkpt lat="41.8552417" lon="13.0400217"><ele>483.99999999999994</ele><time>2026-04-11T13:43:59.814Z</time></trkpt><trkpt lat="41.8551733" lon="13.0400933"><ele>483.0</ele><time>2026-04-11T13:44:00.813Z</time></trkpt><trkpt lat="41.8551017" lon="13.0401617"><ele>482.0</ele><time>2026-04-11T13:44:01.814Z</time></trkpt><trkpt lat="41.8550267" lon="13.0402217"><ele>481.0</ele><time>2026-04-11T13:44:02.813Z</time></trkpt><trkpt lat="41.8549533" lon="13.0402883"><ele>479.99999999999994</ele><time>2026-04-11T13:44:03.814Z</time></trkpt><trkpt lat="41.8548767" lon="13.0403533"><ele>479.0</ele><time>2026-04-11T13:44:04.814Z</time></trkpt><trkpt lat="41.8548" lon="13.0404283"><ele>479.0</ele><time>2026-04-11T13:44:05.814Z</time></trkpt><trkpt lat="41.8547233" lon="13.0405067"><ele>479.0</ele><time>2026-04-11T13:44:06.813Z</time></trkpt><trkpt lat="41.8546467" lon="13.0405883"><ele>479.0</ele><time>2026-04-11T13:44:07.814Z</time></trkpt><trkpt lat="41.85457" lon="13.040665"><ele>479.0</ele><time>2026-04-11T13:44:08.813Z</time></trkpt><trkpt lat="41.8544933" lon="13.04074"><ele>479.0</ele><time>2026-04-11T13:44:09.814Z</time></trkpt><trkpt lat="41.854415" lon="13.0408167"><ele>477.6</ele><time>2026-04-11T13:44:10.814Z</time></trkpt><trkpt lat="41.85433" lon="13.0408967"><ele>476.2</ele><time>2026-04-11T13:44:11.814Z</time></trkpt><trkpt lat="41.8542433" lon="13.0409783"><ele>474.80000000000007</ele><time>2026-04-11T13:44:12.814Z</time></trkpt><trkpt lat="41.8541567" lon="13.0410633"><ele>473.40000000000003</ele><time>2026-04-11T13:44:13.817Z</time></trkpt><trkpt lat="41.8540733" lon="13.0411483"><ele>472.0</ele><time>2026-04-11T13:44:14.813Z</time></trkpt><trkpt lat="41.8539917" lon="13.04123"><ele>472.0</ele><time>2026-04-11T13:44:15.81Z</time></trkpt><trkpt lat="41.8539133" lon="13.0413083"><ele>472.00000000000006</ele><time>2026-04-11T13:44:16.813Z</time></trkpt><trkpt lat="41.8538317" lon="13.0413783"><ele>472.00000000000006</ele><time>2026-04-11T13:44:17.813Z</time></trkpt><trkpt lat="41.8537467" lon="13.04144"><ele>472.0</ele><time>2026-04-11T13:44:18.81Z</time></trkpt><trkpt lat="41.853655" lon="13.0414967"><ele>472.0</ele><time>2026-04-11T13:44:19.811Z</time></trkpt><trkpt lat="41.853565" lon="13.0415433"><ele>472.0</ele><time>2026-04-11T13:44:20.812Z</time></trkpt><trkpt lat="41.8534767" lon="13.0415633"><ele>472.00000000000006</ele><time>2026-04-11T13:44:21.814Z</time></trkpt><trkpt lat="41.8533833" lon="13.0415617"><ele>472.00000000000006</ele><time>2026-04-11T13:44:22.813Z</time></trkpt><trkpt lat="41.853295" lon="13.0415283"><ele>472.0</ele><time>2026-04-11T13:44:23.813Z</time></trkpt><trkpt lat="41.85321" lon="13.04146"><ele>472.0</ele><time>2026-04-11T13:44:24.814Z</time></trkpt><trkpt lat="41.8531233" lon="13.04139"><ele>469.40000000000003</ele><time>2026-04-11T13:44:25.813Z</time></trkpt><trkpt lat="41.8530367" lon="13.0413133"><ele>466.80000000000007</ele><time>2026-04-11T13:44:26.814Z</time></trkpt><trkpt lat="41.852955" lon="13.0412283"><ele>464.2</ele><time>2026-04-11T13:44:27.814Z</time></trkpt><trkpt lat="41.852875" lon="13.0411467"><ele>461.6</ele><time>2026-04-11T13:44:28.814Z</time></trkpt><trkpt lat="41.852795" lon="13.04108"><ele>459.0</ele><time>2026-04-11T13:44:29.813Z</time></trkpt><trkpt lat="41.85271" lon="13.04104"><ele>459.6</ele><time>2026-04-11T13:44:30.813Z</time></trkpt><trkpt lat="41.8526133" lon="13.0410333"><ele>460.2</ele><time>2026-04-11T13:44:31.813Z</time></trkpt><trkpt lat="41.85251" lon="13.0410533"><ele>460.80000000000007</ele><time>2026-04-11T13:44:32.814Z</time></trkpt><trkpt lat="41.852415" lon="13.0411217"><ele>461.40000000000003</ele><time>2026-04-11T13:44:33.81Z</time></trkpt><trkpt lat="41.8523267" lon="13.0412033"><ele>462.0</ele><time>2026-04-11T13:44:34.814Z</time></trkpt><trkpt lat="41.8522383" lon="13.0412833"><ele>462.0</ele><time>2026-04-11T13:44:35.905Z</time></trkpt><trkpt lat="41.8521533" lon="13.041365"><ele>462.00000000000006</ele><time>2026-04-11T13:44:36.81Z</time></trkpt><trkpt lat="41.85207" lon="13.0414433"><ele>462.00000000000006</ele><time>2026-04-11T13:44:37.811Z</time></trkpt><trkpt lat="41.85199" lon="13.0415217"><ele>462.0</ele><time>2026-04-11T13:44:38.813Z</time></trkpt><trkpt lat="41.8519117" lon="13.0415967"><ele>462.0</ele><time>2026-04-11T13:44:39.814Z</time></trkpt><trkpt lat="41.851835" lon="13.0416633"><ele>461.5</ele><time>2026-04-11T13:44:40.814Z</time></trkpt><trkpt lat="41.8517583" lon="13.04172"><ele>461.0</ele><time>2026-04-11T13:44:41.814Z</time></trkpt><trkpt lat="41.85169" lon="13.04176"><ele>460.5</ele><time>2026-04-11T13:44:42.814Z</time></trkpt><trkpt lat="41.85161" lon="13.0417633"><ele>460.0</ele><time>2026-04-11T13:44:43.814Z</time></trkpt><trkpt lat="41.85153" lon="13.0417267"><ele>459.5</ele><time>2026-04-11T13:44:44.814Z</time></trkpt><trkpt lat="41.8514567" lon="13.0416417"><ele>459.0</ele><time>2026-04-11T13:44:45.814Z</time></trkpt><trkpt lat="41.8513917" lon="13.0415117"><ele>459.0</ele><time>2026-04-11T13:44:46.814Z</time></trkpt><trkpt lat="41.8513333" lon="13.0413667"><ele>459.0</ele><time>2026-04-11T13:44:47.814Z</time></trkpt><trkpt lat="41.85128" lon="13.0412333"><ele>459.0</ele><time>2026-04-11T13:44:48.813Z</time></trkpt><trkpt lat="41.85122" lon="13.041115"><ele>459.0</ele><time>2026-04-11T13:44:49.816Z</time></trkpt><trkpt lat="41.8511583" lon="13.0410017"><ele>459.0</ele><time>2026-04-11T13:44:50.814Z</time></trkpt><trkpt lat="41.851085" lon="13.0408983"><ele>459.0</ele><time>2026-04-11T13:44:51.813Z</time></trkpt><trkpt lat="41.8510033" lon="13.040805"><ele>459.0</ele><time>2026-04-11T13:44:52.812Z</time></trkpt><trkpt lat="41.8509133" lon="13.04073"><ele>459.0</ele><time>2026-04-11T13:44:53.812Z</time></trkpt><trkpt lat="41.8508133" lon="13.0406633"><ele>459.0</ele><time>2026-04-11T13:44:54.81Z</time></trkpt><trkpt lat="41.8507067" lon="13.04061"><ele>459.0</ele><time>2026-04-11T13:44:55.811Z</time></trkpt><trkpt lat="41.850595" lon="13.04056"><ele>452.25</ele><time>2026-04-11T13:44:56.81Z</time></trkpt><trkpt lat="41.8504817" lon="13.04051"><ele>445.5</ele><time>2026-04-11T13:44:57.81Z</time></trkpt><trkpt lat="41.8503667" lon="13.04046"><ele>438.75</ele><time>2026-04-11T13:44:58.811Z</time></trkpt><trkpt lat="41.850255" lon="13.0404083"><ele>432.0</ele><time>2026-04-11T13:44:59.811Z</time></trkpt><trkpt lat="41.8501467" lon="13.04035"><ele>432.75</ele><time>2026-04-11T13:45:00.81Z</time></trkpt><trkpt lat="41.85004" lon="13.0402833"><ele>433.5</ele><time>2026-04-11T13:45:01.811Z</time></trkpt><trkpt lat="41.8499333" lon="13.0402"><ele>434.25</ele><time>2026-04-11T13:45:02.814Z</time></trkpt><trkpt lat="41.849835" lon="13.04011"><ele>435.0</ele><time>2026-04-11T13:45:03.812Z</time></trkpt><trkpt lat="41.84973" lon="13.0400217"><ele>432.75</ele><time>2026-04-11T13:45:04.813Z</time></trkpt><trkpt lat="41.8496217" lon="13.0399417"><ele>430.5</ele><time>2026-04-11T13:45:05.814Z</time></trkpt><trkpt lat="41.8495083" lon="13.0398683"><ele>428.25</ele><time>2026-04-11T13:45:06.813Z</time></trkpt><trkpt lat="41.8493917" lon="13.0398017"><ele>426.0</ele><time>2026-04-11T13:45:07.813Z</time></trkpt><trkpt lat="41.8492783" lon="13.039735"><ele>426.0</ele><time>2026-04-11T13:45:08.813Z</time></trkpt><trkpt lat="41.84917" lon="13.0396817"><ele>426.0</ele><time>2026-04-11T13:45:09.812Z</time></trkpt><trkpt lat="41.849065" lon="13.039645"><ele>426.0</ele><time>2026-04-11T13:45:10.812Z</time></trkpt><trkpt lat="41.8489517" lon="13.0396417"><ele>426.0</ele><time>2026-04-11T13:45:11.812Z</time></trkpt><trkpt lat="41.84883" lon="13.03966"><ele>426.0</ele><time>2026-04-11T13:45:12.809Z</time></trkpt><trkpt lat="41.848705" lon="13.039685"><ele>426.0</ele><time>2026-04-11T13:45:13.813Z</time></trkpt><trkpt lat="41.84858" lon="13.0397083"><ele>426.0</ele><time>2026-04-11T13:45:14.814Z</time></trkpt><trkpt lat="41.8484583" lon="13.0397317"><ele>426.0</ele><time>2026-04-11T13:45:15.81Z</time></trkpt><trkpt lat="41.848335" lon="13.0397533"><ele>423.0</ele><time>2026-04-11T13:45:16.814Z</time></trkpt><trkpt lat="41.8482117" lon="13.0397733"><ele>420.0</ele><time>2026-04-11T13:45:17.81Z</time></trkpt><trkpt lat="41.84809" lon="13.0397833"><ele>417.0</ele><time>2026-04-11T13:45:18.813Z</time></trkpt><trkpt lat="41.8479717" lon="13.0397683"><ele>414.0</ele><time>2026-04-11T13:45:19.814Z</time></trkpt><trkpt lat="41.8478667" lon="13.0397117"><ele>414.0</ele><time>2026-04-11T13:45:20.81Z</time></trkpt><trkpt lat="41.8477717" lon="13.03962"><ele>414.0</ele><time>2026-04-11T13:45:21.814Z</time></trkpt><trkpt lat="41.8476617" lon="13.0395283"><ele>414.0</ele><time>2026-04-11T13:45:22.814Z</time></trkpt><trkpt lat="41.8475467" lon="13.0394567"><ele>414.0</ele><time>2026-04-11T13:45:23.814Z</time></trkpt><trkpt lat="41.8474283" lon="13.0394033"><ele>415.5</ele><time>2026-04-11T13:45:24.814Z</time></trkpt><trkpt lat="41.8473167" lon="13.0393383"><ele>417.0</ele><time>2026-04-11T13:45:25.814Z</time></trkpt><trkpt lat="41.8472133" lon="13.0392483"><ele>418.5</ele><time>2026-04-11T13:45:26.814Z</time></trkpt><trkpt lat="41.84712" lon="13.0391317"><ele>420.0</ele><time>2026-04-11T13:45:27.813Z</time></trkpt><trkpt lat="41.847045" lon="13.038985"><ele>413.5</ele><time>2026-04-11T13:45:28.814Z</time></trkpt><trkpt lat="41.846985" lon="13.0388183"><ele>407.0</ele><time>2026-04-11T13:45:29.813Z</time></trkpt><trkpt lat="41.846935" lon="13.0386417"><ele>400.5</ele><time>2026-04-11T13:45:30.813Z</time></trkpt><trkpt lat="41.8468867" lon="13.0384683"><ele>394.0</ele><time>2026-04-11T13:45:31.814Z</time></trkpt><trkpt lat="41.8468317" lon="13.0383033"><ele>398.0</ele><time>2026-04-11T13:45:32.814Z</time></trkpt><trkpt lat="41.8467767" lon="13.0381383"><ele>402.0</ele><time>2026-04-11T13:45:33.814Z</time></trkpt><trkpt lat="41.846735" lon="13.037965"><ele>406.0</ele><time>2026-04-11T13:45:34.814Z</time></trkpt><trkpt lat="41.8467" lon="13.037795"><ele>410.0</ele><time>2026-04-11T13:45:35.814Z</time></trkpt><trkpt lat="41.8466617" lon="13.0376217"><ele>408.25</ele><time>2026-04-11T13:45:36.813Z</time></trkpt><trkpt lat="41.8466133" lon="13.0374583"><ele>406.5</ele><time>2026-04-11T13:45:37.812Z</time></trkpt><trkpt lat="41.8465567" lon="13.037305"><ele>404.75</ele><time>2026-04-11T13:45:38.813Z</time></trkpt><trkpt lat="41.8465033" lon="13.0371517"><ele>403.0</ele><time>2026-04-11T13:45:39.814Z</time></trkpt><trkpt lat="41.846465" lon="13.0369917"><ele>403.0</ele><time>2026-04-11T13:45:40.813Z</time></trkpt><trkpt lat="41.8464467" lon="13.036825"><ele>403.0</ele><time>2026-04-11T13:45:41.817Z</time></trkpt><trkpt lat="41.84645" lon="13.0366533"><ele>403.0</ele><time>2026-04-11T13:45:42.813Z</time></trkpt><trkpt lat="41.8464567" lon="13.0364783"><ele>403.0</ele><time>2026-04-11T13:45:43.819Z</time></trkpt><trkpt lat="41.84646" lon="13.0362967"><ele>401.75</ele><time>2026-04-11T13:45:44.814Z</time></trkpt><trkpt lat="41.8464583" lon="13.0361117"><ele>400.5</ele><time>2026-04-11T13:45:45.814Z</time></trkpt><trkpt lat="41.846445" lon="13.0359267"><ele>399.25</ele><time>2026-04-11T13:45:46.813Z</time></trkpt><trkpt lat="41.8464083" lon="13.035745"><ele>398.0</ele><time>2026-04-11T13:45:47.811Z</time></trkpt><trkpt lat="41.8463533" lon="13.0355733"><ele>397.25</ele><time>2026-04-11T13:45:48.811Z</time></trkpt><trkpt lat="41.84629" lon="13.035405"><ele>396.5</ele><time>2026-04-11T13:45:49.811Z</time></trkpt><trkpt lat="41.8462283" lon="13.0352333"><ele>395.75</ele><time>2026-04-11T13:45:50.81Z</time></trkpt><trkpt lat="41.8461717" lon="13.0350633"><ele>395.0</ele><time>2026-04-11T13:45:51.811Z</time></trkpt><trkpt lat="41.8461183" lon="13.0349017"><ele>396.5</ele><time>2026-04-11T13:45:52.81Z</time></trkpt><trkpt lat="41.84606" lon="13.034745"><ele>398.0</ele><time>2026-04-11T13:45:53.811Z</time></trkpt><trkpt lat="41.8459933" lon="13.0345983"><ele>399.5</ele><time>2026-04-11T13:45:54.814Z</time></trkpt><trkpt lat="41.845925" lon="13.034465"><ele>401.0</ele><time>2026-04-11T13:45:55.814Z</time></trkpt><trkpt lat="41.845845" lon="13.0343367"><ele>401.0</ele><time>2026-04-11T13:45:56.814Z</time></trkpt><trkpt lat="41.84576" lon="13.034205"><ele>401.0</ele><time>2026-04-11T13:45:57.813Z</time></trkpt><trkpt lat="41.8456733" lon="13.034075"><ele>401.0</ele><time>2026-04-11T13:45:58.813Z</time></trkpt><trkpt lat="41.8455783" lon="13.0339517"><ele>401.0</ele><time>2026-04-11T13:45:59.813Z</time></trkpt><trkpt lat="41.8454733" lon="13.0338467"><ele>400.25</ele><time>2026-04-11T13:46:00.81Z</time></trkpt><trkpt lat="41.8453633" lon="13.0337517"><ele>399.5</ele><time>2026-04-11T13:46:01.813Z</time></trkpt><trkpt lat="41.8452633" lon="13.03365"><ele>398.75</ele><time>2026-04-11T13:46:02.813Z</time></trkpt><trkpt lat="41.8451733" lon="13.0335417"><ele>398.0</ele><time>2026-04-11T13:46:03.814Z</time></trkpt><trkpt lat="41.8450817" lon="13.0334233"><ele>398.0</ele><time>2026-04-11T13:46:04.814Z</time></trkpt><trkpt lat="41.844995" lon="13.0333117"><ele>398.0</ele><time>2026-04-11T13:46:05.814Z</time></trkpt><trkpt lat="41.8449217" lon="13.0332067"><ele>398.0</ele><time>2026-04-11T13:46:06.814Z</time></trkpt><trkpt lat="41.844875" lon="13.0331"><ele>398.0</ele><time>2026-04-11T13:46:07.814Z</time></trkpt><trkpt lat="41.8448533" lon="13.032995"><ele>398.0</ele><time>2026-04-11T13:46:08.815Z</time></trkpt><trkpt lat="41.8448583" lon="13.0328733"><ele>397.4</ele><time>2026-04-11T13:46:09.814Z</time></trkpt><trkpt lat="41.84489" lon="13.03274"><ele>396.79999999999995</ele><time>2026-04-11T13:46:10.814Z</time></trkpt><trkpt lat="41.844925" lon="13.032595"><ele>396.2</ele><time>2026-04-11T13:46:11.818Z</time></trkpt><trkpt lat="41.844955" lon="13.0324483"><ele>395.6</ele><time>2026-04-11T13:46:12.814Z</time></trkpt><trkpt lat="41.8449683" lon="13.0323017"><ele>395.0</ele><time>2026-04-11T13:46:13.811Z</time></trkpt><trkpt lat="41.844975" lon="13.03216"><ele>394.4</ele><time>2026-04-11T13:46:14.814Z</time></trkpt><trkpt lat="41.8449683" lon="13.0320233"><ele>393.8</ele><time>2026-04-11T13:46:15.814Z</time></trkpt><trkpt lat="41.8449483" lon="13.0318867"><ele>393.20000000000005</ele><time>2026-04-11T13:46:16.811Z</time></trkpt><trkpt lat="41.8449167" lon="13.03175"><ele>392.6</ele><time>2026-04-11T13:46:17.811Z</time></trkpt><trkpt lat="41.8448717" lon="13.0316283"><ele>392.0</ele><time>2026-04-11T13:46:18.81Z</time></trkpt><trkpt lat="41.844815" lon="13.03152"><ele>393.20000000000005</ele><time>2026-04-11T13:46:19.81Z</time></trkpt><trkpt lat="41.84475" lon="13.0314233"><ele>394.4</ele><time>2026-04-11T13:46:20.814Z</time></trkpt><trkpt lat="41.8446733" lon="13.0313483"><ele>395.6</ele><time>2026-04-11T13:46:21.811Z</time></trkpt><trkpt lat="41.8445983" lon="13.0312733"><ele>396.79999999999995</ele><time>2026-04-11T13:46:22.811Z</time></trkpt><trkpt lat="41.8445267" lon="13.0311917"><ele>398.0</ele><time>2026-04-11T13:46:23.813Z</time></trkpt><trkpt lat="41.8444583" lon="13.0310933"><ele>398.0</ele><time>2026-04-11T13:46:24.809Z</time></trkpt><trkpt lat="41.8443917" lon="13.0309867"><ele>398.0</ele><time>2026-04-11T13:46:25.813Z</time></trkpt><trkpt lat="41.84433" lon="13.0308783"><ele>398.0</ele><time>2026-04-11T13:46:26.813Z</time></trkpt><trkpt lat="41.84427" lon="13.0307783"><ele>398.0</ele><time>2026-04-11T13:46:27.814Z</time></trkpt><trkpt lat="41.8442183" lon="13.0306783"><ele>398.0</ele><time>2026-04-11T13:46:28.811Z</time></trkpt><trkpt lat="41.8441767" lon="13.0305733"><ele>392.59999999999997</ele><time>2026-04-11T13:46:29.815Z</time></trkpt><trkpt lat="41.8441467" lon="13.0304583"><ele>387.2</ele><time>2026-04-11T13:46:30.814Z</time></trkpt><trkpt lat="41.8441367" lon="13.0303317"><ele>381.8</ele><time>2026-04-11T13:46:31.815Z</time></trkpt><trkpt lat="41.844165" lon="13.030215"><ele>376.4</ele><time>2026-04-11T13:46:32.813Z</time></trkpt><trkpt lat="41.844215" lon="13.0301133"><ele>371.0</ele><time>2026-04-11T13:46:33.811Z</time></trkpt><trkpt lat="41.8442767" lon="13.0300233"><ele>369.20000000000005</ele><time>2026-04-11T13:46:34.814Z</time></trkpt><trkpt lat="41.844345" lon="13.0299367"><ele>367.40000000000003</ele><time>2026-04-11T13:46:35.814Z</time></trkpt><trkpt lat="41.844415" lon="13.0298433"><ele>365.6</ele><time>2026-04-11T13:46:36.814Z</time></trkpt><trkpt lat="41.8444867" lon="13.0297467"><ele>363.8</ele><time>2026-04-11T13:46:37.813Z</time></trkpt><trkpt lat="41.8445533" lon="13.0296417"><ele>362.0</ele><time>2026-04-11T13:46:38.814Z</time></trkpt><trkpt lat="41.8446017" lon="13.02952"><ele>362.0</ele><time>2026-04-11T13:46:39.815Z</time></trkpt><trkpt lat="41.8446283" lon="13.0293783"><ele>362.0</ele><time>2026-04-11T13:46:40.814Z</time></trkpt><trkpt lat="41.84463" lon="13.0292267"><ele>362.0</ele><time>2026-04-11T13:46:41.814Z</time></trkpt><trkpt lat="41.8446183" lon="13.02907"><ele>362.0</ele><time>2026-04-11T13:46:42.813Z</time></trkpt><trkpt lat="41.8446" lon="13.0289167"><ele>359.6</ele><time>2026-04-11T13:46:43.813Z</time></trkpt><trkpt lat="41.844585" lon="13.0287683"><ele>357.20000000000005</ele><time>2026-04-11T13:46:44.814Z</time></trkpt><trkpt lat="41.844575" lon="13.028625"><ele>354.8</ele><time>2026-04-11T13:46:45.814Z</time></trkpt><trkpt lat="41.8445633" lon="13.028485"><ele>352.4</ele><time>2026-04-11T13:46:46.814Z</time></trkpt><trkpt lat="41.8445467" lon="13.0283483"><ele>350.0</ele><time>2026-04-11T13:46:47.813Z</time></trkpt><trkpt lat="41.84452" lon="13.0282217"><ele>348.0</ele><time>2026-04-11T13:46:48.813Z</time></trkpt><trkpt lat="41.844485" lon="13.028105"><ele>346.0</ele><time>2026-04-11T13:46:49.812Z</time></trkpt><trkpt lat="41.844445" lon="13.028"><ele>344.0</ele><time>2026-04-11T13:46:50.812Z</time></trkpt><trkpt lat="41.8444083" lon="13.0279083"><ele>342.0</ele><time>2026-04-11T13:46:51.812Z</time></trkpt><trkpt lat="41.8443783" lon="13.02782"><ele>340.0</ele><time>2026-04-11T13:46:52.814Z</time></trkpt><trkpt lat="41.84435" lon="13.0277417"><ele>338.0</ele><time>2026-04-11T13:46:53.811Z</time></trkpt><trkpt lat="41.8443133" lon="13.0276217"><ele>339.6666666666667</ele><time>2026-04-11T13:46:55.813Z</time></trkpt><trkpt lat="41.8442917" lon="13.027535"><ele>341.33333333333337</ele><time>2026-04-11T13:46:57.812Z</time></trkpt><trkpt lat="41.8442733" lon="13.0274517"><ele>343.0</ele><time>2026-04-11T13:47:00.811Z</time></trkpt><trkpt lat="41.84425" lon="13.0273367"><ele>344.6666666666667</ele><time>2026-04-11T13:47:56.81Z</time></trkpt><trkpt lat="41.8441767" lon="13.0272083"><ele>346.3333333333333</ele><time>2026-04-11T13:47:59.811Z</time></trkpt><trkpt lat="41.8441283" lon="13.0271317"><ele>348.0</ele><time>2026-04-11T13:48:00.81Z</time></trkpt><trkpt lat="41.84405" lon="13.02706"><ele>348.25</ele><time>2026-04-11T13:48:01.811Z</time></trkpt><trkpt lat="41.84396" lon="13.02699"><ele>348.5</ele><time>2026-04-11T13:48:02.81Z</time></trkpt><trkpt lat="41.8438567" lon="13.02692"><ele>348.75</ele><time>2026-04-11T13:48:03.811Z</time></trkpt><trkpt lat="41.8437483" lon="13.0268467"><ele>349.0</ele><time>2026-04-11T13:48:04.812Z</time></trkpt><trkpt lat="41.8436417" lon="13.0267617"><ele>349.0</ele><time>2026-04-11T13:48:05.812Z</time></trkpt><trkpt lat="41.84353" lon="13.0266683"><ele>349.0</ele><time>2026-04-11T13:48:06.81Z</time></trkpt><trkpt lat="41.84342" lon="13.0265667"><ele>349.0</ele><time>2026-04-11T13:48:07.812Z</time></trkpt><trkpt lat="41.84332" lon="13.026455"><ele>349.0</ele><time>2026-04-11T13:48:08.812Z</time></trkpt><trkpt lat="41.8432233" lon="13.0263317"><ele>349.25</ele><time>2026-04-11T13:48:09.81Z</time></trkpt><trkpt lat="41.8431333" lon="13.0261967"><ele>349.5</ele><time>2026-04-11T13:48:10.811Z</time></trkpt><trkpt lat="41.8430433" lon="13.0260583"><ele>349.75</ele><time>2026-04-11T13:48:11.811Z</time></trkpt><trkpt lat="41.8429583" lon="13.025925"><ele>350.0</ele><time>2026-04-11T13:48:12.811Z</time></trkpt><trkpt lat="41.8428783" lon="13.0257983"><ele>350.0</ele><time>2026-04-11T13:48:13.811Z</time></trkpt><trkpt lat="41.84281" lon="13.0256733"><ele>350.0</ele><time>2026-04-11T13:48:14.81Z</time></trkpt><trkpt lat="41.8427517" lon="13.0255467"><ele>350.0</ele><time>2026-04-11T13:48:15.811Z</time></trkpt><trkpt lat="41.8427233" lon="13.0254133"><ele>350.0</ele><time>2026-04-11T13:48:16.816Z</time></trkpt><trkpt lat="41.8427283" lon="13.0252633"><ele>350.0</ele><time>2026-04-11T13:48:17.81Z</time></trkpt><trkpt lat="41.84276" lon="13.025095"><ele>346.0</ele><time>2026-04-11T13:48:18.811Z</time></trkpt><trkpt lat="41.8427967" lon="13.024925"><ele>342.0</ele><time>2026-04-11T13:48:19.811Z</time></trkpt><trkpt lat="41.842835" lon="13.0247583"><ele>338.0</ele><time>2026-04-11T13:48:20.811Z</time></trkpt><trkpt lat="41.8428683" lon="13.0245983"><ele>334.0</ele><time>2026-04-11T13:48:21.81Z</time></trkpt><trkpt lat="41.8429083" lon="13.0244467"><ele>334.0</ele><time>2026-04-11T13:48:22.811Z</time></trkpt><trkpt lat="41.842955" lon="13.0243017"><ele>334.0</ele><time>2026-04-11T13:48:23.811Z</time></trkpt><trkpt lat="41.8430133" lon="13.0241683"><ele>334.0</ele><time>2026-04-11T13:48:24.811Z</time></trkpt><trkpt lat="41.8430717" lon="13.02404"><ele>334.0</ele><time>2026-04-11T13:48:25.811Z</time></trkpt><trkpt lat="41.8431283" lon="13.0239167"><ele>330.2</ele><time>2026-04-11T13:48:26.811Z</time></trkpt><trkpt lat="41.843175" lon="13.0237983"><ele>326.4</ele><time>2026-04-11T13:48:27.811Z</time></trkpt><trkpt lat="41.843205" lon="13.0236783"><ele>322.6</ele><time>2026-04-11T13:48:28.811Z</time></trkpt><trkpt lat="41.84321" lon="13.0235567"><ele>318.8</ele><time>2026-04-11T13:48:29.81Z</time></trkpt><trkpt lat="41.843185" lon="13.0234383"><ele>315.0</ele><time>2026-04-11T13:48:30.811Z</time></trkpt><trkpt lat="41.843125" lon="13.02333"><ele>309.25</ele><time>2026-04-11T13:48:31.811Z</time></trkpt><trkpt lat="41.8430317" lon="13.0232417"><ele>303.5</ele><time>2026-04-11T13:48:32.81Z</time></trkpt><trkpt lat="41.8429183" lon="13.0231883"><ele>297.75</ele><time>2026-04-11T13:48:33.81Z</time></trkpt><trkpt lat="41.8427933" lon="13.0231867"><ele>292.0</ele><time>2026-04-11T13:48:34.811Z</time></trkpt><trkpt lat="41.84267" lon="13.0232133"><ele>297.25</ele><time>2026-04-11T13:48:35.814Z</time></trkpt><trkpt lat="41.84254" lon="13.0233433"><ele>302.5</ele><time>2026-04-11T13:48:36.811Z</time></trkpt><trkpt lat="41.8424167" lon="13.0234333"><ele>307.75</ele><time>2026-04-11T13:48:37.81Z</time></trkpt><trkpt lat="41.8422983" lon="13.02351"><ele>313.0</ele><time>2026-04-11T13:48:38.81Z</time></trkpt><trkpt lat="41.8421817" lon="13.0235583"><ele>313.0</ele><time>2026-04-11T13:48:39.811Z</time></trkpt><trkpt lat="41.8420683" lon="13.0235783"><ele>313.0</ele><time>2026-04-11T13:48:40.81Z</time></trkpt><trkpt lat="41.8419617" lon="13.0235533"><ele>313.0</ele><time>2026-04-11T13:48:41.811Z</time></trkpt><trkpt lat="41.8418567" lon="13.0234967"><ele>313.0</ele><time>2026-04-11T13:48:42.811Z</time></trkpt><trkpt lat="41.8417533" lon="13.0234267"><ele>312.5</ele><time>2026-04-11T13:48:43.81Z</time></trkpt><trkpt lat="41.841645" lon="13.02335"><ele>312.0</ele><time>2026-04-11T13:48:44.812Z</time></trkpt><trkpt lat="41.8415333" lon="13.023265"><ele>311.5</ele><time>2026-04-11T13:48:45.811Z</time></trkpt><trkpt lat="41.8414133" lon="13.0231767"><ele>311.0</ele><time>2026-04-11T13:48:46.811Z</time></trkpt><trkpt lat="41.8412867" lon="13.0230817"><ele>311.0</ele><time>2026-04-11T13:48:47.81Z</time></trkpt><trkpt lat="41.841155" lon="13.02298"><ele>311.0</ele><time>2026-04-11T13:48:48.81Z</time></trkpt><trkpt lat="41.8410183" lon="13.0228733"><ele>311.0</ele><time>2026-04-11T13:48:49.811Z</time></trkpt><trkpt lat="41.8408817" lon="13.0227683"><ele>310.0</ele><time>2026-04-11T13:48:50.812Z</time></trkpt><trkpt lat="41.8407467" lon="13.02266"><ele>309.0</ele><time>2026-04-11T13:48:51.811Z</time></trkpt><trkpt lat="41.8406167" lon="13.0225567"><ele>308.0</ele><time>2026-04-11T13:48:52.81Z</time></trkpt><trkpt lat="41.8404867" lon="13.022455"><ele>308.0</ele><time>2026-04-11T13:48:53.811Z</time></trkpt><trkpt lat="41.8403583" lon="13.0223533"><ele>308.0</ele><time>2026-04-11T13:48:54.811Z</time></trkpt><trkpt lat="41.84023" lon="13.0222467"><ele>308.0</ele><time>2026-04-11T13:48:55.815Z</time></trkpt><trkpt lat="41.8400967" lon="13.022135"><ele>305.0</ele><time>2026-04-11T13:48:56.813Z</time></trkpt><trkpt lat="41.83996" lon="13.0220267"><ele>302.0</ele><time>2026-04-11T13:48:57.813Z</time></trkpt><trkpt lat="41.83982" lon="13.021915"><ele>299.0</ele><time>2026-04-11T13:48:58.814Z</time></trkpt><trkpt lat="41.8396767" lon="13.0218067"><ele>299.0</ele><time>2026-04-11T13:48:59.814Z</time></trkpt><trkpt lat="41.8395333" lon="13.021695"><ele>299.0</ele><time>2026-04-11T13:49:00.814Z</time></trkpt><trkpt lat="41.8393917" lon="13.0215817"><ele>299.0</ele><time>2026-04-11T13:49:01.814Z</time></trkpt><trkpt lat="41.8392483" lon="13.0214633"><ele>296.6666666666667</ele><time>2026-04-11T13:49:02.813Z</time></trkpt><trkpt lat="41.8391033" lon="13.0213433"><ele>294.3333333333333</ele><time>2026-04-11T13:49:03.814Z</time></trkpt><trkpt lat="41.838955" lon="13.021225"><ele>292.0</ele><time>2026-04-11T13:49:04.813Z</time></trkpt><trkpt lat="41.8388017" lon="13.0211067"><ele>292.0</ele><time>2026-04-11T13:49:05.813Z</time></trkpt><trkpt lat="41.838645" lon="13.0209833"><ele>292.0</ele><time>2026-04-11T13:49:06.814Z</time></trkpt><trkpt lat="41.838485" lon="13.020855"><ele>292.0</ele><time>2026-04-11T13:49:07.813Z</time></trkpt><trkpt lat="41.8383167" lon="13.02072"><ele>289.66666666666663</ele><time>2026-04-11T13:49:08.814Z</time></trkpt><trkpt lat="41.838145" lon="13.02058"><ele>287.3333333333333</ele><time>2026-04-11T13:49:09.815Z</time></trkpt><trkpt lat="41.8379683" lon="13.0204367"><ele>285.0</ele><time>2026-04-11T13:49:10.814Z</time></trkpt><trkpt lat="41.837785" lon="13.02029"><ele>283.6666666666667</ele><time>2026-04-11T13:49:11.814Z</time></trkpt><trkpt lat="41.8375983" lon="13.0201383"><ele>282.33333333333337</ele><time>2026-04-11T13:49:12.813Z</time></trkpt><trkpt lat="41.8374083" lon="13.01998"><ele>281.0</ele><time>2026-04-11T13:49:13.814Z</time></trkpt><trkpt lat="41.8372183" lon="13.0198283"><ele>280.6666666666667</ele><time>2026-04-11T13:49:14.814Z</time></trkpt><trkpt lat="41.8370333" lon="13.0196833"><ele>280.3333333333333</ele><time>2026-04-11T13:49:15.814Z</time></trkpt><trkpt lat="41.8368517" lon="13.0195333"><ele>280.0</ele><time>2026-04-11T13:49:16.811Z</time></trkpt><trkpt lat="41.836665" lon="13.0193867"><ele>280.0</ele><time>2026-04-11T13:49:17.811Z</time></trkpt><trkpt lat="41.8364783" lon="13.0192383"><ele>280.0</ele><time>2026-04-11T13:49:18.81Z</time></trkpt><trkpt lat="41.8362917" lon="13.0190917"><ele>280.0</ele><time>2026-04-11T13:49:19.81Z</time></trkpt><trkpt lat="41.8361033" lon="13.0189467"><ele>279.0</ele><time>2026-04-11T13:49:20.812Z</time></trkpt><trkpt lat="41.8359183" lon="13.0188033"><ele>278.0</ele><time>2026-04-11T13:49:21.81Z</time></trkpt><trkpt lat="41.8357367" lon="13.0186583"><ele>277.0</ele><time>2026-04-11T13:49:22.81Z</time></trkpt><trkpt lat="41.8355533" lon="13.018515"><ele>277.0</ele><time>2026-04-11T13:49:23.811Z</time></trkpt><trkpt lat="41.8353717" lon="13.0183717"><ele>277.0</ele><time>2026-04-11T13:49:24.814Z</time></trkpt><trkpt lat="41.8351967" lon="13.0182317"><ele>277.0</ele><time>2026-04-11T13:49:25.814Z</time></trkpt><trkpt lat="41.8350333" lon="13.0181"><ele>277.0</ele><time>2026-04-11T13:49:26.814Z</time></trkpt><trkpt lat="41.834885" lon="13.01798"><ele>277.0</ele><time>2026-04-11T13:49:27.814Z</time></trkpt><trkpt lat="41.8347467" lon="13.0178717"><ele>277.0</ele><time>2026-04-11T13:49:28.814Z</time></trkpt><trkpt lat="41.8346167" lon="13.01777"><ele>277.0</ele><time>2026-04-11T13:49:29.813Z</time></trkpt><trkpt lat="41.83449" lon="13.0176683"><ele>277.0</ele><time>2026-04-11T13:49:30.814Z</time></trkpt><trkpt lat="41.8343633" lon="13.0175733"><ele>277.0</ele><time>2026-04-11T13:49:31.814Z</time></trkpt><trkpt lat="41.834245" lon="13.0174867"><ele>277.0</ele><time>2026-04-11T13:49:32.815Z</time></trkpt><trkpt lat="41.8341317" lon="13.017405"><ele>276.25</ele><time>2026-04-11T13:49:33.814Z</time></trkpt><trkpt lat="41.8340217" lon="13.0173183"><ele>275.5</ele><time>2026-04-11T13:49:34.814Z</time></trkpt><trkpt lat="41.83391" lon="13.0172317"><ele>274.75</ele><time>2026-04-11T13:49:35.814Z</time></trkpt><trkpt lat="41.83379" lon="13.0171467"><ele>274.0</ele><time>2026-04-11T13:49:36.814Z</time></trkpt><trkpt lat="41.8336667" lon="13.0170533"><ele>274.0</ele><time>2026-04-11T13:49:37.813Z</time></trkpt><trkpt lat="41.8335417" lon="13.0169517"><ele>274.0</ele><time>2026-04-11T13:49:38.814Z</time></trkpt><trkpt lat="41.83342" lon="13.0168483"><ele>274.0</ele><time>2026-04-11T13:49:39.813Z</time></trkpt><trkpt lat="41.8333033" lon="13.0167517"><ele>274.0</ele><time>2026-04-11T13:49:40.814Z</time></trkpt><trkpt lat="41.8331867" lon="13.0166567"><ele>274.5</ele><time>2026-04-11T13:49:41.815Z</time></trkpt><trkpt lat="41.83307" lon="13.0165617"><ele>275.0</ele><time>2026-04-11T13:49:42.813Z</time></trkpt><trkpt lat="41.8329517" lon="13.0164683"><ele>275.5</ele><time>2026-04-11T13:49:43.814Z</time></trkpt><trkpt lat="41.8328333" lon="13.016375"><ele>276.0</ele><time>2026-04-11T13:49:44.814Z</time></trkpt><trkpt lat="41.8327133" lon="13.0162833"><ele>276.0</ele><time>2026-04-11T13:49:45.814Z</time></trkpt><trkpt lat="41.8325917" lon="13.0161883"><ele>276.0</ele><time>2026-04-11T13:49:46.814Z</time></trkpt><trkpt lat="41.83247" lon="13.0160833"><ele>276.0</ele><time>2026-04-11T13:49:47.817Z</time></trkpt><trkpt lat="41.8323417" lon="13.0159833"><ele>276.0</ele><time>2026-04-11T13:49:48.814Z</time></trkpt><trkpt lat="41.8322117" lon="13.0158833"><ele>275.6666666666667</ele><time>2026-04-11T13:49:49.815Z</time></trkpt><trkpt lat="41.83208" lon="13.0157783"><ele>275.33333333333337</ele><time>2026-04-11T13:49:50.814Z</time></trkpt><trkpt lat="41.8319433" lon="13.0156633"><ele>275.0</ele><time>2026-04-11T13:49:51.813Z</time></trkpt><trkpt lat="41.8318" lon="13.01555"><ele>275.0</ele><time>2026-04-11T13:49:52.814Z</time></trkpt><trkpt lat="41.8316533" lon="13.0154367"><ele>275.0</ele><time>2026-04-11T13:49:53.813Z</time></trkpt><trkpt lat="41.8315083" lon="13.0153283"><ele>275.0</ele><time>2026-04-11T13:49:54.813Z</time></trkpt><trkpt lat="41.8313717" lon="13.0152183"><ele>275.0</ele><time>2026-04-11T13:49:55.813Z</time></trkpt><trkpt lat="41.8312367" lon="13.0151067"><ele>275.0</ele><time>2026-04-11T13:49:56.817Z</time></trkpt><trkpt lat="41.8310983" lon="13.014995"><ele>275.0</ele><time>2026-04-11T13:49:57.814Z</time></trkpt><trkpt lat="41.8309617" lon="13.0148833"><ele>274.75</ele><time>2026-04-11T13:49:58.814Z</time></trkpt><trkpt lat="41.83083" lon="13.0147767"><ele>274.5</ele><time>2026-04-11T13:49:59.814Z</time></trkpt><trkpt lat="41.8307067" lon="13.0146817"><ele>274.25</ele><time>2026-04-11T13:50:00.814Z</time></trkpt><trkpt lat="41.830585" lon="13.01459"><ele>274.0</ele><time>2026-04-11T13:50:01.814Z</time></trkpt><trkpt lat="41.830455" lon="13.01452"><ele>274.0</ele><time>2026-04-11T13:50:02.814Z</time></trkpt><trkpt lat="41.8303133" lon="13.014485"><ele>274.0</ele><time>2026-04-11T13:50:03.814Z</time></trkpt><trkpt lat="41.8301617" lon="13.0144733"><ele>274.0</ele><time>2026-04-11T13:50:04.814Z</time></trkpt><trkpt lat="41.830005" lon="13.014475"><ele>274.0</ele><time>2026-04-11T13:50:05.815Z</time></trkpt><trkpt lat="41.8298483" lon="13.0144833"><ele>274.0</ele><time>2026-04-11T13:50:06.814Z</time></trkpt><trkpt lat="41.8296917" lon="13.01448"><ele>274.0</ele><time>2026-04-11T13:50:07.815Z</time></trkpt><trkpt lat="41.8295383" lon="13.01448"><ele>274.0</ele><time>2026-04-11T13:50:08.814Z</time></trkpt><trkpt lat="41.82939" lon="13.01448"><ele>274.0</ele><time>2026-04-11T13:50:09.813Z</time></trkpt><trkpt lat="41.8292533" lon="13.0144717"><ele>274.0</ele><time>2026-04-11T13:50:10.813Z</time></trkpt><trkpt lat="41.8291283" lon="13.0144633"><ele>274.0</ele><time>2026-04-11T13:50:11.813Z</time></trkpt><trkpt lat="41.8290083" lon="13.014445"><ele>273.25</ele><time>2026-04-11T13:50:12.814Z</time></trkpt><trkpt lat="41.8288883" lon="13.01441"><ele>272.5</ele><time>2026-04-11T13:50:13.813Z</time></trkpt><trkpt lat="41.8287717" lon="13.0143583"><ele>271.75</ele><time>2026-04-11T13:50:14.814Z</time></trkpt><trkpt lat="41.8286483" lon="13.014295"><ele>271.0</ele><time>2026-04-11T13:50:15.814Z</time></trkpt><trkpt lat="41.8285233" lon="13.0142067"><ele>270.75</ele><time>2026-04-11T13:50:16.816Z</time></trkpt><trkpt lat="41.8284067" lon="13.0141"><ele>270.5</ele><time>2026-04-11T13:50:17.815Z</time></trkpt><trkpt lat="41.8283017" lon="13.013975"><ele>270.25</ele><time>2026-04-11T13:50:18.814Z</time></trkpt><trkpt lat="41.8282033" lon="13.0138283"><ele>270.0</ele><time>2026-04-11T13:50:19.813Z</time></trkpt><trkpt lat="41.828105" lon="13.013665"><ele>270.0</ele><time>2026-04-11T13:50:20.813Z</time></trkpt><trkpt lat="41.82801" lon="13.01349"><ele>270.0</ele><time>2026-04-11T13:50:21.813Z</time></trkpt><trkpt lat="41.8279167" lon="13.013315"><ele>270.0</ele><time>2026-04-11T13:50:22.814Z</time></trkpt><trkpt lat="41.8278233" lon="13.01315"><ele>270.0</ele><time>2026-04-11T13:50:23.814Z</time></trkpt><trkpt lat="41.8277367" lon="13.0129867"><ele>270.0</ele><time>2026-04-11T13:50:24.814Z</time></trkpt><trkpt lat="41.8276617" lon="13.012835"><ele>270.0</ele><time>2026-04-11T13:50:25.813Z</time></trkpt><trkpt lat="41.8275833" lon="13.0127033"><ele>270.0</ele><time>2026-04-11T13:50:26.813Z</time></trkpt><trkpt lat="41.8275167" lon="13.0125833"><ele>267.2</ele><time>2026-04-11T13:50:27.814Z</time></trkpt><trkpt lat="41.8274467" lon="13.0124817"><ele>264.4</ele><time>2026-04-11T13:50:28.814Z</time></trkpt><trkpt lat="41.8273567" lon="13.012415"><ele>261.6</ele><time>2026-04-11T13:50:29.814Z</time></trkpt><trkpt lat="41.8272483" lon="13.0123833"><ele>258.8</ele><time>2026-04-11T13:50:30.813Z</time></trkpt><trkpt lat="41.8271233" lon="13.012395"><ele>256.0</ele><time>2026-04-11T13:50:31.814Z</time></trkpt><trkpt lat="41.826985" lon="13.0124483"><ele>256.5</ele><time>2026-04-11T13:50:32.814Z</time></trkpt><trkpt lat="41.8268483" lon="13.0125167"><ele>257.0</ele><time>2026-04-11T13:50:33.815Z</time></trkpt><trkpt lat="41.826715" lon="13.01258"><ele>257.5</ele><time>2026-04-11T13:50:34.814Z</time></trkpt><trkpt lat="41.8265833" lon="13.0126333"><ele>258.0</ele><time>2026-04-11T13:50:35.814Z</time></trkpt><trkpt lat="41.8264517" lon="13.0126633"><ele>256.25</ele><time>2026-04-11T13:50:36.817Z</time></trkpt><trkpt lat="41.8263167" lon="13.0126533"><ele>254.5</ele><time>2026-04-11T13:50:37.813Z</time></trkpt><trkpt lat="41.82618" lon="13.0125983"><ele>252.75</ele><time>2026-04-11T13:50:38.814Z</time></trkpt><trkpt lat="41.8260417" lon="13.0125117"><ele>251.0</ele><time>2026-04-11T13:50:39.813Z</time></trkpt><trkpt lat="41.8259" lon="13.0124033"><ele>249.66666666666669</ele><time>2026-04-11T13:50:40.814Z</time></trkpt><trkpt lat="41.8257517" lon="13.0122783"><ele>248.33333333333331</ele><time>2026-04-11T13:50:41.814Z</time></trkpt><trkpt lat="41.8255983" lon="13.01214"><ele>247.0</ele><time>2026-04-11T13:50:42.814Z</time></trkpt><trkpt lat="41.8254383" lon="13.0119933"><ele>247.0</ele><time>2026-04-11T13:50:43.813Z</time></trkpt><trkpt lat="41.8252817" lon="13.0118467"><ele>247.0</ele><time>2026-04-11T13:50:44.814Z</time></trkpt><trkpt lat="41.825125" lon="13.011705"><ele>247.0</ele><time>2026-04-11T13:50:45.813Z</time></trkpt><trkpt lat="41.824965" lon="13.0115633"><ele>247.0</ele><time>2026-04-11T13:50:46.814Z</time></trkpt><trkpt lat="41.8247983" lon="13.0114233"><ele>247.0</ele><time>2026-04-11T13:50:47.814Z</time></trkpt><trkpt lat="41.8246317" lon="13.0112733"><ele>247.0</ele><time>2026-04-11T13:50:48.813Z</time></trkpt><trkpt lat="41.82446" lon="13.011125"><ele>246.66666666666666</ele><time>2026-04-11T13:50:49.812Z</time></trkpt><trkpt lat="41.8242883" lon="13.0109817"><ele>246.33333333333331</ele><time>2026-04-11T13:50:50.814Z</time></trkpt><trkpt lat="41.8241183" lon="13.0108383"><ele>246.0</ele><time>2026-04-11T13:50:51.814Z</time></trkpt><trkpt lat="41.8239517" lon="13.010695"><ele>246.0</ele><time>2026-04-11T13:50:52.809Z</time></trkpt><trkpt lat="41.8237917" lon="13.0105533"><ele>246.0</ele><time>2026-04-11T13:50:53.813Z</time></trkpt><trkpt lat="41.8236383" lon="13.0104283"><ele>246.0</ele><time>2026-04-11T13:50:54.811Z</time></trkpt><trkpt lat="41.8234933" lon="13.0103083"><ele>246.5</ele><time>2026-04-11T13:50:55.811Z</time></trkpt><trkpt lat="41.8233583" lon="13.010195"><ele>247.0</ele><time>2026-04-11T13:50:56.814Z</time></trkpt><trkpt lat="41.82324" lon="13.010085"><ele>247.5</ele><time>2026-04-11T13:50:57.815Z</time></trkpt><trkpt lat="41.8231283" lon="13.0099867"><ele>248.0</ele><time>2026-04-11T13:50:58.814Z</time></trkpt><trkpt lat="41.8230283" lon="13.0098917"><ele>248.0</ele><time>2026-04-11T13:50:59.814Z</time></trkpt><trkpt lat="41.822945" lon="13.0098"><ele>248.0</ele><time>2026-04-11T13:51:00.811Z</time></trkpt><trkpt lat="41.82288" lon="13.0097033"><ele>248.0</ele><time>2026-04-11T13:51:01.814Z</time></trkpt><trkpt lat="41.822825" lon="13.0095983"><ele>248.0</ele><time>2026-04-11T13:51:02.814Z</time></trkpt><trkpt lat="41.8227817" lon="13.0094833"><ele>248.0</ele><time>2026-04-11T13:51:03.81Z</time></trkpt><trkpt lat="41.82275" lon="13.00936"><ele>248.0</ele><time>2026-04-11T13:51:04.815Z</time></trkpt><trkpt lat="41.8227317" lon="13.0092217"><ele>248.0</ele><time>2026-04-11T13:51:05.814Z</time></trkpt><trkpt lat="41.82273" lon="13.0090767"><ele>248.0</ele><time>2026-04-11T13:51:06.81Z</time></trkpt><trkpt lat="41.822735" lon="13.0089233"><ele>248.0</ele><time>2026-04-11T13:51:07.814Z</time></trkpt><trkpt lat="41.8227433" lon="13.0087667"><ele>248.0</ele><time>2026-04-11T13:51:08.814Z</time></trkpt><trkpt lat="41.8227467" lon="13.0086117"><ele>248.25</ele><time>2026-04-11T13:51:09.813Z</time></trkpt><trkpt lat="41.8227433" lon="13.0084617"><ele>248.5</ele><time>2026-04-11T13:51:10.814Z</time></trkpt><trkpt lat="41.8227283" lon="13.0083083"><ele>248.75</ele><time>2026-04-11T13:51:11.811Z</time></trkpt><trkpt lat="41.8227067" lon="13.0081533"><ele>249.0</ele><time>2026-04-11T13:51:12.811Z</time></trkpt><trkpt lat="41.8226867" lon="13.00799"><ele>248.0</ele><time>2026-04-11T13:51:13.811Z</time></trkpt><trkpt lat="41.822675" lon="13.0078117"><ele>247.0</ele><time>2026-04-11T13:51:14.811Z</time></trkpt><trkpt lat="41.8226667" lon="13.0076217"><ele>246.0</ele><time>2026-04-11T13:51:15.816Z</time></trkpt><trkpt lat="41.8226567" lon="13.0074283"><ele>245.0</ele><time>2026-04-11T13:51:16.811Z</time></trkpt><trkpt lat="41.822645" lon="13.007235"><ele>245.0</ele><time>2026-04-11T13:51:17.813Z</time></trkpt><trkpt lat="41.822635" lon="13.0070267"><ele>245.0</ele><time>2026-04-11T13:51:18.811Z</time></trkpt><trkpt lat="41.8226217" lon="13.006805"><ele>245.0</ele><time>2026-04-11T13:51:19.81Z</time></trkpt><trkpt lat="41.8226033" lon="13.0065683"><ele>245.66666666666669</ele><time>2026-04-11T13:51:20.81Z</time></trkpt><trkpt lat="41.8225817" lon="13.0063183"><ele>246.33333333333331</ele><time>2026-04-11T13:51:21.811Z</time></trkpt><trkpt lat="41.822555" lon="13.0060583"><ele>247.0</ele><time>2026-04-11T13:51:22.812Z</time></trkpt><trkpt lat="41.8225217" lon="13.005785"><ele>247.66666666666666</ele><time>2026-04-11T13:51:23.812Z</time></trkpt><trkpt lat="41.8224867" lon="13.0055083"><ele>248.33333333333331</ele><time>2026-04-11T13:51:24.811Z</time></trkpt><trkpt lat="41.8224517" lon="13.0052333"><ele>249.0</ele><time>2026-04-11T13:51:25.81Z</time></trkpt><trkpt lat="41.8224183" lon="13.0049617"><ele>250.33333333333331</ele><time>2026-04-11T13:51:26.811Z</time></trkpt><trkpt lat="41.822385" lon="13.0046883"><ele>251.66666666666666</ele><time>2026-04-11T13:51:27.81Z</time></trkpt><trkpt lat="41.8223467" lon="13.0044167"><ele>253.0</ele><time>2026-04-11T13:51:28.81Z</time></trkpt><trkpt lat="41.8223" lon="13.0041583"><ele>254.0</ele><time>2026-04-11T13:51:29.813Z</time></trkpt><trkpt lat="41.8222483" lon="13.003915"><ele>255.0</ele><time>2026-04-11T13:51:30.813Z</time></trkpt><trkpt lat="41.8221783" lon="13.0036783"><ele>256.0</ele><time>2026-04-11T13:51:31.814Z</time></trkpt><trkpt lat="41.8220917" lon="13.0034433"><ele>255.0</ele><time>2026-04-11T13:51:32.814Z</time></trkpt><trkpt lat="41.82199" lon="13.00321"><ele>254.0</ele><time>2026-04-11T13:51:33.814Z</time></trkpt><trkpt lat="41.8218833" lon="13.0029767"><ele>253.0</ele><time>2026-04-11T13:51:34.814Z</time></trkpt><trkpt lat="41.8217767" lon="13.0027483"><ele>253.0</ele><time>2026-04-11T13:51:35.814Z</time></trkpt><trkpt lat="41.8216733" lon="13.0025183"><ele>253.0</ele><time>2026-04-11T13:51:36.813Z</time></trkpt><trkpt lat="41.82157" lon="13.0022983"><ele>253.0</ele><time>2026-04-11T13:51:37.814Z</time></trkpt><trkpt lat="41.82147" lon="13.0020717"><ele>254.0</ele><time>2026-04-11T13:51:38.814Z</time></trkpt><trkpt lat="41.8213683" lon="13.0018467"><ele>255.0</ele><time>2026-04-11T13:51:39.813Z</time></trkpt><trkpt lat="41.821265" lon="13.00162"><ele>256.0</ele><time>2026-04-11T13:51:40.814Z</time></trkpt><trkpt lat="41.8211633" lon="13.0013983"><ele>256.3333333333333</ele><time>2026-04-11T13:51:41.814Z</time></trkpt><trkpt lat="41.8210633" lon="13.00118"><ele>256.6666666666667</ele><time>2026-04-11T13:51:42.813Z</time></trkpt><trkpt lat="41.820965" lon="13.000965"><ele>257.0</ele><time>2026-04-11T13:51:43.812Z</time></trkpt><trkpt lat="41.820865" lon="13.00075"><ele>257.33333333333337</ele><time>2026-04-11T13:51:44.813Z</time></trkpt><trkpt lat="41.8207633" lon="13.0005383"><ele>257.6666666666667</ele><time>2026-04-11T13:51:45.815Z</time></trkpt><trkpt lat="41.820665" lon="13.00033"><ele>258.0</ele><time>2026-04-11T13:51:46.813Z</time></trkpt><trkpt lat="41.82056" lon="13.0001233"><ele>258.0</ele><time>2026-04-11T13:51:47.813Z</time></trkpt><trkpt lat="41.8204533" lon="12.999915"><ele>258.0</ele><time>2026-04-11T13:51:48.809Z</time></trkpt><trkpt lat="41.820345" lon="12.9997067"><ele>258.0</ele><time>2026-04-11T13:51:49.81Z</time></trkpt><trkpt lat="41.82024" lon="12.9995017"><ele>257.3333333333333</ele><time>2026-04-11T13:51:50.812Z</time></trkpt><trkpt lat="41.8201417" lon="12.9993117"><ele>256.66666666666663</ele><time>2026-04-11T13:51:51.81Z</time></trkpt><trkpt lat="41.8200533" lon="12.999125"><ele>256.0</ele><time>2026-04-11T13:51:52.81Z</time></trkpt><trkpt lat="41.819975" lon="12.9989417"><ele>256.0</ele><time>2026-04-11T13:51:53.813Z</time></trkpt><trkpt lat="41.8199133" lon="12.99876"><ele>256.0</ele><time>2026-04-11T13:51:54.809Z</time></trkpt><trkpt lat="41.8198667" lon="12.998575"><ele>256.0</ele><time>2026-04-11T13:51:55.81Z</time></trkpt><trkpt lat="41.819835" lon="12.9983867"><ele>256.0</ele><time>2026-04-11T13:51:56.81Z</time></trkpt><trkpt lat="41.8198183" lon="12.9982"><ele>256.25</ele><time>2026-04-11T13:51:57.81Z</time></trkpt><trkpt lat="41.81981" lon="12.9980167"><ele>256.5</ele><time>2026-04-11T13:51:58.811Z</time></trkpt><trkpt lat="41.8198033" lon="12.9978233"><ele>256.75</ele><time>2026-04-11T13:51:59.813Z</time></trkpt><trkpt lat="41.8197967" lon="12.9976217"><ele>257.0</ele><time>2026-04-11T13:52:00.812Z</time></trkpt><trkpt lat="41.81979" lon="12.9974083"><ele>257.0</ele><time>2026-04-11T13:52:01.813Z</time></trkpt><trkpt lat="41.8197817" lon="12.9971867"><ele>257.0</ele><time>2026-04-11T13:52:02.813Z</time></trkpt><trkpt lat="41.819775" lon="12.9969567"><ele>257.0</ele><time>2026-04-11T13:52:03.813Z</time></trkpt><trkpt lat="41.8197683" lon="12.9967233"><ele>257.0</ele><time>2026-04-11T13:52:04.813Z</time></trkpt><trkpt lat="41.8197617" lon="12.9964833"><ele>257.0</ele><time>2026-04-11T13:52:05.813Z</time></trkpt><trkpt lat="41.8197567" lon="12.99624"><ele>257.0</ele><time>2026-04-11T13:52:06.812Z</time></trkpt><trkpt lat="41.81975" lon="12.9959883"><ele>256.33333333333337</ele><time>2026-04-11T13:52:07.813Z</time></trkpt><trkpt lat="41.8197417" lon="12.99574"><ele>255.66666666666669</ele><time>2026-04-11T13:52:08.813Z</time></trkpt><trkpt lat="41.8197333" lon="12.9955183"><ele>255.0</ele><time>2026-04-11T13:52:09.814Z</time></trkpt><trkpt lat="41.8197267" lon="12.9953317"><ele>255.0</ele><time>2026-04-11T13:52:10.818Z</time></trkpt><trkpt lat="41.81972" lon="12.995165"><ele>255.0</ele><time>2026-04-11T13:52:11.813Z</time></trkpt><trkpt lat="41.8197133" lon="12.9950067"><ele>255.0</ele><time>2026-04-11T13:52:12.816Z</time></trkpt><trkpt lat="41.81971" lon="12.9948433"><ele>255.0</ele><time>2026-04-11T13:52:13.813Z</time></trkpt><trkpt lat="41.8197067" lon="12.9946717"><ele>255.25</ele><time>2026-04-11T13:52:14.812Z</time></trkpt><trkpt lat="41.8197017" lon="12.9944817"><ele>255.5</ele><time>2026-04-11T13:52:15.813Z</time></trkpt><trkpt lat="41.8196967" lon="12.99428"><ele>255.75</ele><time>2026-04-11T13:52:16.813Z</time></trkpt><trkpt lat="41.81969" lon="12.9940717"><ele>256.0</ele><time>2026-04-11T13:52:17.813Z</time></trkpt><trkpt lat="41.8196833" lon="12.993855"><ele>257.3333333333333</ele><time>2026-04-11T13:52:18.809Z</time></trkpt><trkpt lat="41.8196767" lon="12.9936367"><ele>258.6666666666667</ele><time>2026-04-11T13:52:19.81Z</time></trkpt><trkpt lat="41.8196717" lon="12.9934183"><ele>260.0</ele><time>2026-04-11T13:52:20.811Z</time></trkpt><trkpt lat="41.8196633" lon="12.9931933"><ele>260.6666666666667</ele><time>2026-04-11T13:52:21.808Z</time></trkpt><trkpt lat="41.8196517" lon="12.9929617"><ele>261.3333333333333</ele><time>2026-04-11T13:52:22.815Z</time></trkpt><trkpt lat="41.81964" lon="12.99272"><ele>262.0</ele><time>2026-04-11T13:52:23.809Z</time></trkpt><trkpt lat="41.8196317" lon="12.9924683"><ele>263.0</ele><time>2026-04-11T13:52:24.808Z</time></trkpt><trkpt lat="41.8196233" lon="12.992215"><ele>264.0</ele><time>2026-04-11T13:52:25.809Z</time></trkpt><trkpt lat="41.819615" lon="12.9919633"><ele>265.0</ele><time>2026-04-11T13:52:26.811Z</time></trkpt><trkpt lat="41.81961" lon="12.9917167"><ele>266.0</ele><time>2026-04-11T13:52:27.81Z</time></trkpt><trkpt lat="41.819605" lon="12.9914733"><ele>267.0</ele><time>2026-04-11T13:52:28.813Z</time></trkpt><trkpt lat="41.8195983" lon="12.991235"><ele>268.0</ele><time>2026-04-11T13:52:29.813Z</time></trkpt><trkpt lat="41.8195917" lon="12.991"><ele>268.3333333333333</ele><time>2026-04-11T13:52:30.813Z</time></trkpt><trkpt lat="41.8195833" lon="12.99077"><ele>268.6666666666667</ele><time>2026-04-11T13:52:31.812Z</time></trkpt><trkpt lat="41.8195767" lon="12.9905433"><ele>269.0</ele><time>2026-04-11T13:52:32.812Z</time></trkpt><trkpt lat="41.8195667" lon="12.9903117"><ele>269.0</ele><time>2026-04-11T13:52:33.812Z</time></trkpt><trkpt lat="41.8195567" lon="12.9900783"><ele>269.0</ele><time>2026-04-11T13:52:34.813Z</time></trkpt><trkpt lat="41.8195433" lon="12.9898367"><ele>269.0</ele><time>2026-04-11T13:52:35.812Z</time></trkpt><trkpt lat="41.819525" lon="12.9895883"><ele>269.33333333333337</ele><time>2026-04-11T13:52:36.813Z</time></trkpt><trkpt lat="41.8195" lon="12.989335"><ele>269.6666666666667</ele><time>2026-04-11T13:52:37.813Z</time></trkpt><trkpt lat="41.8194667" lon="12.989075"><ele>270.0</ele><time>2026-04-11T13:52:38.812Z</time></trkpt><trkpt lat="41.8194333" lon="12.9888083"><ele>270.0</ele><time>2026-04-11T13:52:39.813Z</time></trkpt><trkpt lat="41.819395" lon="12.988535"><ele>270.0</ele><time>2026-04-11T13:52:40.813Z</time></trkpt><trkpt lat="41.8193533" lon="12.9882533"><ele>270.0</ele><time>2026-04-11T13:52:41.813Z</time></trkpt><trkpt lat="41.8193117" lon="12.9879767"><ele>271.6666666666667</ele><time>2026-04-11T13:52:42.813Z</time></trkpt><trkpt lat="41.81927" lon="12.9877033"><ele>273.33333333333337</ele><time>2026-04-11T13:52:43.812Z</time></trkpt><trkpt lat="41.8192267" lon="12.987425"><ele>275.0</ele><time>2026-04-11T13:52:44.813Z</time></trkpt><trkpt lat="41.8191783" lon="12.98714"><ele>275.0</ele><time>2026-04-11T13:52:45.813Z</time></trkpt><trkpt lat="41.81913" lon="12.9868483"><ele>275.0</ele><time>2026-04-11T13:52:46.812Z</time></trkpt><trkpt lat="41.8190783" lon="12.98656"><ele>275.0</ele><time>2026-04-11T13:52:47.81Z</time></trkpt><trkpt lat="41.81903" lon="12.9862817"><ele>275.33333333333337</ele><time>2026-04-11T13:52:48.811Z</time></trkpt><trkpt lat="41.818985" lon="12.9860133"><ele>275.6666666666667</ele><time>2026-04-11T13:52:49.809Z</time></trkpt><trkpt lat="41.81894" lon="12.9857533"><ele>276.0</ele><time>2026-04-11T13:52:50.816Z</time></trkpt><trkpt lat="41.8188883" lon="12.9855017"><ele>277.0</ele><time>2026-04-11T13:52:51.81Z</time></trkpt><trkpt lat="41.8188317" lon="12.9852617"><ele>278.0</ele><time>2026-04-11T13:52:52.811Z</time></trkpt><trkpt lat="41.8187667" lon="12.9850317"><ele>279.0</ele><time>2026-04-11T13:52:53.811Z</time></trkpt><trkpt lat="41.8187017" lon="12.9848083"><ele>279.0</ele><time>2026-04-11T13:52:54.81Z</time></trkpt><trkpt lat="41.81864" lon="12.9845917"><ele>279.0</ele><time>2026-04-11T13:52:55.809Z</time></trkpt><trkpt lat="41.8185883" lon="12.9843683"><ele>279.0</ele><time>2026-04-11T13:52:56.81Z</time></trkpt><trkpt lat="41.8185517" lon="12.9841333"><ele>278.3333333333333</ele><time>2026-04-11T13:52:57.814Z</time></trkpt><trkpt lat="41.8185267" lon="12.9838833"><ele>277.66666666666663</ele><time>2026-04-11T13:52:58.81Z</time></trkpt><trkpt lat="41.8185033" lon="12.9836217"><ele>277.0</ele><time>2026-04-11T13:52:59.813Z</time></trkpt><trkpt lat="41.818485" lon="12.9833533"><ele>278.66666666666663</ele><time>2026-04-11T13:53:00.813Z</time></trkpt><trkpt lat="41.818465" lon="12.983085"><ele>280.3333333333333</ele><time>2026-04-11T13:53:01.812Z</time></trkpt><trkpt lat="41.8184417" lon="12.982825"><ele>282.0</ele><time>2026-04-11T13:53:02.812Z</time></trkpt><trkpt lat="41.818415" lon="12.9825733"><ele>282.3333333333333</ele><time>2026-04-11T13:53:03.813Z</time></trkpt><trkpt lat="41.81839" lon="12.9823217"><ele>282.66666666666663</ele><time>2026-04-11T13:53:04.813Z</time></trkpt><trkpt lat="41.818365" lon="12.9820717"><ele>283.0</ele><time>2026-04-11T13:53:05.813Z</time></trkpt><trkpt lat="41.81834" lon="12.9818233"><ele>283.0</ele><time>2026-04-11T13:53:06.812Z</time></trkpt><trkpt lat="41.8183133" lon="12.981575"><ele>283.0</ele><time>2026-04-11T13:53:07.813Z</time></trkpt><trkpt lat="41.8182917" lon="12.98133"><ele>283.0</ele><time>2026-04-11T13:53:08.813Z</time></trkpt><trkpt lat="41.81827" lon="12.9810867"><ele>284.3333333333333</ele><time>2026-04-11T13:53:09.813Z</time></trkpt><trkpt lat="41.8182517" lon="12.98084"><ele>285.6666666666667</ele><time>2026-04-11T13:53:10.813Z</time></trkpt><trkpt lat="41.8182317" lon="12.9806067"><ele>287.0</ele><time>2026-04-11T13:53:11.81Z</time></trkpt><trkpt lat="41.81821" lon="12.9803867"><ele>287.0</ele><time>2026-04-11T13:53:12.813Z</time></trkpt><trkpt lat="41.8181883" lon="12.9801633"><ele>287.0</ele><time>2026-04-11T13:53:13.813Z</time></trkpt><trkpt lat="41.8181717" lon="12.979935"><ele>287.0</ele><time>2026-04-11T13:53:14.809Z</time></trkpt><trkpt lat="41.8181533" lon="12.979705"><ele>287.6666666666667</ele><time>2026-04-11T13:53:15.81Z</time></trkpt><trkpt lat="41.8181433" lon="12.9794833"><ele>288.3333333333333</ele><time>2026-04-11T13:53:16.81Z</time></trkpt><trkpt lat="41.8181383" lon="12.9792683"><ele>289.0</ele><time>2026-04-11T13:53:17.81Z</time></trkpt><trkpt lat="41.818135" lon="12.979055"><ele>289.0</ele><time>2026-04-11T13:53:18.81Z</time></trkpt><trkpt lat="41.8181367" lon="12.97884"><ele>289.0</ele><time>2026-04-11T13:53:19.813Z</time></trkpt><trkpt lat="41.8181333" lon="12.9786167"><ele>289.0</ele><time>2026-04-11T13:53:20.81Z</time></trkpt><trkpt lat="41.8181267" lon="12.97839"><ele>289.66666666666663</ele><time>2026-04-11T13:53:21.809Z</time></trkpt><trkpt lat="41.8181217" lon="12.978165"><ele>290.3333333333333</ele><time>2026-04-11T13:53:22.81Z</time></trkpt><trkpt lat="41.818115" lon="12.9779367"><ele>291.0</ele><time>2026-04-11T13:53:23.81Z</time></trkpt><trkpt lat="41.81811" lon="12.9777067"><ele>291.6666666666667</ele><time>2026-04-11T13:53:24.818Z</time></trkpt><trkpt lat="41.81811" lon="12.977475"><ele>292.33333333333337</ele><time>2026-04-11T13:53:25.812Z</time></trkpt><trkpt lat="41.818115" lon="12.9772417"><ele>293.0</ele><time>2026-04-11T13:53:26.813Z</time></trkpt><trkpt lat="41.8181217" lon="12.9770133"><ele>293.0</ele><time>2026-04-11T13:53:27.813Z</time></trkpt><trkpt lat="41.8181267" lon="12.97679"><ele>293.0</ele><time>2026-04-11T13:53:28.813Z</time></trkpt><trkpt lat="41.8181283" lon="12.9765683"><ele>293.0</ele><time>2026-04-11T13:53:29.813Z</time></trkpt><trkpt lat="41.81813" lon="12.9763533"><ele>293.33333333333337</ele><time>2026-04-11T13:53:30.816Z</time></trkpt><trkpt lat="41.8181333" lon="12.9761467"><ele>293.6666666666667</ele><time>2026-04-11T13:53:31.813Z</time></trkpt><trkpt lat="41.818135" lon="12.9759433"><ele>294.0</ele><time>2026-04-11T13:53:32.813Z</time></trkpt><trkpt lat="41.8181417" lon="12.97574"><ele>294.0</ele><time>2026-04-11T13:53:33.814Z</time></trkpt><trkpt lat="41.8181467" lon="12.9755317"><ele>294.0</ele><time>2026-04-11T13:53:34.812Z</time></trkpt><trkpt lat="41.8181517" lon="12.9753183"><ele>294.0</ele><time>2026-04-11T13:53:35.813Z</time></trkpt><trkpt lat="41.818165" lon="12.9751033"><ele>294.6666666666667</ele><time>2026-04-11T13:53:36.813Z</time></trkpt><trkpt lat="41.8181817" lon="12.97489"><ele>295.33333333333337</ele><time>2026-04-11T13:53:37.813Z</time></trkpt><trkpt lat="41.8182083" lon="12.97468"><ele>296.0</ele><time>2026-04-11T13:53:38.813Z</time></trkpt><trkpt lat="41.8182383" lon="12.97448"><ele>296.0</ele><time>2026-04-11T13:53:39.813Z</time></trkpt><trkpt lat="41.8182733" lon="12.9742933"><ele>296.0</ele><time>2026-04-11T13:53:40.813Z</time></trkpt><trkpt lat="41.818315" lon="12.9741183"><ele>296.0</ele><time>2026-04-11T13:53:41.813Z</time></trkpt><trkpt lat="41.8183733" lon="12.9739517"><ele>296.0</ele><time>2026-04-11T13:53:42.814Z</time></trkpt><trkpt lat="41.8184617" lon="12.9738"><ele>296.0</ele><time>2026-04-11T13:53:43.813Z</time></trkpt><trkpt lat="41.818575" lon="12.9736667"><ele>296.0</ele><time>2026-04-11T13:53:44.813Z</time></trkpt><trkpt lat="41.8187017" lon="12.9735467"><ele>296.0</ele><time>2026-04-11T13:53:45.813Z</time></trkpt><trkpt lat="41.8188283" lon="12.97344"><ele>296.75</ele><time>2026-04-11T13:53:46.813Z</time></trkpt><trkpt lat="41.8189517" lon="12.9733383"><ele>297.5</ele><time>2026-04-11T13:53:47.811Z</time></trkpt><trkpt lat="41.81908" lon="12.973235"><ele>298.25</ele><time>2026-04-11T13:53:48.809Z</time></trkpt><trkpt lat="41.8192067" lon="12.973135"><ele>299.0</ele><time>2026-04-11T13:53:49.81Z</time></trkpt><trkpt lat="41.819335" lon="12.9730383"><ele>299.0</ele><time>2026-04-11T13:53:50.809Z</time></trkpt><trkpt lat="41.8194633" lon="12.9729367"><ele>299.0</ele><time>2026-04-11T13:53:51.809Z</time></trkpt><trkpt lat="41.8195933" lon="12.9728383"><ele>299.0</ele><time>2026-04-11T13:53:52.81Z</time></trkpt><trkpt lat="41.8197267" lon="12.97274"><ele>299.0</ele><time>2026-04-11T13:53:53.81Z</time></trkpt><trkpt lat="41.8198633" lon="12.972645"><ele>299.0</ele><time>2026-04-11T13:53:54.812Z</time></trkpt><trkpt lat="41.82" lon="12.9725467"><ele>299.0</ele><time>2026-04-11T13:53:55.812Z</time></trkpt><trkpt lat="41.8201433" lon="12.9724533"><ele>299.0</ele><time>2026-04-11T13:53:56.813Z</time></trkpt><trkpt lat="41.8202867" lon="12.9723617"><ele>299.0</ele><time>2026-04-11T13:53:57.81Z</time></trkpt><trkpt lat="41.8204183" lon="12.97227"><ele>299.0</ele><time>2026-04-11T13:53:58.813Z</time></trkpt><trkpt lat="41.8205467" lon="12.9721767"><ele>299.0</ele><time>2026-04-11T13:53:59.813Z</time></trkpt><trkpt lat="41.82067" lon="12.97208"><ele>299.0</ele><time>2026-04-11T13:54:00.808Z</time></trkpt><trkpt lat="41.8207983" lon="12.9719833"><ele>299.0</ele><time>2026-04-11T13:54:01.814Z</time></trkpt><trkpt lat="41.82093" lon="12.971885"><ele>299.0</ele><time>2026-04-11T13:54:02.815Z</time></trkpt><trkpt lat="41.8210683" lon="12.9717833"><ele>300.0</ele><time>2026-04-11T13:54:03.814Z</time></trkpt><trkpt lat="41.82121" lon="12.9716817"><ele>301.0</ele><time>2026-04-11T13:54:04.813Z</time></trkpt><trkpt lat="41.821355" lon="12.971585"><ele>302.0</ele><time>2026-04-11T13:54:05.812Z</time></trkpt><trkpt lat="41.821495" lon="12.97149"><ele>302.0</ele><time>2026-04-11T13:54:06.812Z</time></trkpt><trkpt lat="41.82163" lon="12.9713933"><ele>302.0</ele><time>2026-04-11T13:54:07.813Z</time></trkpt><trkpt lat="41.8217667" lon="12.971295"><ele>302.0</ele><time>2026-04-11T13:54:08.813Z</time></trkpt><trkpt lat="41.8219" lon="12.9712033"><ele>301.75</ele><time>2026-04-11T13:54:09.814Z</time></trkpt><trkpt lat="41.82203" lon="12.971115"><ele>301.5</ele><time>2026-04-11T13:54:10.809Z</time></trkpt><trkpt lat="41.8221633" lon="12.9710283"><ele>301.25</ele><time>2026-04-11T13:54:11.814Z</time></trkpt><trkpt lat="41.8222967" lon="12.9709433"><ele>301.0</ele><time>2026-04-11T13:54:12.812Z</time></trkpt><trkpt lat="41.8224317" lon="12.9708533"><ele>302.0</ele><time>2026-04-11T13:54:13.812Z</time></trkpt><trkpt lat="41.8225683" lon="12.9707633"><ele>303.0</ele><time>2026-04-11T13:54:14.812Z</time></trkpt><trkpt lat="41.8226967" lon="12.9706717"><ele>304.0</ele><time>2026-04-11T13:54:15.81Z</time></trkpt><trkpt lat="41.8228233" lon="12.9705833"><ele>305.0</ele><time>2026-04-11T13:54:16.81Z</time></trkpt><trkpt lat="41.8229517" lon="12.9704967"><ele>305.0</ele><time>2026-04-11T13:54:17.813Z</time></trkpt><trkpt lat="41.8230817" lon="12.9704133"><ele>305.0</ele><time>2026-04-11T13:54:18.81Z</time></trkpt><trkpt lat="41.8232183" lon="12.9703317"><ele>305.0</ele><time>2026-04-11T13:54:19.81Z</time></trkpt><trkpt lat="41.8233583" lon="12.97025"><ele>305.0</ele><time>2026-04-11T13:54:20.811Z</time></trkpt><trkpt lat="41.8234967" lon="12.970165"><ele>305.25</ele><time>2026-04-11T13:54:21.816Z</time></trkpt><trkpt lat="41.82363" lon="12.970085"><ele>305.5</ele><time>2026-04-11T13:54:22.81Z</time></trkpt><trkpt lat="41.8237617" lon="12.9700117"><ele>305.75</ele><time>2026-04-11T13:54:23.81Z</time></trkpt><trkpt lat="41.8238883" lon="12.969935"><ele>306.0</ele><time>2026-04-11T13:54:24.813Z</time></trkpt><trkpt lat="41.8240117" lon="12.9698667"><ele>306.75</ele><time>2026-04-11T13:54:25.813Z</time></trkpt><trkpt lat="41.8241317" lon="12.969805"><ele>307.5</ele><time>2026-04-11T13:54:26.813Z</time></trkpt><trkpt lat="41.82424" lon="12.9697567"><ele>308.25</ele><time>2026-04-11T13:54:27.813Z</time></trkpt><trkpt lat="41.824345" lon="12.9697233"><ele>309.0</ele><time>2026-04-11T13:54:28.81Z</time></trkpt><trkpt lat="41.8244433" lon="12.9697"><ele>309.28571428571433</ele><time>2026-04-11T13:54:29.81Z</time></trkpt><trkpt lat="41.8245317" lon="12.9696867"><ele>309.57142857142856</ele><time>2026-04-11T13:54:30.81Z</time></trkpt><trkpt lat="41.82461" lon="12.9696817"><ele>309.8571428571429</ele><time>2026-04-11T13:54:31.812Z</time></trkpt><trkpt lat="41.82468" lon="12.969685"><ele>310.14285714285717</ele><time>2026-04-11T13:54:32.811Z</time></trkpt><trkpt lat="41.8247483" lon="12.969695"><ele>310.42857142857144</ele><time>2026-04-11T13:54:33.809Z</time></trkpt><trkpt lat="41.8248167" lon="12.9697067"><ele>310.7142857142857</ele><time>2026-04-11T13:54:34.81Z</time></trkpt><trkpt lat="41.8248833" lon="12.9697133"><ele>311.0</ele><time>2026-04-11T13:54:35.81Z</time></trkpt><trkpt lat="41.82495" lon="12.9697"><ele>311.0</ele><time>2026-04-11T13:54:36.809Z</time></trkpt><trkpt lat="41.825015" lon="12.969675"><ele>311.0</ele><time>2026-04-11T13:54:37.81Z</time></trkpt><trkpt lat="41.82507" lon="12.9696233"><ele>311.0</ele><time>2026-04-11T13:54:38.809Z</time></trkpt><trkpt lat="41.8251233" lon="12.96957"><ele>311.0</ele><time>2026-04-11T13:54:39.809Z</time></trkpt><trkpt lat="41.82513" lon="12.9694617"><ele>311.0</ele><time>2026-04-11T13:54:41.811Z</time></trkpt><trkpt lat="41.8250333" lon="12.9694067"><ele>311.0</ele><time>2026-04-11T13:54:42.811Z</time></trkpt><trkpt lat="41.82493" lon="12.96938"><ele>311.0</ele><time>2026-04-11T13:54:43.81Z</time></trkpt><trkpt lat="41.82484" lon="12.96936"><ele>311.0</ele><time>2026-04-11T13:54:44.81Z</time></trkpt><trkpt lat="41.8247583" lon="12.96934"><ele>311.0</ele><time>2026-04-11T13:54:45.809Z</time></trkpt><trkpt lat="41.8246667" lon="12.9693267"><ele>311.0</ele><time>2026-04-11T13:54:46.812Z</time></trkpt><trkpt lat="41.824575" lon="12.9693183"><ele>311.0</ele><time>2026-04-11T13:54:47.813Z</time></trkpt><trkpt lat="41.82448" lon="12.9693117"><ele>311.0</ele><time>2026-04-11T13:54:48.813Z</time></trkpt><trkpt lat="41.824385" lon="12.9693067"><ele>311.0</ele><time>2026-04-11T13:54:49.812Z</time></trkpt><trkpt lat="41.824285" lon="12.9693"><ele>311.0</ele><time>2026-04-11T13:54:50.813Z</time></trkpt><trkpt lat="41.82418" lon="12.9692933"><ele>311.0</ele><time>2026-04-11T13:54:51.813Z</time></trkpt><trkpt lat="41.8240733" lon="12.96928"><ele>311.0</ele><time>2026-04-11T13:54:52.812Z</time></trkpt><trkpt lat="41.8239583" lon="12.9692717"><ele>311.0</ele><time>2026-04-11T13:54:53.812Z</time></trkpt><trkpt lat="41.8238333" lon="12.9692683"><ele>311.0</ele><time>2026-04-11T13:54:54.812Z</time></trkpt><trkpt lat="41.823695" lon="12.96928"><ele>311.0</ele><time>2026-04-11T13:54:55.813Z</time></trkpt><trkpt lat="41.82356" lon="12.969305"><ele>311.0</ele><time>2026-04-11T13:54:56.813Z</time></trkpt><trkpt lat="41.8234217" lon="12.969345"><ele>311.0</ele><time>2026-04-11T13:54:57.814Z</time></trkpt><trkpt lat="41.82327" lon="12.96938"><ele>311.0</ele><time>2026-04-11T13:54:58.813Z</time></trkpt><trkpt lat="41.8231133" lon="12.9693967"><ele>311.0</ele><time>2026-04-11T13:54:59.813Z</time></trkpt><trkpt lat="41.8229433" lon="12.9693867"><ele>311.0</ele><time>2026-04-11T13:55:00.812Z</time></trkpt><trkpt lat="41.8227633" lon="12.969345"><ele>311.0</ele><time>2026-04-11T13:55:01.813Z</time></trkpt><trkpt lat="41.8225933" lon="12.969295"><ele>311.0</ele><time>2026-04-11T13:55:02.813Z</time></trkpt><trkpt lat="41.8224467" lon="12.9692433"><ele>316.5</ele><time>2026-04-11T13:55:03.813Z</time></trkpt><trkpt lat="41.8223183" lon="12.9691683"><ele>322.0</ele><time>2026-04-11T13:55:04.814Z</time></trkpt><trkpt lat="41.8222033" lon="12.969055"><ele>327.5</ele><time>2026-04-11T13:55:05.812Z</time></trkpt><trkpt lat="41.822105" lon="12.968895"><ele>333.0</ele><time>2026-04-11T13:55:06.812Z</time></trkpt><trkpt lat="41.8220283" lon="12.9687017"><ele>333.0</ele><time>2026-04-11T13:55:07.813Z</time></trkpt><trkpt lat="41.82197" lon="12.9684867"><ele>333.0</ele><time>2026-04-11T13:55:08.812Z</time></trkpt><trkpt lat="41.8219133" lon="12.9682683"><ele>333.0</ele><time>2026-04-11T13:55:09.813Z</time></trkpt><trkpt lat="41.8218533" lon="12.9680533"><ele>333.3333333333333</ele><time>2026-04-11T13:55:10.81Z</time></trkpt><trkpt lat="41.8217883" lon="12.9678367"><ele>333.66666666666663</ele><time>2026-04-11T13:55:11.813Z</time></trkpt><trkpt lat="41.8217083" lon="12.967625"><ele>334.0</ele><time>2026-04-11T13:55:12.813Z</time></trkpt><trkpt lat="41.82161" lon="12.96742"><ele>337.3333333333333</ele><time>2026-04-11T13:55:13.812Z</time></trkpt><trkpt lat="41.8214933" lon="12.9672233"><ele>340.6666666666667</ele><time>2026-04-11T13:55:14.812Z</time></trkpt><trkpt lat="41.8213683" lon="12.9670333"><ele>344.0</ele><time>2026-04-11T13:55:15.813Z</time></trkpt><trkpt lat="41.8212483" lon="12.9668467"><ele>345.33333333333337</ele><time>2026-04-11T13:55:16.813Z</time></trkpt><trkpt lat="41.8211267" lon="12.9666583"><ele>346.6666666666667</ele><time>2026-04-11T13:55:17.812Z</time></trkpt><trkpt lat="41.8210067" lon="12.9664733"><ele>348.0</ele><time>2026-04-11T13:55:18.814Z</time></trkpt><trkpt lat="41.820885" lon="12.9663033"><ele>348.0</ele><time>2026-04-11T13:55:19.814Z</time></trkpt><trkpt lat="41.8207733" lon="12.9661233"><ele>348.0</ele><time>2026-04-11T13:55:20.817Z</time></trkpt><trkpt lat="41.82068" lon="12.9659267"><ele>348.0</ele><time>2026-04-11T13:55:21.813Z</time></trkpt><trkpt lat="41.8206133" lon="12.9657033"><ele>350.0</ele><time>2026-04-11T13:55:22.813Z</time></trkpt><trkpt lat="41.8205817" lon="12.9654617"><ele>352.0</ele><time>2026-04-11T13:55:23.812Z</time></trkpt><trkpt lat="41.8205817" lon="12.965205"><ele>354.0</ele><time>2026-04-11T13:55:24.812Z</time></trkpt><trkpt lat="41.8206033" lon="12.9649433"><ele>355.6666666666667</ele><time>2026-04-11T13:55:25.813Z</time></trkpt><trkpt lat="41.820625" lon="12.9646867"><ele>357.33333333333337</ele><time>2026-04-11T13:55:26.813Z</time></trkpt><trkpt lat="41.8206433" lon="12.9644367"><ele>359.0</ele><time>2026-04-11T13:55:27.812Z</time></trkpt><trkpt lat="41.8206567" lon="12.96419"><ele>359.6666666666667</ele><time>2026-04-11T13:55:28.815Z</time></trkpt><trkpt lat="41.8206717" lon="12.9639533"><ele>360.3333333333333</ele><time>2026-04-11T13:55:29.813Z</time></trkpt><trkpt lat="41.820685" lon="12.9637233"><ele>361.0</ele><time>2026-04-11T13:55:30.813Z</time></trkpt><trkpt lat="41.820695" lon="12.9634883"><ele>360.66666666666663</ele><time>2026-04-11T13:55:31.812Z</time></trkpt><trkpt lat="41.8207" lon="12.9632533"><ele>360.3333333333333</ele><time>2026-04-11T13:55:32.813Z</time></trkpt><trkpt lat="41.8206983" lon="12.9630117"><ele>360.0</ele><time>2026-04-11T13:55:33.81Z</time></trkpt><trkpt lat="41.8206833" lon="12.96277"><ele>360.3333333333333</ele><time>2026-04-11T13:55:34.809Z</time></trkpt><trkpt lat="41.820655" lon="12.9625267"><ele>360.66666666666663</ele><time>2026-04-11T13:55:35.81Z</time></trkpt><trkpt lat="41.8206217" lon="12.96228"><ele>361.0</ele><time>2026-04-11T13:55:36.809Z</time></trkpt><trkpt lat="41.8205917" lon="12.9620283"><ele>361.0</ele><time>2026-04-11T13:55:37.81Z</time></trkpt><trkpt lat="41.8205683" lon="12.961775"><ele>361.0</ele><time>2026-04-11T13:55:38.81Z</time></trkpt><trkpt lat="41.820545" lon="12.9615183"><ele>361.0</ele><time>2026-04-11T13:55:39.81Z</time></trkpt><trkpt lat="41.8205217" lon="12.9612633"><ele>362.3333333333333</ele><time>2026-04-11T13:55:40.81Z</time></trkpt><trkpt lat="41.8205067" lon="12.9610083"><ele>363.6666666666667</ele><time>2026-04-11T13:55:41.811Z</time></trkpt><trkpt lat="41.8205017" lon="12.9607567"><ele>365.0</ele><time>2026-04-11T13:55:42.813Z</time></trkpt><trkpt lat="41.8205083" lon="12.960505"><ele>365.6666666666667</ele><time>2026-04-11T13:55:43.814Z</time></trkpt><trkpt lat="41.82051" lon="12.9602517"><ele>366.3333333333333</ele><time>2026-04-11T13:55:44.813Z</time></trkpt><trkpt lat="41.8204983" lon="12.9599967"><ele>367.0</ele><time>2026-04-11T13:55:45.813Z</time></trkpt><trkpt lat="41.8204683" lon="12.9597483"><ele>368.3333333333333</ele><time>2026-04-11T13:55:46.813Z</time></trkpt><trkpt lat="41.8204183" lon="12.9595017"><ele>369.6666666666667</ele><time>2026-04-11T13:55:47.813Z</time></trkpt><trkpt lat="41.8203567" lon="12.9592667"><ele>371.0</ele><time>2026-04-11T13:55:48.809Z</time></trkpt><trkpt lat="41.8202833" lon="12.9590333"><ele>371.0</ele><time>2026-04-11T13:55:49.813Z</time></trkpt><trkpt lat="41.8202083" lon="12.9587967"><ele>371.0</ele><time>2026-04-11T13:55:50.813Z</time></trkpt><trkpt lat="41.820135" lon="12.9585583"><ele>371.0</ele><time>2026-04-11T13:55:51.812Z</time></trkpt><trkpt lat="41.820065" lon="12.958315"><ele>371.0</ele><time>2026-04-11T13:55:52.813Z</time></trkpt><trkpt lat="41.82" lon="12.95807"><ele>371.0</ele><time>2026-04-11T13:55:53.813Z</time></trkpt><trkpt lat="41.81995" lon="12.9578183"><ele>371.0</ele><time>2026-04-11T13:55:54.809Z</time></trkpt><trkpt lat="41.8199167" lon="12.9575583"><ele>371.6666666666667</ele><time>2026-04-11T13:55:55.812Z</time></trkpt><trkpt lat="41.8198967" lon="12.9572933"><ele>372.3333333333333</ele><time>2026-04-11T13:55:56.81Z</time></trkpt><trkpt lat="41.819885" lon="12.95703"><ele>373.0</ele><time>2026-04-11T13:55:57.814Z</time></trkpt><trkpt lat="41.8198733" lon="12.9567683"><ele>373.3333333333333</ele><time>2026-04-11T13:55:58.812Z</time></trkpt><trkpt lat="41.8198583" lon="12.9565117"><ele>373.6666666666667</ele><time>2026-04-11T13:55:59.813Z</time></trkpt><trkpt lat="41.8198417" lon="12.9562567"><ele>374.0</ele><time>2026-04-11T13:56:00.81Z</time></trkpt><trkpt lat="41.8198283" lon="12.9559933"><ele>374.6666666666667</ele><time>2026-04-11T13:56:01.813Z</time></trkpt><trkpt lat="41.819815" lon="12.9557283"><ele>375.3333333333333</ele><time>2026-04-11T13:56:02.81Z</time></trkpt><trkpt lat="41.8198033" lon="12.9554633"><ele>376.0</ele><time>2026-04-11T13:56:03.81Z</time></trkpt><trkpt lat="41.8197933" lon="12.9551967"><ele>376.3333333333333</ele><time>2026-04-11T13:56:04.813Z</time></trkpt><trkpt lat="41.81978" lon="12.954925"><ele>376.6666666666667</ele><time>2026-04-11T13:56:05.813Z</time></trkpt><trkpt lat="41.8197683" lon="12.954655"><ele>377.0</ele><time>2026-04-11T13:56:06.812Z</time></trkpt><trkpt lat="41.8197583" lon="12.9543867"><ele>377.6666666666667</ele><time>2026-04-11T13:56:07.813Z</time></trkpt><trkpt lat="41.8197483" lon="12.9541217"><ele>378.3333333333333</ele><time>2026-04-11T13:56:08.812Z</time></trkpt><trkpt lat="41.8197367" lon="12.9538667"><ele>379.0</ele><time>2026-04-11T13:56:09.813Z</time></trkpt><trkpt lat="41.8197267" lon="12.9536233"><ele>379.0</ele><time>2026-04-11T13:56:10.813Z</time></trkpt><trkpt lat="41.81972" lon="12.9533917"><ele>379.0</ele><time>2026-04-11T13:56:11.812Z</time></trkpt><trkpt lat="41.81971" lon="12.9531717"><ele>379.0</ele><time>2026-04-11T13:56:12.812Z</time></trkpt><trkpt lat="41.8196967" lon="12.95296"><ele>379.66666666666663</ele><time>2026-04-11T13:56:13.814Z</time></trkpt><trkpt lat="41.8196817" lon="12.9527533"><ele>380.3333333333333</ele><time>2026-04-11T13:56:14.814Z</time></trkpt><trkpt lat="41.8196683" lon="12.9525467"><ele>381.0</ele><time>2026-04-11T13:56:15.813Z</time></trkpt><trkpt lat="41.8196583" lon="12.9523367"><ele>381.6666666666667</ele><time>2026-04-11T13:56:16.813Z</time></trkpt><trkpt lat="41.81965" lon="12.9521283"><ele>382.33333333333337</ele><time>2026-04-11T13:56:17.812Z</time></trkpt><trkpt lat="41.81964" lon="12.9519167"><ele>383.0</ele><time>2026-04-11T13:56:18.813Z</time></trkpt><trkpt lat="41.81963" lon="12.951705"><ele>383.33333333333337</ele><time>2026-04-11T13:56:19.813Z</time></trkpt><trkpt lat="41.8196167" lon="12.95149"><ele>383.6666666666667</ele><time>2026-04-11T13:56:20.813Z</time></trkpt><trkpt lat="41.819605" lon="12.9512767"><ele>384.0</ele><time>2026-04-11T13:56:21.813Z</time></trkpt><trkpt lat="41.8195917" lon="12.951065"><ele>383.75</ele><time>2026-04-11T13:56:22.813Z</time></trkpt><trkpt lat="41.8195817" lon="12.9508633"><ele>383.5</ele><time>2026-04-11T13:56:23.813Z</time></trkpt><trkpt lat="41.8195733" lon="12.9506733"><ele>383.25</ele><time>2026-04-11T13:56:24.812Z</time></trkpt><trkpt lat="41.8195667" lon="12.9504967"><ele>383.0</ele><time>2026-04-11T13:56:25.813Z</time></trkpt><trkpt lat="41.81956" lon="12.9503317"><ele>383.0</ele><time>2026-04-11T13:56:26.813Z</time></trkpt><trkpt lat="41.819555" lon="12.95017"><ele>383.0</ele><time>2026-04-11T13:56:27.813Z</time></trkpt><trkpt lat="41.8195483" lon="12.9500133"><ele>383.0</ele><time>2026-04-11T13:56:28.813Z</time></trkpt><trkpt lat="41.81954" lon="12.9498633"><ele>383.0</ele><time>2026-04-11T13:56:29.813Z</time></trkpt><trkpt lat="41.8195333" lon="12.9497133"><ele>383.0</ele><time>2026-04-11T13:56:30.813Z</time></trkpt><trkpt lat="41.8195267" lon="12.9495667"><ele>383.0</ele><time>2026-04-11T13:56:31.813Z</time></trkpt><trkpt lat="41.8195233" lon="12.9494167"><ele>383.0</ele><time>2026-04-11T13:56:32.813Z</time></trkpt><trkpt lat="41.8195233" lon="12.9492667"><ele>383.0</ele><time>2026-04-11T13:56:33.812Z</time></trkpt><trkpt lat="41.8195267" lon="12.9491117"><ele>383.0</ele><time>2026-04-11T13:56:34.813Z</time></trkpt><trkpt lat="41.819525" lon="12.9489533"><ele>383.25</ele><time>2026-04-11T13:56:35.813Z</time></trkpt><trkpt lat="41.819515" lon="12.9487933"><ele>383.5</ele><time>2026-04-11T13:56:36.813Z</time></trkpt><trkpt lat="41.8195067" lon="12.94863"><ele>383.75</ele><time>2026-04-11T13:56:37.813Z</time></trkpt><trkpt lat="41.8195" lon="12.9484633"><ele>384.0</ele><time>2026-04-11T13:56:38.813Z</time></trkpt><trkpt lat="41.819495" lon="12.9482983"><ele>384.0</ele><time>2026-04-11T13:56:39.813Z</time></trkpt><trkpt lat="41.81949" lon="12.9481333"><ele>384.0</ele><time>2026-04-11T13:56:40.813Z</time></trkpt><trkpt lat="41.8194867" lon="12.9479733"><ele>384.0</ele><time>2026-04-11T13:56:41.81Z</time></trkpt><trkpt lat="41.8194833" lon="12.9478083"><ele>384.0</ele><time>2026-04-11T13:56:42.812Z</time></trkpt><trkpt lat="41.8194767" lon="12.9476433"><ele>383.5</ele><time>2026-04-11T13:56:43.812Z</time></trkpt><trkpt lat="41.8194717" lon="12.9474817"><ele>383.0</ele><time>2026-04-11T13:56:44.809Z</time></trkpt><trkpt lat="41.8194733" lon="12.9473233"><ele>382.5</ele><time>2026-04-11T13:56:45.81Z</time></trkpt><trkpt lat="41.81948" lon="12.9471733"><ele>382.0</ele><time>2026-04-11T13:56:46.813Z</time></trkpt><trkpt lat="41.8194817" lon="12.9470283"><ele>382.0</ele><time>2026-04-11T13:56:47.812Z</time></trkpt><trkpt lat="41.8194783" lon="12.9468883"><ele>382.0</ele><time>2026-04-11T13:56:48.813Z</time></trkpt><trkpt lat="41.81947" lon="12.9467417"><ele>382.0</ele><time>2026-04-11T13:56:49.813Z</time></trkpt><trkpt lat="41.81946" lon="12.9465933"><ele>382.0</ele><time>2026-04-11T13:56:50.812Z</time></trkpt><trkpt lat="41.8194483" lon="12.9464383"><ele>382.0</ele><time>2026-04-11T13:56:51.813Z</time></trkpt><trkpt lat="41.8194367" lon="12.9462817"><ele>382.75</ele><time>2026-04-11T13:56:52.813Z</time></trkpt><trkpt lat="41.8194267" lon="12.9461167"><ele>383.5</ele><time>2026-04-11T13:56:53.813Z</time></trkpt><trkpt lat="41.8194183" lon="12.9459517"><ele>384.25</ele><time>2026-04-11T13:56:54.81Z</time></trkpt><trkpt lat="41.8194083" lon="12.94578"><ele>385.0</ele><time>2026-04-11T13:56:55.813Z</time></trkpt><trkpt lat="41.8193983" lon="12.94561"><ele>385.0</ele><time>2026-04-11T13:56:56.809Z</time></trkpt><trkpt lat="41.8193883" lon="12.94544"><ele>385.0</ele><time>2026-04-11T13:56:57.813Z</time></trkpt><trkpt lat="41.8193783" lon="12.94527"><ele>385.0</ele><time>2026-04-11T13:56:58.809Z</time></trkpt><trkpt lat="41.8193733" lon="12.94509"><ele>385.0</ele><time>2026-04-11T13:56:59.813Z</time></trkpt><trkpt lat="41.81937" lon="12.9448917"><ele>385.0</ele><time>2026-04-11T13:57:00.814Z</time></trkpt><trkpt lat="41.81937" lon="12.944675"><ele>385.0</ele><time>2026-04-11T13:57:01.818Z</time></trkpt><trkpt lat="41.81938" lon="12.944445"><ele>385.0</ele><time>2026-04-11T13:57:02.81Z</time></trkpt><trkpt lat="41.8194017" lon="12.9442067"><ele>384.6666666666667</ele><time>2026-04-11T13:57:03.813Z</time></trkpt><trkpt lat="41.819425" lon="12.94398"><ele>384.33333333333337</ele><time>2026-04-11T13:57:04.812Z</time></trkpt><trkpt lat="41.8194483" lon="12.9437483"><ele>384.0</ele><time>2026-04-11T13:57:05.81Z</time></trkpt><trkpt lat="41.8194683" lon="12.9435167"><ele>383.3333333333333</ele><time>2026-04-11T13:57:06.812Z</time></trkpt><trkpt lat="41.8194833" lon="12.943285"><ele>382.66666666666663</ele><time>2026-04-11T13:57:07.813Z</time></trkpt><trkpt lat="41.8194967" lon="12.94305"><ele>382.0</ele><time>2026-04-11T13:57:08.813Z</time></trkpt><trkpt lat="41.8195067" lon="12.942815"><ele>382.0</ele><time>2026-04-11T13:57:09.813Z</time></trkpt><trkpt lat="41.81952" lon="12.9425767"><ele>382.0</ele><time>2026-04-11T13:57:10.814Z</time></trkpt><trkpt lat="41.819535" lon="12.9423383"><ele>382.0</ele><time>2026-04-11T13:57:11.813Z</time></trkpt><trkpt lat="41.8195533" lon="12.9420967"><ele>381.3333333333333</ele><time>2026-04-11T13:57:12.813Z</time></trkpt><trkpt lat="41.8195833" lon="12.94186"><ele>380.6666666666667</ele><time>2026-04-11T13:57:13.813Z</time></trkpt><trkpt lat="41.819625" lon="12.9416267"><ele>380.0</ele><time>2026-04-11T13:57:14.814Z</time></trkpt><trkpt lat="41.81968" lon="12.9414017"><ele>379.0</ele><time>2026-04-11T13:57:15.813Z</time></trkpt><trkpt lat="41.819755" lon="12.941185"><ele>378.0</ele><time>2026-04-11T13:57:16.813Z</time></trkpt><trkpt lat="41.8198433" lon="12.9409783"><ele>377.0</ele><time>2026-04-11T13:57:17.81Z</time></trkpt><trkpt lat="41.8199367" lon="12.9407767"><ele>375.6666666666667</ele><time>2026-04-11T13:57:18.813Z</time></trkpt><trkpt lat="41.8200233" lon="12.9405783"><ele>374.3333333333333</ele><time>2026-04-11T13:57:19.813Z</time></trkpt><trkpt lat="41.82011" lon="12.9403883"><ele>373.0</ele><time>2026-04-11T13:57:20.81Z</time></trkpt><trkpt lat="41.8202083" lon="12.94021"><ele>371.66666666666663</ele><time>2026-04-11T13:57:21.81Z</time></trkpt><trkpt lat="41.8203267" lon="12.9400467"><ele>370.3333333333333</ele><time>2026-04-11T13:57:22.81Z</time></trkpt><trkpt lat="41.820455" lon="12.9399"><ele>369.0</ele><time>2026-04-11T13:57:23.809Z</time></trkpt><trkpt lat="41.820585" lon="12.9397717"><ele>369.0</ele><time>2026-04-11T13:57:24.81Z</time></trkpt><trkpt lat="41.8206933" lon="12.939635"><ele>369.0</ele><time>2026-04-11T13:57:25.812Z</time></trkpt><trkpt lat="41.820775" lon="12.939475"><ele>369.0</ele><time>2026-04-11T13:57:26.813Z</time></trkpt><trkpt lat="41.8208233" lon="12.939285"><ele>369.0</ele><time>2026-04-11T13:57:27.813Z</time></trkpt><trkpt lat="41.8208517" lon="12.9390717"><ele>368.6666666666667</ele><time>2026-04-11T13:57:28.812Z</time></trkpt><trkpt lat="41.82087" lon="12.9388483"><ele>368.33333333333337</ele><time>2026-04-11T13:57:29.813Z</time></trkpt><trkpt lat="41.82089" lon="12.9386233"><ele>368.0</ele><time>2026-04-11T13:57:30.814Z</time></trkpt><trkpt lat="41.82091" lon="12.9384"><ele>366.6666666666667</ele><time>2026-04-11T13:57:31.81Z</time></trkpt><trkpt lat="41.8209183" lon="12.9381733"><ele>365.3333333333333</ele><time>2026-04-11T13:57:32.812Z</time></trkpt><trkpt lat="41.8209083" lon="12.937945"><ele>364.0</ele><time>2026-04-11T13:57:33.813Z</time></trkpt><trkpt lat="41.82088" lon="12.9377233"><ele>365.66666666666663</ele><time>2026-04-11T13:57:34.81Z</time></trkpt><trkpt lat="41.8208317" lon="12.9375067"><ele>367.3333333333333</ele><time>2026-04-11T13:57:35.81Z</time></trkpt><trkpt lat="41.8207667" lon="12.9373"><ele>369.0</ele><time>2026-04-11T13:57:36.81Z</time></trkpt><trkpt lat="41.8206817" lon="12.93711"><ele>369.0</ele><time>2026-04-11T13:57:37.81Z</time></trkpt><trkpt lat="41.8205817" lon="12.9369383"><ele>369.0</ele><time>2026-04-11T13:57:38.81Z</time></trkpt><trkpt lat="41.8204667" lon="12.9367817"><ele>369.0</ele><time>2026-04-11T13:57:39.812Z</time></trkpt><trkpt lat="41.8203433" lon="12.9366433"><ele>371.3333333333333</ele><time>2026-04-11T13:57:40.812Z</time></trkpt><trkpt lat="41.8202033" lon="12.9365367"><ele>373.66666666666663</ele><time>2026-04-11T13:57:41.812Z</time></trkpt><trkpt lat="41.8200567" lon="12.936465"><ele>376.0</ele><time>2026-04-11T13:57:42.811Z</time></trkpt><trkpt lat="41.81992" lon="12.93641"><ele>376.0</ele><time>2026-04-11T13:57:43.811Z</time></trkpt><trkpt lat="41.8197933" lon="12.9363467"><ele>376.0</ele><time>2026-04-11T13:57:44.81Z</time></trkpt><trkpt lat="41.81968" lon="12.936255"><ele>376.0</ele><time>2026-04-11T13:57:45.81Z</time></trkpt><trkpt lat="41.819575" lon="12.9361333"><ele>376.0</ele><time>2026-04-11T13:57:46.811Z</time></trkpt><trkpt lat="41.8194933" lon="12.93597"><ele>379.0</ele><time>2026-04-11T13:57:47.811Z</time></trkpt><trkpt lat="41.81944" lon="12.93579"><ele>382.0</ele><time>2026-04-11T13:57:48.811Z</time></trkpt><trkpt lat="41.8193983" lon="12.9355933"><ele>385.0</ele><time>2026-04-11T13:57:49.811Z</time></trkpt><trkpt lat="41.8193667" lon="12.9353867"><ele>385.0</ele><time>2026-04-11T13:57:50.812Z</time></trkpt><trkpt lat="41.8193367" lon="12.9351783"><ele>385.0</ele><time>2026-04-11T13:57:51.81Z</time></trkpt><trkpt lat="41.8193167" lon="12.9349883"><ele>385.0</ele><time>2026-04-11T13:57:52.809Z</time></trkpt><trkpt lat="41.8193083" lon="12.93481"><ele>385.0</ele><time>2026-04-11T13:57:53.811Z</time></trkpt><trkpt lat="41.8192867" lon="12.9346467"><ele>385.4</ele><time>2026-04-11T13:57:54.81Z</time></trkpt><trkpt lat="41.8192617" lon="12.9344883"><ele>385.8</ele><time>2026-04-11T13:57:55.809Z</time></trkpt><trkpt lat="41.819245" lon="12.934335"><ele>386.20000000000005</ele><time>2026-04-11T13:57:56.811Z</time></trkpt><trkpt lat="41.8192233" lon="12.934195"><ele>386.6</ele><time>2026-04-11T13:57:57.816Z</time></trkpt><trkpt lat="41.8192017" lon="12.93408"><ele>387.0</ele><time>2026-04-11T13:57:58.814Z</time></trkpt><trkpt lat="41.8191783" lon="12.9339817"><ele>387.5</ele><time>2026-04-11T13:57:59.81Z</time></trkpt><trkpt lat="41.8191533" lon="12.9338983"><ele>388.0</ele><time>2026-04-11T13:58:00.81Z</time></trkpt><trkpt lat="41.819125" lon="12.9338217"><ele>388.5</ele><time>2026-04-11T13:58:01.816Z</time></trkpt><trkpt lat="41.8190267" lon="12.93372"><ele>389.0</ele><time>2026-04-11T13:58:03.811Z</time></trkpt><trkpt lat="41.818945" lon="12.9337033"><ele>389.5</ele><time>2026-04-11T13:58:04.812Z</time></trkpt><trkpt lat="41.8188583" lon="12.9336883"><ele>390.0</ele><time>2026-04-11T13:58:05.811Z</time></trkpt><trkpt lat="41.81876" lon="12.9336867"><ele>390.0</ele><time>2026-04-11T13:58:06.811Z</time></trkpt><trkpt lat="41.81866" lon="12.9336933"><ele>390.0</ele><time>2026-04-11T13:58:07.811Z</time></trkpt><trkpt lat="41.81857" lon="12.93371"><ele>390.0</ele><time>2026-04-11T13:58:08.813Z</time></trkpt><trkpt lat="41.818485" lon="12.9337283"><ele>390.0</ele><time>2026-04-11T13:58:09.813Z</time></trkpt><trkpt lat="41.8184017" lon="12.9337317"><ele>390.0</ele><time>2026-04-11T13:58:10.812Z</time></trkpt><trkpt lat="41.818325" lon="12.9337333"><ele>390.0</ele><time>2026-04-11T13:58:11.81Z</time></trkpt><trkpt lat="41.8182517" lon="12.9337333"><ele>389.6666666666667</ele><time>2026-04-11T13:58:12.812Z</time></trkpt><trkpt lat="41.81817" lon="12.9337317"><ele>389.33333333333337</ele><time>2026-04-11T13:58:13.81Z</time></trkpt><trkpt lat="41.8180833" lon="12.9337267"><ele>389.0</ele><time>2026-04-11T13:58:14.811Z</time></trkpt><trkpt lat="41.8179983" lon="12.9337267"><ele>388.6666666666667</ele><time>2026-04-11T13:58:15.811Z</time></trkpt><trkpt lat="41.81791" lon="12.933715"><ele>388.33333333333337</ele><time>2026-04-11T13:58:16.813Z</time></trkpt><trkpt lat="41.81782" lon="12.933695"><ele>388.0</ele><time>2026-04-11T13:58:17.812Z</time></trkpt><trkpt lat="41.8177383" lon="12.9336767"><ele>388.0</ele><time>2026-04-11T13:58:18.812Z</time></trkpt><trkpt lat="41.81766" lon="12.933665"><ele>388.0</ele><time>2026-04-11T13:58:19.81Z</time></trkpt><trkpt lat="41.8175867" lon="12.9336417"><ele>388.0</ele><time>2026-04-11T13:58:20.811Z</time></trkpt><trkpt lat="41.8175217" lon="12.9336233"><ele>388.0</ele><time>2026-04-11T13:58:21.81Z</time></trkpt><trkpt lat="41.8174533" lon="12.933595"><ele>388.0</ele><time>2026-04-11T13:58:22.811Z</time></trkpt><trkpt lat="41.8173833" lon="12.93356"><ele>388.0</ele><time>2026-04-11T13:58:23.811Z</time></trkpt><trkpt lat="41.81731" lon="12.9335167"><ele>388.0</ele><time>2026-04-11T13:58:24.811Z</time></trkpt><trkpt lat="41.8172367" lon="12.9334667"><ele>387.83333333333337</ele><time>2026-04-11T13:58:25.811Z</time></trkpt><trkpt lat="41.8171667" lon="12.93342"><ele>387.6666666666667</ele><time>2026-04-11T13:58:26.811Z</time></trkpt><trkpt lat="41.8170917" lon="12.933385"><ele>387.5</ele><time>2026-04-11T13:58:27.814Z</time></trkpt><trkpt lat="41.8170167" lon="12.9333417"><ele>387.33333333333337</ele><time>2026-04-11T13:58:28.81Z</time></trkpt><trkpt lat="41.816945" lon="12.93329"><ele>387.1666666666667</ele><time>2026-04-11T13:58:29.812Z</time></trkpt><trkpt lat="41.8168867" lon="12.93324"><ele>387.0</ele><time>2026-04-11T13:58:30.814Z</time></trkpt><trkpt lat="41.816805" lon="12.9331633"><ele>387.0</ele><time>2026-04-11T13:58:32.815Z</time></trkpt><trkpt lat="41.8167383" lon="12.9330583"><ele>387.0</ele><time>2026-04-11T13:58:34.813Z</time></trkpt><trkpt lat="41.8166867" lon="12.9329367"><ele>387.0</ele><time>2026-04-11T13:58:36.814Z</time></trkpt><trkpt lat="41.8166567" lon="12.9328033"><ele>387.0</ele><time>2026-04-11T13:58:38.81Z</time></trkpt><trkpt lat="41.816625" lon="12.932645"><ele>387.0</ele><time>2026-04-11T13:58:40.809Z</time></trkpt><trkpt lat="41.8166067" lon="12.932555"><ele>387.0</ele><time>2026-04-11T13:58:41.81Z</time></trkpt><trkpt lat="41.8165867" lon="12.9324617"><ele>387.0</ele><time>2026-04-11T13:58:42.809Z</time></trkpt><trkpt lat="41.8165683" lon="12.9323617"><ele>387.0</ele><time>2026-04-11T13:58:43.81Z</time></trkpt><trkpt lat="41.8165467" lon="12.93226"><ele>387.0</ele><time>2026-04-11T13:58:44.813Z</time></trkpt><trkpt lat="41.816525" lon="12.9321533"><ele>387.0</ele><time>2026-04-11T13:58:45.813Z</time></trkpt><trkpt lat="41.8165017" lon="12.9320483"><ele>387.0</ele><time>2026-04-11T13:58:46.813Z</time></trkpt><trkpt lat="41.81648" lon="12.9319417"><ele>387.0</ele><time>2026-04-11T13:58:47.81Z</time></trkpt><trkpt lat="41.8164617" lon="12.9318433"><ele>387.0</ele><time>2026-04-11T13:58:48.81Z</time></trkpt><trkpt lat="41.816445" lon="12.931745"><ele>387.0</ele><time>2026-04-11T13:58:49.811Z</time></trkpt><trkpt lat="41.8164383" lon="12.9316517"><ele>387.0</ele><time>2026-04-11T13:58:50.81Z</time></trkpt><trkpt lat="41.8164417" lon="12.9315617"><ele>387.0</ele><time>2026-04-11T13:58:51.809Z</time></trkpt><trkpt lat="41.8164567" lon="12.9314683"><ele>387.0</ele><time>2026-04-11T13:58:52.81Z</time></trkpt><trkpt lat="41.8164767" lon="12.9313817"><ele>387.0</ele><time>2026-04-11T13:58:53.81Z</time></trkpt><trkpt lat="41.8165067" lon="12.9312867"><ele>387.0</ele><time>2026-04-11T13:58:54.812Z</time></trkpt><trkpt lat="41.8165417" lon="12.9311917"><ele>387.0</ele><time>2026-04-11T13:58:55.812Z</time></trkpt><trkpt lat="41.8165817" lon="12.9311033"><ele>387.0</ele><time>2026-04-11T13:58:56.814Z</time></trkpt><trkpt lat="41.8166333" lon="12.93101"><ele>387.0</ele><time>2026-04-11T13:58:57.813Z</time></trkpt><trkpt lat="41.8166867" lon="12.9309133"><ele>387.0</ele><time>2026-04-11T13:58:58.813Z</time></trkpt><trkpt lat="41.8167417" lon="12.9308183"><ele>387.0</ele><time>2026-04-11T13:58:59.812Z</time></trkpt><trkpt lat="41.8167917" lon="12.9307233"><ele>387.5</ele><time>2026-04-11T13:59:00.81Z</time></trkpt><trkpt lat="41.8168433" lon="12.930635"><ele>388.0</ele><time>2026-04-11T13:59:01.812Z</time></trkpt><trkpt lat="41.8168967" lon="12.93055"><ele>388.5</ele><time>2026-04-11T13:59:02.81Z</time></trkpt><trkpt lat="41.8169467" lon="12.9304583"><ele>389.0</ele><time>2026-04-11T13:59:03.81Z</time></trkpt><trkpt lat="41.8170017" lon="12.93037"><ele>389.5</ele><time>2026-04-11T13:59:04.813Z</time></trkpt><trkpt lat="41.8170583" lon="12.9302817"><ele>390.0</ele><time>2026-04-11T13:59:05.812Z</time></trkpt><trkpt lat="41.817115" lon="12.9302017"><ele>390.0</ele><time>2026-04-11T13:59:06.811Z</time></trkpt><trkpt lat="41.8171717" lon="12.9301217"><ele>390.0</ele><time>2026-04-11T13:59:07.812Z</time></trkpt><trkpt lat="41.81723" lon="12.9300433"><ele>390.0</ele><time>2026-04-11T13:59:08.813Z</time></trkpt><trkpt lat="41.8173017" lon="12.929975"><ele>390.0</ele><time>2026-04-11T13:59:09.812Z</time></trkpt><trkpt lat="41.8173733" lon="12.92991"><ele>390.0</ele><time>2026-04-11T13:59:10.81Z</time></trkpt><trkpt lat="41.8174483" lon="12.9298467"><ele>390.0</ele><time>2026-04-11T13:59:11.81Z</time></trkpt><trkpt lat="41.8175317" lon="12.9297867"><ele>389.4</ele><time>2026-04-11T13:59:12.813Z</time></trkpt><trkpt lat="41.8176183" lon="12.9297267"><ele>388.8</ele><time>2026-04-11T13:59:13.81Z</time></trkpt><trkpt lat="41.8177067" lon="12.9296683"><ele>388.20000000000005</ele><time>2026-04-11T13:59:14.81Z</time></trkpt><trkpt lat="41.8177933" lon="12.9296183"><ele>387.6</ele><time>2026-04-11T13:59:15.814Z</time></trkpt><trkpt lat="41.8178733" lon="12.9295683"><ele>387.0</ele><time>2026-04-11T13:59:16.813Z</time></trkpt><trkpt lat="41.817945" lon="12.9295133"><ele>387.0</ele><time>2026-04-11T13:59:17.809Z</time></trkpt><trkpt lat="41.8180067" lon="12.9294567"><ele>387.0</ele><time>2026-04-11T13:59:18.81Z</time></trkpt><trkpt lat="41.8180633" lon="12.9293833"><ele>387.0</ele><time>2026-04-11T13:59:19.81Z</time></trkpt><trkpt lat="41.8181133" lon="12.9292967"><ele>387.0</ele><time>2026-04-11T13:59:20.81Z</time></trkpt><trkpt lat="41.8181567" lon="12.9292017"><ele>387.0</ele><time>2026-04-11T13:59:21.809Z</time></trkpt><trkpt lat="41.8182083" lon="12.9291133"><ele>387.0</ele><time>2026-04-11T13:59:22.809Z</time></trkpt><trkpt lat="41.8182767" lon="12.9290367"><ele>387.40000000000003</ele><time>2026-04-11T13:59:23.81Z</time></trkpt><trkpt lat="41.8183517" lon="12.92897"><ele>387.8</ele><time>2026-04-11T13:59:24.813Z</time></trkpt><trkpt lat="41.818435" lon="12.9289183"><ele>388.2</ele><time>2026-04-11T13:59:25.813Z</time></trkpt><trkpt lat="41.81852" lon="12.9288717"><ele>388.6</ele><time>2026-04-11T13:59:26.815Z</time></trkpt><trkpt lat="41.8186" lon="12.9288233"><ele>389.0</ele><time>2026-04-11T13:59:27.813Z</time></trkpt><trkpt lat="41.8186833" lon="12.92878"><ele>389.0</ele><time>2026-04-11T13:59:28.812Z</time></trkpt><trkpt lat="41.81877" lon="12.928735"><ele>389.0</ele><time>2026-04-11T13:59:29.81Z</time></trkpt><trkpt lat="41.8188433" lon="12.92866"><ele>389.0</ele><time>2026-04-11T13:59:30.813Z</time></trkpt><trkpt lat="41.8189117" lon="12.9285717"><ele>389.0</ele><time>2026-04-11T13:59:31.813Z</time></trkpt><trkpt lat="41.818955" lon="12.9284583"><ele>389.0</ele><time>2026-04-11T13:59:32.814Z</time></trkpt><trkpt lat="41.8189833" lon="12.9283267"><ele>388.2</ele><time>2026-04-11T13:59:33.813Z</time></trkpt><trkpt lat="41.8190117" lon="12.928195"><ele>387.4</ele><time>2026-04-11T13:59:34.814Z</time></trkpt><trkpt lat="41.8190083" lon="12.92805"><ele>386.6</ele><time>2026-04-11T13:59:35.81Z</time></trkpt><trkpt lat="41.8190017" lon="12.927915"><ele>385.8</ele><time>2026-04-11T13:59:36.813Z</time></trkpt><trkpt lat="41.8190133" lon="12.9277917"><ele>385.0</ele><time>2026-04-11T13:59:37.813Z</time></trkpt><trkpt lat="41.8190317" lon="12.9276617"><ele>387.25</ele><time>2026-04-11T13:59:38.813Z</time></trkpt><trkpt lat="41.8190733" lon="12.9275317"><ele>389.5</ele><time>2026-04-11T13:59:39.813Z</time></trkpt><trkpt lat="41.81914" lon="12.927415"><ele>391.75</ele><time>2026-04-11T13:59:40.814Z</time></trkpt><trkpt lat="41.8192283" lon="12.927305"><ele>394.0</ele><time>2026-04-11T13:59:41.814Z</time></trkpt><trkpt lat="41.8193267" lon="12.9271967"><ele>394.0</ele><time>2026-04-11T13:59:42.813Z</time></trkpt><trkpt lat="41.8194283" lon="12.9270917"><ele>394.0</ele><time>2026-04-11T13:59:43.814Z</time></trkpt><trkpt lat="41.8195367" lon="12.926995"><ele>394.0</ele><time>2026-04-11T13:59:44.811Z</time></trkpt><trkpt lat="41.819655" lon="12.926915"><ele>394.0</ele><time>2026-04-11T13:59:45.81Z</time></trkpt><trkpt lat="41.81978" lon="12.9268433"><ele>394.0</ele><time>2026-04-11T13:59:46.814Z</time></trkpt><trkpt lat="41.81991" lon="12.92679"><ele>394.0</ele><time>2026-04-11T13:59:47.812Z</time></trkpt><trkpt lat="41.8200367" lon="12.9267383"><ele>394.0</ele><time>2026-04-11T13:59:48.81Z</time></trkpt><trkpt lat="41.8201517" lon="12.9266817"><ele>394.0</ele><time>2026-04-11T13:59:49.814Z</time></trkpt><trkpt lat="41.8202617" lon="12.9266317"><ele>390.6</ele><time>2026-04-11T13:59:50.813Z</time></trkpt><trkpt lat="41.8203667" lon="12.9265783"><ele>387.2</ele><time>2026-04-11T13:59:51.81Z</time></trkpt><trkpt lat="41.8204617" lon="12.9265167"><ele>383.8</ele><time>2026-04-11T13:59:52.813Z</time></trkpt><trkpt lat="41.8205583" lon="12.926455"><ele>380.40000000000003</ele><time>2026-04-11T13:59:53.812Z</time></trkpt><trkpt lat="41.8206533" lon="12.9263917"><ele>377.0</ele><time>2026-04-11T13:59:54.814Z</time></trkpt><trkpt lat="41.820745" lon="12.9263217"><ele>377.0</ele><time>2026-04-11T13:59:55.812Z</time></trkpt><trkpt lat="41.8208383" lon="12.926255"><ele>377.0</ele><time>2026-04-11T13:59:56.809Z</time></trkpt><trkpt lat="41.8209367" lon="12.9261967"><ele>377.0</ele><time>2026-04-11T13:59:57.813Z</time></trkpt><trkpt lat="41.8210367" lon="12.92615"><ele>377.0</ele><time>2026-04-11T13:59:58.81Z</time></trkpt><trkpt lat="41.8211433" lon="12.926125"><ele>377.0</ele><time>2026-04-11T13:59:59.81Z</time></trkpt><trkpt lat="41.8212517" lon="12.9261317"><ele>377.40000000000003</ele><time>2026-04-11T14:00:00.81Z</time></trkpt><trkpt lat="41.82136" lon="12.9261383"><ele>377.8</ele><time>2026-04-11T14:00:01.81Z</time></trkpt><trkpt lat="41.8214667" lon="12.9261333"><ele>378.2</ele><time>2026-04-11T14:00:02.81Z</time></trkpt><trkpt lat="41.8215733" lon="12.9261"><ele>378.6</ele><time>2026-04-11T14:00:03.81Z</time></trkpt><trkpt lat="41.82168" lon="12.926035"><ele>379.0</ele><time>2026-04-11T14:00:04.81Z</time></trkpt><trkpt lat="41.8217883" lon="12.9259567"><ele>372.5</ele><time>2026-04-11T14:00:05.81Z</time></trkpt><trkpt lat="41.8219" lon="12.9258883"><ele>366.0</ele><time>2026-04-11T14:00:06.809Z</time></trkpt><trkpt lat="41.82202" lon="12.9258467"><ele>359.5</ele><time>2026-04-11T14:00:07.809Z</time></trkpt><trkpt lat="41.8221483" lon="12.9258383"><ele>353.0</ele><time>2026-04-11T14:00:08.811Z</time></trkpt><trkpt lat="41.8222783" lon="12.9258617"><ele>360.0</ele><time>2026-04-11T14:00:09.812Z</time></trkpt><trkpt lat="41.8224067" lon="12.9258967"><ele>367.0</ele><time>2026-04-11T14:00:10.81Z</time></trkpt><trkpt lat="41.8225317" lon="12.9259267"><ele>374.0</ele><time>2026-04-11T14:00:11.813Z</time></trkpt><trkpt lat="41.8226517" lon="12.925955"><ele>381.0</ele><time>2026-04-11T14:00:12.812Z</time></trkpt><trkpt lat="41.82277" lon="12.9259833"><ele>381.0</ele><time>2026-04-11T14:00:13.813Z</time></trkpt><trkpt lat="41.8228833" lon="12.92601"><ele>381.0</ele><time>2026-04-11T14:00:14.813Z</time></trkpt><trkpt lat="41.822995" lon="12.9260367"><ele>381.0</ele><time>2026-04-11T14:00:15.81Z</time></trkpt><trkpt lat="41.823105" lon="12.9260683"><ele>381.0</ele><time>2026-04-11T14:00:16.809Z</time></trkpt><trkpt lat="41.82321" lon="12.9261017"><ele>381.0</ele><time>2026-04-11T14:00:17.81Z</time></trkpt><trkpt lat="41.82332" lon="12.9261467"><ele>381.0</ele><time>2026-04-11T14:00:18.81Z</time></trkpt><trkpt lat="41.82343" lon="12.9261967"><ele>381.0</ele><time>2026-04-11T14:00:19.81Z</time></trkpt><trkpt lat="41.8235417" lon="12.92626"><ele>381.0</ele><time>2026-04-11T14:00:20.813Z</time></trkpt><trkpt lat="41.8236567" lon="12.9263267"><ele>381.0</ele><time>2026-04-11T14:00:21.811Z</time></trkpt><trkpt lat="41.8237733" lon="12.9263917"><ele>378.0</ele><time>2026-04-11T14:00:22.811Z</time></trkpt><trkpt lat="41.8238917" lon="12.9264517"><ele>375.0</ele><time>2026-04-11T14:00:23.811Z</time></trkpt><trkpt lat="41.8240117" lon="12.9264967"><ele>372.0</ele><time>2026-04-11T14:00:24.811Z</time></trkpt><trkpt lat="41.82414" lon="12.926525"><ele>369.0</ele><time>2026-04-11T14:00:25.813Z</time></trkpt><trkpt lat="41.8242733" lon="12.9265533"><ele>364.75</ele><time>2026-04-11T14:00:26.812Z</time></trkpt><trkpt lat="41.82441" lon="12.9265867"><ele>360.5</ele><time>2026-04-11T14:00:27.814Z</time></trkpt><trkpt lat="41.8245433" lon="12.9266267"><ele>356.25</ele><time>2026-04-11T14:00:28.809Z</time></trkpt><trkpt lat="41.8246733" lon="12.92666"><ele>352.0</ele><time>2026-04-11T14:00:29.81Z</time></trkpt><trkpt lat="41.824805" lon="12.9267017"><ele>360.75</ele><time>2026-04-11T14:00:30.81Z</time></trkpt><trkpt lat="41.82494" lon="12.9267533"><ele>369.5</ele><time>2026-04-11T14:00:31.81Z</time></trkpt><trkpt lat="41.8250683" lon="12.9268033"><ele>378.25</ele><time>2026-04-11T14:00:32.81Z</time></trkpt><trkpt lat="41.8251917" lon="12.9268333"><ele>387.0</ele><time>2026-04-11T14:00:33.81Z</time></trkpt><trkpt lat="41.8253083" lon="12.9268417"><ele>387.0</ele><time>2026-04-11T14:00:34.81Z</time></trkpt><trkpt lat="41.825425" lon="12.9268217"><ele>387.0</ele><time>2026-04-11T14:00:35.809Z</time></trkpt><trkpt lat="41.825535" lon="12.9267583"><ele>387.0</ele><time>2026-04-11T14:00:36.81Z</time></trkpt><trkpt lat="41.82563" lon="12.9266617"><ele>387.0</ele><time>2026-04-11T14:00:37.81Z</time></trkpt><trkpt lat="41.8256983" lon="12.92653"><ele>379.75</ele><time>2026-04-11T14:00:38.811Z</time></trkpt><trkpt lat="41.82573" lon="12.9263683"><ele>372.5</ele><time>2026-04-11T14:00:39.81Z</time></trkpt><trkpt lat="41.8257317" lon="12.926185"><ele>365.25</ele><time>2026-04-11T14:00:40.81Z</time></trkpt><trkpt lat="41.825715" lon="12.9259917"><ele>358.0</ele><time>2026-04-11T14:00:41.812Z</time></trkpt><trkpt lat="41.8256917" lon="12.9258"><ele>352.25</ele><time>2026-04-11T14:00:42.813Z</time></trkpt><trkpt lat="41.8256667" lon="12.9256083"><ele>346.5</ele><time>2026-04-11T14:00:43.813Z</time></trkpt><trkpt lat="41.8256467" lon="12.9254233"><ele>340.75</ele><time>2026-04-11T14:00:44.812Z</time></trkpt><trkpt lat="41.8256283" lon="12.9252467"><ele>335.0</ele><time>2026-04-11T14:00:45.812Z</time></trkpt><trkpt lat="41.82561" lon="12.9250767"><ele>333.0</ele><time>2026-04-11T14:00:46.813Z</time></trkpt><trkpt lat="41.82559" lon="12.9249117"><ele>331.0</ele><time>2026-04-11T14:00:47.814Z</time></trkpt><trkpt lat="41.825565" lon="12.924745"><ele>329.0</ele><time>2026-04-11T14:00:48.812Z</time></trkpt><trkpt lat="41.8255417" lon="12.9245783"><ele>327.0</ele><time>2026-04-11T14:00:49.813Z</time></trkpt><trkpt lat="41.8255183" lon="12.9244133"><ele>327.0</ele><time>2026-04-11T14:00:50.816Z</time></trkpt><trkpt lat="41.825485" lon="12.924255"><ele>327.0</ele><time>2026-04-11T14:00:51.813Z</time></trkpt><trkpt lat="41.8254283" lon="12.9241133"><ele>327.0</ele><time>2026-04-11T14:00:52.812Z</time></trkpt><trkpt lat="41.8253483" lon="12.923995"><ele>327.0</ele><time>2026-04-11T14:00:53.813Z</time></trkpt><trkpt lat="41.8252533" lon="12.9239017"><ele>331.0</ele><time>2026-04-11T14:00:54.812Z</time></trkpt><trkpt lat="41.8251467" lon="12.9238233"><ele>335.0</ele><time>2026-04-11T14:00:55.813Z</time></trkpt><trkpt lat="41.8250367" lon="12.9237633"><ele>339.0</ele><time>2026-04-11T14:00:56.813Z</time></trkpt><trkpt lat="41.824915" lon="12.92374"><ele>343.0</ele><time>2026-04-11T14:00:57.813Z</time></trkpt><trkpt lat="41.8247917" lon="12.923755"><ele>343.4</ele><time>2026-04-11T14:00:58.812Z</time></trkpt><trkpt lat="41.8246767" lon="12.9238033"><ele>343.79999999999995</ele><time>2026-04-11T14:00:59.81Z</time></trkpt><trkpt lat="41.8245733" lon="12.92387"><ele>344.2</ele><time>2026-04-11T14:01:00.811Z</time></trkpt><trkpt lat="41.8244783" lon="12.9239233"><ele>344.6</ele><time>2026-04-11T14:01:01.809Z</time></trkpt><trkpt lat="41.82438" lon="12.923955"><ele>345.0</ele><time>2026-04-11T14:01:02.811Z</time></trkpt><trkpt lat="41.8242817" lon="12.92395"><ele>345.0</ele><time>2026-04-11T14:01:03.81Z</time></trkpt><trkpt lat="41.824185" lon="12.92391"><ele>345.0</ele><time>2026-04-11T14:01:04.811Z</time></trkpt><trkpt lat="41.8240917" lon="12.9238383"><ele>345.0</ele><time>2026-04-11T14:01:05.81Z</time></trkpt><trkpt lat="41.8240017" lon="12.92375"><ele>345.0</ele><time>2026-04-11T14:01:06.81Z</time></trkpt><trkpt lat="41.82391" lon="12.9236633"><ele>345.0</ele><time>2026-04-11T14:01:07.81Z</time></trkpt><trkpt lat="41.8238117" lon="12.92359"><ele>345.0</ele><time>2026-04-11T14:01:08.81Z</time></trkpt><trkpt lat="41.8237017" lon="12.92354"><ele>345.0</ele><time>2026-04-11T14:01:09.809Z</time></trkpt><trkpt lat="41.8235883" lon="12.9235167"><ele>345.0</ele><time>2026-04-11T14:01:10.811Z</time></trkpt><trkpt lat="41.8234683" lon="12.9235067"><ele>345.0</ele><time>2026-04-11T14:01:11.813Z</time></trkpt><trkpt lat="41.8233567" lon="12.9234967"><ele>342.8</ele><time>2026-04-11T14:01:12.813Z</time></trkpt><trkpt lat="41.8232517" lon="12.9234767"><ele>340.6</ele><time>2026-04-11T14:01:13.812Z</time></trkpt><trkpt lat="41.8231483" lon="12.9234483"><ele>338.4</ele><time>2026-04-11T14:01:14.809Z</time></trkpt><trkpt lat="41.8230467" lon="12.9234033"><ele>336.2</ele><time>2026-04-11T14:01:15.81Z</time></trkpt><trkpt lat="41.82295" lon="12.9233383"><ele>334.0</ele><time>2026-04-11T14:01:16.809Z</time></trkpt><trkpt lat="41.8228633" lon="12.923255"><ele>340.79999999999995</ele><time>2026-04-11T14:01:17.81Z</time></trkpt><trkpt lat="41.82279" lon="12.92315"><ele>347.59999999999997</ele><time>2026-04-11T14:01:18.81Z</time></trkpt><trkpt lat="41.8227383" lon="12.923025"><ele>354.4</ele><time>2026-04-11T14:01:19.81Z</time></trkpt><trkpt lat="41.8227083" lon="12.9228867"><ele>361.2</ele><time>2026-04-11T14:01:20.81Z</time></trkpt><trkpt lat="41.8227" lon="12.9227383"><ele>368.0</ele><time>2026-04-11T14:01:21.809Z</time></trkpt><trkpt lat="41.8227033" lon="12.92258"><ele>373.5</ele><time>2026-04-11T14:01:22.81Z</time></trkpt><trkpt lat="41.82271" lon="12.922425"><ele>379.0</ele><time>2026-04-11T14:01:23.81Z</time></trkpt><trkpt lat="41.82272" lon="12.92227"><ele>384.5</ele><time>2026-04-11T14:01:24.81Z</time></trkpt><trkpt lat="41.8227317" lon="12.922115"><ele>390.0</ele><time>2026-04-11T14:01:25.809Z</time></trkpt><trkpt lat="41.8227533" lon="12.9219633"><ele>390.0</ele><time>2026-04-11T14:01:26.811Z</time></trkpt><trkpt lat="41.8227917" lon="12.921815"><ele>390.0</ele><time>2026-04-11T14:01:27.81Z</time></trkpt><trkpt lat="41.8228433" lon="12.92167"><ele>390.0</ele><time>2026-04-11T14:01:28.81Z</time></trkpt><trkpt lat="41.8228983" lon="12.9215267"><ele>390.0</ele><time>2026-04-11T14:01:29.811Z</time></trkpt><trkpt lat="41.8229517" lon="12.921385"><ele>389.75</ele><time>2026-04-11T14:01:30.81Z</time></trkpt><trkpt lat="41.8230067" lon="12.9212383"><ele>389.5</ele><time>2026-04-11T14:01:31.811Z</time></trkpt><trkpt lat="41.82306" lon="12.9210933"><ele>389.25</ele><time>2026-04-11T14:01:32.81Z</time></trkpt><trkpt lat="41.823115" lon="12.9209483"><ele>389.0</ele><time>2026-04-11T14:01:33.81Z</time></trkpt><trkpt lat="41.823165" lon="12.9207967"><ele>386.5</ele><time>2026-04-11T14:01:34.812Z</time></trkpt><trkpt lat="41.8232183" lon="12.9206467"><ele>384.0</ele><time>2026-04-11T14:01:35.814Z</time></trkpt><trkpt lat="41.823265" lon="12.9204967"><ele>381.5</ele><time>2026-04-11T14:01:36.813Z</time></trkpt><trkpt lat="41.823315" lon="12.9203467"><ele>379.0</ele><time>2026-04-11T14:01:37.813Z</time></trkpt><trkpt lat="41.8233667" lon="12.9202017"><ele>376.2</ele><time>2026-04-11T14:01:38.813Z</time></trkpt><trkpt lat="41.8234217" lon="12.9200633"><ele>373.4</ele><time>2026-04-11T14:01:39.812Z</time></trkpt><trkpt lat="41.823475" lon="12.9199367"><ele>370.6</ele><time>2026-04-11T14:01:40.813Z</time></trkpt><trkpt lat="41.8235283" lon="12.9198183"><ele>367.8</ele><time>2026-04-11T14:01:41.813Z</time></trkpt><trkpt lat="41.8235883" lon="12.9197"><ele>365.0</ele><time>2026-04-11T14:01:42.813Z</time></trkpt><trkpt lat="41.8236583" lon="12.9195867"><ele>370.75</ele><time>2026-04-11T14:01:43.81Z</time></trkpt><trkpt lat="41.82373" lon="12.91947"><ele>376.5</ele><time>2026-04-11T14:01:44.81Z</time></trkpt><trkpt lat="41.8238067" lon="12.9193517"><ele>382.25</ele><time>2026-04-11T14:01:45.813Z</time></trkpt><trkpt lat="41.8238783" lon="12.9192267"><ele>388.0</ele><time>2026-04-11T14:01:46.812Z</time></trkpt><trkpt lat="41.8239533" lon="12.9191017"><ele>388.0</ele><time>2026-04-11T14:01:47.809Z</time></trkpt><trkpt lat="41.8240333" lon="12.918975"><ele>388.0</ele><time>2026-04-11T14:01:48.809Z</time></trkpt><trkpt lat="41.8241133" lon="12.9188483"><ele>388.0</ele><time>2026-04-11T14:01:49.81Z</time></trkpt><trkpt lat="41.8241983" lon="12.9187267"><ele>388.0</ele><time>2026-04-11T14:01:50.813Z</time></trkpt><trkpt lat="41.824295" lon="12.9186183"><ele>387.25</ele><time>2026-04-11T14:01:51.813Z</time></trkpt><trkpt lat="41.824405" lon="12.91853"><ele>386.5</ele><time>2026-04-11T14:01:52.811Z</time></trkpt><trkpt lat="41.824525" lon="12.9184667"><ele>385.75</ele><time>2026-04-11T14:01:53.811Z</time></trkpt><trkpt lat="41.8246517" lon="12.9184233"><ele>385.0</ele><time>2026-04-11T14:01:54.811Z</time></trkpt><trkpt lat="41.82478" lon="12.9184"><ele>385.0</ele><time>2026-04-11T14:01:55.812Z</time></trkpt><trkpt lat="41.824905" lon="12.91839"><ele>385.0</ele><time>2026-04-11T14:01:56.812Z</time></trkpt><trkpt lat="41.8250267" lon="12.9183833"><ele>385.0</ele><time>2026-04-11T14:01:57.813Z</time></trkpt><trkpt lat="41.8251467" lon="12.9183483"><ele>385.0</ele><time>2026-04-11T14:01:58.813Z</time></trkpt><trkpt lat="41.8252567" lon="12.9182717"><ele>386.6</ele><time>2026-04-11T14:01:59.813Z</time></trkpt><trkpt lat="41.8253483" lon="12.9181717"><ele>388.2</ele><time>2026-04-11T14:02:00.813Z</time></trkpt><trkpt lat="41.8254133" lon="12.9180583"><ele>389.79999999999995</ele><time>2026-04-11T14:02:01.809Z</time></trkpt><trkpt lat="41.825445" lon="12.9179367"><ele>391.4</ele><time>2026-04-11T14:02:02.902Z</time></trkpt><trkpt lat="41.8254617" lon="12.917815"><ele>393.0</ele><time>2026-04-11T14:02:03.809Z</time></trkpt><trkpt lat="41.82544" lon="12.9176867"><ele>393.59999999999997</ele><time>2026-04-11T14:02:04.811Z</time></trkpt><trkpt lat="41.825395" lon="12.91756"><ele>394.2</ele><time>2026-04-11T14:02:05.81Z</time></trkpt><trkpt lat="41.825325" lon="12.91744"><ele>394.8</ele><time>2026-04-11T14:02:06.81Z</time></trkpt><trkpt lat="41.82525" lon="12.91733"><ele>395.4</ele><time>2026-04-11T14:02:07.81Z</time></trkpt><trkpt lat="41.825185" lon="12.9172167"><ele>396.0</ele><time>2026-04-11T14:02:08.809Z</time></trkpt><trkpt lat="41.8251333" lon="12.91709"><ele>393.25</ele><time>2026-04-11T14:02:09.81Z</time></trkpt><trkpt lat="41.825105" lon="12.91695"><ele>390.5</ele><time>2026-04-11T14:02:10.81Z</time></trkpt><trkpt lat="41.8251" lon="12.9167867"><ele>387.75</ele><time>2026-04-11T14:02:11.812Z</time></trkpt><trkpt lat="41.8251167" lon="12.916615"><ele>385.0</ele><time>2026-04-11T14:02:12.813Z</time></trkpt><trkpt lat="41.8251417" lon="12.916435"><ele>390.75</ele><time>2026-04-11T14:02:13.81Z</time></trkpt><trkpt lat="41.825165" lon="12.916255"><ele>396.5</ele><time>2026-04-11T14:02:14.813Z</time></trkpt><trkpt lat="41.825195" lon="12.916065"><ele>402.25</ele><time>2026-04-11T14:02:15.812Z</time></trkpt><trkpt lat="41.8252417" lon="12.9158567"><ele>408.0</ele><time>2026-04-11T14:02:16.81Z</time></trkpt><trkpt lat="41.8253033" lon="12.9156417"><ele>409.0</ele><time>2026-04-11T14:02:17.81Z</time></trkpt><trkpt lat="41.82537" lon="12.9154217"><ele>410.0</ele><time>2026-04-11T14:02:18.81Z</time></trkpt><trkpt lat="41.8254417" lon="12.9151933"><ele>411.0</ele><time>2026-04-11T14:02:19.811Z</time></trkpt><trkpt lat="41.825515" lon="12.9149683"><ele>409.0</ele><time>2026-04-11T14:02:20.815Z</time></trkpt><trkpt lat="41.8255917" lon="12.9147617"><ele>407.0</ele><time>2026-04-11T14:02:21.809Z</time></trkpt><trkpt lat="41.825675" lon="12.9145717"><ele>405.0</ele><time>2026-04-11T14:02:22.81Z</time></trkpt><trkpt lat="41.8257667" lon="12.9143883"><ele>403.0</ele><time>2026-04-11T14:02:23.809Z</time></trkpt><trkpt lat="41.82587" lon="12.9142117"><ele>401.0</ele><time>2026-04-11T14:02:24.816Z</time></trkpt><trkpt lat="41.825975" lon="12.9140383"><ele>399.0</ele><time>2026-04-11T14:02:25.814Z</time></trkpt><trkpt lat="41.82608" lon="12.91388"><ele>403.33333333333337</ele><time>2026-04-11T14:02:26.813Z</time></trkpt><trkpt lat="41.82619" lon="12.913745"><ele>407.6666666666667</ele><time>2026-04-11T14:02:27.813Z</time></trkpt><trkpt lat="41.8263233" lon="12.91365"><ele>412.0</ele><time>2026-04-11T14:02:28.813Z</time></trkpt><trkpt lat="41.8264767" lon="12.913575"><ele>412.0</ele><time>2026-04-11T14:02:29.813Z</time></trkpt><trkpt lat="41.8266317" lon="12.9135217"><ele>412.0</ele><time>2026-04-11T14:02:30.81Z</time></trkpt><trkpt lat="41.826785" lon="12.9135033"><ele>412.0</ele><time>2026-04-11T14:02:31.813Z</time></trkpt><trkpt lat="41.8269317" lon="12.9135083"><ele>412.0</ele><time>2026-04-11T14:02:32.814Z</time></trkpt><trkpt lat="41.827075" lon="12.9135067"><ele>412.0</ele><time>2026-04-11T14:02:33.81Z</time></trkpt><trkpt lat="41.827205" lon="12.91349"><ele>412.0</ele><time>2026-04-11T14:02:34.809Z</time></trkpt><trkpt lat="41.8273267" lon="12.9134483"><ele>412.0</ele><time>2026-04-11T14:02:35.811Z</time></trkpt><trkpt lat="41.82743" lon="12.91336"><ele>409.75</ele><time>2026-04-11T14:02:36.81Z</time></trkpt><trkpt lat="41.82751" lon="12.9132383"><ele>407.5</ele><time>2026-04-11T14:02:37.81Z</time></trkpt><trkpt lat="41.8275517" lon="12.913095"><ele>405.25</ele><time>2026-04-11T14:02:38.814Z</time></trkpt><trkpt lat="41.8275467" lon="12.9129417"><ele>403.0</ele><time>2026-04-11T14:02:39.811Z</time></trkpt><trkpt lat="41.8274967" lon="12.9128"><ele>403.0</ele><time>2026-04-11T14:02:40.81Z</time></trkpt><trkpt lat="41.8274233" lon="12.912685"><ele>403.0</ele><time>2026-04-11T14:02:41.813Z</time></trkpt><trkpt lat="41.8273483" lon="12.9125867"><ele>403.0</ele><time>2026-04-11T14:02:42.813Z</time></trkpt><trkpt lat="41.8272817" lon="12.912505"><ele>403.0</ele><time>2026-04-11T14:02:43.813Z</time></trkpt><trkpt lat="41.827235" lon="12.9124417"><ele>403.0</ele><time>2026-04-11T14:02:44.813Z</time></trkpt><trkpt lat="41.82717" lon="12.9123483"><ele>405.2</ele><time>2026-04-11T14:02:46.812Z</time></trkpt><trkpt lat="41.827135" lon="12.9122583"><ele>407.4</ele><time>2026-04-11T14:02:49.809Z</time></trkpt><trkpt lat="41.8270967" lon="12.91212"><ele>409.59999999999997</ele><time>2026-04-11T14:04:07.812Z</time></trkpt><trkpt lat="41.827095" lon="12.91202"><ele>411.79999999999995</ele><time>2026-04-11T14:04:08.813Z</time></trkpt><trkpt lat="41.8271067" lon="12.9118933"><ele>414.0</ele><time>2026-04-11T14:04:09.813Z</time></trkpt><trkpt lat="41.8271433" lon="12.9117067"><ele>415.0</ele><time>2026-04-11T14:04:10.813Z</time></trkpt><trkpt lat="41.827225" lon="12.9114533"><ele>416.0</ele><time>2026-04-11T14:04:11.812Z</time></trkpt><trkpt lat="41.8273017" lon="12.9111717"><ele>417.0</ele><time>2026-04-11T14:04:12.813Z</time></trkpt><trkpt lat="41.82737" lon="12.9108733"><ele>417.0</ele><time>2026-04-11T14:04:13.813Z</time></trkpt><trkpt lat="41.8274167" lon="12.910565"><ele>417.0</ele><time>2026-04-11T14:04:14.813Z</time></trkpt><trkpt lat="41.827435" lon="12.9102483"><ele>417.0</ele><time>2026-04-11T14:04:15.813Z</time></trkpt><trkpt lat="41.8274417" lon="12.909955"><ele>417.0</ele><time>2026-04-11T14:04:16.81Z</time></trkpt><trkpt lat="41.82745" lon="12.9097033"><ele>417.0</ele><time>2026-04-11T14:04:17.809Z</time></trkpt><trkpt lat="41.8274617" lon="12.9094867"><ele>417.0</ele><time>2026-04-11T14:04:18.81Z</time></trkpt><trkpt lat="41.8274783" lon="12.9093"><ele>417.0</ele><time>2026-04-11T14:04:19.809Z</time></trkpt><trkpt lat="41.8275083" lon="12.9091433"><ele>417.0</ele><time>2026-04-11T14:04:20.811Z</time></trkpt><trkpt lat="41.8275617" lon="12.90902"><ele>417.0</ele><time>2026-04-11T14:04:21.81Z</time></trkpt><trkpt lat="41.8276367" lon="12.9089067"><ele>418.0</ele><time>2026-04-11T14:04:22.81Z</time></trkpt><trkpt lat="41.8277383" lon="12.9087883"><ele>419.0</ele><time>2026-04-11T14:04:23.81Z</time></trkpt><trkpt lat="41.8278583" lon="12.9086683"><ele>420.0</ele><time>2026-04-11T14:04:24.811Z</time></trkpt><trkpt lat="41.8279817" lon="12.9085483"><ele>421.0</ele><time>2026-04-11T14:04:25.81Z</time></trkpt><trkpt lat="41.8281017" lon="12.9084333"><ele>421.6666666666667</ele><time>2026-04-11T14:04:26.811Z</time></trkpt><trkpt lat="41.8282217" lon="12.90832"><ele>422.33333333333337</ele><time>2026-04-11T14:04:27.81Z</time></trkpt><trkpt lat="41.8283467" lon="12.9082083"><ele>423.0</ele><time>2026-04-11T14:04:28.811Z</time></trkpt><trkpt lat="41.82848" lon="12.908095"><ele>423.0</ele><time>2026-04-11T14:04:29.813Z</time></trkpt><trkpt lat="41.8286217" lon="12.9079817"><ele>423.0</ele><time>2026-04-11T14:04:30.81Z</time></trkpt><trkpt lat="41.8287817" lon="12.9078733"><ele>423.0</ele><time>2026-04-11T14:04:31.813Z</time></trkpt><trkpt lat="41.8289583" lon="12.9077717"><ele>423.0</ele><time>2026-04-11T14:04:32.813Z</time></trkpt><trkpt lat="41.8291317" lon="12.907665"><ele>423.0</ele><time>2026-04-11T14:04:33.81Z</time></trkpt><trkpt lat="41.8292883" lon="12.907565"><ele>423.0</ele><time>2026-04-11T14:04:34.813Z</time></trkpt><trkpt lat="41.8294317" lon="12.907475"><ele>416.33333333333337</ele><time>2026-04-11T14:04:35.812Z</time></trkpt><trkpt lat="41.829565" lon="12.9073717"><ele>409.6666666666667</ele><time>2026-04-11T14:04:36.812Z</time></trkpt><trkpt lat="41.8296933" lon="12.9072633"><ele>403.0</ele><time>2026-04-11T14:04:37.813Z</time></trkpt><trkpt lat="41.82982" lon="12.90715"><ele>403.0</ele><time>2026-04-11T14:04:38.813Z</time></trkpt><trkpt lat="41.8299483" lon="12.9070417"><ele>403.0</ele><time>2026-04-11T14:04:39.813Z</time></trkpt><trkpt lat="41.83007" lon="12.906935"><ele>403.0</ele><time>2026-04-11T14:04:40.812Z</time></trkpt><trkpt lat="41.8301817" lon="12.9068233"><ele>403.0</ele><time>2026-04-11T14:04:41.813Z</time></trkpt><trkpt lat="41.8302817" lon="12.9066983"><ele>406.75</ele><time>2026-04-11T14:04:42.813Z</time></trkpt><trkpt lat="41.8303667" lon="12.906545"><ele>410.5</ele><time>2026-04-11T14:04:43.813Z</time></trkpt><trkpt lat="41.8304317" lon="12.9063783"><ele>414.25</ele><time>2026-04-11T14:04:44.814Z</time></trkpt><trkpt lat="41.830475" lon="12.9062017"><ele>418.0</ele><time>2026-04-11T14:04:45.813Z</time></trkpt><trkpt lat="41.8304983" lon="12.9060167"><ele>418.25</ele><time>2026-04-11T14:04:46.812Z</time></trkpt><trkpt lat="41.8305" lon="12.9058283"><ele>418.5</ele><time>2026-04-11T14:04:47.811Z</time></trkpt><trkpt lat="41.8304883" lon="12.9056483"><ele>418.75</ele><time>2026-04-11T14:04:48.81Z</time></trkpt><trkpt lat="41.8304683" lon="12.9054833"><ele>419.0</ele><time>2026-04-11T14:04:49.809Z</time></trkpt><trkpt lat="41.8304333" lon="12.9053183"><ele>419.0</ele><time>2026-04-11T14:04:50.812Z</time></trkpt><trkpt lat="41.830375" lon="12.9051683"><ele>419.0</ele><time>2026-04-11T14:04:51.81Z</time></trkpt><trkpt lat="41.8303017" lon="12.905035"><ele>419.0</ele><time>2026-04-11T14:04:52.81Z</time></trkpt><trkpt lat="41.8302117" lon="12.90492"><ele>419.0</ele><time>2026-04-11T14:04:53.809Z</time></trkpt><trkpt lat="41.8301133" lon="12.9048117"><ele>416.25</ele><time>2026-04-11T14:04:54.81Z</time></trkpt><trkpt lat="41.8300183" lon="12.9046983"><ele>413.5</ele><time>2026-04-11T14:04:55.81Z</time></trkpt><trkpt lat="41.829935" lon="12.9045683"><ele>410.75</ele><time>2026-04-11T14:04:56.811Z</time></trkpt><trkpt lat="41.8298733" lon="12.9044133"><ele>408.0</ele><time>2026-04-11T14:04:57.809Z</time></trkpt><trkpt lat="41.8298433" lon="12.9042517"><ele>410.5</ele><time>2026-04-11T14:04:58.81Z</time></trkpt><trkpt lat="41.8298383" lon="12.9040733"><ele>413.0</ele><time>2026-04-11T14:04:59.813Z</time></trkpt><trkpt lat="41.8298533" lon="12.903875"><ele>415.5</ele><time>2026-04-11T14:05:00.813Z</time></trkpt><trkpt lat="41.8298833" lon="12.9036583"><ele>418.0</ele><time>2026-04-11T14:05:01.811Z</time></trkpt><trkpt lat="41.8299217" lon="12.9034233"><ele>419.33333333333337</ele><time>2026-04-11T14:05:02.813Z</time></trkpt><trkpt lat="41.82997" lon="12.9031617"><ele>420.66666666666663</ele><time>2026-04-11T14:05:03.809Z</time></trkpt><trkpt lat="41.8300167" lon="12.9028967"><ele>422.0</ele><time>2026-04-11T14:05:04.812Z</time></trkpt><trkpt lat="41.8300633" lon="12.9026433"><ele>423.3333333333333</ele><time>2026-04-11T14:05:05.818Z</time></trkpt><trkpt lat="41.83012" lon="12.9024067"><ele>424.66666666666663</ele><time>2026-04-11T14:05:06.813Z</time></trkpt><trkpt lat="41.830195" lon="12.9021817"><ele>426.0</ele><time>2026-04-11T14:05:07.811Z</time></trkpt><trkpt lat="41.8302917" lon="12.9019617"><ele>427.33333333333337</ele><time>2026-04-11T14:05:08.812Z</time></trkpt><trkpt lat="41.8304033" lon="12.9017417"><ele>428.6666666666667</ele><time>2026-04-11T14:05:09.813Z</time></trkpt><trkpt lat="41.83052" lon="12.9015167"><ele>430.0</ele><time>2026-04-11T14:05:10.814Z</time></trkpt><trkpt lat="41.8306333" lon="12.9013"><ele>430.0</ele><time>2026-04-11T14:05:11.813Z</time></trkpt><trkpt lat="41.8307333" lon="12.9011067"><ele>430.0</ele><time>2026-04-11T14:05:12.814Z</time></trkpt><trkpt lat="41.8308267" lon="12.9009467"><ele>430.0</ele><time>2026-04-11T14:05:13.813Z</time></trkpt><trkpt lat="41.8309033" lon="12.9008067"><ele>430.2</ele><time>2026-04-11T14:05:14.816Z</time></trkpt><trkpt lat="41.830975" lon="12.900675"><ele>430.4</ele><time>2026-04-11T14:05:15.813Z</time></trkpt><trkpt lat="41.8310433" lon="12.9005617"><ele>430.6</ele><time>2026-04-11T14:05:16.813Z</time></trkpt><trkpt lat="41.8311117" lon="12.9004533"><ele>430.8</ele><time>2026-04-11T14:05:17.81Z</time></trkpt><trkpt lat="41.83119" lon="12.90035"><ele>431.0</ele><time>2026-04-11T14:05:18.811Z</time></trkpt><trkpt lat="41.831275" lon="12.900235"><ele>431.0</ele><time>2026-04-11T14:05:19.811Z</time></trkpt><trkpt lat="41.8313717" lon="12.9001167"><ele>431.0</ele><time>2026-04-11T14:05:20.811Z</time></trkpt><trkpt lat="41.8314817" lon="12.9000033"><ele>431.0</ele><time>2026-04-11T14:05:21.812Z</time></trkpt><trkpt lat="41.8315967" lon="12.8998833"><ele>431.0</ele><time>2026-04-11T14:05:22.811Z</time></trkpt><trkpt lat="41.83171" lon="12.8997533"><ele>431.0</ele><time>2026-04-11T14:05:23.81Z</time></trkpt><trkpt lat="41.83182" lon="12.8996167"><ele>431.0</ele><time>2026-04-11T14:05:24.813Z</time></trkpt><trkpt lat="41.831925" lon="12.89948"><ele>431.0</ele><time>2026-04-11T14:05:25.813Z</time></trkpt><trkpt lat="41.8320233" lon="12.8993383"><ele>431.0</ele><time>2026-04-11T14:05:26.812Z</time></trkpt><trkpt lat="41.8321217" lon="12.8991983"><ele>429.75</ele><time>2026-04-11T14:05:27.813Z</time></trkpt><trkpt lat="41.8322217" lon="12.8990633"><ele>428.5</ele><time>2026-04-11T14:05:28.813Z</time></trkpt><trkpt lat="41.8323217" lon="12.8989183"><ele>427.25</ele><time>2026-04-11T14:05:29.813Z</time></trkpt><trkpt lat="41.832425" lon="12.8987617"><ele>426.0</ele><time>2026-04-11T14:05:30.813Z</time></trkpt><trkpt lat="41.8325317" lon="12.8986067"><ele>426.33333333333337</ele><time>2026-04-11T14:05:31.814Z</time></trkpt><trkpt lat="41.8326417" lon="12.89845"><ele>426.6666666666667</ele><time>2026-04-11T14:05:32.813Z</time></trkpt><trkpt lat="41.8327483" lon="12.8983"><ele>427.0</ele><time>2026-04-11T14:05:33.813Z</time></trkpt><trkpt lat="41.8328533" lon="12.898165"><ele>425.75</ele><time>2026-04-11T14:05:34.813Z</time></trkpt><trkpt lat="41.83296" lon="12.8980367"><ele>424.5</ele><time>2026-04-11T14:05:35.813Z</time></trkpt><trkpt lat="41.833075" lon="12.8979217"><ele>423.25</ele><time>2026-04-11T14:05:36.812Z</time></trkpt><trkpt lat="41.833205" lon="12.8978283"><ele>422.0</ele><time>2026-04-11T14:05:37.815Z</time></trkpt><trkpt lat="41.8333517" lon="12.89775"><ele>420.66666666666663</ele><time>2026-04-11T14:05:38.813Z</time></trkpt><trkpt lat="41.8335083" lon="12.8976783"><ele>419.33333333333337</ele><time>2026-04-11T14:05:39.813Z</time></trkpt><trkpt lat="41.8336683" lon="12.89761"><ele>418.0</ele><time>2026-04-11T14:05:40.812Z</time></trkpt><trkpt lat="41.833825" lon="12.8975383"><ele>416.5</ele><time>2026-04-11T14:05:41.813Z</time></trkpt><trkpt lat="41.8339733" lon="12.897465"><ele>415.0</ele><time>2026-04-11T14:05:42.813Z</time></trkpt><trkpt lat="41.8341067" lon="12.89738"><ele>413.5</ele><time>2026-04-11T14:05:43.813Z</time></trkpt><trkpt lat="41.8342217" lon="12.8972667"><ele>412.0</ele><time>2026-04-11T14:05:44.813Z</time></trkpt><trkpt lat="41.83432" lon="12.897115"><ele>416.33333333333337</ele><time>2026-04-11T14:05:45.813Z</time></trkpt><trkpt lat="41.8344" lon="12.8969333"><ele>420.66666666666663</ele><time>2026-04-11T14:05:46.812Z</time></trkpt><trkpt lat="41.8344417" lon="12.89674"><ele>425.0</ele><time>2026-04-11T14:05:47.81Z</time></trkpt><trkpt lat="41.8344633" lon="12.8965333"><ele>425.0</ele><time>2026-04-11T14:05:48.813Z</time></trkpt><trkpt lat="41.8344483" lon="12.89633"><ele>425.0</ele><time>2026-04-11T14:05:49.809Z</time></trkpt><trkpt lat="41.83439" lon="12.8961283"><ele>425.0</ele><time>2026-04-11T14:05:50.814Z</time></trkpt><trkpt lat="41.8343017" lon="12.89592"><ele>422.3333333333333</ele><time>2026-04-11T14:05:51.81Z</time></trkpt><trkpt lat="41.83421" lon="12.8957183"><ele>419.66666666666663</ele><time>2026-04-11T14:05:52.812Z</time></trkpt><trkpt lat="41.8341267" lon="12.8955233"><ele>417.0</ele><time>2026-04-11T14:05:53.811Z</time></trkpt><trkpt lat="41.834045" lon="12.89534"><ele>417.0</ele><time>2026-04-11T14:05:54.811Z</time></trkpt><trkpt lat="41.833965" lon="12.8951583"><ele>417.0</ele><time>2026-04-11T14:05:55.811Z</time></trkpt><trkpt lat="41.8338917" lon="12.8949783"><ele>417.0</ele><time>2026-04-11T14:05:56.811Z</time></trkpt><trkpt lat="41.8338233" lon="12.8947967"><ele>419.25</ele><time>2026-04-11T14:05:57.811Z</time></trkpt><trkpt lat="41.8337683" lon="12.89461"><ele>421.5</ele><time>2026-04-11T14:05:58.812Z</time></trkpt><trkpt lat="41.8337283" lon="12.8944183"><ele>423.75</ele><time>2026-04-11T14:05:59.813Z</time></trkpt><trkpt lat="41.8337" lon="12.89422"><ele>426.0</ele><time>2026-04-11T14:06:00.808Z</time></trkpt><trkpt lat="41.8336833" lon="12.8940117"><ele>427.0</ele><time>2026-04-11T14:06:01.812Z</time></trkpt><trkpt lat="41.833675" lon="12.8937917"><ele>428.0</ele><time>2026-04-11T14:06:02.81Z</time></trkpt><trkpt lat="41.8336733" lon="12.8935717"><ele>429.0</ele><time>2026-04-11T14:06:03.811Z</time></trkpt><trkpt lat="41.8336717" lon="12.89336"><ele>429.0</ele><time>2026-04-11T14:06:04.813Z</time></trkpt><trkpt lat="41.8336833" lon="12.8931567"><ele>429.0</ele><time>2026-04-11T14:06:05.81Z</time></trkpt><trkpt lat="41.8337083" lon="12.8929583"><ele>429.0</ele><time>2026-04-11T14:06:06.812Z</time></trkpt><trkpt lat="41.8337617" lon="12.8927567"><ele>427.33333333333337</ele><time>2026-04-11T14:06:07.812Z</time></trkpt><trkpt lat="41.8338233" lon="12.8925483"><ele>425.6666666666667</ele><time>2026-04-11T14:06:08.809Z</time></trkpt><trkpt lat="41.83388" lon="12.8923317"><ele>424.0</ele><time>2026-04-11T14:06:09.81Z</time></trkpt><trkpt lat="41.8339333" lon="12.8921133"><ele>424.0</ele><time>2026-04-11T14:06:10.81Z</time></trkpt><trkpt lat="41.8339833" lon="12.8918883"><ele>424.0</ele><time>2026-04-11T14:06:11.814Z</time></trkpt><trkpt lat="41.83402" lon="12.8916583"><ele>424.0</ele><time>2026-04-11T14:06:12.81Z</time></trkpt><trkpt lat="41.8340483" lon="12.8914283"><ele>422.6666666666667</ele><time>2026-04-11T14:06:13.81Z</time></trkpt><trkpt lat="41.8340633" lon="12.8911983"><ele>421.33333333333337</ele><time>2026-04-11T14:06:14.811Z</time></trkpt><trkpt lat="41.8340633" lon="12.8909683"><ele>420.0</ele><time>2026-04-11T14:06:15.81Z</time></trkpt><trkpt lat="41.8340617" lon="12.890735"><ele>420.0</ele><time>2026-04-11T14:06:16.81Z</time></trkpt><trkpt lat="41.8340517" lon="12.8905033"><ele>420.0</ele><time>2026-04-11T14:06:17.811Z</time></trkpt><trkpt lat="41.8340467" lon="12.8902767"><ele>420.0</ele><time>2026-04-11T14:06:18.811Z</time></trkpt><trkpt lat="41.8340433" lon="12.89006"><ele>419.75</ele><time>2026-04-11T14:06:19.811Z</time></trkpt><trkpt lat="41.8340367" lon="12.8898517"><ele>419.5</ele><time>2026-04-11T14:06:20.812Z</time></trkpt><trkpt lat="41.83402" lon="12.88965"><ele>419.25</ele><time>2026-04-11T14:06:21.811Z</time></trkpt><trkpt lat="41.8339967" lon="12.8894617"><ele>419.0</ele><time>2026-04-11T14:06:22.811Z</time></trkpt><trkpt lat="41.83397" lon="12.8892817"><ele>419.5</ele><time>2026-04-11T14:06:23.813Z</time></trkpt><trkpt lat="41.8339467" lon="12.8891133"><ele>420.0</ele><time>2026-04-11T14:06:24.811Z</time></trkpt><trkpt lat="41.8339267" lon="12.888955"><ele>420.5</ele><time>2026-04-11T14:06:25.812Z</time></trkpt><trkpt lat="41.8339067" lon="12.888805"><ele>421.0</ele><time>2026-04-11T14:06:26.81Z</time></trkpt><trkpt lat="41.8338883" lon="12.888665"><ele>421.00000000000006</ele><time>2026-04-11T14:06:27.811Z</time></trkpt><trkpt lat="41.8338667" lon="12.8885317"><ele>421.0</ele><time>2026-04-11T14:06:28.813Z</time></trkpt><trkpt lat="41.8338483" lon="12.8884067"><ele>421.0</ele><time>2026-04-11T14:06:29.813Z</time></trkpt><trkpt lat="41.8338333" lon="12.888285"><ele>421.0</ele><time>2026-04-11T14:06:30.809Z</time></trkpt><trkpt lat="41.83382" lon="12.8881717"><ele>421.00000000000006</ele><time>2026-04-11T14:06:31.81Z</time></trkpt><trkpt lat="41.8338117" lon="12.8880717"><ele>421.0</ele><time>2026-04-11T14:06:32.809Z</time></trkpt><trkpt lat="41.8338017" lon="12.8879333"><ele>421.1666666666667</ele><time>2026-04-11T14:06:34.81Z</time></trkpt><trkpt lat="41.833795" lon="12.887825"><ele>421.33333333333337</ele><time>2026-04-11T14:07:00.809Z</time></trkpt><trkpt lat="41.833765" lon="12.8877417"><ele>421.5</ele><time>2026-04-11T14:07:02.81Z</time></trkpt><trkpt lat="41.8336883" lon="12.88762"><ele>421.66666666666663</ele><time>2026-04-11T14:07:04.811Z</time></trkpt><trkpt lat="41.83364" lon="12.8875433"><ele>421.8333333333333</ele><time>2026-04-11T14:07:05.813Z</time></trkpt><trkpt lat="41.83359" lon="12.887455"><ele>422.0</ele><time>2026-04-11T14:07:06.81Z</time></trkpt><trkpt lat="41.833535" lon="12.887355"><ele>422.0</ele><time>2026-04-11T14:07:07.811Z</time></trkpt><trkpt lat="41.8334833" lon="12.8872367"><ele>422.0</ele><time>2026-04-11T14:07:08.81Z</time></trkpt><trkpt lat="41.8334383" lon="12.887105"><ele>422.0</ele><time>2026-04-11T14:07:09.81Z</time></trkpt><trkpt lat="41.8334017" lon="12.8869683"><ele>422.0</ele><time>2026-04-11T14:07:10.809Z</time></trkpt><trkpt lat="41.833375" lon="12.8868233"><ele>422.0</ele><time>2026-04-11T14:07:11.81Z</time></trkpt><trkpt lat="41.8333517" lon="12.886665"><ele>420.5</ele><time>2026-04-11T14:07:12.81Z</time></trkpt><trkpt lat="41.83333" lon="12.8864883"><ele>419.0</ele><time>2026-04-11T14:07:13.81Z</time></trkpt><trkpt lat="41.8333083" lon="12.8863017"><ele>417.5</ele><time>2026-04-11T14:07:14.811Z</time></trkpt><trkpt lat="41.8332817" lon="12.88611"><ele>416.0</ele><time>2026-04-11T14:07:15.811Z</time></trkpt><trkpt lat="41.83325" lon="12.885925"><ele>415.5</ele><time>2026-04-11T14:07:16.812Z</time></trkpt><trkpt lat="41.833205" lon="12.8857367"><ele>415.0</ele><time>2026-04-11T14:07:17.811Z</time></trkpt><trkpt lat="41.8331483" lon="12.8855517"><ele>414.5</ele><time>2026-04-11T14:07:18.811Z</time></trkpt><trkpt lat="41.8330883" lon="12.8853783"><ele>414.0</ele><time>2026-04-11T14:07:19.81Z</time></trkpt><trkpt lat="41.8330317" lon="12.8852167"><ele>414.25</ele><time>2026-04-11T14:07:20.809Z</time></trkpt><trkpt lat="41.83298" lon="12.885065"><ele>414.5</ele><time>2026-04-11T14:07:21.809Z</time></trkpt><trkpt lat="41.83293" lon="12.8849233"><ele>414.75</ele><time>2026-04-11T14:07:22.81Z</time></trkpt><trkpt lat="41.83288" lon="12.8847867"><ele>415.0</ele><time>2026-04-11T14:07:23.812Z</time></trkpt><trkpt lat="41.8328317" lon="12.88466"><ele>415.0</ele><time>2026-04-11T14:07:24.81Z</time></trkpt><trkpt lat="41.832785" lon="12.88454"><ele>415.0</ele><time>2026-04-11T14:07:25.81Z</time></trkpt><trkpt lat="41.8327417" lon="12.884425"><ele>415.0</ele><time>2026-04-11T14:07:26.81Z</time></trkpt><trkpt lat="41.832705" lon="12.8843167"><ele>415.0</ele><time>2026-04-11T14:07:27.81Z</time></trkpt><trkpt lat="41.83267" lon="12.8842117"><ele>415.0</ele><time>2026-04-11T14:07:28.81Z</time></trkpt><trkpt lat="41.8326333" lon="12.8841033"><ele>414.6</ele><time>2026-04-11T14:07:29.809Z</time></trkpt><trkpt lat="41.8325933" lon="12.8839833"><ele>414.2</ele><time>2026-04-11T14:07:30.812Z</time></trkpt><trkpt lat="41.8325483" lon="12.8838517"><ele>413.79999999999995</ele><time>2026-04-11T14:07:31.81Z</time></trkpt><trkpt lat="41.8325017" lon="12.8837083"><ele>413.4</ele><time>2026-04-11T14:07:32.811Z</time></trkpt><trkpt lat="41.8324533" lon="12.8835583"><ele>413.0</ele><time>2026-04-11T14:07:33.81Z</time></trkpt><trkpt lat="41.8324017" lon="12.8834017"><ele>412.5</ele><time>2026-04-11T14:07:34.811Z</time></trkpt><trkpt lat="41.8323467" lon="12.8832417"><ele>412.0</ele><time>2026-04-11T14:07:35.81Z</time></trkpt><trkpt lat="41.8322833" lon="12.88308"><ele>411.5</ele><time>2026-04-11T14:07:36.809Z</time></trkpt><trkpt lat="41.832215" lon="12.8829183"><ele>411.0</ele><time>2026-04-11T14:07:37.81Z</time></trkpt><trkpt lat="41.8321467" lon="12.882755"><ele>410.75</ele><time>2026-04-11T14:07:38.809Z</time></trkpt><trkpt lat="41.83208" lon="12.8825967"><ele>410.5</ele><time>2026-04-11T14:07:39.81Z</time></trkpt><trkpt lat="41.8320167" lon="12.88245"><ele>410.25</ele><time>2026-04-11T14:07:40.809Z</time></trkpt><trkpt lat="41.8319567" lon="12.8823083"><ele>410.0</ele><time>2026-04-11T14:07:41.811Z</time></trkpt><trkpt lat="41.831895" lon="12.8821683"><ele>410.0</ele><time>2026-04-11T14:07:42.81Z</time></trkpt><trkpt lat="41.8318333" lon="12.88202"><ele>410.0</ele><time>2026-04-11T14:07:43.81Z</time></trkpt><trkpt lat="41.831775" lon="12.8818717"><ele>410.0</ele><time>2026-04-11T14:07:44.811Z</time></trkpt><trkpt lat="41.831715" lon="12.8817283"><ele>410.0</ele><time>2026-04-11T14:07:45.81Z</time></trkpt><trkpt lat="41.8316567" lon="12.88158"><ele>408.75</ele><time>2026-04-11T14:07:46.811Z</time></trkpt><trkpt lat="41.8316" lon="12.8814283"><ele>407.5</ele><time>2026-04-11T14:07:47.81Z</time></trkpt><trkpt lat="41.8315467" lon="12.8812767"><ele>406.25</ele><time>2026-04-11T14:07:48.81Z</time></trkpt><trkpt lat="41.83149" lon="12.881125"><ele>405.0</ele><time>2026-04-11T14:07:49.81Z</time></trkpt><trkpt lat="41.83143" lon="12.8809717"><ele>404.25</ele><time>2026-04-11T14:07:50.81Z</time></trkpt><trkpt lat="41.8313683" lon="12.8808117"><ele>403.5</ele><time>2026-04-11T14:07:51.811Z</time></trkpt><trkpt lat="41.8313117" lon="12.88064"><ele>402.75</ele><time>2026-04-11T14:07:52.813Z</time></trkpt><trkpt lat="41.8312517" lon="12.8804617"><ele>402.0</ele><time>2026-04-11T14:07:53.809Z</time></trkpt><trkpt lat="41.8311867" lon="12.8802783"><ele>401.33333333333337</ele><time>2026-04-11T14:07:54.813Z</time></trkpt><trkpt lat="41.8311167" lon="12.8800917"><ele>400.6666666666667</ele><time>2026-04-11T14:07:55.811Z</time></trkpt><trkpt lat="41.8310417" lon="12.8799033"><ele>400.0</ele><time>2026-04-11T14:07:56.811Z</time></trkpt><trkpt lat="41.8309717" lon="12.879715"><ele>400.0</ele><time>2026-04-11T14:07:57.81Z</time></trkpt><trkpt lat="41.8309033" lon="12.8795283"><ele>400.0</ele><time>2026-04-11T14:07:58.809Z</time></trkpt><trkpt lat="41.830835" lon="12.8793483"><ele>400.0</ele><time>2026-04-11T14:07:59.809Z</time></trkpt><trkpt lat="41.8307667" lon="12.87917"><ele>399.6666666666667</ele><time>2026-04-11T14:08:00.812Z</time></trkpt><trkpt lat="41.830695" lon="12.878995"><ele>399.33333333333337</ele><time>2026-04-11T14:08:01.812Z</time></trkpt><trkpt lat="41.8306167" lon="12.87882"><ele>399.0</ele><time>2026-04-11T14:08:02.812Z</time></trkpt><trkpt lat="41.8305267" lon="12.8786483"><ele>399.0</ele><time>2026-04-11T14:08:03.809Z</time></trkpt><trkpt lat="41.83043" lon="12.8784783"><ele>399.0</ele><time>2026-04-11T14:08:04.811Z</time></trkpt><trkpt lat="41.830335" lon="12.8783183"><ele>399.0</ele><time>2026-04-11T14:08:05.813Z</time></trkpt><trkpt lat="41.830235" lon="12.87816"><ele>398.33333333333337</ele><time>2026-04-11T14:08:06.813Z</time></trkpt><trkpt lat="41.8301217" lon="12.878015"><ele>397.6666666666667</ele><time>2026-04-11T14:08:07.813Z</time></trkpt><trkpt lat="41.83" lon="12.8778817"><ele>397.0</ele><time>2026-04-11T14:08:08.813Z</time></trkpt><trkpt lat="41.8298683" lon="12.877765"><ele>397.0</ele><time>2026-04-11T14:08:09.814Z</time></trkpt><trkpt lat="41.8297367" lon="12.8776633"><ele>397.0</ele><time>2026-04-11T14:08:10.812Z</time></trkpt><trkpt lat="41.82961" lon="12.8775667"><ele>397.0</ele><time>2026-04-11T14:08:11.812Z</time></trkpt><trkpt lat="41.8294867" lon="12.8774717"><ele>397.0</ele><time>2026-04-11T14:08:12.81Z</time></trkpt><trkpt lat="41.8293717" lon="12.877375"><ele>397.0</ele><time>2026-04-11T14:08:13.812Z</time></trkpt><trkpt lat="41.8292533" lon="12.877275"><ele>397.0</ele><time>2026-04-11T14:08:14.823Z</time></trkpt><trkpt lat="41.8291333" lon="12.8771767"><ele>397.0</ele><time>2026-04-11T14:08:15.813Z</time></trkpt><trkpt lat="41.82901" lon="12.8770817"><ele>397.0</ele><time>2026-04-11T14:08:16.814Z</time></trkpt><trkpt lat="41.8288817" lon="12.876985"><ele>397.0</ele><time>2026-04-11T14:08:17.813Z</time></trkpt><trkpt lat="41.8287517" lon="12.876885"><ele>397.0</ele><time>2026-04-11T14:08:18.812Z</time></trkpt><trkpt lat="41.8286233" lon="12.876785"><ele>397.0</ele><time>2026-04-11T14:08:19.813Z</time></trkpt><trkpt lat="41.828495" lon="12.8766933"><ele>397.0</ele><time>2026-04-11T14:08:20.813Z</time></trkpt><trkpt lat="41.8283733" lon="12.8766"><ele>396.25</ele><time>2026-04-11T14:08:21.813Z</time></trkpt><trkpt lat="41.8282567" lon="12.876505"><ele>395.5</ele><time>2026-04-11T14:08:22.812Z</time></trkpt><trkpt lat="41.8281433" lon="12.8764133"><ele>394.75</ele><time>2026-04-11T14:08:23.813Z</time></trkpt><trkpt lat="41.82803" lon="12.876325"><ele>394.0</ele><time>2026-04-11T14:08:24.812Z</time></trkpt><trkpt lat="41.8279183" lon="12.8762367"><ele>394.0</ele><time>2026-04-11T14:08:25.813Z</time></trkpt><trkpt lat="41.8278017" lon="12.8761483"><ele>394.0</ele><time>2026-04-11T14:08:26.813Z</time></trkpt><trkpt lat="41.8276817" lon="12.8760583"><ele>394.0</ele><time>2026-04-11T14:08:27.814Z</time></trkpt><trkpt lat="41.8275667" lon="12.8759683"><ele>394.0</ele><time>2026-04-11T14:08:28.812Z</time></trkpt><trkpt lat="41.8274533" lon="12.87588"><ele>393.0</ele><time>2026-04-11T14:08:29.809Z</time></trkpt><trkpt lat="41.8273433" lon="12.875795"><ele>392.0</ele><time>2026-04-11T14:08:30.812Z</time></trkpt><trkpt lat="41.82724" lon="12.875715"><ele>391.0</ele><time>2026-04-11T14:08:31.813Z</time></trkpt><trkpt lat="41.827135" lon="12.8756267"><ele>390.0</ele><time>2026-04-11T14:08:32.813Z</time></trkpt><trkpt lat="41.8270317" lon="12.87554"><ele>390.0</ele><time>2026-04-11T14:08:33.813Z</time></trkpt><trkpt lat="41.8269283" lon="12.875455"><ele>390.0</ele><time>2026-04-11T14:08:34.813Z</time></trkpt><trkpt lat="41.8268283" lon="12.8753667"><ele>390.0</ele><time>2026-04-11T14:08:35.813Z</time></trkpt><trkpt lat="41.82673" lon="12.8752833"><ele>390.0</ele><time>2026-04-11T14:08:36.814Z</time></trkpt><trkpt lat="41.8266383" lon="12.8752033"><ele>389.75</ele><time>2026-04-11T14:08:37.811Z</time></trkpt><trkpt lat="41.8265433" lon="12.8751233"><ele>389.5</ele><time>2026-04-11T14:08:38.811Z</time></trkpt><trkpt lat="41.8264483" lon="12.8750383"><ele>389.25</ele><time>2026-04-11T14:08:39.81Z</time></trkpt><trkpt lat="41.8263533" lon="12.8749533"><ele>389.0</ele><time>2026-04-11T14:08:40.811Z</time></trkpt><trkpt lat="41.8262567" lon="12.8748683"><ele>387.75</ele><time>2026-04-11T14:08:41.809Z</time></trkpt><trkpt lat="41.8261583" lon="12.8747767"><ele>386.5</ele><time>2026-04-11T14:08:42.813Z</time></trkpt><trkpt lat="41.8260617" lon="12.874685"><ele>385.25</ele><time>2026-04-11T14:08:43.81Z</time></trkpt><trkpt lat="41.8259667" lon="12.8746"><ele>384.0</ele><time>2026-04-11T14:08:44.816Z</time></trkpt><trkpt lat="41.8258833" lon="12.8745183"><ele>384.0</ele><time>2026-04-11T14:08:45.813Z</time></trkpt><trkpt lat="41.8258083" lon="12.8744483"><ele>384.0</ele><time>2026-04-11T14:08:46.811Z</time></trkpt><trkpt lat="41.8257517" lon="12.87439"><ele>384.0</ele><time>2026-04-11T14:08:47.814Z</time></trkpt><trkpt lat="41.825685" lon="12.874305"><ele>384.0</ele><time>2026-04-11T14:08:49.814Z</time></trkpt><trkpt lat="41.825625" lon="12.874215"><ele>384.0</ele><time>2026-04-11T14:08:51.81Z</time></trkpt><trkpt lat="41.8255817" lon="12.8741517"><ele>384.0</ele><time>2026-04-11T14:08:52.812Z</time></trkpt><trkpt lat="41.8255333" lon="12.874075"><ele>383.79999999999995</ele><time>2026-04-11T14:08:53.812Z</time></trkpt><trkpt lat="41.8254833" lon="12.873985"><ele>383.59999999999997</ele><time>2026-04-11T14:08:54.813Z</time></trkpt><trkpt lat="41.8254283" lon="12.8738783"><ele>383.4</ele><time>2026-04-11T14:08:55.81Z</time></trkpt><trkpt lat="41.8253717" lon="12.87376"><ele>383.2</ele><time>2026-04-11T14:08:56.815Z</time></trkpt><trkpt lat="41.8253183" lon="12.8736317"><ele>383.0</ele><time>2026-04-11T14:08:57.81Z</time></trkpt><trkpt lat="41.8252667" lon="12.87349"><ele>383.5</ele><time>2026-04-11T14:08:58.81Z</time></trkpt><trkpt lat="41.8252183" lon="12.8733367"><ele>384.0</ele><time>2026-04-11T14:08:59.814Z</time></trkpt><trkpt lat="41.825175" lon="12.8731733"><ele>384.5</ele><time>2026-04-11T14:09:00.811Z</time></trkpt><trkpt lat="41.825135" lon="12.8729967"><ele>385.0</ele><time>2026-04-11T14:09:01.81Z</time></trkpt><trkpt lat="41.8250967" lon="12.8728117"><ele>385.0</ele><time>2026-04-11T14:09:02.812Z</time></trkpt><trkpt lat="41.825065" lon="12.872625"><ele>385.0</ele><time>2026-04-11T14:09:03.814Z</time></trkpt><trkpt lat="41.825035" lon="12.8724417"><ele>385.0</ele><time>2026-04-11T14:09:04.811Z</time></trkpt><trkpt lat="41.8250067" lon="12.8722483"><ele>385.0</ele><time>2026-04-11T14:09:05.809Z</time></trkpt><trkpt lat="41.82498" lon="12.8720467"><ele>385.0</ele><time>2026-04-11T14:09:06.81Z</time></trkpt><trkpt lat="41.8249533" lon="12.87184"><ele>385.0</ele><time>2026-04-11T14:09:07.81Z</time></trkpt><trkpt lat="41.82493" lon="12.8716283"><ele>385.0</ele><time>2026-04-11T14:09:08.81Z</time></trkpt><trkpt lat="41.8249067" lon="12.8714183"><ele>385.0</ele><time>2026-04-11T14:09:09.81Z</time></trkpt><trkpt lat="41.8248833" lon="12.8712167"><ele>385.0</ele><time>2026-04-11T14:09:10.811Z</time></trkpt><trkpt lat="41.82486" lon="12.8710217"><ele>385.0</ele><time>2026-04-11T14:09:11.813Z</time></trkpt><trkpt lat="41.82484" lon="12.8708333"><ele>385.0</ele><time>2026-04-11T14:09:12.813Z</time></trkpt><trkpt lat="41.8248183" lon="12.8706517"><ele>384.75</ele><time>2026-04-11T14:09:13.811Z</time></trkpt><trkpt lat="41.8247967" lon="12.8704717"><ele>384.5</ele><time>2026-04-11T14:09:14.811Z</time></trkpt><trkpt lat="41.824775" lon="12.8702883"><ele>384.25</ele><time>2026-04-11T14:09:15.81Z</time></trkpt><trkpt lat="41.8247517" lon="12.8701017"><ele>384.0</ele><time>2026-04-11T14:09:16.812Z</time></trkpt><trkpt lat="41.8247267" lon="12.86991"><ele>384.0</ele><time>2026-04-11T14:09:17.812Z</time></trkpt><trkpt lat="41.8247" lon="12.8697183"><ele>384.0</ele><time>2026-04-11T14:09:18.811Z</time></trkpt><trkpt lat="41.824675" lon="12.8695267"><ele>384.0</ele><time>2026-04-11T14:09:19.813Z</time></trkpt><trkpt lat="41.824655" lon="12.8693367"><ele>384.0</ele><time>2026-04-11T14:09:20.813Z</time></trkpt><trkpt lat="41.8246367" lon="12.8691533"><ele>384.0</ele><time>2026-04-11T14:09:21.813Z</time></trkpt><trkpt lat="41.8246217" lon="12.86898"><ele>384.0</ele><time>2026-04-11T14:09:22.809Z</time></trkpt><trkpt lat="41.8246117" lon="12.868805"><ele>384.0</ele><time>2026-04-11T14:09:23.813Z</time></trkpt><trkpt lat="41.824605" lon="12.8686333"><ele>384.0</ele><time>2026-04-11T14:09:24.813Z</time></trkpt><trkpt lat="41.8246033" lon="12.8684667"><ele>383.25</ele><time>2026-04-11T14:09:25.812Z</time></trkpt><trkpt lat="41.8246033" lon="12.8683033"><ele>382.5</ele><time>2026-04-11T14:09:26.813Z</time></trkpt><trkpt lat="41.824605" lon="12.8681383"><ele>381.75</ele><time>2026-04-11T14:09:27.813Z</time></trkpt><trkpt lat="41.82461" lon="12.86796"><ele>381.0</ele><time>2026-04-11T14:09:28.813Z</time></trkpt><trkpt lat="41.8246183" lon="12.8677717"><ele>381.0</ele><time>2026-04-11T14:09:29.813Z</time></trkpt><trkpt lat="41.82463" lon="12.8675767"><ele>381.0</ele><time>2026-04-11T14:09:30.813Z</time></trkpt><trkpt lat="41.8246433" lon="12.8673767"><ele>381.0</ele><time>2026-04-11T14:09:31.811Z</time></trkpt><trkpt lat="41.8246583" lon="12.8671767"><ele>381.0</ele><time>2026-04-11T14:09:32.813Z</time></trkpt><trkpt lat="41.8246733" lon="12.866985"><ele>381.0</ele><time>2026-04-11T14:09:33.813Z</time></trkpt><trkpt lat="41.8246867" lon="12.8668067"><ele>381.0</ele><time>2026-04-11T14:09:34.814Z</time></trkpt><trkpt lat="41.8247" lon="12.8666383"><ele>381.0</ele><time>2026-04-11T14:09:35.813Z</time></trkpt><trkpt lat="41.8247117" lon="12.8664783"><ele>381.0</ele><time>2026-04-11T14:09:36.809Z</time></trkpt><trkpt lat="41.8247233" lon="12.8663233"><ele>381.0</ele><time>2026-04-11T14:09:37.809Z</time></trkpt><trkpt lat="41.824735" lon="12.8661683"><ele>381.0</ele><time>2026-04-11T14:09:38.813Z</time></trkpt><trkpt lat="41.8247483" lon="12.8660117"><ele>381.0</ele><time>2026-04-11T14:09:39.813Z</time></trkpt><trkpt lat="41.824765" lon="12.865855"><ele>381.0</ele><time>2026-04-11T14:09:40.813Z</time></trkpt><trkpt lat="41.8247783" lon="12.8656967"><ele>380.75</ele><time>2026-04-11T14:09:41.814Z</time></trkpt><trkpt lat="41.8247883" lon="12.8655433"><ele>380.5</ele><time>2026-04-11T14:09:42.813Z</time></trkpt><trkpt lat="41.8247983" lon="12.8653883"><ele>380.25</ele><time>2026-04-11T14:09:43.812Z</time></trkpt><trkpt lat="41.8248117" lon="12.8652283"><ele>380.0</ele><time>2026-04-11T14:09:44.812Z</time></trkpt><trkpt lat="41.8248283" lon="12.865065"><ele>379.5</ele><time>2026-04-11T14:09:45.812Z</time></trkpt><trkpt lat="41.8248483" lon="12.8648983"><ele>379.0</ele><time>2026-04-11T14:09:46.818Z</time></trkpt><trkpt lat="41.8248633" lon="12.8647317"><ele>378.5</ele><time>2026-04-11T14:09:47.817Z</time></trkpt><trkpt lat="41.824875" lon="12.86456"><ele>378.0</ele><time>2026-04-11T14:09:48.81Z</time></trkpt><trkpt lat="41.824885" lon="12.864385"><ele>376.75</ele><time>2026-04-11T14:09:49.811Z</time></trkpt><trkpt lat="41.8248983" lon="12.8642167"><ele>375.5</ele><time>2026-04-11T14:09:50.811Z</time></trkpt><trkpt lat="41.82491" lon="12.8640567"><ele>374.25</ele><time>2026-04-11T14:09:51.811Z</time></trkpt><trkpt lat="41.8249217" lon="12.8639017"><ele>373.0</ele><time>2026-04-11T14:09:52.81Z</time></trkpt><trkpt lat="41.8249333" lon="12.8637467"><ele>373.0</ele><time>2026-04-11T14:09:53.81Z</time></trkpt><trkpt lat="41.8249433" lon="12.8635867"><ele>373.0</ele><time>2026-04-11T14:09:54.815Z</time></trkpt><trkpt lat="41.8249533" lon="12.863425"><ele>373.0</ele><time>2026-04-11T14:09:55.814Z</time></trkpt><trkpt lat="41.8249633" lon="12.863265"><ele>373.0</ele><time>2026-04-11T14:09:56.813Z</time></trkpt><trkpt lat="41.8249783" lon="12.8631183"><ele>372.59999999999997</ele><time>2026-04-11T14:09:57.812Z</time></trkpt><trkpt lat="41.8249917" lon="12.86298"><ele>372.2</ele><time>2026-04-11T14:09:58.813Z</time></trkpt><trkpt lat="41.8250067" lon="12.8628517"><ele>371.8</ele><time>2026-04-11T14:09:59.813Z</time></trkpt><trkpt lat="41.8250183" lon="12.8627267"><ele>371.4</ele><time>2026-04-11T14:10:00.813Z</time></trkpt><trkpt lat="41.8250283" lon="12.8626017"><ele>371.0</ele><time>2026-04-11T14:10:01.904Z</time></trkpt><trkpt lat="41.82504" lon="12.8624783"><ele>370.8</ele><time>2026-04-11T14:10:02.813Z</time></trkpt><trkpt lat="41.8250517" lon="12.86235"><ele>370.6</ele><time>2026-04-11T14:10:03.813Z</time></trkpt><trkpt lat="41.825065" lon="12.8622167"><ele>370.4</ele><time>2026-04-11T14:10:04.813Z</time></trkpt><trkpt lat="41.8250783" lon="12.8620717"><ele>370.2</ele><time>2026-04-11T14:10:05.813Z</time></trkpt><trkpt lat="41.8250933" lon="12.8619217"><ele>370.0</ele><time>2026-04-11T14:10:06.809Z</time></trkpt><trkpt lat="41.8251067" lon="12.861765"><ele>369.8</ele><time>2026-04-11T14:10:07.811Z</time></trkpt><trkpt lat="41.82512" lon="12.8616117"><ele>369.6</ele><time>2026-04-11T14:10:08.809Z</time></trkpt><trkpt lat="41.825135" lon="12.861465"><ele>369.4</ele><time>2026-04-11T14:10:09.81Z</time></trkpt><trkpt lat="41.8251467" lon="12.861325"><ele>369.2</ele><time>2026-04-11T14:10:10.809Z</time></trkpt><trkpt lat="41.82516" lon="12.8611867"><ele>369.0</ele><time>2026-04-11T14:10:11.812Z</time></trkpt><trkpt lat="41.8251683" lon="12.86105"><ele>368.8333333333333</ele><time>2026-04-11T14:10:12.814Z</time></trkpt><trkpt lat="41.8251767" lon="12.8609183"><ele>368.6666666666667</ele><time>2026-04-11T14:10:13.81Z</time></trkpt><trkpt lat="41.8251867" lon="12.8607983"><ele>368.5</ele><time>2026-04-11T14:10:14.812Z</time></trkpt><trkpt lat="41.8251967" lon="12.86069"><ele>368.33333333333337</ele><time>2026-04-11T14:10:15.81Z</time></trkpt><trkpt lat="41.825215" lon="12.8605917"><ele>368.1666666666667</ele><time>2026-04-11T14:10:16.817Z</time></trkpt><trkpt lat="41.8252433" lon="12.8605083"><ele>368.0</ele><time>2026-04-11T14:10:17.813Z</time></trkpt><trkpt lat="41.8252833" lon="12.8604383"><ele>368.0</ele><time>2026-04-11T14:10:18.811Z</time></trkpt><trkpt lat="41.8253267" lon="12.8603633"><ele>368.0</ele><time>2026-04-11T14:10:19.811Z</time></trkpt><trkpt lat="41.825365" lon="12.8602717"><ele>368.0</ele><time>2026-04-11T14:10:20.811Z</time></trkpt><trkpt lat="41.825385" lon="12.86016"><ele>368.0</ele><time>2026-04-11T14:10:21.811Z</time></trkpt><trkpt lat="41.8253733" lon="12.860035"><ele>368.0</ele><time>2026-04-11T14:10:22.811Z</time></trkpt><trkpt lat="41.8253433" lon="12.8599083"><ele>368.0</ele><time>2026-04-11T14:10:23.812Z</time></trkpt><trkpt lat="41.8253283" lon="12.859765"><ele>368.0</ele><time>2026-04-11T14:10:24.814Z</time></trkpt><trkpt lat="41.8253217" lon="12.8596233"><ele>368.0</ele><time>2026-04-11T14:10:25.81Z</time></trkpt><trkpt lat="41.825325" lon="12.8594833"><ele>368.0</ele><time>2026-04-11T14:10:26.814Z</time></trkpt><trkpt lat="41.8253283" lon="12.8593417"><ele>368.0</ele><time>2026-04-11T14:10:27.813Z</time></trkpt><trkpt lat="41.82533" lon="12.8591933"><ele>368.0</ele><time>2026-04-11T14:10:28.814Z</time></trkpt><trkpt lat="41.8253317" lon="12.8590417"><ele>368.0</ele><time>2026-04-11T14:10:29.813Z</time></trkpt><trkpt lat="41.8253333" lon="12.858885"><ele>368.0</ele><time>2026-04-11T14:10:30.814Z</time></trkpt><trkpt lat="41.8253383" lon="12.8587217"><ele>368.0</ele><time>2026-04-11T14:10:31.814Z</time></trkpt><trkpt lat="41.825345" lon="12.85856"><ele>368.0</ele><time>2026-04-11T14:10:32.813Z</time></trkpt><trkpt lat="41.8253517" lon="12.8584"><ele>368.0</ele><time>2026-04-11T14:10:33.818Z</time></trkpt><trkpt lat="41.8253567" lon="12.8582433"><ele>368.0</ele><time>2026-04-11T14:10:34.813Z</time></trkpt><trkpt lat="41.8253583" lon="12.85809"><ele>368.0</ele><time>2026-04-11T14:10:35.813Z</time></trkpt><trkpt lat="41.8253617" lon="12.85794"><ele>368.0</ele><time>2026-04-11T14:10:36.813Z</time></trkpt><trkpt lat="41.825365" lon="12.85779"><ele>368.0</ele><time>2026-04-11T14:10:37.813Z</time></trkpt><trkpt lat="41.82537" lon="12.8576383"><ele>368.0</ele><time>2026-04-11T14:10:38.813Z</time></trkpt><trkpt lat="41.825375" lon="12.8574767"><ele>368.0</ele><time>2026-04-11T14:10:39.815Z</time></trkpt><trkpt lat="41.82538" lon="12.8573"><ele>368.0</ele><time>2026-04-11T14:10:40.81Z</time></trkpt><trkpt lat="41.8253883" lon="12.857115"><ele>367.25</ele><time>2026-04-11T14:10:41.811Z</time></trkpt><trkpt lat="41.8253983" lon="12.856915"><ele>366.5</ele><time>2026-04-11T14:10:42.811Z</time></trkpt><trkpt lat="41.825405" lon="12.8567133"><ele>365.75</ele><time>2026-04-11T14:10:43.812Z</time></trkpt><trkpt lat="41.8254117" lon="12.8565183"><ele>365.0</ele><time>2026-04-11T14:10:44.812Z</time></trkpt><trkpt lat="41.8254183" lon="12.85633"><ele>364.5</ele><time>2026-04-11T14:10:45.811Z</time></trkpt><trkpt lat="41.825425" lon="12.85614"><ele>364.0</ele><time>2026-04-11T14:10:46.81Z</time></trkpt><trkpt lat="41.8254333" lon="12.855945"><ele>363.5</ele><time>2026-04-11T14:10:47.811Z</time></trkpt><trkpt lat="41.82544" lon="12.8557433"><ele>363.0</ele><time>2026-04-11T14:10:48.81Z</time></trkpt><trkpt lat="41.82545" lon="12.8555383"><ele>363.0</ele><time>2026-04-11T14:10:49.811Z</time></trkpt><trkpt lat="41.825465" lon="12.8553317"><ele>363.0</ele><time>2026-04-11T14:10:50.813Z</time></trkpt><trkpt lat="41.8254783" lon="12.8551367"><ele>363.0</ele><time>2026-04-11T14:10:51.81Z</time></trkpt><trkpt lat="41.8254933" lon="12.8549517"><ele>363.0</ele><time>2026-04-11T14:10:52.812Z</time></trkpt><trkpt lat="41.8255083" lon="12.8547733"><ele>362.5</ele><time>2026-04-11T14:10:53.81Z</time></trkpt><trkpt lat="41.8255217" lon="12.8545967"><ele>362.0</ele><time>2026-04-11T14:10:54.811Z</time></trkpt><trkpt lat="41.8255333" lon="12.8544183"><ele>361.5</ele><time>2026-04-11T14:10:55.811Z</time></trkpt><trkpt lat="41.8255483" lon="12.85424"><ele>361.0</ele><time>2026-04-11T14:10:56.811Z</time></trkpt><trkpt lat="41.8255683" lon="12.854065"><ele>361.0</ele><time>2026-04-11T14:10:57.811Z</time></trkpt><trkpt lat="41.825595" lon="12.8539"><ele>361.0</ele><time>2026-04-11T14:10:58.813Z</time></trkpt><trkpt lat="41.825625" lon="12.8537383"><ele>361.0</ele><time>2026-04-11T14:10:59.811Z</time></trkpt><trkpt lat="41.825655" lon="12.8535683"><ele>361.0</ele><time>2026-04-11T14:11:00.812Z</time></trkpt><trkpt lat="41.8256833" lon="12.8533933"><ele>361.0</ele><time>2026-04-11T14:11:01.811Z</time></trkpt><trkpt lat="41.8257133" lon="12.853215"><ele>361.0</ele><time>2026-04-11T14:11:02.813Z</time></trkpt><trkpt lat="41.8257383" lon="12.85303"><ele>361.0</ele><time>2026-04-11T14:11:03.81Z</time></trkpt><trkpt lat="41.8257567" lon="12.85284"><ele>361.0</ele><time>2026-04-11T14:11:04.813Z</time></trkpt><trkpt lat="41.8257733" lon="12.85264"><ele>361.0</ele><time>2026-04-11T14:11:05.815Z</time></trkpt><trkpt lat="41.8257867" lon="12.8524383"><ele>361.0</ele><time>2026-04-11T14:11:06.81Z</time></trkpt><trkpt lat="41.825795" lon="12.8522417"><ele>361.0</ele><time>2026-04-11T14:11:07.814Z</time></trkpt><trkpt lat="41.8258033" lon="12.8520533"><ele>361.0</ele><time>2026-04-11T14:11:08.813Z</time></trkpt><trkpt lat="41.8258117" lon="12.8518667"><ele>360.5</ele><time>2026-04-11T14:11:09.813Z</time></trkpt><trkpt lat="41.82582" lon="12.8516767"><ele>360.0</ele><time>2026-04-11T14:11:10.812Z</time></trkpt><trkpt lat="41.8258267" lon="12.8514833"><ele>359.5</ele><time>2026-04-11T14:11:11.814Z</time></trkpt><trkpt lat="41.8258333" lon="12.8512917"><ele>359.0</ele><time>2026-04-11T14:11:12.813Z</time></trkpt><trkpt lat="41.8258417" lon="12.8511017"><ele>359.0</ele><time>2026-04-11T14:11:13.812Z</time></trkpt><trkpt lat="41.8258483" lon="12.8509117"><ele>359.0</ele><time>2026-04-11T14:11:14.813Z</time></trkpt><trkpt lat="41.825855" lon="12.8507167"><ele>359.0</ele><time>2026-04-11T14:11:15.814Z</time></trkpt><trkpt lat="41.8258617" lon="12.8505183"><ele>359.0</ele><time>2026-04-11T14:11:16.813Z</time></trkpt><trkpt lat="41.82587" lon="12.8503217"><ele>359.0</ele><time>2026-04-11T14:11:17.81Z</time></trkpt><trkpt lat="41.8258783" lon="12.8501267"><ele>359.0</ele><time>2026-04-11T14:11:18.809Z</time></trkpt><trkpt lat="41.8258867" lon="12.84993"><ele>359.0</ele><time>2026-04-11T14:11:19.811Z</time></trkpt><trkpt lat="41.825895" lon="12.849735"><ele>359.0</ele><time>2026-04-11T14:11:20.81Z</time></trkpt><trkpt lat="41.825905" lon="12.8495383"><ele>359.5</ele><time>2026-04-11T14:11:21.809Z</time></trkpt><trkpt lat="41.8259133" lon="12.8493433"><ele>360.0</ele><time>2026-04-11T14:11:22.809Z</time></trkpt><trkpt lat="41.8259217" lon="12.8491517"><ele>360.5</ele><time>2026-04-11T14:11:23.811Z</time></trkpt><trkpt lat="41.8259283" lon="12.8489617"><ele>361.0</ele><time>2026-04-11T14:11:24.813Z</time></trkpt><trkpt lat="41.8259333" lon="12.84877"><ele>361.0</ele><time>2026-04-11T14:11:25.813Z</time></trkpt><trkpt lat="41.8259367" lon="12.8485783"><ele>361.0</ele><time>2026-04-11T14:11:26.813Z</time></trkpt><trkpt lat="41.82594" lon="12.8483817"><ele>361.0</ele><time>2026-04-11T14:11:27.814Z</time></trkpt><trkpt lat="41.8259417" lon="12.8481883"><ele>361.0</ele><time>2026-04-11T14:11:28.812Z</time></trkpt><trkpt lat="41.825945" lon="12.8480017"><ele>360.25</ele><time>2026-04-11T14:11:29.813Z</time></trkpt><trkpt lat="41.8259517" lon="12.8478183"><ele>359.5</ele><time>2026-04-11T14:11:30.813Z</time></trkpt><trkpt lat="41.82596" lon="12.8476383"><ele>358.75</ele><time>2026-04-11T14:11:31.809Z</time></trkpt><trkpt lat="41.8259683" lon="12.8474567"><ele>358.0</ele><time>2026-04-11T14:11:32.813Z</time></trkpt><trkpt lat="41.825975" lon="12.84727"><ele>357.0</ele><time>2026-04-11T14:11:33.813Z</time></trkpt><trkpt lat="41.8259817" lon="12.8470817"><ele>356.0</ele><time>2026-04-11T14:11:34.814Z</time></trkpt><trkpt lat="41.82599" lon="12.8468917"><ele>355.0</ele><time>2026-04-11T14:11:35.812Z</time></trkpt><trkpt lat="41.8259983" lon="12.8466983"><ele>354.0</ele><time>2026-04-11T14:11:36.814Z</time></trkpt><trkpt lat="41.826005" lon="12.8465033"><ele>353.75</ele><time>2026-04-11T14:11:37.813Z</time></trkpt><trkpt lat="41.8260083" lon="12.84631"><ele>353.5</ele><time>2026-04-11T14:11:38.813Z</time></trkpt><trkpt lat="41.8260083" lon="12.846125"><ele>353.25</ele><time>2026-04-11T14:11:39.816Z</time></trkpt><trkpt lat="41.8260083" lon="12.845945"><ele>353.0</ele><time>2026-04-11T14:11:40.813Z</time></trkpt><trkpt lat="41.8260067" lon="12.845765"><ele>352.75</ele><time>2026-04-11T14:11:41.814Z</time></trkpt><trkpt lat="41.8260083" lon="12.8455867"><ele>352.5</ele><time>2026-04-11T14:11:42.813Z</time></trkpt><trkpt lat="41.8260117" lon="12.84541"><ele>352.25</ele><time>2026-04-11T14:11:43.813Z</time></trkpt><trkpt lat="41.8260133" lon="12.84523"><ele>352.0</ele><time>2026-04-11T14:11:44.813Z</time></trkpt><trkpt lat="41.826015" lon="12.845045"><ele>352.0</ele><time>2026-04-11T14:11:45.811Z</time></trkpt><trkpt lat="41.8260117" lon="12.844855"><ele>352.0</ele><time>2026-04-11T14:11:46.815Z</time></trkpt><trkpt lat="41.8260117" lon="12.8446567"><ele>352.0</ele><time>2026-04-11T14:11:47.811Z</time></trkpt><trkpt lat="41.8260167" lon="12.8444617"><ele>352.0</ele><time>2026-04-11T14:11:48.811Z</time></trkpt><trkpt lat="41.826025" lon="12.8442667"><ele>351.5</ele><time>2026-04-11T14:11:49.812Z</time></trkpt><trkpt lat="41.8260417" lon="12.8440783"><ele>351.0</ele><time>2026-04-11T14:11:50.812Z</time></trkpt><trkpt lat="41.8260683" lon="12.8438967"><ele>350.5</ele><time>2026-04-11T14:11:51.815Z</time></trkpt><trkpt lat="41.8261067" lon="12.8437167"><ele>350.0</ele><time>2026-04-11T14:11:52.813Z</time></trkpt><trkpt lat="41.8261517" lon="12.84354"><ele>348.75</ele><time>2026-04-11T14:11:53.814Z</time></trkpt><trkpt lat="41.8262017" lon="12.8433617"><ele>347.5</ele><time>2026-04-11T14:11:54.814Z</time></trkpt><trkpt lat="41.8262533" lon="12.8431817"><ele>346.25</ele><time>2026-04-11T14:11:55.813Z</time></trkpt><trkpt lat="41.8263" lon="12.8429967"><ele>345.0</ele><time>2026-04-11T14:11:56.813Z</time></trkpt><trkpt lat="41.8263483" lon="12.842815"><ele>345.0</ele><time>2026-04-11T14:11:57.815Z</time></trkpt><trkpt lat="41.8263967" lon="12.8426433"><ele>345.0</ele><time>2026-04-11T14:11:58.813Z</time></trkpt><trkpt lat="41.8264467" lon="12.8424767"><ele>345.0</ele><time>2026-04-11T14:11:59.814Z</time></trkpt><trkpt lat="41.8264983" lon="12.8423117"><ele>345.0</ele><time>2026-04-11T14:12:00.812Z</time></trkpt><trkpt lat="41.8265467" lon="12.8421483"><ele>343.25</ele><time>2026-04-11T14:12:01.813Z</time></trkpt><trkpt lat="41.8265917" lon="12.8419867"><ele>341.5</ele><time>2026-04-11T14:12:02.812Z</time></trkpt><trkpt lat="41.8266267" lon="12.8418217"><ele>339.75</ele><time>2026-04-11T14:12:03.813Z</time></trkpt><trkpt lat="41.8266567" lon="12.841655"><ele>338.0</ele><time>2026-04-11T14:12:04.813Z</time></trkpt><trkpt lat="41.8266767" lon="12.841485"><ele>336.5</ele><time>2026-04-11T14:12:05.812Z</time></trkpt><trkpt lat="41.8266983" lon="12.841315"><ele>335.0</ele><time>2026-04-11T14:12:06.813Z</time></trkpt><trkpt lat="41.8267233" lon="12.8411517"><ele>333.5</ele><time>2026-04-11T14:12:07.813Z</time></trkpt><trkpt lat="41.8267517" lon="12.8409933"><ele>332.0</ele><time>2026-04-11T14:12:08.814Z</time></trkpt><trkpt lat="41.8267817" lon="12.840835"><ele>332.75</ele><time>2026-04-11T14:12:09.813Z</time></trkpt><trkpt lat="41.8268167" lon="12.84068"><ele>333.5</ele><time>2026-04-11T14:12:10.812Z</time></trkpt><trkpt lat="41.8268533" lon="12.8405367"><ele>334.25</ele><time>2026-04-11T14:12:11.814Z</time></trkpt><trkpt lat="41.8268967" lon="12.8404"><ele>335.0</ele><time>2026-04-11T14:12:12.812Z</time></trkpt><trkpt lat="41.8269517" lon="12.8402733"><ele>335.0</ele><time>2026-04-11T14:12:13.814Z</time></trkpt><trkpt lat="41.8270167" lon="12.8401567"><ele>335.0</ele><time>2026-04-11T14:12:14.812Z</time></trkpt><trkpt lat="41.8270783" lon="12.84005"><ele>335.0</ele><time>2026-04-11T14:12:15.813Z</time></trkpt><trkpt lat="41.82713" lon="12.83996"><ele>335.0</ele><time>2026-04-11T14:12:16.813Z</time></trkpt><trkpt lat="41.8271667" lon="12.8398817"><ele>335.0</ele><time>2026-04-11T14:12:17.815Z</time></trkpt><trkpt lat="41.8271933" lon="12.839805"><ele>335.0</ele><time>2026-04-11T14:12:18.813Z</time></trkpt><trkpt lat="41.8272183" lon="12.8397233"><ele>333.1666666666667</ele><time>2026-04-11T14:12:19.813Z</time></trkpt><trkpt lat="41.8272433" lon="12.8396333"><ele>331.33333333333337</ele><time>2026-04-11T14:12:20.813Z</time></trkpt><trkpt lat="41.8272733" lon="12.83953"><ele>329.5</ele><time>2026-04-11T14:12:21.813Z</time></trkpt><trkpt lat="41.8272817" lon="12.839405"><ele>327.6666666666667</ele><time>2026-04-11T14:12:22.811Z</time></trkpt><trkpt lat="41.82728" lon="12.8392683"><ele>325.8333333333333</ele><time>2026-04-11T14:12:23.813Z</time></trkpt><trkpt lat="41.8272817" lon="12.8391417"><ele>324.0</ele><time>2026-04-11T14:12:24.812Z</time></trkpt><trkpt lat="41.8272867" lon="12.8390317"><ele>323.4</ele><time>2026-04-11T14:12:25.811Z</time></trkpt><trkpt lat="41.8273" lon="12.8389483"><ele>322.79999999999995</ele><time>2026-04-11T14:12:26.812Z</time></trkpt><trkpt lat="41.8273533" lon="12.8388233"><ele>322.20000000000005</ele><time>2026-04-11T14:12:28.813Z</time></trkpt><trkpt lat="41.8273717" lon="12.8386717"><ele>321.6</ele><time>2026-04-11T14:12:30.809Z</time></trkpt><trkpt lat="41.82734" lon="12.8385833"><ele>321.0</ele><time>2026-04-11T14:12:31.813Z</time></trkpt><trkpt lat="41.8272717" lon="12.8384783"><ele>321.25</ele><time>2026-04-11T14:12:32.812Z</time></trkpt><trkpt lat="41.8272017" lon="12.8383433"><ele>321.5</ele><time>2026-04-11T14:12:33.813Z</time></trkpt><trkpt lat="41.8271333" lon="12.838195"><ele>321.75</ele><time>2026-04-11T14:12:34.813Z</time></trkpt><trkpt lat="41.8270767" lon="12.8380383"><ele>322.0</ele><time>2026-04-11T14:12:35.813Z</time></trkpt><trkpt lat="41.8270217" lon="12.8378817"><ele>322.0</ele><time>2026-04-11T14:12:36.813Z</time></trkpt><trkpt lat="41.8269683" lon="12.83773"><ele>322.0</ele><time>2026-04-11T14:12:37.812Z</time></trkpt><trkpt lat="41.826915" lon="12.83758"><ele>322.0</ele><time>2026-04-11T14:12:38.812Z</time></trkpt><trkpt lat="41.826865" lon="12.83744"><ele>322.0</ele><time>2026-04-11T14:12:39.814Z</time></trkpt><trkpt lat="41.826815" lon="12.8373083"><ele>321.20000000000005</ele><time>2026-04-11T14:12:40.81Z</time></trkpt><trkpt lat="41.8267683" lon="12.8371817"><ele>320.40000000000003</ele><time>2026-04-11T14:12:41.809Z</time></trkpt><trkpt lat="41.8267233" lon="12.8370633"><ele>319.6</ele><time>2026-04-11T14:12:42.81Z</time></trkpt><trkpt lat="41.8266783" lon="12.8369467"><ele>318.8</ele><time>2026-04-11T14:12:43.813Z</time></trkpt><trkpt lat="41.826635" lon="12.83683"><ele>318.0</ele><time>2026-04-11T14:12:44.814Z</time></trkpt><trkpt lat="41.8265883" lon="12.83671"><ele>318.0</ele><time>2026-04-11T14:12:45.81Z</time></trkpt><trkpt lat="41.82654" lon="12.8365867"><ele>318.0</ele><time>2026-04-11T14:12:46.811Z</time></trkpt><trkpt lat="41.82649" lon="12.8364567"><ele>318.0</ele><time>2026-04-11T14:12:47.809Z</time></trkpt><trkpt lat="41.82644" lon="12.836315"><ele>318.0</ele><time>2026-04-11T14:12:48.813Z</time></trkpt><trkpt lat="41.826385" lon="12.8361633"><ele>318.0</ele><time>2026-04-11T14:12:49.812Z</time></trkpt><trkpt lat="41.8263317" lon="12.83601"><ele>318.0</ele><time>2026-04-11T14:12:50.809Z</time></trkpt><trkpt lat="41.8262817" lon="12.8358617"><ele>318.0</ele><time>2026-04-11T14:12:51.81Z</time></trkpt><trkpt lat="41.8262317" lon="12.83572"><ele>318.0</ele><time>2026-04-11T14:12:52.812Z</time></trkpt><trkpt lat="41.826185" lon="12.8355783"><ele>314.25</ele><time>2026-04-11T14:12:53.81Z</time></trkpt><trkpt lat="41.8261433" lon="12.8354317"><ele>310.5</ele><time>2026-04-11T14:12:54.813Z</time></trkpt><trkpt lat="41.826115" lon="12.8352783"><ele>306.75</ele><time>2026-04-11T14:12:55.812Z</time></trkpt><trkpt lat="41.8261" lon="12.8351217"><ele>303.0</ele><time>2026-04-11T14:12:56.814Z</time></trkpt><trkpt lat="41.8261033" lon="12.83496"><ele>302.5</ele><time>2026-04-11T14:12:57.813Z</time></trkpt><trkpt lat="41.8261217" lon="12.8347917"><ele>302.0</ele><time>2026-04-11T14:12:58.812Z</time></trkpt><trkpt lat="41.8261533" lon="12.834615"><ele>301.5</ele><time>2026-04-11T14:12:59.813Z</time></trkpt><trkpt lat="41.82619" lon="12.8344333"><ele>301.0</ele><time>2026-04-11T14:13:00.813Z</time></trkpt><trkpt lat="41.8262317" lon="12.8342433"><ele>304.3333333333333</ele><time>2026-04-11T14:13:01.814Z</time></trkpt><trkpt lat="41.8262767" lon="12.8340433"><ele>307.6666666666667</ele><time>2026-04-11T14:13:02.814Z</time></trkpt><trkpt lat="41.8263217" lon="12.8338317"><ele>311.0</ele><time>2026-04-11T14:13:03.813Z</time></trkpt><trkpt lat="41.8263683" lon="12.8336117"><ele>314.6666666666667</ele><time>2026-04-11T14:13:04.814Z</time></trkpt><trkpt lat="41.8264183" lon="12.8333933"><ele>318.3333333333333</ele><time>2026-04-11T14:13:05.81Z</time></trkpt><trkpt lat="41.826465" lon="12.8331833"><ele>322.0</ele><time>2026-04-11T14:13:06.812Z</time></trkpt><trkpt lat="41.82651" lon="12.832995"><ele>322.0</ele><time>2026-04-11T14:13:07.813Z</time></trkpt><trkpt lat="41.8265517" lon="12.83282"><ele>322.0</ele><time>2026-04-11T14:13:08.813Z</time></trkpt><trkpt lat="41.8265883" lon="12.8326533"><ele>322.0</ele><time>2026-04-11T14:13:09.813Z</time></trkpt><trkpt lat="41.8266217" lon="12.8325017"><ele>322.0</ele><time>2026-04-11T14:13:10.813Z</time></trkpt><trkpt lat="41.82665" lon="12.832355"><ele>323.0</ele><time>2026-04-11T14:13:11.81Z</time></trkpt><trkpt lat="41.8266717" lon="12.832215"><ele>324.0</ele><time>2026-04-11T14:13:12.813Z</time></trkpt><trkpt lat="41.826685" lon="12.8320783"><ele>325.0</ele><time>2026-04-11T14:13:13.812Z</time></trkpt><trkpt lat="41.8266883" lon="12.83195"><ele>326.0</ele><time>2026-04-11T14:13:14.812Z</time></trkpt><trkpt lat="41.8266883" lon="12.8318317"><ele>327.0</ele><time>2026-04-11T14:13:15.813Z</time></trkpt><trkpt lat="41.8266833" lon="12.831725"><ele>327.0</ele><time>2026-04-11T14:13:16.813Z</time></trkpt><trkpt lat="41.8266767" lon="12.83163"><ele>327.0</ele><time>2026-04-11T14:13:17.811Z</time></trkpt><trkpt lat="41.8266717" lon="12.8315417"><ele>327.0</ele><time>2026-04-11T14:13:18.81Z</time></trkpt><trkpt lat="41.8266667" lon="12.831455"><ele>327.0</ele><time>2026-04-11T14:13:19.81Z</time></trkpt><trkpt lat="41.826665" lon="12.8313617"><ele>327.0</ele><time>2026-04-11T14:13:20.812Z</time></trkpt><trkpt lat="41.8266633" lon="12.831255"><ele>327.0</ele><time>2026-04-11T14:13:21.811Z</time></trkpt><trkpt lat="41.8266567" lon="12.8311317"><ele>327.0</ele><time>2026-04-11T14:13:22.811Z</time></trkpt><trkpt lat="41.82665" lon="12.831"><ele>326.20000000000005</ele><time>2026-04-11T14:13:23.811Z</time></trkpt><trkpt lat="41.8266417" lon="12.8308733"><ele>325.4</ele><time>2026-04-11T14:13:24.811Z</time></trkpt><trkpt lat="41.826635" lon="12.8307583"><ele>324.6</ele><time>2026-04-11T14:13:25.811Z</time></trkpt><trkpt lat="41.826625" lon="12.8306417"><ele>323.79999999999995</ele><time>2026-04-11T14:13:26.811Z</time></trkpt><trkpt lat="41.826615" lon="12.83052"><ele>323.0</ele><time>2026-04-11T14:13:27.81Z</time></trkpt><trkpt lat="41.8266033" lon="12.83039"><ele>323.0</ele><time>2026-04-11T14:13:28.81Z</time></trkpt><trkpt lat="41.8265933" lon="12.8302567"><ele>323.0</ele><time>2026-04-11T14:13:29.811Z</time></trkpt><trkpt lat="41.82658" lon="12.8301183"><ele>323.0</ele><time>2026-04-11T14:13:30.817Z</time></trkpt><trkpt lat="41.8265683" lon="12.82998"><ele>323.0</ele><time>2026-04-11T14:13:31.814Z</time></trkpt><trkpt lat="41.8265567" lon="12.82984"><ele>323.0</ele><time>2026-04-11T14:13:32.813Z</time></trkpt><trkpt lat="41.8265383" lon="12.829705"><ele>323.0</ele><time>2026-04-11T14:13:33.815Z</time></trkpt><trkpt lat="41.8265183" lon="12.829575"><ele>323.0</ele><time>2026-04-11T14:13:34.813Z</time></trkpt><trkpt lat="41.826495" lon="12.8294567"><ele>323.0</ele><time>2026-04-11T14:13:35.812Z</time></trkpt><trkpt lat="41.8264633" lon="12.8293433"><ele>323.0</ele><time>2026-04-11T14:13:36.817Z</time></trkpt><trkpt lat="41.8264317" lon="12.8292333"><ele>323.0</ele><time>2026-04-11T14:13:37.813Z</time></trkpt><trkpt lat="41.8263967" lon="12.82912"><ele>323.0</ele><time>2026-04-11T14:13:38.812Z</time></trkpt><trkpt lat="41.8263667" lon="12.829015"><ele>323.0</ele><time>2026-04-11T14:13:39.809Z</time></trkpt><trkpt lat="41.8263367" lon="12.8289067"><ele>323.0</ele><time>2026-04-11T14:13:40.814Z</time></trkpt><trkpt lat="41.82631" lon="12.8288067"><ele>323.0</ele><time>2026-04-11T14:13:41.81Z</time></trkpt><trkpt lat="41.8262817" lon="12.8287083"><ele>323.0</ele><time>2026-04-11T14:13:42.813Z</time></trkpt><trkpt lat="41.82625" lon="12.8286033"><ele>323.0</ele><time>2026-04-11T14:13:43.812Z</time></trkpt><trkpt lat="41.82622" lon="12.8285"><ele>322.83333333333337</ele><time>2026-04-11T14:13:44.813Z</time></trkpt><trkpt lat="41.8261917" lon="12.8284067"><ele>322.6666666666667</ele><time>2026-04-11T14:13:45.813Z</time></trkpt><trkpt lat="41.826165" lon="12.82832"><ele>322.5</ele><time>2026-04-11T14:13:46.813Z</time></trkpt><trkpt lat="41.8261183" lon="12.8281617"><ele>322.3333333333333</ele><time>2026-04-11T14:13:48.81Z</time></trkpt><trkpt lat="41.826095" lon="12.8280817"><ele>322.16666666666663</ele><time>2026-04-11T14:13:49.81Z</time></trkpt><trkpt lat="41.8260733" lon="12.8280017"><ele>322.0</ele><time>2026-04-11T14:13:50.811Z</time></trkpt><trkpt lat="41.82603" lon="12.8278467"><ele>322.0</ele><time>2026-04-11T14:13:52.81Z</time></trkpt><trkpt lat="41.82598" lon="12.8276967"><ele>322.0</ele><time>2026-04-11T14:13:54.813Z</time></trkpt><trkpt lat="41.8259483" lon="12.82762"><ele>322.0</ele><time>2026-04-11T14:13:55.814Z</time></trkpt><trkpt lat="41.8259" lon="12.8275033"><ele>322.0</ele><time>2026-04-11T14:13:57.814Z</time></trkpt><trkpt lat="41.825825" lon="12.827375"><ele>322.0</ele><time>2026-04-11T14:14:06.81Z</time></trkpt><trkpt lat="41.8257117" lon="12.8273767"><ele>321.0</ele><time>2026-04-11T14:14:08.811Z</time></trkpt><trkpt lat="41.8256333" lon="12.8273767"><ele>320.0</ele><time>2026-04-11T14:14:09.814Z</time></trkpt><trkpt lat="41.8255567" lon="12.8273733"><ele>319.0</ele><time>2026-04-11T14:14:10.813Z</time></trkpt><trkpt lat="41.8254717" lon="12.8273733"><ele>318.0</ele><time>2026-04-11T14:14:11.814Z</time></trkpt><trkpt lat="41.82538" lon="12.8273683"><ele>317.0</ele><time>2026-04-11T14:14:12.814Z</time></trkpt><trkpt lat="41.82528" lon="12.8273717"><ele>316.0</ele><time>2026-04-11T14:14:13.812Z</time></trkpt><trkpt lat="41.825175" lon="12.8273733"><ele>316.2</ele><time>2026-04-11T14:14:14.811Z</time></trkpt><trkpt lat="41.8250683" lon="12.8273767"><ele>316.40000000000003</ele><time>2026-04-11T14:14:15.81Z</time></trkpt><trkpt lat="41.8249633" lon="12.8273817"><ele>316.6</ele><time>2026-04-11T14:14:16.814Z</time></trkpt><trkpt lat="41.824865" lon="12.8273883"><ele>316.8</ele><time>2026-04-11T14:14:17.815Z</time></trkpt><trkpt lat="41.8247717" lon="12.827395"><ele>317.0</ele><time>2026-04-11T14:14:18.812Z</time></trkpt><trkpt lat="41.824675" lon="12.8274017"><ele>317.0</ele><time>2026-04-11T14:14:19.814Z</time></trkpt><trkpt lat="41.8245783" lon="12.8274033"><ele>317.0</ele><time>2026-04-11T14:14:20.814Z</time></trkpt><trkpt lat="41.824475" lon="12.8274067"><ele>317.0</ele><time>2026-04-11T14:14:21.813Z</time></trkpt><trkpt lat="41.82437" lon="12.8274133"><ele>317.0</ele><time>2026-04-11T14:14:22.81Z</time></trkpt><trkpt lat="41.8242617" lon="12.8274233"><ele>317.0</ele><time>2026-04-11T14:14:23.811Z</time></trkpt><trkpt lat="41.824155" lon="12.8274317"><ele>316.8</ele><time>2026-04-11T14:14:24.814Z</time></trkpt><trkpt lat="41.8240483" lon="12.827435"><ele>316.6</ele><time>2026-04-11T14:14:25.814Z</time></trkpt><trkpt lat="41.82395" lon="12.82744"><ele>316.40000000000003</ele><time>2026-04-11T14:14:26.813Z</time></trkpt><trkpt lat="41.8238567" lon="12.8274483"><ele>316.2</ele><time>2026-04-11T14:14:27.814Z</time></trkpt><trkpt lat="41.8237667" lon="12.82746"><ele>316.0</ele><time>2026-04-11T14:14:28.813Z</time></trkpt><trkpt lat="41.823665" lon="12.8274633"><ele>316.0</ele><time>2026-04-11T14:14:29.813Z</time></trkpt><trkpt lat="41.82356" lon="12.8274617"><ele>316.0</ele><time>2026-04-11T14:14:30.814Z</time></trkpt><trkpt lat="41.82345" lon="12.8274617"><ele>316.0</ele><time>2026-04-11T14:14:31.813Z</time></trkpt><trkpt lat="41.8233283" lon="12.8274667"><ele>316.0</ele><time>2026-04-11T14:14:32.813Z</time></trkpt><trkpt lat="41.823205" lon="12.827475"><ele>316.0</ele><time>2026-04-11T14:14:33.813Z</time></trkpt><trkpt lat="41.8230783" lon="12.8274817"><ele>316.0</ele><time>2026-04-11T14:14:34.813Z</time></trkpt><trkpt lat="41.822955" lon="12.8274917"><ele>316.0</ele><time>2026-04-11T14:14:35.811Z</time></trkpt><trkpt lat="41.822845" lon="12.8275017"><ele>316.0</ele><time>2026-04-11T14:14:36.817Z</time></trkpt><trkpt lat="41.822745" lon="12.8275167"><ele>316.0</ele><time>2026-04-11T14:14:37.814Z</time></trkpt><trkpt lat="41.8226517" lon="12.82753"><ele>316.0</ele><time>2026-04-11T14:14:38.814Z</time></trkpt><trkpt lat="41.8225683" lon="12.8275567"><ele>316.0</ele><time>2026-04-11T14:14:39.813Z</time></trkpt><trkpt lat="41.822495" lon="12.8275917"><ele>316.0</ele><time>2026-04-11T14:14:40.813Z</time></trkpt><trkpt lat="41.822435" lon="12.8276417"><ele>316.0</ele><time>2026-04-11T14:14:41.813Z</time></trkpt><trkpt lat="41.8223883" lon="12.8277167"><ele>316.0</ele><time>2026-04-11T14:14:42.81Z</time></trkpt><trkpt lat="41.82236" lon="12.827815"><ele>316.5</ele><time>2026-04-11T14:14:43.811Z</time></trkpt><trkpt lat="41.8223267" lon="12.8279217"><ele>317.0</ele><time>2026-04-11T14:14:44.811Z</time></trkpt><trkpt lat="41.822285" lon="12.8280217"><ele>317.5</ele><time>2026-04-11T14:14:45.81Z</time></trkpt><trkpt lat="41.8222367" lon="12.82811"><ele>318.0</ele><time>2026-04-11T14:14:46.811Z</time></trkpt><trkpt lat="41.8221717" lon="12.8281817"><ele>318.5</ele><time>2026-04-11T14:14:47.811Z</time></trkpt><trkpt lat="41.8220967" lon="12.8282333"><ele>319.0</ele><time>2026-04-11T14:14:48.814Z</time></trkpt><trkpt lat="41.822025" lon="12.8282633"><ele>319.0</ele><time>2026-04-11T14:14:49.812Z</time></trkpt><trkpt lat="41.8219333" lon="12.82831"><ele>319.0</ele><time>2026-04-11T14:14:51.81Z</time></trkpt></trkseg></trk></gpx>